<?xml version="1.0" encoding="UTF-8" standalone="no" ?>
<gpx xmlns="http://www.topografix.com/GPX/1/1" xmlns:xsi="http://www.w3.org/2001/XMLSchema-instance" xsi:schemaLocation="http://www.topografix.com/GPX/1/1 http://www.topografix.com/GPX/1/1/gpx.xsd" version="1.1" creator="VisuGPX - https://www.visugpx.com">
  <metadata>
    <name>NE-O-Indre Sautron Treillières Sucé St Mars Le Cellier Nantes</name>
    <desc><![CDATA[NE-O-Indre Sautron Treillières Sucé St Mars Le Cellier Nantes]]></desc>
  </metadata>
  <trk>
    <name><![CDATA[2022-07-30 08:14 GMT+2]]></name>
    <trkseg>
      <trkpt lat="47.16781" lon="-1.62651">
        <ele>74</ele>
        <time>2022-07-30T06:14:15Z</time>
      </trkpt>
      <trkpt lat="47.16776" lon="-1.62643">
        <ele>67</ele>
        <time>2022-07-30T06:16:16Z</time>
      </trkpt>
      <trkpt lat="47.16779" lon="-1.62656">
        <ele>73</ele>
        <time>2022-07-30T06:18:00Z</time>
      </trkpt>
      <trkpt lat="47.16776" lon="-1.6267">
        <ele>72</ele>
        <time>2022-07-30T06:18:04Z</time>
      </trkpt>
      <trkpt lat="47.16765" lon="-1.62677">
        <ele>72</ele>
        <time>2022-07-30T06:18:07Z</time>
      </trkpt>
      <trkpt lat="47.16756" lon="-1.62672">
        <ele>71</ele>
        <time>2022-07-30T06:18:09Z</time>
      </trkpt>
      <trkpt lat="47.16746" lon="-1.62672">
        <ele>72</ele>
        <time>2022-07-30T06:18:11Z</time>
      </trkpt>
      <trkpt lat="47.16736" lon="-1.62679">
        <ele>73</ele>
        <time>2022-07-30T06:18:13Z</time>
      </trkpt>
      <trkpt lat="47.16727" lon="-1.62686">
        <ele>73</ele>
        <time>2022-07-30T06:18:15Z</time>
      </trkpt>
      <trkpt lat="47.16718" lon="-1.62694">
        <ele>74</ele>
        <time>2022-07-30T06:18:17Z</time>
      </trkpt>
      <trkpt lat="47.16716" lon="-1.62707">
        <ele>74</ele>
        <time>2022-07-30T06:18:19Z</time>
      </trkpt>
      <trkpt lat="47.16723" lon="-1.6272">
        <ele>74</ele>
        <time>2022-07-30T06:18:21Z</time>
      </trkpt>
      <trkpt lat="47.1673" lon="-1.62733">
        <ele>73</ele>
        <time>2022-07-30T06:18:23Z</time>
      </trkpt>
      <trkpt lat="47.16738" lon="-1.62745">
        <ele>73</ele>
        <time>2022-07-30T06:18:25Z</time>
      </trkpt>
      <trkpt lat="47.16746" lon="-1.62757">
        <ele>72</ele>
        <time>2022-07-30T06:18:27Z</time>
      </trkpt>
      <trkpt lat="47.16756" lon="-1.62767">
        <ele>71</ele>
        <time>2022-07-30T06:18:29Z</time>
      </trkpt>
      <trkpt lat="47.16766" lon="-1.62777">
        <ele>71</ele>
        <time>2022-07-30T06:18:31Z</time>
      </trkpt>
      <trkpt lat="47.16777" lon="-1.62786">
        <ele>71</ele>
        <time>2022-07-30T06:18:33Z</time>
      </trkpt>
      <trkpt lat="47.16787" lon="-1.62795">
        <ele>71</ele>
        <time>2022-07-30T06:18:35Z</time>
      </trkpt>
      <trkpt lat="47.16797" lon="-1.62804">
        <ele>70</ele>
        <time>2022-07-30T06:18:37Z</time>
      </trkpt>
      <trkpt lat="47.16806" lon="-1.62812">
        <ele>71</ele>
        <time>2022-07-30T06:18:39Z</time>
      </trkpt>
      <trkpt lat="47.16815" lon="-1.62821">
        <ele>71</ele>
        <time>2022-07-30T06:18:41Z</time>
      </trkpt>
      <trkpt lat="47.16824" lon="-1.6283">
        <ele>71</ele>
        <time>2022-07-30T06:18:43Z</time>
      </trkpt>
      <trkpt lat="47.16834" lon="-1.62839">
        <ele>72</ele>
        <time>2022-07-30T06:18:45Z</time>
      </trkpt>
      <trkpt lat="47.16843" lon="-1.62848">
        <ele>72</ele>
        <time>2022-07-30T06:18:47Z</time>
      </trkpt>
      <trkpt lat="47.16852" lon="-1.62857">
        <ele>72</ele>
        <time>2022-07-30T06:18:49Z</time>
      </trkpt>
      <trkpt lat="47.1686" lon="-1.62866">
        <ele>73</ele>
        <time>2022-07-30T06:18:51Z</time>
      </trkpt>
      <trkpt lat="47.16868" lon="-1.62876">
        <ele>73</ele>
        <time>2022-07-30T06:18:53Z</time>
      </trkpt>
      <trkpt lat="47.16875" lon="-1.62888">
        <ele>73</ele>
        <time>2022-07-30T06:18:55Z</time>
      </trkpt>
      <trkpt lat="47.16881" lon="-1.62902">
        <ele>73</ele>
        <time>2022-07-30T06:18:57Z</time>
      </trkpt>
      <trkpt lat="47.16886" lon="-1.62916">
        <ele>73</ele>
        <time>2022-07-30T06:18:59Z</time>
      </trkpt>
      <trkpt lat="47.16888" lon="-1.62931">
        <ele>74</ele>
        <time>2022-07-30T06:19:01Z</time>
      </trkpt>
      <trkpt lat="47.1689" lon="-1.62947">
        <ele>74</ele>
        <time>2022-07-30T06:19:03Z</time>
      </trkpt>
      <trkpt lat="47.1689" lon="-1.62963">
        <ele>75</ele>
        <time>2022-07-30T06:19:05Z</time>
      </trkpt>
      <trkpt lat="47.1689" lon="-1.62979">
        <ele>75</ele>
        <time>2022-07-30T06:19:07Z</time>
      </trkpt>
      <trkpt lat="47.16889" lon="-1.62996">
        <ele>74</ele>
        <time>2022-07-30T06:19:09Z</time>
      </trkpt>
      <trkpt lat="47.16887" lon="-1.63012">
        <ele>74</ele>
        <time>2022-07-30T06:19:11Z</time>
      </trkpt>
      <trkpt lat="47.16886" lon="-1.63029">
        <ele>75</ele>
        <time>2022-07-30T06:19:13Z</time>
      </trkpt>
      <trkpt lat="47.16886" lon="-1.63045">
        <ele>75</ele>
        <time>2022-07-30T06:19:15Z</time>
      </trkpt>
      <trkpt lat="47.16886" lon="-1.63061">
        <ele>76</ele>
        <time>2022-07-30T06:19:17Z</time>
      </trkpt>
      <trkpt lat="47.16888" lon="-1.63077">
        <ele>76</ele>
        <time>2022-07-30T06:19:19Z</time>
      </trkpt>
      <trkpt lat="47.16891" lon="-1.63093">
        <ele>76</ele>
        <time>2022-07-30T06:19:21Z</time>
      </trkpt>
      <trkpt lat="47.16894" lon="-1.63108">
        <ele>76</ele>
        <time>2022-07-30T06:19:23Z</time>
      </trkpt>
      <trkpt lat="47.16897" lon="-1.63124">
        <ele>76</ele>
        <time>2022-07-30T06:19:25Z</time>
      </trkpt>
      <trkpt lat="47.16902" lon="-1.63139">
        <ele>76</ele>
        <time>2022-07-30T06:19:27Z</time>
      </trkpt>
      <trkpt lat="47.16907" lon="-1.63153">
        <ele>77</ele>
        <time>2022-07-30T06:19:29Z</time>
      </trkpt>
      <trkpt lat="47.16913" lon="-1.63167">
        <ele>76</ele>
        <time>2022-07-30T06:19:31Z</time>
      </trkpt>
      <trkpt lat="47.16919" lon="-1.63181">
        <ele>76</ele>
        <time>2022-07-30T06:19:33Z</time>
      </trkpt>
      <trkpt lat="47.16926" lon="-1.63193">
        <ele>76</ele>
        <time>2022-07-30T06:19:35Z</time>
      </trkpt>
      <trkpt lat="47.16933" lon="-1.63205">
        <ele>77</ele>
        <time>2022-07-30T06:19:37Z</time>
      </trkpt>
      <trkpt lat="47.1694" lon="-1.63216">
        <ele>77</ele>
        <time>2022-07-30T06:19:39Z</time>
      </trkpt>
      <trkpt lat="47.16948" lon="-1.63226">
        <ele>77</ele>
        <time>2022-07-30T06:19:41Z</time>
      </trkpt>
      <trkpt lat="47.16955" lon="-1.63236">
        <ele>77</ele>
        <time>2022-07-30T06:19:43Z</time>
      </trkpt>
      <trkpt lat="47.16962" lon="-1.63244">
        <ele>77</ele>
        <time>2022-07-30T06:19:45Z</time>
      </trkpt>
      <trkpt lat="47.16966" lon="-1.63258">
        <ele>77</ele>
        <time>2022-07-30T06:19:48Z</time>
      </trkpt>
      <trkpt lat="47.16958" lon="-1.6327">
        <ele>77</ele>
        <time>2022-07-30T06:19:50Z</time>
      </trkpt>
      <trkpt lat="47.1695" lon="-1.63282">
        <ele>78</ele>
        <time>2022-07-30T06:19:52Z</time>
      </trkpt>
      <trkpt lat="47.16942" lon="-1.63295">
        <ele>78</ele>
        <time>2022-07-30T06:19:54Z</time>
      </trkpt>
      <trkpt lat="47.16934" lon="-1.63308">
        <ele>78</ele>
        <time>2022-07-30T06:19:56Z</time>
      </trkpt>
      <trkpt lat="47.16926" lon="-1.63321">
        <ele>79</ele>
        <time>2022-07-30T06:19:58Z</time>
      </trkpt>
      <trkpt lat="47.16918" lon="-1.63334">
        <ele>78</ele>
        <time>2022-07-30T06:20:00Z</time>
      </trkpt>
      <trkpt lat="47.16909" lon="-1.63346">
        <ele>79</ele>
        <time>2022-07-30T06:20:02Z</time>
      </trkpt>
      <trkpt lat="47.169" lon="-1.63359">
        <ele>79</ele>
        <time>2022-07-30T06:20:04Z</time>
      </trkpt>
      <trkpt lat="47.16891" lon="-1.63371">
        <ele>79</ele>
        <time>2022-07-30T06:20:06Z</time>
      </trkpt>
      <trkpt lat="47.16882" lon="-1.63385">
        <ele>79</ele>
        <time>2022-07-30T06:20:08Z</time>
      </trkpt>
      <trkpt lat="47.16874" lon="-1.63398">
        <ele>80</ele>
        <time>2022-07-30T06:20:10Z</time>
      </trkpt>
      <trkpt lat="47.16867" lon="-1.63411">
        <ele>81</ele>
        <time>2022-07-30T06:20:12Z</time>
      </trkpt>
      <trkpt lat="47.16859" lon="-1.63424">
        <ele>81</ele>
        <time>2022-07-30T06:20:14Z</time>
      </trkpt>
      <trkpt lat="47.16851" lon="-1.63438">
        <ele>81</ele>
        <time>2022-07-30T06:20:16Z</time>
      </trkpt>
      <trkpt lat="47.16843" lon="-1.63452">
        <ele>81</ele>
        <time>2022-07-30T06:20:18Z</time>
      </trkpt>
      <trkpt lat="47.16835" lon="-1.63466">
        <ele>81</ele>
        <time>2022-07-30T06:20:20Z</time>
      </trkpt>
      <trkpt lat="47.16828" lon="-1.6348">
        <ele>80</ele>
        <time>2022-07-30T06:20:22Z</time>
      </trkpt>
      <trkpt lat="47.1682" lon="-1.63493">
        <ele>81</ele>
        <time>2022-07-30T06:20:24Z</time>
      </trkpt>
      <trkpt lat="47.16812" lon="-1.63507">
        <ele>81</ele>
        <time>2022-07-30T06:20:26Z</time>
      </trkpt>
      <trkpt lat="47.16805" lon="-1.6352">
        <ele>81</ele>
        <time>2022-07-30T06:20:28Z</time>
      </trkpt>
      <trkpt lat="47.16796" lon="-1.63534">
        <ele>81</ele>
        <time>2022-07-30T06:20:30Z</time>
      </trkpt>
      <trkpt lat="47.16788" lon="-1.63547">
        <ele>81</ele>
        <time>2022-07-30T06:20:32Z</time>
      </trkpt>
      <trkpt lat="47.1678" lon="-1.63561">
        <ele>81</ele>
        <time>2022-07-30T06:20:34Z</time>
      </trkpt>
      <trkpt lat="47.16772" lon="-1.63574">
        <ele>81</ele>
        <time>2022-07-30T06:20:36Z</time>
      </trkpt>
      <trkpt lat="47.16764" lon="-1.63588">
        <ele>81</ele>
        <time>2022-07-30T06:20:38Z</time>
      </trkpt>
      <trkpt lat="47.16757" lon="-1.63601">
        <ele>81</ele>
        <time>2022-07-30T06:20:40Z</time>
      </trkpt>
      <trkpt lat="47.16749" lon="-1.63615">
        <ele>80</ele>
        <time>2022-07-30T06:20:42Z</time>
      </trkpt>
      <trkpt lat="47.16743" lon="-1.63628">
        <ele>80</ele>
        <time>2022-07-30T06:20:44Z</time>
      </trkpt>
      <trkpt lat="47.16745" lon="-1.63642">
        <ele>80</ele>
        <time>2022-07-30T06:20:46Z</time>
      </trkpt>
      <trkpt lat="47.16756" lon="-1.63647">
        <ele>80</ele>
        <time>2022-07-30T06:20:48Z</time>
      </trkpt>
      <trkpt lat="47.16767" lon="-1.63651">
        <ele>80</ele>
        <time>2022-07-30T06:20:50Z</time>
      </trkpt>
      <trkpt lat="47.16779" lon="-1.63655">
        <ele>79</ele>
        <time>2022-07-30T06:20:52Z</time>
      </trkpt>
      <trkpt lat="47.16791" lon="-1.6366">
        <ele>78</ele>
        <time>2022-07-30T06:20:54Z</time>
      </trkpt>
      <trkpt lat="47.16803" lon="-1.63664">
        <ele>78</ele>
        <time>2022-07-30T06:20:56Z</time>
      </trkpt>
      <trkpt lat="47.16815" lon="-1.63669">
        <ele>78</ele>
        <time>2022-07-30T06:20:58Z</time>
      </trkpt>
      <trkpt lat="47.16827" lon="-1.63674">
        <ele>78</ele>
        <time>2022-07-30T06:21:00Z</time>
      </trkpt>
      <trkpt lat="47.16838" lon="-1.63678">
        <ele>79</ele>
        <time>2022-07-30T06:21:02Z</time>
      </trkpt>
      <trkpt lat="47.1685" lon="-1.63682">
        <ele>79</ele>
        <time>2022-07-30T06:21:04Z</time>
      </trkpt>
      <trkpt lat="47.16862" lon="-1.63686">
        <ele>79</ele>
        <time>2022-07-30T06:21:06Z</time>
      </trkpt>
      <trkpt lat="47.16874" lon="-1.63691">
        <ele>78</ele>
        <time>2022-07-30T06:21:08Z</time>
      </trkpt>
      <trkpt lat="47.16886" lon="-1.63695">
        <ele>79</ele>
        <time>2022-07-30T06:21:10Z</time>
      </trkpt>
      <trkpt lat="47.16899" lon="-1.63699">
        <ele>79</ele>
        <time>2022-07-30T06:21:12Z</time>
      </trkpt>
      <trkpt lat="47.16911" lon="-1.63704">
        <ele>79</ele>
        <time>2022-07-30T06:21:14Z</time>
      </trkpt>
      <trkpt lat="47.16923" lon="-1.63709">
        <ele>78</ele>
        <time>2022-07-30T06:21:16Z</time>
      </trkpt>
      <trkpt lat="47.16936" lon="-1.63713">
        <ele>78</ele>
        <time>2022-07-30T06:21:18Z</time>
      </trkpt>
      <trkpt lat="47.16948" lon="-1.63718">
        <ele>78</ele>
        <time>2022-07-30T06:21:20Z</time>
      </trkpt>
      <trkpt lat="47.1696" lon="-1.63722">
        <ele>78</ele>
        <time>2022-07-30T06:21:22Z</time>
      </trkpt>
      <trkpt lat="47.16973" lon="-1.63727">
        <ele>78</ele>
        <time>2022-07-30T06:21:24Z</time>
      </trkpt>
      <trkpt lat="47.16986" lon="-1.63732">
        <ele>77</ele>
        <time>2022-07-30T06:21:26Z</time>
      </trkpt>
      <trkpt lat="47.16998" lon="-1.63736">
        <ele>77</ele>
        <time>2022-07-30T06:21:28Z</time>
      </trkpt>
      <trkpt lat="47.17011" lon="-1.63741">
        <ele>77</ele>
        <time>2022-07-30T06:21:30Z</time>
      </trkpt>
      <trkpt lat="47.17023" lon="-1.63746">
        <ele>77</ele>
        <time>2022-07-30T06:21:32Z</time>
      </trkpt>
      <trkpt lat="47.17035" lon="-1.63751">
        <ele>78</ele>
        <time>2022-07-30T06:21:34Z</time>
      </trkpt>
      <trkpt lat="47.17047" lon="-1.63758">
        <ele>78</ele>
        <time>2022-07-30T06:21:36Z</time>
      </trkpt>
      <trkpt lat="47.17057" lon="-1.63768">
        <ele>77</ele>
        <time>2022-07-30T06:21:38Z</time>
      </trkpt>
      <trkpt lat="47.17065" lon="-1.63782">
        <ele>78</ele>
        <time>2022-07-30T06:21:40Z</time>
      </trkpt>
      <trkpt lat="47.1707" lon="-1.63799">
        <ele>78</ele>
        <time>2022-07-30T06:21:42Z</time>
      </trkpt>
      <trkpt lat="47.17075" lon="-1.63816">
        <ele>79</ele>
        <time>2022-07-30T06:21:44Z</time>
      </trkpt>
      <trkpt lat="47.17081" lon="-1.63832">
        <ele>79</ele>
        <time>2022-07-30T06:21:46Z</time>
      </trkpt>
      <trkpt lat="47.17086" lon="-1.63849">
        <ele>79</ele>
        <time>2022-07-30T06:21:48Z</time>
      </trkpt>
      <trkpt lat="47.17092" lon="-1.63866">
        <ele>79</ele>
        <time>2022-07-30T06:21:50Z</time>
      </trkpt>
      <trkpt lat="47.17098" lon="-1.63882">
        <ele>79</ele>
        <time>2022-07-30T06:21:52Z</time>
      </trkpt>
      <trkpt lat="47.17104" lon="-1.63898">
        <ele>79</ele>
        <time>2022-07-30T06:21:54Z</time>
      </trkpt>
      <trkpt lat="47.1711" lon="-1.63914">
        <ele>79</ele>
        <time>2022-07-30T06:21:56Z</time>
      </trkpt>
      <trkpt lat="47.17115" lon="-1.63928">
        <ele>78</ele>
        <time>2022-07-30T06:21:58Z</time>
      </trkpt>
      <trkpt lat="47.17123" lon="-1.63938">
        <ele>78</ele>
        <time>2022-07-30T06:22:00Z</time>
      </trkpt>
      <trkpt lat="47.17131" lon="-1.63944">
        <ele>78</ele>
        <time>2022-07-30T06:22:02Z</time>
      </trkpt>
      <trkpt lat="47.17137" lon="-1.63961">
        <ele>78</ele>
        <time>2022-07-30T06:22:05Z</time>
      </trkpt>
      <trkpt lat="47.17137" lon="-1.63977">
        <ele>78</ele>
        <time>2022-07-30T06:22:07Z</time>
      </trkpt>
      <trkpt lat="47.17137" lon="-1.63994">
        <ele>78</ele>
        <time>2022-07-30T06:22:09Z</time>
      </trkpt>
      <trkpt lat="47.17134" lon="-1.64012">
        <ele>79</ele>
        <time>2022-07-30T06:22:11Z</time>
      </trkpt>
      <trkpt lat="47.17133" lon="-1.6403">
        <ele>80</ele>
        <time>2022-07-30T06:22:13Z</time>
      </trkpt>
      <trkpt lat="47.1713" lon="-1.64048">
        <ele>80</ele>
        <time>2022-07-30T06:22:15Z</time>
      </trkpt>
      <trkpt lat="47.17128" lon="-1.64066">
        <ele>80</ele>
        <time>2022-07-30T06:22:17Z</time>
      </trkpt>
      <trkpt lat="47.17126" lon="-1.64084">
        <ele>80</ele>
        <time>2022-07-30T06:22:19Z</time>
      </trkpt>
      <trkpt lat="47.17124" lon="-1.64103">
        <ele>80</ele>
        <time>2022-07-30T06:22:21Z</time>
      </trkpt>
      <trkpt lat="47.17122" lon="-1.64121">
        <ele>80</ele>
        <time>2022-07-30T06:22:23Z</time>
      </trkpt>
      <trkpt lat="47.1712" lon="-1.64139">
        <ele>80</ele>
        <time>2022-07-30T06:22:25Z</time>
      </trkpt>
      <trkpt lat="47.17119" lon="-1.64158">
        <ele>80</ele>
        <time>2022-07-30T06:22:27Z</time>
      </trkpt>
      <trkpt lat="47.17118" lon="-1.64176">
        <ele>80</ele>
        <time>2022-07-30T06:22:29Z</time>
      </trkpt>
      <trkpt lat="47.17116" lon="-1.64195">
        <ele>80</ele>
        <time>2022-07-30T06:22:31Z</time>
      </trkpt>
      <trkpt lat="47.17113" lon="-1.64212">
        <ele>81</ele>
        <time>2022-07-30T06:22:33Z</time>
      </trkpt>
      <trkpt lat="47.17111" lon="-1.6423">
        <ele>81</ele>
        <time>2022-07-30T06:22:35Z</time>
      </trkpt>
      <trkpt lat="47.1711" lon="-1.64248">
        <ele>82</ele>
        <time>2022-07-30T06:22:37Z</time>
      </trkpt>
      <trkpt lat="47.17108" lon="-1.64267">
        <ele>82</ele>
        <time>2022-07-30T06:22:39Z</time>
      </trkpt>
      <trkpt lat="47.17106" lon="-1.64286">
        <ele>81</ele>
        <time>2022-07-30T06:22:41Z</time>
      </trkpt>
      <trkpt lat="47.17104" lon="-1.64304">
        <ele>81</ele>
        <time>2022-07-30T06:22:43Z</time>
      </trkpt>
      <trkpt lat="47.17102" lon="-1.64323">
        <ele>82</ele>
        <time>2022-07-30T06:22:45Z</time>
      </trkpt>
      <trkpt lat="47.171" lon="-1.64341">
        <ele>81</ele>
        <time>2022-07-30T06:22:47Z</time>
      </trkpt>
      <trkpt lat="47.17098" lon="-1.64359">
        <ele>81</ele>
        <time>2022-07-30T06:22:49Z</time>
      </trkpt>
      <trkpt lat="47.17097" lon="-1.64378">
        <ele>81</ele>
        <time>2022-07-30T06:22:51Z</time>
      </trkpt>
      <trkpt lat="47.17095" lon="-1.64396">
        <ele>82</ele>
        <time>2022-07-30T06:22:53Z</time>
      </trkpt>
      <trkpt lat="47.17094" lon="-1.64415">
        <ele>81</ele>
        <time>2022-07-30T06:22:55Z</time>
      </trkpt>
      <trkpt lat="47.17093" lon="-1.64434">
        <ele>82</ele>
        <time>2022-07-30T06:22:57Z</time>
      </trkpt>
      <trkpt lat="47.17092" lon="-1.64453">
        <ele>82</ele>
        <time>2022-07-30T06:22:59Z</time>
      </trkpt>
      <trkpt lat="47.17091" lon="-1.64472">
        <ele>82</ele>
        <time>2022-07-30T06:23:01Z</time>
      </trkpt>
      <trkpt lat="47.1709" lon="-1.64492">
        <ele>82</ele>
        <time>2022-07-30T06:23:03Z</time>
      </trkpt>
      <trkpt lat="47.17089" lon="-1.64511">
        <ele>82</ele>
        <time>2022-07-30T06:23:05Z</time>
      </trkpt>
      <trkpt lat="47.17089" lon="-1.64531">
        <ele>82</ele>
        <time>2022-07-30T06:23:07Z</time>
      </trkpt>
      <trkpt lat="47.17087" lon="-1.6455">
        <ele>82</ele>
        <time>2022-07-30T06:23:09Z</time>
      </trkpt>
      <trkpt lat="47.17087" lon="-1.6457">
        <ele>82</ele>
        <time>2022-07-30T06:23:11Z</time>
      </trkpt>
      <trkpt lat="47.17087" lon="-1.64591">
        <ele>82</ele>
        <time>2022-07-30T06:23:13Z</time>
      </trkpt>
      <trkpt lat="47.17086" lon="-1.64611">
        <ele>81</ele>
        <time>2022-07-30T06:23:15Z</time>
      </trkpt>
      <trkpt lat="47.17086" lon="-1.64632">
        <ele>81</ele>
        <time>2022-07-30T06:23:17Z</time>
      </trkpt>
      <trkpt lat="47.17086" lon="-1.64652">
        <ele>81</ele>
        <time>2022-07-30T06:23:19Z</time>
      </trkpt>
      <trkpt lat="47.17087" lon="-1.64672">
        <ele>81</ele>
        <time>2022-07-30T06:23:21Z</time>
      </trkpt>
      <trkpt lat="47.17087" lon="-1.64692">
        <ele>81</ele>
        <time>2022-07-30T06:23:23Z</time>
      </trkpt>
      <trkpt lat="47.17088" lon="-1.64712">
        <ele>81</ele>
        <time>2022-07-30T06:23:25Z</time>
      </trkpt>
      <trkpt lat="47.17089" lon="-1.64732">
        <ele>81</ele>
        <time>2022-07-30T06:23:27Z</time>
      </trkpt>
      <trkpt lat="47.17089" lon="-1.64752">
        <ele>82</ele>
        <time>2022-07-30T06:23:29Z</time>
      </trkpt>
      <trkpt lat="47.1709" lon="-1.64772">
        <ele>83</ele>
        <time>2022-07-30T06:23:31Z</time>
      </trkpt>
      <trkpt lat="47.17092" lon="-1.64791">
        <ele>83</ele>
        <time>2022-07-30T06:23:33Z</time>
      </trkpt>
      <trkpt lat="47.17093" lon="-1.64812">
        <ele>82</ele>
        <time>2022-07-30T06:23:35Z</time>
      </trkpt>
      <trkpt lat="47.17094" lon="-1.64832">
        <ele>81</ele>
        <time>2022-07-30T06:23:37Z</time>
      </trkpt>
      <trkpt lat="47.17095" lon="-1.64852">
        <ele>81</ele>
        <time>2022-07-30T06:23:39Z</time>
      </trkpt>
      <trkpt lat="47.17098" lon="-1.64882">
        <ele>80</ele>
        <time>2022-07-30T06:23:42Z</time>
      </trkpt>
      <trkpt lat="47.17099" lon="-1.64903">
        <ele>79</ele>
        <time>2022-07-30T06:23:44Z</time>
      </trkpt>
      <trkpt lat="47.17101" lon="-1.64923">
        <ele>80</ele>
        <time>2022-07-30T06:23:46Z</time>
      </trkpt>
      <trkpt lat="47.17103" lon="-1.64943">
        <ele>79</ele>
        <time>2022-07-30T06:23:48Z</time>
      </trkpt>
      <trkpt lat="47.17104" lon="-1.64962">
        <ele>79</ele>
        <time>2022-07-30T06:23:50Z</time>
      </trkpt>
      <trkpt lat="47.17105" lon="-1.64982">
        <ele>79</ele>
        <time>2022-07-30T06:23:52Z</time>
      </trkpt>
      <trkpt lat="47.17107" lon="-1.65011">
        <ele>80</ele>
        <time>2022-07-30T06:23:55Z</time>
      </trkpt>
      <trkpt lat="47.17109" lon="-1.65031">
        <ele>80</ele>
        <time>2022-07-30T06:23:57Z</time>
      </trkpt>
      <trkpt lat="47.17111" lon="-1.6506">
        <ele>80</ele>
        <time>2022-07-30T06:24:00Z</time>
      </trkpt>
      <trkpt lat="47.17113" lon="-1.65079">
        <ele>80</ele>
        <time>2022-07-30T06:24:02Z</time>
      </trkpt>
      <trkpt lat="47.17114" lon="-1.65099">
        <ele>80</ele>
        <time>2022-07-30T06:24:04Z</time>
      </trkpt>
      <trkpt lat="47.17116" lon="-1.65127">
        <ele>80</ele>
        <time>2022-07-30T06:24:07Z</time>
      </trkpt>
      <trkpt lat="47.17117" lon="-1.65146">
        <ele>80</ele>
        <time>2022-07-30T06:24:09Z</time>
      </trkpt>
      <trkpt lat="47.17118" lon="-1.65165">
        <ele>80</ele>
        <time>2022-07-30T06:24:11Z</time>
      </trkpt>
      <trkpt lat="47.17119" lon="-1.65183">
        <ele>81</ele>
        <time>2022-07-30T06:24:13Z</time>
      </trkpt>
      <trkpt lat="47.1712" lon="-1.652">
        <ele>81</ele>
        <time>2022-07-30T06:24:15Z</time>
      </trkpt>
      <trkpt lat="47.17122" lon="-1.65218">
        <ele>81</ele>
        <time>2022-07-30T06:24:17Z</time>
      </trkpt>
      <trkpt lat="47.17124" lon="-1.65236">
        <ele>81</ele>
        <time>2022-07-30T06:24:19Z</time>
      </trkpt>
      <trkpt lat="47.17127" lon="-1.65253">
        <ele>81</ele>
        <time>2022-07-30T06:24:21Z</time>
      </trkpt>
      <trkpt lat="47.17133" lon="-1.65268">
        <ele>81</ele>
        <time>2022-07-30T06:24:23Z</time>
      </trkpt>
      <trkpt lat="47.17141" lon="-1.65279">
        <ele>82</ele>
        <time>2022-07-30T06:24:25Z</time>
      </trkpt>
      <trkpt lat="47.1715" lon="-1.6529">
        <ele>81</ele>
        <time>2022-07-30T06:24:27Z</time>
      </trkpt>
      <trkpt lat="47.17161" lon="-1.653">
        <ele>80</ele>
        <time>2022-07-30T06:24:29Z</time>
      </trkpt>
      <trkpt lat="47.1717" lon="-1.65313">
        <ele>80</ele>
        <time>2022-07-30T06:24:31Z</time>
      </trkpt>
      <trkpt lat="47.17176" lon="-1.65329">
        <ele>80</ele>
        <time>2022-07-30T06:24:33Z</time>
      </trkpt>
      <trkpt lat="47.17178" lon="-1.65348">
        <ele>80</ele>
        <time>2022-07-30T06:24:35Z</time>
      </trkpt>
      <trkpt lat="47.17177" lon="-1.65367">
        <ele>80</ele>
        <time>2022-07-30T06:24:37Z</time>
      </trkpt>
      <trkpt lat="47.17174" lon="-1.65385">
        <ele>80</ele>
        <time>2022-07-30T06:24:39Z</time>
      </trkpt>
      <trkpt lat="47.17172" lon="-1.65404">
        <ele>80</ele>
        <time>2022-07-30T06:24:41Z</time>
      </trkpt>
      <trkpt lat="47.17169" lon="-1.65423">
        <ele>80</ele>
        <time>2022-07-30T06:24:43Z</time>
      </trkpt>
      <trkpt lat="47.17167" lon="-1.65443">
        <ele>80</ele>
        <time>2022-07-30T06:24:45Z</time>
      </trkpt>
      <trkpt lat="47.17165" lon="-1.65462">
        <ele>80</ele>
        <time>2022-07-30T06:24:47Z</time>
      </trkpt>
      <trkpt lat="47.17163" lon="-1.65481">
        <ele>80</ele>
        <time>2022-07-30T06:24:49Z</time>
      </trkpt>
      <trkpt lat="47.17161" lon="-1.655">
        <ele>81</ele>
        <time>2022-07-30T06:24:51Z</time>
      </trkpt>
      <trkpt lat="47.17159" lon="-1.65518">
        <ele>81</ele>
        <time>2022-07-30T06:24:53Z</time>
      </trkpt>
      <trkpt lat="47.17158" lon="-1.65537">
        <ele>81</ele>
        <time>2022-07-30T06:24:55Z</time>
      </trkpt>
      <trkpt lat="47.17156" lon="-1.65555">
        <ele>81</ele>
        <time>2022-07-30T06:24:57Z</time>
      </trkpt>
      <trkpt lat="47.17156" lon="-1.65574">
        <ele>81</ele>
        <time>2022-07-30T06:24:59Z</time>
      </trkpt>
      <trkpt lat="47.17154" lon="-1.65593">
        <ele>82</ele>
        <time>2022-07-30T06:25:01Z</time>
      </trkpt>
      <trkpt lat="47.17153" lon="-1.65612">
        <ele>82</ele>
        <time>2022-07-30T06:25:03Z</time>
      </trkpt>
      <trkpt lat="47.17153" lon="-1.65631">
        <ele>82</ele>
        <time>2022-07-30T06:25:05Z</time>
      </trkpt>
      <trkpt lat="47.17153" lon="-1.6565">
        <ele>82</ele>
        <time>2022-07-30T06:25:07Z</time>
      </trkpt>
      <trkpt lat="47.17153" lon="-1.65669">
        <ele>82</ele>
        <time>2022-07-30T06:25:09Z</time>
      </trkpt>
      <trkpt lat="47.17154" lon="-1.65688">
        <ele>82</ele>
        <time>2022-07-30T06:25:11Z</time>
      </trkpt>
      <trkpt lat="47.17155" lon="-1.65707">
        <ele>81</ele>
        <time>2022-07-30T06:25:13Z</time>
      </trkpt>
      <trkpt lat="47.17156" lon="-1.65727">
        <ele>81</ele>
        <time>2022-07-30T06:25:15Z</time>
      </trkpt>
      <trkpt lat="47.17158" lon="-1.65745">
        <ele>81</ele>
        <time>2022-07-30T06:25:17Z</time>
      </trkpt>
      <trkpt lat="47.1716" lon="-1.65764">
        <ele>81</ele>
        <time>2022-07-30T06:25:19Z</time>
      </trkpt>
      <trkpt lat="47.17162" lon="-1.65783">
        <ele>81</ele>
        <time>2022-07-30T06:25:21Z</time>
      </trkpt>
      <trkpt lat="47.17164" lon="-1.65802">
        <ele>81</ele>
        <time>2022-07-30T06:25:23Z</time>
      </trkpt>
      <trkpt lat="47.17167" lon="-1.65821">
        <ele>81</ele>
        <time>2022-07-30T06:25:25Z</time>
      </trkpt>
      <trkpt lat="47.1717" lon="-1.6584">
        <ele>81</ele>
        <time>2022-07-30T06:25:27Z</time>
      </trkpt>
      <trkpt lat="47.17173" lon="-1.65858">
        <ele>81</ele>
        <time>2022-07-30T06:25:29Z</time>
      </trkpt>
      <trkpt lat="47.17176" lon="-1.65877">
        <ele>80</ele>
        <time>2022-07-30T06:25:31Z</time>
      </trkpt>
      <trkpt lat="47.17179" lon="-1.65895">
        <ele>80</ele>
        <time>2022-07-30T06:25:33Z</time>
      </trkpt>
      <trkpt lat="47.17182" lon="-1.65915">
        <ele>80</ele>
        <time>2022-07-30T06:25:35Z</time>
      </trkpt>
      <trkpt lat="47.17186" lon="-1.65933">
        <ele>81</ele>
        <time>2022-07-30T06:25:37Z</time>
      </trkpt>
      <trkpt lat="47.17189" lon="-1.65952">
        <ele>81</ele>
        <time>2022-07-30T06:25:39Z</time>
      </trkpt>
      <trkpt lat="47.17193" lon="-1.6597">
        <ele>81</ele>
        <time>2022-07-30T06:25:41Z</time>
      </trkpt>
      <trkpt lat="47.17197" lon="-1.6599">
        <ele>81</ele>
        <time>2022-07-30T06:25:43Z</time>
      </trkpt>
      <trkpt lat="47.172" lon="-1.66009">
        <ele>81</ele>
        <time>2022-07-30T06:25:45Z</time>
      </trkpt>
      <trkpt lat="47.17204" lon="-1.66027">
        <ele>81</ele>
        <time>2022-07-30T06:25:47Z</time>
      </trkpt>
      <trkpt lat="47.17207" lon="-1.66046">
        <ele>81</ele>
        <time>2022-07-30T06:25:49Z</time>
      </trkpt>
      <trkpt lat="47.17211" lon="-1.66064">
        <ele>80</ele>
        <time>2022-07-30T06:25:51Z</time>
      </trkpt>
      <trkpt lat="47.17215" lon="-1.66082">
        <ele>80</ele>
        <time>2022-07-30T06:25:53Z</time>
      </trkpt>
      <trkpt lat="47.17219" lon="-1.661">
        <ele>80</ele>
        <time>2022-07-30T06:25:55Z</time>
      </trkpt>
      <trkpt lat="47.17223" lon="-1.66118">
        <ele>81</ele>
        <time>2022-07-30T06:25:57Z</time>
      </trkpt>
      <trkpt lat="47.17227" lon="-1.66135">
        <ele>81</ele>
        <time>2022-07-30T06:25:59Z</time>
      </trkpt>
      <trkpt lat="47.1723" lon="-1.66152">
        <ele>81</ele>
        <time>2022-07-30T06:26:01Z</time>
      </trkpt>
      <trkpt lat="47.17236" lon="-1.66167">
        <ele>81</ele>
        <time>2022-07-30T06:26:03Z</time>
      </trkpt>
      <trkpt lat="47.17242" lon="-1.66181">
        <ele>81</ele>
        <time>2022-07-30T06:26:05Z</time>
      </trkpt>
      <trkpt lat="47.17248" lon="-1.66195">
        <ele>82</ele>
        <time>2022-07-30T06:26:07Z</time>
      </trkpt>
      <trkpt lat="47.17255" lon="-1.66207">
        <ele>83</ele>
        <time>2022-07-30T06:26:09Z</time>
      </trkpt>
      <trkpt lat="47.17261" lon="-1.6622">
        <ele>84</ele>
        <time>2022-07-30T06:26:11Z</time>
      </trkpt>
      <trkpt lat="47.17266" lon="-1.66234">
        <ele>84</ele>
        <time>2022-07-30T06:26:13Z</time>
      </trkpt>
      <trkpt lat="47.17273" lon="-1.66247">
        <ele>84</ele>
        <time>2022-07-30T06:26:15Z</time>
      </trkpt>
      <trkpt lat="47.1728" lon="-1.66258">
        <ele>85</ele>
        <time>2022-07-30T06:26:17Z</time>
      </trkpt>
      <trkpt lat="47.17288" lon="-1.66272">
        <ele>85</ele>
        <time>2022-07-30T06:26:19Z</time>
      </trkpt>
      <trkpt lat="47.17296" lon="-1.66285">
        <ele>85</ele>
        <time>2022-07-30T06:26:21Z</time>
      </trkpt>
      <trkpt lat="47.17305" lon="-1.663">
        <ele>86</ele>
        <time>2022-07-30T06:26:23Z</time>
      </trkpt>
      <trkpt lat="47.17312" lon="-1.66314">
        <ele>86</ele>
        <time>2022-07-30T06:26:25Z</time>
      </trkpt>
      <trkpt lat="47.1732" lon="-1.66328">
        <ele>86</ele>
        <time>2022-07-30T06:26:27Z</time>
      </trkpt>
      <trkpt lat="47.17328" lon="-1.66341">
        <ele>86</ele>
        <time>2022-07-30T06:26:29Z</time>
      </trkpt>
      <trkpt lat="47.17335" lon="-1.66354">
        <ele>87</ele>
        <time>2022-07-30T06:26:31Z</time>
      </trkpt>
      <trkpt lat="47.17341" lon="-1.66369">
        <ele>86</ele>
        <time>2022-07-30T06:26:33Z</time>
      </trkpt>
      <trkpt lat="47.17349" lon="-1.66383">
        <ele>87</ele>
        <time>2022-07-30T06:26:35Z</time>
      </trkpt>
      <trkpt lat="47.17356" lon="-1.66396">
        <ele>87</ele>
        <time>2022-07-30T06:26:37Z</time>
      </trkpt>
      <trkpt lat="47.17363" lon="-1.66411">
        <ele>88</ele>
        <time>2022-07-30T06:26:39Z</time>
      </trkpt>
      <trkpt lat="47.17371" lon="-1.66425">
        <ele>87</ele>
        <time>2022-07-30T06:26:41Z</time>
      </trkpt>
      <trkpt lat="47.1738" lon="-1.66438">
        <ele>87</ele>
        <time>2022-07-30T06:26:43Z</time>
      </trkpt>
      <trkpt lat="47.17388" lon="-1.66453">
        <ele>87</ele>
        <time>2022-07-30T06:26:45Z</time>
      </trkpt>
      <trkpt lat="47.17396" lon="-1.66467">
        <ele>86</ele>
        <time>2022-07-30T06:26:47Z</time>
      </trkpt>
      <trkpt lat="47.17403" lon="-1.66481">
        <ele>86</ele>
        <time>2022-07-30T06:26:49Z</time>
      </trkpt>
      <trkpt lat="47.17411" lon="-1.66495">
        <ele>86</ele>
        <time>2022-07-30T06:26:51Z</time>
      </trkpt>
      <trkpt lat="47.17419" lon="-1.66509">
        <ele>86</ele>
        <time>2022-07-30T06:26:53Z</time>
      </trkpt>
      <trkpt lat="47.17427" lon="-1.66523">
        <ele>87</ele>
        <time>2022-07-30T06:26:55Z</time>
      </trkpt>
      <trkpt lat="47.17434" lon="-1.66536">
        <ele>87</ele>
        <time>2022-07-30T06:26:57Z</time>
      </trkpt>
      <trkpt lat="47.17441" lon="-1.6655">
        <ele>87</ele>
        <time>2022-07-30T06:26:59Z</time>
      </trkpt>
      <trkpt lat="47.17449" lon="-1.66564">
        <ele>87</ele>
        <time>2022-07-30T06:27:01Z</time>
      </trkpt>
      <trkpt lat="47.17455" lon="-1.66578">
        <ele>88</ele>
        <time>2022-07-30T06:27:03Z</time>
      </trkpt>
      <trkpt lat="47.17462" lon="-1.66592">
        <ele>88</ele>
        <time>2022-07-30T06:27:05Z</time>
      </trkpt>
      <trkpt lat="47.17471" lon="-1.66607">
        <ele>88</ele>
        <time>2022-07-30T06:27:07Z</time>
      </trkpt>
      <trkpt lat="47.1748" lon="-1.66621">
        <ele>89</ele>
        <time>2022-07-30T06:27:09Z</time>
      </trkpt>
      <trkpt lat="47.17488" lon="-1.66636">
        <ele>89</ele>
        <time>2022-07-30T06:27:11Z</time>
      </trkpt>
      <trkpt lat="47.17496" lon="-1.66651">
        <ele>89</ele>
        <time>2022-07-30T06:27:13Z</time>
      </trkpt>
      <trkpt lat="47.17503" lon="-1.66666">
        <ele>89</ele>
        <time>2022-07-30T06:27:15Z</time>
      </trkpt>
      <trkpt lat="47.17511" lon="-1.6668">
        <ele>89</ele>
        <time>2022-07-30T06:27:17Z</time>
      </trkpt>
      <trkpt lat="47.17519" lon="-1.66694">
        <ele>89</ele>
        <time>2022-07-30T06:27:19Z</time>
      </trkpt>
      <trkpt lat="47.17527" lon="-1.66709">
        <ele>89</ele>
        <time>2022-07-30T06:27:21Z</time>
      </trkpt>
      <trkpt lat="47.17534" lon="-1.66723">
        <ele>89</ele>
        <time>2022-07-30T06:27:23Z</time>
      </trkpt>
      <trkpt lat="47.17541" lon="-1.66736">
        <ele>89</ele>
        <time>2022-07-30T06:27:25Z</time>
      </trkpt>
      <trkpt lat="47.17548" lon="-1.66751">
        <ele>88</ele>
        <time>2022-07-30T06:27:27Z</time>
      </trkpt>
      <trkpt lat="47.17557" lon="-1.66765">
        <ele>88</ele>
        <time>2022-07-30T06:27:29Z</time>
      </trkpt>
      <trkpt lat="47.17565" lon="-1.6678">
        <ele>87</ele>
        <time>2022-07-30T06:27:31Z</time>
      </trkpt>
      <trkpt lat="47.17573" lon="-1.66794">
        <ele>88</ele>
        <time>2022-07-30T06:27:33Z</time>
      </trkpt>
      <trkpt lat="47.1758" lon="-1.66808">
        <ele>88</ele>
        <time>2022-07-30T06:27:35Z</time>
      </trkpt>
      <trkpt lat="47.17587" lon="-1.66823">
        <ele>89</ele>
        <time>2022-07-30T06:27:37Z</time>
      </trkpt>
      <trkpt lat="47.17595" lon="-1.66838">
        <ele>89</ele>
        <time>2022-07-30T06:27:39Z</time>
      </trkpt>
      <trkpt lat="47.17603" lon="-1.66853">
        <ele>88</ele>
        <time>2022-07-30T06:27:41Z</time>
      </trkpt>
      <trkpt lat="47.17612" lon="-1.66869">
        <ele>87</ele>
        <time>2022-07-30T06:27:43Z</time>
      </trkpt>
      <trkpt lat="47.1762" lon="-1.66883">
        <ele>87</ele>
        <time>2022-07-30T06:27:45Z</time>
      </trkpt>
      <trkpt lat="47.17628" lon="-1.66898">
        <ele>87</ele>
        <time>2022-07-30T06:27:47Z</time>
      </trkpt>
      <trkpt lat="47.17635" lon="-1.66912">
        <ele>87</ele>
        <time>2022-07-30T06:27:49Z</time>
      </trkpt>
      <trkpt lat="47.17644" lon="-1.66927">
        <ele>87</ele>
        <time>2022-07-30T06:27:51Z</time>
      </trkpt>
      <trkpt lat="47.17651" lon="-1.66941">
        <ele>87</ele>
        <time>2022-07-30T06:27:53Z</time>
      </trkpt>
      <trkpt lat="47.17659" lon="-1.66956">
        <ele>87</ele>
        <time>2022-07-30T06:27:55Z</time>
      </trkpt>
      <trkpt lat="47.17667" lon="-1.6697">
        <ele>87</ele>
        <time>2022-07-30T06:27:57Z</time>
      </trkpt>
      <trkpt lat="47.17675" lon="-1.66985">
        <ele>86</ele>
        <time>2022-07-30T06:27:59Z</time>
      </trkpt>
      <trkpt lat="47.17683" lon="-1.66999">
        <ele>86</ele>
        <time>2022-07-30T06:28:01Z</time>
      </trkpt>
      <trkpt lat="47.1769" lon="-1.67014">
        <ele>86</ele>
        <time>2022-07-30T06:28:03Z</time>
      </trkpt>
      <trkpt lat="47.17697" lon="-1.67029">
        <ele>86</ele>
        <time>2022-07-30T06:28:05Z</time>
      </trkpt>
      <trkpt lat="47.17705" lon="-1.67043">
        <ele>86</ele>
        <time>2022-07-30T06:28:07Z</time>
      </trkpt>
      <trkpt lat="47.17714" lon="-1.67058">
        <ele>86</ele>
        <time>2022-07-30T06:28:09Z</time>
      </trkpt>
      <trkpt lat="47.17722" lon="-1.67074">
        <ele>85</ele>
        <time>2022-07-30T06:28:11Z</time>
      </trkpt>
      <trkpt lat="47.1773" lon="-1.67089">
        <ele>85</ele>
        <time>2022-07-30T06:28:13Z</time>
      </trkpt>
      <trkpt lat="47.17738" lon="-1.67104">
        <ele>85</ele>
        <time>2022-07-30T06:28:15Z</time>
      </trkpt>
      <trkpt lat="47.17746" lon="-1.67118">
        <ele>86</ele>
        <time>2022-07-30T06:28:17Z</time>
      </trkpt>
      <trkpt lat="47.17754" lon="-1.67133">
        <ele>85</ele>
        <time>2022-07-30T06:28:19Z</time>
      </trkpt>
      <trkpt lat="47.17762" lon="-1.67148">
        <ele>85</ele>
        <time>2022-07-30T06:28:21Z</time>
      </trkpt>
      <trkpt lat="47.17769" lon="-1.67162">
        <ele>85</ele>
        <time>2022-07-30T06:28:23Z</time>
      </trkpt>
      <trkpt lat="47.17777" lon="-1.67176">
        <ele>86</ele>
        <time>2022-07-30T06:28:25Z</time>
      </trkpt>
      <trkpt lat="47.17785" lon="-1.6719">
        <ele>86</ele>
        <time>2022-07-30T06:28:27Z</time>
      </trkpt>
      <trkpt lat="47.17792" lon="-1.67205">
        <ele>86</ele>
        <time>2022-07-30T06:28:29Z</time>
      </trkpt>
      <trkpt lat="47.178" lon="-1.6722">
        <ele>86</ele>
        <time>2022-07-30T06:28:31Z</time>
      </trkpt>
      <trkpt lat="47.17808" lon="-1.67235">
        <ele>86</ele>
        <time>2022-07-30T06:28:33Z</time>
      </trkpt>
      <trkpt lat="47.17817" lon="-1.67249">
        <ele>86</ele>
        <time>2022-07-30T06:28:35Z</time>
      </trkpt>
      <trkpt lat="47.17825" lon="-1.67263">
        <ele>86</ele>
        <time>2022-07-30T06:28:37Z</time>
      </trkpt>
      <trkpt lat="47.17832" lon="-1.67277">
        <ele>87</ele>
        <time>2022-07-30T06:28:39Z</time>
      </trkpt>
      <trkpt lat="47.1784" lon="-1.67291">
        <ele>86</ele>
        <time>2022-07-30T06:28:41Z</time>
      </trkpt>
      <trkpt lat="47.17847" lon="-1.67306">
        <ele>86</ele>
        <time>2022-07-30T06:28:43Z</time>
      </trkpt>
      <trkpt lat="47.17855" lon="-1.67321">
        <ele>86</ele>
        <time>2022-07-30T06:28:45Z</time>
      </trkpt>
      <trkpt lat="47.17862" lon="-1.67335">
        <ele>85</ele>
        <time>2022-07-30T06:28:47Z</time>
      </trkpt>
      <trkpt lat="47.1787" lon="-1.6735">
        <ele>85</ele>
        <time>2022-07-30T06:28:49Z</time>
      </trkpt>
      <trkpt lat="47.17877" lon="-1.67362">
        <ele>85</ele>
        <time>2022-07-30T06:28:51Z</time>
      </trkpt>
      <trkpt lat="47.17884" lon="-1.67374">
        <ele>85</ele>
        <time>2022-07-30T06:28:53Z</time>
      </trkpt>
      <trkpt lat="47.17889" lon="-1.67385">
        <ele>85</ele>
        <time>2022-07-30T06:28:55Z</time>
      </trkpt>
      <trkpt lat="47.17898" lon="-1.67395">
        <ele>85</ele>
        <time>2022-07-30T06:28:58Z</time>
      </trkpt>
      <trkpt lat="47.17904" lon="-1.67407">
        <ele>85</ele>
        <time>2022-07-30T06:29:00Z</time>
      </trkpt>
      <trkpt lat="47.17909" lon="-1.67423">
        <ele>85</ele>
        <time>2022-07-30T06:29:02Z</time>
      </trkpt>
      <trkpt lat="47.17914" lon="-1.6744">
        <ele>85</ele>
        <time>2022-07-30T06:29:04Z</time>
      </trkpt>
      <trkpt lat="47.17919" lon="-1.67458">
        <ele>85</ele>
        <time>2022-07-30T06:29:06Z</time>
      </trkpt>
      <trkpt lat="47.17923" lon="-1.67476">
        <ele>85</ele>
        <time>2022-07-30T06:29:08Z</time>
      </trkpt>
      <trkpt lat="47.17928" lon="-1.67493">
        <ele>84</ele>
        <time>2022-07-30T06:29:10Z</time>
      </trkpt>
      <trkpt lat="47.17933" lon="-1.67512">
        <ele>85</ele>
        <time>2022-07-30T06:29:12Z</time>
      </trkpt>
      <trkpt lat="47.17938" lon="-1.67529">
        <ele>85</ele>
        <time>2022-07-30T06:29:14Z</time>
      </trkpt>
      <trkpt lat="47.17943" lon="-1.67546">
        <ele>85</ele>
        <time>2022-07-30T06:29:16Z</time>
      </trkpt>
      <trkpt lat="47.17948" lon="-1.67564">
        <ele>85</ele>
        <time>2022-07-30T06:29:18Z</time>
      </trkpt>
      <trkpt lat="47.17952" lon="-1.67582">
        <ele>86</ele>
        <time>2022-07-30T06:29:20Z</time>
      </trkpt>
      <trkpt lat="47.17956" lon="-1.67599">
        <ele>86</ele>
        <time>2022-07-30T06:29:22Z</time>
      </trkpt>
      <trkpt lat="47.17961" lon="-1.67615">
        <ele>86</ele>
        <time>2022-07-30T06:29:24Z</time>
      </trkpt>
      <trkpt lat="47.17965" lon="-1.67632">
        <ele>86</ele>
        <time>2022-07-30T06:29:26Z</time>
      </trkpt>
      <trkpt lat="47.17969" lon="-1.67649">
        <ele>87</ele>
        <time>2022-07-30T06:29:28Z</time>
      </trkpt>
      <trkpt lat="47.17973" lon="-1.67666">
        <ele>87</ele>
        <time>2022-07-30T06:29:30Z</time>
      </trkpt>
      <trkpt lat="47.17979" lon="-1.67684">
        <ele>86</ele>
        <time>2022-07-30T06:29:32Z</time>
      </trkpt>
      <trkpt lat="47.17983" lon="-1.677">
        <ele>86</ele>
        <time>2022-07-30T06:29:34Z</time>
      </trkpt>
      <trkpt lat="47.17989" lon="-1.67716">
        <ele>86</ele>
        <time>2022-07-30T06:29:36Z</time>
      </trkpt>
      <trkpt lat="47.17998" lon="-1.67728">
        <ele>85</ele>
        <time>2022-07-30T06:29:38Z</time>
      </trkpt>
      <trkpt lat="47.18012" lon="-1.67726">
        <ele>84</ele>
        <time>2022-07-30T06:29:40Z</time>
      </trkpt>
      <trkpt lat="47.18024" lon="-1.67719">
        <ele>84</ele>
        <time>2022-07-30T06:29:42Z</time>
      </trkpt>
      <trkpt lat="47.18036" lon="-1.67712">
        <ele>82</ele>
        <time>2022-07-30T06:29:44Z</time>
      </trkpt>
      <trkpt lat="47.18048" lon="-1.67705">
        <ele>82</ele>
        <time>2022-07-30T06:29:46Z</time>
      </trkpt>
      <trkpt lat="47.1806" lon="-1.67698">
        <ele>82</ele>
        <time>2022-07-30T06:29:48Z</time>
      </trkpt>
      <trkpt lat="47.18073" lon="-1.6769">
        <ele>82</ele>
        <time>2022-07-30T06:29:50Z</time>
      </trkpt>
      <trkpt lat="47.18085" lon="-1.67683">
        <ele>82</ele>
        <time>2022-07-30T06:29:52Z</time>
      </trkpt>
      <trkpt lat="47.18098" lon="-1.67676">
        <ele>81</ele>
        <time>2022-07-30T06:29:54Z</time>
      </trkpt>
      <trkpt lat="47.1811" lon="-1.67668">
        <ele>81</ele>
        <time>2022-07-30T06:29:56Z</time>
      </trkpt>
      <trkpt lat="47.18123" lon="-1.6766">
        <ele>81</ele>
        <time>2022-07-30T06:29:58Z</time>
      </trkpt>
      <trkpt lat="47.18135" lon="-1.67652">
        <ele>80</ele>
        <time>2022-07-30T06:30:00Z</time>
      </trkpt>
      <trkpt lat="47.18148" lon="-1.67644">
        <ele>80</ele>
        <time>2022-07-30T06:30:02Z</time>
      </trkpt>
      <trkpt lat="47.1816" lon="-1.67637">
        <ele>80</ele>
        <time>2022-07-30T06:30:04Z</time>
      </trkpt>
      <trkpt lat="47.18172" lon="-1.6763">
        <ele>80</ele>
        <time>2022-07-30T06:30:06Z</time>
      </trkpt>
      <trkpt lat="47.18184" lon="-1.67621">
        <ele>79</ele>
        <time>2022-07-30T06:30:08Z</time>
      </trkpt>
      <trkpt lat="47.18195" lon="-1.67612">
        <ele>80</ele>
        <time>2022-07-30T06:30:10Z</time>
      </trkpt>
      <trkpt lat="47.18207" lon="-1.67604">
        <ele>80</ele>
        <time>2022-07-30T06:30:12Z</time>
      </trkpt>
      <trkpt lat="47.1822" lon="-1.67598">
        <ele>79</ele>
        <time>2022-07-30T06:30:14Z</time>
      </trkpt>
      <trkpt lat="47.18232" lon="-1.67592">
        <ele>79</ele>
        <time>2022-07-30T06:30:16Z</time>
      </trkpt>
      <trkpt lat="47.18244" lon="-1.67586">
        <ele>79</ele>
        <time>2022-07-30T06:30:18Z</time>
      </trkpt>
      <trkpt lat="47.18256" lon="-1.67578">
        <ele>79</ele>
        <time>2022-07-30T06:30:20Z</time>
      </trkpt>
      <trkpt lat="47.18268" lon="-1.67571">
        <ele>79</ele>
        <time>2022-07-30T06:30:22Z</time>
      </trkpt>
      <trkpt lat="47.1828" lon="-1.67564">
        <ele>80</ele>
        <time>2022-07-30T06:30:24Z</time>
      </trkpt>
      <trkpt lat="47.18292" lon="-1.67557">
        <ele>80</ele>
        <time>2022-07-30T06:30:26Z</time>
      </trkpt>
      <trkpt lat="47.18304" lon="-1.6755">
        <ele>81</ele>
        <time>2022-07-30T06:30:28Z</time>
      </trkpt>
      <trkpt lat="47.18316" lon="-1.67543">
        <ele>81</ele>
        <time>2022-07-30T06:30:30Z</time>
      </trkpt>
      <trkpt lat="47.18328" lon="-1.67536">
        <ele>81</ele>
        <time>2022-07-30T06:30:32Z</time>
      </trkpt>
      <trkpt lat="47.18339" lon="-1.67529">
        <ele>82</ele>
        <time>2022-07-30T06:30:34Z</time>
      </trkpt>
      <trkpt lat="47.18351" lon="-1.67523">
        <ele>82</ele>
        <time>2022-07-30T06:30:36Z</time>
      </trkpt>
      <trkpt lat="47.18362" lon="-1.67515">
        <ele>82</ele>
        <time>2022-07-30T06:30:38Z</time>
      </trkpt>
      <trkpt lat="47.18373" lon="-1.67508">
        <ele>82</ele>
        <time>2022-07-30T06:30:40Z</time>
      </trkpt>
      <trkpt lat="47.18384" lon="-1.67501">
        <ele>83</ele>
        <time>2022-07-30T06:30:42Z</time>
      </trkpt>
      <trkpt lat="47.18395" lon="-1.67494">
        <ele>83</ele>
        <time>2022-07-30T06:30:44Z</time>
      </trkpt>
      <trkpt lat="47.18407" lon="-1.67487">
        <ele>82</ele>
        <time>2022-07-30T06:30:46Z</time>
      </trkpt>
      <trkpt lat="47.18419" lon="-1.6748">
        <ele>83</ele>
        <time>2022-07-30T06:30:48Z</time>
      </trkpt>
      <trkpt lat="47.18431" lon="-1.67473">
        <ele>83</ele>
        <time>2022-07-30T06:30:50Z</time>
      </trkpt>
      <trkpt lat="47.18443" lon="-1.67466">
        <ele>82</ele>
        <time>2022-07-30T06:30:52Z</time>
      </trkpt>
      <trkpt lat="47.18454" lon="-1.67458">
        <ele>83</ele>
        <time>2022-07-30T06:30:54Z</time>
      </trkpt>
      <trkpt lat="47.18465" lon="-1.67452">
        <ele>83</ele>
        <time>2022-07-30T06:30:56Z</time>
      </trkpt>
      <trkpt lat="47.18476" lon="-1.67445">
        <ele>84</ele>
        <time>2022-07-30T06:30:58Z</time>
      </trkpt>
      <trkpt lat="47.18487" lon="-1.67439">
        <ele>84</ele>
        <time>2022-07-30T06:31:00Z</time>
      </trkpt>
      <trkpt lat="47.18498" lon="-1.67432">
        <ele>85</ele>
        <time>2022-07-30T06:31:02Z</time>
      </trkpt>
      <trkpt lat="47.18509" lon="-1.67424">
        <ele>84</ele>
        <time>2022-07-30T06:31:04Z</time>
      </trkpt>
      <trkpt lat="47.18519" lon="-1.67415">
        <ele>85</ele>
        <time>2022-07-30T06:31:06Z</time>
      </trkpt>
      <trkpt lat="47.18529" lon="-1.67411">
        <ele>84</ele>
        <time>2022-07-30T06:31:08Z</time>
      </trkpt>
      <trkpt lat="47.18536" lon="-1.67423">
        <ele>84</ele>
        <time>2022-07-30T06:31:10Z</time>
      </trkpt>
      <trkpt lat="47.18538" lon="-1.6744">
        <ele>85</ele>
        <time>2022-07-30T06:31:12Z</time>
      </trkpt>
      <trkpt lat="47.18547" lon="-1.67448">
        <ele>85</ele>
        <time>2022-07-30T06:31:14Z</time>
      </trkpt>
      <trkpt lat="47.18557" lon="-1.67443">
        <ele>85</ele>
        <time>2022-07-30T06:31:16Z</time>
      </trkpt>
      <trkpt lat="47.18568" lon="-1.67438">
        <ele>86</ele>
        <time>2022-07-30T06:31:18Z</time>
      </trkpt>
      <trkpt lat="47.18578" lon="-1.67432">
        <ele>86</ele>
        <time>2022-07-30T06:31:20Z</time>
      </trkpt>
      <trkpt lat="47.18588" lon="-1.67437">
        <ele>86</ele>
        <time>2022-07-30T06:31:22Z</time>
      </trkpt>
      <trkpt lat="47.18597" lon="-1.67449">
        <ele>86</ele>
        <time>2022-07-30T06:31:24Z</time>
      </trkpt>
      <trkpt lat="47.18602" lon="-1.67465">
        <ele>86</ele>
        <time>2022-07-30T06:31:26Z</time>
      </trkpt>
      <trkpt lat="47.18607" lon="-1.67482">
        <ele>87</ele>
        <time>2022-07-30T06:31:28Z</time>
      </trkpt>
      <trkpt lat="47.18612" lon="-1.67498">
        <ele>89</ele>
        <time>2022-07-30T06:31:30Z</time>
      </trkpt>
      <trkpt lat="47.18619" lon="-1.67513">
        <ele>89</ele>
        <time>2022-07-30T06:31:32Z</time>
      </trkpt>
      <trkpt lat="47.18626" lon="-1.67528">
        <ele>90</ele>
        <time>2022-07-30T06:31:34Z</time>
      </trkpt>
      <trkpt lat="47.18635" lon="-1.67541">
        <ele>89</ele>
        <time>2022-07-30T06:31:36Z</time>
      </trkpt>
      <trkpt lat="47.18644" lon="-1.67554">
        <ele>89</ele>
        <time>2022-07-30T06:31:38Z</time>
      </trkpt>
      <trkpt lat="47.18653" lon="-1.67566">
        <ele>89</ele>
        <time>2022-07-30T06:31:40Z</time>
      </trkpt>
      <trkpt lat="47.18662" lon="-1.67578">
        <ele>90</ele>
        <time>2022-07-30T06:31:42Z</time>
      </trkpt>
      <trkpt lat="47.18671" lon="-1.6759">
        <ele>90</ele>
        <time>2022-07-30T06:31:44Z</time>
      </trkpt>
      <trkpt lat="47.1868" lon="-1.67603">
        <ele>89</ele>
        <time>2022-07-30T06:31:46Z</time>
      </trkpt>
      <trkpt lat="47.1869" lon="-1.67612">
        <ele>89</ele>
        <time>2022-07-30T06:31:48Z</time>
      </trkpt>
      <trkpt lat="47.18702" lon="-1.67617">
        <ele>88</ele>
        <time>2022-07-30T06:31:50Z</time>
      </trkpt>
      <trkpt lat="47.18714" lon="-1.67617">
        <ele>88</ele>
        <time>2022-07-30T06:31:52Z</time>
      </trkpt>
      <trkpt lat="47.18726" lon="-1.67615">
        <ele>87</ele>
        <time>2022-07-30T06:31:54Z</time>
      </trkpt>
      <trkpt lat="47.18736" lon="-1.6761">
        <ele>87</ele>
        <time>2022-07-30T06:31:56Z</time>
      </trkpt>
      <trkpt lat="47.18746" lon="-1.67609">
        <ele>87</ele>
        <time>2022-07-30T06:31:58Z</time>
      </trkpt>
      <trkpt lat="47.18753" lon="-1.67618">
        <ele>86</ele>
        <time>2022-07-30T06:32:00Z</time>
      </trkpt>
      <trkpt lat="47.18758" lon="-1.67633">
        <ele>86</ele>
        <time>2022-07-30T06:32:02Z</time>
      </trkpt>
      <trkpt lat="47.18764" lon="-1.67648">
        <ele>86</ele>
        <time>2022-07-30T06:32:04Z</time>
      </trkpt>
      <trkpt lat="47.18771" lon="-1.67662">
        <ele>86</ele>
        <time>2022-07-30T06:32:06Z</time>
      </trkpt>
      <trkpt lat="47.18779" lon="-1.67674">
        <ele>86</ele>
        <time>2022-07-30T06:32:08Z</time>
      </trkpt>
      <trkpt lat="47.18787" lon="-1.67687">
        <ele>86</ele>
        <time>2022-07-30T06:32:10Z</time>
      </trkpt>
      <trkpt lat="47.18794" lon="-1.67701">
        <ele>86</ele>
        <time>2022-07-30T06:32:12Z</time>
      </trkpt>
      <trkpt lat="47.188" lon="-1.67717">
        <ele>86</ele>
        <time>2022-07-30T06:32:14Z</time>
      </trkpt>
      <trkpt lat="47.18805" lon="-1.67733">
        <ele>87</ele>
        <time>2022-07-30T06:32:16Z</time>
      </trkpt>
      <trkpt lat="47.18812" lon="-1.67749">
        <ele>86</ele>
        <time>2022-07-30T06:32:18Z</time>
      </trkpt>
      <trkpt lat="47.18819" lon="-1.67764">
        <ele>86</ele>
        <time>2022-07-30T06:32:20Z</time>
      </trkpt>
      <trkpt lat="47.18825" lon="-1.67782">
        <ele>85</ele>
        <time>2022-07-30T06:32:22Z</time>
      </trkpt>
      <trkpt lat="47.18832" lon="-1.678">
        <ele>85</ele>
        <time>2022-07-30T06:32:24Z</time>
      </trkpt>
      <trkpt lat="47.18839" lon="-1.67819">
        <ele>84</ele>
        <time>2022-07-30T06:32:26Z</time>
      </trkpt>
      <trkpt lat="47.18846" lon="-1.67838">
        <ele>84</ele>
        <time>2022-07-30T06:32:28Z</time>
      </trkpt>
      <trkpt lat="47.18853" lon="-1.67857">
        <ele>84</ele>
        <time>2022-07-30T06:32:30Z</time>
      </trkpt>
      <trkpt lat="47.18862" lon="-1.67876">
        <ele>83</ele>
        <time>2022-07-30T06:32:32Z</time>
      </trkpt>
      <trkpt lat="47.18874" lon="-1.6789">
        <ele>82</ele>
        <time>2022-07-30T06:32:34Z</time>
      </trkpt>
      <trkpt lat="47.18888" lon="-1.67898">
        <ele>82</ele>
        <time>2022-07-30T06:32:36Z</time>
      </trkpt>
      <trkpt lat="47.18903" lon="-1.67902">
        <ele>82</ele>
        <time>2022-07-30T06:32:38Z</time>
      </trkpt>
      <trkpt lat="47.18915" lon="-1.6791">
        <ele>83</ele>
        <time>2022-07-30T06:32:40Z</time>
      </trkpt>
      <trkpt lat="47.18923" lon="-1.67925">
        <ele>82</ele>
        <time>2022-07-30T06:32:42Z</time>
      </trkpt>
      <trkpt lat="47.1893" lon="-1.6794">
        <ele>83</ele>
        <time>2022-07-30T06:32:44Z</time>
      </trkpt>
      <trkpt lat="47.18937" lon="-1.67954">
        <ele>83</ele>
        <time>2022-07-30T06:32:46Z</time>
      </trkpt>
      <trkpt lat="47.18945" lon="-1.67969">
        <ele>84</ele>
        <time>2022-07-30T06:32:48Z</time>
      </trkpt>
      <trkpt lat="47.18952" lon="-1.67983">
        <ele>84</ele>
        <time>2022-07-30T06:32:50Z</time>
      </trkpt>
      <trkpt lat="47.18961" lon="-1.67996">
        <ele>84</ele>
        <time>2022-07-30T06:32:52Z</time>
      </trkpt>
      <trkpt lat="47.18968" lon="-1.68009">
        <ele>84</ele>
        <time>2022-07-30T06:32:54Z</time>
      </trkpt>
      <trkpt lat="47.18976" lon="-1.68021">
        <ele>85</ele>
        <time>2022-07-30T06:32:56Z</time>
      </trkpt>
      <trkpt lat="47.18982" lon="-1.68033">
        <ele>85</ele>
        <time>2022-07-30T06:32:58Z</time>
      </trkpt>
      <trkpt lat="47.18995" lon="-1.68032">
        <ele>85</ele>
        <time>2022-07-30T06:33:01Z</time>
      </trkpt>
      <trkpt lat="47.19007" lon="-1.68022">
        <ele>84</ele>
        <time>2022-07-30T06:33:03Z</time>
      </trkpt>
      <trkpt lat="47.19024" lon="-1.68016">
        <ele>83</ele>
        <time>2022-07-30T06:33:05Z</time>
      </trkpt>
      <trkpt lat="47.19033" lon="-1.68019">
        <ele>82</ele>
        <time>2022-07-30T06:33:06Z</time>
      </trkpt>
      <trkpt lat="47.19042" lon="-1.68023">
        <ele>82</ele>
        <time>2022-07-30T06:33:07Z</time>
      </trkpt>
      <trkpt lat="47.19059" lon="-1.68029">
        <ele>81</ele>
        <time>2022-07-30T06:33:09Z</time>
      </trkpt>
      <trkpt lat="47.19075" lon="-1.6804">
        <ele>80</ele>
        <time>2022-07-30T06:33:11Z</time>
      </trkpt>
      <trkpt lat="47.19085" lon="-1.68057">
        <ele>80</ele>
        <time>2022-07-30T06:33:13Z</time>
      </trkpt>
      <trkpt lat="47.19091" lon="-1.68075">
        <ele>80</ele>
        <time>2022-07-30T06:33:15Z</time>
      </trkpt>
      <trkpt lat="47.19098" lon="-1.68093">
        <ele>81</ele>
        <time>2022-07-30T06:33:17Z</time>
      </trkpt>
      <trkpt lat="47.19103" lon="-1.6811">
        <ele>81</ele>
        <time>2022-07-30T06:33:19Z</time>
      </trkpt>
      <trkpt lat="47.19108" lon="-1.68126">
        <ele>81</ele>
        <time>2022-07-30T06:33:21Z</time>
      </trkpt>
      <trkpt lat="47.19112" lon="-1.68141">
        <ele>82</ele>
        <time>2022-07-30T06:33:23Z</time>
      </trkpt>
      <trkpt lat="47.19115" lon="-1.68156">
        <ele>82</ele>
        <time>2022-07-30T06:33:25Z</time>
      </trkpt>
      <trkpt lat="47.19119" lon="-1.6817">
        <ele>81</ele>
        <time>2022-07-30T06:33:29Z</time>
      </trkpt>
      <trkpt lat="47.19125" lon="-1.6818">
        <ele>81</ele>
        <time>2022-07-30T06:33:34Z</time>
      </trkpt>
      <trkpt lat="47.19133" lon="-1.68176">
        <ele>80</ele>
        <time>2022-07-30T06:33:46Z</time>
      </trkpt>
      <trkpt lat="47.19142" lon="-1.68181">
        <ele>78</ele>
        <time>2022-07-30T06:33:50Z</time>
      </trkpt>
      <trkpt lat="47.19145" lon="-1.68197">
        <ele>76</ele>
        <time>2022-07-30T06:33:52Z</time>
      </trkpt>
      <trkpt lat="47.19151" lon="-1.68207">
        <ele>74</ele>
        <time>2022-07-30T06:33:54Z</time>
      </trkpt>
      <trkpt lat="47.1916" lon="-1.68213">
        <ele>72</ele>
        <time>2022-07-30T06:33:56Z</time>
      </trkpt>
      <trkpt lat="47.19172" lon="-1.68221">
        <ele>70</ele>
        <time>2022-07-30T06:33:58Z</time>
      </trkpt>
      <trkpt lat="47.19184" lon="-1.68221">
        <ele>68</ele>
        <time>2022-07-30T06:34:00Z</time>
      </trkpt>
      <trkpt lat="47.19197" lon="-1.68214">
        <ele>67</ele>
        <time>2022-07-30T06:34:02Z</time>
      </trkpt>
      <trkpt lat="47.1921" lon="-1.68206">
        <ele>66</ele>
        <time>2022-07-30T06:34:04Z</time>
      </trkpt>
      <trkpt lat="47.19223" lon="-1.68199">
        <ele>63</ele>
        <time>2022-07-30T06:34:06Z</time>
      </trkpt>
      <trkpt lat="47.19235" lon="-1.68192">
        <ele>61</ele>
        <time>2022-07-30T06:34:08Z</time>
      </trkpt>
      <trkpt lat="47.19248" lon="-1.68183">
        <ele>60</ele>
        <time>2022-07-30T06:34:10Z</time>
      </trkpt>
      <trkpt lat="47.1926" lon="-1.68174">
        <ele>59</ele>
        <time>2022-07-30T06:34:12Z</time>
      </trkpt>
      <trkpt lat="47.19272" lon="-1.68166">
        <ele>58</ele>
        <time>2022-07-30T06:34:14Z</time>
      </trkpt>
      <trkpt lat="47.19284" lon="-1.68158">
        <ele>58</ele>
        <time>2022-07-30T06:34:16Z</time>
      </trkpt>
      <trkpt lat="47.19295" lon="-1.68151">
        <ele>57</ele>
        <time>2022-07-30T06:34:18Z</time>
      </trkpt>
      <trkpt lat="47.19307" lon="-1.68142">
        <ele>56</ele>
        <time>2022-07-30T06:34:20Z</time>
      </trkpt>
      <trkpt lat="47.19318" lon="-1.68133">
        <ele>56</ele>
        <time>2022-07-30T06:34:22Z</time>
      </trkpt>
      <trkpt lat="47.1933" lon="-1.68125">
        <ele>56</ele>
        <time>2022-07-30T06:34:24Z</time>
      </trkpt>
      <trkpt lat="47.19341" lon="-1.68117">
        <ele>56</ele>
        <time>2022-07-30T06:34:26Z</time>
      </trkpt>
      <trkpt lat="47.19353" lon="-1.68109">
        <ele>56</ele>
        <time>2022-07-30T06:34:28Z</time>
      </trkpt>
      <trkpt lat="47.19365" lon="-1.68101">
        <ele>56</ele>
        <time>2022-07-30T06:34:30Z</time>
      </trkpt>
      <trkpt lat="47.19377" lon="-1.68094">
        <ele>55</ele>
        <time>2022-07-30T06:34:32Z</time>
      </trkpt>
      <trkpt lat="47.19388" lon="-1.68085">
        <ele>55</ele>
        <time>2022-07-30T06:34:34Z</time>
      </trkpt>
      <trkpt lat="47.19399" lon="-1.68077">
        <ele>56</ele>
        <time>2022-07-30T06:34:36Z</time>
      </trkpt>
      <trkpt lat="47.19409" lon="-1.6807">
        <ele>55</ele>
        <time>2022-07-30T06:34:38Z</time>
      </trkpt>
      <trkpt lat="47.19415" lon="-1.68059">
        <ele>55</ele>
        <time>2022-07-30T06:34:40Z</time>
      </trkpt>
      <trkpt lat="47.19416" lon="-1.68043">
        <ele>55</ele>
        <time>2022-07-30T06:34:42Z</time>
      </trkpt>
      <trkpt lat="47.19414" lon="-1.68024">
        <ele>56</ele>
        <time>2022-07-30T06:34:44Z</time>
      </trkpt>
      <trkpt lat="47.19409" lon="-1.68006">
        <ele>56</ele>
        <time>2022-07-30T06:34:46Z</time>
      </trkpt>
      <trkpt lat="47.19403" lon="-1.67987">
        <ele>55</ele>
        <time>2022-07-30T06:34:48Z</time>
      </trkpt>
      <trkpt lat="47.19398" lon="-1.6797">
        <ele>55</ele>
        <time>2022-07-30T06:34:50Z</time>
      </trkpt>
      <trkpt lat="47.19394" lon="-1.67952">
        <ele>55</ele>
        <time>2022-07-30T06:34:52Z</time>
      </trkpt>
      <trkpt lat="47.19388" lon="-1.67934">
        <ele>55</ele>
        <time>2022-07-30T06:34:54Z</time>
      </trkpt>
      <trkpt lat="47.19383" lon="-1.67917">
        <ele>55</ele>
        <time>2022-07-30T06:34:56Z</time>
      </trkpt>
      <trkpt lat="47.19379" lon="-1.67899">
        <ele>56</ele>
        <time>2022-07-30T06:34:58Z</time>
      </trkpt>
      <trkpt lat="47.19375" lon="-1.67882">
        <ele>56</ele>
        <time>2022-07-30T06:35:00Z</time>
      </trkpt>
      <trkpt lat="47.19371" lon="-1.67863">
        <ele>56</ele>
        <time>2022-07-30T06:35:02Z</time>
      </trkpt>
      <trkpt lat="47.19368" lon="-1.67843">
        <ele>56</ele>
        <time>2022-07-30T06:35:04Z</time>
      </trkpt>
      <trkpt lat="47.19366" lon="-1.67824">
        <ele>56</ele>
        <time>2022-07-30T06:35:06Z</time>
      </trkpt>
      <trkpt lat="47.19365" lon="-1.67805">
        <ele>56</ele>
        <time>2022-07-30T06:35:08Z</time>
      </trkpt>
      <trkpt lat="47.19366" lon="-1.67786">
        <ele>55</ele>
        <time>2022-07-30T06:35:10Z</time>
      </trkpt>
      <trkpt lat="47.19367" lon="-1.67767">
        <ele>55</ele>
        <time>2022-07-30T06:35:12Z</time>
      </trkpt>
      <trkpt lat="47.1937" lon="-1.67748">
        <ele>54</ele>
        <time>2022-07-30T06:35:14Z</time>
      </trkpt>
      <trkpt lat="47.19373" lon="-1.67729">
        <ele>54</ele>
        <time>2022-07-30T06:35:16Z</time>
      </trkpt>
      <trkpt lat="47.19376" lon="-1.6771">
        <ele>53</ele>
        <time>2022-07-30T06:35:18Z</time>
      </trkpt>
      <trkpt lat="47.19381" lon="-1.67693">
        <ele>53</ele>
        <time>2022-07-30T06:35:20Z</time>
      </trkpt>
      <trkpt lat="47.19387" lon="-1.67675">
        <ele>53</ele>
        <time>2022-07-30T06:35:22Z</time>
      </trkpt>
      <trkpt lat="47.19393" lon="-1.67657">
        <ele>52</ele>
        <time>2022-07-30T06:35:24Z</time>
      </trkpt>
      <trkpt lat="47.19401" lon="-1.6764">
        <ele>52</ele>
        <time>2022-07-30T06:35:26Z</time>
      </trkpt>
      <trkpt lat="47.19409" lon="-1.67623">
        <ele>52</ele>
        <time>2022-07-30T06:35:28Z</time>
      </trkpt>
      <trkpt lat="47.19419" lon="-1.67608">
        <ele>51</ele>
        <time>2022-07-30T06:35:30Z</time>
      </trkpt>
      <trkpt lat="47.19428" lon="-1.67593">
        <ele>51</ele>
        <time>2022-07-30T06:35:32Z</time>
      </trkpt>
      <trkpt lat="47.19439" lon="-1.6758">
        <ele>51</ele>
        <time>2022-07-30T06:35:34Z</time>
      </trkpt>
      <trkpt lat="47.1945" lon="-1.67569">
        <ele>51</ele>
        <time>2022-07-30T06:35:36Z</time>
      </trkpt>
      <trkpt lat="47.19462" lon="-1.67559">
        <ele>51</ele>
        <time>2022-07-30T06:35:38Z</time>
      </trkpt>
      <trkpt lat="47.19474" lon="-1.6755">
        <ele>51</ele>
        <time>2022-07-30T06:35:40Z</time>
      </trkpt>
      <trkpt lat="47.19486" lon="-1.67541">
        <ele>51</ele>
        <time>2022-07-30T06:35:42Z</time>
      </trkpt>
      <trkpt lat="47.19495" lon="-1.67535">
        <ele>51</ele>
        <time>2022-07-30T06:35:44Z</time>
      </trkpt>
      <trkpt lat="47.19506" lon="-1.67527">
        <ele>52</ele>
        <time>2022-07-30T06:35:47Z</time>
      </trkpt>
      <trkpt lat="47.19517" lon="-1.67521">
        <ele>52</ele>
        <time>2022-07-30T06:35:50Z</time>
      </trkpt>
      <trkpt lat="47.19527" lon="-1.67515">
        <ele>53</ele>
        <time>2022-07-30T06:35:53Z</time>
      </trkpt>
      <trkpt lat="47.19537" lon="-1.67512">
        <ele>53</ele>
        <time>2022-07-30T06:35:57Z</time>
      </trkpt>
      <trkpt lat="47.19537" lon="-1.6751">
        <ele>52</ele>
        <time>2022-07-30T06:37:58Z</time>
      </trkpt>
      <trkpt lat="47.19537" lon="-1.6751">
        <ele>52</ele>
        <time>2022-07-30T06:39:59Z</time>
      </trkpt>
      <trkpt lat="47.19537" lon="-1.6751">
        <ele>52</ele>
        <time>2022-07-30T06:42:00Z</time>
      </trkpt>
      <trkpt lat="47.19537" lon="-1.6751">
        <ele>52</ele>
        <time>2022-07-30T06:44:01Z</time>
      </trkpt>
      <trkpt lat="47.19538" lon="-1.6751">
        <ele>52</ele>
        <time>2022-07-30T06:46:02Z</time>
      </trkpt>
      <trkpt lat="47.19538" lon="-1.6751">
        <ele>52</ele>
        <time>2022-07-30T06:48:03Z</time>
      </trkpt>
      <trkpt lat="47.19535" lon="-1.67497">
        <ele>54</ele>
        <time>2022-07-30T06:48:21Z</time>
      </trkpt>
      <trkpt lat="47.19535" lon="-1.6748">
        <ele>56</ele>
        <time>2022-07-30T06:48:25Z</time>
      </trkpt>
      <trkpt lat="47.19542" lon="-1.67464">
        <ele>59</ele>
        <time>2022-07-30T06:48:28Z</time>
      </trkpt>
      <trkpt lat="47.19546" lon="-1.6745">
        <ele>60</ele>
        <time>2022-07-30T06:48:31Z</time>
      </trkpt>
      <trkpt lat="47.19548" lon="-1.67435">
        <ele>60</ele>
        <time>2022-07-30T06:48:34Z</time>
      </trkpt>
      <trkpt lat="47.19551" lon="-1.67422">
        <ele>61</ele>
        <time>2022-07-30T06:48:40Z</time>
      </trkpt>
      <trkpt lat="47.19553" lon="-1.67405">
        <ele>58</ele>
        <time>2022-07-30T06:50:32Z</time>
      </trkpt>
      <trkpt lat="47.19556" lon="-1.67392">
        <ele>58</ele>
        <time>2022-07-30T06:50:39Z</time>
      </trkpt>
      <trkpt lat="47.1956" lon="-1.67379">
        <ele>58</ele>
        <time>2022-07-30T06:50:45Z</time>
      </trkpt>
      <trkpt lat="47.19564" lon="-1.67367">
        <ele>58</ele>
        <time>2022-07-30T06:50:50Z</time>
      </trkpt>
      <trkpt lat="47.19569" lon="-1.67354">
        <ele>58</ele>
        <time>2022-07-30T06:50:55Z</time>
      </trkpt>
      <trkpt lat="47.19575" lon="-1.67341">
        <ele>58</ele>
        <time>2022-07-30T06:51:00Z</time>
      </trkpt>
      <trkpt lat="47.1958" lon="-1.6733">
        <ele>56</ele>
        <time>2022-07-30T06:51:04Z</time>
      </trkpt>
      <trkpt lat="47.19587" lon="-1.67319">
        <ele>55</ele>
        <time>2022-07-30T06:51:09Z</time>
      </trkpt>
      <trkpt lat="47.19594" lon="-1.67309">
        <ele>55</ele>
        <time>2022-07-30T06:51:14Z</time>
      </trkpt>
      <trkpt lat="47.19602" lon="-1.67299">
        <ele>55</ele>
        <time>2022-07-30T06:51:19Z</time>
      </trkpt>
      <trkpt lat="47.19611" lon="-1.67293">
        <ele>56</ele>
        <time>2022-07-30T06:51:24Z</time>
      </trkpt>
      <trkpt lat="47.19621" lon="-1.67288">
        <ele>56</ele>
        <time>2022-07-30T06:51:30Z</time>
      </trkpt>
      <trkpt lat="47.19631" lon="-1.67284">
        <ele>56</ele>
        <time>2022-07-30T06:51:36Z</time>
      </trkpt>
      <trkpt lat="47.1964" lon="-1.67283">
        <ele>55</ele>
        <time>2022-07-30T06:51:41Z</time>
      </trkpt>
      <trkpt lat="47.19651" lon="-1.67285">
        <ele>56</ele>
        <time>2022-07-30T06:51:47Z</time>
      </trkpt>
      <trkpt lat="47.1966" lon="-1.67289">
        <ele>55</ele>
        <time>2022-07-30T06:51:52Z</time>
      </trkpt>
      <trkpt lat="47.19669" lon="-1.67293">
        <ele>55</ele>
        <time>2022-07-30T06:51:57Z</time>
      </trkpt>
      <trkpt lat="47.19679" lon="-1.67296">
        <ele>54</ele>
        <time>2022-07-30T06:52:03Z</time>
      </trkpt>
      <trkpt lat="47.19688" lon="-1.67302">
        <ele>55</ele>
        <time>2022-07-30T06:52:09Z</time>
      </trkpt>
      <trkpt lat="47.19697" lon="-1.67309">
        <ele>54</ele>
        <time>2022-07-30T06:52:16Z</time>
      </trkpt>
      <trkpt lat="47.19705" lon="-1.67317">
        <ele>56</ele>
        <time>2022-07-30T06:52:26Z</time>
      </trkpt>
      <trkpt lat="47.19713" lon="-1.67326">
        <ele>55</ele>
        <time>2022-07-30T06:52:41Z</time>
      </trkpt>
      <trkpt lat="47.19723" lon="-1.67333">
        <ele>56</ele>
        <time>2022-07-30T06:52:44Z</time>
      </trkpt>
      <trkpt lat="47.19732" lon="-1.67341">
        <ele>57</ele>
        <time>2022-07-30T06:52:46Z</time>
      </trkpt>
      <trkpt lat="47.19743" lon="-1.67342">
        <ele>57</ele>
        <time>2022-07-30T06:52:48Z</time>
      </trkpt>
      <trkpt lat="47.19754" lon="-1.67333">
        <ele>56</ele>
        <time>2022-07-30T06:52:50Z</time>
      </trkpt>
      <trkpt lat="47.19764" lon="-1.67324">
        <ele>56</ele>
        <time>2022-07-30T06:52:52Z</time>
      </trkpt>
      <trkpt lat="47.19776" lon="-1.67313">
        <ele>55</ele>
        <time>2022-07-30T06:52:54Z</time>
      </trkpt>
      <trkpt lat="47.19786" lon="-1.67303">
        <ele>55</ele>
        <time>2022-07-30T06:52:56Z</time>
      </trkpt>
      <trkpt lat="47.19795" lon="-1.67295">
        <ele>55</ele>
        <time>2022-07-30T06:52:58Z</time>
      </trkpt>
      <trkpt lat="47.19805" lon="-1.67301">
        <ele>55</ele>
        <time>2022-07-30T06:53:00Z</time>
      </trkpt>
      <trkpt lat="47.19818" lon="-1.67325">
        <ele>56</ele>
        <time>2022-07-30T06:53:03Z</time>
      </trkpt>
      <trkpt lat="47.19831" lon="-1.67351">
        <ele>56</ele>
        <time>2022-07-30T06:53:06Z</time>
      </trkpt>
      <trkpt lat="47.19839" lon="-1.67368">
        <ele>56</ele>
        <time>2022-07-30T06:53:08Z</time>
      </trkpt>
      <trkpt lat="47.19852" lon="-1.67394">
        <ele>56</ele>
        <time>2022-07-30T06:53:11Z</time>
      </trkpt>
      <trkpt lat="47.19861" lon="-1.67411">
        <ele>56</ele>
        <time>2022-07-30T06:53:13Z</time>
      </trkpt>
      <trkpt lat="47.1987" lon="-1.67428">
        <ele>56</ele>
        <time>2022-07-30T06:53:15Z</time>
      </trkpt>
      <trkpt lat="47.19878" lon="-1.67446">
        <ele>56</ele>
        <time>2022-07-30T06:53:17Z</time>
      </trkpt>
      <trkpt lat="47.19887" lon="-1.67464">
        <ele>56</ele>
        <time>2022-07-30T06:53:19Z</time>
      </trkpt>
      <trkpt lat="47.199" lon="-1.67491">
        <ele>56</ele>
        <time>2022-07-30T06:53:22Z</time>
      </trkpt>
      <trkpt lat="47.19909" lon="-1.67509">
        <ele>56</ele>
        <time>2022-07-30T06:53:24Z</time>
      </trkpt>
      <trkpt lat="47.19917" lon="-1.67526">
        <ele>57</ele>
        <time>2022-07-30T06:53:26Z</time>
      </trkpt>
      <trkpt lat="47.19925" lon="-1.67543">
        <ele>56</ele>
        <time>2022-07-30T06:53:28Z</time>
      </trkpt>
      <trkpt lat="47.19932" lon="-1.6756">
        <ele>57</ele>
        <time>2022-07-30T06:53:30Z</time>
      </trkpt>
      <trkpt lat="47.19938" lon="-1.67578">
        <ele>57</ele>
        <time>2022-07-30T06:53:32Z</time>
      </trkpt>
      <trkpt lat="47.19947" lon="-1.67595">
        <ele>57</ele>
        <time>2022-07-30T06:53:34Z</time>
      </trkpt>
      <trkpt lat="47.19956" lon="-1.67612">
        <ele>57</ele>
        <time>2022-07-30T06:53:36Z</time>
      </trkpt>
      <trkpt lat="47.19964" lon="-1.67628">
        <ele>57</ele>
        <time>2022-07-30T06:53:38Z</time>
      </trkpt>
      <trkpt lat="47.19973" lon="-1.67645">
        <ele>57</ele>
        <time>2022-07-30T06:53:40Z</time>
      </trkpt>
      <trkpt lat="47.19983" lon="-1.67661">
        <ele>57</ele>
        <time>2022-07-30T06:53:42Z</time>
      </trkpt>
      <trkpt lat="47.19993" lon="-1.67676">
        <ele>57</ele>
        <time>2022-07-30T06:53:44Z</time>
      </trkpt>
      <trkpt lat="47.20002" lon="-1.67692">
        <ele>57</ele>
        <time>2022-07-30T06:53:46Z</time>
      </trkpt>
      <trkpt lat="47.20012" lon="-1.67709">
        <ele>57</ele>
        <time>2022-07-30T06:53:48Z</time>
      </trkpt>
      <trkpt lat="47.20022" lon="-1.67725">
        <ele>57</ele>
        <time>2022-07-30T06:53:50Z</time>
      </trkpt>
      <trkpt lat="47.20031" lon="-1.67741">
        <ele>57</ele>
        <time>2022-07-30T06:53:52Z</time>
      </trkpt>
      <trkpt lat="47.20041" lon="-1.67758">
        <ele>57</ele>
        <time>2022-07-30T06:53:54Z</time>
      </trkpt>
      <trkpt lat="47.2005" lon="-1.67774">
        <ele>57</ele>
        <time>2022-07-30T06:53:56Z</time>
      </trkpt>
      <trkpt lat="47.2006" lon="-1.6779">
        <ele>57</ele>
        <time>2022-07-30T06:53:58Z</time>
      </trkpt>
      <trkpt lat="47.20069" lon="-1.67807">
        <ele>57</ele>
        <time>2022-07-30T06:54:00Z</time>
      </trkpt>
      <trkpt lat="47.20079" lon="-1.67823">
        <ele>56</ele>
        <time>2022-07-30T06:54:02Z</time>
      </trkpt>
      <trkpt lat="47.20088" lon="-1.6784">
        <ele>57</ele>
        <time>2022-07-30T06:54:04Z</time>
      </trkpt>
      <trkpt lat="47.20096" lon="-1.67856">
        <ele>57</ele>
        <time>2022-07-30T06:54:06Z</time>
      </trkpt>
      <trkpt lat="47.20105" lon="-1.67873">
        <ele>57</ele>
        <time>2022-07-30T06:54:08Z</time>
      </trkpt>
      <trkpt lat="47.20114" lon="-1.67889">
        <ele>57</ele>
        <time>2022-07-30T06:54:10Z</time>
      </trkpt>
      <trkpt lat="47.20124" lon="-1.67904">
        <ele>57</ele>
        <time>2022-07-30T06:54:12Z</time>
      </trkpt>
      <trkpt lat="47.20136" lon="-1.67912">
        <ele>56</ele>
        <time>2022-07-30T06:54:14Z</time>
      </trkpt>
      <trkpt lat="47.2015" lon="-1.67909">
        <ele>57</ele>
        <time>2022-07-30T06:54:16Z</time>
      </trkpt>
      <trkpt lat="47.20159" lon="-1.67899">
        <ele>58</ele>
        <time>2022-07-30T06:54:18Z</time>
      </trkpt>
      <trkpt lat="47.20167" lon="-1.6789">
        <ele>59</ele>
        <time>2022-07-30T06:54:20Z</time>
      </trkpt>
      <trkpt lat="47.20176" lon="-1.67881">
        <ele>60</ele>
        <time>2022-07-30T06:54:22Z</time>
      </trkpt>
      <trkpt lat="47.20184" lon="-1.67872">
        <ele>61</ele>
        <time>2022-07-30T06:54:24Z</time>
      </trkpt>
      <trkpt lat="47.20192" lon="-1.67865">
        <ele>62</ele>
        <time>2022-07-30T06:54:26Z</time>
      </trkpt>
      <trkpt lat="47.202" lon="-1.67857">
        <ele>62</ele>
        <time>2022-07-30T06:54:28Z</time>
      </trkpt>
      <trkpt lat="47.20211" lon="-1.67849">
        <ele>62</ele>
        <time>2022-07-30T06:54:30Z</time>
      </trkpt>
      <trkpt lat="47.20222" lon="-1.67839">
        <ele>60</ele>
        <time>2022-07-30T06:54:32Z</time>
      </trkpt>
      <trkpt lat="47.20231" lon="-1.67824">
        <ele>60</ele>
        <time>2022-07-30T06:54:34Z</time>
      </trkpt>
      <trkpt lat="47.20226" lon="-1.67802">
        <ele>60</ele>
        <time>2022-07-30T06:54:36Z</time>
      </trkpt>
      <trkpt lat="47.20218" lon="-1.67781">
        <ele>61</ele>
        <time>2022-07-30T06:54:38Z</time>
      </trkpt>
      <trkpt lat="47.2021" lon="-1.6776">
        <ele>60</ele>
        <time>2022-07-30T06:54:40Z</time>
      </trkpt>
      <trkpt lat="47.20203" lon="-1.67737">
        <ele>60</ele>
        <time>2022-07-30T06:54:42Z</time>
      </trkpt>
      <trkpt lat="47.20196" lon="-1.67716">
        <ele>59</ele>
        <time>2022-07-30T06:54:44Z</time>
      </trkpt>
      <trkpt lat="47.20188" lon="-1.67695">
        <ele>58</ele>
        <time>2022-07-30T06:54:46Z</time>
      </trkpt>
      <trkpt lat="47.2018" lon="-1.67676">
        <ele>58</ele>
        <time>2022-07-30T06:54:48Z</time>
      </trkpt>
      <trkpt lat="47.20173" lon="-1.67657">
        <ele>57</ele>
        <time>2022-07-30T06:54:50Z</time>
      </trkpt>
      <trkpt lat="47.20165" lon="-1.67638">
        <ele>58</ele>
        <time>2022-07-30T06:54:52Z</time>
      </trkpt>
      <trkpt lat="47.20158" lon="-1.67619">
        <ele>57</ele>
        <time>2022-07-30T06:54:54Z</time>
      </trkpt>
      <trkpt lat="47.20151" lon="-1.67601">
        <ele>57</ele>
        <time>2022-07-30T06:54:56Z</time>
      </trkpt>
      <trkpt lat="47.20144" lon="-1.67582">
        <ele>57</ele>
        <time>2022-07-30T06:54:58Z</time>
      </trkpt>
      <trkpt lat="47.20138" lon="-1.67563">
        <ele>56</ele>
        <time>2022-07-30T06:55:00Z</time>
      </trkpt>
      <trkpt lat="47.20131" lon="-1.67545">
        <ele>56</ele>
        <time>2022-07-30T06:55:02Z</time>
      </trkpt>
      <trkpt lat="47.20124" lon="-1.67528">
        <ele>56</ele>
        <time>2022-07-30T06:55:04Z</time>
      </trkpt>
      <trkpt lat="47.20117" lon="-1.67512">
        <ele>56</ele>
        <time>2022-07-30T06:55:06Z</time>
      </trkpt>
      <trkpt lat="47.20111" lon="-1.67495">
        <ele>56</ele>
        <time>2022-07-30T06:55:08Z</time>
      </trkpt>
      <trkpt lat="47.20111" lon="-1.67481">
        <ele>59</ele>
        <time>2022-07-30T06:55:10Z</time>
      </trkpt>
      <trkpt lat="47.20124" lon="-1.67477">
        <ele>60</ele>
        <time>2022-07-30T06:55:11Z</time>
      </trkpt>
      <trkpt lat="47.2014" lon="-1.67471">
        <ele>59</ele>
        <time>2022-07-30T06:55:13Z</time>
      </trkpt>
      <trkpt lat="47.20154" lon="-1.67464">
        <ele>58</ele>
        <time>2022-07-30T06:55:15Z</time>
      </trkpt>
      <trkpt lat="47.20167" lon="-1.67458">
        <ele>58</ele>
        <time>2022-07-30T06:55:17Z</time>
      </trkpt>
      <trkpt lat="47.20181" lon="-1.67451">
        <ele>58</ele>
        <time>2022-07-30T06:55:19Z</time>
      </trkpt>
      <trkpt lat="47.20194" lon="-1.67445">
        <ele>57</ele>
        <time>2022-07-30T06:55:21Z</time>
      </trkpt>
      <trkpt lat="47.20207" lon="-1.67438">
        <ele>56</ele>
        <time>2022-07-30T06:55:23Z</time>
      </trkpt>
      <trkpt lat="47.20221" lon="-1.67432">
        <ele>56</ele>
        <time>2022-07-30T06:55:25Z</time>
      </trkpt>
      <trkpt lat="47.20234" lon="-1.67426">
        <ele>56</ele>
        <time>2022-07-30T06:55:27Z</time>
      </trkpt>
      <trkpt lat="47.20247" lon="-1.6742">
        <ele>56</ele>
        <time>2022-07-30T06:55:29Z</time>
      </trkpt>
      <trkpt lat="47.2026" lon="-1.67413">
        <ele>56</ele>
        <time>2022-07-30T06:55:31Z</time>
      </trkpt>
      <trkpt lat="47.20273" lon="-1.67408">
        <ele>56</ele>
        <time>2022-07-30T06:55:33Z</time>
      </trkpt>
      <trkpt lat="47.20286" lon="-1.67402">
        <ele>56</ele>
        <time>2022-07-30T06:55:35Z</time>
      </trkpt>
      <trkpt lat="47.20299" lon="-1.67396">
        <ele>56</ele>
        <time>2022-07-30T06:55:37Z</time>
      </trkpt>
      <trkpt lat="47.20312" lon="-1.67389">
        <ele>56</ele>
        <time>2022-07-30T06:55:39Z</time>
      </trkpt>
      <trkpt lat="47.20325" lon="-1.67387">
        <ele>56</ele>
        <time>2022-07-30T06:55:41Z</time>
      </trkpt>
      <trkpt lat="47.20339" lon="-1.6739">
        <ele>56</ele>
        <time>2022-07-30T06:55:43Z</time>
      </trkpt>
      <trkpt lat="47.20352" lon="-1.67398">
        <ele>56</ele>
        <time>2022-07-30T06:55:45Z</time>
      </trkpt>
      <trkpt lat="47.20362" lon="-1.67413">
        <ele>55</ele>
        <time>2022-07-30T06:55:47Z</time>
      </trkpt>
      <trkpt lat="47.20368" lon="-1.67431">
        <ele>55</ele>
        <time>2022-07-30T06:55:49Z</time>
      </trkpt>
      <trkpt lat="47.20372" lon="-1.67452">
        <ele>55</ele>
        <time>2022-07-30T06:55:51Z</time>
      </trkpt>
      <trkpt lat="47.20375" lon="-1.67473">
        <ele>55</ele>
        <time>2022-07-30T06:55:53Z</time>
      </trkpt>
      <trkpt lat="47.20378" lon="-1.67493">
        <ele>55</ele>
        <time>2022-07-30T06:55:55Z</time>
      </trkpt>
      <trkpt lat="47.20381" lon="-1.67513">
        <ele>55</ele>
        <time>2022-07-30T06:55:57Z</time>
      </trkpt>
      <trkpt lat="47.20384" lon="-1.67531">
        <ele>55</ele>
        <time>2022-07-30T06:55:59Z</time>
      </trkpt>
      <trkpt lat="47.20392" lon="-1.67546">
        <ele>56</ele>
        <time>2022-07-30T06:56:01Z</time>
      </trkpt>
      <trkpt lat="47.20402" lon="-1.67551">
        <ele>56</ele>
        <time>2022-07-30T06:56:04Z</time>
      </trkpt>
      <trkpt lat="47.20413" lon="-1.67543">
        <ele>56</ele>
        <time>2022-07-30T06:56:09Z</time>
      </trkpt>
      <trkpt lat="47.20421" lon="-1.67536">
        <ele>56</ele>
        <time>2022-07-30T06:56:11Z</time>
      </trkpt>
      <trkpt lat="47.20431" lon="-1.67535">
        <ele>56</ele>
        <time>2022-07-30T06:56:13Z</time>
      </trkpt>
      <trkpt lat="47.20442" lon="-1.67544">
        <ele>56</ele>
        <time>2022-07-30T06:56:15Z</time>
      </trkpt>
      <trkpt lat="47.20448" lon="-1.67559">
        <ele>55</ele>
        <time>2022-07-30T06:56:17Z</time>
      </trkpt>
      <trkpt lat="47.20452" lon="-1.67576">
        <ele>55</ele>
        <time>2022-07-30T06:56:19Z</time>
      </trkpt>
      <trkpt lat="47.20461" lon="-1.6759">
        <ele>55</ele>
        <time>2022-07-30T06:56:21Z</time>
      </trkpt>
      <trkpt lat="47.2047" lon="-1.67604">
        <ele>56</ele>
        <time>2022-07-30T06:56:23Z</time>
      </trkpt>
      <trkpt lat="47.20478" lon="-1.67619">
        <ele>56</ele>
        <time>2022-07-30T06:56:25Z</time>
      </trkpt>
      <trkpt lat="47.20485" lon="-1.67635">
        <ele>57</ele>
        <time>2022-07-30T06:56:27Z</time>
      </trkpt>
      <trkpt lat="47.20492" lon="-1.67652">
        <ele>57</ele>
        <time>2022-07-30T06:56:29Z</time>
      </trkpt>
      <trkpt lat="47.20498" lon="-1.67668">
        <ele>57</ele>
        <time>2022-07-30T06:56:31Z</time>
      </trkpt>
      <trkpt lat="47.20504" lon="-1.67685">
        <ele>57</ele>
        <time>2022-07-30T06:56:33Z</time>
      </trkpt>
      <trkpt lat="47.20511" lon="-1.67703">
        <ele>57</ele>
        <time>2022-07-30T06:56:35Z</time>
      </trkpt>
      <trkpt lat="47.20517" lon="-1.6772">
        <ele>56</ele>
        <time>2022-07-30T06:56:37Z</time>
      </trkpt>
      <trkpt lat="47.20523" lon="-1.67737">
        <ele>56</ele>
        <time>2022-07-30T06:56:39Z</time>
      </trkpt>
      <trkpt lat="47.20529" lon="-1.67755">
        <ele>57</ele>
        <time>2022-07-30T06:56:41Z</time>
      </trkpt>
      <trkpt lat="47.20535" lon="-1.67772">
        <ele>57</ele>
        <time>2022-07-30T06:56:43Z</time>
      </trkpt>
      <trkpt lat="47.20541" lon="-1.67789">
        <ele>57</ele>
        <time>2022-07-30T06:56:45Z</time>
      </trkpt>
      <trkpt lat="47.20546" lon="-1.67807">
        <ele>57</ele>
        <time>2022-07-30T06:56:47Z</time>
      </trkpt>
      <trkpt lat="47.20552" lon="-1.67824">
        <ele>57</ele>
        <time>2022-07-30T06:56:49Z</time>
      </trkpt>
      <trkpt lat="47.20558" lon="-1.67842">
        <ele>57</ele>
        <time>2022-07-30T06:56:51Z</time>
      </trkpt>
      <trkpt lat="47.20564" lon="-1.67859">
        <ele>57</ele>
        <time>2022-07-30T06:56:53Z</time>
      </trkpt>
      <trkpt lat="47.20569" lon="-1.67877">
        <ele>57</ele>
        <time>2022-07-30T06:56:55Z</time>
      </trkpt>
      <trkpt lat="47.20575" lon="-1.67894">
        <ele>57</ele>
        <time>2022-07-30T06:56:57Z</time>
      </trkpt>
      <trkpt lat="47.2058" lon="-1.67913">
        <ele>57</ele>
        <time>2022-07-30T06:56:59Z</time>
      </trkpt>
      <trkpt lat="47.20585" lon="-1.6793">
        <ele>57</ele>
        <time>2022-07-30T06:57:01Z</time>
      </trkpt>
      <trkpt lat="47.20591" lon="-1.67948">
        <ele>57</ele>
        <time>2022-07-30T06:57:03Z</time>
      </trkpt>
      <trkpt lat="47.20596" lon="-1.67967">
        <ele>58</ele>
        <time>2022-07-30T06:57:05Z</time>
      </trkpt>
      <trkpt lat="47.20601" lon="-1.67984">
        <ele>58</ele>
        <time>2022-07-30T06:57:07Z</time>
      </trkpt>
      <trkpt lat="47.20606" lon="-1.68002">
        <ele>58</ele>
        <time>2022-07-30T06:57:09Z</time>
      </trkpt>
      <trkpt lat="47.20612" lon="-1.6802">
        <ele>58</ele>
        <time>2022-07-30T06:57:11Z</time>
      </trkpt>
      <trkpt lat="47.20617" lon="-1.68038">
        <ele>58</ele>
        <time>2022-07-30T06:57:13Z</time>
      </trkpt>
      <trkpt lat="47.20622" lon="-1.68057">
        <ele>58</ele>
        <time>2022-07-30T06:57:15Z</time>
      </trkpt>
      <trkpt lat="47.20628" lon="-1.68074">
        <ele>58</ele>
        <time>2022-07-30T06:57:17Z</time>
      </trkpt>
      <trkpt lat="47.20633" lon="-1.68092">
        <ele>58</ele>
        <time>2022-07-30T06:57:19Z</time>
      </trkpt>
      <trkpt lat="47.20638" lon="-1.6811">
        <ele>58</ele>
        <time>2022-07-30T06:57:21Z</time>
      </trkpt>
      <trkpt lat="47.20643" lon="-1.68128">
        <ele>58</ele>
        <time>2022-07-30T06:57:23Z</time>
      </trkpt>
      <trkpt lat="47.20649" lon="-1.68146">
        <ele>58</ele>
        <time>2022-07-30T06:57:25Z</time>
      </trkpt>
      <trkpt lat="47.20654" lon="-1.68164">
        <ele>58</ele>
        <time>2022-07-30T06:57:27Z</time>
      </trkpt>
      <trkpt lat="47.20659" lon="-1.68181">
        <ele>57</ele>
        <time>2022-07-30T06:57:29Z</time>
      </trkpt>
      <trkpt lat="47.20665" lon="-1.68199">
        <ele>57</ele>
        <time>2022-07-30T06:57:31Z</time>
      </trkpt>
      <trkpt lat="47.2067" lon="-1.68217">
        <ele>57</ele>
        <time>2022-07-30T06:57:33Z</time>
      </trkpt>
      <trkpt lat="47.20675" lon="-1.68235">
        <ele>58</ele>
        <time>2022-07-30T06:57:35Z</time>
      </trkpt>
      <trkpt lat="47.2068" lon="-1.68253">
        <ele>58</ele>
        <time>2022-07-30T06:57:37Z</time>
      </trkpt>
      <trkpt lat="47.20685" lon="-1.6827">
        <ele>58</ele>
        <time>2022-07-30T06:57:39Z</time>
      </trkpt>
      <trkpt lat="47.20691" lon="-1.68288">
        <ele>58</ele>
        <time>2022-07-30T06:57:41Z</time>
      </trkpt>
      <trkpt lat="47.20695" lon="-1.68305">
        <ele>58</ele>
        <time>2022-07-30T06:57:43Z</time>
      </trkpt>
      <trkpt lat="47.207" lon="-1.68322">
        <ele>58</ele>
        <time>2022-07-30T06:57:45Z</time>
      </trkpt>
      <trkpt lat="47.20705" lon="-1.68339">
        <ele>58</ele>
        <time>2022-07-30T06:57:47Z</time>
      </trkpt>
      <trkpt lat="47.20712" lon="-1.68356">
        <ele>58</ele>
        <time>2022-07-30T06:57:49Z</time>
      </trkpt>
      <trkpt lat="47.20722" lon="-1.68368">
        <ele>57</ele>
        <time>2022-07-30T06:57:51Z</time>
      </trkpt>
      <trkpt lat="47.20734" lon="-1.68378">
        <ele>57</ele>
        <time>2022-07-30T06:57:53Z</time>
      </trkpt>
      <trkpt lat="47.20746" lon="-1.68383">
        <ele>57</ele>
        <time>2022-07-30T06:57:55Z</time>
      </trkpt>
      <trkpt lat="47.20759" lon="-1.68386">
        <ele>57</ele>
        <time>2022-07-30T06:57:57Z</time>
      </trkpt>
      <trkpt lat="47.20772" lon="-1.68387">
        <ele>57</ele>
        <time>2022-07-30T06:57:59Z</time>
      </trkpt>
      <trkpt lat="47.20786" lon="-1.68389">
        <ele>56</ele>
        <time>2022-07-30T06:58:01Z</time>
      </trkpt>
      <trkpt lat="47.20799" lon="-1.68391">
        <ele>56</ele>
        <time>2022-07-30T06:58:03Z</time>
      </trkpt>
      <trkpt lat="47.20811" lon="-1.68392">
        <ele>56</ele>
        <time>2022-07-30T06:58:05Z</time>
      </trkpt>
      <trkpt lat="47.20824" lon="-1.68392">
        <ele>56</ele>
        <time>2022-07-30T06:58:07Z</time>
      </trkpt>
      <trkpt lat="47.20837" lon="-1.68393">
        <ele>56</ele>
        <time>2022-07-30T06:58:09Z</time>
      </trkpt>
      <trkpt lat="47.2085" lon="-1.68393">
        <ele>56</ele>
        <time>2022-07-30T06:58:11Z</time>
      </trkpt>
      <trkpt lat="47.20863" lon="-1.68394">
        <ele>56</ele>
        <time>2022-07-30T06:58:13Z</time>
      </trkpt>
      <trkpt lat="47.20876" lon="-1.68395">
        <ele>56</ele>
        <time>2022-07-30T06:58:15Z</time>
      </trkpt>
      <trkpt lat="47.20889" lon="-1.68396">
        <ele>56</ele>
        <time>2022-07-30T06:58:17Z</time>
      </trkpt>
      <trkpt lat="47.20902" lon="-1.68396">
        <ele>56</ele>
        <time>2022-07-30T06:58:19Z</time>
      </trkpt>
      <trkpt lat="47.20915" lon="-1.68396">
        <ele>56</ele>
        <time>2022-07-30T06:58:21Z</time>
      </trkpt>
      <trkpt lat="47.20928" lon="-1.68397">
        <ele>56</ele>
        <time>2022-07-30T06:58:23Z</time>
      </trkpt>
      <trkpt lat="47.20941" lon="-1.68397">
        <ele>56</ele>
        <time>2022-07-30T06:58:25Z</time>
      </trkpt>
      <trkpt lat="47.20954" lon="-1.68398">
        <ele>56</ele>
        <time>2022-07-30T06:58:27Z</time>
      </trkpt>
      <trkpt lat="47.20968" lon="-1.68398">
        <ele>56</ele>
        <time>2022-07-30T06:58:29Z</time>
      </trkpt>
      <trkpt lat="47.20981" lon="-1.684">
        <ele>57</ele>
        <time>2022-07-30T06:58:31Z</time>
      </trkpt>
      <trkpt lat="47.20994" lon="-1.684">
        <ele>57</ele>
        <time>2022-07-30T06:58:33Z</time>
      </trkpt>
      <trkpt lat="47.21007" lon="-1.684">
        <ele>57</ele>
        <time>2022-07-30T06:58:35Z</time>
      </trkpt>
      <trkpt lat="47.2102" lon="-1.68401">
        <ele>56</ele>
        <time>2022-07-30T06:58:37Z</time>
      </trkpt>
      <trkpt lat="47.21032" lon="-1.68401">
        <ele>56</ele>
        <time>2022-07-30T06:58:39Z</time>
      </trkpt>
      <trkpt lat="47.21045" lon="-1.68401">
        <ele>56</ele>
        <time>2022-07-30T06:58:41Z</time>
      </trkpt>
      <trkpt lat="47.21058" lon="-1.68402">
        <ele>56</ele>
        <time>2022-07-30T06:58:43Z</time>
      </trkpt>
      <trkpt lat="47.2107" lon="-1.68403">
        <ele>56</ele>
        <time>2022-07-30T06:58:45Z</time>
      </trkpt>
      <trkpt lat="47.21083" lon="-1.68403">
        <ele>56</ele>
        <time>2022-07-30T06:58:47Z</time>
      </trkpt>
      <trkpt lat="47.21095" lon="-1.68403">
        <ele>56</ele>
        <time>2022-07-30T06:58:49Z</time>
      </trkpt>
      <trkpt lat="47.21108" lon="-1.68404">
        <ele>56</ele>
        <time>2022-07-30T06:58:51Z</time>
      </trkpt>
      <trkpt lat="47.21121" lon="-1.68405">
        <ele>56</ele>
        <time>2022-07-30T06:58:53Z</time>
      </trkpt>
      <trkpt lat="47.21133" lon="-1.68405">
        <ele>56</ele>
        <time>2022-07-30T06:58:55Z</time>
      </trkpt>
      <trkpt lat="47.21144" lon="-1.68406">
        <ele>56</ele>
        <time>2022-07-30T06:58:57Z</time>
      </trkpt>
      <trkpt lat="47.21156" lon="-1.68406">
        <ele>57</ele>
        <time>2022-07-30T06:58:59Z</time>
      </trkpt>
      <trkpt lat="47.21167" lon="-1.68407">
        <ele>57</ele>
        <time>2022-07-30T06:59:01Z</time>
      </trkpt>
      <trkpt lat="47.21178" lon="-1.68406">
        <ele>58</ele>
        <time>2022-07-30T06:59:03Z</time>
      </trkpt>
      <trkpt lat="47.21187" lon="-1.684">
        <ele>58</ele>
        <time>2022-07-30T06:59:05Z</time>
      </trkpt>
      <trkpt lat="47.21194" lon="-1.68391">
        <ele>58</ele>
        <time>2022-07-30T06:59:07Z</time>
      </trkpt>
      <trkpt lat="47.21193" lon="-1.68377">
        <ele>59</ele>
        <time>2022-07-30T06:59:09Z</time>
      </trkpt>
      <trkpt lat="47.21192" lon="-1.68363">
        <ele>60</ele>
        <time>2022-07-30T06:59:11Z</time>
      </trkpt>
      <trkpt lat="47.2119" lon="-1.68343">
        <ele>61</ele>
        <time>2022-07-30T06:59:14Z</time>
      </trkpt>
      <trkpt lat="47.21189" lon="-1.6833">
        <ele>62</ele>
        <time>2022-07-30T06:59:16Z</time>
      </trkpt>
      <trkpt lat="47.21189" lon="-1.68311">
        <ele>63</ele>
        <time>2022-07-30T06:59:19Z</time>
      </trkpt>
      <trkpt lat="47.21195" lon="-1.68294">
        <ele>64</ele>
        <time>2022-07-30T06:59:22Z</time>
      </trkpt>
      <trkpt lat="47.21206" lon="-1.68284">
        <ele>65</ele>
        <time>2022-07-30T06:59:25Z</time>
      </trkpt>
      <trkpt lat="47.21219" lon="-1.68279">
        <ele>66</ele>
        <time>2022-07-30T06:59:28Z</time>
      </trkpt>
      <trkpt lat="47.21231" lon="-1.68276">
        <ele>67</ele>
        <time>2022-07-30T06:59:31Z</time>
      </trkpt>
      <trkpt lat="47.21244" lon="-1.68273">
        <ele>67</ele>
        <time>2022-07-30T06:59:34Z</time>
      </trkpt>
      <trkpt lat="47.21256" lon="-1.68269">
        <ele>68</ele>
        <time>2022-07-30T06:59:37Z</time>
      </trkpt>
      <trkpt lat="47.21268" lon="-1.68264">
        <ele>69</ele>
        <time>2022-07-30T06:59:40Z</time>
      </trkpt>
      <trkpt lat="47.2128" lon="-1.68259">
        <ele>71</ele>
        <time>2022-07-30T06:59:43Z</time>
      </trkpt>
      <trkpt lat="47.21292" lon="-1.68252">
        <ele>71</ele>
        <time>2022-07-30T06:59:46Z</time>
      </trkpt>
      <trkpt lat="47.21305" lon="-1.68248">
        <ele>72</ele>
        <time>2022-07-30T06:59:49Z</time>
      </trkpt>
      <trkpt lat="47.21317" lon="-1.68242">
        <ele>73</ele>
        <time>2022-07-30T06:59:52Z</time>
      </trkpt>
      <trkpt lat="47.21329" lon="-1.68237">
        <ele>74</ele>
        <time>2022-07-30T06:59:55Z</time>
      </trkpt>
      <trkpt lat="47.21341" lon="-1.68234">
        <ele>74</ele>
        <time>2022-07-30T06:59:58Z</time>
      </trkpt>
      <trkpt lat="47.21353" lon="-1.68231">
        <ele>75</ele>
        <time>2022-07-30T07:00:01Z</time>
      </trkpt>
      <trkpt lat="47.21366" lon="-1.68229">
        <ele>75</ele>
        <time>2022-07-30T07:00:04Z</time>
      </trkpt>
      <trkpt lat="47.21375" lon="-1.68226">
        <ele>76</ele>
        <time>2022-07-30T07:00:06Z</time>
      </trkpt>
      <trkpt lat="47.21385" lon="-1.68225">
        <ele>76</ele>
        <time>2022-07-30T07:00:08Z</time>
      </trkpt>
      <trkpt lat="47.21398" lon="-1.68222">
        <ele>76</ele>
        <time>2022-07-30T07:00:11Z</time>
      </trkpt>
      <trkpt lat="47.21408" lon="-1.68221">
        <ele>76</ele>
        <time>2022-07-30T07:00:13Z</time>
      </trkpt>
      <trkpt lat="47.21417" lon="-1.68221">
        <ele>76</ele>
        <time>2022-07-30T07:00:15Z</time>
      </trkpt>
      <trkpt lat="47.21427" lon="-1.6822">
        <ele>77</ele>
        <time>2022-07-30T07:00:17Z</time>
      </trkpt>
      <trkpt lat="47.21436" lon="-1.68219">
        <ele>77</ele>
        <time>2022-07-30T07:00:19Z</time>
      </trkpt>
      <trkpt lat="47.21445" lon="-1.68217">
        <ele>77</ele>
        <time>2022-07-30T07:00:21Z</time>
      </trkpt>
      <trkpt lat="47.21454" lon="-1.68216">
        <ele>77</ele>
        <time>2022-07-30T07:00:23Z</time>
      </trkpt>
      <trkpt lat="47.21463" lon="-1.68216">
        <ele>78</ele>
        <time>2022-07-30T07:00:25Z</time>
      </trkpt>
      <trkpt lat="47.21473" lon="-1.68214">
        <ele>78</ele>
        <time>2022-07-30T07:00:27Z</time>
      </trkpt>
      <trkpt lat="47.21482" lon="-1.68211">
        <ele>78</ele>
        <time>2022-07-30T07:00:29Z</time>
      </trkpt>
      <trkpt lat="47.2149" lon="-1.68206">
        <ele>79</ele>
        <time>2022-07-30T07:00:31Z</time>
      </trkpt>
      <trkpt lat="47.21499" lon="-1.682">
        <ele>79</ele>
        <time>2022-07-30T07:00:33Z</time>
      </trkpt>
      <trkpt lat="47.21507" lon="-1.68195">
        <ele>79</ele>
        <time>2022-07-30T07:00:35Z</time>
      </trkpt>
      <trkpt lat="47.21515" lon="-1.68189">
        <ele>80</ele>
        <time>2022-07-30T07:00:37Z</time>
      </trkpt>
      <trkpt lat="47.21526" lon="-1.68182">
        <ele>81</ele>
        <time>2022-07-30T07:00:40Z</time>
      </trkpt>
      <trkpt lat="47.21538" lon="-1.68174">
        <ele>82</ele>
        <time>2022-07-30T07:00:43Z</time>
      </trkpt>
      <trkpt lat="47.21547" lon="-1.68173">
        <ele>82</ele>
        <time>2022-07-30T07:00:45Z</time>
      </trkpt>
      <trkpt lat="47.21557" lon="-1.68176">
        <ele>82</ele>
        <time>2022-07-30T07:00:47Z</time>
      </trkpt>
      <trkpt lat="47.21569" lon="-1.68178">
        <ele>82</ele>
        <time>2022-07-30T07:00:49Z</time>
      </trkpt>
      <trkpt lat="47.21581" lon="-1.68181">
        <ele>81</ele>
        <time>2022-07-30T07:00:51Z</time>
      </trkpt>
      <trkpt lat="47.21593" lon="-1.68182">
        <ele>81</ele>
        <time>2022-07-30T07:00:53Z</time>
      </trkpt>
      <trkpt lat="47.21604" lon="-1.68186">
        <ele>82</ele>
        <time>2022-07-30T07:00:55Z</time>
      </trkpt>
      <trkpt lat="47.21616" lon="-1.68189">
        <ele>82</ele>
        <time>2022-07-30T07:00:57Z</time>
      </trkpt>
      <trkpt lat="47.21628" lon="-1.68191">
        <ele>82</ele>
        <time>2022-07-30T07:00:59Z</time>
      </trkpt>
      <trkpt lat="47.2164" lon="-1.68192">
        <ele>83</ele>
        <time>2022-07-30T07:01:01Z</time>
      </trkpt>
      <trkpt lat="47.21651" lon="-1.68194">
        <ele>83</ele>
        <time>2022-07-30T07:01:03Z</time>
      </trkpt>
      <trkpt lat="47.21663" lon="-1.68196">
        <ele>83</ele>
        <time>2022-07-30T07:01:05Z</time>
      </trkpt>
      <trkpt lat="47.21675" lon="-1.68199">
        <ele>82</ele>
        <time>2022-07-30T07:01:07Z</time>
      </trkpt>
      <trkpt lat="47.21687" lon="-1.68202">
        <ele>82</ele>
        <time>2022-07-30T07:01:09Z</time>
      </trkpt>
      <trkpt lat="47.21699" lon="-1.68205">
        <ele>82</ele>
        <time>2022-07-30T07:01:11Z</time>
      </trkpt>
      <trkpt lat="47.21711" lon="-1.68207">
        <ele>82</ele>
        <time>2022-07-30T07:01:13Z</time>
      </trkpt>
      <trkpt lat="47.21722" lon="-1.6821">
        <ele>82</ele>
        <time>2022-07-30T07:01:15Z</time>
      </trkpt>
      <trkpt lat="47.21734" lon="-1.68212">
        <ele>81</ele>
        <time>2022-07-30T07:01:17Z</time>
      </trkpt>
      <trkpt lat="47.21747" lon="-1.68215">
        <ele>81</ele>
        <time>2022-07-30T07:01:19Z</time>
      </trkpt>
      <trkpt lat="47.21759" lon="-1.68217">
        <ele>81</ele>
        <time>2022-07-30T07:01:21Z</time>
      </trkpt>
      <trkpt lat="47.21771" lon="-1.6822">
        <ele>80</ele>
        <time>2022-07-30T07:01:23Z</time>
      </trkpt>
      <trkpt lat="47.21783" lon="-1.68222">
        <ele>80</ele>
        <time>2022-07-30T07:01:25Z</time>
      </trkpt>
      <trkpt lat="47.21795" lon="-1.68224">
        <ele>80</ele>
        <time>2022-07-30T07:01:27Z</time>
      </trkpt>
      <trkpt lat="47.21807" lon="-1.68224">
        <ele>80</ele>
        <time>2022-07-30T07:01:29Z</time>
      </trkpt>
      <trkpt lat="47.21819" lon="-1.68225">
        <ele>81</ele>
        <time>2022-07-30T07:01:31Z</time>
      </trkpt>
      <trkpt lat="47.21832" lon="-1.68228">
        <ele>81</ele>
        <time>2022-07-30T07:01:33Z</time>
      </trkpt>
      <trkpt lat="47.21844" lon="-1.6823">
        <ele>80</ele>
        <time>2022-07-30T07:01:35Z</time>
      </trkpt>
      <trkpt lat="47.21858" lon="-1.6823">
        <ele>79</ele>
        <time>2022-07-30T07:01:37Z</time>
      </trkpt>
      <trkpt lat="47.2187" lon="-1.68227">
        <ele>79</ele>
        <time>2022-07-30T07:01:39Z</time>
      </trkpt>
      <trkpt lat="47.21882" lon="-1.68224">
        <ele>80</ele>
        <time>2022-07-30T07:01:41Z</time>
      </trkpt>
      <trkpt lat="47.21894" lon="-1.68218">
        <ele>80</ele>
        <time>2022-07-30T07:01:43Z</time>
      </trkpt>
      <trkpt lat="47.21906" lon="-1.68211">
        <ele>80</ele>
        <time>2022-07-30T07:01:45Z</time>
      </trkpt>
      <trkpt lat="47.21917" lon="-1.68203">
        <ele>80</ele>
        <time>2022-07-30T07:01:47Z</time>
      </trkpt>
      <trkpt lat="47.21928" lon="-1.68196">
        <ele>80</ele>
        <time>2022-07-30T07:01:49Z</time>
      </trkpt>
      <trkpt lat="47.2194" lon="-1.68189">
        <ele>80</ele>
        <time>2022-07-30T07:01:51Z</time>
      </trkpt>
      <trkpt lat="47.21951" lon="-1.68182">
        <ele>80</ele>
        <time>2022-07-30T07:01:53Z</time>
      </trkpt>
      <trkpt lat="47.21962" lon="-1.68174">
        <ele>80</ele>
        <time>2022-07-30T07:01:55Z</time>
      </trkpt>
      <trkpt lat="47.21973" lon="-1.68167">
        <ele>80</ele>
        <time>2022-07-30T07:01:57Z</time>
      </trkpt>
      <trkpt lat="47.21984" lon="-1.6816">
        <ele>80</ele>
        <time>2022-07-30T07:01:59Z</time>
      </trkpt>
      <trkpt lat="47.21995" lon="-1.68153">
        <ele>81</ele>
        <time>2022-07-30T07:02:01Z</time>
      </trkpt>
      <trkpt lat="47.22006" lon="-1.68145">
        <ele>81</ele>
        <time>2022-07-30T07:02:03Z</time>
      </trkpt>
      <trkpt lat="47.22016" lon="-1.68136">
        <ele>81</ele>
        <time>2022-07-30T07:02:05Z</time>
      </trkpt>
      <trkpt lat="47.22026" lon="-1.68126">
        <ele>81</ele>
        <time>2022-07-30T07:02:07Z</time>
      </trkpt>
      <trkpt lat="47.22036" lon="-1.68115">
        <ele>81</ele>
        <time>2022-07-30T07:02:09Z</time>
      </trkpt>
      <trkpt lat="47.22045" lon="-1.68104">
        <ele>82</ele>
        <time>2022-07-30T07:02:11Z</time>
      </trkpt>
      <trkpt lat="47.22054" lon="-1.68092">
        <ele>82</ele>
        <time>2022-07-30T07:02:13Z</time>
      </trkpt>
      <trkpt lat="47.22063" lon="-1.68081">
        <ele>82</ele>
        <time>2022-07-30T07:02:15Z</time>
      </trkpt>
      <trkpt lat="47.22072" lon="-1.68069">
        <ele>82</ele>
        <time>2022-07-30T07:02:17Z</time>
      </trkpt>
      <trkpt lat="47.22081" lon="-1.68058">
        <ele>82</ele>
        <time>2022-07-30T07:02:19Z</time>
      </trkpt>
      <trkpt lat="47.22089" lon="-1.68046">
        <ele>82</ele>
        <time>2022-07-30T07:02:21Z</time>
      </trkpt>
      <trkpt lat="47.22098" lon="-1.68035">
        <ele>82</ele>
        <time>2022-07-30T07:02:23Z</time>
      </trkpt>
      <trkpt lat="47.22106" lon="-1.68023">
        <ele>82</ele>
        <time>2022-07-30T07:02:25Z</time>
      </trkpt>
      <trkpt lat="47.22115" lon="-1.68012">
        <ele>82</ele>
        <time>2022-07-30T07:02:27Z</time>
      </trkpt>
      <trkpt lat="47.22124" lon="-1.68002">
        <ele>82</ele>
        <time>2022-07-30T07:02:29Z</time>
      </trkpt>
      <trkpt lat="47.22133" lon="-1.67993">
        <ele>83</ele>
        <time>2022-07-30T07:02:31Z</time>
      </trkpt>
      <trkpt lat="47.22143" lon="-1.67985">
        <ele>83</ele>
        <time>2022-07-30T07:02:33Z</time>
      </trkpt>
      <trkpt lat="47.22153" lon="-1.67977">
        <ele>83</ele>
        <time>2022-07-30T07:02:35Z</time>
      </trkpt>
      <trkpt lat="47.22164" lon="-1.6797">
        <ele>82</ele>
        <time>2022-07-30T07:02:37Z</time>
      </trkpt>
      <trkpt lat="47.22174" lon="-1.67962">
        <ele>82</ele>
        <time>2022-07-30T07:02:39Z</time>
      </trkpt>
      <trkpt lat="47.22186" lon="-1.67954">
        <ele>82</ele>
        <time>2022-07-30T07:02:41Z</time>
      </trkpt>
      <trkpt lat="47.22197" lon="-1.67947">
        <ele>82</ele>
        <time>2022-07-30T07:02:43Z</time>
      </trkpt>
      <trkpt lat="47.22209" lon="-1.6794">
        <ele>81</ele>
        <time>2022-07-30T07:02:45Z</time>
      </trkpt>
      <trkpt lat="47.2222" lon="-1.67932">
        <ele>81</ele>
        <time>2022-07-30T07:02:47Z</time>
      </trkpt>
      <trkpt lat="47.22232" lon="-1.67923">
        <ele>81</ele>
        <time>2022-07-30T07:02:49Z</time>
      </trkpt>
      <trkpt lat="47.22244" lon="-1.67915">
        <ele>81</ele>
        <time>2022-07-30T07:02:51Z</time>
      </trkpt>
      <trkpt lat="47.22256" lon="-1.67907">
        <ele>81</ele>
        <time>2022-07-30T07:02:53Z</time>
      </trkpt>
      <trkpt lat="47.22268" lon="-1.67899">
        <ele>80</ele>
        <time>2022-07-30T07:02:55Z</time>
      </trkpt>
      <trkpt lat="47.22279" lon="-1.67891">
        <ele>80</ele>
        <time>2022-07-30T07:02:57Z</time>
      </trkpt>
      <trkpt lat="47.22291" lon="-1.67883">
        <ele>79</ele>
        <time>2022-07-30T07:02:59Z</time>
      </trkpt>
      <trkpt lat="47.22303" lon="-1.67876">
        <ele>79</ele>
        <time>2022-07-30T07:03:01Z</time>
      </trkpt>
      <trkpt lat="47.22315" lon="-1.67868">
        <ele>79</ele>
        <time>2022-07-30T07:03:03Z</time>
      </trkpt>
      <trkpt lat="47.22327" lon="-1.6786">
        <ele>79</ele>
        <time>2022-07-30T07:03:05Z</time>
      </trkpt>
      <trkpt lat="47.22338" lon="-1.67852">
        <ele>80</ele>
        <time>2022-07-30T07:03:07Z</time>
      </trkpt>
      <trkpt lat="47.2235" lon="-1.67846">
        <ele>80</ele>
        <time>2022-07-30T07:03:09Z</time>
      </trkpt>
      <trkpt lat="47.22361" lon="-1.67841">
        <ele>80</ele>
        <time>2022-07-30T07:03:11Z</time>
      </trkpt>
      <trkpt lat="47.22373" lon="-1.67836">
        <ele>80</ele>
        <time>2022-07-30T07:03:13Z</time>
      </trkpt>
      <trkpt lat="47.22384" lon="-1.67832">
        <ele>81</ele>
        <time>2022-07-30T07:03:15Z</time>
      </trkpt>
      <trkpt lat="47.22394" lon="-1.67829">
        <ele>81</ele>
        <time>2022-07-30T07:03:17Z</time>
      </trkpt>
      <trkpt lat="47.22404" lon="-1.67827">
        <ele>81</ele>
        <time>2022-07-30T07:03:19Z</time>
      </trkpt>
      <trkpt lat="47.22415" lon="-1.67824">
        <ele>81</ele>
        <time>2022-07-30T07:03:21Z</time>
      </trkpt>
      <trkpt lat="47.22426" lon="-1.67823">
        <ele>81</ele>
        <time>2022-07-30T07:03:23Z</time>
      </trkpt>
      <trkpt lat="47.22437" lon="-1.67823">
        <ele>82</ele>
        <time>2022-07-30T07:03:25Z</time>
      </trkpt>
      <trkpt lat="47.22448" lon="-1.67822">
        <ele>82</ele>
        <time>2022-07-30T07:03:27Z</time>
      </trkpt>
      <trkpt lat="47.22459" lon="-1.67822">
        <ele>82</ele>
        <time>2022-07-30T07:03:29Z</time>
      </trkpt>
      <trkpt lat="47.2247" lon="-1.67823">
        <ele>83</ele>
        <time>2022-07-30T07:03:31Z</time>
      </trkpt>
      <trkpt lat="47.22481" lon="-1.67825">
        <ele>83</ele>
        <time>2022-07-30T07:03:33Z</time>
      </trkpt>
      <trkpt lat="47.22491" lon="-1.67826">
        <ele>83</ele>
        <time>2022-07-30T07:03:35Z</time>
      </trkpt>
      <trkpt lat="47.22502" lon="-1.67828">
        <ele>83</ele>
        <time>2022-07-30T07:03:37Z</time>
      </trkpt>
      <trkpt lat="47.22513" lon="-1.6783">
        <ele>84</ele>
        <time>2022-07-30T07:03:39Z</time>
      </trkpt>
      <trkpt lat="47.22524" lon="-1.67831">
        <ele>84</ele>
        <time>2022-07-30T07:03:41Z</time>
      </trkpt>
      <trkpt lat="47.22534" lon="-1.67833">
        <ele>85</ele>
        <time>2022-07-30T07:03:43Z</time>
      </trkpt>
      <trkpt lat="47.22545" lon="-1.67835">
        <ele>85</ele>
        <time>2022-07-30T07:03:45Z</time>
      </trkpt>
      <trkpt lat="47.22555" lon="-1.67836">
        <ele>85</ele>
        <time>2022-07-30T07:03:47Z</time>
      </trkpt>
      <trkpt lat="47.22566" lon="-1.67836">
        <ele>86</ele>
        <time>2022-07-30T07:03:49Z</time>
      </trkpt>
      <trkpt lat="47.22576" lon="-1.67833">
        <ele>86</ele>
        <time>2022-07-30T07:03:51Z</time>
      </trkpt>
      <trkpt lat="47.22585" lon="-1.67826">
        <ele>87</ele>
        <time>2022-07-30T07:03:53Z</time>
      </trkpt>
      <trkpt lat="47.22596" lon="-1.67828">
        <ele>87</ele>
        <time>2022-07-30T07:03:55Z</time>
      </trkpt>
      <trkpt lat="47.22607" lon="-1.67833">
        <ele>87</ele>
        <time>2022-07-30T07:03:57Z</time>
      </trkpt>
      <trkpt lat="47.22617" lon="-1.67835">
        <ele>87</ele>
        <time>2022-07-30T07:03:59Z</time>
      </trkpt>
      <trkpt lat="47.22628" lon="-1.67833">
        <ele>88</ele>
        <time>2022-07-30T07:04:01Z</time>
      </trkpt>
      <trkpt lat="47.22638" lon="-1.67831">
        <ele>88</ele>
        <time>2022-07-30T07:04:03Z</time>
      </trkpt>
      <trkpt lat="47.22649" lon="-1.67829">
        <ele>89</ele>
        <time>2022-07-30T07:04:05Z</time>
      </trkpt>
      <trkpt lat="47.22659" lon="-1.67827">
        <ele>89</ele>
        <time>2022-07-30T07:04:07Z</time>
      </trkpt>
      <trkpt lat="47.22669" lon="-1.67826">
        <ele>90</ele>
        <time>2022-07-30T07:04:09Z</time>
      </trkpt>
      <trkpt lat="47.22679" lon="-1.67824">
        <ele>90</ele>
        <time>2022-07-30T07:04:11Z</time>
      </trkpt>
      <trkpt lat="47.22689" lon="-1.67822">
        <ele>90</ele>
        <time>2022-07-30T07:04:13Z</time>
      </trkpt>
      <trkpt lat="47.22699" lon="-1.6782">
        <ele>90</ele>
        <time>2022-07-30T07:04:15Z</time>
      </trkpt>
      <trkpt lat="47.22709" lon="-1.67817">
        <ele>90</ele>
        <time>2022-07-30T07:04:17Z</time>
      </trkpt>
      <trkpt lat="47.22719" lon="-1.67815">
        <ele>91</ele>
        <time>2022-07-30T07:04:19Z</time>
      </trkpt>
      <trkpt lat="47.22729" lon="-1.67813">
        <ele>92</ele>
        <time>2022-07-30T07:04:21Z</time>
      </trkpt>
      <trkpt lat="47.22739" lon="-1.67811">
        <ele>92</ele>
        <time>2022-07-30T07:04:23Z</time>
      </trkpt>
      <trkpt lat="47.22749" lon="-1.67807">
        <ele>92</ele>
        <time>2022-07-30T07:04:25Z</time>
      </trkpt>
      <trkpt lat="47.2276" lon="-1.67804">
        <ele>92</ele>
        <time>2022-07-30T07:04:27Z</time>
      </trkpt>
      <trkpt lat="47.2277" lon="-1.678">
        <ele>93</ele>
        <time>2022-07-30T07:04:29Z</time>
      </trkpt>
      <trkpt lat="47.22779" lon="-1.67796">
        <ele>93</ele>
        <time>2022-07-30T07:04:31Z</time>
      </trkpt>
      <trkpt lat="47.22789" lon="-1.67792">
        <ele>94</ele>
        <time>2022-07-30T07:04:33Z</time>
      </trkpt>
      <trkpt lat="47.22798" lon="-1.67789">
        <ele>94</ele>
        <time>2022-07-30T07:04:35Z</time>
      </trkpt>
      <trkpt lat="47.22807" lon="-1.67785">
        <ele>94</ele>
        <time>2022-07-30T07:04:37Z</time>
      </trkpt>
      <trkpt lat="47.22816" lon="-1.67781">
        <ele>95</ele>
        <time>2022-07-30T07:04:39Z</time>
      </trkpt>
      <trkpt lat="47.22825" lon="-1.67777">
        <ele>95</ele>
        <time>2022-07-30T07:04:41Z</time>
      </trkpt>
      <trkpt lat="47.22834" lon="-1.67773">
        <ele>96</ele>
        <time>2022-07-30T07:04:43Z</time>
      </trkpt>
      <trkpt lat="47.22844" lon="-1.67767">
        <ele>96</ele>
        <time>2022-07-30T07:04:45Z</time>
      </trkpt>
      <trkpt lat="47.22853" lon="-1.67763">
        <ele>97</ele>
        <time>2022-07-30T07:04:47Z</time>
      </trkpt>
      <trkpt lat="47.22862" lon="-1.67757">
        <ele>97</ele>
        <time>2022-07-30T07:04:49Z</time>
      </trkpt>
      <trkpt lat="47.22871" lon="-1.67751">
        <ele>97</ele>
        <time>2022-07-30T07:04:51Z</time>
      </trkpt>
      <trkpt lat="47.2288" lon="-1.67745">
        <ele>97</ele>
        <time>2022-07-30T07:04:53Z</time>
      </trkpt>
      <trkpt lat="47.2289" lon="-1.6774">
        <ele>98</ele>
        <time>2022-07-30T07:04:55Z</time>
      </trkpt>
      <trkpt lat="47.22899" lon="-1.67734">
        <ele>98</ele>
        <time>2022-07-30T07:04:57Z</time>
      </trkpt>
      <trkpt lat="47.22909" lon="-1.67729">
        <ele>99</ele>
        <time>2022-07-30T07:04:59Z</time>
      </trkpt>
      <trkpt lat="47.22918" lon="-1.67723">
        <ele>99</ele>
        <time>2022-07-30T07:05:01Z</time>
      </trkpt>
      <trkpt lat="47.22927" lon="-1.67717">
        <ele>100</ele>
        <time>2022-07-30T07:05:03Z</time>
      </trkpt>
      <trkpt lat="47.22936" lon="-1.6771">
        <ele>100</ele>
        <time>2022-07-30T07:05:05Z</time>
      </trkpt>
      <trkpt lat="47.22946" lon="-1.67704">
        <ele>100</ele>
        <time>2022-07-30T07:05:07Z</time>
      </trkpt>
      <trkpt lat="47.22956" lon="-1.67697">
        <ele>100</ele>
        <time>2022-07-30T07:05:09Z</time>
      </trkpt>
      <trkpt lat="47.22965" lon="-1.6769">
        <ele>100</ele>
        <time>2022-07-30T07:05:11Z</time>
      </trkpt>
      <trkpt lat="47.22975" lon="-1.67683">
        <ele>100</ele>
        <time>2022-07-30T07:05:13Z</time>
      </trkpt>
      <trkpt lat="47.22985" lon="-1.67676">
        <ele>100</ele>
        <time>2022-07-30T07:05:15Z</time>
      </trkpt>
      <trkpt lat="47.22995" lon="-1.67668">
        <ele>100</ele>
        <time>2022-07-30T07:05:17Z</time>
      </trkpt>
      <trkpt lat="47.23006" lon="-1.67661">
        <ele>100</ele>
        <time>2022-07-30T07:05:19Z</time>
      </trkpt>
      <trkpt lat="47.23016" lon="-1.67653">
        <ele>100</ele>
        <time>2022-07-30T07:05:21Z</time>
      </trkpt>
      <trkpt lat="47.23025" lon="-1.67644">
        <ele>100</ele>
        <time>2022-07-30T07:05:23Z</time>
      </trkpt>
      <trkpt lat="47.23034" lon="-1.67634">
        <ele>100</ele>
        <time>2022-07-30T07:05:25Z</time>
      </trkpt>
      <trkpt lat="47.23043" lon="-1.67622">
        <ele>100</ele>
        <time>2022-07-30T07:05:27Z</time>
      </trkpt>
      <trkpt lat="47.23051" lon="-1.6761">
        <ele>99</ele>
        <time>2022-07-30T07:05:29Z</time>
      </trkpt>
      <trkpt lat="47.2306" lon="-1.67598">
        <ele>100</ele>
        <time>2022-07-30T07:05:31Z</time>
      </trkpt>
      <trkpt lat="47.23067" lon="-1.67586">
        <ele>100</ele>
        <time>2022-07-30T07:05:33Z</time>
      </trkpt>
      <trkpt lat="47.23074" lon="-1.67573">
        <ele>100</ele>
        <time>2022-07-30T07:05:35Z</time>
      </trkpt>
      <trkpt lat="47.23083" lon="-1.67562">
        <ele>100</ele>
        <time>2022-07-30T07:05:37Z</time>
      </trkpt>
      <trkpt lat="47.23092" lon="-1.67551">
        <ele>100</ele>
        <time>2022-07-30T07:05:39Z</time>
      </trkpt>
      <trkpt lat="47.23101" lon="-1.67541">
        <ele>100</ele>
        <time>2022-07-30T07:05:41Z</time>
      </trkpt>
      <trkpt lat="47.2311" lon="-1.67531">
        <ele>100</ele>
        <time>2022-07-30T07:05:43Z</time>
      </trkpt>
      <trkpt lat="47.2312" lon="-1.67521">
        <ele>100</ele>
        <time>2022-07-30T07:05:45Z</time>
      </trkpt>
      <trkpt lat="47.23129" lon="-1.67511">
        <ele>101</ele>
        <time>2022-07-30T07:05:47Z</time>
      </trkpt>
      <trkpt lat="47.23138" lon="-1.67501">
        <ele>100</ele>
        <time>2022-07-30T07:05:49Z</time>
      </trkpt>
      <trkpt lat="47.23147" lon="-1.6749">
        <ele>101</ele>
        <time>2022-07-30T07:05:51Z</time>
      </trkpt>
      <trkpt lat="47.23155" lon="-1.6748">
        <ele>101</ele>
        <time>2022-07-30T07:05:53Z</time>
      </trkpt>
      <trkpt lat="47.23164" lon="-1.67471">
        <ele>101</ele>
        <time>2022-07-30T07:05:55Z</time>
      </trkpt>
      <trkpt lat="47.23173" lon="-1.67462">
        <ele>101</ele>
        <time>2022-07-30T07:05:57Z</time>
      </trkpt>
      <trkpt lat="47.23182" lon="-1.67453">
        <ele>102</ele>
        <time>2022-07-30T07:05:59Z</time>
      </trkpt>
      <trkpt lat="47.2319" lon="-1.67443">
        <ele>102</ele>
        <time>2022-07-30T07:06:01Z</time>
      </trkpt>
      <trkpt lat="47.23199" lon="-1.67435">
        <ele>103</ele>
        <time>2022-07-30T07:06:03Z</time>
      </trkpt>
      <trkpt lat="47.23207" lon="-1.67425">
        <ele>104</ele>
        <time>2022-07-30T07:06:05Z</time>
      </trkpt>
      <trkpt lat="47.23215" lon="-1.67416">
        <ele>104</ele>
        <time>2022-07-30T07:06:07Z</time>
      </trkpt>
      <trkpt lat="47.23223" lon="-1.67408">
        <ele>104</ele>
        <time>2022-07-30T07:06:09Z</time>
      </trkpt>
      <trkpt lat="47.23232" lon="-1.674">
        <ele>105</ele>
        <time>2022-07-30T07:06:11Z</time>
      </trkpt>
      <trkpt lat="47.2324" lon="-1.67393">
        <ele>105</ele>
        <time>2022-07-30T07:06:13Z</time>
      </trkpt>
      <trkpt lat="47.23249" lon="-1.67386">
        <ele>106</ele>
        <time>2022-07-30T07:06:15Z</time>
      </trkpt>
      <trkpt lat="47.23258" lon="-1.6738">
        <ele>107</ele>
        <time>2022-07-30T07:06:17Z</time>
      </trkpt>
      <trkpt lat="47.23266" lon="-1.67374">
        <ele>107</ele>
        <time>2022-07-30T07:06:19Z</time>
      </trkpt>
      <trkpt lat="47.23276" lon="-1.67367">
        <ele>108</ele>
        <time>2022-07-30T07:06:21Z</time>
      </trkpt>
      <trkpt lat="47.23285" lon="-1.6736">
        <ele>108</ele>
        <time>2022-07-30T07:06:23Z</time>
      </trkpt>
      <trkpt lat="47.23294" lon="-1.67355">
        <ele>109</ele>
        <time>2022-07-30T07:06:25Z</time>
      </trkpt>
      <trkpt lat="47.23303" lon="-1.67349">
        <ele>110</ele>
        <time>2022-07-30T07:06:27Z</time>
      </trkpt>
      <trkpt lat="47.23311" lon="-1.67343">
        <ele>111</ele>
        <time>2022-07-30T07:06:29Z</time>
      </trkpt>
      <trkpt lat="47.23319" lon="-1.67337">
        <ele>111</ele>
        <time>2022-07-30T07:06:31Z</time>
      </trkpt>
      <trkpt lat="47.23328" lon="-1.6733">
        <ele>111</ele>
        <time>2022-07-30T07:06:33Z</time>
      </trkpt>
      <trkpt lat="47.23337" lon="-1.67324">
        <ele>111</ele>
        <time>2022-07-30T07:06:35Z</time>
      </trkpt>
      <trkpt lat="47.23345" lon="-1.67318">
        <ele>111</ele>
        <time>2022-07-30T07:06:37Z</time>
      </trkpt>
      <trkpt lat="47.23354" lon="-1.67312">
        <ele>111</ele>
        <time>2022-07-30T07:06:39Z</time>
      </trkpt>
      <trkpt lat="47.23363" lon="-1.67306">
        <ele>111</ele>
        <time>2022-07-30T07:06:41Z</time>
      </trkpt>
      <trkpt lat="47.23372" lon="-1.673">
        <ele>111</ele>
        <time>2022-07-30T07:06:43Z</time>
      </trkpt>
      <trkpt lat="47.23381" lon="-1.67293">
        <ele>111</ele>
        <time>2022-07-30T07:06:45Z</time>
      </trkpt>
      <trkpt lat="47.2339" lon="-1.67287">
        <ele>111</ele>
        <time>2022-07-30T07:06:47Z</time>
      </trkpt>
      <trkpt lat="47.23399" lon="-1.67282">
        <ele>111</ele>
        <time>2022-07-30T07:06:49Z</time>
      </trkpt>
      <trkpt lat="47.23409" lon="-1.67275">
        <ele>111</ele>
        <time>2022-07-30T07:06:51Z</time>
      </trkpt>
      <trkpt lat="47.23418" lon="-1.67269">
        <ele>111</ele>
        <time>2022-07-30T07:06:53Z</time>
      </trkpt>
      <trkpt lat="47.23428" lon="-1.67262">
        <ele>112</ele>
        <time>2022-07-30T07:06:55Z</time>
      </trkpt>
      <trkpt lat="47.23437" lon="-1.67255">
        <ele>112</ele>
        <time>2022-07-30T07:06:57Z</time>
      </trkpt>
      <trkpt lat="47.23447" lon="-1.67248">
        <ele>112</ele>
        <time>2022-07-30T07:06:59Z</time>
      </trkpt>
      <trkpt lat="47.23456" lon="-1.67242">
        <ele>112</ele>
        <time>2022-07-30T07:07:01Z</time>
      </trkpt>
      <trkpt lat="47.23466" lon="-1.67236">
        <ele>112</ele>
        <time>2022-07-30T07:07:03Z</time>
      </trkpt>
      <trkpt lat="47.23475" lon="-1.67229">
        <ele>112</ele>
        <time>2022-07-30T07:07:05Z</time>
      </trkpt>
      <trkpt lat="47.23485" lon="-1.67222">
        <ele>112</ele>
        <time>2022-07-30T07:07:07Z</time>
      </trkpt>
      <trkpt lat="47.23495" lon="-1.67215">
        <ele>113</ele>
        <time>2022-07-30T07:07:09Z</time>
      </trkpt>
      <trkpt lat="47.23505" lon="-1.6721">
        <ele>113</ele>
        <time>2022-07-30T07:07:11Z</time>
      </trkpt>
      <trkpt lat="47.23515" lon="-1.67204">
        <ele>114</ele>
        <time>2022-07-30T07:07:13Z</time>
      </trkpt>
      <trkpt lat="47.23526" lon="-1.67198">
        <ele>114</ele>
        <time>2022-07-30T07:07:15Z</time>
      </trkpt>
      <trkpt lat="47.23537" lon="-1.67193">
        <ele>114</ele>
        <time>2022-07-30T07:07:17Z</time>
      </trkpt>
      <trkpt lat="47.23548" lon="-1.67188">
        <ele>113</ele>
        <time>2022-07-30T07:07:19Z</time>
      </trkpt>
      <trkpt lat="47.2356" lon="-1.67184">
        <ele>113</ele>
        <time>2022-07-30T07:07:21Z</time>
      </trkpt>
      <trkpt lat="47.23572" lon="-1.67182">
        <ele>113</ele>
        <time>2022-07-30T07:07:23Z</time>
      </trkpt>
      <trkpt lat="47.23584" lon="-1.6718">
        <ele>113</ele>
        <time>2022-07-30T07:07:25Z</time>
      </trkpt>
      <trkpt lat="47.23596" lon="-1.67178">
        <ele>113</ele>
        <time>2022-07-30T07:07:27Z</time>
      </trkpt>
      <trkpt lat="47.23608" lon="-1.67177">
        <ele>113</ele>
        <time>2022-07-30T07:07:29Z</time>
      </trkpt>
      <trkpt lat="47.23619" lon="-1.67175">
        <ele>112</ele>
        <time>2022-07-30T07:07:31Z</time>
      </trkpt>
      <trkpt lat="47.23629" lon="-1.67168">
        <ele>112</ele>
        <time>2022-07-30T07:07:33Z</time>
      </trkpt>
      <trkpt lat="47.23638" lon="-1.67158">
        <ele>112</ele>
        <time>2022-07-30T07:07:35Z</time>
      </trkpt>
      <trkpt lat="47.23649" lon="-1.67157">
        <ele>112</ele>
        <time>2022-07-30T07:07:37Z</time>
      </trkpt>
      <trkpt lat="47.23659" lon="-1.67166">
        <ele>112</ele>
        <time>2022-07-30T07:07:39Z</time>
      </trkpt>
      <trkpt lat="47.23671" lon="-1.67171">
        <ele>111</ele>
        <time>2022-07-30T07:07:41Z</time>
      </trkpt>
      <trkpt lat="47.23683" lon="-1.6717">
        <ele>111</ele>
        <time>2022-07-30T07:07:43Z</time>
      </trkpt>
      <trkpt lat="47.23694" lon="-1.67168">
        <ele>111</ele>
        <time>2022-07-30T07:07:45Z</time>
      </trkpt>
      <trkpt lat="47.23706" lon="-1.67167">
        <ele>111</ele>
        <time>2022-07-30T07:07:47Z</time>
      </trkpt>
      <trkpt lat="47.23718" lon="-1.67164">
        <ele>111</ele>
        <time>2022-07-30T07:07:49Z</time>
      </trkpt>
      <trkpt lat="47.23729" lon="-1.67161">
        <ele>112</ele>
        <time>2022-07-30T07:07:51Z</time>
      </trkpt>
      <trkpt lat="47.23741" lon="-1.67157">
        <ele>112</ele>
        <time>2022-07-30T07:07:53Z</time>
      </trkpt>
      <trkpt lat="47.23753" lon="-1.67153">
        <ele>112</ele>
        <time>2022-07-30T07:07:55Z</time>
      </trkpt>
      <trkpt lat="47.23764" lon="-1.67148">
        <ele>113</ele>
        <time>2022-07-30T07:07:57Z</time>
      </trkpt>
      <trkpt lat="47.23775" lon="-1.67143">
        <ele>113</ele>
        <time>2022-07-30T07:07:59Z</time>
      </trkpt>
      <trkpt lat="47.23787" lon="-1.67139">
        <ele>113</ele>
        <time>2022-07-30T07:08:01Z</time>
      </trkpt>
      <trkpt lat="47.23799" lon="-1.67135">
        <ele>113</ele>
        <time>2022-07-30T07:08:03Z</time>
      </trkpt>
      <trkpt lat="47.2381" lon="-1.67133">
        <ele>113</ele>
        <time>2022-07-30T07:08:05Z</time>
      </trkpt>
      <trkpt lat="47.23822" lon="-1.6713">
        <ele>113</ele>
        <time>2022-07-30T07:08:07Z</time>
      </trkpt>
      <trkpt lat="47.23833" lon="-1.6713">
        <ele>113</ele>
        <time>2022-07-30T07:08:09Z</time>
      </trkpt>
      <trkpt lat="47.23845" lon="-1.6713">
        <ele>113</ele>
        <time>2022-07-30T07:08:11Z</time>
      </trkpt>
      <trkpt lat="47.23856" lon="-1.67132">
        <ele>113</ele>
        <time>2022-07-30T07:08:13Z</time>
      </trkpt>
      <trkpt lat="47.23867" lon="-1.67136">
        <ele>114</ele>
        <time>2022-07-30T07:08:15Z</time>
      </trkpt>
      <trkpt lat="47.23878" lon="-1.6714">
        <ele>115</ele>
        <time>2022-07-30T07:08:17Z</time>
      </trkpt>
      <trkpt lat="47.2389" lon="-1.67145">
        <ele>115</ele>
        <time>2022-07-30T07:08:19Z</time>
      </trkpt>
      <trkpt lat="47.239" lon="-1.67152">
        <ele>116</ele>
        <time>2022-07-30T07:08:21Z</time>
      </trkpt>
      <trkpt lat="47.23911" lon="-1.67158">
        <ele>116</ele>
        <time>2022-07-30T07:08:23Z</time>
      </trkpt>
      <trkpt lat="47.23921" lon="-1.67165">
        <ele>116</ele>
        <time>2022-07-30T07:08:25Z</time>
      </trkpt>
      <trkpt lat="47.23932" lon="-1.67172">
        <ele>116</ele>
        <time>2022-07-30T07:08:27Z</time>
      </trkpt>
      <trkpt lat="47.23941" lon="-1.67179">
        <ele>117</ele>
        <time>2022-07-30T07:08:29Z</time>
      </trkpt>
      <trkpt lat="47.2395" lon="-1.67188">
        <ele>117</ele>
        <time>2022-07-30T07:08:31Z</time>
      </trkpt>
      <trkpt lat="47.23959" lon="-1.672">
        <ele>117</ele>
        <time>2022-07-30T07:08:33Z</time>
      </trkpt>
      <trkpt lat="47.23966" lon="-1.67212">
        <ele>117</ele>
        <time>2022-07-30T07:08:35Z</time>
      </trkpt>
      <trkpt lat="47.23974" lon="-1.67225">
        <ele>117</ele>
        <time>2022-07-30T07:08:37Z</time>
      </trkpt>
      <trkpt lat="47.23983" lon="-1.67237">
        <ele>117</ele>
        <time>2022-07-30T07:08:39Z</time>
      </trkpt>
      <trkpt lat="47.23992" lon="-1.67248">
        <ele>116</ele>
        <time>2022-07-30T07:08:41Z</time>
      </trkpt>
      <trkpt lat="47.24002" lon="-1.67258">
        <ele>116</ele>
        <time>2022-07-30T07:08:43Z</time>
      </trkpt>
      <trkpt lat="47.2402" lon="-1.6727">
        <ele>115</ele>
        <time>2022-07-30T07:08:46Z</time>
      </trkpt>
      <trkpt lat="47.24032" lon="-1.67278">
        <ele>114</ele>
        <time>2022-07-30T07:08:48Z</time>
      </trkpt>
      <trkpt lat="47.24047" lon="-1.67282">
        <ele>113</ele>
        <time>2022-07-30T07:08:50Z</time>
      </trkpt>
      <trkpt lat="47.24062" lon="-1.67284">
        <ele>112</ele>
        <time>2022-07-30T07:08:52Z</time>
      </trkpt>
      <trkpt lat="47.24078" lon="-1.67286">
        <ele>110</ele>
        <time>2022-07-30T07:08:54Z</time>
      </trkpt>
      <trkpt lat="47.24095" lon="-1.67288">
        <ele>109</ele>
        <time>2022-07-30T07:08:56Z</time>
      </trkpt>
      <trkpt lat="47.24112" lon="-1.6729">
        <ele>108</ele>
        <time>2022-07-30T07:08:58Z</time>
      </trkpt>
      <trkpt lat="47.24128" lon="-1.67292">
        <ele>107</ele>
        <time>2022-07-30T07:09:00Z</time>
      </trkpt>
      <trkpt lat="47.24144" lon="-1.67293">
        <ele>107</ele>
        <time>2022-07-30T07:09:02Z</time>
      </trkpt>
      <trkpt lat="47.24167" lon="-1.67289">
        <ele>107</ele>
        <time>2022-07-30T07:09:05Z</time>
      </trkpt>
      <trkpt lat="47.24182" lon="-1.67284">
        <ele>107</ele>
        <time>2022-07-30T07:09:07Z</time>
      </trkpt>
      <trkpt lat="47.24196" lon="-1.67279">
        <ele>106</ele>
        <time>2022-07-30T07:09:09Z</time>
      </trkpt>
      <trkpt lat="47.24209" lon="-1.67272">
        <ele>106</ele>
        <time>2022-07-30T07:09:11Z</time>
      </trkpt>
      <trkpt lat="47.24221" lon="-1.67261">
        <ele>106</ele>
        <time>2022-07-30T07:09:13Z</time>
      </trkpt>
      <trkpt lat="47.24227" lon="-1.67243">
        <ele>105</ele>
        <time>2022-07-30T07:09:15Z</time>
      </trkpt>
      <trkpt lat="47.24227" lon="-1.67224">
        <ele>105</ele>
        <time>2022-07-30T07:09:17Z</time>
      </trkpt>
      <trkpt lat="47.2423" lon="-1.67208">
        <ele>105</ele>
        <time>2022-07-30T07:09:19Z</time>
      </trkpt>
      <trkpt lat="47.24238" lon="-1.67195">
        <ele>104</ele>
        <time>2022-07-30T07:09:21Z</time>
      </trkpt>
      <trkpt lat="47.24246" lon="-1.67182">
        <ele>105</ele>
        <time>2022-07-30T07:09:23Z</time>
      </trkpt>
      <trkpt lat="47.24247" lon="-1.67164">
        <ele>105</ele>
        <time>2022-07-30T07:09:25Z</time>
      </trkpt>
      <trkpt lat="47.24245" lon="-1.67145">
        <ele>105</ele>
        <time>2022-07-30T07:09:27Z</time>
      </trkpt>
      <trkpt lat="47.24244" lon="-1.67125">
        <ele>105</ele>
        <time>2022-07-30T07:09:29Z</time>
      </trkpt>
      <trkpt lat="47.24243" lon="-1.67107">
        <ele>105</ele>
        <time>2022-07-30T07:09:31Z</time>
      </trkpt>
      <trkpt lat="47.24243" lon="-1.67088">
        <ele>105</ele>
        <time>2022-07-30T07:09:33Z</time>
      </trkpt>
      <trkpt lat="47.24244" lon="-1.6707">
        <ele>106</ele>
        <time>2022-07-30T07:09:35Z</time>
      </trkpt>
      <trkpt lat="47.24245" lon="-1.67052">
        <ele>106</ele>
        <time>2022-07-30T07:09:37Z</time>
      </trkpt>
      <trkpt lat="47.24246" lon="-1.67035">
        <ele>106</ele>
        <time>2022-07-30T07:09:39Z</time>
      </trkpt>
      <trkpt lat="47.24248" lon="-1.67019">
        <ele>107</ele>
        <time>2022-07-30T07:09:41Z</time>
      </trkpt>
      <trkpt lat="47.24251" lon="-1.67001">
        <ele>107</ele>
        <time>2022-07-30T07:09:43Z</time>
      </trkpt>
      <trkpt lat="47.24254" lon="-1.66984">
        <ele>107</ele>
        <time>2022-07-30T07:09:45Z</time>
      </trkpt>
      <trkpt lat="47.24257" lon="-1.66968">
        <ele>107</ele>
        <time>2022-07-30T07:09:47Z</time>
      </trkpt>
      <trkpt lat="47.24261" lon="-1.66951">
        <ele>107</ele>
        <time>2022-07-30T07:09:49Z</time>
      </trkpt>
      <trkpt lat="47.24264" lon="-1.66934">
        <ele>107</ele>
        <time>2022-07-30T07:09:51Z</time>
      </trkpt>
      <trkpt lat="47.24267" lon="-1.66916">
        <ele>107</ele>
        <time>2022-07-30T07:09:53Z</time>
      </trkpt>
      <trkpt lat="47.2427" lon="-1.66898">
        <ele>107</ele>
        <time>2022-07-30T07:09:55Z</time>
      </trkpt>
      <trkpt lat="47.24274" lon="-1.6688">
        <ele>107</ele>
        <time>2022-07-30T07:09:57Z</time>
      </trkpt>
      <trkpt lat="47.24278" lon="-1.66863">
        <ele>107</ele>
        <time>2022-07-30T07:09:59Z</time>
      </trkpt>
      <trkpt lat="47.24284" lon="-1.66846">
        <ele>107</ele>
        <time>2022-07-30T07:10:01Z</time>
      </trkpt>
      <trkpt lat="47.24286" lon="-1.66827">
        <ele>107</ele>
        <time>2022-07-30T07:10:03Z</time>
      </trkpt>
      <trkpt lat="47.24294" lon="-1.66813">
        <ele>106</ele>
        <time>2022-07-30T07:10:05Z</time>
      </trkpt>
      <trkpt lat="47.24306" lon="-1.66809">
        <ele>106</ele>
        <time>2022-07-30T07:10:07Z</time>
      </trkpt>
      <trkpt lat="47.24317" lon="-1.66818">
        <ele>106</ele>
        <time>2022-07-30T07:10:09Z</time>
      </trkpt>
      <trkpt lat="47.24326" lon="-1.66831">
        <ele>105</ele>
        <time>2022-07-30T07:10:11Z</time>
      </trkpt>
      <trkpt lat="47.24338" lon="-1.66842">
        <ele>105</ele>
        <time>2022-07-30T07:10:13Z</time>
      </trkpt>
      <trkpt lat="47.24349" lon="-1.66851">
        <ele>104</ele>
        <time>2022-07-30T07:10:15Z</time>
      </trkpt>
      <trkpt lat="47.24361" lon="-1.66862">
        <ele>104</ele>
        <time>2022-07-30T07:10:17Z</time>
      </trkpt>
      <trkpt lat="47.24373" lon="-1.66875">
        <ele>104</ele>
        <time>2022-07-30T07:10:19Z</time>
      </trkpt>
      <trkpt lat="47.24384" lon="-1.66889">
        <ele>103</ele>
        <time>2022-07-30T07:10:21Z</time>
      </trkpt>
      <trkpt lat="47.24396" lon="-1.66903">
        <ele>103</ele>
        <time>2022-07-30T07:10:23Z</time>
      </trkpt>
      <trkpt lat="47.24407" lon="-1.66917">
        <ele>103</ele>
        <time>2022-07-30T07:10:25Z</time>
      </trkpt>
      <trkpt lat="47.24419" lon="-1.66931">
        <ele>102</ele>
        <time>2022-07-30T07:10:27Z</time>
      </trkpt>
      <trkpt lat="47.24429" lon="-1.66949">
        <ele>102</ele>
        <time>2022-07-30T07:10:29Z</time>
      </trkpt>
      <trkpt lat="47.24438" lon="-1.66964">
        <ele>102</ele>
        <time>2022-07-30T07:10:31Z</time>
      </trkpt>
      <trkpt lat="47.24449" lon="-1.66976">
        <ele>102</ele>
        <time>2022-07-30T07:10:33Z</time>
      </trkpt>
      <trkpt lat="47.2446" lon="-1.66991">
        <ele>102</ele>
        <time>2022-07-30T07:10:35Z</time>
      </trkpt>
      <trkpt lat="47.24472" lon="-1.67001">
        <ele>102</ele>
        <time>2022-07-30T07:10:37Z</time>
      </trkpt>
      <trkpt lat="47.24486" lon="-1.67009">
        <ele>101</ele>
        <time>2022-07-30T07:10:39Z</time>
      </trkpt>
      <trkpt lat="47.24499" lon="-1.67016">
        <ele>101</ele>
        <time>2022-07-30T07:10:41Z</time>
      </trkpt>
      <trkpt lat="47.24511" lon="-1.67023">
        <ele>102</ele>
        <time>2022-07-30T07:10:43Z</time>
      </trkpt>
      <trkpt lat="47.24524" lon="-1.67029">
        <ele>102</ele>
        <time>2022-07-30T07:10:45Z</time>
      </trkpt>
      <trkpt lat="47.24536" lon="-1.67032">
        <ele>102</ele>
        <time>2022-07-30T07:10:47Z</time>
      </trkpt>
      <trkpt lat="47.24548" lon="-1.67033">
        <ele>102</ele>
        <time>2022-07-30T07:10:49Z</time>
      </trkpt>
      <trkpt lat="47.24561" lon="-1.67034">
        <ele>103</ele>
        <time>2022-07-30T07:10:51Z</time>
      </trkpt>
      <trkpt lat="47.24573" lon="-1.67033">
        <ele>103</ele>
        <time>2022-07-30T07:10:53Z</time>
      </trkpt>
      <trkpt lat="47.24586" lon="-1.6703">
        <ele>103</ele>
        <time>2022-07-30T07:10:55Z</time>
      </trkpt>
      <trkpt lat="47.24598" lon="-1.67025">
        <ele>103</ele>
        <time>2022-07-30T07:10:57Z</time>
      </trkpt>
      <trkpt lat="47.24611" lon="-1.6702">
        <ele>103</ele>
        <time>2022-07-30T07:10:59Z</time>
      </trkpt>
      <trkpt lat="47.24624" lon="-1.67015">
        <ele>103</ele>
        <time>2022-07-30T07:11:01Z</time>
      </trkpt>
      <trkpt lat="47.24636" lon="-1.6701">
        <ele>103</ele>
        <time>2022-07-30T07:11:03Z</time>
      </trkpt>
      <trkpt lat="47.24648" lon="-1.67004">
        <ele>102</ele>
        <time>2022-07-30T07:11:05Z</time>
      </trkpt>
      <trkpt lat="47.2466" lon="-1.66996">
        <ele>102</ele>
        <time>2022-07-30T07:11:07Z</time>
      </trkpt>
      <trkpt lat="47.24672" lon="-1.66985">
        <ele>101</ele>
        <time>2022-07-30T07:11:09Z</time>
      </trkpt>
      <trkpt lat="47.24683" lon="-1.66971">
        <ele>101</ele>
        <time>2022-07-30T07:11:11Z</time>
      </trkpt>
      <trkpt lat="47.24693" lon="-1.66957">
        <ele>101</ele>
        <time>2022-07-30T07:11:13Z</time>
      </trkpt>
      <trkpt lat="47.24703" lon="-1.66944">
        <ele>101</ele>
        <time>2022-07-30T07:11:15Z</time>
      </trkpt>
      <trkpt lat="47.24713" lon="-1.66933">
        <ele>101</ele>
        <time>2022-07-30T07:11:17Z</time>
      </trkpt>
      <trkpt lat="47.24725" lon="-1.66922">
        <ele>101</ele>
        <time>2022-07-30T07:11:19Z</time>
      </trkpt>
      <trkpt lat="47.24737" lon="-1.66915">
        <ele>101</ele>
        <time>2022-07-30T07:11:21Z</time>
      </trkpt>
      <trkpt lat="47.2475" lon="-1.66908">
        <ele>100</ele>
        <time>2022-07-30T07:11:23Z</time>
      </trkpt>
      <trkpt lat="47.24763" lon="-1.669">
        <ele>100</ele>
        <time>2022-07-30T07:11:25Z</time>
      </trkpt>
      <trkpt lat="47.24776" lon="-1.66891">
        <ele>100</ele>
        <time>2022-07-30T07:11:27Z</time>
      </trkpt>
      <trkpt lat="47.24788" lon="-1.66881">
        <ele>100</ele>
        <time>2022-07-30T07:11:29Z</time>
      </trkpt>
      <trkpt lat="47.248" lon="-1.66869">
        <ele>101</ele>
        <time>2022-07-30T07:11:31Z</time>
      </trkpt>
      <trkpt lat="47.24812" lon="-1.66858">
        <ele>100</ele>
        <time>2022-07-30T07:11:33Z</time>
      </trkpt>
      <trkpt lat="47.24825" lon="-1.66849">
        <ele>100</ele>
        <time>2022-07-30T07:11:35Z</time>
      </trkpt>
      <trkpt lat="47.24839" lon="-1.66843">
        <ele>99</ele>
        <time>2022-07-30T07:11:37Z</time>
      </trkpt>
      <trkpt lat="47.24852" lon="-1.66839">
        <ele>99</ele>
        <time>2022-07-30T07:11:39Z</time>
      </trkpt>
      <trkpt lat="47.24866" lon="-1.66835">
        <ele>99</ele>
        <time>2022-07-30T07:11:41Z</time>
      </trkpt>
      <trkpt lat="47.24879" lon="-1.66831">
        <ele>99</ele>
        <time>2022-07-30T07:11:43Z</time>
      </trkpt>
      <trkpt lat="47.24893" lon="-1.66826">
        <ele>99</ele>
        <time>2022-07-30T07:11:45Z</time>
      </trkpt>
      <trkpt lat="47.24907" lon="-1.66822">
        <ele>99</ele>
        <time>2022-07-30T07:11:47Z</time>
      </trkpt>
      <trkpt lat="47.24921" lon="-1.66817">
        <ele>98</ele>
        <time>2022-07-30T07:11:49Z</time>
      </trkpt>
      <trkpt lat="47.24935" lon="-1.66814">
        <ele>98</ele>
        <time>2022-07-30T07:11:51Z</time>
      </trkpt>
      <trkpt lat="47.24948" lon="-1.6681">
        <ele>98</ele>
        <time>2022-07-30T07:11:53Z</time>
      </trkpt>
      <trkpt lat="47.24962" lon="-1.66806">
        <ele>99</ele>
        <time>2022-07-30T07:11:55Z</time>
      </trkpt>
      <trkpt lat="47.24976" lon="-1.66802">
        <ele>99</ele>
        <time>2022-07-30T07:11:57Z</time>
      </trkpt>
      <trkpt lat="47.2499" lon="-1.66798">
        <ele>99</ele>
        <time>2022-07-30T07:11:59Z</time>
      </trkpt>
      <trkpt lat="47.25004" lon="-1.66795">
        <ele>98</ele>
        <time>2022-07-30T07:12:01Z</time>
      </trkpt>
      <trkpt lat="47.25019" lon="-1.66793">
        <ele>98</ele>
        <time>2022-07-30T07:12:03Z</time>
      </trkpt>
      <trkpt lat="47.25033" lon="-1.66792">
        <ele>97</ele>
        <time>2022-07-30T07:12:05Z</time>
      </trkpt>
      <trkpt lat="47.25048" lon="-1.66792">
        <ele>97</ele>
        <time>2022-07-30T07:12:07Z</time>
      </trkpt>
      <trkpt lat="47.25062" lon="-1.66793">
        <ele>96</ele>
        <time>2022-07-30T07:12:09Z</time>
      </trkpt>
      <trkpt lat="47.25076" lon="-1.66795">
        <ele>96</ele>
        <time>2022-07-30T07:12:11Z</time>
      </trkpt>
      <trkpt lat="47.25091" lon="-1.66797">
        <ele>96</ele>
        <time>2022-07-30T07:12:13Z</time>
      </trkpt>
      <trkpt lat="47.25106" lon="-1.66802">
        <ele>96</ele>
        <time>2022-07-30T07:12:15Z</time>
      </trkpt>
      <trkpt lat="47.25121" lon="-1.66807">
        <ele>95</ele>
        <time>2022-07-30T07:12:17Z</time>
      </trkpt>
      <trkpt lat="47.25138" lon="-1.66811">
        <ele>94</ele>
        <time>2022-07-30T07:12:19Z</time>
      </trkpt>
      <trkpt lat="47.25146" lon="-1.66814">
        <ele>94</ele>
        <time>2022-07-30T07:12:20Z</time>
      </trkpt>
      <trkpt lat="47.25163" lon="-1.6682">
        <ele>93</ele>
        <time>2022-07-30T07:12:22Z</time>
      </trkpt>
      <trkpt lat="47.2518" lon="-1.66824">
        <ele>93</ele>
        <time>2022-07-30T07:12:24Z</time>
      </trkpt>
      <trkpt lat="47.25197" lon="-1.66828">
        <ele>93</ele>
        <time>2022-07-30T07:12:26Z</time>
      </trkpt>
      <trkpt lat="47.25212" lon="-1.66832">
        <ele>93</ele>
        <time>2022-07-30T07:12:28Z</time>
      </trkpt>
      <trkpt lat="47.25226" lon="-1.66836">
        <ele>93</ele>
        <time>2022-07-30T07:12:30Z</time>
      </trkpt>
      <trkpt lat="47.25238" lon="-1.66838">
        <ele>94</ele>
        <time>2022-07-30T07:12:32Z</time>
      </trkpt>
      <trkpt lat="47.2525" lon="-1.66839">
        <ele>94</ele>
        <time>2022-07-30T07:12:34Z</time>
      </trkpt>
      <trkpt lat="47.25262" lon="-1.66842">
        <ele>95</ele>
        <time>2022-07-30T07:12:36Z</time>
      </trkpt>
      <trkpt lat="47.25273" lon="-1.66843">
        <ele>95</ele>
        <time>2022-07-30T07:12:38Z</time>
      </trkpt>
      <trkpt lat="47.25285" lon="-1.66845">
        <ele>96</ele>
        <time>2022-07-30T07:12:40Z</time>
      </trkpt>
      <trkpt lat="47.25295" lon="-1.66846">
        <ele>96</ele>
        <time>2022-07-30T07:12:42Z</time>
      </trkpt>
      <trkpt lat="47.25306" lon="-1.66848">
        <ele>96</ele>
        <time>2022-07-30T07:12:44Z</time>
      </trkpt>
      <trkpt lat="47.25318" lon="-1.6685">
        <ele>97</ele>
        <time>2022-07-30T07:12:46Z</time>
      </trkpt>
      <trkpt lat="47.25329" lon="-1.66851">
        <ele>97</ele>
        <time>2022-07-30T07:12:48Z</time>
      </trkpt>
      <trkpt lat="47.2534" lon="-1.66853">
        <ele>98</ele>
        <time>2022-07-30T07:12:50Z</time>
      </trkpt>
      <trkpt lat="47.2535" lon="-1.66854">
        <ele>98</ele>
        <time>2022-07-30T07:12:52Z</time>
      </trkpt>
      <trkpt lat="47.2536" lon="-1.66856">
        <ele>99</ele>
        <time>2022-07-30T07:12:54Z</time>
      </trkpt>
      <trkpt lat="47.25371" lon="-1.66857">
        <ele>99</ele>
        <time>2022-07-30T07:12:56Z</time>
      </trkpt>
      <trkpt lat="47.25381" lon="-1.66858">
        <ele>100</ele>
        <time>2022-07-30T07:12:58Z</time>
      </trkpt>
      <trkpt lat="47.25392" lon="-1.6686">
        <ele>100</ele>
        <time>2022-07-30T07:13:00Z</time>
      </trkpt>
      <trkpt lat="47.25403" lon="-1.66861">
        <ele>101</ele>
        <time>2022-07-30T07:13:02Z</time>
      </trkpt>
      <trkpt lat="47.25414" lon="-1.66863">
        <ele>101</ele>
        <time>2022-07-30T07:13:04Z</time>
      </trkpt>
      <trkpt lat="47.25425" lon="-1.66864">
        <ele>101</ele>
        <time>2022-07-30T07:13:06Z</time>
      </trkpt>
      <trkpt lat="47.25436" lon="-1.66867">
        <ele>102</ele>
        <time>2022-07-30T07:13:08Z</time>
      </trkpt>
      <trkpt lat="47.25447" lon="-1.66868">
        <ele>102</ele>
        <time>2022-07-30T07:13:10Z</time>
      </trkpt>
      <trkpt lat="47.25458" lon="-1.6687">
        <ele>102</ele>
        <time>2022-07-30T07:13:12Z</time>
      </trkpt>
      <trkpt lat="47.25469" lon="-1.66872">
        <ele>103</ele>
        <time>2022-07-30T07:13:14Z</time>
      </trkpt>
      <trkpt lat="47.25479" lon="-1.66873">
        <ele>103</ele>
        <time>2022-07-30T07:13:16Z</time>
      </trkpt>
      <trkpt lat="47.2549" lon="-1.66875">
        <ele>103</ele>
        <time>2022-07-30T07:13:18Z</time>
      </trkpt>
      <trkpt lat="47.255" lon="-1.66877">
        <ele>103</ele>
        <time>2022-07-30T07:13:20Z</time>
      </trkpt>
      <trkpt lat="47.2551" lon="-1.66878">
        <ele>104</ele>
        <time>2022-07-30T07:13:22Z</time>
      </trkpt>
      <trkpt lat="47.25521" lon="-1.66876">
        <ele>104</ele>
        <time>2022-07-30T07:13:24Z</time>
      </trkpt>
      <trkpt lat="47.25531" lon="-1.66877">
        <ele>104</ele>
        <time>2022-07-30T07:13:26Z</time>
      </trkpt>
      <trkpt lat="47.25542" lon="-1.66881">
        <ele>104</ele>
        <time>2022-07-30T07:13:28Z</time>
      </trkpt>
      <trkpt lat="47.25552" lon="-1.66884">
        <ele>104</ele>
        <time>2022-07-30T07:13:30Z</time>
      </trkpt>
      <trkpt lat="47.25563" lon="-1.66885">
        <ele>104</ele>
        <time>2022-07-30T07:13:32Z</time>
      </trkpt>
      <trkpt lat="47.25573" lon="-1.66886">
        <ele>104</ele>
        <time>2022-07-30T07:13:34Z</time>
      </trkpt>
      <trkpt lat="47.25584" lon="-1.66886">
        <ele>105</ele>
        <time>2022-07-30T07:13:36Z</time>
      </trkpt>
      <trkpt lat="47.25595" lon="-1.66887">
        <ele>105</ele>
        <time>2022-07-30T07:13:38Z</time>
      </trkpt>
      <trkpt lat="47.25606" lon="-1.66888">
        <ele>105</ele>
        <time>2022-07-30T07:13:40Z</time>
      </trkpt>
      <trkpt lat="47.25617" lon="-1.66888">
        <ele>105</ele>
        <time>2022-07-30T07:13:42Z</time>
      </trkpt>
      <trkpt lat="47.25627" lon="-1.66889">
        <ele>105</ele>
        <time>2022-07-30T07:13:44Z</time>
      </trkpt>
      <trkpt lat="47.25637" lon="-1.6689">
        <ele>105</ele>
        <time>2022-07-30T07:13:46Z</time>
      </trkpt>
      <trkpt lat="47.25647" lon="-1.66891">
        <ele>105</ele>
        <time>2022-07-30T07:13:48Z</time>
      </trkpt>
      <trkpt lat="47.25658" lon="-1.66892">
        <ele>104</ele>
        <time>2022-07-30T07:13:50Z</time>
      </trkpt>
      <trkpt lat="47.25668" lon="-1.66892">
        <ele>104</ele>
        <time>2022-07-30T07:13:52Z</time>
      </trkpt>
      <trkpt lat="47.25678" lon="-1.66891">
        <ele>104</ele>
        <time>2022-07-30T07:13:54Z</time>
      </trkpt>
      <trkpt lat="47.25689" lon="-1.66887">
        <ele>104</ele>
        <time>2022-07-30T07:13:56Z</time>
      </trkpt>
      <trkpt lat="47.25699" lon="-1.66888">
        <ele>104</ele>
        <time>2022-07-30T07:13:58Z</time>
      </trkpt>
      <trkpt lat="47.2571" lon="-1.66892">
        <ele>105</ele>
        <time>2022-07-30T07:14:00Z</time>
      </trkpt>
      <trkpt lat="47.2572" lon="-1.66895">
        <ele>105</ele>
        <time>2022-07-30T07:14:02Z</time>
      </trkpt>
      <trkpt lat="47.25731" lon="-1.66897">
        <ele>105</ele>
        <time>2022-07-30T07:14:04Z</time>
      </trkpt>
      <trkpt lat="47.25742" lon="-1.66898">
        <ele>105</ele>
        <time>2022-07-30T07:14:06Z</time>
      </trkpt>
      <trkpt lat="47.25753" lon="-1.66899">
        <ele>105</ele>
        <time>2022-07-30T07:14:08Z</time>
      </trkpt>
      <trkpt lat="47.25764" lon="-1.669">
        <ele>106</ele>
        <time>2022-07-30T07:14:10Z</time>
      </trkpt>
      <trkpt lat="47.25775" lon="-1.66902">
        <ele>106</ele>
        <time>2022-07-30T07:14:12Z</time>
      </trkpt>
      <trkpt lat="47.25786" lon="-1.66904">
        <ele>106</ele>
        <time>2022-07-30T07:14:14Z</time>
      </trkpt>
      <trkpt lat="47.25795" lon="-1.66905">
        <ele>107</ele>
        <time>2022-07-30T07:14:16Z</time>
      </trkpt>
      <trkpt lat="47.25805" lon="-1.66908">
        <ele>107</ele>
        <time>2022-07-30T07:14:18Z</time>
      </trkpt>
      <trkpt lat="47.25816" lon="-1.6691">
        <ele>107</ele>
        <time>2022-07-30T07:14:20Z</time>
      </trkpt>
      <trkpt lat="47.25826" lon="-1.66912">
        <ele>108</ele>
        <time>2022-07-30T07:14:22Z</time>
      </trkpt>
      <trkpt lat="47.25837" lon="-1.66915">
        <ele>108</ele>
        <time>2022-07-30T07:14:24Z</time>
      </trkpt>
      <trkpt lat="47.25847" lon="-1.66917">
        <ele>109</ele>
        <time>2022-07-30T07:14:26Z</time>
      </trkpt>
      <trkpt lat="47.25857" lon="-1.66921">
        <ele>109</ele>
        <time>2022-07-30T07:14:28Z</time>
      </trkpt>
      <trkpt lat="47.25867" lon="-1.66923">
        <ele>109</ele>
        <time>2022-07-30T07:14:30Z</time>
      </trkpt>
      <trkpt lat="47.25877" lon="-1.66926">
        <ele>110</ele>
        <time>2022-07-30T07:14:32Z</time>
      </trkpt>
      <trkpt lat="47.25887" lon="-1.66929">
        <ele>110</ele>
        <time>2022-07-30T07:14:34Z</time>
      </trkpt>
      <trkpt lat="47.25897" lon="-1.66932">
        <ele>110</ele>
        <time>2022-07-30T07:14:36Z</time>
      </trkpt>
      <trkpt lat="47.25907" lon="-1.66936">
        <ele>110</ele>
        <time>2022-07-30T07:14:38Z</time>
      </trkpt>
      <trkpt lat="47.25917" lon="-1.66939">
        <ele>110</ele>
        <time>2022-07-30T07:14:40Z</time>
      </trkpt>
      <trkpt lat="47.25927" lon="-1.66943">
        <ele>110</ele>
        <time>2022-07-30T07:14:42Z</time>
      </trkpt>
      <trkpt lat="47.25937" lon="-1.66947">
        <ele>110</ele>
        <time>2022-07-30T07:14:44Z</time>
      </trkpt>
      <trkpt lat="47.25947" lon="-1.66951">
        <ele>110</ele>
        <time>2022-07-30T07:14:46Z</time>
      </trkpt>
      <trkpt lat="47.25957" lon="-1.66956">
        <ele>110</ele>
        <time>2022-07-30T07:14:48Z</time>
      </trkpt>
      <trkpt lat="47.25966" lon="-1.6696">
        <ele>110</ele>
        <time>2022-07-30T07:14:50Z</time>
      </trkpt>
      <trkpt lat="47.25976" lon="-1.66965">
        <ele>111</ele>
        <time>2022-07-30T07:14:52Z</time>
      </trkpt>
      <trkpt lat="47.25985" lon="-1.66969">
        <ele>111</ele>
        <time>2022-07-30T07:14:54Z</time>
      </trkpt>
      <trkpt lat="47.25995" lon="-1.66974">
        <ele>112</ele>
        <time>2022-07-30T07:14:56Z</time>
      </trkpt>
      <trkpt lat="47.26004" lon="-1.66978">
        <ele>112</ele>
        <time>2022-07-30T07:14:58Z</time>
      </trkpt>
      <trkpt lat="47.26013" lon="-1.66982">
        <ele>112</ele>
        <time>2022-07-30T07:15:00Z</time>
      </trkpt>
      <trkpt lat="47.26023" lon="-1.66986">
        <ele>113</ele>
        <time>2022-07-30T07:15:02Z</time>
      </trkpt>
      <trkpt lat="47.26032" lon="-1.6699">
        <ele>113</ele>
        <time>2022-07-30T07:15:04Z</time>
      </trkpt>
      <trkpt lat="47.26041" lon="-1.66995">
        <ele>114</ele>
        <time>2022-07-30T07:15:06Z</time>
      </trkpt>
      <trkpt lat="47.26051" lon="-1.66999">
        <ele>114</ele>
        <time>2022-07-30T07:15:08Z</time>
      </trkpt>
      <trkpt lat="47.26061" lon="-1.67004">
        <ele>115</ele>
        <time>2022-07-30T07:15:10Z</time>
      </trkpt>
      <trkpt lat="47.2607" lon="-1.67008">
        <ele>115</ele>
        <time>2022-07-30T07:15:12Z</time>
      </trkpt>
      <trkpt lat="47.26081" lon="-1.67013">
        <ele>116</ele>
        <time>2022-07-30T07:15:14Z</time>
      </trkpt>
      <trkpt lat="47.26091" lon="-1.67017">
        <ele>116</ele>
        <time>2022-07-30T07:15:16Z</time>
      </trkpt>
      <trkpt lat="47.26101" lon="-1.67021">
        <ele>116</ele>
        <time>2022-07-30T07:15:18Z</time>
      </trkpt>
      <trkpt lat="47.26111" lon="-1.67026">
        <ele>116</ele>
        <time>2022-07-30T07:15:20Z</time>
      </trkpt>
      <trkpt lat="47.26121" lon="-1.67031">
        <ele>116</ele>
        <time>2022-07-30T07:15:22Z</time>
      </trkpt>
      <trkpt lat="47.26131" lon="-1.67035">
        <ele>117</ele>
        <time>2022-07-30T07:15:24Z</time>
      </trkpt>
      <trkpt lat="47.26141" lon="-1.6704">
        <ele>117</ele>
        <time>2022-07-30T07:15:26Z</time>
      </trkpt>
      <trkpt lat="47.26151" lon="-1.67044">
        <ele>117</ele>
        <time>2022-07-30T07:15:28Z</time>
      </trkpt>
      <trkpt lat="47.26161" lon="-1.67049">
        <ele>117</ele>
        <time>2022-07-30T07:15:30Z</time>
      </trkpt>
      <trkpt lat="47.26171" lon="-1.67054">
        <ele>117</ele>
        <time>2022-07-30T07:15:32Z</time>
      </trkpt>
      <trkpt lat="47.2618" lon="-1.67059">
        <ele>118</ele>
        <time>2022-07-30T07:15:34Z</time>
      </trkpt>
      <trkpt lat="47.26189" lon="-1.67063">
        <ele>118</ele>
        <time>2022-07-30T07:15:36Z</time>
      </trkpt>
      <trkpt lat="47.26199" lon="-1.67063">
        <ele>118</ele>
        <time>2022-07-30T07:15:38Z</time>
      </trkpt>
      <trkpt lat="47.26209" lon="-1.67075">
        <ele>119</ele>
        <time>2022-07-30T07:15:41Z</time>
      </trkpt>
      <trkpt lat="47.26211" lon="-1.67088">
        <ele>119</ele>
        <time>2022-07-30T07:15:43Z</time>
      </trkpt>
      <trkpt lat="47.26213" lon="-1.67103">
        <ele>119</ele>
        <time>2022-07-30T07:15:45Z</time>
      </trkpt>
      <trkpt lat="47.26216" lon="-1.67118">
        <ele>120</ele>
        <time>2022-07-30T07:15:47Z</time>
      </trkpt>
      <trkpt lat="47.26219" lon="-1.67134">
        <ele>119</ele>
        <time>2022-07-30T07:15:49Z</time>
      </trkpt>
      <trkpt lat="47.26222" lon="-1.6715">
        <ele>119</ele>
        <time>2022-07-30T07:15:51Z</time>
      </trkpt>
      <trkpt lat="47.26225" lon="-1.67166">
        <ele>119</ele>
        <time>2022-07-30T07:15:53Z</time>
      </trkpt>
      <trkpt lat="47.26228" lon="-1.67182">
        <ele>119</ele>
        <time>2022-07-30T07:15:55Z</time>
      </trkpt>
      <trkpt lat="47.26232" lon="-1.67198">
        <ele>119</ele>
        <time>2022-07-30T07:15:57Z</time>
      </trkpt>
      <trkpt lat="47.26235" lon="-1.67213">
        <ele>119</ele>
        <time>2022-07-30T07:15:59Z</time>
      </trkpt>
      <trkpt lat="47.26238" lon="-1.67227">
        <ele>119</ele>
        <time>2022-07-30T07:16:01Z</time>
      </trkpt>
      <trkpt lat="47.26243" lon="-1.6724">
        <ele>119</ele>
        <time>2022-07-30T07:16:03Z</time>
      </trkpt>
      <trkpt lat="47.26255" lon="-1.67245">
        <ele>122</ele>
        <time>2022-07-30T07:16:06Z</time>
      </trkpt>
      <trkpt lat="47.26267" lon="-1.67242">
        <ele>123</ele>
        <time>2022-07-30T07:16:08Z</time>
      </trkpt>
      <trkpt lat="47.2628" lon="-1.67239">
        <ele>123</ele>
        <time>2022-07-30T07:16:10Z</time>
      </trkpt>
      <trkpt lat="47.26292" lon="-1.67236">
        <ele>123</ele>
        <time>2022-07-30T07:16:12Z</time>
      </trkpt>
      <trkpt lat="47.26303" lon="-1.67231">
        <ele>122</ele>
        <time>2022-07-30T07:16:14Z</time>
      </trkpt>
      <trkpt lat="47.26315" lon="-1.67226">
        <ele>122</ele>
        <time>2022-07-30T07:16:16Z</time>
      </trkpt>
      <trkpt lat="47.26326" lon="-1.67222">
        <ele>121</ele>
        <time>2022-07-30T07:16:18Z</time>
      </trkpt>
      <trkpt lat="47.26337" lon="-1.67219">
        <ele>121</ele>
        <time>2022-07-30T07:16:20Z</time>
      </trkpt>
      <trkpt lat="47.26347" lon="-1.67221">
        <ele>120</ele>
        <time>2022-07-30T07:16:22Z</time>
      </trkpt>
      <trkpt lat="47.26354" lon="-1.67234">
        <ele>120</ele>
        <time>2022-07-30T07:16:24Z</time>
      </trkpt>
      <trkpt lat="47.26357" lon="-1.67249">
        <ele>119</ele>
        <time>2022-07-30T07:16:26Z</time>
      </trkpt>
      <trkpt lat="47.2636" lon="-1.67265">
        <ele>119</ele>
        <time>2022-07-30T07:16:28Z</time>
      </trkpt>
      <trkpt lat="47.26364" lon="-1.67281">
        <ele>119</ele>
        <time>2022-07-30T07:16:30Z</time>
      </trkpt>
      <trkpt lat="47.26373" lon="-1.6729">
        <ele>120</ele>
        <time>2022-07-30T07:16:32Z</time>
      </trkpt>
      <trkpt lat="47.26385" lon="-1.67295">
        <ele>120</ele>
        <time>2022-07-30T07:16:34Z</time>
      </trkpt>
      <trkpt lat="47.26397" lon="-1.67298">
        <ele>120</ele>
        <time>2022-07-30T07:16:36Z</time>
      </trkpt>
      <trkpt lat="47.26408" lon="-1.67302">
        <ele>119</ele>
        <time>2022-07-30T07:16:38Z</time>
      </trkpt>
      <trkpt lat="47.26419" lon="-1.67307">
        <ele>119</ele>
        <time>2022-07-30T07:16:40Z</time>
      </trkpt>
      <trkpt lat="47.2643" lon="-1.67313">
        <ele>118</ele>
        <time>2022-07-30T07:16:42Z</time>
      </trkpt>
      <trkpt lat="47.2644" lon="-1.67316">
        <ele>117</ele>
        <time>2022-07-30T07:16:44Z</time>
      </trkpt>
      <trkpt lat="47.2645" lon="-1.67309">
        <ele>117</ele>
        <time>2022-07-30T07:16:52Z</time>
      </trkpt>
      <trkpt lat="47.26458" lon="-1.67292">
        <ele>118</ele>
        <time>2022-07-30T07:16:55Z</time>
      </trkpt>
      <trkpt lat="47.26464" lon="-1.67277">
        <ele>117</ele>
        <time>2022-07-30T07:16:57Z</time>
      </trkpt>
      <trkpt lat="47.26471" lon="-1.6726">
        <ele>117</ele>
        <time>2022-07-30T07:16:59Z</time>
      </trkpt>
      <trkpt lat="47.26478" lon="-1.67243">
        <ele>117</ele>
        <time>2022-07-30T07:17:01Z</time>
      </trkpt>
      <trkpt lat="47.26485" lon="-1.67226">
        <ele>116</ele>
        <time>2022-07-30T07:17:03Z</time>
      </trkpt>
      <trkpt lat="47.26493" lon="-1.67207">
        <ele>116</ele>
        <time>2022-07-30T07:17:05Z</time>
      </trkpt>
      <trkpt lat="47.26503" lon="-1.67188">
        <ele>115</ele>
        <time>2022-07-30T07:17:07Z</time>
      </trkpt>
      <trkpt lat="47.26513" lon="-1.6717">
        <ele>114</ele>
        <time>2022-07-30T07:17:09Z</time>
      </trkpt>
      <trkpt lat="47.26526" lon="-1.67154">
        <ele>112</ele>
        <time>2022-07-30T07:17:11Z</time>
      </trkpt>
      <trkpt lat="47.26541" lon="-1.67139">
        <ele>111</ele>
        <time>2022-07-30T07:17:13Z</time>
      </trkpt>
      <trkpt lat="47.26556" lon="-1.67127">
        <ele>111</ele>
        <time>2022-07-30T07:17:15Z</time>
      </trkpt>
      <trkpt lat="47.26573" lon="-1.67115">
        <ele>110</ele>
        <time>2022-07-30T07:17:17Z</time>
      </trkpt>
      <trkpt lat="47.26581" lon="-1.67109">
        <ele>110</ele>
        <time>2022-07-30T07:17:18Z</time>
      </trkpt>
      <trkpt lat="47.26589" lon="-1.67102">
        <ele>110</ele>
        <time>2022-07-30T07:17:19Z</time>
      </trkpt>
      <trkpt lat="47.26597" lon="-1.67096">
        <ele>109</ele>
        <time>2022-07-30T07:17:20Z</time>
      </trkpt>
      <trkpt lat="47.26606" lon="-1.67091">
        <ele>108</ele>
        <time>2022-07-30T07:17:21Z</time>
      </trkpt>
      <trkpt lat="47.26615" lon="-1.67087">
        <ele>107</ele>
        <time>2022-07-30T07:17:22Z</time>
      </trkpt>
      <trkpt lat="47.26624" lon="-1.67081">
        <ele>107</ele>
        <time>2022-07-30T07:17:23Z</time>
      </trkpt>
      <trkpt lat="47.26633" lon="-1.67075">
        <ele>106</ele>
        <time>2022-07-30T07:17:24Z</time>
      </trkpt>
      <trkpt lat="47.26642" lon="-1.67069">
        <ele>105</ele>
        <time>2022-07-30T07:17:25Z</time>
      </trkpt>
      <trkpt lat="47.26651" lon="-1.67063">
        <ele>105</ele>
        <time>2022-07-30T07:17:26Z</time>
      </trkpt>
      <trkpt lat="47.26659" lon="-1.67057">
        <ele>104</ele>
        <time>2022-07-30T07:17:27Z</time>
      </trkpt>
      <trkpt lat="47.26668" lon="-1.67051">
        <ele>103</ele>
        <time>2022-07-30T07:17:28Z</time>
      </trkpt>
      <trkpt lat="47.26677" lon="-1.67044">
        <ele>102</ele>
        <time>2022-07-30T07:17:29Z</time>
      </trkpt>
      <trkpt lat="47.26686" lon="-1.67039">
        <ele>102</ele>
        <time>2022-07-30T07:17:30Z</time>
      </trkpt>
      <trkpt lat="47.26695" lon="-1.67033">
        <ele>102</ele>
        <time>2022-07-30T07:17:31Z</time>
      </trkpt>
      <trkpt lat="47.26704" lon="-1.67027">
        <ele>102</ele>
        <time>2022-07-30T07:17:32Z</time>
      </trkpt>
      <trkpt lat="47.26713" lon="-1.6702">
        <ele>102</ele>
        <time>2022-07-30T07:17:33Z</time>
      </trkpt>
      <trkpt lat="47.26722" lon="-1.67015">
        <ele>102</ele>
        <time>2022-07-30T07:17:34Z</time>
      </trkpt>
      <trkpt lat="47.26732" lon="-1.6701">
        <ele>102</ele>
        <time>2022-07-30T07:17:35Z</time>
      </trkpt>
      <trkpt lat="47.26741" lon="-1.67008">
        <ele>102</ele>
        <time>2022-07-30T07:17:36Z</time>
      </trkpt>
      <trkpt lat="47.26751" lon="-1.67009">
        <ele>101</ele>
        <time>2022-07-30T07:17:37Z</time>
      </trkpt>
      <trkpt lat="47.26761" lon="-1.67011">
        <ele>100</ele>
        <time>2022-07-30T07:17:38Z</time>
      </trkpt>
      <trkpt lat="47.26771" lon="-1.67016">
        <ele>99</ele>
        <time>2022-07-30T07:17:39Z</time>
      </trkpt>
      <trkpt lat="47.26779" lon="-1.67022">
        <ele>99</ele>
        <time>2022-07-30T07:17:40Z</time>
      </trkpt>
      <trkpt lat="47.26787" lon="-1.67031">
        <ele>98</ele>
        <time>2022-07-30T07:17:41Z</time>
      </trkpt>
      <trkpt lat="47.26795" lon="-1.6704">
        <ele>97</ele>
        <time>2022-07-30T07:17:42Z</time>
      </trkpt>
      <trkpt lat="47.26803" lon="-1.6705">
        <ele>96</ele>
        <time>2022-07-30T07:17:43Z</time>
      </trkpt>
      <trkpt lat="47.2681" lon="-1.6706">
        <ele>95</ele>
        <time>2022-07-30T07:17:44Z</time>
      </trkpt>
      <trkpt lat="47.26816" lon="-1.67071">
        <ele>95</ele>
        <time>2022-07-30T07:17:45Z</time>
      </trkpt>
      <trkpt lat="47.26821" lon="-1.67084">
        <ele>94</ele>
        <time>2022-07-30T07:17:46Z</time>
      </trkpt>
      <trkpt lat="47.26828" lon="-1.67094">
        <ele>94</ele>
        <time>2022-07-30T07:17:47Z</time>
      </trkpt>
      <trkpt lat="47.26837" lon="-1.67101">
        <ele>93</ele>
        <time>2022-07-30T07:17:48Z</time>
      </trkpt>
      <trkpt lat="47.26845" lon="-1.67109">
        <ele>93</ele>
        <time>2022-07-30T07:17:49Z</time>
      </trkpt>
      <trkpt lat="47.26852" lon="-1.6712">
        <ele>92</ele>
        <time>2022-07-30T07:17:50Z</time>
      </trkpt>
      <trkpt lat="47.26859" lon="-1.67129">
        <ele>92</ele>
        <time>2022-07-30T07:17:51Z</time>
      </trkpt>
      <trkpt lat="47.26866" lon="-1.67139">
        <ele>92</ele>
        <time>2022-07-30T07:17:52Z</time>
      </trkpt>
      <trkpt lat="47.26873" lon="-1.67149">
        <ele>91</ele>
        <time>2022-07-30T07:17:53Z</time>
      </trkpt>
      <trkpt lat="47.26889" lon="-1.67159">
        <ele>91</ele>
        <time>2022-07-30T07:17:55Z</time>
      </trkpt>
      <trkpt lat="47.26904" lon="-1.67162">
        <ele>91</ele>
        <time>2022-07-30T07:17:57Z</time>
      </trkpt>
      <trkpt lat="47.26918" lon="-1.67159">
        <ele>92</ele>
        <time>2022-07-30T07:17:59Z</time>
      </trkpt>
      <trkpt lat="47.2693" lon="-1.67153">
        <ele>92</ele>
        <time>2022-07-30T07:18:01Z</time>
      </trkpt>
      <trkpt lat="47.26942" lon="-1.67148">
        <ele>93</ele>
        <time>2022-07-30T07:18:03Z</time>
      </trkpt>
      <trkpt lat="47.26953" lon="-1.67144">
        <ele>94</ele>
        <time>2022-07-30T07:18:05Z</time>
      </trkpt>
      <trkpt lat="47.26964" lon="-1.67139">
        <ele>95</ele>
        <time>2022-07-30T07:18:07Z</time>
      </trkpt>
      <trkpt lat="47.26975" lon="-1.67135">
        <ele>96</ele>
        <time>2022-07-30T07:18:09Z</time>
      </trkpt>
      <trkpt lat="47.26985" lon="-1.67131">
        <ele>97</ele>
        <time>2022-07-30T07:18:11Z</time>
      </trkpt>
      <trkpt lat="47.26995" lon="-1.67127">
        <ele>98</ele>
        <time>2022-07-30T07:18:13Z</time>
      </trkpt>
      <trkpt lat="47.27005" lon="-1.67123">
        <ele>98</ele>
        <time>2022-07-30T07:18:15Z</time>
      </trkpt>
      <trkpt lat="47.27016" lon="-1.67121">
        <ele>99</ele>
        <time>2022-07-30T07:18:17Z</time>
      </trkpt>
      <trkpt lat="47.27026" lon="-1.67119">
        <ele>100</ele>
        <time>2022-07-30T07:18:19Z</time>
      </trkpt>
      <trkpt lat="47.27036" lon="-1.67117">
        <ele>100</ele>
        <time>2022-07-30T07:18:21Z</time>
      </trkpt>
      <trkpt lat="47.27047" lon="-1.67116">
        <ele>100</ele>
        <time>2022-07-30T07:18:23Z</time>
      </trkpt>
      <trkpt lat="47.27057" lon="-1.67116">
        <ele>101</ele>
        <time>2022-07-30T07:18:25Z</time>
      </trkpt>
      <trkpt lat="47.27068" lon="-1.67117">
        <ele>102</ele>
        <time>2022-07-30T07:18:27Z</time>
      </trkpt>
      <trkpt lat="47.27078" lon="-1.67118">
        <ele>102</ele>
        <time>2022-07-30T07:18:29Z</time>
      </trkpt>
      <trkpt lat="47.27089" lon="-1.6712">
        <ele>103</ele>
        <time>2022-07-30T07:18:31Z</time>
      </trkpt>
      <trkpt lat="47.27099" lon="-1.67123">
        <ele>105</ele>
        <time>2022-07-30T07:18:33Z</time>
      </trkpt>
      <trkpt lat="47.27109" lon="-1.67127">
        <ele>106</ele>
        <time>2022-07-30T07:18:35Z</time>
      </trkpt>
      <trkpt lat="47.27118" lon="-1.67131">
        <ele>107</ele>
        <time>2022-07-30T07:18:37Z</time>
      </trkpt>
      <trkpt lat="47.27128" lon="-1.67135">
        <ele>108</ele>
        <time>2022-07-30T07:18:39Z</time>
      </trkpt>
      <trkpt lat="47.27141" lon="-1.6714">
        <ele>109</ele>
        <time>2022-07-30T07:18:42Z</time>
      </trkpt>
      <trkpt lat="47.27151" lon="-1.67144">
        <ele>110</ele>
        <time>2022-07-30T07:18:44Z</time>
      </trkpt>
      <trkpt lat="47.27161" lon="-1.67149">
        <ele>111</ele>
        <time>2022-07-30T07:18:46Z</time>
      </trkpt>
      <trkpt lat="47.27172" lon="-1.67154">
        <ele>112</ele>
        <time>2022-07-30T07:18:48Z</time>
      </trkpt>
      <trkpt lat="47.27182" lon="-1.6716">
        <ele>111</ele>
        <time>2022-07-30T07:18:50Z</time>
      </trkpt>
      <trkpt lat="47.27192" lon="-1.67164">
        <ele>112</ele>
        <time>2022-07-30T07:18:52Z</time>
      </trkpt>
      <trkpt lat="47.27203" lon="-1.67168">
        <ele>112</ele>
        <time>2022-07-30T07:18:54Z</time>
      </trkpt>
      <trkpt lat="47.27213" lon="-1.67172">
        <ele>111</ele>
        <time>2022-07-30T07:18:56Z</time>
      </trkpt>
      <trkpt lat="47.27223" lon="-1.67176">
        <ele>111</ele>
        <time>2022-07-30T07:18:58Z</time>
      </trkpt>
      <trkpt lat="47.27233" lon="-1.6718">
        <ele>111</ele>
        <time>2022-07-30T07:19:00Z</time>
      </trkpt>
      <trkpt lat="47.27243" lon="-1.67184">
        <ele>112</ele>
        <time>2022-07-30T07:19:02Z</time>
      </trkpt>
      <trkpt lat="47.27253" lon="-1.67189">
        <ele>112</ele>
        <time>2022-07-30T07:19:04Z</time>
      </trkpt>
      <trkpt lat="47.27263" lon="-1.67193">
        <ele>113</ele>
        <time>2022-07-30T07:19:06Z</time>
      </trkpt>
      <trkpt lat="47.27274" lon="-1.67198">
        <ele>113</ele>
        <time>2022-07-30T07:19:08Z</time>
      </trkpt>
      <trkpt lat="47.27284" lon="-1.67202">
        <ele>113</ele>
        <time>2022-07-30T07:19:10Z</time>
      </trkpt>
      <trkpt lat="47.27294" lon="-1.67205">
        <ele>114</ele>
        <time>2022-07-30T07:19:12Z</time>
      </trkpt>
      <trkpt lat="47.27304" lon="-1.67209">
        <ele>114</ele>
        <time>2022-07-30T07:19:14Z</time>
      </trkpt>
      <trkpt lat="47.27314" lon="-1.67212">
        <ele>114</ele>
        <time>2022-07-30T07:19:16Z</time>
      </trkpt>
      <trkpt lat="47.27324" lon="-1.67213">
        <ele>115</ele>
        <time>2022-07-30T07:19:18Z</time>
      </trkpt>
      <trkpt lat="47.27335" lon="-1.67213">
        <ele>115</ele>
        <time>2022-07-30T07:19:20Z</time>
      </trkpt>
      <trkpt lat="47.27346" lon="-1.67213">
        <ele>115</ele>
        <time>2022-07-30T07:19:22Z</time>
      </trkpt>
      <trkpt lat="47.27356" lon="-1.67211">
        <ele>116</ele>
        <time>2022-07-30T07:19:24Z</time>
      </trkpt>
      <trkpt lat="47.27366" lon="-1.67207">
        <ele>116</ele>
        <time>2022-07-30T07:19:26Z</time>
      </trkpt>
      <trkpt lat="47.27376" lon="-1.67202">
        <ele>116</ele>
        <time>2022-07-30T07:19:28Z</time>
      </trkpt>
      <trkpt lat="47.27385" lon="-1.67196">
        <ele>116</ele>
        <time>2022-07-30T07:19:30Z</time>
      </trkpt>
      <trkpt lat="47.27395" lon="-1.67188">
        <ele>116</ele>
        <time>2022-07-30T07:19:32Z</time>
      </trkpt>
      <trkpt lat="47.27404" lon="-1.6718">
        <ele>116</ele>
        <time>2022-07-30T07:19:34Z</time>
      </trkpt>
      <trkpt lat="47.27414" lon="-1.67171">
        <ele>116</ele>
        <time>2022-07-30T07:19:36Z</time>
      </trkpt>
      <trkpt lat="47.27422" lon="-1.67163">
        <ele>117</ele>
        <time>2022-07-30T07:19:38Z</time>
      </trkpt>
      <trkpt lat="47.27431" lon="-1.67154">
        <ele>117</ele>
        <time>2022-07-30T07:19:40Z</time>
      </trkpt>
      <trkpt lat="47.2744" lon="-1.67145">
        <ele>116</ele>
        <time>2022-07-30T07:19:42Z</time>
      </trkpt>
      <trkpt lat="47.27449" lon="-1.67137">
        <ele>116</ele>
        <time>2022-07-30T07:19:44Z</time>
      </trkpt>
      <trkpt lat="47.27458" lon="-1.67128">
        <ele>116</ele>
        <time>2022-07-30T07:19:46Z</time>
      </trkpt>
      <trkpt lat="47.27468" lon="-1.67119">
        <ele>116</ele>
        <time>2022-07-30T07:19:48Z</time>
      </trkpt>
      <trkpt lat="47.27477" lon="-1.6711">
        <ele>115</ele>
        <time>2022-07-30T07:19:50Z</time>
      </trkpt>
      <trkpt lat="47.27487" lon="-1.67102">
        <ele>115</ele>
        <time>2022-07-30T07:19:52Z</time>
      </trkpt>
      <trkpt lat="47.27496" lon="-1.67093">
        <ele>115</ele>
        <time>2022-07-30T07:19:54Z</time>
      </trkpt>
      <trkpt lat="47.27505" lon="-1.67086">
        <ele>115</ele>
        <time>2022-07-30T07:19:56Z</time>
      </trkpt>
      <trkpt lat="47.27515" lon="-1.67079">
        <ele>115</ele>
        <time>2022-07-30T07:19:58Z</time>
      </trkpt>
      <trkpt lat="47.27525" lon="-1.67078">
        <ele>115</ele>
        <time>2022-07-30T07:20:00Z</time>
      </trkpt>
      <trkpt lat="47.27531" lon="-1.67091">
        <ele>115</ele>
        <time>2022-07-30T07:20:02Z</time>
      </trkpt>
      <trkpt lat="47.27534" lon="-1.67107">
        <ele>115</ele>
        <time>2022-07-30T07:20:04Z</time>
      </trkpt>
      <trkpt lat="47.27537" lon="-1.67123">
        <ele>115</ele>
        <time>2022-07-30T07:20:06Z</time>
      </trkpt>
      <trkpt lat="47.2754" lon="-1.67139">
        <ele>116</ele>
        <time>2022-07-30T07:20:08Z</time>
      </trkpt>
      <trkpt lat="47.27542" lon="-1.67155">
        <ele>116</ele>
        <time>2022-07-30T07:20:10Z</time>
      </trkpt>
      <trkpt lat="47.27545" lon="-1.6717">
        <ele>116</ele>
        <time>2022-07-30T07:20:12Z</time>
      </trkpt>
      <trkpt lat="47.27548" lon="-1.67185">
        <ele>117</ele>
        <time>2022-07-30T07:20:14Z</time>
      </trkpt>
      <trkpt lat="47.2755" lon="-1.67201">
        <ele>117</ele>
        <time>2022-07-30T07:20:16Z</time>
      </trkpt>
      <trkpt lat="47.27553" lon="-1.67216">
        <ele>117</ele>
        <time>2022-07-30T07:20:18Z</time>
      </trkpt>
      <trkpt lat="47.27556" lon="-1.67231">
        <ele>118</ele>
        <time>2022-07-30T07:20:20Z</time>
      </trkpt>
      <trkpt lat="47.27559" lon="-1.67246">
        <ele>118</ele>
        <time>2022-07-30T07:20:22Z</time>
      </trkpt>
      <trkpt lat="47.27562" lon="-1.67262">
        <ele>118</ele>
        <time>2022-07-30T07:20:24Z</time>
      </trkpt>
      <trkpt lat="47.27567" lon="-1.67277">
        <ele>118</ele>
        <time>2022-07-30T07:20:26Z</time>
      </trkpt>
      <trkpt lat="47.27573" lon="-1.6729">
        <ele>118</ele>
        <time>2022-07-30T07:20:28Z</time>
      </trkpt>
      <trkpt lat="47.2758" lon="-1.67303">
        <ele>118</ele>
        <time>2022-07-30T07:20:30Z</time>
      </trkpt>
      <trkpt lat="47.27589" lon="-1.67314">
        <ele>119</ele>
        <time>2022-07-30T07:20:32Z</time>
      </trkpt>
      <trkpt lat="47.27596" lon="-1.67326">
        <ele>120</ele>
        <time>2022-07-30T07:20:34Z</time>
      </trkpt>
      <trkpt lat="47.27605" lon="-1.67337">
        <ele>120</ele>
        <time>2022-07-30T07:20:36Z</time>
      </trkpt>
      <trkpt lat="47.27612" lon="-1.67348">
        <ele>120</ele>
        <time>2022-07-30T07:20:38Z</time>
      </trkpt>
      <trkpt lat="47.27621" lon="-1.6736">
        <ele>120</ele>
        <time>2022-07-30T07:20:40Z</time>
      </trkpt>
      <trkpt lat="47.27629" lon="-1.67372">
        <ele>120</ele>
        <time>2022-07-30T07:20:42Z</time>
      </trkpt>
      <trkpt lat="47.27639" lon="-1.67382">
        <ele>120</ele>
        <time>2022-07-30T07:20:44Z</time>
      </trkpt>
      <trkpt lat="47.2765" lon="-1.67391">
        <ele>120</ele>
        <time>2022-07-30T07:20:46Z</time>
      </trkpt>
      <trkpt lat="47.27661" lon="-1.67398">
        <ele>120</ele>
        <time>2022-07-30T07:20:48Z</time>
      </trkpt>
      <trkpt lat="47.27673" lon="-1.67404">
        <ele>120</ele>
        <time>2022-07-30T07:20:50Z</time>
      </trkpt>
      <trkpt lat="47.27686" lon="-1.67409">
        <ele>120</ele>
        <time>2022-07-30T07:20:52Z</time>
      </trkpt>
      <trkpt lat="47.277" lon="-1.67414">
        <ele>120</ele>
        <time>2022-07-30T07:20:54Z</time>
      </trkpt>
      <trkpt lat="47.27714" lon="-1.6742">
        <ele>120</ele>
        <time>2022-07-30T07:20:56Z</time>
      </trkpt>
      <trkpt lat="47.27728" lon="-1.67424">
        <ele>120</ele>
        <time>2022-07-30T07:20:58Z</time>
      </trkpt>
      <trkpt lat="47.27743" lon="-1.67426">
        <ele>121</ele>
        <time>2022-07-30T07:21:00Z</time>
      </trkpt>
      <trkpt lat="47.27757" lon="-1.67429">
        <ele>121</ele>
        <time>2022-07-30T07:21:02Z</time>
      </trkpt>
      <trkpt lat="47.27772" lon="-1.6743">
        <ele>121</ele>
        <time>2022-07-30T07:21:04Z</time>
      </trkpt>
      <trkpt lat="47.27787" lon="-1.67431">
        <ele>120</ele>
        <time>2022-07-30T07:21:06Z</time>
      </trkpt>
      <trkpt lat="47.27802" lon="-1.67431">
        <ele>119</ele>
        <time>2022-07-30T07:21:08Z</time>
      </trkpt>
      <trkpt lat="47.27818" lon="-1.67429">
        <ele>118</ele>
        <time>2022-07-30T07:21:10Z</time>
      </trkpt>
      <trkpt lat="47.27833" lon="-1.67429">
        <ele>117</ele>
        <time>2022-07-30T07:21:12Z</time>
      </trkpt>
      <trkpt lat="47.27849" lon="-1.67429">
        <ele>116</ele>
        <time>2022-07-30T07:21:14Z</time>
      </trkpt>
      <trkpt lat="47.27864" lon="-1.67428">
        <ele>116</ele>
        <time>2022-07-30T07:21:16Z</time>
      </trkpt>
      <trkpt lat="47.2788" lon="-1.67429">
        <ele>115</ele>
        <time>2022-07-30T07:21:18Z</time>
      </trkpt>
      <trkpt lat="47.27896" lon="-1.67429">
        <ele>114</ele>
        <time>2022-07-30T07:21:20Z</time>
      </trkpt>
      <trkpt lat="47.27912" lon="-1.67431">
        <ele>114</ele>
        <time>2022-07-30T07:21:22Z</time>
      </trkpt>
      <trkpt lat="47.27927" lon="-1.67434">
        <ele>114</ele>
        <time>2022-07-30T07:21:24Z</time>
      </trkpt>
      <trkpt lat="47.27943" lon="-1.67439">
        <ele>113</ele>
        <time>2022-07-30T07:21:26Z</time>
      </trkpt>
      <trkpt lat="47.27958" lon="-1.67444">
        <ele>113</ele>
        <time>2022-07-30T07:21:28Z</time>
      </trkpt>
      <trkpt lat="47.27972" lon="-1.6745">
        <ele>112</ele>
        <time>2022-07-30T07:21:30Z</time>
      </trkpt>
      <trkpt lat="47.27986" lon="-1.67457">
        <ele>112</ele>
        <time>2022-07-30T07:21:32Z</time>
      </trkpt>
      <trkpt lat="47.28" lon="-1.67464">
        <ele>112</ele>
        <time>2022-07-30T07:21:34Z</time>
      </trkpt>
      <trkpt lat="47.28012" lon="-1.67472">
        <ele>112</ele>
        <time>2022-07-30T07:21:36Z</time>
      </trkpt>
      <trkpt lat="47.28024" lon="-1.6748">
        <ele>113</ele>
        <time>2022-07-30T07:21:38Z</time>
      </trkpt>
      <trkpt lat="47.28035" lon="-1.67486">
        <ele>113</ele>
        <time>2022-07-30T07:21:40Z</time>
      </trkpt>
      <trkpt lat="47.28047" lon="-1.67492">
        <ele>113</ele>
        <time>2022-07-30T07:21:42Z</time>
      </trkpt>
      <trkpt lat="47.28058" lon="-1.67498">
        <ele>113</ele>
        <time>2022-07-30T07:21:44Z</time>
      </trkpt>
      <trkpt lat="47.28069" lon="-1.67504">
        <ele>114</ele>
        <time>2022-07-30T07:21:46Z</time>
      </trkpt>
      <trkpt lat="47.28081" lon="-1.67511">
        <ele>114</ele>
        <time>2022-07-30T07:21:48Z</time>
      </trkpt>
      <trkpt lat="47.28092" lon="-1.67518">
        <ele>114</ele>
        <time>2022-07-30T07:21:50Z</time>
      </trkpt>
      <trkpt lat="47.28103" lon="-1.67525">
        <ele>114</ele>
        <time>2022-07-30T07:21:52Z</time>
      </trkpt>
      <trkpt lat="47.28114" lon="-1.67531">
        <ele>114</ele>
        <time>2022-07-30T07:21:54Z</time>
      </trkpt>
      <trkpt lat="47.28126" lon="-1.67538">
        <ele>114</ele>
        <time>2022-07-30T07:21:56Z</time>
      </trkpt>
      <trkpt lat="47.28137" lon="-1.67545">
        <ele>114</ele>
        <time>2022-07-30T07:21:58Z</time>
      </trkpt>
      <trkpt lat="47.28149" lon="-1.67551">
        <ele>114</ele>
        <time>2022-07-30T07:22:00Z</time>
      </trkpt>
      <trkpt lat="47.2816" lon="-1.67558">
        <ele>114</ele>
        <time>2022-07-30T07:22:02Z</time>
      </trkpt>
      <trkpt lat="47.28171" lon="-1.67564">
        <ele>114</ele>
        <time>2022-07-30T07:22:04Z</time>
      </trkpt>
      <trkpt lat="47.28182" lon="-1.6757">
        <ele>115</ele>
        <time>2022-07-30T07:22:06Z</time>
      </trkpt>
      <trkpt lat="47.28193" lon="-1.67577">
        <ele>115</ele>
        <time>2022-07-30T07:22:08Z</time>
      </trkpt>
      <trkpt lat="47.28204" lon="-1.67583">
        <ele>115</ele>
        <time>2022-07-30T07:22:10Z</time>
      </trkpt>
      <trkpt lat="47.28214" lon="-1.6759">
        <ele>115</ele>
        <time>2022-07-30T07:22:12Z</time>
      </trkpt>
      <trkpt lat="47.28225" lon="-1.67598">
        <ele>115</ele>
        <time>2022-07-30T07:22:14Z</time>
      </trkpt>
      <trkpt lat="47.28236" lon="-1.67604">
        <ele>115</ele>
        <time>2022-07-30T07:22:16Z</time>
      </trkpt>
      <trkpt lat="47.28248" lon="-1.6761">
        <ele>114</ele>
        <time>2022-07-30T07:22:18Z</time>
      </trkpt>
      <trkpt lat="47.2826" lon="-1.67614">
        <ele>114</ele>
        <time>2022-07-30T07:22:20Z</time>
      </trkpt>
      <trkpt lat="47.28273" lon="-1.67616">
        <ele>114</ele>
        <time>2022-07-30T07:22:22Z</time>
      </trkpt>
      <trkpt lat="47.28287" lon="-1.67616">
        <ele>114</ele>
        <time>2022-07-30T07:22:24Z</time>
      </trkpt>
      <trkpt lat="47.283" lon="-1.67616">
        <ele>114</ele>
        <time>2022-07-30T07:22:26Z</time>
      </trkpt>
      <trkpt lat="47.28313" lon="-1.67613">
        <ele>113</ele>
        <time>2022-07-30T07:22:28Z</time>
      </trkpt>
      <trkpt lat="47.28326" lon="-1.6761">
        <ele>114</ele>
        <time>2022-07-30T07:22:30Z</time>
      </trkpt>
      <trkpt lat="47.2834" lon="-1.67608">
        <ele>113</ele>
        <time>2022-07-30T07:22:32Z</time>
      </trkpt>
      <trkpt lat="47.28353" lon="-1.67605">
        <ele>113</ele>
        <time>2022-07-30T07:22:34Z</time>
      </trkpt>
      <trkpt lat="47.28366" lon="-1.67604">
        <ele>113</ele>
        <time>2022-07-30T07:22:36Z</time>
      </trkpt>
      <trkpt lat="47.28379" lon="-1.67601">
        <ele>113</ele>
        <time>2022-07-30T07:22:38Z</time>
      </trkpt>
      <trkpt lat="47.28392" lon="-1.676">
        <ele>113</ele>
        <time>2022-07-30T07:22:40Z</time>
      </trkpt>
      <trkpt lat="47.28405" lon="-1.67598">
        <ele>112</ele>
        <time>2022-07-30T07:22:42Z</time>
      </trkpt>
      <trkpt lat="47.28418" lon="-1.67598">
        <ele>112</ele>
        <time>2022-07-30T07:22:44Z</time>
      </trkpt>
      <trkpt lat="47.2843" lon="-1.67597">
        <ele>113</ele>
        <time>2022-07-30T07:22:46Z</time>
      </trkpt>
      <trkpt lat="47.28443" lon="-1.67599">
        <ele>113</ele>
        <time>2022-07-30T07:22:48Z</time>
      </trkpt>
      <trkpt lat="47.28456" lon="-1.67602">
        <ele>113</ele>
        <time>2022-07-30T07:22:50Z</time>
      </trkpt>
      <trkpt lat="47.28469" lon="-1.67606">
        <ele>113</ele>
        <time>2022-07-30T07:22:52Z</time>
      </trkpt>
      <trkpt lat="47.28481" lon="-1.6761">
        <ele>114</ele>
        <time>2022-07-30T07:22:54Z</time>
      </trkpt>
      <trkpt lat="47.28493" lon="-1.67615">
        <ele>114</ele>
        <time>2022-07-30T07:22:56Z</time>
      </trkpt>
      <trkpt lat="47.28506" lon="-1.67618">
        <ele>114</ele>
        <time>2022-07-30T07:22:58Z</time>
      </trkpt>
      <trkpt lat="47.28518" lon="-1.6762">
        <ele>114</ele>
        <time>2022-07-30T07:23:00Z</time>
      </trkpt>
      <trkpt lat="47.28531" lon="-1.67621">
        <ele>114</ele>
        <time>2022-07-30T07:23:02Z</time>
      </trkpt>
      <trkpt lat="47.28543" lon="-1.67618">
        <ele>114</ele>
        <time>2022-07-30T07:23:04Z</time>
      </trkpt>
      <trkpt lat="47.28555" lon="-1.67612">
        <ele>114</ele>
        <time>2022-07-30T07:23:06Z</time>
      </trkpt>
      <trkpt lat="47.28568" lon="-1.67605">
        <ele>114</ele>
        <time>2022-07-30T07:23:08Z</time>
      </trkpt>
      <trkpt lat="47.28581" lon="-1.67598">
        <ele>113</ele>
        <time>2022-07-30T07:23:10Z</time>
      </trkpt>
      <trkpt lat="47.28594" lon="-1.6759">
        <ele>113</ele>
        <time>2022-07-30T07:23:12Z</time>
      </trkpt>
      <trkpt lat="47.28608" lon="-1.67583">
        <ele>112</ele>
        <time>2022-07-30T07:23:14Z</time>
      </trkpt>
      <trkpt lat="47.28621" lon="-1.67578">
        <ele>112</ele>
        <time>2022-07-30T07:23:16Z</time>
      </trkpt>
      <trkpt lat="47.28635" lon="-1.67574">
        <ele>112</ele>
        <time>2022-07-30T07:23:18Z</time>
      </trkpt>
      <trkpt lat="47.28649" lon="-1.67575">
        <ele>111</ele>
        <time>2022-07-30T07:23:20Z</time>
      </trkpt>
      <trkpt lat="47.28663" lon="-1.67579">
        <ele>111</ele>
        <time>2022-07-30T07:23:22Z</time>
      </trkpt>
      <trkpt lat="47.28677" lon="-1.67587">
        <ele>110</ele>
        <time>2022-07-30T07:23:24Z</time>
      </trkpt>
      <trkpt lat="47.2869" lon="-1.67595">
        <ele>109</ele>
        <time>2022-07-30T07:23:26Z</time>
      </trkpt>
      <trkpt lat="47.28702" lon="-1.67603">
        <ele>109</ele>
        <time>2022-07-30T07:23:28Z</time>
      </trkpt>
      <trkpt lat="47.28715" lon="-1.67611">
        <ele>109</ele>
        <time>2022-07-30T07:23:30Z</time>
      </trkpt>
      <trkpt lat="47.28728" lon="-1.67619">
        <ele>109</ele>
        <time>2022-07-30T07:23:32Z</time>
      </trkpt>
      <trkpt lat="47.28738" lon="-1.67626">
        <ele>110</ele>
        <time>2022-07-30T07:23:34Z</time>
      </trkpt>
      <trkpt lat="47.28747" lon="-1.67628">
        <ele>110</ele>
        <time>2022-07-30T07:23:36Z</time>
      </trkpt>
      <trkpt lat="47.28756" lon="-1.67614">
        <ele>110</ele>
        <time>2022-07-30T07:23:39Z</time>
      </trkpt>
      <trkpt lat="47.2876" lon="-1.67598">
        <ele>110</ele>
        <time>2022-07-30T07:23:41Z</time>
      </trkpt>
      <trkpt lat="47.28765" lon="-1.6758">
        <ele>111</ele>
        <time>2022-07-30T07:23:43Z</time>
      </trkpt>
      <trkpt lat="47.28769" lon="-1.67562">
        <ele>110</ele>
        <time>2022-07-30T07:23:45Z</time>
      </trkpt>
      <trkpt lat="47.28773" lon="-1.67544">
        <ele>110</ele>
        <time>2022-07-30T07:23:47Z</time>
      </trkpt>
      <trkpt lat="47.28778" lon="-1.67526">
        <ele>111</ele>
        <time>2022-07-30T07:23:49Z</time>
      </trkpt>
      <trkpt lat="47.28782" lon="-1.67508">
        <ele>111</ele>
        <time>2022-07-30T07:23:51Z</time>
      </trkpt>
      <trkpt lat="47.28787" lon="-1.67491">
        <ele>111</ele>
        <time>2022-07-30T07:23:53Z</time>
      </trkpt>
      <trkpt lat="47.28794" lon="-1.67466">
        <ele>112</ele>
        <time>2022-07-30T07:23:56Z</time>
      </trkpt>
      <trkpt lat="47.28799" lon="-1.6745">
        <ele>112</ele>
        <time>2022-07-30T07:23:58Z</time>
      </trkpt>
      <trkpt lat="47.28804" lon="-1.67433">
        <ele>112</ele>
        <time>2022-07-30T07:24:00Z</time>
      </trkpt>
      <trkpt lat="47.28809" lon="-1.67417">
        <ele>112</ele>
        <time>2022-07-30T07:24:02Z</time>
      </trkpt>
      <trkpt lat="47.28815" lon="-1.67402">
        <ele>113</ele>
        <time>2022-07-30T07:24:04Z</time>
      </trkpt>
      <trkpt lat="47.28821" lon="-1.67386">
        <ele>113</ele>
        <time>2022-07-30T07:24:06Z</time>
      </trkpt>
      <trkpt lat="47.28826" lon="-1.67371">
        <ele>113</ele>
        <time>2022-07-30T07:24:08Z</time>
      </trkpt>
      <trkpt lat="47.28837" lon="-1.67352">
        <ele>113</ele>
        <time>2022-07-30T07:24:11Z</time>
      </trkpt>
      <trkpt lat="47.28851" lon="-1.67339">
        <ele>114</ele>
        <time>2022-07-30T07:24:14Z</time>
      </trkpt>
      <trkpt lat="47.28861" lon="-1.67335">
        <ele>115</ele>
        <time>2022-07-30T07:24:16Z</time>
      </trkpt>
      <trkpt lat="47.28872" lon="-1.67333">
        <ele>115</ele>
        <time>2022-07-30T07:24:18Z</time>
      </trkpt>
      <trkpt lat="47.28889" lon="-1.67331">
        <ele>115</ele>
        <time>2022-07-30T07:24:21Z</time>
      </trkpt>
      <trkpt lat="47.289" lon="-1.6733">
        <ele>115</ele>
        <time>2022-07-30T07:24:23Z</time>
      </trkpt>
      <trkpt lat="47.28911" lon="-1.67331">
        <ele>116</ele>
        <time>2022-07-30T07:24:25Z</time>
      </trkpt>
      <trkpt lat="47.28922" lon="-1.67332">
        <ele>116</ele>
        <time>2022-07-30T07:24:27Z</time>
      </trkpt>
      <trkpt lat="47.28933" lon="-1.67335">
        <ele>116</ele>
        <time>2022-07-30T07:24:29Z</time>
      </trkpt>
      <trkpt lat="47.28944" lon="-1.6734">
        <ele>116</ele>
        <time>2022-07-30T07:24:31Z</time>
      </trkpt>
      <trkpt lat="47.28954" lon="-1.67345">
        <ele>116</ele>
        <time>2022-07-30T07:24:33Z</time>
      </trkpt>
      <trkpt lat="47.28966" lon="-1.6735">
        <ele>116</ele>
        <time>2022-07-30T07:24:35Z</time>
      </trkpt>
      <trkpt lat="47.28978" lon="-1.67354">
        <ele>116</ele>
        <time>2022-07-30T07:24:37Z</time>
      </trkpt>
      <trkpt lat="47.2899" lon="-1.67356">
        <ele>116</ele>
        <time>2022-07-30T07:24:39Z</time>
      </trkpt>
      <trkpt lat="47.29001" lon="-1.67354">
        <ele>116</ele>
        <time>2022-07-30T07:24:41Z</time>
      </trkpt>
      <trkpt lat="47.29012" lon="-1.6735">
        <ele>116</ele>
        <time>2022-07-30T07:24:43Z</time>
      </trkpt>
      <trkpt lat="47.29023" lon="-1.67347">
        <ele>116</ele>
        <time>2022-07-30T07:24:45Z</time>
      </trkpt>
      <trkpt lat="47.29034" lon="-1.67343">
        <ele>116</ele>
        <time>2022-07-30T07:24:47Z</time>
      </trkpt>
      <trkpt lat="47.29046" lon="-1.67339">
        <ele>116</ele>
        <time>2022-07-30T07:24:49Z</time>
      </trkpt>
      <trkpt lat="47.29057" lon="-1.67334">
        <ele>116</ele>
        <time>2022-07-30T07:24:51Z</time>
      </trkpt>
      <trkpt lat="47.29068" lon="-1.67331">
        <ele>117</ele>
        <time>2022-07-30T07:24:53Z</time>
      </trkpt>
      <trkpt lat="47.29079" lon="-1.67327">
        <ele>117</ele>
        <time>2022-07-30T07:24:55Z</time>
      </trkpt>
      <trkpt lat="47.2909" lon="-1.67322">
        <ele>117</ele>
        <time>2022-07-30T07:24:57Z</time>
      </trkpt>
      <trkpt lat="47.29101" lon="-1.67318">
        <ele>118</ele>
        <time>2022-07-30T07:24:59Z</time>
      </trkpt>
      <trkpt lat="47.29113" lon="-1.67315">
        <ele>118</ele>
        <time>2022-07-30T07:25:01Z</time>
      </trkpt>
      <trkpt lat="47.29124" lon="-1.67313">
        <ele>118</ele>
        <time>2022-07-30T07:25:03Z</time>
      </trkpt>
      <trkpt lat="47.29135" lon="-1.67311">
        <ele>119</ele>
        <time>2022-07-30T07:25:05Z</time>
      </trkpt>
      <trkpt lat="47.29146" lon="-1.67312">
        <ele>119</ele>
        <time>2022-07-30T07:25:07Z</time>
      </trkpt>
      <trkpt lat="47.29156" lon="-1.67314">
        <ele>120</ele>
        <time>2022-07-30T07:25:09Z</time>
      </trkpt>
      <trkpt lat="47.29166" lon="-1.67317">
        <ele>121</ele>
        <time>2022-07-30T07:25:11Z</time>
      </trkpt>
      <trkpt lat="47.29175" lon="-1.6732">
        <ele>122</ele>
        <time>2022-07-30T07:25:13Z</time>
      </trkpt>
      <trkpt lat="47.29185" lon="-1.67322">
        <ele>123</ele>
        <time>2022-07-30T07:25:15Z</time>
      </trkpt>
      <trkpt lat="47.29194" lon="-1.67325">
        <ele>124</ele>
        <time>2022-07-30T07:25:17Z</time>
      </trkpt>
      <trkpt lat="47.29205" lon="-1.67326">
        <ele>125</ele>
        <time>2022-07-30T07:25:19Z</time>
      </trkpt>
      <trkpt lat="47.29216" lon="-1.67328">
        <ele>125</ele>
        <time>2022-07-30T07:25:21Z</time>
      </trkpt>
      <trkpt lat="47.29226" lon="-1.67327">
        <ele>125</ele>
        <time>2022-07-30T07:25:23Z</time>
      </trkpt>
      <trkpt lat="47.29238" lon="-1.67326">
        <ele>125</ele>
        <time>2022-07-30T07:25:25Z</time>
      </trkpt>
      <trkpt lat="47.29249" lon="-1.67324">
        <ele>125</ele>
        <time>2022-07-30T07:25:27Z</time>
      </trkpt>
      <trkpt lat="47.29259" lon="-1.67322">
        <ele>124</ele>
        <time>2022-07-30T07:25:29Z</time>
      </trkpt>
      <trkpt lat="47.29269" lon="-1.67317">
        <ele>124</ele>
        <time>2022-07-30T07:25:31Z</time>
      </trkpt>
      <trkpt lat="47.29279" lon="-1.67308">
        <ele>124</ele>
        <time>2022-07-30T07:25:33Z</time>
      </trkpt>
      <trkpt lat="47.29288" lon="-1.67298">
        <ele>124</ele>
        <time>2022-07-30T07:25:35Z</time>
      </trkpt>
      <trkpt lat="47.29295" lon="-1.67286">
        <ele>124</ele>
        <time>2022-07-30T07:25:37Z</time>
      </trkpt>
      <trkpt lat="47.29301" lon="-1.67272">
        <ele>124</ele>
        <time>2022-07-30T07:25:39Z</time>
      </trkpt>
      <trkpt lat="47.29308" lon="-1.67259">
        <ele>124</ele>
        <time>2022-07-30T07:25:41Z</time>
      </trkpt>
      <trkpt lat="47.29315" lon="-1.67245">
        <ele>123</ele>
        <time>2022-07-30T07:25:43Z</time>
      </trkpt>
      <trkpt lat="47.29322" lon="-1.67231">
        <ele>123</ele>
        <time>2022-07-30T07:25:45Z</time>
      </trkpt>
      <trkpt lat="47.29329" lon="-1.67217">
        <ele>123</ele>
        <time>2022-07-30T07:25:47Z</time>
      </trkpt>
      <trkpt lat="47.29336" lon="-1.67203">
        <ele>123</ele>
        <time>2022-07-30T07:25:49Z</time>
      </trkpt>
      <trkpt lat="47.29343" lon="-1.6719">
        <ele>123</ele>
        <time>2022-07-30T07:25:51Z</time>
      </trkpt>
      <trkpt lat="47.2935" lon="-1.67176">
        <ele>124</ele>
        <time>2022-07-30T07:25:53Z</time>
      </trkpt>
      <trkpt lat="47.29357" lon="-1.67161">
        <ele>124</ele>
        <time>2022-07-30T07:25:55Z</time>
      </trkpt>
      <trkpt lat="47.29364" lon="-1.67147">
        <ele>124</ele>
        <time>2022-07-30T07:25:57Z</time>
      </trkpt>
      <trkpt lat="47.29371" lon="-1.67133">
        <ele>124</ele>
        <time>2022-07-30T07:25:59Z</time>
      </trkpt>
      <trkpt lat="47.29378" lon="-1.67119">
        <ele>123</ele>
        <time>2022-07-30T07:26:01Z</time>
      </trkpt>
      <trkpt lat="47.29385" lon="-1.67104">
        <ele>123</ele>
        <time>2022-07-30T07:26:03Z</time>
      </trkpt>
      <trkpt lat="47.29393" lon="-1.6709">
        <ele>123</ele>
        <time>2022-07-30T07:26:05Z</time>
      </trkpt>
      <trkpt lat="47.294" lon="-1.67075">
        <ele>123</ele>
        <time>2022-07-30T07:26:07Z</time>
      </trkpt>
      <trkpt lat="47.29407" lon="-1.67061">
        <ele>123</ele>
        <time>2022-07-30T07:26:09Z</time>
      </trkpt>
      <trkpt lat="47.29414" lon="-1.67048">
        <ele>123</ele>
        <time>2022-07-30T07:26:11Z</time>
      </trkpt>
      <trkpt lat="47.29421" lon="-1.67033">
        <ele>123</ele>
        <time>2022-07-30T07:26:13Z</time>
      </trkpt>
      <trkpt lat="47.29427" lon="-1.67019">
        <ele>123</ele>
        <time>2022-07-30T07:26:15Z</time>
      </trkpt>
      <trkpt lat="47.29435" lon="-1.67006">
        <ele>123</ele>
        <time>2022-07-30T07:26:17Z</time>
      </trkpt>
      <trkpt lat="47.29444" lon="-1.66994">
        <ele>123</ele>
        <time>2022-07-30T07:26:19Z</time>
      </trkpt>
      <trkpt lat="47.29454" lon="-1.66983">
        <ele>123</ele>
        <time>2022-07-30T07:26:21Z</time>
      </trkpt>
      <trkpt lat="47.29464" lon="-1.66973">
        <ele>123</ele>
        <time>2022-07-30T07:26:23Z</time>
      </trkpt>
      <trkpt lat="47.29475" lon="-1.66966">
        <ele>123</ele>
        <time>2022-07-30T07:26:25Z</time>
      </trkpt>
      <trkpt lat="47.29487" lon="-1.66959">
        <ele>123</ele>
        <time>2022-07-30T07:26:27Z</time>
      </trkpt>
      <trkpt lat="47.29498" lon="-1.66952">
        <ele>123</ele>
        <time>2022-07-30T07:26:29Z</time>
      </trkpt>
      <trkpt lat="47.2951" lon="-1.66946">
        <ele>123</ele>
        <time>2022-07-30T07:26:31Z</time>
      </trkpt>
      <trkpt lat="47.29522" lon="-1.66939">
        <ele>123</ele>
        <time>2022-07-30T07:26:33Z</time>
      </trkpt>
      <trkpt lat="47.29533" lon="-1.66932">
        <ele>123</ele>
        <time>2022-07-30T07:26:35Z</time>
      </trkpt>
      <trkpt lat="47.29546" lon="-1.66925">
        <ele>123</ele>
        <time>2022-07-30T07:26:37Z</time>
      </trkpt>
      <trkpt lat="47.29559" lon="-1.66918">
        <ele>122</ele>
        <time>2022-07-30T07:26:39Z</time>
      </trkpt>
      <trkpt lat="47.29571" lon="-1.66912">
        <ele>122</ele>
        <time>2022-07-30T07:26:41Z</time>
      </trkpt>
      <trkpt lat="47.29585" lon="-1.66904">
        <ele>122</ele>
        <time>2022-07-30T07:26:43Z</time>
      </trkpt>
      <trkpt lat="47.29599" lon="-1.66896">
        <ele>121</ele>
        <time>2022-07-30T07:26:45Z</time>
      </trkpt>
      <trkpt lat="47.29613" lon="-1.66888">
        <ele>121</ele>
        <time>2022-07-30T07:26:47Z</time>
      </trkpt>
      <trkpt lat="47.29627" lon="-1.6688">
        <ele>121</ele>
        <time>2022-07-30T07:26:49Z</time>
      </trkpt>
      <trkpt lat="47.29641" lon="-1.66872">
        <ele>120</ele>
        <time>2022-07-30T07:26:51Z</time>
      </trkpt>
      <trkpt lat="47.29654" lon="-1.6686">
        <ele>119</ele>
        <time>2022-07-30T07:26:53Z</time>
      </trkpt>
      <trkpt lat="47.29666" lon="-1.66847">
        <ele>119</ele>
        <time>2022-07-30T07:26:55Z</time>
      </trkpt>
      <trkpt lat="47.29678" lon="-1.66832">
        <ele>120</ele>
        <time>2022-07-30T07:26:57Z</time>
      </trkpt>
      <trkpt lat="47.29687" lon="-1.66816">
        <ele>120</ele>
        <time>2022-07-30T07:26:59Z</time>
      </trkpt>
      <trkpt lat="47.29697" lon="-1.668">
        <ele>121</ele>
        <time>2022-07-30T07:27:01Z</time>
      </trkpt>
      <trkpt lat="47.29706" lon="-1.66784">
        <ele>121</ele>
        <time>2022-07-30T07:27:03Z</time>
      </trkpt>
      <trkpt lat="47.29716" lon="-1.66768">
        <ele>121</ele>
        <time>2022-07-30T07:27:05Z</time>
      </trkpt>
      <trkpt lat="47.29725" lon="-1.66752">
        <ele>121</ele>
        <time>2022-07-30T07:27:07Z</time>
      </trkpt>
      <trkpt lat="47.29734" lon="-1.66737">
        <ele>121</ele>
        <time>2022-07-30T07:27:09Z</time>
      </trkpt>
      <trkpt lat="47.29744" lon="-1.66722">
        <ele>121</ele>
        <time>2022-07-30T07:27:11Z</time>
      </trkpt>
      <trkpt lat="47.29753" lon="-1.66707">
        <ele>121</ele>
        <time>2022-07-30T07:27:13Z</time>
      </trkpt>
      <trkpt lat="47.29764" lon="-1.66694">
        <ele>121</ele>
        <time>2022-07-30T07:27:15Z</time>
      </trkpt>
      <trkpt lat="47.29775" lon="-1.6668">
        <ele>120</ele>
        <time>2022-07-30T07:27:17Z</time>
      </trkpt>
      <trkpt lat="47.29785" lon="-1.66668">
        <ele>120</ele>
        <time>2022-07-30T07:27:19Z</time>
      </trkpt>
      <trkpt lat="47.29796" lon="-1.66657">
        <ele>120</ele>
        <time>2022-07-30T07:27:21Z</time>
      </trkpt>
      <trkpt lat="47.29806" lon="-1.66646">
        <ele>120</ele>
        <time>2022-07-30T07:27:23Z</time>
      </trkpt>
      <trkpt lat="47.29816" lon="-1.66636">
        <ele>121</ele>
        <time>2022-07-30T07:27:25Z</time>
      </trkpt>
      <trkpt lat="47.29827" lon="-1.66625">
        <ele>121</ele>
        <time>2022-07-30T07:27:27Z</time>
      </trkpt>
      <trkpt lat="47.29837" lon="-1.66615">
        <ele>121</ele>
        <time>2022-07-30T07:27:29Z</time>
      </trkpt>
      <trkpt lat="47.29847" lon="-1.66603">
        <ele>121</ele>
        <time>2022-07-30T07:27:31Z</time>
      </trkpt>
      <trkpt lat="47.29856" lon="-1.66591">
        <ele>122</ele>
        <time>2022-07-30T07:27:33Z</time>
      </trkpt>
      <trkpt lat="47.29866" lon="-1.66579">
        <ele>121</ele>
        <time>2022-07-30T07:27:35Z</time>
      </trkpt>
      <trkpt lat="47.29874" lon="-1.66565">
        <ele>121</ele>
        <time>2022-07-30T07:27:37Z</time>
      </trkpt>
      <trkpt lat="47.29883" lon="-1.66552">
        <ele>121</ele>
        <time>2022-07-30T07:27:39Z</time>
      </trkpt>
      <trkpt lat="47.29891" lon="-1.66538">
        <ele>121</ele>
        <time>2022-07-30T07:27:41Z</time>
      </trkpt>
      <trkpt lat="47.29899" lon="-1.66524">
        <ele>121</ele>
        <time>2022-07-30T07:27:43Z</time>
      </trkpt>
      <trkpt lat="47.29907" lon="-1.66511">
        <ele>122</ele>
        <time>2022-07-30T07:27:45Z</time>
      </trkpt>
      <trkpt lat="47.29914" lon="-1.66499">
        <ele>122</ele>
        <time>2022-07-30T07:27:47Z</time>
      </trkpt>
      <trkpt lat="47.29922" lon="-1.66487">
        <ele>122</ele>
        <time>2022-07-30T07:27:49Z</time>
      </trkpt>
      <trkpt lat="47.29929" lon="-1.66475">
        <ele>122</ele>
        <time>2022-07-30T07:27:51Z</time>
      </trkpt>
      <trkpt lat="47.29935" lon="-1.66465">
        <ele>122</ele>
        <time>2022-07-30T07:27:53Z</time>
      </trkpt>
      <trkpt lat="47.29943" lon="-1.66451">
        <ele>121</ele>
        <time>2022-07-30T07:27:56Z</time>
      </trkpt>
      <trkpt lat="47.29952" lon="-1.66438">
        <ele>121</ele>
        <time>2022-07-30T07:28:00Z</time>
      </trkpt>
      <trkpt lat="47.29961" lon="-1.66426">
        <ele>121</ele>
        <time>2022-07-30T07:28:02Z</time>
      </trkpt>
      <trkpt lat="47.29969" lon="-1.66414">
        <ele>121</ele>
        <time>2022-07-30T07:28:04Z</time>
      </trkpt>
      <trkpt lat="47.29978" lon="-1.66399">
        <ele>121</ele>
        <time>2022-07-30T07:28:06Z</time>
      </trkpt>
      <trkpt lat="47.29987" lon="-1.66384">
        <ele>121</ele>
        <time>2022-07-30T07:28:08Z</time>
      </trkpt>
      <trkpt lat="47.29997" lon="-1.66369">
        <ele>120</ele>
        <time>2022-07-30T07:28:10Z</time>
      </trkpt>
      <trkpt lat="47.30007" lon="-1.66354">
        <ele>120</ele>
        <time>2022-07-30T07:28:12Z</time>
      </trkpt>
      <trkpt lat="47.30016" lon="-1.66339">
        <ele>120</ele>
        <time>2022-07-30T07:28:14Z</time>
      </trkpt>
      <trkpt lat="47.30025" lon="-1.66324">
        <ele>120</ele>
        <time>2022-07-30T07:28:16Z</time>
      </trkpt>
      <trkpt lat="47.30035" lon="-1.6631">
        <ele>120</ele>
        <time>2022-07-30T07:28:18Z</time>
      </trkpt>
      <trkpt lat="47.30044" lon="-1.66295">
        <ele>119</ele>
        <time>2022-07-30T07:28:20Z</time>
      </trkpt>
      <trkpt lat="47.30053" lon="-1.66281">
        <ele>119</ele>
        <time>2022-07-30T07:28:22Z</time>
      </trkpt>
      <trkpt lat="47.30062" lon="-1.66267">
        <ele>119</ele>
        <time>2022-07-30T07:28:24Z</time>
      </trkpt>
      <trkpt lat="47.30072" lon="-1.66253">
        <ele>119</ele>
        <time>2022-07-30T07:28:26Z</time>
      </trkpt>
      <trkpt lat="47.3008" lon="-1.66238">
        <ele>119</ele>
        <time>2022-07-30T07:28:28Z</time>
      </trkpt>
      <trkpt lat="47.30089" lon="-1.66224">
        <ele>119</ele>
        <time>2022-07-30T07:28:30Z</time>
      </trkpt>
      <trkpt lat="47.30099" lon="-1.66211">
        <ele>120</ele>
        <time>2022-07-30T07:28:32Z</time>
      </trkpt>
      <trkpt lat="47.30108" lon="-1.66199">
        <ele>120</ele>
        <time>2022-07-30T07:28:34Z</time>
      </trkpt>
      <trkpt lat="47.30119" lon="-1.66187">
        <ele>120</ele>
        <time>2022-07-30T07:28:36Z</time>
      </trkpt>
      <trkpt lat="47.30128" lon="-1.66175">
        <ele>120</ele>
        <time>2022-07-30T07:28:38Z</time>
      </trkpt>
      <trkpt lat="47.30138" lon="-1.66165">
        <ele>120</ele>
        <time>2022-07-30T07:28:40Z</time>
      </trkpt>
      <trkpt lat="47.30148" lon="-1.66155">
        <ele>120</ele>
        <time>2022-07-30T07:28:42Z</time>
      </trkpt>
      <trkpt lat="47.30158" lon="-1.66144">
        <ele>121</ele>
        <time>2022-07-30T07:28:44Z</time>
      </trkpt>
      <trkpt lat="47.30168" lon="-1.66134">
        <ele>121</ele>
        <time>2022-07-30T07:28:46Z</time>
      </trkpt>
      <trkpt lat="47.30178" lon="-1.66125">
        <ele>122</ele>
        <time>2022-07-30T07:28:48Z</time>
      </trkpt>
      <trkpt lat="47.30187" lon="-1.66114">
        <ele>122</ele>
        <time>2022-07-30T07:28:50Z</time>
      </trkpt>
      <trkpt lat="47.30197" lon="-1.66104">
        <ele>121</ele>
        <time>2022-07-30T07:28:52Z</time>
      </trkpt>
      <trkpt lat="47.30207" lon="-1.66093">
        <ele>121</ele>
        <time>2022-07-30T07:28:54Z</time>
      </trkpt>
      <trkpt lat="47.30216" lon="-1.66083">
        <ele>121</ele>
        <time>2022-07-30T07:28:56Z</time>
      </trkpt>
      <trkpt lat="47.30226" lon="-1.66072">
        <ele>121</ele>
        <time>2022-07-30T07:28:58Z</time>
      </trkpt>
      <trkpt lat="47.30236" lon="-1.66062">
        <ele>121</ele>
        <time>2022-07-30T07:29:00Z</time>
      </trkpt>
      <trkpt lat="47.30246" lon="-1.66052">
        <ele>121</ele>
        <time>2022-07-30T07:29:02Z</time>
      </trkpt>
      <trkpt lat="47.30256" lon="-1.66041">
        <ele>121</ele>
        <time>2022-07-30T07:29:04Z</time>
      </trkpt>
      <trkpt lat="47.30267" lon="-1.6603">
        <ele>121</ele>
        <time>2022-07-30T07:29:06Z</time>
      </trkpt>
      <trkpt lat="47.30277" lon="-1.66019">
        <ele>121</ele>
        <time>2022-07-30T07:29:08Z</time>
      </trkpt>
      <trkpt lat="47.30288" lon="-1.66008">
        <ele>120</ele>
        <time>2022-07-30T07:29:10Z</time>
      </trkpt>
      <trkpt lat="47.30298" lon="-1.65997">
        <ele>120</ele>
        <time>2022-07-30T07:29:12Z</time>
      </trkpt>
      <trkpt lat="47.30309" lon="-1.65986">
        <ele>120</ele>
        <time>2022-07-30T07:29:14Z</time>
      </trkpt>
      <trkpt lat="47.30319" lon="-1.65975">
        <ele>121</ele>
        <time>2022-07-30T07:29:16Z</time>
      </trkpt>
      <trkpt lat="47.3033" lon="-1.65964">
        <ele>121</ele>
        <time>2022-07-30T07:29:18Z</time>
      </trkpt>
      <trkpt lat="47.3034" lon="-1.65953">
        <ele>121</ele>
        <time>2022-07-30T07:29:20Z</time>
      </trkpt>
      <trkpt lat="47.30351" lon="-1.65942">
        <ele>120</ele>
        <time>2022-07-30T07:29:22Z</time>
      </trkpt>
      <trkpt lat="47.30362" lon="-1.65931">
        <ele>120</ele>
        <time>2022-07-30T07:29:24Z</time>
      </trkpt>
      <trkpt lat="47.30372" lon="-1.6592">
        <ele>121</ele>
        <time>2022-07-30T07:29:26Z</time>
      </trkpt>
      <trkpt lat="47.30383" lon="-1.65909">
        <ele>121</ele>
        <time>2022-07-30T07:29:28Z</time>
      </trkpt>
      <trkpt lat="47.30393" lon="-1.65898">
        <ele>121</ele>
        <time>2022-07-30T07:29:30Z</time>
      </trkpt>
      <trkpt lat="47.30404" lon="-1.65887">
        <ele>121</ele>
        <time>2022-07-30T07:29:32Z</time>
      </trkpt>
      <trkpt lat="47.30414" lon="-1.65877">
        <ele>121</ele>
        <time>2022-07-30T07:29:34Z</time>
      </trkpt>
      <trkpt lat="47.30424" lon="-1.65866">
        <ele>122</ele>
        <time>2022-07-30T07:29:36Z</time>
      </trkpt>
      <trkpt lat="47.30434" lon="-1.65856">
        <ele>122</ele>
        <time>2022-07-30T07:29:38Z</time>
      </trkpt>
      <trkpt lat="47.30444" lon="-1.65845">
        <ele>122</ele>
        <time>2022-07-30T07:29:40Z</time>
      </trkpt>
      <trkpt lat="47.30455" lon="-1.65834">
        <ele>122</ele>
        <time>2022-07-30T07:29:42Z</time>
      </trkpt>
      <trkpt lat="47.30465" lon="-1.65824">
        <ele>122</ele>
        <time>2022-07-30T07:29:44Z</time>
      </trkpt>
      <trkpt lat="47.30476" lon="-1.65813">
        <ele>122</ele>
        <time>2022-07-30T07:29:46Z</time>
      </trkpt>
      <trkpt lat="47.30486" lon="-1.65802">
        <ele>122</ele>
        <time>2022-07-30T07:29:48Z</time>
      </trkpt>
      <trkpt lat="47.30496" lon="-1.65791">
        <ele>122</ele>
        <time>2022-07-30T07:29:50Z</time>
      </trkpt>
      <trkpt lat="47.30507" lon="-1.6578">
        <ele>122</ele>
        <time>2022-07-30T07:29:52Z</time>
      </trkpt>
      <trkpt lat="47.30517" lon="-1.65769">
        <ele>122</ele>
        <time>2022-07-30T07:29:54Z</time>
      </trkpt>
      <trkpt lat="47.30528" lon="-1.65758">
        <ele>121</ele>
        <time>2022-07-30T07:29:56Z</time>
      </trkpt>
      <trkpt lat="47.30539" lon="-1.65748">
        <ele>121</ele>
        <time>2022-07-30T07:29:58Z</time>
      </trkpt>
      <trkpt lat="47.30549" lon="-1.65737">
        <ele>121</ele>
        <time>2022-07-30T07:30:00Z</time>
      </trkpt>
      <trkpt lat="47.30559" lon="-1.65726">
        <ele>121</ele>
        <time>2022-07-30T07:30:02Z</time>
      </trkpt>
      <trkpt lat="47.30569" lon="-1.65715">
        <ele>121</ele>
        <time>2022-07-30T07:30:04Z</time>
      </trkpt>
      <trkpt lat="47.30579" lon="-1.65705">
        <ele>121</ele>
        <time>2022-07-30T07:30:06Z</time>
      </trkpt>
      <trkpt lat="47.30589" lon="-1.65694">
        <ele>122</ele>
        <time>2022-07-30T07:30:08Z</time>
      </trkpt>
      <trkpt lat="47.306" lon="-1.65684">
        <ele>122</ele>
        <time>2022-07-30T07:30:10Z</time>
      </trkpt>
      <trkpt lat="47.3061" lon="-1.65673">
        <ele>122</ele>
        <time>2022-07-30T07:30:12Z</time>
      </trkpt>
      <trkpt lat="47.30621" lon="-1.65662">
        <ele>122</ele>
        <time>2022-07-30T07:30:14Z</time>
      </trkpt>
      <trkpt lat="47.30631" lon="-1.65651">
        <ele>123</ele>
        <time>2022-07-30T07:30:16Z</time>
      </trkpt>
      <trkpt lat="47.30642" lon="-1.6564">
        <ele>123</ele>
        <time>2022-07-30T07:30:18Z</time>
      </trkpt>
      <trkpt lat="47.30652" lon="-1.65629">
        <ele>123</ele>
        <time>2022-07-30T07:30:20Z</time>
      </trkpt>
      <trkpt lat="47.30663" lon="-1.65618">
        <ele>123</ele>
        <time>2022-07-30T07:30:22Z</time>
      </trkpt>
      <trkpt lat="47.30673" lon="-1.65608">
        <ele>123</ele>
        <time>2022-07-30T07:30:24Z</time>
      </trkpt>
      <trkpt lat="47.30684" lon="-1.65597">
        <ele>123</ele>
        <time>2022-07-30T07:30:26Z</time>
      </trkpt>
      <trkpt lat="47.30695" lon="-1.65585">
        <ele>122</ele>
        <time>2022-07-30T07:30:28Z</time>
      </trkpt>
      <trkpt lat="47.30706" lon="-1.65573">
        <ele>122</ele>
        <time>2022-07-30T07:30:30Z</time>
      </trkpt>
      <trkpt lat="47.30715" lon="-1.65562">
        <ele>122</ele>
        <time>2022-07-30T07:30:32Z</time>
      </trkpt>
      <trkpt lat="47.30725" lon="-1.6555">
        <ele>122</ele>
        <time>2022-07-30T07:30:34Z</time>
      </trkpt>
      <trkpt lat="47.30734" lon="-1.65537">
        <ele>122</ele>
        <time>2022-07-30T07:30:36Z</time>
      </trkpt>
      <trkpt lat="47.3074" lon="-1.65523">
        <ele>123</ele>
        <time>2022-07-30T07:30:38Z</time>
      </trkpt>
      <trkpt lat="47.30744" lon="-1.65507">
        <ele>123</ele>
        <time>2022-07-30T07:30:40Z</time>
      </trkpt>
      <trkpt lat="47.30751" lon="-1.65494">
        <ele>123</ele>
        <time>2022-07-30T07:30:42Z</time>
      </trkpt>
      <trkpt lat="47.3076" lon="-1.65481">
        <ele>123</ele>
        <time>2022-07-30T07:30:44Z</time>
      </trkpt>
      <trkpt lat="47.30768" lon="-1.65466">
        <ele>123</ele>
        <time>2022-07-30T07:30:46Z</time>
      </trkpt>
      <trkpt lat="47.30776" lon="-1.65451">
        <ele>123</ele>
        <time>2022-07-30T07:30:48Z</time>
      </trkpt>
      <trkpt lat="47.30785" lon="-1.65437">
        <ele>123</ele>
        <time>2022-07-30T07:30:50Z</time>
      </trkpt>
      <trkpt lat="47.30793" lon="-1.65422">
        <ele>123</ele>
        <time>2022-07-30T07:30:52Z</time>
      </trkpt>
      <trkpt lat="47.30801" lon="-1.65408">
        <ele>122</ele>
        <time>2022-07-30T07:30:54Z</time>
      </trkpt>
      <trkpt lat="47.30809" lon="-1.65394">
        <ele>122</ele>
        <time>2022-07-30T07:30:56Z</time>
      </trkpt>
      <trkpt lat="47.30817" lon="-1.65381">
        <ele>122</ele>
        <time>2022-07-30T07:30:58Z</time>
      </trkpt>
      <trkpt lat="47.30825" lon="-1.65366">
        <ele>122</ele>
        <time>2022-07-30T07:31:00Z</time>
      </trkpt>
      <trkpt lat="47.30833" lon="-1.65351">
        <ele>122</ele>
        <time>2022-07-30T07:31:02Z</time>
      </trkpt>
      <trkpt lat="47.30841" lon="-1.65337">
        <ele>122</ele>
        <time>2022-07-30T07:31:04Z</time>
      </trkpt>
      <trkpt lat="47.30849" lon="-1.65322">
        <ele>122</ele>
        <time>2022-07-30T07:31:06Z</time>
      </trkpt>
      <trkpt lat="47.30858" lon="-1.65307">
        <ele>122</ele>
        <time>2022-07-30T07:31:08Z</time>
      </trkpt>
      <trkpt lat="47.30867" lon="-1.65292">
        <ele>121</ele>
        <time>2022-07-30T07:31:10Z</time>
      </trkpt>
      <trkpt lat="47.30876" lon="-1.65276">
        <ele>121</ele>
        <time>2022-07-30T07:31:12Z</time>
      </trkpt>
      <trkpt lat="47.30885" lon="-1.6526">
        <ele>120</ele>
        <time>2022-07-30T07:31:14Z</time>
      </trkpt>
      <trkpt lat="47.30893" lon="-1.65244">
        <ele>120</ele>
        <time>2022-07-30T07:31:16Z</time>
      </trkpt>
      <trkpt lat="47.30902" lon="-1.65229">
        <ele>120</ele>
        <time>2022-07-30T07:31:18Z</time>
      </trkpt>
      <trkpt lat="47.30911" lon="-1.65213">
        <ele>120</ele>
        <time>2022-07-30T07:31:20Z</time>
      </trkpt>
      <trkpt lat="47.3092" lon="-1.65197">
        <ele>120</ele>
        <time>2022-07-30T07:31:22Z</time>
      </trkpt>
      <trkpt lat="47.30929" lon="-1.65182">
        <ele>119</ele>
        <time>2022-07-30T07:31:24Z</time>
      </trkpt>
      <trkpt lat="47.30938" lon="-1.65165">
        <ele>119</ele>
        <time>2022-07-30T07:31:26Z</time>
      </trkpt>
      <trkpt lat="47.30948" lon="-1.65149">
        <ele>119</ele>
        <time>2022-07-30T07:31:28Z</time>
      </trkpt>
      <trkpt lat="47.30957" lon="-1.65133">
        <ele>119</ele>
        <time>2022-07-30T07:31:30Z</time>
      </trkpt>
      <trkpt lat="47.30965" lon="-1.65117">
        <ele>119</ele>
        <time>2022-07-30T07:31:32Z</time>
      </trkpt>
      <trkpt lat="47.30974" lon="-1.65102">
        <ele>119</ele>
        <time>2022-07-30T07:31:34Z</time>
      </trkpt>
      <trkpt lat="47.30983" lon="-1.6509">
        <ele>118</ele>
        <time>2022-07-30T07:31:36Z</time>
      </trkpt>
      <trkpt lat="47.30994" lon="-1.65079">
        <ele>118</ele>
        <time>2022-07-30T07:31:38Z</time>
      </trkpt>
      <trkpt lat="47.31006" lon="-1.65072">
        <ele>118</ele>
        <time>2022-07-30T07:31:40Z</time>
      </trkpt>
      <trkpt lat="47.31018" lon="-1.65065">
        <ele>118</ele>
        <time>2022-07-30T07:31:42Z</time>
      </trkpt>
      <trkpt lat="47.31031" lon="-1.65059">
        <ele>118</ele>
        <time>2022-07-30T07:31:44Z</time>
      </trkpt>
      <trkpt lat="47.31044" lon="-1.65053">
        <ele>118</ele>
        <time>2022-07-30T07:31:46Z</time>
      </trkpt>
      <trkpt lat="47.31056" lon="-1.65048">
        <ele>117</ele>
        <time>2022-07-30T07:31:48Z</time>
      </trkpt>
      <trkpt lat="47.3107" lon="-1.65042">
        <ele>117</ele>
        <time>2022-07-30T07:31:50Z</time>
      </trkpt>
      <trkpt lat="47.31083" lon="-1.65038">
        <ele>117</ele>
        <time>2022-07-30T07:31:52Z</time>
      </trkpt>
      <trkpt lat="47.31097" lon="-1.65034">
        <ele>117</ele>
        <time>2022-07-30T07:31:54Z</time>
      </trkpt>
      <trkpt lat="47.31111" lon="-1.65032">
        <ele>116</ele>
        <time>2022-07-30T07:31:56Z</time>
      </trkpt>
      <trkpt lat="47.31124" lon="-1.65033">
        <ele>116</ele>
        <time>2022-07-30T07:31:58Z</time>
      </trkpt>
      <trkpt lat="47.31137" lon="-1.65036">
        <ele>116</ele>
        <time>2022-07-30T07:32:00Z</time>
      </trkpt>
      <trkpt lat="47.31149" lon="-1.65043">
        <ele>116</ele>
        <time>2022-07-30T07:32:02Z</time>
      </trkpt>
      <trkpt lat="47.3116" lon="-1.65051">
        <ele>117</ele>
        <time>2022-07-30T07:32:04Z</time>
      </trkpt>
      <trkpt lat="47.31171" lon="-1.65056">
        <ele>117</ele>
        <time>2022-07-30T07:32:06Z</time>
      </trkpt>
      <trkpt lat="47.31183" lon="-1.65058">
        <ele>117</ele>
        <time>2022-07-30T07:32:08Z</time>
      </trkpt>
      <trkpt lat="47.31193" lon="-1.65056">
        <ele>118</ele>
        <time>2022-07-30T07:32:10Z</time>
      </trkpt>
      <trkpt lat="47.31203" lon="-1.65052">
        <ele>118</ele>
        <time>2022-07-30T07:32:12Z</time>
      </trkpt>
      <trkpt lat="47.31214" lon="-1.65046">
        <ele>119</ele>
        <time>2022-07-30T07:32:14Z</time>
      </trkpt>
      <trkpt lat="47.31224" lon="-1.6504">
        <ele>120</ele>
        <time>2022-07-30T07:32:16Z</time>
      </trkpt>
      <trkpt lat="47.31234" lon="-1.65035">
        <ele>120</ele>
        <time>2022-07-30T07:32:18Z</time>
      </trkpt>
      <trkpt lat="47.31244" lon="-1.65029">
        <ele>121</ele>
        <time>2022-07-30T07:32:20Z</time>
      </trkpt>
      <trkpt lat="47.31253" lon="-1.65023">
        <ele>122</ele>
        <time>2022-07-30T07:32:22Z</time>
      </trkpt>
      <trkpt lat="47.31263" lon="-1.65017">
        <ele>122</ele>
        <time>2022-07-30T07:32:24Z</time>
      </trkpt>
      <trkpt lat="47.31273" lon="-1.65012">
        <ele>122</ele>
        <time>2022-07-30T07:32:26Z</time>
      </trkpt>
      <trkpt lat="47.31283" lon="-1.65006">
        <ele>123</ele>
        <time>2022-07-30T07:32:28Z</time>
      </trkpt>
      <trkpt lat="47.31293" lon="-1.65">
        <ele>123</ele>
        <time>2022-07-30T07:32:30Z</time>
      </trkpt>
      <trkpt lat="47.31303" lon="-1.64993">
        <ele>123</ele>
        <time>2022-07-30T07:32:32Z</time>
      </trkpt>
      <trkpt lat="47.31313" lon="-1.64987">
        <ele>123</ele>
        <time>2022-07-30T07:32:34Z</time>
      </trkpt>
      <trkpt lat="47.31323" lon="-1.64981">
        <ele>123</ele>
        <time>2022-07-30T07:32:36Z</time>
      </trkpt>
      <trkpt lat="47.31333" lon="-1.64975">
        <ele>123</ele>
        <time>2022-07-30T07:32:38Z</time>
      </trkpt>
      <trkpt lat="47.31343" lon="-1.64968">
        <ele>123</ele>
        <time>2022-07-30T07:32:40Z</time>
      </trkpt>
      <trkpt lat="47.31353" lon="-1.64962">
        <ele>123</ele>
        <time>2022-07-30T07:32:42Z</time>
      </trkpt>
      <trkpt lat="47.31363" lon="-1.64955">
        <ele>123</ele>
        <time>2022-07-30T07:32:44Z</time>
      </trkpt>
      <trkpt lat="47.31374" lon="-1.64949">
        <ele>123</ele>
        <time>2022-07-30T07:32:46Z</time>
      </trkpt>
      <trkpt lat="47.31385" lon="-1.64942">
        <ele>123</ele>
        <time>2022-07-30T07:32:48Z</time>
      </trkpt>
      <trkpt lat="47.31396" lon="-1.64935">
        <ele>123</ele>
        <time>2022-07-30T07:32:50Z</time>
      </trkpt>
      <trkpt lat="47.31406" lon="-1.64928">
        <ele>124</ele>
        <time>2022-07-30T07:32:52Z</time>
      </trkpt>
      <trkpt lat="47.31418" lon="-1.64922">
        <ele>124</ele>
        <time>2022-07-30T07:32:54Z</time>
      </trkpt>
      <trkpt lat="47.3143" lon="-1.64917">
        <ele>124</ele>
        <time>2022-07-30T07:32:56Z</time>
      </trkpt>
      <trkpt lat="47.31442" lon="-1.64914">
        <ele>123</ele>
        <time>2022-07-30T07:32:58Z</time>
      </trkpt>
      <trkpt lat="47.31456" lon="-1.64913">
        <ele>123</ele>
        <time>2022-07-30T07:33:00Z</time>
      </trkpt>
      <trkpt lat="47.3147" lon="-1.64912">
        <ele>122</ele>
        <time>2022-07-30T07:33:02Z</time>
      </trkpt>
      <trkpt lat="47.31483" lon="-1.64912">
        <ele>122</ele>
        <time>2022-07-30T07:33:04Z</time>
      </trkpt>
      <trkpt lat="47.31497" lon="-1.64911">
        <ele>122</ele>
        <time>2022-07-30T07:33:06Z</time>
      </trkpt>
      <trkpt lat="47.31508" lon="-1.64909">
        <ele>121</ele>
        <time>2022-07-30T07:33:08Z</time>
      </trkpt>
      <trkpt lat="47.31517" lon="-1.64905">
        <ele>120</ele>
        <time>2022-07-30T07:33:10Z</time>
      </trkpt>
      <trkpt lat="47.31529" lon="-1.64901">
        <ele>119</ele>
        <time>2022-07-30T07:33:12Z</time>
      </trkpt>
      <trkpt lat="47.31542" lon="-1.64894">
        <ele>119</ele>
        <time>2022-07-30T07:33:14Z</time>
      </trkpt>
      <trkpt lat="47.31554" lon="-1.64885">
        <ele>118</ele>
        <time>2022-07-30T07:33:16Z</time>
      </trkpt>
      <trkpt lat="47.31566" lon="-1.64876">
        <ele>117</ele>
        <time>2022-07-30T07:33:18Z</time>
      </trkpt>
      <trkpt lat="47.31578" lon="-1.64867">
        <ele>117</ele>
        <time>2022-07-30T07:33:20Z</time>
      </trkpt>
      <trkpt lat="47.3159" lon="-1.64859">
        <ele>117</ele>
        <time>2022-07-30T07:33:22Z</time>
      </trkpt>
      <trkpt lat="47.31602" lon="-1.64849">
        <ele>117</ele>
        <time>2022-07-30T07:33:24Z</time>
      </trkpt>
      <trkpt lat="47.31614" lon="-1.64839">
        <ele>116</ele>
        <time>2022-07-30T07:33:26Z</time>
      </trkpt>
      <trkpt lat="47.31626" lon="-1.64827">
        <ele>116</ele>
        <time>2022-07-30T07:33:28Z</time>
      </trkpt>
      <trkpt lat="47.31639" lon="-1.64813">
        <ele>115</ele>
        <time>2022-07-30T07:33:30Z</time>
      </trkpt>
      <trkpt lat="47.31651" lon="-1.64799">
        <ele>114</ele>
        <time>2022-07-30T07:33:32Z</time>
      </trkpt>
      <trkpt lat="47.31663" lon="-1.64784">
        <ele>113</ele>
        <time>2022-07-30T07:33:34Z</time>
      </trkpt>
      <trkpt lat="47.31678" lon="-1.64769">
        <ele>112</ele>
        <time>2022-07-30T07:33:36Z</time>
      </trkpt>
      <trkpt lat="47.31692" lon="-1.64754">
        <ele>111</ele>
        <time>2022-07-30T07:33:38Z</time>
      </trkpt>
      <trkpt lat="47.31706" lon="-1.6474">
        <ele>110</ele>
        <time>2022-07-30T07:33:40Z</time>
      </trkpt>
      <trkpt lat="47.3172" lon="-1.64726">
        <ele>110</ele>
        <time>2022-07-30T07:33:42Z</time>
      </trkpt>
      <trkpt lat="47.31734" lon="-1.64714">
        <ele>110</ele>
        <time>2022-07-30T07:33:44Z</time>
      </trkpt>
      <trkpt lat="47.31748" lon="-1.64703">
        <ele>109</ele>
        <time>2022-07-30T07:33:46Z</time>
      </trkpt>
      <trkpt lat="47.31762" lon="-1.64694">
        <ele>109</ele>
        <time>2022-07-30T07:33:48Z</time>
      </trkpt>
      <trkpt lat="47.31776" lon="-1.64688">
        <ele>109</ele>
        <time>2022-07-30T07:33:50Z</time>
      </trkpt>
      <trkpt lat="47.31792" lon="-1.64682">
        <ele>109</ele>
        <time>2022-07-30T07:33:52Z</time>
      </trkpt>
      <trkpt lat="47.31808" lon="-1.64676">
        <ele>109</ele>
        <time>2022-07-30T07:33:54Z</time>
      </trkpt>
      <trkpt lat="47.31823" lon="-1.64669">
        <ele>109</ele>
        <time>2022-07-30T07:33:56Z</time>
      </trkpt>
      <trkpt lat="47.31838" lon="-1.64664">
        <ele>109</ele>
        <time>2022-07-30T07:33:58Z</time>
      </trkpt>
      <trkpt lat="47.31853" lon="-1.64659">
        <ele>109</ele>
        <time>2022-07-30T07:34:00Z</time>
      </trkpt>
      <trkpt lat="47.31868" lon="-1.64653">
        <ele>108</ele>
        <time>2022-07-30T07:34:02Z</time>
      </trkpt>
      <trkpt lat="47.31884" lon="-1.64647">
        <ele>107</ele>
        <time>2022-07-30T07:34:04Z</time>
      </trkpt>
      <trkpt lat="47.31899" lon="-1.64642">
        <ele>107</ele>
        <time>2022-07-30T07:34:06Z</time>
      </trkpt>
      <trkpt lat="47.31913" lon="-1.64636">
        <ele>106</ele>
        <time>2022-07-30T07:34:08Z</time>
      </trkpt>
      <trkpt lat="47.31928" lon="-1.64631">
        <ele>105</ele>
        <time>2022-07-30T07:34:10Z</time>
      </trkpt>
      <trkpt lat="47.31943" lon="-1.64624">
        <ele>104</ele>
        <time>2022-07-30T07:34:12Z</time>
      </trkpt>
      <trkpt lat="47.31958" lon="-1.64619">
        <ele>104</ele>
        <time>2022-07-30T07:34:14Z</time>
      </trkpt>
      <trkpt lat="47.31974" lon="-1.64614">
        <ele>104</ele>
        <time>2022-07-30T07:34:16Z</time>
      </trkpt>
      <trkpt lat="47.3199" lon="-1.64607">
        <ele>103</ele>
        <time>2022-07-30T07:34:18Z</time>
      </trkpt>
      <trkpt lat="47.32006" lon="-1.64601">
        <ele>102</ele>
        <time>2022-07-30T07:34:20Z</time>
      </trkpt>
      <trkpt lat="47.32021" lon="-1.64597">
        <ele>102</ele>
        <time>2022-07-30T07:34:22Z</time>
      </trkpt>
      <trkpt lat="47.32037" lon="-1.6459">
        <ele>102</ele>
        <time>2022-07-30T07:34:24Z</time>
      </trkpt>
      <trkpt lat="47.32053" lon="-1.64583">
        <ele>101</ele>
        <time>2022-07-30T07:34:26Z</time>
      </trkpt>
      <trkpt lat="47.3207" lon="-1.64577">
        <ele>100</ele>
        <time>2022-07-30T07:34:28Z</time>
      </trkpt>
      <trkpt lat="47.32087" lon="-1.64571">
        <ele>99</ele>
        <time>2022-07-30T07:34:30Z</time>
      </trkpt>
      <trkpt lat="47.32103" lon="-1.64565">
        <ele>98</ele>
        <time>2022-07-30T07:34:32Z</time>
      </trkpt>
      <trkpt lat="47.32121" lon="-1.64559">
        <ele>96</ele>
        <time>2022-07-30T07:34:34Z</time>
      </trkpt>
      <trkpt lat="47.32129" lon="-1.64555">
        <ele>95</ele>
        <time>2022-07-30T07:34:35Z</time>
      </trkpt>
      <trkpt lat="47.32138" lon="-1.6455">
        <ele>95</ele>
        <time>2022-07-30T07:34:36Z</time>
      </trkpt>
      <trkpt lat="47.32147" lon="-1.64546">
        <ele>94</ele>
        <time>2022-07-30T07:34:37Z</time>
      </trkpt>
      <trkpt lat="47.32155" lon="-1.6454">
        <ele>93</ele>
        <time>2022-07-30T07:34:38Z</time>
      </trkpt>
      <trkpt lat="47.32164" lon="-1.64533">
        <ele>92</ele>
        <time>2022-07-30T07:34:39Z</time>
      </trkpt>
      <trkpt lat="47.32173" lon="-1.64524">
        <ele>92</ele>
        <time>2022-07-30T07:34:40Z</time>
      </trkpt>
      <trkpt lat="47.32181" lon="-1.64514">
        <ele>91</ele>
        <time>2022-07-30T07:34:41Z</time>
      </trkpt>
      <trkpt lat="47.32188" lon="-1.64503">
        <ele>91</ele>
        <time>2022-07-30T07:34:42Z</time>
      </trkpt>
      <trkpt lat="47.32195" lon="-1.6449">
        <ele>91</ele>
        <time>2022-07-30T07:34:43Z</time>
      </trkpt>
      <trkpt lat="47.32201" lon="-1.64477">
        <ele>90</ele>
        <time>2022-07-30T07:34:44Z</time>
      </trkpt>
      <trkpt lat="47.32206" lon="-1.64464">
        <ele>90</ele>
        <time>2022-07-30T07:34:45Z</time>
      </trkpt>
      <trkpt lat="47.32212" lon="-1.64453">
        <ele>89</ele>
        <time>2022-07-30T07:34:46Z</time>
      </trkpt>
      <trkpt lat="47.32218" lon="-1.64441">
        <ele>88</ele>
        <time>2022-07-30T07:34:47Z</time>
      </trkpt>
      <trkpt lat="47.32224" lon="-1.64429">
        <ele>87</ele>
        <time>2022-07-30T07:34:48Z</time>
      </trkpt>
      <trkpt lat="47.3223" lon="-1.64417">
        <ele>87</ele>
        <time>2022-07-30T07:34:49Z</time>
      </trkpt>
      <trkpt lat="47.32235" lon="-1.64404">
        <ele>86</ele>
        <time>2022-07-30T07:34:50Z</time>
      </trkpt>
      <trkpt lat="47.32239" lon="-1.6439">
        <ele>85</ele>
        <time>2022-07-30T07:34:51Z</time>
      </trkpt>
      <trkpt lat="47.32244" lon="-1.64376">
        <ele>84</ele>
        <time>2022-07-30T07:34:52Z</time>
      </trkpt>
      <trkpt lat="47.32247" lon="-1.64361">
        <ele>83</ele>
        <time>2022-07-30T07:34:53Z</time>
      </trkpt>
      <trkpt lat="47.3225" lon="-1.64346">
        <ele>82</ele>
        <time>2022-07-30T07:34:54Z</time>
      </trkpt>
      <trkpt lat="47.32252" lon="-1.64332">
        <ele>81</ele>
        <time>2022-07-30T07:34:55Z</time>
      </trkpt>
      <trkpt lat="47.32257" lon="-1.64312">
        <ele>80</ele>
        <time>2022-07-30T07:34:57Z</time>
      </trkpt>
      <trkpt lat="47.32269" lon="-1.64307">
        <ele>78</ele>
        <time>2022-07-30T07:34:59Z</time>
      </trkpt>
      <trkpt lat="47.32283" lon="-1.64314">
        <ele>77</ele>
        <time>2022-07-30T07:35:01Z</time>
      </trkpt>
      <trkpt lat="47.32299" lon="-1.64321">
        <ele>76</ele>
        <time>2022-07-30T07:35:03Z</time>
      </trkpt>
      <trkpt lat="47.32314" lon="-1.64328">
        <ele>76</ele>
        <time>2022-07-30T07:35:05Z</time>
      </trkpt>
      <trkpt lat="47.32329" lon="-1.64335">
        <ele>75</ele>
        <time>2022-07-30T07:35:07Z</time>
      </trkpt>
      <trkpt lat="47.32346" lon="-1.6434">
        <ele>75</ele>
        <time>2022-07-30T07:35:09Z</time>
      </trkpt>
      <trkpt lat="47.32362" lon="-1.64343">
        <ele>75</ele>
        <time>2022-07-30T07:35:11Z</time>
      </trkpt>
      <trkpt lat="47.32378" lon="-1.64346">
        <ele>74</ele>
        <time>2022-07-30T07:35:13Z</time>
      </trkpt>
      <trkpt lat="47.32392" lon="-1.64349">
        <ele>74</ele>
        <time>2022-07-30T07:35:15Z</time>
      </trkpt>
      <trkpt lat="47.32406" lon="-1.64352">
        <ele>74</ele>
        <time>2022-07-30T07:35:17Z</time>
      </trkpt>
      <trkpt lat="47.3242" lon="-1.64354">
        <ele>74</ele>
        <time>2022-07-30T07:35:19Z</time>
      </trkpt>
      <trkpt lat="47.32434" lon="-1.64357">
        <ele>74</ele>
        <time>2022-07-30T07:35:21Z</time>
      </trkpt>
      <trkpt lat="47.32449" lon="-1.6436">
        <ele>74</ele>
        <time>2022-07-30T07:35:23Z</time>
      </trkpt>
      <trkpt lat="47.32463" lon="-1.64367">
        <ele>74</ele>
        <time>2022-07-30T07:35:25Z</time>
      </trkpt>
      <trkpt lat="47.32475" lon="-1.64375">
        <ele>74</ele>
        <time>2022-07-30T07:35:27Z</time>
      </trkpt>
      <trkpt lat="47.32487" lon="-1.64383">
        <ele>74</ele>
        <time>2022-07-30T07:35:29Z</time>
      </trkpt>
      <trkpt lat="47.32499" lon="-1.6439">
        <ele>75</ele>
        <time>2022-07-30T07:35:31Z</time>
      </trkpt>
      <trkpt lat="47.3251" lon="-1.64395">
        <ele>75</ele>
        <time>2022-07-30T07:35:33Z</time>
      </trkpt>
      <trkpt lat="47.32522" lon="-1.64398">
        <ele>75</ele>
        <time>2022-07-30T07:35:35Z</time>
      </trkpt>
      <trkpt lat="47.32533" lon="-1.64399">
        <ele>76</ele>
        <time>2022-07-30T07:35:37Z</time>
      </trkpt>
      <trkpt lat="47.32543" lon="-1.64397">
        <ele>76</ele>
        <time>2022-07-30T07:35:39Z</time>
      </trkpt>
      <trkpt lat="47.32553" lon="-1.64395">
        <ele>77</ele>
        <time>2022-07-30T07:35:41Z</time>
      </trkpt>
      <trkpt lat="47.32563" lon="-1.64392">
        <ele>78</ele>
        <time>2022-07-30T07:35:43Z</time>
      </trkpt>
      <trkpt lat="47.32572" lon="-1.6439">
        <ele>78</ele>
        <time>2022-07-30T07:35:45Z</time>
      </trkpt>
      <trkpt lat="47.32582" lon="-1.64387">
        <ele>79</ele>
        <time>2022-07-30T07:35:47Z</time>
      </trkpt>
      <trkpt lat="47.32591" lon="-1.64385">
        <ele>79</ele>
        <time>2022-07-30T07:35:49Z</time>
      </trkpt>
      <trkpt lat="47.326" lon="-1.64382">
        <ele>80</ele>
        <time>2022-07-30T07:35:51Z</time>
      </trkpt>
      <trkpt lat="47.32614" lon="-1.64378">
        <ele>80</ele>
        <time>2022-07-30T07:35:54Z</time>
      </trkpt>
      <trkpt lat="47.32623" lon="-1.64376">
        <ele>81</ele>
        <time>2022-07-30T07:35:56Z</time>
      </trkpt>
      <trkpt lat="47.32632" lon="-1.64372">
        <ele>81</ele>
        <time>2022-07-30T07:35:58Z</time>
      </trkpt>
      <trkpt lat="47.32642" lon="-1.64369">
        <ele>82</ele>
        <time>2022-07-30T07:36:00Z</time>
      </trkpt>
      <trkpt lat="47.32651" lon="-1.64366">
        <ele>83</ele>
        <time>2022-07-30T07:36:02Z</time>
      </trkpt>
      <trkpt lat="47.32661" lon="-1.64363">
        <ele>83</ele>
        <time>2022-07-30T07:36:04Z</time>
      </trkpt>
      <trkpt lat="47.32671" lon="-1.64361">
        <ele>83</ele>
        <time>2022-07-30T07:36:06Z</time>
      </trkpt>
      <trkpt lat="47.3268" lon="-1.64359">
        <ele>83</ele>
        <time>2022-07-30T07:36:08Z</time>
      </trkpt>
      <trkpt lat="47.3269" lon="-1.64355">
        <ele>84</ele>
        <time>2022-07-30T07:36:10Z</time>
      </trkpt>
      <trkpt lat="47.32699" lon="-1.64352">
        <ele>84</ele>
        <time>2022-07-30T07:36:12Z</time>
      </trkpt>
      <trkpt lat="47.32709" lon="-1.6435">
        <ele>85</ele>
        <time>2022-07-30T07:36:14Z</time>
      </trkpt>
      <trkpt lat="47.32718" lon="-1.64347">
        <ele>86</ele>
        <time>2022-07-30T07:36:16Z</time>
      </trkpt>
      <trkpt lat="47.32727" lon="-1.64344">
        <ele>86</ele>
        <time>2022-07-30T07:36:18Z</time>
      </trkpt>
      <trkpt lat="47.3274" lon="-1.64341">
        <ele>87</ele>
        <time>2022-07-30T07:36:21Z</time>
      </trkpt>
      <trkpt lat="47.32753" lon="-1.64339">
        <ele>88</ele>
        <time>2022-07-30T07:36:24Z</time>
      </trkpt>
      <trkpt lat="47.32766" lon="-1.64336">
        <ele>88</ele>
        <time>2022-07-30T07:36:27Z</time>
      </trkpt>
      <trkpt lat="47.32778" lon="-1.64335">
        <ele>89</ele>
        <time>2022-07-30T07:36:30Z</time>
      </trkpt>
      <trkpt lat="47.3279" lon="-1.64333">
        <ele>89</ele>
        <time>2022-07-30T07:36:33Z</time>
      </trkpt>
      <trkpt lat="47.32803" lon="-1.64331">
        <ele>90</ele>
        <time>2022-07-30T07:36:36Z</time>
      </trkpt>
      <trkpt lat="47.32816" lon="-1.64328">
        <ele>90</ele>
        <time>2022-07-30T07:36:39Z</time>
      </trkpt>
      <trkpt lat="47.32829" lon="-1.64326">
        <ele>91</ele>
        <time>2022-07-30T07:36:42Z</time>
      </trkpt>
      <trkpt lat="47.32841" lon="-1.64326">
        <ele>92</ele>
        <time>2022-07-30T07:36:45Z</time>
      </trkpt>
      <trkpt lat="47.32854" lon="-1.64325">
        <ele>93</ele>
        <time>2022-07-30T07:36:48Z</time>
      </trkpt>
      <trkpt lat="47.32863" lon="-1.64322">
        <ele>93</ele>
        <time>2022-07-30T07:36:50Z</time>
      </trkpt>
      <trkpt lat="47.32876" lon="-1.6432">
        <ele>94</ele>
        <time>2022-07-30T07:36:53Z</time>
      </trkpt>
      <trkpt lat="47.32888" lon="-1.64319">
        <ele>95</ele>
        <time>2022-07-30T07:36:56Z</time>
      </trkpt>
      <trkpt lat="47.32901" lon="-1.64316">
        <ele>96</ele>
        <time>2022-07-30T07:36:59Z</time>
      </trkpt>
      <trkpt lat="47.32914" lon="-1.64313">
        <ele>96</ele>
        <time>2022-07-30T07:37:02Z</time>
      </trkpt>
      <trkpt lat="47.32927" lon="-1.64311">
        <ele>96</ele>
        <time>2022-07-30T07:37:05Z</time>
      </trkpt>
      <trkpt lat="47.3294" lon="-1.6431">
        <ele>96</ele>
        <time>2022-07-30T07:37:08Z</time>
      </trkpt>
      <trkpt lat="47.32953" lon="-1.64309">
        <ele>97</ele>
        <time>2022-07-30T07:37:11Z</time>
      </trkpt>
      <trkpt lat="47.32965" lon="-1.64308">
        <ele>98</ele>
        <time>2022-07-30T07:37:14Z</time>
      </trkpt>
      <trkpt lat="47.32978" lon="-1.6431">
        <ele>99</ele>
        <time>2022-07-30T07:37:17Z</time>
      </trkpt>
      <trkpt lat="47.3299" lon="-1.64311">
        <ele>99</ele>
        <time>2022-07-30T07:37:20Z</time>
      </trkpt>
      <trkpt lat="47.33002" lon="-1.64314">
        <ele>100</ele>
        <time>2022-07-30T07:37:23Z</time>
      </trkpt>
      <trkpt lat="47.33013" lon="-1.64317">
        <ele>101</ele>
        <time>2022-07-30T07:37:26Z</time>
      </trkpt>
      <trkpt lat="47.33024" lon="-1.64321">
        <ele>102</ele>
        <time>2022-07-30T07:37:29Z</time>
      </trkpt>
      <trkpt lat="47.33035" lon="-1.64325">
        <ele>103</ele>
        <time>2022-07-30T07:37:32Z</time>
      </trkpt>
      <trkpt lat="47.33046" lon="-1.64328">
        <ele>104</ele>
        <time>2022-07-30T07:37:35Z</time>
      </trkpt>
      <trkpt lat="47.33057" lon="-1.64332">
        <ele>105</ele>
        <time>2022-07-30T07:37:38Z</time>
      </trkpt>
      <trkpt lat="47.33068" lon="-1.64335">
        <ele>105</ele>
        <time>2022-07-30T07:37:41Z</time>
      </trkpt>
      <trkpt lat="47.33079" lon="-1.64338">
        <ele>106</ele>
        <time>2022-07-30T07:37:44Z</time>
      </trkpt>
      <trkpt lat="47.3309" lon="-1.64342">
        <ele>106</ele>
        <time>2022-07-30T07:37:47Z</time>
      </trkpt>
      <trkpt lat="47.33099" lon="-1.64345">
        <ele>106</ele>
        <time>2022-07-30T07:37:50Z</time>
      </trkpt>
      <trkpt lat="47.3311" lon="-1.64344">
        <ele>107</ele>
        <time>2022-07-30T07:37:55Z</time>
      </trkpt>
      <trkpt lat="47.33121" lon="-1.64345">
        <ele>107</ele>
        <time>2022-07-30T07:37:58Z</time>
      </trkpt>
      <trkpt lat="47.33133" lon="-1.64342">
        <ele>107</ele>
        <time>2022-07-30T07:38:01Z</time>
      </trkpt>
      <trkpt lat="47.33145" lon="-1.64339">
        <ele>108</ele>
        <time>2022-07-30T07:38:04Z</time>
      </trkpt>
      <trkpt lat="47.33157" lon="-1.64336">
        <ele>108</ele>
        <time>2022-07-30T07:38:07Z</time>
      </trkpt>
      <trkpt lat="47.33168" lon="-1.64332">
        <ele>108</ele>
        <time>2022-07-30T07:38:10Z</time>
      </trkpt>
      <trkpt lat="47.3318" lon="-1.64329">
        <ele>109</ele>
        <time>2022-07-30T07:38:13Z</time>
      </trkpt>
      <trkpt lat="47.33191" lon="-1.64326">
        <ele>110</ele>
        <time>2022-07-30T07:38:16Z</time>
      </trkpt>
      <trkpt lat="47.33203" lon="-1.64322">
        <ele>111</ele>
        <time>2022-07-30T07:38:19Z</time>
      </trkpt>
      <trkpt lat="47.33215" lon="-1.64319">
        <ele>112</ele>
        <time>2022-07-30T07:38:22Z</time>
      </trkpt>
      <trkpt lat="47.33226" lon="-1.64315">
        <ele>112</ele>
        <time>2022-07-30T07:38:25Z</time>
      </trkpt>
      <trkpt lat="47.33238" lon="-1.6431">
        <ele>113</ele>
        <time>2022-07-30T07:38:28Z</time>
      </trkpt>
      <trkpt lat="47.33249" lon="-1.64305">
        <ele>113</ele>
        <time>2022-07-30T07:38:31Z</time>
      </trkpt>
      <trkpt lat="47.3326" lon="-1.64297">
        <ele>114</ele>
        <time>2022-07-30T07:38:34Z</time>
      </trkpt>
      <trkpt lat="47.3327" lon="-1.64286">
        <ele>114</ele>
        <time>2022-07-30T07:38:37Z</time>
      </trkpt>
      <trkpt lat="47.3328" lon="-1.64275">
        <ele>114</ele>
        <time>2022-07-30T07:38:40Z</time>
      </trkpt>
      <trkpt lat="47.3329" lon="-1.64263">
        <ele>114</ele>
        <time>2022-07-30T07:38:43Z</time>
      </trkpt>
      <trkpt lat="47.33301" lon="-1.6425">
        <ele>114</ele>
        <time>2022-07-30T07:38:46Z</time>
      </trkpt>
      <trkpt lat="47.33308" lon="-1.64241">
        <ele>115</ele>
        <time>2022-07-30T07:38:48Z</time>
      </trkpt>
      <trkpt lat="47.33316" lon="-1.64233">
        <ele>115</ele>
        <time>2022-07-30T07:38:50Z</time>
      </trkpt>
      <trkpt lat="47.33325" lon="-1.64223">
        <ele>115</ele>
        <time>2022-07-30T07:38:52Z</time>
      </trkpt>
      <trkpt lat="47.33333" lon="-1.64213">
        <ele>115</ele>
        <time>2022-07-30T07:38:54Z</time>
      </trkpt>
      <trkpt lat="47.33341" lon="-1.64204">
        <ele>115</ele>
        <time>2022-07-30T07:38:56Z</time>
      </trkpt>
      <trkpt lat="47.3335" lon="-1.64194">
        <ele>115</ele>
        <time>2022-07-30T07:38:58Z</time>
      </trkpt>
      <trkpt lat="47.33359" lon="-1.64183">
        <ele>115</ele>
        <time>2022-07-30T07:39:00Z</time>
      </trkpt>
      <trkpt lat="47.33367" lon="-1.64173">
        <ele>115</ele>
        <time>2022-07-30T07:39:02Z</time>
      </trkpt>
      <trkpt lat="47.33376" lon="-1.64164">
        <ele>116</ele>
        <time>2022-07-30T07:39:04Z</time>
      </trkpt>
      <trkpt lat="47.33385" lon="-1.64154">
        <ele>116</ele>
        <time>2022-07-30T07:39:06Z</time>
      </trkpt>
      <trkpt lat="47.33394" lon="-1.64145">
        <ele>116</ele>
        <time>2022-07-30T07:39:08Z</time>
      </trkpt>
      <trkpt lat="47.33403" lon="-1.64135">
        <ele>116</ele>
        <time>2022-07-30T07:39:10Z</time>
      </trkpt>
      <trkpt lat="47.33411" lon="-1.64124">
        <ele>116</ele>
        <time>2022-07-30T07:39:12Z</time>
      </trkpt>
      <trkpt lat="47.3342" lon="-1.64113">
        <ele>116</ele>
        <time>2022-07-30T07:39:14Z</time>
      </trkpt>
      <trkpt lat="47.33429" lon="-1.64102">
        <ele>116</ele>
        <time>2022-07-30T07:39:16Z</time>
      </trkpt>
      <trkpt lat="47.33438" lon="-1.64091">
        <ele>116</ele>
        <time>2022-07-30T07:39:18Z</time>
      </trkpt>
      <trkpt lat="47.33447" lon="-1.6408">
        <ele>116</ele>
        <time>2022-07-30T07:39:20Z</time>
      </trkpt>
      <trkpt lat="47.33456" lon="-1.6407">
        <ele>116</ele>
        <time>2022-07-30T07:39:22Z</time>
      </trkpt>
      <trkpt lat="47.33465" lon="-1.64058">
        <ele>116</ele>
        <time>2022-07-30T07:39:24Z</time>
      </trkpt>
      <trkpt lat="47.33474" lon="-1.64048">
        <ele>116</ele>
        <time>2022-07-30T07:39:26Z</time>
      </trkpt>
      <trkpt lat="47.33483" lon="-1.64037">
        <ele>116</ele>
        <time>2022-07-30T07:39:28Z</time>
      </trkpt>
      <trkpt lat="47.33492" lon="-1.64026">
        <ele>116</ele>
        <time>2022-07-30T07:39:30Z</time>
      </trkpt>
      <trkpt lat="47.33502" lon="-1.64015">
        <ele>116</ele>
        <time>2022-07-30T07:39:32Z</time>
      </trkpt>
      <trkpt lat="47.33511" lon="-1.64005">
        <ele>116</ele>
        <time>2022-07-30T07:39:34Z</time>
      </trkpt>
      <trkpt lat="47.33521" lon="-1.63994">
        <ele>116</ele>
        <time>2022-07-30T07:39:36Z</time>
      </trkpt>
      <trkpt lat="47.3353" lon="-1.63982">
        <ele>116</ele>
        <time>2022-07-30T07:39:38Z</time>
      </trkpt>
      <trkpt lat="47.33539" lon="-1.63971">
        <ele>116</ele>
        <time>2022-07-30T07:39:40Z</time>
      </trkpt>
      <trkpt lat="47.33549" lon="-1.63961">
        <ele>116</ele>
        <time>2022-07-30T07:39:42Z</time>
      </trkpt>
      <trkpt lat="47.33562" lon="-1.63945">
        <ele>117</ele>
        <time>2022-07-30T07:39:45Z</time>
      </trkpt>
      <trkpt lat="47.33572" lon="-1.63934">
        <ele>117</ele>
        <time>2022-07-30T07:39:47Z</time>
      </trkpt>
      <trkpt lat="47.33581" lon="-1.63923">
        <ele>117</ele>
        <time>2022-07-30T07:39:49Z</time>
      </trkpt>
      <trkpt lat="47.33591" lon="-1.63911">
        <ele>117</ele>
        <time>2022-07-30T07:39:51Z</time>
      </trkpt>
      <trkpt lat="47.336" lon="-1.639">
        <ele>116</ele>
        <time>2022-07-30T07:39:53Z</time>
      </trkpt>
      <trkpt lat="47.33609" lon="-1.63889">
        <ele>117</ele>
        <time>2022-07-30T07:39:55Z</time>
      </trkpt>
      <trkpt lat="47.33619" lon="-1.63878">
        <ele>116</ele>
        <time>2022-07-30T07:39:57Z</time>
      </trkpt>
      <trkpt lat="47.33629" lon="-1.63867">
        <ele>116</ele>
        <time>2022-07-30T07:39:59Z</time>
      </trkpt>
      <trkpt lat="47.33644" lon="-1.63851">
        <ele>116</ele>
        <time>2022-07-30T07:40:02Z</time>
      </trkpt>
      <trkpt lat="47.33653" lon="-1.63838">
        <ele>116</ele>
        <time>2022-07-30T07:40:04Z</time>
      </trkpt>
      <trkpt lat="47.33663" lon="-1.63826">
        <ele>116</ele>
        <time>2022-07-30T07:40:06Z</time>
      </trkpt>
      <trkpt lat="47.33673" lon="-1.63814">
        <ele>115</ele>
        <time>2022-07-30T07:40:08Z</time>
      </trkpt>
      <trkpt lat="47.33682" lon="-1.63802">
        <ele>115</ele>
        <time>2022-07-30T07:40:10Z</time>
      </trkpt>
      <trkpt lat="47.33693" lon="-1.6379">
        <ele>115</ele>
        <time>2022-07-30T07:40:12Z</time>
      </trkpt>
      <trkpt lat="47.33703" lon="-1.63778">
        <ele>116</ele>
        <time>2022-07-30T07:40:14Z</time>
      </trkpt>
      <trkpt lat="47.33712" lon="-1.63766">
        <ele>115</ele>
        <time>2022-07-30T07:40:16Z</time>
      </trkpt>
      <trkpt lat="47.33727" lon="-1.63748">
        <ele>115</ele>
        <time>2022-07-30T07:40:19Z</time>
      </trkpt>
      <trkpt lat="47.33742" lon="-1.63733">
        <ele>116</ele>
        <time>2022-07-30T07:40:22Z</time>
      </trkpt>
      <trkpt lat="47.33752" lon="-1.63722">
        <ele>117</ele>
        <time>2022-07-30T07:40:24Z</time>
      </trkpt>
      <trkpt lat="47.33761" lon="-1.6371">
        <ele>117</ele>
        <time>2022-07-30T07:40:26Z</time>
      </trkpt>
      <trkpt lat="47.33771" lon="-1.63699">
        <ele>117</ele>
        <time>2022-07-30T07:40:28Z</time>
      </trkpt>
      <trkpt lat="47.33781" lon="-1.63687">
        <ele>118</ele>
        <time>2022-07-30T07:40:30Z</time>
      </trkpt>
      <trkpt lat="47.33792" lon="-1.63675">
        <ele>117</ele>
        <time>2022-07-30T07:40:32Z</time>
      </trkpt>
      <trkpt lat="47.33807" lon="-1.63658">
        <ele>117</ele>
        <time>2022-07-30T07:40:35Z</time>
      </trkpt>
      <trkpt lat="47.33816" lon="-1.63646">
        <ele>117</ele>
        <time>2022-07-30T07:40:37Z</time>
      </trkpt>
      <trkpt lat="47.33827" lon="-1.63634">
        <ele>117</ele>
        <time>2022-07-30T07:40:39Z</time>
      </trkpt>
      <trkpt lat="47.33836" lon="-1.63623">
        <ele>117</ele>
        <time>2022-07-30T07:40:41Z</time>
      </trkpt>
      <trkpt lat="47.33845" lon="-1.63612">
        <ele>117</ele>
        <time>2022-07-30T07:40:43Z</time>
      </trkpt>
      <trkpt lat="47.33853" lon="-1.63603">
        <ele>116</ele>
        <time>2022-07-30T07:40:45Z</time>
      </trkpt>
      <trkpt lat="47.33863" lon="-1.63592">
        <ele>116</ele>
        <time>2022-07-30T07:40:48Z</time>
      </trkpt>
      <trkpt lat="47.3387" lon="-1.63584">
        <ele>116</ele>
        <time>2022-07-30T07:40:50Z</time>
      </trkpt>
      <trkpt lat="47.33879" lon="-1.63574">
        <ele>116</ele>
        <time>2022-07-30T07:40:52Z</time>
      </trkpt>
      <trkpt lat="47.33888" lon="-1.63564">
        <ele>116</ele>
        <time>2022-07-30T07:40:54Z</time>
      </trkpt>
      <trkpt lat="47.33897" lon="-1.63553">
        <ele>116</ele>
        <time>2022-07-30T07:40:56Z</time>
      </trkpt>
      <trkpt lat="47.33907" lon="-1.63542">
        <ele>116</ele>
        <time>2022-07-30T07:40:58Z</time>
      </trkpt>
      <trkpt lat="47.33916" lon="-1.63531">
        <ele>116</ele>
        <time>2022-07-30T07:41:00Z</time>
      </trkpt>
      <trkpt lat="47.33926" lon="-1.63522">
        <ele>116</ele>
        <time>2022-07-30T07:41:02Z</time>
      </trkpt>
      <trkpt lat="47.33936" lon="-1.63514">
        <ele>116</ele>
        <time>2022-07-30T07:41:04Z</time>
      </trkpt>
      <trkpt lat="47.33947" lon="-1.63508">
        <ele>117</ele>
        <time>2022-07-30T07:41:06Z</time>
      </trkpt>
      <trkpt lat="47.33957" lon="-1.63502">
        <ele>117</ele>
        <time>2022-07-30T07:41:08Z</time>
      </trkpt>
      <trkpt lat="47.33967" lon="-1.63496">
        <ele>117</ele>
        <time>2022-07-30T07:41:10Z</time>
      </trkpt>
      <trkpt lat="47.33978" lon="-1.63489">
        <ele>117</ele>
        <time>2022-07-30T07:41:12Z</time>
      </trkpt>
      <trkpt lat="47.33989" lon="-1.63483">
        <ele>117</ele>
        <time>2022-07-30T07:41:14Z</time>
      </trkpt>
      <trkpt lat="47.33999" lon="-1.63478">
        <ele>118</ele>
        <time>2022-07-30T07:41:16Z</time>
      </trkpt>
      <trkpt lat="47.3401" lon="-1.63472">
        <ele>118</ele>
        <time>2022-07-30T07:41:18Z</time>
      </trkpt>
      <trkpt lat="47.34022" lon="-1.63465">
        <ele>118</ele>
        <time>2022-07-30T07:41:20Z</time>
      </trkpt>
      <trkpt lat="47.34033" lon="-1.63457">
        <ele>118</ele>
        <time>2022-07-30T07:41:22Z</time>
      </trkpt>
      <trkpt lat="47.34044" lon="-1.63451">
        <ele>117</ele>
        <time>2022-07-30T07:41:24Z</time>
      </trkpt>
      <trkpt lat="47.34061" lon="-1.63441">
        <ele>118</ele>
        <time>2022-07-30T07:41:27Z</time>
      </trkpt>
      <trkpt lat="47.34072" lon="-1.63435">
        <ele>119</ele>
        <time>2022-07-30T07:41:29Z</time>
      </trkpt>
      <trkpt lat="47.34084" lon="-1.63428">
        <ele>119</ele>
        <time>2022-07-30T07:41:31Z</time>
      </trkpt>
      <trkpt lat="47.34095" lon="-1.63422">
        <ele>119</ele>
        <time>2022-07-30T07:41:33Z</time>
      </trkpt>
      <trkpt lat="47.34106" lon="-1.63415">
        <ele>120</ele>
        <time>2022-07-30T07:41:35Z</time>
      </trkpt>
      <trkpt lat="47.34117" lon="-1.63409">
        <ele>121</ele>
        <time>2022-07-30T07:41:37Z</time>
      </trkpt>
      <trkpt lat="47.34128" lon="-1.63402">
        <ele>121</ele>
        <time>2022-07-30T07:41:39Z</time>
      </trkpt>
      <trkpt lat="47.34139" lon="-1.63396">
        <ele>121</ele>
        <time>2022-07-30T07:41:41Z</time>
      </trkpt>
      <trkpt lat="47.34151" lon="-1.63386">
        <ele>120</ele>
        <time>2022-07-30T07:41:43Z</time>
      </trkpt>
      <trkpt lat="47.34163" lon="-1.63375">
        <ele>119</ele>
        <time>2022-07-30T07:41:45Z</time>
      </trkpt>
      <trkpt lat="47.34173" lon="-1.63365">
        <ele>117</ele>
        <time>2022-07-30T07:41:47Z</time>
      </trkpt>
      <trkpt lat="47.34183" lon="-1.63355">
        <ele>117</ele>
        <time>2022-07-30T07:41:49Z</time>
      </trkpt>
      <trkpt lat="47.34194" lon="-1.63344">
        <ele>117</ele>
        <time>2022-07-30T07:41:51Z</time>
      </trkpt>
      <trkpt lat="47.34204" lon="-1.63334">
        <ele>116</ele>
        <time>2022-07-30T07:41:53Z</time>
      </trkpt>
      <trkpt lat="47.34214" lon="-1.63322">
        <ele>116</ele>
        <time>2022-07-30T07:41:55Z</time>
      </trkpt>
      <trkpt lat="47.34225" lon="-1.6331">
        <ele>116</ele>
        <time>2022-07-30T07:41:57Z</time>
      </trkpt>
      <trkpt lat="47.34233" lon="-1.63297">
        <ele>116</ele>
        <time>2022-07-30T07:41:59Z</time>
      </trkpt>
      <trkpt lat="47.34241" lon="-1.63283">
        <ele>116</ele>
        <time>2022-07-30T07:42:01Z</time>
      </trkpt>
      <trkpt lat="47.34248" lon="-1.63267">
        <ele>115</ele>
        <time>2022-07-30T07:42:03Z</time>
      </trkpt>
      <trkpt lat="47.34254" lon="-1.6325">
        <ele>115</ele>
        <time>2022-07-30T07:42:05Z</time>
      </trkpt>
      <trkpt lat="47.34261" lon="-1.63232">
        <ele>114</ele>
        <time>2022-07-30T07:42:07Z</time>
      </trkpt>
      <trkpt lat="47.34268" lon="-1.63213">
        <ele>113</ele>
        <time>2022-07-30T07:42:09Z</time>
      </trkpt>
      <trkpt lat="47.34275" lon="-1.63196">
        <ele>113</ele>
        <time>2022-07-30T07:42:11Z</time>
      </trkpt>
      <trkpt lat="47.34283" lon="-1.63179">
        <ele>112</ele>
        <time>2022-07-30T07:42:13Z</time>
      </trkpt>
      <trkpt lat="47.34294" lon="-1.63166">
        <ele>111</ele>
        <time>2022-07-30T07:42:15Z</time>
      </trkpt>
      <trkpt lat="47.34303" lon="-1.63152">
        <ele>111</ele>
        <time>2022-07-30T07:42:17Z</time>
      </trkpt>
      <trkpt lat="47.34314" lon="-1.6314">
        <ele>111</ele>
        <time>2022-07-30T07:42:19Z</time>
      </trkpt>
      <trkpt lat="47.34325" lon="-1.63127">
        <ele>111</ele>
        <time>2022-07-30T07:42:21Z</time>
      </trkpt>
      <trkpt lat="47.34336" lon="-1.63115">
        <ele>110</ele>
        <time>2022-07-30T07:42:23Z</time>
      </trkpt>
      <trkpt lat="47.34347" lon="-1.63104">
        <ele>110</ele>
        <time>2022-07-30T07:42:25Z</time>
      </trkpt>
      <trkpt lat="47.34358" lon="-1.63093">
        <ele>110</ele>
        <time>2022-07-30T07:42:27Z</time>
      </trkpt>
      <trkpt lat="47.34368" lon="-1.63081">
        <ele>110</ele>
        <time>2022-07-30T07:42:29Z</time>
      </trkpt>
      <trkpt lat="47.34379" lon="-1.6307">
        <ele>110</ele>
        <time>2022-07-30T07:42:31Z</time>
      </trkpt>
      <trkpt lat="47.3439" lon="-1.63059">
        <ele>110</ele>
        <time>2022-07-30T07:42:33Z</time>
      </trkpt>
      <trkpt lat="47.34401" lon="-1.63047">
        <ele>110</ele>
        <time>2022-07-30T07:42:35Z</time>
      </trkpt>
      <trkpt lat="47.34412" lon="-1.63036">
        <ele>110</ele>
        <time>2022-07-30T07:42:37Z</time>
      </trkpt>
      <trkpt lat="47.34423" lon="-1.63025">
        <ele>111</ele>
        <time>2022-07-30T07:42:39Z</time>
      </trkpt>
      <trkpt lat="47.34434" lon="-1.63014">
        <ele>111</ele>
        <time>2022-07-30T07:42:41Z</time>
      </trkpt>
      <trkpt lat="47.34445" lon="-1.63002">
        <ele>110</ele>
        <time>2022-07-30T07:42:43Z</time>
      </trkpt>
      <trkpt lat="47.34456" lon="-1.62991">
        <ele>110</ele>
        <time>2022-07-30T07:42:45Z</time>
      </trkpt>
      <trkpt lat="47.34466" lon="-1.6298">
        <ele>110</ele>
        <time>2022-07-30T07:42:47Z</time>
      </trkpt>
      <trkpt lat="47.34476" lon="-1.62969">
        <ele>109</ele>
        <time>2022-07-30T07:42:49Z</time>
      </trkpt>
      <trkpt lat="47.34487" lon="-1.62959">
        <ele>109</ele>
        <time>2022-07-30T07:42:51Z</time>
      </trkpt>
      <trkpt lat="47.34498" lon="-1.62948">
        <ele>109</ele>
        <time>2022-07-30T07:42:53Z</time>
      </trkpt>
      <trkpt lat="47.34508" lon="-1.62937">
        <ele>109</ele>
        <time>2022-07-30T07:42:55Z</time>
      </trkpt>
      <trkpt lat="47.34519" lon="-1.62926">
        <ele>109</ele>
        <time>2022-07-30T07:42:57Z</time>
      </trkpt>
      <trkpt lat="47.34529" lon="-1.62915">
        <ele>109</ele>
        <time>2022-07-30T07:42:59Z</time>
      </trkpt>
      <trkpt lat="47.34539" lon="-1.62904">
        <ele>110</ele>
        <time>2022-07-30T07:43:01Z</time>
      </trkpt>
      <trkpt lat="47.34549" lon="-1.62894">
        <ele>110</ele>
        <time>2022-07-30T07:43:03Z</time>
      </trkpt>
      <trkpt lat="47.34559" lon="-1.62882">
        <ele>110</ele>
        <time>2022-07-30T07:43:05Z</time>
      </trkpt>
      <trkpt lat="47.3457" lon="-1.62872">
        <ele>110</ele>
        <time>2022-07-30T07:43:07Z</time>
      </trkpt>
      <trkpt lat="47.3458" lon="-1.62861">
        <ele>109</ele>
        <time>2022-07-30T07:43:09Z</time>
      </trkpt>
      <trkpt lat="47.3459" lon="-1.6285">
        <ele>110</ele>
        <time>2022-07-30T07:43:11Z</time>
      </trkpt>
      <trkpt lat="47.346" lon="-1.6284">
        <ele>110</ele>
        <time>2022-07-30T07:43:13Z</time>
      </trkpt>
      <trkpt lat="47.3461" lon="-1.62828">
        <ele>110</ele>
        <time>2022-07-30T07:43:15Z</time>
      </trkpt>
      <trkpt lat="47.34619" lon="-1.62817">
        <ele>110</ele>
        <time>2022-07-30T07:43:17Z</time>
      </trkpt>
      <trkpt lat="47.34628" lon="-1.62804">
        <ele>110</ele>
        <time>2022-07-30T07:43:19Z</time>
      </trkpt>
      <trkpt lat="47.34637" lon="-1.62791">
        <ele>110</ele>
        <time>2022-07-30T07:43:21Z</time>
      </trkpt>
      <trkpt lat="47.34646" lon="-1.62778">
        <ele>110</ele>
        <time>2022-07-30T07:43:23Z</time>
      </trkpt>
      <trkpt lat="47.34655" lon="-1.62765">
        <ele>110</ele>
        <time>2022-07-30T07:43:25Z</time>
      </trkpt>
      <trkpt lat="47.34664" lon="-1.62752">
        <ele>110</ele>
        <time>2022-07-30T07:43:27Z</time>
      </trkpt>
      <trkpt lat="47.34671" lon="-1.62737">
        <ele>109</ele>
        <time>2022-07-30T07:43:29Z</time>
      </trkpt>
      <trkpt lat="47.34678" lon="-1.6272">
        <ele>109</ele>
        <time>2022-07-30T07:43:31Z</time>
      </trkpt>
      <trkpt lat="47.34684" lon="-1.62704">
        <ele>109</ele>
        <time>2022-07-30T07:43:33Z</time>
      </trkpt>
      <trkpt lat="47.34691" lon="-1.62688">
        <ele>109</ele>
        <time>2022-07-30T07:43:35Z</time>
      </trkpt>
      <trkpt lat="47.34697" lon="-1.62672">
        <ele>109</ele>
        <time>2022-07-30T07:43:37Z</time>
      </trkpt>
      <trkpt lat="47.34704" lon="-1.62656">
        <ele>109</ele>
        <time>2022-07-30T07:43:39Z</time>
      </trkpt>
      <trkpt lat="47.3471" lon="-1.6264">
        <ele>108</ele>
        <time>2022-07-30T07:43:41Z</time>
      </trkpt>
      <trkpt lat="47.34716" lon="-1.62626">
        <ele>108</ele>
        <time>2022-07-30T07:43:43Z</time>
      </trkpt>
      <trkpt lat="47.34721" lon="-1.62612">
        <ele>108</ele>
        <time>2022-07-30T07:43:45Z</time>
      </trkpt>
      <trkpt lat="47.34726" lon="-1.62598">
        <ele>108</ele>
        <time>2022-07-30T07:43:47Z</time>
      </trkpt>
      <trkpt lat="47.3473" lon="-1.62584">
        <ele>108</ele>
        <time>2022-07-30T07:43:50Z</time>
      </trkpt>
      <trkpt lat="47.34738" lon="-1.62568">
        <ele>108</ele>
        <time>2022-07-30T07:43:53Z</time>
      </trkpt>
      <trkpt lat="47.34745" lon="-1.62554">
        <ele>108</ele>
        <time>2022-07-30T07:43:55Z</time>
      </trkpt>
      <trkpt lat="47.34751" lon="-1.62539">
        <ele>108</ele>
        <time>2022-07-30T07:43:57Z</time>
      </trkpt>
      <trkpt lat="47.34757" lon="-1.62523">
        <ele>109</ele>
        <time>2022-07-30T07:43:59Z</time>
      </trkpt>
      <trkpt lat="47.34764" lon="-1.62508">
        <ele>109</ele>
        <time>2022-07-30T07:44:01Z</time>
      </trkpt>
      <trkpt lat="47.34771" lon="-1.62492">
        <ele>109</ele>
        <time>2022-07-30T07:44:03Z</time>
      </trkpt>
      <trkpt lat="47.34778" lon="-1.62476">
        <ele>109</ele>
        <time>2022-07-30T07:44:05Z</time>
      </trkpt>
      <trkpt lat="47.34785" lon="-1.62461">
        <ele>108</ele>
        <time>2022-07-30T07:44:07Z</time>
      </trkpt>
      <trkpt lat="47.34794" lon="-1.62447">
        <ele>108</ele>
        <time>2022-07-30T07:44:09Z</time>
      </trkpt>
      <trkpt lat="47.34802" lon="-1.62433">
        <ele>108</ele>
        <time>2022-07-30T07:44:11Z</time>
      </trkpt>
      <trkpt lat="47.3481" lon="-1.62419">
        <ele>108</ele>
        <time>2022-07-30T07:44:13Z</time>
      </trkpt>
      <trkpt lat="47.34819" lon="-1.62406">
        <ele>108</ele>
        <time>2022-07-30T07:44:15Z</time>
      </trkpt>
      <trkpt lat="47.34827" lon="-1.62393">
        <ele>108</ele>
        <time>2022-07-30T07:44:17Z</time>
      </trkpt>
      <trkpt lat="47.34836" lon="-1.6238">
        <ele>109</ele>
        <time>2022-07-30T07:44:19Z</time>
      </trkpt>
      <trkpt lat="47.34843" lon="-1.62367">
        <ele>109</ele>
        <time>2022-07-30T07:44:21Z</time>
      </trkpt>
      <trkpt lat="47.34851" lon="-1.62354">
        <ele>109</ele>
        <time>2022-07-30T07:44:23Z</time>
      </trkpt>
      <trkpt lat="47.34859" lon="-1.62342">
        <ele>110</ele>
        <time>2022-07-30T07:44:25Z</time>
      </trkpt>
      <trkpt lat="47.34868" lon="-1.62329">
        <ele>110</ele>
        <time>2022-07-30T07:44:27Z</time>
      </trkpt>
      <trkpt lat="47.34876" lon="-1.62316">
        <ele>110</ele>
        <time>2022-07-30T07:44:29Z</time>
      </trkpt>
      <trkpt lat="47.34884" lon="-1.62302">
        <ele>111</ele>
        <time>2022-07-30T07:44:31Z</time>
      </trkpt>
      <trkpt lat="47.34893" lon="-1.62289">
        <ele>110</ele>
        <time>2022-07-30T07:44:33Z</time>
      </trkpt>
      <trkpt lat="47.34902" lon="-1.62277">
        <ele>111</ele>
        <time>2022-07-30T07:44:35Z</time>
      </trkpt>
      <trkpt lat="47.34911" lon="-1.62264">
        <ele>110</ele>
        <time>2022-07-30T07:44:37Z</time>
      </trkpt>
      <trkpt lat="47.3492" lon="-1.62252">
        <ele>111</ele>
        <time>2022-07-30T07:44:39Z</time>
      </trkpt>
      <trkpt lat="47.3493" lon="-1.62241">
        <ele>111</ele>
        <time>2022-07-30T07:44:41Z</time>
      </trkpt>
      <trkpt lat="47.34941" lon="-1.62231">
        <ele>110</ele>
        <time>2022-07-30T07:44:43Z</time>
      </trkpt>
      <trkpt lat="47.34952" lon="-1.62225">
        <ele>110</ele>
        <time>2022-07-30T07:44:45Z</time>
      </trkpt>
      <trkpt lat="47.34963" lon="-1.62218">
        <ele>109</ele>
        <time>2022-07-30T07:44:47Z</time>
      </trkpt>
      <trkpt lat="47.34975" lon="-1.62212">
        <ele>109</ele>
        <time>2022-07-30T07:44:49Z</time>
      </trkpt>
      <trkpt lat="47.34988" lon="-1.62206">
        <ele>109</ele>
        <time>2022-07-30T07:44:51Z</time>
      </trkpt>
      <trkpt lat="47.35" lon="-1.62198">
        <ele>108</ele>
        <time>2022-07-30T07:44:53Z</time>
      </trkpt>
      <trkpt lat="47.35011" lon="-1.62187">
        <ele>107</ele>
        <time>2022-07-30T07:44:55Z</time>
      </trkpt>
      <trkpt lat="47.35022" lon="-1.62174">
        <ele>107</ele>
        <time>2022-07-30T07:44:57Z</time>
      </trkpt>
      <trkpt lat="47.35032" lon="-1.6216">
        <ele>107</ele>
        <time>2022-07-30T07:44:59Z</time>
      </trkpt>
      <trkpt lat="47.35042" lon="-1.62145">
        <ele>106</ele>
        <time>2022-07-30T07:45:01Z</time>
      </trkpt>
      <trkpt lat="47.35053" lon="-1.62131">
        <ele>105</ele>
        <time>2022-07-30T07:45:03Z</time>
      </trkpt>
      <trkpt lat="47.35064" lon="-1.62116">
        <ele>105</ele>
        <time>2022-07-30T07:45:05Z</time>
      </trkpt>
      <trkpt lat="47.35075" lon="-1.62102">
        <ele>104</ele>
        <time>2022-07-30T07:45:07Z</time>
      </trkpt>
      <trkpt lat="47.35086" lon="-1.62087">
        <ele>104</ele>
        <time>2022-07-30T07:45:09Z</time>
      </trkpt>
      <trkpt lat="47.35097" lon="-1.62072">
        <ele>104</ele>
        <time>2022-07-30T07:45:11Z</time>
      </trkpt>
      <trkpt lat="47.35108" lon="-1.62058">
        <ele>104</ele>
        <time>2022-07-30T07:45:13Z</time>
      </trkpt>
      <trkpt lat="47.35119" lon="-1.62043">
        <ele>103</ele>
        <time>2022-07-30T07:45:15Z</time>
      </trkpt>
      <trkpt lat="47.35131" lon="-1.62028">
        <ele>103</ele>
        <time>2022-07-30T07:45:17Z</time>
      </trkpt>
      <trkpt lat="47.35142" lon="-1.62014">
        <ele>102</ele>
        <time>2022-07-30T07:45:19Z</time>
      </trkpt>
      <trkpt lat="47.35154" lon="-1.61999">
        <ele>102</ele>
        <time>2022-07-30T07:45:21Z</time>
      </trkpt>
      <trkpt lat="47.35165" lon="-1.61984">
        <ele>101</ele>
        <time>2022-07-30T07:45:23Z</time>
      </trkpt>
      <trkpt lat="47.35176" lon="-1.6197">
        <ele>101</ele>
        <time>2022-07-30T07:45:25Z</time>
      </trkpt>
      <trkpt lat="47.35187" lon="-1.61956">
        <ele>101</ele>
        <time>2022-07-30T07:45:27Z</time>
      </trkpt>
      <trkpt lat="47.35198" lon="-1.61942">
        <ele>101</ele>
        <time>2022-07-30T07:45:29Z</time>
      </trkpt>
      <trkpt lat="47.35209" lon="-1.61929">
        <ele>100</ele>
        <time>2022-07-30T07:45:31Z</time>
      </trkpt>
      <trkpt lat="47.3522" lon="-1.61915">
        <ele>100</ele>
        <time>2022-07-30T07:45:33Z</time>
      </trkpt>
      <trkpt lat="47.35231" lon="-1.61902">
        <ele>100</ele>
        <time>2022-07-30T07:45:35Z</time>
      </trkpt>
      <trkpt lat="47.35242" lon="-1.61888">
        <ele>100</ele>
        <time>2022-07-30T07:45:37Z</time>
      </trkpt>
      <trkpt lat="47.35253" lon="-1.61875">
        <ele>100</ele>
        <time>2022-07-30T07:45:39Z</time>
      </trkpt>
      <trkpt lat="47.35264" lon="-1.61862">
        <ele>99</ele>
        <time>2022-07-30T07:45:41Z</time>
      </trkpt>
      <trkpt lat="47.35275" lon="-1.61849">
        <ele>99</ele>
        <time>2022-07-30T07:45:43Z</time>
      </trkpt>
      <trkpt lat="47.35286" lon="-1.61836">
        <ele>99</ele>
        <time>2022-07-30T07:45:45Z</time>
      </trkpt>
      <trkpt lat="47.35298" lon="-1.61823">
        <ele>98</ele>
        <time>2022-07-30T07:45:47Z</time>
      </trkpt>
      <trkpt lat="47.35309" lon="-1.6181">
        <ele>98</ele>
        <time>2022-07-30T07:45:49Z</time>
      </trkpt>
      <trkpt lat="47.35321" lon="-1.61797">
        <ele>98</ele>
        <time>2022-07-30T07:45:51Z</time>
      </trkpt>
      <trkpt lat="47.35333" lon="-1.61783">
        <ele>98</ele>
        <time>2022-07-30T07:45:53Z</time>
      </trkpt>
      <trkpt lat="47.35345" lon="-1.61771">
        <ele>97</ele>
        <time>2022-07-30T07:45:55Z</time>
      </trkpt>
      <trkpt lat="47.35357" lon="-1.61758">
        <ele>98</ele>
        <time>2022-07-30T07:45:57Z</time>
      </trkpt>
      <trkpt lat="47.35369" lon="-1.61746">
        <ele>98</ele>
        <time>2022-07-30T07:45:59Z</time>
      </trkpt>
      <trkpt lat="47.35381" lon="-1.61735">
        <ele>99</ele>
        <time>2022-07-30T07:46:01Z</time>
      </trkpt>
      <trkpt lat="47.35393" lon="-1.61724">
        <ele>99</ele>
        <time>2022-07-30T07:46:03Z</time>
      </trkpt>
      <trkpt lat="47.35406" lon="-1.61714">
        <ele>100</ele>
        <time>2022-07-30T07:46:05Z</time>
      </trkpt>
      <trkpt lat="47.35418" lon="-1.61703">
        <ele>100</ele>
        <time>2022-07-30T07:46:07Z</time>
      </trkpt>
      <trkpt lat="47.35431" lon="-1.61692">
        <ele>99</ele>
        <time>2022-07-30T07:46:09Z</time>
      </trkpt>
      <trkpt lat="47.35443" lon="-1.61682">
        <ele>99</ele>
        <time>2022-07-30T07:46:11Z</time>
      </trkpt>
      <trkpt lat="47.35455" lon="-1.61671">
        <ele>99</ele>
        <time>2022-07-30T07:46:13Z</time>
      </trkpt>
      <trkpt lat="47.35468" lon="-1.61659">
        <ele>98</ele>
        <time>2022-07-30T07:46:15Z</time>
      </trkpt>
      <trkpt lat="47.35479" lon="-1.61649">
        <ele>97</ele>
        <time>2022-07-30T07:46:17Z</time>
      </trkpt>
      <trkpt lat="47.35491" lon="-1.6164">
        <ele>97</ele>
        <time>2022-07-30T07:46:19Z</time>
      </trkpt>
      <trkpt lat="47.35501" lon="-1.61632">
        <ele>97</ele>
        <time>2022-07-30T07:46:21Z</time>
      </trkpt>
      <trkpt lat="47.35509" lon="-1.61621">
        <ele>96</ele>
        <time>2022-07-30T07:46:23Z</time>
      </trkpt>
      <trkpt lat="47.35511" lon="-1.61605">
        <ele>96</ele>
        <time>2022-07-30T07:46:25Z</time>
      </trkpt>
      <trkpt lat="47.35508" lon="-1.61586">
        <ele>96</ele>
        <time>2022-07-30T07:46:27Z</time>
      </trkpt>
      <trkpt lat="47.35505" lon="-1.61567">
        <ele>96</ele>
        <time>2022-07-30T07:46:29Z</time>
      </trkpt>
      <trkpt lat="47.35502" lon="-1.61546">
        <ele>95</ele>
        <time>2022-07-30T07:46:31Z</time>
      </trkpt>
      <trkpt lat="47.35499" lon="-1.61525">
        <ele>95</ele>
        <time>2022-07-30T07:46:33Z</time>
      </trkpt>
      <trkpt lat="47.35496" lon="-1.61504">
        <ele>94</ele>
        <time>2022-07-30T07:46:35Z</time>
      </trkpt>
      <trkpt lat="47.35492" lon="-1.61481">
        <ele>94</ele>
        <time>2022-07-30T07:46:37Z</time>
      </trkpt>
      <trkpt lat="47.35489" lon="-1.61458">
        <ele>93</ele>
        <time>2022-07-30T07:46:39Z</time>
      </trkpt>
      <trkpt lat="47.35485" lon="-1.61435">
        <ele>93</ele>
        <time>2022-07-30T07:46:41Z</time>
      </trkpt>
      <trkpt lat="47.35482" lon="-1.61412">
        <ele>92</ele>
        <time>2022-07-30T07:46:43Z</time>
      </trkpt>
      <trkpt lat="47.35478" lon="-1.6139">
        <ele>92</ele>
        <time>2022-07-30T07:46:45Z</time>
      </trkpt>
      <trkpt lat="47.35473" lon="-1.61368">
        <ele>92</ele>
        <time>2022-07-30T07:46:47Z</time>
      </trkpt>
      <trkpt lat="47.35468" lon="-1.61346">
        <ele>91</ele>
        <time>2022-07-30T07:46:49Z</time>
      </trkpt>
      <trkpt lat="47.35463" lon="-1.61323">
        <ele>91</ele>
        <time>2022-07-30T07:46:51Z</time>
      </trkpt>
      <trkpt lat="47.35459" lon="-1.613">
        <ele>91</ele>
        <time>2022-07-30T07:46:53Z</time>
      </trkpt>
      <trkpt lat="47.35454" lon="-1.61278">
        <ele>91</ele>
        <time>2022-07-30T07:46:55Z</time>
      </trkpt>
      <trkpt lat="47.35449" lon="-1.61257">
        <ele>91</ele>
        <time>2022-07-30T07:46:57Z</time>
      </trkpt>
      <trkpt lat="47.35444" lon="-1.61235">
        <ele>91</ele>
        <time>2022-07-30T07:46:59Z</time>
      </trkpt>
      <trkpt lat="47.35441" lon="-1.61213">
        <ele>91</ele>
        <time>2022-07-30T07:47:01Z</time>
      </trkpt>
      <trkpt lat="47.35438" lon="-1.61192">
        <ele>91</ele>
        <time>2022-07-30T07:47:03Z</time>
      </trkpt>
      <trkpt lat="47.35437" lon="-1.6117">
        <ele>90</ele>
        <time>2022-07-30T07:47:05Z</time>
      </trkpt>
      <trkpt lat="47.35437" lon="-1.61148">
        <ele>90</ele>
        <time>2022-07-30T07:47:07Z</time>
      </trkpt>
      <trkpt lat="47.35437" lon="-1.61128">
        <ele>90</ele>
        <time>2022-07-30T07:47:09Z</time>
      </trkpt>
      <trkpt lat="47.35438" lon="-1.61107">
        <ele>91</ele>
        <time>2022-07-30T07:47:11Z</time>
      </trkpt>
      <trkpt lat="47.35438" lon="-1.61086">
        <ele>91</ele>
        <time>2022-07-30T07:47:13Z</time>
      </trkpt>
      <trkpt lat="47.35439" lon="-1.61066">
        <ele>90</ele>
        <time>2022-07-30T07:47:15Z</time>
      </trkpt>
      <trkpt lat="47.35439" lon="-1.61046">
        <ele>91</ele>
        <time>2022-07-30T07:47:17Z</time>
      </trkpt>
      <trkpt lat="47.35439" lon="-1.61026">
        <ele>92</ele>
        <time>2022-07-30T07:47:19Z</time>
      </trkpt>
      <trkpt lat="47.35439" lon="-1.61006">
        <ele>92</ele>
        <time>2022-07-30T07:47:21Z</time>
      </trkpt>
      <trkpt lat="47.35439" lon="-1.60986">
        <ele>92</ele>
        <time>2022-07-30T07:47:23Z</time>
      </trkpt>
      <trkpt lat="47.3544" lon="-1.60966">
        <ele>92</ele>
        <time>2022-07-30T07:47:25Z</time>
      </trkpt>
      <trkpt lat="47.35439" lon="-1.60946">
        <ele>92</ele>
        <time>2022-07-30T07:47:27Z</time>
      </trkpt>
      <trkpt lat="47.35439" lon="-1.60926">
        <ele>91</ele>
        <time>2022-07-30T07:47:29Z</time>
      </trkpt>
      <trkpt lat="47.35439" lon="-1.60907">
        <ele>91</ele>
        <time>2022-07-30T07:47:31Z</time>
      </trkpt>
      <trkpt lat="47.35438" lon="-1.60887">
        <ele>91</ele>
        <time>2022-07-30T07:47:33Z</time>
      </trkpt>
      <trkpt lat="47.35435" lon="-1.60869">
        <ele>92</ele>
        <time>2022-07-30T07:47:35Z</time>
      </trkpt>
      <trkpt lat="47.35431" lon="-1.60851">
        <ele>92</ele>
        <time>2022-07-30T07:47:37Z</time>
      </trkpt>
      <trkpt lat="47.35427" lon="-1.60833">
        <ele>92</ele>
        <time>2022-07-30T07:47:39Z</time>
      </trkpt>
      <trkpt lat="47.35423" lon="-1.60816">
        <ele>92</ele>
        <time>2022-07-30T07:47:41Z</time>
      </trkpt>
      <trkpt lat="47.3542" lon="-1.60799">
        <ele>93</ele>
        <time>2022-07-30T07:47:43Z</time>
      </trkpt>
      <trkpt lat="47.35418" lon="-1.60783">
        <ele>93</ele>
        <time>2022-07-30T07:47:45Z</time>
      </trkpt>
      <trkpt lat="47.35415" lon="-1.60767">
        <ele>94</ele>
        <time>2022-07-30T07:47:47Z</time>
      </trkpt>
      <trkpt lat="47.35412" lon="-1.60751">
        <ele>94</ele>
        <time>2022-07-30T07:47:49Z</time>
      </trkpt>
      <trkpt lat="47.3541" lon="-1.60734">
        <ele>94</ele>
        <time>2022-07-30T07:47:51Z</time>
      </trkpt>
      <trkpt lat="47.35409" lon="-1.60718">
        <ele>94</ele>
        <time>2022-07-30T07:47:53Z</time>
      </trkpt>
      <trkpt lat="47.35409" lon="-1.60701">
        <ele>94</ele>
        <time>2022-07-30T07:47:55Z</time>
      </trkpt>
      <trkpt lat="47.35409" lon="-1.60684">
        <ele>94</ele>
        <time>2022-07-30T07:47:57Z</time>
      </trkpt>
      <trkpt lat="47.35408" lon="-1.60668">
        <ele>94</ele>
        <time>2022-07-30T07:47:59Z</time>
      </trkpt>
      <trkpt lat="47.35409" lon="-1.60652">
        <ele>94</ele>
        <time>2022-07-30T07:48:01Z</time>
      </trkpt>
      <trkpt lat="47.35409" lon="-1.60636">
        <ele>94</ele>
        <time>2022-07-30T07:48:03Z</time>
      </trkpt>
      <trkpt lat="47.35409" lon="-1.6062">
        <ele>94</ele>
        <time>2022-07-30T07:48:05Z</time>
      </trkpt>
      <trkpt lat="47.3541" lon="-1.60604">
        <ele>95</ele>
        <time>2022-07-30T07:48:07Z</time>
      </trkpt>
      <trkpt lat="47.3541" lon="-1.60588">
        <ele>94</ele>
        <time>2022-07-30T07:48:09Z</time>
      </trkpt>
      <trkpt lat="47.35411" lon="-1.60571">
        <ele>94</ele>
        <time>2022-07-30T07:48:11Z</time>
      </trkpt>
      <trkpt lat="47.35411" lon="-1.60555">
        <ele>94</ele>
        <time>2022-07-30T07:48:13Z</time>
      </trkpt>
      <trkpt lat="47.35411" lon="-1.6054">
        <ele>95</ele>
        <time>2022-07-30T07:48:15Z</time>
      </trkpt>
      <trkpt lat="47.35412" lon="-1.60525">
        <ele>95</ele>
        <time>2022-07-30T07:48:17Z</time>
      </trkpt>
      <trkpt lat="47.35413" lon="-1.60507">
        <ele>95</ele>
        <time>2022-07-30T07:48:20Z</time>
      </trkpt>
      <trkpt lat="47.35412" lon="-1.60491">
        <ele>95</ele>
        <time>2022-07-30T07:48:22Z</time>
      </trkpt>
      <trkpt lat="47.35412" lon="-1.60473">
        <ele>95</ele>
        <time>2022-07-30T07:48:24Z</time>
      </trkpt>
      <trkpt lat="47.35413" lon="-1.60454">
        <ele>95</ele>
        <time>2022-07-30T07:48:26Z</time>
      </trkpt>
      <trkpt lat="47.35414" lon="-1.60435">
        <ele>95</ele>
        <time>2022-07-30T07:48:28Z</time>
      </trkpt>
      <trkpt lat="47.35415" lon="-1.60416">
        <ele>95</ele>
        <time>2022-07-30T07:48:30Z</time>
      </trkpt>
      <trkpt lat="47.35416" lon="-1.60396">
        <ele>95</ele>
        <time>2022-07-30T07:48:32Z</time>
      </trkpt>
      <trkpt lat="47.35417" lon="-1.60377">
        <ele>94</ele>
        <time>2022-07-30T07:48:34Z</time>
      </trkpt>
      <trkpt lat="47.35417" lon="-1.60357">
        <ele>94</ele>
        <time>2022-07-30T07:48:36Z</time>
      </trkpt>
      <trkpt lat="47.35418" lon="-1.60337">
        <ele>94</ele>
        <time>2022-07-30T07:48:38Z</time>
      </trkpt>
      <trkpt lat="47.35419" lon="-1.60318">
        <ele>95</ele>
        <time>2022-07-30T07:48:40Z</time>
      </trkpt>
      <trkpt lat="47.35419" lon="-1.60299">
        <ele>95</ele>
        <time>2022-07-30T07:48:42Z</time>
      </trkpt>
      <trkpt lat="47.3542" lon="-1.60281">
        <ele>95</ele>
        <time>2022-07-30T07:48:44Z</time>
      </trkpt>
      <trkpt lat="47.3542" lon="-1.60261">
        <ele>95</ele>
        <time>2022-07-30T07:48:46Z</time>
      </trkpt>
      <trkpt lat="47.35421" lon="-1.60243">
        <ele>95</ele>
        <time>2022-07-30T07:48:48Z</time>
      </trkpt>
      <trkpt lat="47.35422" lon="-1.60224">
        <ele>95</ele>
        <time>2022-07-30T07:48:50Z</time>
      </trkpt>
      <trkpt lat="47.35422" lon="-1.60205">
        <ele>95</ele>
        <time>2022-07-30T07:48:52Z</time>
      </trkpt>
      <trkpt lat="47.35422" lon="-1.60186">
        <ele>94</ele>
        <time>2022-07-30T07:48:54Z</time>
      </trkpt>
      <trkpt lat="47.35421" lon="-1.60167">
        <ele>94</ele>
        <time>2022-07-30T07:48:56Z</time>
      </trkpt>
      <trkpt lat="47.35419" lon="-1.60148">
        <ele>94</ele>
        <time>2022-07-30T07:48:58Z</time>
      </trkpt>
      <trkpt lat="47.35418" lon="-1.60128">
        <ele>93</ele>
        <time>2022-07-30T07:49:00Z</time>
      </trkpt>
      <trkpt lat="47.35418" lon="-1.60107">
        <ele>93</ele>
        <time>2022-07-30T07:49:02Z</time>
      </trkpt>
      <trkpt lat="47.3542" lon="-1.60087">
        <ele>93</ele>
        <time>2022-07-30T07:49:04Z</time>
      </trkpt>
      <trkpt lat="47.35424" lon="-1.60066">
        <ele>92</ele>
        <time>2022-07-30T07:49:06Z</time>
      </trkpt>
      <trkpt lat="47.35428" lon="-1.60047">
        <ele>92</ele>
        <time>2022-07-30T07:49:08Z</time>
      </trkpt>
      <trkpt lat="47.35434" lon="-1.60029">
        <ele>92</ele>
        <time>2022-07-30T07:49:10Z</time>
      </trkpt>
      <trkpt lat="47.35439" lon="-1.6001">
        <ele>92</ele>
        <time>2022-07-30T07:49:12Z</time>
      </trkpt>
      <trkpt lat="47.35443" lon="-1.59992">
        <ele>92</ele>
        <time>2022-07-30T07:49:14Z</time>
      </trkpt>
      <trkpt lat="47.35447" lon="-1.59974">
        <ele>92</ele>
        <time>2022-07-30T07:49:16Z</time>
      </trkpt>
      <trkpt lat="47.3545" lon="-1.59955">
        <ele>92</ele>
        <time>2022-07-30T07:49:18Z</time>
      </trkpt>
      <trkpt lat="47.35452" lon="-1.59936">
        <ele>93</ele>
        <time>2022-07-30T07:49:20Z</time>
      </trkpt>
      <trkpt lat="47.35454" lon="-1.59919">
        <ele>93</ele>
        <time>2022-07-30T07:49:22Z</time>
      </trkpt>
      <trkpt lat="47.35456" lon="-1.59902">
        <ele>94</ele>
        <time>2022-07-30T07:49:24Z</time>
      </trkpt>
      <trkpt lat="47.35458" lon="-1.59884">
        <ele>95</ele>
        <time>2022-07-30T07:49:26Z</time>
      </trkpt>
      <trkpt lat="47.3546" lon="-1.59866">
        <ele>95</ele>
        <time>2022-07-30T07:49:28Z</time>
      </trkpt>
      <trkpt lat="47.35463" lon="-1.59849">
        <ele>95</ele>
        <time>2022-07-30T07:49:30Z</time>
      </trkpt>
      <trkpt lat="47.35465" lon="-1.59831">
        <ele>95</ele>
        <time>2022-07-30T07:49:32Z</time>
      </trkpt>
      <trkpt lat="47.35467" lon="-1.59816">
        <ele>95</ele>
        <time>2022-07-30T07:49:34Z</time>
      </trkpt>
      <trkpt lat="47.35468" lon="-1.59802">
        <ele>95</ele>
        <time>2022-07-30T07:49:36Z</time>
      </trkpt>
      <trkpt lat="47.35456" lon="-1.5979">
        <ele>96</ele>
        <time>2022-07-30T07:49:39Z</time>
      </trkpt>
      <trkpt lat="47.35444" lon="-1.59786">
        <ele>95</ele>
        <time>2022-07-30T07:49:41Z</time>
      </trkpt>
      <trkpt lat="47.35432" lon="-1.59782">
        <ele>95</ele>
        <time>2022-07-30T07:49:43Z</time>
      </trkpt>
      <trkpt lat="47.35418" lon="-1.59778">
        <ele>95</ele>
        <time>2022-07-30T07:49:45Z</time>
      </trkpt>
      <trkpt lat="47.35404" lon="-1.59773">
        <ele>94</ele>
        <time>2022-07-30T07:49:47Z</time>
      </trkpt>
      <trkpt lat="47.35389" lon="-1.59768">
        <ele>94</ele>
        <time>2022-07-30T07:49:49Z</time>
      </trkpt>
      <trkpt lat="47.35374" lon="-1.59763">
        <ele>93</ele>
        <time>2022-07-30T07:49:51Z</time>
      </trkpt>
      <trkpt lat="47.35359" lon="-1.59756">
        <ele>93</ele>
        <time>2022-07-30T07:49:53Z</time>
      </trkpt>
      <trkpt lat="47.35345" lon="-1.59747">
        <ele>92</ele>
        <time>2022-07-30T07:49:55Z</time>
      </trkpt>
      <trkpt lat="47.3533" lon="-1.59736">
        <ele>92</ele>
        <time>2022-07-30T07:49:57Z</time>
      </trkpt>
      <trkpt lat="47.35316" lon="-1.59723">
        <ele>92</ele>
        <time>2022-07-30T07:49:59Z</time>
      </trkpt>
      <trkpt lat="47.35302" lon="-1.59707">
        <ele>91</ele>
        <time>2022-07-30T07:50:01Z</time>
      </trkpt>
      <trkpt lat="47.35288" lon="-1.59692">
        <ele>91</ele>
        <time>2022-07-30T07:50:03Z</time>
      </trkpt>
      <trkpt lat="47.35281" lon="-1.59684">
        <ele>91</ele>
        <time>2022-07-30T07:50:04Z</time>
      </trkpt>
      <trkpt lat="47.35274" lon="-1.59676">
        <ele>91</ele>
        <time>2022-07-30T07:50:05Z</time>
      </trkpt>
      <trkpt lat="47.35266" lon="-1.59666">
        <ele>90</ele>
        <time>2022-07-30T07:50:06Z</time>
      </trkpt>
      <trkpt lat="47.35259" lon="-1.59657">
        <ele>90</ele>
        <time>2022-07-30T07:50:07Z</time>
      </trkpt>
      <trkpt lat="47.35246" lon="-1.5964">
        <ele>90</ele>
        <time>2022-07-30T07:50:09Z</time>
      </trkpt>
      <trkpt lat="47.35232" lon="-1.59623">
        <ele>90</ele>
        <time>2022-07-30T07:50:11Z</time>
      </trkpt>
      <trkpt lat="47.35225" lon="-1.59615">
        <ele>90</ele>
        <time>2022-07-30T07:50:12Z</time>
      </trkpt>
      <trkpt lat="47.35218" lon="-1.59605">
        <ele>90</ele>
        <time>2022-07-30T07:50:13Z</time>
      </trkpt>
      <trkpt lat="47.35211" lon="-1.59595">
        <ele>90</ele>
        <time>2022-07-30T07:50:14Z</time>
      </trkpt>
      <trkpt lat="47.35203" lon="-1.59586">
        <ele>89</ele>
        <time>2022-07-30T07:50:15Z</time>
      </trkpt>
      <trkpt lat="47.35195" lon="-1.59575">
        <ele>88</ele>
        <time>2022-07-30T07:50:16Z</time>
      </trkpt>
      <trkpt lat="47.35187" lon="-1.59566">
        <ele>87</ele>
        <time>2022-07-30T07:50:17Z</time>
      </trkpt>
      <trkpt lat="47.35178" lon="-1.59556">
        <ele>86</ele>
        <time>2022-07-30T07:50:18Z</time>
      </trkpt>
      <trkpt lat="47.3517" lon="-1.59545">
        <ele>85</ele>
        <time>2022-07-30T07:50:19Z</time>
      </trkpt>
      <trkpt lat="47.35163" lon="-1.59535">
        <ele>84</ele>
        <time>2022-07-30T07:50:20Z</time>
      </trkpt>
      <trkpt lat="47.35155" lon="-1.59525">
        <ele>83</ele>
        <time>2022-07-30T07:50:21Z</time>
      </trkpt>
      <trkpt lat="47.35148" lon="-1.59516">
        <ele>82</ele>
        <time>2022-07-30T07:50:22Z</time>
      </trkpt>
      <trkpt lat="47.35139" lon="-1.59507">
        <ele>82</ele>
        <time>2022-07-30T07:50:23Z</time>
      </trkpt>
      <trkpt lat="47.35131" lon="-1.59497">
        <ele>80</ele>
        <time>2022-07-30T07:50:24Z</time>
      </trkpt>
      <trkpt lat="47.35123" lon="-1.59487">
        <ele>80</ele>
        <time>2022-07-30T07:50:25Z</time>
      </trkpt>
      <trkpt lat="47.35115" lon="-1.59477">
        <ele>79</ele>
        <time>2022-07-30T07:50:26Z</time>
      </trkpt>
      <trkpt lat="47.35107" lon="-1.59467">
        <ele>79</ele>
        <time>2022-07-30T07:50:27Z</time>
      </trkpt>
      <trkpt lat="47.351" lon="-1.59458">
        <ele>78</ele>
        <time>2022-07-30T07:50:28Z</time>
      </trkpt>
      <trkpt lat="47.35093" lon="-1.59449">
        <ele>78</ele>
        <time>2022-07-30T07:50:29Z</time>
      </trkpt>
      <trkpt lat="47.35085" lon="-1.59441">
        <ele>78</ele>
        <time>2022-07-30T07:50:30Z</time>
      </trkpt>
      <trkpt lat="47.35078" lon="-1.59432">
        <ele>78</ele>
        <time>2022-07-30T07:50:31Z</time>
      </trkpt>
      <trkpt lat="47.35071" lon="-1.59424">
        <ele>78</ele>
        <time>2022-07-30T07:50:32Z</time>
      </trkpt>
      <trkpt lat="47.35059" lon="-1.59408">
        <ele>79</ele>
        <time>2022-07-30T07:50:34Z</time>
      </trkpt>
      <trkpt lat="47.35047" lon="-1.59394">
        <ele>79</ele>
        <time>2022-07-30T07:50:36Z</time>
      </trkpt>
      <trkpt lat="47.35037" lon="-1.59382">
        <ele>80</ele>
        <time>2022-07-30T07:50:38Z</time>
      </trkpt>
      <trkpt lat="47.35027" lon="-1.5937">
        <ele>80</ele>
        <time>2022-07-30T07:50:40Z</time>
      </trkpt>
      <trkpt lat="47.35017" lon="-1.59359">
        <ele>81</ele>
        <time>2022-07-30T07:50:42Z</time>
      </trkpt>
      <trkpt lat="47.35008" lon="-1.59349">
        <ele>81</ele>
        <time>2022-07-30T07:50:44Z</time>
      </trkpt>
      <trkpt lat="47.35001" lon="-1.5934">
        <ele>82</ele>
        <time>2022-07-30T07:50:46Z</time>
      </trkpt>
      <trkpt lat="47.34993" lon="-1.5933">
        <ele>83</ele>
        <time>2022-07-30T07:50:48Z</time>
      </trkpt>
      <trkpt lat="47.34985" lon="-1.5932">
        <ele>84</ele>
        <time>2022-07-30T07:50:50Z</time>
      </trkpt>
      <trkpt lat="47.34978" lon="-1.5931">
        <ele>85</ele>
        <time>2022-07-30T07:50:52Z</time>
      </trkpt>
      <trkpt lat="47.3497" lon="-1.59301">
        <ele>86</ele>
        <time>2022-07-30T07:50:54Z</time>
      </trkpt>
      <trkpt lat="47.34962" lon="-1.59292">
        <ele>87</ele>
        <time>2022-07-30T07:50:56Z</time>
      </trkpt>
      <trkpt lat="47.34955" lon="-1.59282">
        <ele>88</ele>
        <time>2022-07-30T07:50:58Z</time>
      </trkpt>
      <trkpt lat="47.34948" lon="-1.59272">
        <ele>88</ele>
        <time>2022-07-30T07:51:00Z</time>
      </trkpt>
      <trkpt lat="47.3494" lon="-1.59262">
        <ele>88</ele>
        <time>2022-07-30T07:51:02Z</time>
      </trkpt>
      <trkpt lat="47.34932" lon="-1.59252">
        <ele>88</ele>
        <time>2022-07-30T07:51:04Z</time>
      </trkpt>
      <trkpt lat="47.34925" lon="-1.59243">
        <ele>88</ele>
        <time>2022-07-30T07:51:06Z</time>
      </trkpt>
      <trkpt lat="47.34917" lon="-1.59235">
        <ele>89</ele>
        <time>2022-07-30T07:51:08Z</time>
      </trkpt>
      <trkpt lat="47.34909" lon="-1.59227">
        <ele>89</ele>
        <time>2022-07-30T07:51:10Z</time>
      </trkpt>
      <trkpt lat="47.34902" lon="-1.59218">
        <ele>90</ele>
        <time>2022-07-30T07:51:12Z</time>
      </trkpt>
      <trkpt lat="47.34894" lon="-1.5921">
        <ele>92</ele>
        <time>2022-07-30T07:51:14Z</time>
      </trkpt>
      <trkpt lat="47.34887" lon="-1.59201">
        <ele>93</ele>
        <time>2022-07-30T07:51:16Z</time>
      </trkpt>
      <trkpt lat="47.34878" lon="-1.5919">
        <ele>93</ele>
        <time>2022-07-30T07:51:18Z</time>
      </trkpt>
      <trkpt lat="47.34871" lon="-1.59181">
        <ele>93</ele>
        <time>2022-07-30T07:51:20Z</time>
      </trkpt>
      <trkpt lat="47.34864" lon="-1.59171">
        <ele>93</ele>
        <time>2022-07-30T07:51:22Z</time>
      </trkpt>
      <trkpt lat="47.34856" lon="-1.59162">
        <ele>93</ele>
        <time>2022-07-30T07:51:24Z</time>
      </trkpt>
      <trkpt lat="47.34847" lon="-1.59151">
        <ele>93</ele>
        <time>2022-07-30T07:51:26Z</time>
      </trkpt>
      <trkpt lat="47.34839" lon="-1.59142">
        <ele>93</ele>
        <time>2022-07-30T07:51:28Z</time>
      </trkpt>
      <trkpt lat="47.34831" lon="-1.59132">
        <ele>93</ele>
        <time>2022-07-30T07:51:30Z</time>
      </trkpt>
      <trkpt lat="47.34823" lon="-1.59122">
        <ele>93</ele>
        <time>2022-07-30T07:51:32Z</time>
      </trkpt>
      <trkpt lat="47.34816" lon="-1.59113">
        <ele>94</ele>
        <time>2022-07-30T07:51:34Z</time>
      </trkpt>
      <trkpt lat="47.34809" lon="-1.59104">
        <ele>94</ele>
        <time>2022-07-30T07:51:36Z</time>
      </trkpt>
      <trkpt lat="47.34801" lon="-1.59095">
        <ele>94</ele>
        <time>2022-07-30T07:51:38Z</time>
      </trkpt>
      <trkpt lat="47.34794" lon="-1.59086">
        <ele>95</ele>
        <time>2022-07-30T07:51:40Z</time>
      </trkpt>
      <trkpt lat="47.34786" lon="-1.59076">
        <ele>95</ele>
        <time>2022-07-30T07:51:42Z</time>
      </trkpt>
      <trkpt lat="47.34779" lon="-1.59066">
        <ele>95</ele>
        <time>2022-07-30T07:51:44Z</time>
      </trkpt>
      <trkpt lat="47.34771" lon="-1.59057">
        <ele>95</ele>
        <time>2022-07-30T07:51:46Z</time>
      </trkpt>
      <trkpt lat="47.34764" lon="-1.59047">
        <ele>95</ele>
        <time>2022-07-30T07:51:48Z</time>
      </trkpt>
      <trkpt lat="47.34756" lon="-1.59037">
        <ele>95</ele>
        <time>2022-07-30T07:51:50Z</time>
      </trkpt>
      <trkpt lat="47.34747" lon="-1.59028">
        <ele>95</ele>
        <time>2022-07-30T07:51:52Z</time>
      </trkpt>
      <trkpt lat="47.34739" lon="-1.59018">
        <ele>95</ele>
        <time>2022-07-30T07:51:54Z</time>
      </trkpt>
      <trkpt lat="47.34731" lon="-1.59008">
        <ele>95</ele>
        <time>2022-07-30T07:51:56Z</time>
      </trkpt>
      <trkpt lat="47.34724" lon="-1.58998">
        <ele>95</ele>
        <time>2022-07-30T07:51:58Z</time>
      </trkpt>
      <trkpt lat="47.34716" lon="-1.58989">
        <ele>95</ele>
        <time>2022-07-30T07:52:00Z</time>
      </trkpt>
      <trkpt lat="47.34708" lon="-1.58979">
        <ele>95</ele>
        <time>2022-07-30T07:52:02Z</time>
      </trkpt>
      <trkpt lat="47.34699" lon="-1.58968">
        <ele>95</ele>
        <time>2022-07-30T07:52:04Z</time>
      </trkpt>
      <trkpt lat="47.34691" lon="-1.58959">
        <ele>95</ele>
        <time>2022-07-30T07:52:06Z</time>
      </trkpt>
      <trkpt lat="47.34682" lon="-1.58948">
        <ele>95</ele>
        <time>2022-07-30T07:52:08Z</time>
      </trkpt>
      <trkpt lat="47.34674" lon="-1.58937">
        <ele>96</ele>
        <time>2022-07-30T07:52:10Z</time>
      </trkpt>
      <trkpt lat="47.34664" lon="-1.58926">
        <ele>96</ele>
        <time>2022-07-30T07:52:12Z</time>
      </trkpt>
      <trkpt lat="47.34655" lon="-1.58915">
        <ele>96</ele>
        <time>2022-07-30T07:52:14Z</time>
      </trkpt>
      <trkpt lat="47.34646" lon="-1.58904">
        <ele>95</ele>
        <time>2022-07-30T07:52:16Z</time>
      </trkpt>
      <trkpt lat="47.34636" lon="-1.58891">
        <ele>95</ele>
        <time>2022-07-30T07:52:18Z</time>
      </trkpt>
      <trkpt lat="47.34627" lon="-1.5888">
        <ele>94</ele>
        <time>2022-07-30T07:52:20Z</time>
      </trkpt>
      <trkpt lat="47.34617" lon="-1.58868">
        <ele>94</ele>
        <time>2022-07-30T07:52:22Z</time>
      </trkpt>
      <trkpt lat="47.34607" lon="-1.58856">
        <ele>94</ele>
        <time>2022-07-30T07:52:24Z</time>
      </trkpt>
      <trkpt lat="47.34597" lon="-1.58844">
        <ele>94</ele>
        <time>2022-07-30T07:52:26Z</time>
      </trkpt>
      <trkpt lat="47.34587" lon="-1.58831">
        <ele>94</ele>
        <time>2022-07-30T07:52:28Z</time>
      </trkpt>
      <trkpt lat="47.34577" lon="-1.58819">
        <ele>93</ele>
        <time>2022-07-30T07:52:30Z</time>
      </trkpt>
      <trkpt lat="47.34567" lon="-1.58806">
        <ele>93</ele>
        <time>2022-07-30T07:52:32Z</time>
      </trkpt>
      <trkpt lat="47.34556" lon="-1.58793">
        <ele>94</ele>
        <time>2022-07-30T07:52:34Z</time>
      </trkpt>
      <trkpt lat="47.34545" lon="-1.58781">
        <ele>94</ele>
        <time>2022-07-30T07:52:36Z</time>
      </trkpt>
      <trkpt lat="47.34535" lon="-1.58767">
        <ele>93</ele>
        <time>2022-07-30T07:52:38Z</time>
      </trkpt>
      <trkpt lat="47.34524" lon="-1.58755">
        <ele>94</ele>
        <time>2022-07-30T07:52:40Z</time>
      </trkpt>
      <trkpt lat="47.34514" lon="-1.58742">
        <ele>94</ele>
        <time>2022-07-30T07:52:42Z</time>
      </trkpt>
      <trkpt lat="47.34505" lon="-1.5873">
        <ele>94</ele>
        <time>2022-07-30T07:52:44Z</time>
      </trkpt>
      <trkpt lat="47.34496" lon="-1.58717">
        <ele>94</ele>
        <time>2022-07-30T07:52:46Z</time>
      </trkpt>
      <trkpt lat="47.34487" lon="-1.58705">
        <ele>95</ele>
        <time>2022-07-30T07:52:48Z</time>
      </trkpt>
      <trkpt lat="47.34478" lon="-1.58693">
        <ele>95</ele>
        <time>2022-07-30T07:52:50Z</time>
      </trkpt>
      <trkpt lat="47.3447" lon="-1.5868">
        <ele>95</ele>
        <time>2022-07-30T07:52:52Z</time>
      </trkpt>
      <trkpt lat="47.34462" lon="-1.58667">
        <ele>96</ele>
        <time>2022-07-30T07:52:54Z</time>
      </trkpt>
      <trkpt lat="47.34454" lon="-1.58654">
        <ele>96</ele>
        <time>2022-07-30T07:52:56Z</time>
      </trkpt>
      <trkpt lat="47.34445" lon="-1.58641">
        <ele>96</ele>
        <time>2022-07-30T07:52:58Z</time>
      </trkpt>
      <trkpt lat="47.34437" lon="-1.58629">
        <ele>96</ele>
        <time>2022-07-30T07:53:00Z</time>
      </trkpt>
      <trkpt lat="47.34428" lon="-1.58617">
        <ele>96</ele>
        <time>2022-07-30T07:53:02Z</time>
      </trkpt>
      <trkpt lat="47.3442" lon="-1.58605">
        <ele>97</ele>
        <time>2022-07-30T07:53:04Z</time>
      </trkpt>
      <trkpt lat="47.34411" lon="-1.58593">
        <ele>97</ele>
        <time>2022-07-30T07:53:06Z</time>
      </trkpt>
      <trkpt lat="47.34402" lon="-1.58582">
        <ele>97</ele>
        <time>2022-07-30T07:53:08Z</time>
      </trkpt>
      <trkpt lat="47.34393" lon="-1.58571">
        <ele>97</ele>
        <time>2022-07-30T07:53:10Z</time>
      </trkpt>
      <trkpt lat="47.34384" lon="-1.5856">
        <ele>97</ele>
        <time>2022-07-30T07:53:12Z</time>
      </trkpt>
      <trkpt lat="47.34376" lon="-1.58549">
        <ele>98</ele>
        <time>2022-07-30T07:53:14Z</time>
      </trkpt>
      <trkpt lat="47.34367" lon="-1.58537">
        <ele>98</ele>
        <time>2022-07-30T07:53:16Z</time>
      </trkpt>
      <trkpt lat="47.34358" lon="-1.58526">
        <ele>99</ele>
        <time>2022-07-30T07:53:18Z</time>
      </trkpt>
      <trkpt lat="47.34349" lon="-1.58514">
        <ele>99</ele>
        <time>2022-07-30T07:53:20Z</time>
      </trkpt>
      <trkpt lat="47.3434" lon="-1.58502">
        <ele>99</ele>
        <time>2022-07-30T07:53:22Z</time>
      </trkpt>
      <trkpt lat="47.34331" lon="-1.5849">
        <ele>99</ele>
        <time>2022-07-30T07:53:24Z</time>
      </trkpt>
      <trkpt lat="47.34323" lon="-1.58478">
        <ele>98</ele>
        <time>2022-07-30T07:53:26Z</time>
      </trkpt>
      <trkpt lat="47.34314" lon="-1.58464">
        <ele>98</ele>
        <time>2022-07-30T07:53:28Z</time>
      </trkpt>
      <trkpt lat="47.34305" lon="-1.58451">
        <ele>98</ele>
        <time>2022-07-30T07:53:30Z</time>
      </trkpt>
      <trkpt lat="47.34295" lon="-1.58438">
        <ele>98</ele>
        <time>2022-07-30T07:53:32Z</time>
      </trkpt>
      <trkpt lat="47.34285" lon="-1.58424">
        <ele>98</ele>
        <time>2022-07-30T07:53:34Z</time>
      </trkpt>
      <trkpt lat="47.34274" lon="-1.5841">
        <ele>97</ele>
        <time>2022-07-30T07:53:36Z</time>
      </trkpt>
      <trkpt lat="47.34264" lon="-1.58395">
        <ele>97</ele>
        <time>2022-07-30T07:53:38Z</time>
      </trkpt>
      <trkpt lat="47.34253" lon="-1.58381">
        <ele>97</ele>
        <time>2022-07-30T07:53:40Z</time>
      </trkpt>
      <trkpt lat="47.34243" lon="-1.58366">
        <ele>96</ele>
        <time>2022-07-30T07:53:42Z</time>
      </trkpt>
      <trkpt lat="47.34232" lon="-1.58351">
        <ele>96</ele>
        <time>2022-07-30T07:53:44Z</time>
      </trkpt>
      <trkpt lat="47.34221" lon="-1.58337">
        <ele>95</ele>
        <time>2022-07-30T07:53:46Z</time>
      </trkpt>
      <trkpt lat="47.3421" lon="-1.58321">
        <ele>95</ele>
        <time>2022-07-30T07:53:48Z</time>
      </trkpt>
      <trkpt lat="47.342" lon="-1.58306">
        <ele>95</ele>
        <time>2022-07-30T07:53:50Z</time>
      </trkpt>
      <trkpt lat="47.34188" lon="-1.58291">
        <ele>94</ele>
        <time>2022-07-30T07:53:52Z</time>
      </trkpt>
      <trkpt lat="47.34177" lon="-1.58275">
        <ele>94</ele>
        <time>2022-07-30T07:53:54Z</time>
      </trkpt>
      <trkpt lat="47.34166" lon="-1.5826">
        <ele>94</ele>
        <time>2022-07-30T07:53:56Z</time>
      </trkpt>
      <trkpt lat="47.34155" lon="-1.58245">
        <ele>94</ele>
        <time>2022-07-30T07:53:58Z</time>
      </trkpt>
      <trkpt lat="47.34144" lon="-1.58229">
        <ele>93</ele>
        <time>2022-07-30T07:54:00Z</time>
      </trkpt>
      <trkpt lat="47.34133" lon="-1.58214">
        <ele>93</ele>
        <time>2022-07-30T07:54:02Z</time>
      </trkpt>
      <trkpt lat="47.34122" lon="-1.58199">
        <ele>93</ele>
        <time>2022-07-30T07:54:04Z</time>
      </trkpt>
      <trkpt lat="47.34111" lon="-1.58183">
        <ele>93</ele>
        <time>2022-07-30T07:54:06Z</time>
      </trkpt>
      <trkpt lat="47.341" lon="-1.58169">
        <ele>93</ele>
        <time>2022-07-30T07:54:08Z</time>
      </trkpt>
      <trkpt lat="47.34089" lon="-1.58155">
        <ele>94</ele>
        <time>2022-07-30T07:54:10Z</time>
      </trkpt>
      <trkpt lat="47.34078" lon="-1.5814">
        <ele>94</ele>
        <time>2022-07-30T07:54:12Z</time>
      </trkpt>
      <trkpt lat="47.34066" lon="-1.58125">
        <ele>94</ele>
        <time>2022-07-30T07:54:14Z</time>
      </trkpt>
      <trkpt lat="47.34055" lon="-1.58108">
        <ele>93</ele>
        <time>2022-07-30T07:54:16Z</time>
      </trkpt>
      <trkpt lat="47.34043" lon="-1.58093">
        <ele>92</ele>
        <time>2022-07-30T07:54:18Z</time>
      </trkpt>
      <trkpt lat="47.34032" lon="-1.58077">
        <ele>92</ele>
        <time>2022-07-30T07:54:20Z</time>
      </trkpt>
      <trkpt lat="47.34021" lon="-1.58062">
        <ele>92</ele>
        <time>2022-07-30T07:54:22Z</time>
      </trkpt>
      <trkpt lat="47.34009" lon="-1.58046">
        <ele>92</ele>
        <time>2022-07-30T07:54:24Z</time>
      </trkpt>
      <trkpt lat="47.33998" lon="-1.5803">
        <ele>91</ele>
        <time>2022-07-30T07:54:26Z</time>
      </trkpt>
      <trkpt lat="47.33987" lon="-1.58016">
        <ele>91</ele>
        <time>2022-07-30T07:54:28Z</time>
      </trkpt>
      <trkpt lat="47.33976" lon="-1.58002">
        <ele>90</ele>
        <time>2022-07-30T07:54:30Z</time>
      </trkpt>
      <trkpt lat="47.33965" lon="-1.57987">
        <ele>90</ele>
        <time>2022-07-30T07:54:32Z</time>
      </trkpt>
      <trkpt lat="47.33955" lon="-1.57973">
        <ele>90</ele>
        <time>2022-07-30T07:54:34Z</time>
      </trkpt>
      <trkpt lat="47.33945" lon="-1.57959">
        <ele>89</ele>
        <time>2022-07-30T07:54:36Z</time>
      </trkpt>
      <trkpt lat="47.33936" lon="-1.57946">
        <ele>89</ele>
        <time>2022-07-30T07:54:38Z</time>
      </trkpt>
      <trkpt lat="47.33926" lon="-1.57933">
        <ele>89</ele>
        <time>2022-07-30T07:54:40Z</time>
      </trkpt>
      <trkpt lat="47.33917" lon="-1.57921">
        <ele>90</ele>
        <time>2022-07-30T07:54:42Z</time>
      </trkpt>
      <trkpt lat="47.33909" lon="-1.57909">
        <ele>90</ele>
        <time>2022-07-30T07:54:44Z</time>
      </trkpt>
      <trkpt lat="47.33899" lon="-1.57897">
        <ele>90</ele>
        <time>2022-07-30T07:54:46Z</time>
      </trkpt>
      <trkpt lat="47.3389" lon="-1.57885">
        <ele>90</ele>
        <time>2022-07-30T07:54:48Z</time>
      </trkpt>
      <trkpt lat="47.33881" lon="-1.57874">
        <ele>91</ele>
        <time>2022-07-30T07:54:50Z</time>
      </trkpt>
      <trkpt lat="47.33873" lon="-1.57863">
        <ele>91</ele>
        <time>2022-07-30T07:54:52Z</time>
      </trkpt>
      <trkpt lat="47.33864" lon="-1.57854">
        <ele>90</ele>
        <time>2022-07-30T07:54:54Z</time>
      </trkpt>
      <trkpt lat="47.33856" lon="-1.57847">
        <ele>91</ele>
        <time>2022-07-30T07:54:56Z</time>
      </trkpt>
      <trkpt lat="47.33845" lon="-1.5784">
        <ele>91</ele>
        <time>2022-07-30T07:54:59Z</time>
      </trkpt>
      <trkpt lat="47.33839" lon="-1.57824">
        <ele>91</ele>
        <time>2022-07-30T07:55:02Z</time>
      </trkpt>
      <trkpt lat="47.3384" lon="-1.57809">
        <ele>91</ele>
        <time>2022-07-30T07:55:04Z</time>
      </trkpt>
      <trkpt lat="47.33844" lon="-1.57793">
        <ele>92</ele>
        <time>2022-07-30T07:55:06Z</time>
      </trkpt>
      <trkpt lat="47.33849" lon="-1.57776">
        <ele>91</ele>
        <time>2022-07-30T07:55:08Z</time>
      </trkpt>
      <trkpt lat="47.33855" lon="-1.57761">
        <ele>92</ele>
        <time>2022-07-30T07:55:10Z</time>
      </trkpt>
      <trkpt lat="47.3386" lon="-1.57744">
        <ele>92</ele>
        <time>2022-07-30T07:55:12Z</time>
      </trkpt>
      <trkpt lat="47.33864" lon="-1.57728">
        <ele>92</ele>
        <time>2022-07-30T07:55:14Z</time>
      </trkpt>
      <trkpt lat="47.33868" lon="-1.57712">
        <ele>92</ele>
        <time>2022-07-30T07:55:16Z</time>
      </trkpt>
      <trkpt lat="47.33873" lon="-1.57696">
        <ele>92</ele>
        <time>2022-07-30T07:55:18Z</time>
      </trkpt>
      <trkpt lat="47.33877" lon="-1.57681">
        <ele>93</ele>
        <time>2022-07-30T07:55:20Z</time>
      </trkpt>
      <trkpt lat="47.33881" lon="-1.57665">
        <ele>93</ele>
        <time>2022-07-30T07:55:22Z</time>
      </trkpt>
      <trkpt lat="47.33885" lon="-1.5765">
        <ele>92</ele>
        <time>2022-07-30T07:55:24Z</time>
      </trkpt>
      <trkpt lat="47.3389" lon="-1.57634">
        <ele>93</ele>
        <time>2022-07-30T07:55:26Z</time>
      </trkpt>
      <trkpt lat="47.33894" lon="-1.57618">
        <ele>93</ele>
        <time>2022-07-30T07:55:28Z</time>
      </trkpt>
      <trkpt lat="47.33899" lon="-1.57603">
        <ele>93</ele>
        <time>2022-07-30T07:55:30Z</time>
      </trkpt>
      <trkpt lat="47.33903" lon="-1.57587">
        <ele>93</ele>
        <time>2022-07-30T07:55:32Z</time>
      </trkpt>
      <trkpt lat="47.33908" lon="-1.57571">
        <ele>93</ele>
        <time>2022-07-30T07:55:34Z</time>
      </trkpt>
      <trkpt lat="47.33914" lon="-1.57554">
        <ele>93</ele>
        <time>2022-07-30T07:55:36Z</time>
      </trkpt>
      <trkpt lat="47.33919" lon="-1.57537">
        <ele>92</ele>
        <time>2022-07-30T07:55:38Z</time>
      </trkpt>
      <trkpt lat="47.33924" lon="-1.57518">
        <ele>93</ele>
        <time>2022-07-30T07:55:40Z</time>
      </trkpt>
      <trkpt lat="47.33929" lon="-1.57498">
        <ele>92</ele>
        <time>2022-07-30T07:55:42Z</time>
      </trkpt>
      <trkpt lat="47.33935" lon="-1.57478">
        <ele>91</ele>
        <time>2022-07-30T07:55:44Z</time>
      </trkpt>
      <trkpt lat="47.3394" lon="-1.57458">
        <ele>91</ele>
        <time>2022-07-30T07:55:46Z</time>
      </trkpt>
      <trkpt lat="47.33946" lon="-1.57438">
        <ele>89</ele>
        <time>2022-07-30T07:55:48Z</time>
      </trkpt>
      <trkpt lat="47.33952" lon="-1.57418">
        <ele>89</ele>
        <time>2022-07-30T07:55:50Z</time>
      </trkpt>
      <trkpt lat="47.33958" lon="-1.57398">
        <ele>88</ele>
        <time>2022-07-30T07:55:52Z</time>
      </trkpt>
      <trkpt lat="47.33964" lon="-1.57376">
        <ele>87</ele>
        <time>2022-07-30T07:55:54Z</time>
      </trkpt>
      <trkpt lat="47.33971" lon="-1.57354">
        <ele>87</ele>
        <time>2022-07-30T07:55:56Z</time>
      </trkpt>
      <trkpt lat="47.33977" lon="-1.5733">
        <ele>86</ele>
        <time>2022-07-30T07:55:58Z</time>
      </trkpt>
      <trkpt lat="47.33981" lon="-1.57306">
        <ele>86</ele>
        <time>2022-07-30T07:56:00Z</time>
      </trkpt>
      <trkpt lat="47.33984" lon="-1.57282">
        <ele>85</ele>
        <time>2022-07-30T07:56:02Z</time>
      </trkpt>
      <trkpt lat="47.33986" lon="-1.57258">
        <ele>84</ele>
        <time>2022-07-30T07:56:04Z</time>
      </trkpt>
      <trkpt lat="47.33989" lon="-1.57221">
        <ele>84</ele>
        <time>2022-07-30T07:56:07Z</time>
      </trkpt>
      <trkpt lat="47.33991" lon="-1.57198">
        <ele>84</ele>
        <time>2022-07-30T07:56:09Z</time>
      </trkpt>
      <trkpt lat="47.33993" lon="-1.57175">
        <ele>84</ele>
        <time>2022-07-30T07:56:11Z</time>
      </trkpt>
      <trkpt lat="47.33993" lon="-1.57153">
        <ele>84</ele>
        <time>2022-07-30T07:56:13Z</time>
      </trkpt>
      <trkpt lat="47.33993" lon="-1.57131">
        <ele>84</ele>
        <time>2022-07-30T07:56:15Z</time>
      </trkpt>
      <trkpt lat="47.33994" lon="-1.57109">
        <ele>84</ele>
        <time>2022-07-30T07:56:17Z</time>
      </trkpt>
      <trkpt lat="47.33995" lon="-1.57087">
        <ele>83</ele>
        <time>2022-07-30T07:56:19Z</time>
      </trkpt>
      <trkpt lat="47.33994" lon="-1.57065">
        <ele>83</ele>
        <time>2022-07-30T07:56:21Z</time>
      </trkpt>
      <trkpt lat="47.33994" lon="-1.57042">
        <ele>82</ele>
        <time>2022-07-30T07:56:23Z</time>
      </trkpt>
      <trkpt lat="47.33995" lon="-1.57019">
        <ele>81</ele>
        <time>2022-07-30T07:56:25Z</time>
      </trkpt>
      <trkpt lat="47.33994" lon="-1.56996">
        <ele>81</ele>
        <time>2022-07-30T07:56:27Z</time>
      </trkpt>
      <trkpt lat="47.33996" lon="-1.56974">
        <ele>81</ele>
        <time>2022-07-30T07:56:29Z</time>
      </trkpt>
      <trkpt lat="47.33997" lon="-1.5695">
        <ele>80</ele>
        <time>2022-07-30T07:56:31Z</time>
      </trkpt>
      <trkpt lat="47.33997" lon="-1.56927">
        <ele>80</ele>
        <time>2022-07-30T07:56:33Z</time>
      </trkpt>
      <trkpt lat="47.33998" lon="-1.56903">
        <ele>79</ele>
        <time>2022-07-30T07:56:35Z</time>
      </trkpt>
      <trkpt lat="47.33999" lon="-1.56878">
        <ele>79</ele>
        <time>2022-07-30T07:56:37Z</time>
      </trkpt>
      <trkpt lat="47.34001" lon="-1.56853">
        <ele>79</ele>
        <time>2022-07-30T07:56:39Z</time>
      </trkpt>
      <trkpt lat="47.34002" lon="-1.56831">
        <ele>79</ele>
        <time>2022-07-30T07:56:41Z</time>
      </trkpt>
      <trkpt lat="47.34003" lon="-1.56809">
        <ele>79</ele>
        <time>2022-07-30T07:56:43Z</time>
      </trkpt>
      <trkpt lat="47.34004" lon="-1.56788">
        <ele>79</ele>
        <time>2022-07-30T07:56:45Z</time>
      </trkpt>
      <trkpt lat="47.34005" lon="-1.56768">
        <ele>79</ele>
        <time>2022-07-30T07:56:47Z</time>
      </trkpt>
      <trkpt lat="47.34005" lon="-1.56749">
        <ele>79</ele>
        <time>2022-07-30T07:56:49Z</time>
      </trkpt>
      <trkpt lat="47.34006" lon="-1.56731">
        <ele>79</ele>
        <time>2022-07-30T07:56:51Z</time>
      </trkpt>
      <trkpt lat="47.34007" lon="-1.56712">
        <ele>79</ele>
        <time>2022-07-30T07:56:53Z</time>
      </trkpt>
      <trkpt lat="47.34007" lon="-1.56693">
        <ele>79</ele>
        <time>2022-07-30T07:56:55Z</time>
      </trkpt>
      <trkpt lat="47.34008" lon="-1.56674">
        <ele>78</ele>
        <time>2022-07-30T07:56:57Z</time>
      </trkpt>
      <trkpt lat="47.34009" lon="-1.56653">
        <ele>78</ele>
        <time>2022-07-30T07:56:59Z</time>
      </trkpt>
      <trkpt lat="47.3401" lon="-1.56631">
        <ele>77</ele>
        <time>2022-07-30T07:57:01Z</time>
      </trkpt>
      <trkpt lat="47.34011" lon="-1.56609">
        <ele>77</ele>
        <time>2022-07-30T07:57:03Z</time>
      </trkpt>
      <trkpt lat="47.34011" lon="-1.56586">
        <ele>76</ele>
        <time>2022-07-30T07:57:05Z</time>
      </trkpt>
      <trkpt lat="47.34012" lon="-1.56564">
        <ele>76</ele>
        <time>2022-07-30T07:57:07Z</time>
      </trkpt>
      <trkpt lat="47.34014" lon="-1.56541">
        <ele>75</ele>
        <time>2022-07-30T07:57:09Z</time>
      </trkpt>
      <trkpt lat="47.34015" lon="-1.56518">
        <ele>74</ele>
        <time>2022-07-30T07:57:11Z</time>
      </trkpt>
      <trkpt lat="47.34016" lon="-1.56493">
        <ele>74</ele>
        <time>2022-07-30T07:57:13Z</time>
      </trkpt>
      <trkpt lat="47.34017" lon="-1.56469">
        <ele>74</ele>
        <time>2022-07-30T07:57:15Z</time>
      </trkpt>
      <trkpt lat="47.34018" lon="-1.56445">
        <ele>74</ele>
        <time>2022-07-30T07:57:17Z</time>
      </trkpt>
      <trkpt lat="47.34019" lon="-1.56422">
        <ele>74</ele>
        <time>2022-07-30T07:57:19Z</time>
      </trkpt>
      <trkpt lat="47.3402" lon="-1.56399">
        <ele>74</ele>
        <time>2022-07-30T07:57:21Z</time>
      </trkpt>
      <trkpt lat="47.34021" lon="-1.56378">
        <ele>74</ele>
        <time>2022-07-30T07:57:23Z</time>
      </trkpt>
      <trkpt lat="47.34021" lon="-1.56356">
        <ele>74</ele>
        <time>2022-07-30T07:57:25Z</time>
      </trkpt>
      <trkpt lat="47.34019" lon="-1.56334">
        <ele>75</ele>
        <time>2022-07-30T07:57:27Z</time>
      </trkpt>
      <trkpt lat="47.34016" lon="-1.56312">
        <ele>75</ele>
        <time>2022-07-30T07:57:29Z</time>
      </trkpt>
      <trkpt lat="47.34012" lon="-1.5629">
        <ele>74</ele>
        <time>2022-07-30T07:57:31Z</time>
      </trkpt>
      <trkpt lat="47.34009" lon="-1.56267">
        <ele>74</ele>
        <time>2022-07-30T07:57:33Z</time>
      </trkpt>
      <trkpt lat="47.34006" lon="-1.56243">
        <ele>73</ele>
        <time>2022-07-30T07:57:35Z</time>
      </trkpt>
      <trkpt lat="47.34002" lon="-1.5622">
        <ele>74</ele>
        <time>2022-07-30T07:57:37Z</time>
      </trkpt>
      <trkpt lat="47.33999" lon="-1.56197">
        <ele>74</ele>
        <time>2022-07-30T07:57:39Z</time>
      </trkpt>
      <trkpt lat="47.33995" lon="-1.56171">
        <ele>74</ele>
        <time>2022-07-30T07:57:41Z</time>
      </trkpt>
      <trkpt lat="47.33993" lon="-1.56158">
        <ele>74</ele>
        <time>2022-07-30T07:57:42Z</time>
      </trkpt>
      <trkpt lat="47.33992" lon="-1.56144">
        <ele>74</ele>
        <time>2022-07-30T07:57:43Z</time>
      </trkpt>
      <trkpt lat="47.3399" lon="-1.5613">
        <ele>74</ele>
        <time>2022-07-30T07:57:44Z</time>
      </trkpt>
      <trkpt lat="47.33988" lon="-1.56117">
        <ele>74</ele>
        <time>2022-07-30T07:57:45Z</time>
      </trkpt>
      <trkpt lat="47.33986" lon="-1.56104">
        <ele>74</ele>
        <time>2022-07-30T07:57:46Z</time>
      </trkpt>
      <trkpt lat="47.33985" lon="-1.56091">
        <ele>74</ele>
        <time>2022-07-30T07:57:47Z</time>
      </trkpt>
      <trkpt lat="47.33983" lon="-1.56077">
        <ele>74</ele>
        <time>2022-07-30T07:57:48Z</time>
      </trkpt>
      <trkpt lat="47.33983" lon="-1.56061">
        <ele>72</ele>
        <time>2022-07-30T07:57:49Z</time>
      </trkpt>
      <trkpt lat="47.33985" lon="-1.56047">
        <ele>71</ele>
        <time>2022-07-30T07:57:50Z</time>
      </trkpt>
      <trkpt lat="47.33988" lon="-1.56033">
        <ele>70</ele>
        <time>2022-07-30T07:57:51Z</time>
      </trkpt>
      <trkpt lat="47.33992" lon="-1.56021">
        <ele>69</ele>
        <time>2022-07-30T07:57:52Z</time>
      </trkpt>
      <trkpt lat="47.33998" lon="-1.56009">
        <ele>68</ele>
        <time>2022-07-30T07:57:53Z</time>
      </trkpt>
      <trkpt lat="47.34005" lon="-1.55999">
        <ele>67</ele>
        <time>2022-07-30T07:57:54Z</time>
      </trkpt>
      <trkpt lat="47.34012" lon="-1.5599">
        <ele>66</ele>
        <time>2022-07-30T07:57:55Z</time>
      </trkpt>
      <trkpt lat="47.34019" lon="-1.5598">
        <ele>65</ele>
        <time>2022-07-30T07:57:56Z</time>
      </trkpt>
      <trkpt lat="47.34027" lon="-1.55971">
        <ele>65</ele>
        <time>2022-07-30T07:57:57Z</time>
      </trkpt>
      <trkpt lat="47.34034" lon="-1.55963">
        <ele>64</ele>
        <time>2022-07-30T07:57:58Z</time>
      </trkpt>
      <trkpt lat="47.34041" lon="-1.55954">
        <ele>64</ele>
        <time>2022-07-30T07:57:59Z</time>
      </trkpt>
      <trkpt lat="47.34055" lon="-1.55937">
        <ele>64</ele>
        <time>2022-07-30T07:58:01Z</time>
      </trkpt>
      <trkpt lat="47.34065" lon="-1.55917">
        <ele>63</ele>
        <time>2022-07-30T07:58:03Z</time>
      </trkpt>
      <trkpt lat="47.34068" lon="-1.55896">
        <ele>63</ele>
        <time>2022-07-30T07:58:05Z</time>
      </trkpt>
      <trkpt lat="47.34068" lon="-1.55876">
        <ele>64</ele>
        <time>2022-07-30T07:58:07Z</time>
      </trkpt>
      <trkpt lat="47.34065" lon="-1.55859">
        <ele>64</ele>
        <time>2022-07-30T07:58:09Z</time>
      </trkpt>
      <trkpt lat="47.34062" lon="-1.55845">
        <ele>65</ele>
        <time>2022-07-30T07:58:11Z</time>
      </trkpt>
      <trkpt lat="47.34059" lon="-1.5583">
        <ele>66</ele>
        <time>2022-07-30T07:58:13Z</time>
      </trkpt>
      <trkpt lat="47.34057" lon="-1.55815">
        <ele>67</ele>
        <time>2022-07-30T07:58:15Z</time>
      </trkpt>
      <trkpt lat="47.34055" lon="-1.55799">
        <ele>68</ele>
        <time>2022-07-30T07:58:17Z</time>
      </trkpt>
      <trkpt lat="47.34054" lon="-1.55782">
        <ele>68</ele>
        <time>2022-07-30T07:58:19Z</time>
      </trkpt>
      <trkpt lat="47.34054" lon="-1.55765">
        <ele>68</ele>
        <time>2022-07-30T07:58:21Z</time>
      </trkpt>
      <trkpt lat="47.34056" lon="-1.55748">
        <ele>68</ele>
        <time>2022-07-30T07:58:23Z</time>
      </trkpt>
      <trkpt lat="47.34059" lon="-1.55731">
        <ele>68</ele>
        <time>2022-07-30T07:58:25Z</time>
      </trkpt>
      <trkpt lat="47.34062" lon="-1.55715">
        <ele>68</ele>
        <time>2022-07-30T07:58:27Z</time>
      </trkpt>
      <trkpt lat="47.34066" lon="-1.55699">
        <ele>69</ele>
        <time>2022-07-30T07:58:29Z</time>
      </trkpt>
      <trkpt lat="47.34069" lon="-1.55683">
        <ele>69</ele>
        <time>2022-07-30T07:58:31Z</time>
      </trkpt>
      <trkpt lat="47.34073" lon="-1.55666">
        <ele>69</ele>
        <time>2022-07-30T07:58:33Z</time>
      </trkpt>
      <trkpt lat="47.34076" lon="-1.5565">
        <ele>69</ele>
        <time>2022-07-30T07:58:35Z</time>
      </trkpt>
      <trkpt lat="47.3408" lon="-1.55634">
        <ele>70</ele>
        <time>2022-07-30T07:58:37Z</time>
      </trkpt>
      <trkpt lat="47.34083" lon="-1.55618">
        <ele>70</ele>
        <time>2022-07-30T07:58:39Z</time>
      </trkpt>
      <trkpt lat="47.34087" lon="-1.55603">
        <ele>71</ele>
        <time>2022-07-30T07:58:41Z</time>
      </trkpt>
      <trkpt lat="47.34092" lon="-1.55587">
        <ele>71</ele>
        <time>2022-07-30T07:58:43Z</time>
      </trkpt>
      <trkpt lat="47.34097" lon="-1.55572">
        <ele>71</ele>
        <time>2022-07-30T07:58:45Z</time>
      </trkpt>
      <trkpt lat="47.34102" lon="-1.55556">
        <ele>71</ele>
        <time>2022-07-30T07:58:47Z</time>
      </trkpt>
      <trkpt lat="47.34108" lon="-1.55538">
        <ele>69</ele>
        <time>2022-07-30T07:58:49Z</time>
      </trkpt>
      <trkpt lat="47.34115" lon="-1.55523">
        <ele>69</ele>
        <time>2022-07-30T07:58:51Z</time>
      </trkpt>
      <trkpt lat="47.34122" lon="-1.55508">
        <ele>69</ele>
        <time>2022-07-30T07:58:53Z</time>
      </trkpt>
      <trkpt lat="47.34129" lon="-1.55495">
        <ele>68</ele>
        <time>2022-07-30T07:58:55Z</time>
      </trkpt>
      <trkpt lat="47.34137" lon="-1.55481">
        <ele>68</ele>
        <time>2022-07-30T07:58:57Z</time>
      </trkpt>
      <trkpt lat="47.34145" lon="-1.55468">
        <ele>68</ele>
        <time>2022-07-30T07:58:59Z</time>
      </trkpt>
      <trkpt lat="47.34153" lon="-1.55456">
        <ele>68</ele>
        <time>2022-07-30T07:59:01Z</time>
      </trkpt>
      <trkpt lat="47.34161" lon="-1.55443">
        <ele>68</ele>
        <time>2022-07-30T07:59:03Z</time>
      </trkpt>
      <trkpt lat="47.34169" lon="-1.55431">
        <ele>68</ele>
        <time>2022-07-30T07:59:05Z</time>
      </trkpt>
      <trkpt lat="47.34177" lon="-1.55419">
        <ele>68</ele>
        <time>2022-07-30T07:59:07Z</time>
      </trkpt>
      <trkpt lat="47.34185" lon="-1.55407">
        <ele>68</ele>
        <time>2022-07-30T07:59:09Z</time>
      </trkpt>
      <trkpt lat="47.34194" lon="-1.55395">
        <ele>68</ele>
        <time>2022-07-30T07:59:11Z</time>
      </trkpt>
      <trkpt lat="47.34202" lon="-1.55383">
        <ele>68</ele>
        <time>2022-07-30T07:59:13Z</time>
      </trkpt>
      <trkpt lat="47.3421" lon="-1.55371">
        <ele>68</ele>
        <time>2022-07-30T07:59:15Z</time>
      </trkpt>
      <trkpt lat="47.34219" lon="-1.55357">
        <ele>67</ele>
        <time>2022-07-30T07:59:17Z</time>
      </trkpt>
      <trkpt lat="47.34227" lon="-1.55344">
        <ele>67</ele>
        <time>2022-07-30T07:59:19Z</time>
      </trkpt>
      <trkpt lat="47.34236" lon="-1.55331">
        <ele>67</ele>
        <time>2022-07-30T07:59:21Z</time>
      </trkpt>
      <trkpt lat="47.34246" lon="-1.55316">
        <ele>67</ele>
        <time>2022-07-30T07:59:23Z</time>
      </trkpt>
      <trkpt lat="47.34256" lon="-1.55301">
        <ele>67</ele>
        <time>2022-07-30T07:59:25Z</time>
      </trkpt>
      <trkpt lat="47.34266" lon="-1.55286">
        <ele>67</ele>
        <time>2022-07-30T07:59:27Z</time>
      </trkpt>
      <trkpt lat="47.34278" lon="-1.5527">
        <ele>66</ele>
        <time>2022-07-30T07:59:29Z</time>
      </trkpt>
      <trkpt lat="47.34288" lon="-1.55252">
        <ele>66</ele>
        <time>2022-07-30T07:59:31Z</time>
      </trkpt>
      <trkpt lat="47.34297" lon="-1.55234">
        <ele>66</ele>
        <time>2022-07-30T07:59:33Z</time>
      </trkpt>
      <trkpt lat="47.34304" lon="-1.55213">
        <ele>65</ele>
        <time>2022-07-30T07:59:35Z</time>
      </trkpt>
      <trkpt lat="47.34308" lon="-1.5519">
        <ele>64</ele>
        <time>2022-07-30T07:59:37Z</time>
      </trkpt>
      <trkpt lat="47.34312" lon="-1.55167">
        <ele>63</ele>
        <time>2022-07-30T07:59:39Z</time>
      </trkpt>
      <trkpt lat="47.34314" lon="-1.55143">
        <ele>63</ele>
        <time>2022-07-30T07:59:41Z</time>
      </trkpt>
      <trkpt lat="47.34316" lon="-1.55119">
        <ele>62</ele>
        <time>2022-07-30T07:59:43Z</time>
      </trkpt>
      <trkpt lat="47.34318" lon="-1.55095">
        <ele>62</ele>
        <time>2022-07-30T07:59:45Z</time>
      </trkpt>
      <trkpt lat="47.3432" lon="-1.55072">
        <ele>63</ele>
        <time>2022-07-30T07:59:47Z</time>
      </trkpt>
      <trkpt lat="47.34322" lon="-1.55051">
        <ele>63</ele>
        <time>2022-07-30T07:59:49Z</time>
      </trkpt>
      <trkpt lat="47.34323" lon="-1.55032">
        <ele>64</ele>
        <time>2022-07-30T07:59:51Z</time>
      </trkpt>
      <trkpt lat="47.34325" lon="-1.55016">
        <ele>64</ele>
        <time>2022-07-30T07:59:53Z</time>
      </trkpt>
      <trkpt lat="47.34327" lon="-1.55">
        <ele>65</ele>
        <time>2022-07-30T07:59:55Z</time>
      </trkpt>
      <trkpt lat="47.34329" lon="-1.54986">
        <ele>66</ele>
        <time>2022-07-30T07:59:57Z</time>
      </trkpt>
      <trkpt lat="47.3433" lon="-1.54973">
        <ele>66</ele>
        <time>2022-07-30T07:59:59Z</time>
      </trkpt>
      <trkpt lat="47.34332" lon="-1.54959">
        <ele>66</ele>
        <time>2022-07-30T08:00:01Z</time>
      </trkpt>
      <trkpt lat="47.34333" lon="-1.54945">
        <ele>67</ele>
        <time>2022-07-30T08:00:03Z</time>
      </trkpt>
      <trkpt lat="47.34334" lon="-1.54931">
        <ele>67</ele>
        <time>2022-07-30T08:00:05Z</time>
      </trkpt>
      <trkpt lat="47.34335" lon="-1.54912">
        <ele>68</ele>
        <time>2022-07-30T08:00:08Z</time>
      </trkpt>
      <trkpt lat="47.34337" lon="-1.54893">
        <ele>69</ele>
        <time>2022-07-30T08:00:11Z</time>
      </trkpt>
      <trkpt lat="47.34339" lon="-1.54874">
        <ele>70</ele>
        <time>2022-07-30T08:00:14Z</time>
      </trkpt>
      <trkpt lat="47.34341" lon="-1.54855">
        <ele>70</ele>
        <time>2022-07-30T08:00:17Z</time>
      </trkpt>
      <trkpt lat="47.34342" lon="-1.54837">
        <ele>72</ele>
        <time>2022-07-30T08:00:20Z</time>
      </trkpt>
      <trkpt lat="47.34344" lon="-1.54824">
        <ele>72</ele>
        <time>2022-07-30T08:00:22Z</time>
      </trkpt>
      <trkpt lat="47.34345" lon="-1.54804">
        <ele>72</ele>
        <time>2022-07-30T08:00:25Z</time>
      </trkpt>
      <trkpt lat="47.34347" lon="-1.54785">
        <ele>73</ele>
        <time>2022-07-30T08:00:28Z</time>
      </trkpt>
      <trkpt lat="47.34349" lon="-1.54768">
        <ele>75</ele>
        <time>2022-07-30T08:00:31Z</time>
      </trkpt>
      <trkpt lat="47.34352" lon="-1.54751">
        <ele>75</ele>
        <time>2022-07-30T08:00:34Z</time>
      </trkpt>
      <trkpt lat="47.34358" lon="-1.54735">
        <ele>76</ele>
        <time>2022-07-30T08:00:37Z</time>
      </trkpt>
      <trkpt lat="47.34365" lon="-1.5472">
        <ele>76</ele>
        <time>2022-07-30T08:00:40Z</time>
      </trkpt>
      <trkpt lat="47.34374" lon="-1.54707">
        <ele>77</ele>
        <time>2022-07-30T08:00:43Z</time>
      </trkpt>
      <trkpt lat="47.34383" lon="-1.54695">
        <ele>77</ele>
        <time>2022-07-30T08:00:46Z</time>
      </trkpt>
      <trkpt lat="47.34393" lon="-1.54684">
        <ele>77</ele>
        <time>2022-07-30T08:00:49Z</time>
      </trkpt>
      <trkpt lat="47.34403" lon="-1.54673">
        <ele>77</ele>
        <time>2022-07-30T08:00:52Z</time>
      </trkpt>
      <trkpt lat="47.34413" lon="-1.54662">
        <ele>77</ele>
        <time>2022-07-30T08:00:55Z</time>
      </trkpt>
      <trkpt lat="47.34421" lon="-1.54648">
        <ele>78</ele>
        <time>2022-07-30T08:00:58Z</time>
      </trkpt>
      <trkpt lat="47.34427" lon="-1.54631">
        <ele>78</ele>
        <time>2022-07-30T08:01:01Z</time>
      </trkpt>
      <trkpt lat="47.34429" lon="-1.54612">
        <ele>79</ele>
        <time>2022-07-30T08:01:04Z</time>
      </trkpt>
      <trkpt lat="47.34427" lon="-1.54593">
        <ele>80</ele>
        <time>2022-07-30T08:01:07Z</time>
      </trkpt>
      <trkpt lat="47.34425" lon="-1.5458">
        <ele>80</ele>
        <time>2022-07-30T08:01:09Z</time>
      </trkpt>
      <trkpt lat="47.34421" lon="-1.54561">
        <ele>80</ele>
        <time>2022-07-30T08:01:12Z</time>
      </trkpt>
      <trkpt lat="47.34419" lon="-1.54548">
        <ele>81</ele>
        <time>2022-07-30T08:01:14Z</time>
      </trkpt>
      <trkpt lat="47.34415" lon="-1.54529">
        <ele>81</ele>
        <time>2022-07-30T08:01:17Z</time>
      </trkpt>
      <trkpt lat="47.34411" lon="-1.5451">
        <ele>82</ele>
        <time>2022-07-30T08:01:20Z</time>
      </trkpt>
      <trkpt lat="47.34408" lon="-1.54491">
        <ele>83</ele>
        <time>2022-07-30T08:01:23Z</time>
      </trkpt>
      <trkpt lat="47.34404" lon="-1.54473">
        <ele>83</ele>
        <time>2022-07-30T08:01:26Z</time>
      </trkpt>
      <trkpt lat="47.344" lon="-1.54454">
        <ele>84</ele>
        <time>2022-07-30T08:01:29Z</time>
      </trkpt>
      <trkpt lat="47.34398" lon="-1.54441">
        <ele>84</ele>
        <time>2022-07-30T08:01:31Z</time>
      </trkpt>
      <trkpt lat="47.34395" lon="-1.54429">
        <ele>84</ele>
        <time>2022-07-30T08:01:33Z</time>
      </trkpt>
      <trkpt lat="47.34392" lon="-1.54416">
        <ele>85</ele>
        <time>2022-07-30T08:01:35Z</time>
      </trkpt>
      <trkpt lat="47.34389" lon="-1.54403">
        <ele>85</ele>
        <time>2022-07-30T08:01:37Z</time>
      </trkpt>
      <trkpt lat="47.34386" lon="-1.5439">
        <ele>86</ele>
        <time>2022-07-30T08:01:39Z</time>
      </trkpt>
      <trkpt lat="47.34382" lon="-1.54377">
        <ele>86</ele>
        <time>2022-07-30T08:01:41Z</time>
      </trkpt>
      <trkpt lat="47.34378" lon="-1.54365">
        <ele>87</ele>
        <time>2022-07-30T08:01:43Z</time>
      </trkpt>
      <trkpt lat="47.34375" lon="-1.54352">
        <ele>87</ele>
        <time>2022-07-30T08:01:45Z</time>
      </trkpt>
      <trkpt lat="47.3437" lon="-1.5434">
        <ele>87</ele>
        <time>2022-07-30T08:01:47Z</time>
      </trkpt>
      <trkpt lat="47.34366" lon="-1.54327">
        <ele>87</ele>
        <time>2022-07-30T08:01:49Z</time>
      </trkpt>
      <trkpt lat="47.34362" lon="-1.54313">
        <ele>88</ele>
        <time>2022-07-30T08:01:51Z</time>
      </trkpt>
      <trkpt lat="47.34357" lon="-1.543">
        <ele>88</ele>
        <time>2022-07-30T08:01:53Z</time>
      </trkpt>
      <trkpt lat="47.34352" lon="-1.54286">
        <ele>88</ele>
        <time>2022-07-30T08:01:55Z</time>
      </trkpt>
      <trkpt lat="47.34346" lon="-1.54272">
        <ele>88</ele>
        <time>2022-07-30T08:01:57Z</time>
      </trkpt>
      <trkpt lat="47.3434" lon="-1.54257">
        <ele>89</ele>
        <time>2022-07-30T08:01:59Z</time>
      </trkpt>
      <trkpt lat="47.34333" lon="-1.54242">
        <ele>88</ele>
        <time>2022-07-30T08:02:01Z</time>
      </trkpt>
      <trkpt lat="47.34326" lon="-1.54224">
        <ele>88</ele>
        <time>2022-07-30T08:02:03Z</time>
      </trkpt>
      <trkpt lat="47.34319" lon="-1.54209">
        <ele>88</ele>
        <time>2022-07-30T08:02:05Z</time>
      </trkpt>
      <trkpt lat="47.34313" lon="-1.54192">
        <ele>87</ele>
        <time>2022-07-30T08:02:07Z</time>
      </trkpt>
      <trkpt lat="47.34306" lon="-1.54175">
        <ele>87</ele>
        <time>2022-07-30T08:02:09Z</time>
      </trkpt>
      <trkpt lat="47.34301" lon="-1.54158">
        <ele>87</ele>
        <time>2022-07-30T08:02:11Z</time>
      </trkpt>
      <trkpt lat="47.34297" lon="-1.54139">
        <ele>86</ele>
        <time>2022-07-30T08:02:13Z</time>
      </trkpt>
      <trkpt lat="47.34294" lon="-1.54119">
        <ele>86</ele>
        <time>2022-07-30T08:02:15Z</time>
      </trkpt>
      <trkpt lat="47.3429" lon="-1.541">
        <ele>86</ele>
        <time>2022-07-30T08:02:17Z</time>
      </trkpt>
      <trkpt lat="47.34287" lon="-1.54079">
        <ele>85</ele>
        <time>2022-07-30T08:02:19Z</time>
      </trkpt>
      <trkpt lat="47.34284" lon="-1.54059">
        <ele>85</ele>
        <time>2022-07-30T08:02:21Z</time>
      </trkpt>
      <trkpt lat="47.3428" lon="-1.54039">
        <ele>84</ele>
        <time>2022-07-30T08:02:23Z</time>
      </trkpt>
      <trkpt lat="47.34275" lon="-1.5402">
        <ele>84</ele>
        <time>2022-07-30T08:02:25Z</time>
      </trkpt>
      <trkpt lat="47.3427" lon="-1.54002">
        <ele>84</ele>
        <time>2022-07-30T08:02:27Z</time>
      </trkpt>
      <trkpt lat="47.34263" lon="-1.53986">
        <ele>84</ele>
        <time>2022-07-30T08:02:29Z</time>
      </trkpt>
      <trkpt lat="47.34257" lon="-1.5397">
        <ele>84</ele>
        <time>2022-07-30T08:02:31Z</time>
      </trkpt>
      <trkpt lat="47.34252" lon="-1.53953">
        <ele>84</ele>
        <time>2022-07-30T08:02:33Z</time>
      </trkpt>
      <trkpt lat="47.34244" lon="-1.53936">
        <ele>83</ele>
        <time>2022-07-30T08:02:35Z</time>
      </trkpt>
      <trkpt lat="47.34236" lon="-1.53921">
        <ele>84</ele>
        <time>2022-07-30T08:02:37Z</time>
      </trkpt>
      <trkpt lat="47.34227" lon="-1.53907">
        <ele>84</ele>
        <time>2022-07-30T08:02:39Z</time>
      </trkpt>
      <trkpt lat="47.34218" lon="-1.53894">
        <ele>84</ele>
        <time>2022-07-30T08:02:41Z</time>
      </trkpt>
      <trkpt lat="47.34208" lon="-1.53881">
        <ele>84</ele>
        <time>2022-07-30T08:02:43Z</time>
      </trkpt>
      <trkpt lat="47.34199" lon="-1.5387">
        <ele>84</ele>
        <time>2022-07-30T08:02:45Z</time>
      </trkpt>
      <trkpt lat="47.34189" lon="-1.53858">
        <ele>85</ele>
        <time>2022-07-30T08:02:47Z</time>
      </trkpt>
      <trkpt lat="47.34179" lon="-1.53847">
        <ele>86</ele>
        <time>2022-07-30T08:02:49Z</time>
      </trkpt>
      <trkpt lat="47.34168" lon="-1.53838">
        <ele>86</ele>
        <time>2022-07-30T08:02:51Z</time>
      </trkpt>
      <trkpt lat="47.34158" lon="-1.53828">
        <ele>86</ele>
        <time>2022-07-30T08:02:53Z</time>
      </trkpt>
      <trkpt lat="47.34147" lon="-1.53817">
        <ele>87</ele>
        <time>2022-07-30T08:02:55Z</time>
      </trkpt>
      <trkpt lat="47.34137" lon="-1.53807">
        <ele>87</ele>
        <time>2022-07-30T08:02:57Z</time>
      </trkpt>
      <trkpt lat="47.34127" lon="-1.53796">
        <ele>87</ele>
        <time>2022-07-30T08:02:59Z</time>
      </trkpt>
      <trkpt lat="47.34117" lon="-1.53786">
        <ele>87</ele>
        <time>2022-07-30T08:03:01Z</time>
      </trkpt>
      <trkpt lat="47.34106" lon="-1.53775">
        <ele>87</ele>
        <time>2022-07-30T08:03:03Z</time>
      </trkpt>
      <trkpt lat="47.34096" lon="-1.53765">
        <ele>87</ele>
        <time>2022-07-30T08:03:05Z</time>
      </trkpt>
      <trkpt lat="47.34086" lon="-1.53754">
        <ele>87</ele>
        <time>2022-07-30T08:03:07Z</time>
      </trkpt>
      <trkpt lat="47.34075" lon="-1.53743">
        <ele>86</ele>
        <time>2022-07-30T08:03:09Z</time>
      </trkpt>
      <trkpt lat="47.34064" lon="-1.53731">
        <ele>86</ele>
        <time>2022-07-30T08:03:11Z</time>
      </trkpt>
      <trkpt lat="47.34053" lon="-1.5372">
        <ele>85</ele>
        <time>2022-07-30T08:03:13Z</time>
      </trkpt>
      <trkpt lat="47.34042" lon="-1.53708">
        <ele>85</ele>
        <time>2022-07-30T08:03:15Z</time>
      </trkpt>
      <trkpt lat="47.3403" lon="-1.53696">
        <ele>85</ele>
        <time>2022-07-30T08:03:17Z</time>
      </trkpt>
      <trkpt lat="47.34019" lon="-1.53684">
        <ele>84</ele>
        <time>2022-07-30T08:03:19Z</time>
      </trkpt>
      <trkpt lat="47.34007" lon="-1.53672">
        <ele>84</ele>
        <time>2022-07-30T08:03:21Z</time>
      </trkpt>
      <trkpt lat="47.33995" lon="-1.5366">
        <ele>84</ele>
        <time>2022-07-30T08:03:23Z</time>
      </trkpt>
      <trkpt lat="47.33982" lon="-1.53648">
        <ele>83</ele>
        <time>2022-07-30T08:03:25Z</time>
      </trkpt>
      <trkpt lat="47.33969" lon="-1.53635">
        <ele>82</ele>
        <time>2022-07-30T08:03:27Z</time>
      </trkpt>
      <trkpt lat="47.33957" lon="-1.53621">
        <ele>82</ele>
        <time>2022-07-30T08:03:29Z</time>
      </trkpt>
      <trkpt lat="47.33945" lon="-1.53608">
        <ele>81</ele>
        <time>2022-07-30T08:03:31Z</time>
      </trkpt>
      <trkpt lat="47.33933" lon="-1.53593">
        <ele>81</ele>
        <time>2022-07-30T08:03:33Z</time>
      </trkpt>
      <trkpt lat="47.33922" lon="-1.53576">
        <ele>81</ele>
        <time>2022-07-30T08:03:35Z</time>
      </trkpt>
      <trkpt lat="47.33916" lon="-1.53553">
        <ele>80</ele>
        <time>2022-07-30T08:03:37Z</time>
      </trkpt>
      <trkpt lat="47.33914" lon="-1.53528">
        <ele>79</ele>
        <time>2022-07-30T08:03:39Z</time>
      </trkpt>
      <trkpt lat="47.33915" lon="-1.53502">
        <ele>77</ele>
        <time>2022-07-30T08:03:41Z</time>
      </trkpt>
      <trkpt lat="47.33916" lon="-1.53476">
        <ele>75</ele>
        <time>2022-07-30T08:03:43Z</time>
      </trkpt>
      <trkpt lat="47.33914" lon="-1.53452">
        <ele>74</ele>
        <time>2022-07-30T08:03:45Z</time>
      </trkpt>
      <trkpt lat="47.33905" lon="-1.5343">
        <ele>73</ele>
        <time>2022-07-30T08:03:47Z</time>
      </trkpt>
      <trkpt lat="47.33898" lon="-1.53409">
        <ele>72</ele>
        <time>2022-07-30T08:03:49Z</time>
      </trkpt>
      <trkpt lat="47.33896" lon="-1.53386">
        <ele>71</ele>
        <time>2022-07-30T08:03:51Z</time>
      </trkpt>
      <trkpt lat="47.339" lon="-1.53362">
        <ele>71</ele>
        <time>2022-07-30T08:03:53Z</time>
      </trkpt>
      <trkpt lat="47.33907" lon="-1.53342">
        <ele>70</ele>
        <time>2022-07-30T08:03:55Z</time>
      </trkpt>
      <trkpt lat="47.33916" lon="-1.53322">
        <ele>69</ele>
        <time>2022-07-30T08:03:57Z</time>
      </trkpt>
      <trkpt lat="47.33925" lon="-1.53302">
        <ele>68</ele>
        <time>2022-07-30T08:03:59Z</time>
      </trkpt>
      <trkpt lat="47.33933" lon="-1.53281">
        <ele>68</ele>
        <time>2022-07-30T08:04:01Z</time>
      </trkpt>
      <trkpt lat="47.3394" lon="-1.53262">
        <ele>68</ele>
        <time>2022-07-30T08:04:03Z</time>
      </trkpt>
      <trkpt lat="47.33949" lon="-1.53242">
        <ele>67</ele>
        <time>2022-07-30T08:04:05Z</time>
      </trkpt>
      <trkpt lat="47.33957" lon="-1.53223">
        <ele>66</ele>
        <time>2022-07-30T08:04:07Z</time>
      </trkpt>
      <trkpt lat="47.33958" lon="-1.5321">
        <ele>66</ele>
        <time>2022-07-30T08:04:09Z</time>
      </trkpt>
      <trkpt lat="47.33952" lon="-1.53195">
        <ele>66</ele>
        <time>2022-07-30T08:04:13Z</time>
      </trkpt>
      <trkpt lat="47.33947" lon="-1.53181">
        <ele>66</ele>
        <time>2022-07-30T08:04:15Z</time>
      </trkpt>
      <trkpt lat="47.3394" lon="-1.53167">
        <ele>66</ele>
        <time>2022-07-30T08:04:17Z</time>
      </trkpt>
      <trkpt lat="47.33932" lon="-1.53152">
        <ele>65</ele>
        <time>2022-07-30T08:04:19Z</time>
      </trkpt>
      <trkpt lat="47.33924" lon="-1.53135">
        <ele>64</ele>
        <time>2022-07-30T08:04:21Z</time>
      </trkpt>
      <trkpt lat="47.33916" lon="-1.53118">
        <ele>64</ele>
        <time>2022-07-30T08:04:23Z</time>
      </trkpt>
      <trkpt lat="47.33906" lon="-1.53101">
        <ele>63</ele>
        <time>2022-07-30T08:04:25Z</time>
      </trkpt>
      <trkpt lat="47.33899" lon="-1.53085">
        <ele>62</ele>
        <time>2022-07-30T08:04:27Z</time>
      </trkpt>
      <trkpt lat="47.33894" lon="-1.53069">
        <ele>61</ele>
        <time>2022-07-30T08:04:30Z</time>
      </trkpt>
      <trkpt lat="47.33898" lon="-1.53054">
        <ele>60</ele>
        <time>2022-07-30T08:04:32Z</time>
      </trkpt>
      <trkpt lat="47.33904" lon="-1.53038">
        <ele>59</ele>
        <time>2022-07-30T08:04:34Z</time>
      </trkpt>
      <trkpt lat="47.3391" lon="-1.53022">
        <ele>58</ele>
        <time>2022-07-30T08:04:36Z</time>
      </trkpt>
      <trkpt lat="47.33917" lon="-1.53005">
        <ele>58</ele>
        <time>2022-07-30T08:04:38Z</time>
      </trkpt>
      <trkpt lat="47.33924" lon="-1.52988">
        <ele>58</ele>
        <time>2022-07-30T08:04:40Z</time>
      </trkpt>
      <trkpt lat="47.33929" lon="-1.52972">
        <ele>58</ele>
        <time>2022-07-30T08:04:42Z</time>
      </trkpt>
      <trkpt lat="47.33935" lon="-1.52956">
        <ele>58</ele>
        <time>2022-07-30T08:04:44Z</time>
      </trkpt>
      <trkpt lat="47.33941" lon="-1.5294">
        <ele>58</ele>
        <time>2022-07-30T08:04:46Z</time>
      </trkpt>
      <trkpt lat="47.33946" lon="-1.52925">
        <ele>58</ele>
        <time>2022-07-30T08:04:48Z</time>
      </trkpt>
      <trkpt lat="47.33951" lon="-1.52911">
        <ele>58</ele>
        <time>2022-07-30T08:04:50Z</time>
      </trkpt>
      <trkpt lat="47.33957" lon="-1.52896">
        <ele>58</ele>
        <time>2022-07-30T08:04:52Z</time>
      </trkpt>
      <trkpt lat="47.33962" lon="-1.52882">
        <ele>58</ele>
        <time>2022-07-30T08:04:54Z</time>
      </trkpt>
      <trkpt lat="47.33967" lon="-1.5287">
        <ele>59</ele>
        <time>2022-07-30T08:04:56Z</time>
      </trkpt>
      <trkpt lat="47.33965" lon="-1.52855">
        <ele>60</ele>
        <time>2022-07-30T08:05:04Z</time>
      </trkpt>
      <trkpt lat="47.33956" lon="-1.52848">
        <ele>60</ele>
        <time>2022-07-30T08:05:06Z</time>
      </trkpt>
      <trkpt lat="47.33947" lon="-1.52839">
        <ele>59</ele>
        <time>2022-07-30T08:05:08Z</time>
      </trkpt>
      <trkpt lat="47.33937" lon="-1.52832">
        <ele>60</ele>
        <time>2022-07-30T08:05:10Z</time>
      </trkpt>
      <trkpt lat="47.33927" lon="-1.52824">
        <ele>60</ele>
        <time>2022-07-30T08:05:12Z</time>
      </trkpt>
      <trkpt lat="47.33916" lon="-1.52815">
        <ele>59</ele>
        <time>2022-07-30T08:05:14Z</time>
      </trkpt>
      <trkpt lat="47.3391" lon="-1.528">
        <ele>60</ele>
        <time>2022-07-30T08:05:16Z</time>
      </trkpt>
      <trkpt lat="47.33913" lon="-1.52782">
        <ele>60</ele>
        <time>2022-07-30T08:05:18Z</time>
      </trkpt>
      <trkpt lat="47.33916" lon="-1.52765">
        <ele>60</ele>
        <time>2022-07-30T08:05:20Z</time>
      </trkpt>
      <trkpt lat="47.33919" lon="-1.52748">
        <ele>60</ele>
        <time>2022-07-30T08:05:22Z</time>
      </trkpt>
      <trkpt lat="47.33922" lon="-1.52731">
        <ele>60</ele>
        <time>2022-07-30T08:05:24Z</time>
      </trkpt>
      <trkpt lat="47.33923" lon="-1.52713">
        <ele>60</ele>
        <time>2022-07-30T08:05:26Z</time>
      </trkpt>
      <trkpt lat="47.33926" lon="-1.52695">
        <ele>60</ele>
        <time>2022-07-30T08:05:28Z</time>
      </trkpt>
      <trkpt lat="47.33929" lon="-1.52677">
        <ele>60</ele>
        <time>2022-07-30T08:05:30Z</time>
      </trkpt>
      <trkpt lat="47.33932" lon="-1.5266">
        <ele>60</ele>
        <time>2022-07-30T08:05:32Z</time>
      </trkpt>
      <trkpt lat="47.33935" lon="-1.52644">
        <ele>60</ele>
        <time>2022-07-30T08:05:34Z</time>
      </trkpt>
      <trkpt lat="47.33937" lon="-1.5263">
        <ele>59</ele>
        <time>2022-07-30T08:05:36Z</time>
      </trkpt>
      <trkpt lat="47.33939" lon="-1.52612">
        <ele>61</ele>
        <time>2022-07-30T08:05:39Z</time>
      </trkpt>
      <trkpt lat="47.33929" lon="-1.52598">
        <ele>61</ele>
        <time>2022-07-30T08:05:42Z</time>
      </trkpt>
      <trkpt lat="47.33917" lon="-1.52594">
        <ele>61</ele>
        <time>2022-07-30T08:05:45Z</time>
      </trkpt>
      <trkpt lat="47.33905" lon="-1.52588">
        <ele>61</ele>
        <time>2022-07-30T08:05:48Z</time>
      </trkpt>
      <trkpt lat="47.33894" lon="-1.52585">
        <ele>62</ele>
        <time>2022-07-30T08:05:50Z</time>
      </trkpt>
      <trkpt lat="47.33883" lon="-1.5258">
        <ele>62</ele>
        <time>2022-07-30T08:05:52Z</time>
      </trkpt>
      <trkpt lat="47.33871" lon="-1.52574">
        <ele>62</ele>
        <time>2022-07-30T08:05:54Z</time>
      </trkpt>
      <trkpt lat="47.33858" lon="-1.52569">
        <ele>63</ele>
        <time>2022-07-30T08:05:56Z</time>
      </trkpt>
      <trkpt lat="47.33846" lon="-1.52565">
        <ele>63</ele>
        <time>2022-07-30T08:05:58Z</time>
      </trkpt>
      <trkpt lat="47.33834" lon="-1.5256">
        <ele>64</ele>
        <time>2022-07-30T08:06:00Z</time>
      </trkpt>
      <trkpt lat="47.33822" lon="-1.52556">
        <ele>64</ele>
        <time>2022-07-30T08:06:02Z</time>
      </trkpt>
      <trkpt lat="47.3381" lon="-1.52551">
        <ele>65</ele>
        <time>2022-07-30T08:06:04Z</time>
      </trkpt>
      <trkpt lat="47.33798" lon="-1.52547">
        <ele>66</ele>
        <time>2022-07-30T08:06:06Z</time>
      </trkpt>
      <trkpt lat="47.33786" lon="-1.52542">
        <ele>66</ele>
        <time>2022-07-30T08:06:08Z</time>
      </trkpt>
      <trkpt lat="47.33774" lon="-1.52538">
        <ele>66</ele>
        <time>2022-07-30T08:06:10Z</time>
      </trkpt>
      <trkpt lat="47.33761" lon="-1.52533">
        <ele>65</ele>
        <time>2022-07-30T08:06:12Z</time>
      </trkpt>
      <trkpt lat="47.33747" lon="-1.52528">
        <ele>65</ele>
        <time>2022-07-30T08:06:14Z</time>
      </trkpt>
      <trkpt lat="47.33734" lon="-1.52522">
        <ele>64</ele>
        <time>2022-07-30T08:06:16Z</time>
      </trkpt>
      <trkpt lat="47.3372" lon="-1.52513">
        <ele>64</ele>
        <time>2022-07-30T08:06:18Z</time>
      </trkpt>
      <trkpt lat="47.33709" lon="-1.525">
        <ele>64</ele>
        <time>2022-07-30T08:06:20Z</time>
      </trkpt>
      <trkpt lat="47.337" lon="-1.52488">
        <ele>64</ele>
        <time>2022-07-30T08:06:22Z</time>
      </trkpt>
      <trkpt lat="47.33694" lon="-1.52472">
        <ele>64</ele>
        <time>2022-07-30T08:06:24Z</time>
      </trkpt>
      <trkpt lat="47.33699" lon="-1.52459">
        <ele>64</ele>
        <time>2022-07-30T08:06:26Z</time>
      </trkpt>
      <trkpt lat="47.33703" lon="-1.52445">
        <ele>64</ele>
        <time>2022-07-30T08:06:28Z</time>
      </trkpt>
      <trkpt lat="47.33706" lon="-1.52429">
        <ele>64</ele>
        <time>2022-07-30T08:06:30Z</time>
      </trkpt>
      <trkpt lat="47.33708" lon="-1.52413">
        <ele>65</ele>
        <time>2022-07-30T08:06:32Z</time>
      </trkpt>
      <trkpt lat="47.33711" lon="-1.52398">
        <ele>65</ele>
        <time>2022-07-30T08:06:34Z</time>
      </trkpt>
      <trkpt lat="47.33713" lon="-1.52382">
        <ele>65</ele>
        <time>2022-07-30T08:06:36Z</time>
      </trkpt>
      <trkpt lat="47.33716" lon="-1.52367">
        <ele>66</ele>
        <time>2022-07-30T08:06:38Z</time>
      </trkpt>
      <trkpt lat="47.33719" lon="-1.52352">
        <ele>66</ele>
        <time>2022-07-30T08:06:40Z</time>
      </trkpt>
      <trkpt lat="47.33722" lon="-1.52337">
        <ele>67</ele>
        <time>2022-07-30T08:06:42Z</time>
      </trkpt>
      <trkpt lat="47.33725" lon="-1.52322">
        <ele>67</ele>
        <time>2022-07-30T08:06:44Z</time>
      </trkpt>
      <trkpt lat="47.33728" lon="-1.52307">
        <ele>67</ele>
        <time>2022-07-30T08:06:46Z</time>
      </trkpt>
      <trkpt lat="47.33732" lon="-1.52292">
        <ele>67</ele>
        <time>2022-07-30T08:06:48Z</time>
      </trkpt>
      <trkpt lat="47.33735" lon="-1.52277">
        <ele>67</ele>
        <time>2022-07-30T08:06:50Z</time>
      </trkpt>
      <trkpt lat="47.33738" lon="-1.52262">
        <ele>67</ele>
        <time>2022-07-30T08:06:52Z</time>
      </trkpt>
      <trkpt lat="47.33741" lon="-1.52246">
        <ele>67</ele>
        <time>2022-07-30T08:06:54Z</time>
      </trkpt>
      <trkpt lat="47.33744" lon="-1.5223">
        <ele>68</ele>
        <time>2022-07-30T08:06:56Z</time>
      </trkpt>
      <trkpt lat="47.33748" lon="-1.52213">
        <ele>68</ele>
        <time>2022-07-30T08:06:58Z</time>
      </trkpt>
      <trkpt lat="47.33751" lon="-1.52195">
        <ele>68</ele>
        <time>2022-07-30T08:07:00Z</time>
      </trkpt>
      <trkpt lat="47.33753" lon="-1.52177">
        <ele>68</ele>
        <time>2022-07-30T08:07:02Z</time>
      </trkpt>
      <trkpt lat="47.33755" lon="-1.5216">
        <ele>68</ele>
        <time>2022-07-30T08:07:04Z</time>
      </trkpt>
      <trkpt lat="47.33756" lon="-1.52142">
        <ele>68</ele>
        <time>2022-07-30T08:07:06Z</time>
      </trkpt>
      <trkpt lat="47.33757" lon="-1.52125">
        <ele>68</ele>
        <time>2022-07-30T08:07:08Z</time>
      </trkpt>
      <trkpt lat="47.33757" lon="-1.52108">
        <ele>69</ele>
        <time>2022-07-30T08:07:10Z</time>
      </trkpt>
      <trkpt lat="47.33758" lon="-1.52092">
        <ele>70</ele>
        <time>2022-07-30T08:07:12Z</time>
      </trkpt>
      <trkpt lat="47.3376" lon="-1.52076">
        <ele>70</ele>
        <time>2022-07-30T08:07:14Z</time>
      </trkpt>
      <trkpt lat="47.33761" lon="-1.52059">
        <ele>71</ele>
        <time>2022-07-30T08:07:16Z</time>
      </trkpt>
      <trkpt lat="47.3376" lon="-1.52044">
        <ele>71</ele>
        <time>2022-07-30T08:07:18Z</time>
      </trkpt>
      <trkpt lat="47.33759" lon="-1.52027">
        <ele>72</ele>
        <time>2022-07-30T08:07:20Z</time>
      </trkpt>
      <trkpt lat="47.33759" lon="-1.52011">
        <ele>72</ele>
        <time>2022-07-30T08:07:22Z</time>
      </trkpt>
      <trkpt lat="47.33757" lon="-1.51996">
        <ele>73</ele>
        <time>2022-07-30T08:07:24Z</time>
      </trkpt>
      <trkpt lat="47.33754" lon="-1.5198">
        <ele>74</ele>
        <time>2022-07-30T08:07:26Z</time>
      </trkpt>
      <trkpt lat="47.33752" lon="-1.51963">
        <ele>74</ele>
        <time>2022-07-30T08:07:28Z</time>
      </trkpt>
      <trkpt lat="47.3375" lon="-1.51947">
        <ele>75</ele>
        <time>2022-07-30T08:07:30Z</time>
      </trkpt>
      <trkpt lat="47.33749" lon="-1.51931">
        <ele>76</ele>
        <time>2022-07-30T08:07:32Z</time>
      </trkpt>
      <trkpt lat="47.33748" lon="-1.51914">
        <ele>76</ele>
        <time>2022-07-30T08:07:34Z</time>
      </trkpt>
      <trkpt lat="47.33747" lon="-1.51897">
        <ele>75</ele>
        <time>2022-07-30T08:07:36Z</time>
      </trkpt>
      <trkpt lat="47.33746" lon="-1.51881">
        <ele>75</ele>
        <time>2022-07-30T08:07:38Z</time>
      </trkpt>
      <trkpt lat="47.33746" lon="-1.51865">
        <ele>75</ele>
        <time>2022-07-30T08:07:40Z</time>
      </trkpt>
      <trkpt lat="47.33745" lon="-1.51848">
        <ele>76</ele>
        <time>2022-07-30T08:07:42Z</time>
      </trkpt>
      <trkpt lat="47.33744" lon="-1.51832">
        <ele>76</ele>
        <time>2022-07-30T08:07:44Z</time>
      </trkpt>
      <trkpt lat="47.33743" lon="-1.51816">
        <ele>76</ele>
        <time>2022-07-30T08:07:46Z</time>
      </trkpt>
      <trkpt lat="47.33743" lon="-1.518">
        <ele>76</ele>
        <time>2022-07-30T08:07:48Z</time>
      </trkpt>
      <trkpt lat="47.33742" lon="-1.51784">
        <ele>77</ele>
        <time>2022-07-30T08:07:50Z</time>
      </trkpt>
      <trkpt lat="47.33741" lon="-1.51768">
        <ele>77</ele>
        <time>2022-07-30T08:07:52Z</time>
      </trkpt>
      <trkpt lat="47.33741" lon="-1.51752">
        <ele>77</ele>
        <time>2022-07-30T08:07:54Z</time>
      </trkpt>
      <trkpt lat="47.3374" lon="-1.51737">
        <ele>77</ele>
        <time>2022-07-30T08:07:56Z</time>
      </trkpt>
      <trkpt lat="47.33739" lon="-1.5172">
        <ele>77</ele>
        <time>2022-07-30T08:07:58Z</time>
      </trkpt>
      <trkpt lat="47.33737" lon="-1.51703">
        <ele>78</ele>
        <time>2022-07-30T08:08:00Z</time>
      </trkpt>
      <trkpt lat="47.33735" lon="-1.51685">
        <ele>78</ele>
        <time>2022-07-30T08:08:02Z</time>
      </trkpt>
      <trkpt lat="47.33732" lon="-1.51667">
        <ele>78</ele>
        <time>2022-07-30T08:08:04Z</time>
      </trkpt>
      <trkpt lat="47.33729" lon="-1.51649">
        <ele>77</ele>
        <time>2022-07-30T08:08:06Z</time>
      </trkpt>
      <trkpt lat="47.33725" lon="-1.51631">
        <ele>77</ele>
        <time>2022-07-30T08:08:08Z</time>
      </trkpt>
      <trkpt lat="47.33719" lon="-1.51615">
        <ele>77</ele>
        <time>2022-07-30T08:08:10Z</time>
      </trkpt>
      <trkpt lat="47.33714" lon="-1.51598">
        <ele>77</ele>
        <time>2022-07-30T08:08:12Z</time>
      </trkpt>
      <trkpt lat="47.3371" lon="-1.51579">
        <ele>77</ele>
        <time>2022-07-30T08:08:14Z</time>
      </trkpt>
      <trkpt lat="47.33706" lon="-1.5156">
        <ele>76</ele>
        <time>2022-07-30T08:08:16Z</time>
      </trkpt>
      <trkpt lat="47.33701" lon="-1.5154">
        <ele>75</ele>
        <time>2022-07-30T08:08:18Z</time>
      </trkpt>
      <trkpt lat="47.33698" lon="-1.5152">
        <ele>74</ele>
        <time>2022-07-30T08:08:20Z</time>
      </trkpt>
      <trkpt lat="47.33695" lon="-1.51499">
        <ele>74</ele>
        <time>2022-07-30T08:08:22Z</time>
      </trkpt>
      <trkpt lat="47.33693" lon="-1.51479">
        <ele>74</ele>
        <time>2022-07-30T08:08:24Z</time>
      </trkpt>
      <trkpt lat="47.33692" lon="-1.51457">
        <ele>73</ele>
        <time>2022-07-30T08:08:26Z</time>
      </trkpt>
      <trkpt lat="47.3369" lon="-1.51435">
        <ele>73</ele>
        <time>2022-07-30T08:08:28Z</time>
      </trkpt>
      <trkpt lat="47.33687" lon="-1.51413">
        <ele>72</ele>
        <time>2022-07-30T08:08:30Z</time>
      </trkpt>
      <trkpt lat="47.33681" lon="-1.51391">
        <ele>71</ele>
        <time>2022-07-30T08:08:32Z</time>
      </trkpt>
      <trkpt lat="47.33676" lon="-1.51369">
        <ele>71</ele>
        <time>2022-07-30T08:08:34Z</time>
      </trkpt>
      <trkpt lat="47.33671" lon="-1.51347">
        <ele>70</ele>
        <time>2022-07-30T08:08:36Z</time>
      </trkpt>
      <trkpt lat="47.33666" lon="-1.51326">
        <ele>70</ele>
        <time>2022-07-30T08:08:38Z</time>
      </trkpt>
      <trkpt lat="47.33663" lon="-1.51305">
        <ele>70</ele>
        <time>2022-07-30T08:08:40Z</time>
      </trkpt>
      <trkpt lat="47.33659" lon="-1.51285">
        <ele>69</ele>
        <time>2022-07-30T08:08:42Z</time>
      </trkpt>
      <trkpt lat="47.33657" lon="-1.51265">
        <ele>69</ele>
        <time>2022-07-30T08:08:44Z</time>
      </trkpt>
      <trkpt lat="47.33655" lon="-1.51244">
        <ele>69</ele>
        <time>2022-07-30T08:08:46Z</time>
      </trkpt>
      <trkpt lat="47.33654" lon="-1.51223">
        <ele>68</ele>
        <time>2022-07-30T08:08:48Z</time>
      </trkpt>
      <trkpt lat="47.33653" lon="-1.51201">
        <ele>68</ele>
        <time>2022-07-30T08:08:50Z</time>
      </trkpt>
      <trkpt lat="47.33653" lon="-1.5118">
        <ele>67</ele>
        <time>2022-07-30T08:08:52Z</time>
      </trkpt>
      <trkpt lat="47.33652" lon="-1.51158">
        <ele>67</ele>
        <time>2022-07-30T08:08:54Z</time>
      </trkpt>
      <trkpt lat="47.33652" lon="-1.51137">
        <ele>67</ele>
        <time>2022-07-30T08:08:56Z</time>
      </trkpt>
      <trkpt lat="47.33652" lon="-1.51116">
        <ele>67</ele>
        <time>2022-07-30T08:08:58Z</time>
      </trkpt>
      <trkpt lat="47.33651" lon="-1.51096">
        <ele>67</ele>
        <time>2022-07-30T08:09:00Z</time>
      </trkpt>
      <trkpt lat="47.33654" lon="-1.51075">
        <ele>67</ele>
        <time>2022-07-30T08:09:02Z</time>
      </trkpt>
      <trkpt lat="47.33661" lon="-1.51056">
        <ele>67</ele>
        <time>2022-07-30T08:09:04Z</time>
      </trkpt>
      <trkpt lat="47.33667" lon="-1.51037">
        <ele>66</ele>
        <time>2022-07-30T08:09:06Z</time>
      </trkpt>
      <trkpt lat="47.33671" lon="-1.51017">
        <ele>66</ele>
        <time>2022-07-30T08:09:08Z</time>
      </trkpt>
      <trkpt lat="47.33675" lon="-1.50996">
        <ele>67</ele>
        <time>2022-07-30T08:09:10Z</time>
      </trkpt>
      <trkpt lat="47.33679" lon="-1.50976">
        <ele>67</ele>
        <time>2022-07-30T08:09:12Z</time>
      </trkpt>
      <trkpt lat="47.33683" lon="-1.50955">
        <ele>67</ele>
        <time>2022-07-30T08:09:14Z</time>
      </trkpt>
      <trkpt lat="47.33686" lon="-1.50935">
        <ele>66</ele>
        <time>2022-07-30T08:09:16Z</time>
      </trkpt>
      <trkpt lat="47.33689" lon="-1.50914">
        <ele>66</ele>
        <time>2022-07-30T08:09:18Z</time>
      </trkpt>
      <trkpt lat="47.33693" lon="-1.50894">
        <ele>65</ele>
        <time>2022-07-30T08:09:20Z</time>
      </trkpt>
      <trkpt lat="47.33698" lon="-1.50873">
        <ele>65</ele>
        <time>2022-07-30T08:09:22Z</time>
      </trkpt>
      <trkpt lat="47.33702" lon="-1.50851">
        <ele>64</ele>
        <time>2022-07-30T08:09:24Z</time>
      </trkpt>
      <trkpt lat="47.33706" lon="-1.5083">
        <ele>63</ele>
        <time>2022-07-30T08:09:26Z</time>
      </trkpt>
      <trkpt lat="47.3371" lon="-1.50808">
        <ele>63</ele>
        <time>2022-07-30T08:09:28Z</time>
      </trkpt>
      <trkpt lat="47.33715" lon="-1.50785">
        <ele>63</ele>
        <time>2022-07-30T08:09:30Z</time>
      </trkpt>
      <trkpt lat="47.33719" lon="-1.50762">
        <ele>63</ele>
        <time>2022-07-30T08:09:32Z</time>
      </trkpt>
      <trkpt lat="47.33724" lon="-1.5074">
        <ele>62</ele>
        <time>2022-07-30T08:09:34Z</time>
      </trkpt>
      <trkpt lat="47.33728" lon="-1.50718">
        <ele>62</ele>
        <time>2022-07-30T08:09:36Z</time>
      </trkpt>
      <trkpt lat="47.33732" lon="-1.50696">
        <ele>62</ele>
        <time>2022-07-30T08:09:38Z</time>
      </trkpt>
      <trkpt lat="47.33736" lon="-1.50674">
        <ele>61</ele>
        <time>2022-07-30T08:09:40Z</time>
      </trkpt>
      <trkpt lat="47.33741" lon="-1.50652">
        <ele>61</ele>
        <time>2022-07-30T08:09:42Z</time>
      </trkpt>
      <trkpt lat="47.33745" lon="-1.5063">
        <ele>61</ele>
        <time>2022-07-30T08:09:44Z</time>
      </trkpt>
      <trkpt lat="47.33749" lon="-1.50609">
        <ele>61</ele>
        <time>2022-07-30T08:09:46Z</time>
      </trkpt>
      <trkpt lat="47.33753" lon="-1.50588">
        <ele>61</ele>
        <time>2022-07-30T08:09:48Z</time>
      </trkpt>
      <trkpt lat="47.33757" lon="-1.50567">
        <ele>61</ele>
        <time>2022-07-30T08:09:50Z</time>
      </trkpt>
      <trkpt lat="47.33761" lon="-1.50545">
        <ele>61</ele>
        <time>2022-07-30T08:09:52Z</time>
      </trkpt>
      <trkpt lat="47.33765" lon="-1.50524">
        <ele>60</ele>
        <time>2022-07-30T08:09:54Z</time>
      </trkpt>
      <trkpt lat="47.33769" lon="-1.50504">
        <ele>60</ele>
        <time>2022-07-30T08:09:56Z</time>
      </trkpt>
      <trkpt lat="47.33773" lon="-1.50483">
        <ele>60</ele>
        <time>2022-07-30T08:09:58Z</time>
      </trkpt>
      <trkpt lat="47.33777" lon="-1.50463">
        <ele>60</ele>
        <time>2022-07-30T08:10:00Z</time>
      </trkpt>
      <trkpt lat="47.3378" lon="-1.50443">
        <ele>60</ele>
        <time>2022-07-30T08:10:02Z</time>
      </trkpt>
      <trkpt lat="47.33784" lon="-1.50424">
        <ele>60</ele>
        <time>2022-07-30T08:10:04Z</time>
      </trkpt>
      <trkpt lat="47.33788" lon="-1.50405">
        <ele>60</ele>
        <time>2022-07-30T08:10:06Z</time>
      </trkpt>
      <trkpt lat="47.3379" lon="-1.50385">
        <ele>60</ele>
        <time>2022-07-30T08:10:08Z</time>
      </trkpt>
      <trkpt lat="47.3379" lon="-1.50365">
        <ele>60</ele>
        <time>2022-07-30T08:10:10Z</time>
      </trkpt>
      <trkpt lat="47.33788" lon="-1.50345">
        <ele>60</ele>
        <time>2022-07-30T08:10:12Z</time>
      </trkpt>
      <trkpt lat="47.33785" lon="-1.50325">
        <ele>60</ele>
        <time>2022-07-30T08:10:14Z</time>
      </trkpt>
      <trkpt lat="47.33782" lon="-1.50306">
        <ele>60</ele>
        <time>2022-07-30T08:10:16Z</time>
      </trkpt>
      <trkpt lat="47.3378" lon="-1.50287">
        <ele>60</ele>
        <time>2022-07-30T08:10:18Z</time>
      </trkpt>
      <trkpt lat="47.33777" lon="-1.50268">
        <ele>61</ele>
        <time>2022-07-30T08:10:20Z</time>
      </trkpt>
      <trkpt lat="47.33775" lon="-1.5025">
        <ele>61</ele>
        <time>2022-07-30T08:10:22Z</time>
      </trkpt>
      <trkpt lat="47.33771" lon="-1.50232">
        <ele>62</ele>
        <time>2022-07-30T08:10:24Z</time>
      </trkpt>
      <trkpt lat="47.33768" lon="-1.50214">
        <ele>62</ele>
        <time>2022-07-30T08:10:26Z</time>
      </trkpt>
      <trkpt lat="47.33766" lon="-1.50196">
        <ele>62</ele>
        <time>2022-07-30T08:10:28Z</time>
      </trkpt>
      <trkpt lat="47.33763" lon="-1.50178">
        <ele>63</ele>
        <time>2022-07-30T08:10:30Z</time>
      </trkpt>
      <trkpt lat="47.3376" lon="-1.5016">
        <ele>63</ele>
        <time>2022-07-30T08:10:32Z</time>
      </trkpt>
      <trkpt lat="47.33757" lon="-1.50142">
        <ele>63</ele>
        <time>2022-07-30T08:10:34Z</time>
      </trkpt>
      <trkpt lat="47.33756" lon="-1.50123">
        <ele>64</ele>
        <time>2022-07-30T08:10:36Z</time>
      </trkpt>
      <trkpt lat="47.33755" lon="-1.50105">
        <ele>65</ele>
        <time>2022-07-30T08:10:38Z</time>
      </trkpt>
      <trkpt lat="47.33754" lon="-1.50087">
        <ele>66</ele>
        <time>2022-07-30T08:10:40Z</time>
      </trkpt>
      <trkpt lat="47.33753" lon="-1.5007">
        <ele>66</ele>
        <time>2022-07-30T08:10:42Z</time>
      </trkpt>
      <trkpt lat="47.33752" lon="-1.50053">
        <ele>66</ele>
        <time>2022-07-30T08:10:44Z</time>
      </trkpt>
      <trkpt lat="47.33749" lon="-1.50036">
        <ele>67</ele>
        <time>2022-07-30T08:10:46Z</time>
      </trkpt>
      <trkpt lat="47.33746" lon="-1.50019">
        <ele>67</ele>
        <time>2022-07-30T08:10:48Z</time>
      </trkpt>
      <trkpt lat="47.33743" lon="-1.50003">
        <ele>67</ele>
        <time>2022-07-30T08:10:50Z</time>
      </trkpt>
      <trkpt lat="47.33739" lon="-1.49987">
        <ele>67</ele>
        <time>2022-07-30T08:10:52Z</time>
      </trkpt>
      <trkpt lat="47.33735" lon="-1.4997">
        <ele>67</ele>
        <time>2022-07-30T08:10:54Z</time>
      </trkpt>
      <trkpt lat="47.3373" lon="-1.49954">
        <ele>67</ele>
        <time>2022-07-30T08:10:56Z</time>
      </trkpt>
      <trkpt lat="47.33723" lon="-1.49937">
        <ele>66</ele>
        <time>2022-07-30T08:10:58Z</time>
      </trkpt>
      <trkpt lat="47.33714" lon="-1.49922">
        <ele>65</ele>
        <time>2022-07-30T08:11:00Z</time>
      </trkpt>
      <trkpt lat="47.33702" lon="-1.49907">
        <ele>64</ele>
        <time>2022-07-30T08:11:02Z</time>
      </trkpt>
      <trkpt lat="47.33689" lon="-1.49894">
        <ele>63</ele>
        <time>2022-07-30T08:11:04Z</time>
      </trkpt>
      <trkpt lat="47.33677" lon="-1.49876">
        <ele>62</ele>
        <time>2022-07-30T08:11:06Z</time>
      </trkpt>
      <trkpt lat="47.33667" lon="-1.49855">
        <ele>61</ele>
        <time>2022-07-30T08:11:08Z</time>
      </trkpt>
      <trkpt lat="47.33659" lon="-1.49834">
        <ele>61</ele>
        <time>2022-07-30T08:11:10Z</time>
      </trkpt>
      <trkpt lat="47.33655" lon="-1.4981">
        <ele>60</ele>
        <time>2022-07-30T08:11:12Z</time>
      </trkpt>
      <trkpt lat="47.33654" lon="-1.49786">
        <ele>60</ele>
        <time>2022-07-30T08:11:14Z</time>
      </trkpt>
      <trkpt lat="47.33652" lon="-1.49762">
        <ele>59</ele>
        <time>2022-07-30T08:11:16Z</time>
      </trkpt>
      <trkpt lat="47.33649" lon="-1.4974">
        <ele>60</ele>
        <time>2022-07-30T08:11:18Z</time>
      </trkpt>
      <trkpt lat="47.33646" lon="-1.49718">
        <ele>60</ele>
        <time>2022-07-30T08:11:20Z</time>
      </trkpt>
      <trkpt lat="47.33644" lon="-1.49696">
        <ele>60</ele>
        <time>2022-07-30T08:11:22Z</time>
      </trkpt>
      <trkpt lat="47.33641" lon="-1.49674">
        <ele>60</ele>
        <time>2022-07-30T08:11:24Z</time>
      </trkpt>
      <trkpt lat="47.33639" lon="-1.49653">
        <ele>60</ele>
        <time>2022-07-30T08:11:26Z</time>
      </trkpt>
      <trkpt lat="47.33639" lon="-1.49623">
        <ele>60</ele>
        <time>2022-07-30T08:11:29Z</time>
      </trkpt>
      <trkpt lat="47.33641" lon="-1.49603">
        <ele>60</ele>
        <time>2022-07-30T08:11:31Z</time>
      </trkpt>
      <trkpt lat="47.33641" lon="-1.49573">
        <ele>60</ele>
        <time>2022-07-30T08:11:34Z</time>
      </trkpt>
      <trkpt lat="47.33639" lon="-1.49554">
        <ele>61</ele>
        <time>2022-07-30T08:11:36Z</time>
      </trkpt>
      <trkpt lat="47.33635" lon="-1.49527">
        <ele>62</ele>
        <time>2022-07-30T08:11:39Z</time>
      </trkpt>
      <trkpt lat="47.3363" lon="-1.49509">
        <ele>62</ele>
        <time>2022-07-30T08:11:41Z</time>
      </trkpt>
      <trkpt lat="47.33622" lon="-1.49482">
        <ele>63</ele>
        <time>2022-07-30T08:11:44Z</time>
      </trkpt>
      <trkpt lat="47.33611" lon="-1.49456">
        <ele>62</ele>
        <time>2022-07-30T08:11:47Z</time>
      </trkpt>
      <trkpt lat="47.33604" lon="-1.49439">
        <ele>62</ele>
        <time>2022-07-30T08:11:49Z</time>
      </trkpt>
      <trkpt lat="47.33597" lon="-1.49423">
        <ele>62</ele>
        <time>2022-07-30T08:11:51Z</time>
      </trkpt>
      <trkpt lat="47.3359" lon="-1.49408">
        <ele>62</ele>
        <time>2022-07-30T08:11:53Z</time>
      </trkpt>
      <trkpt lat="47.33583" lon="-1.49392">
        <ele>62</ele>
        <time>2022-07-30T08:11:55Z</time>
      </trkpt>
      <trkpt lat="47.33577" lon="-1.49375">
        <ele>61</ele>
        <time>2022-07-30T08:11:57Z</time>
      </trkpt>
      <trkpt lat="47.3357" lon="-1.4936">
        <ele>61</ele>
        <time>2022-07-30T08:11:59Z</time>
      </trkpt>
      <trkpt lat="47.33564" lon="-1.49345">
        <ele>61</ele>
        <time>2022-07-30T08:12:01Z</time>
      </trkpt>
      <trkpt lat="47.33567" lon="-1.49329">
        <ele>61</ele>
        <time>2022-07-30T08:12:03Z</time>
      </trkpt>
      <trkpt lat="47.33574" lon="-1.49317">
        <ele>61</ele>
        <time>2022-07-30T08:12:05Z</time>
      </trkpt>
      <trkpt lat="47.33583" lon="-1.49304">
        <ele>61</ele>
        <time>2022-07-30T08:12:07Z</time>
      </trkpt>
      <trkpt lat="47.33593" lon="-1.49292">
        <ele>61</ele>
        <time>2022-07-30T08:12:09Z</time>
      </trkpt>
      <trkpt lat="47.33602" lon="-1.4928">
        <ele>61</ele>
        <time>2022-07-30T08:12:11Z</time>
      </trkpt>
      <trkpt lat="47.33612" lon="-1.49267">
        <ele>61</ele>
        <time>2022-07-30T08:12:13Z</time>
      </trkpt>
      <trkpt lat="47.33622" lon="-1.49255">
        <ele>61</ele>
        <time>2022-07-30T08:12:15Z</time>
      </trkpt>
      <trkpt lat="47.3363" lon="-1.49243">
        <ele>61</ele>
        <time>2022-07-30T08:12:17Z</time>
      </trkpt>
      <trkpt lat="47.3364" lon="-1.49233">
        <ele>61</ele>
        <time>2022-07-30T08:12:19Z</time>
      </trkpt>
      <trkpt lat="47.33648" lon="-1.49222">
        <ele>61</ele>
        <time>2022-07-30T08:12:21Z</time>
      </trkpt>
      <trkpt lat="47.33656" lon="-1.49212">
        <ele>61</ele>
        <time>2022-07-30T08:12:23Z</time>
      </trkpt>
      <trkpt lat="47.33665" lon="-1.49201">
        <ele>62</ele>
        <time>2022-07-30T08:12:25Z</time>
      </trkpt>
      <trkpt lat="47.33673" lon="-1.49189">
        <ele>62</ele>
        <time>2022-07-30T08:12:27Z</time>
      </trkpt>
      <trkpt lat="47.33682" lon="-1.49178">
        <ele>62</ele>
        <time>2022-07-30T08:12:29Z</time>
      </trkpt>
      <trkpt lat="47.33689" lon="-1.49166">
        <ele>62</ele>
        <time>2022-07-30T08:12:31Z</time>
      </trkpt>
      <trkpt lat="47.33695" lon="-1.49152">
        <ele>61</ele>
        <time>2022-07-30T08:12:33Z</time>
      </trkpt>
      <trkpt lat="47.33698" lon="-1.49134">
        <ele>61</ele>
        <time>2022-07-30T08:12:35Z</time>
      </trkpt>
      <trkpt lat="47.337" lon="-1.49118">
        <ele>62</ele>
        <time>2022-07-30T08:12:37Z</time>
      </trkpt>
      <trkpt lat="47.33702" lon="-1.49101">
        <ele>62</ele>
        <time>2022-07-30T08:12:39Z</time>
      </trkpt>
      <trkpt lat="47.33706" lon="-1.49086">
        <ele>63</ele>
        <time>2022-07-30T08:12:41Z</time>
      </trkpt>
      <trkpt lat="47.33713" lon="-1.49073">
        <ele>63</ele>
        <time>2022-07-30T08:12:43Z</time>
      </trkpt>
      <trkpt lat="47.33721" lon="-1.49061">
        <ele>63</ele>
        <time>2022-07-30T08:12:45Z</time>
      </trkpt>
      <trkpt lat="47.3373" lon="-1.4905">
        <ele>63</ele>
        <time>2022-07-30T08:12:47Z</time>
      </trkpt>
      <trkpt lat="47.33739" lon="-1.49039">
        <ele>64</ele>
        <time>2022-07-30T08:12:49Z</time>
      </trkpt>
      <trkpt lat="47.33748" lon="-1.49029">
        <ele>64</ele>
        <time>2022-07-30T08:12:51Z</time>
      </trkpt>
      <trkpt lat="47.33757" lon="-1.4902">
        <ele>64</ele>
        <time>2022-07-30T08:12:53Z</time>
      </trkpt>
      <trkpt lat="47.33766" lon="-1.4901">
        <ele>65</ele>
        <time>2022-07-30T08:12:55Z</time>
      </trkpt>
      <trkpt lat="47.33774" lon="-1.49">
        <ele>65</ele>
        <time>2022-07-30T08:12:57Z</time>
      </trkpt>
      <trkpt lat="47.33782" lon="-1.4899">
        <ele>65</ele>
        <time>2022-07-30T08:12:59Z</time>
      </trkpt>
      <trkpt lat="47.3379" lon="-1.4898">
        <ele>64</ele>
        <time>2022-07-30T08:13:01Z</time>
      </trkpt>
      <trkpt lat="47.33799" lon="-1.48969">
        <ele>64</ele>
        <time>2022-07-30T08:13:03Z</time>
      </trkpt>
      <trkpt lat="47.33807" lon="-1.48957">
        <ele>64</ele>
        <time>2022-07-30T08:13:05Z</time>
      </trkpt>
      <trkpt lat="47.33816" lon="-1.48944">
        <ele>64</ele>
        <time>2022-07-30T08:13:07Z</time>
      </trkpt>
      <trkpt lat="47.33824" lon="-1.48931">
        <ele>63</ele>
        <time>2022-07-30T08:13:09Z</time>
      </trkpt>
      <trkpt lat="47.33833" lon="-1.48917">
        <ele>63</ele>
        <time>2022-07-30T08:13:11Z</time>
      </trkpt>
      <trkpt lat="47.33842" lon="-1.48903">
        <ele>63</ele>
        <time>2022-07-30T08:13:13Z</time>
      </trkpt>
      <trkpt lat="47.33851" lon="-1.4889">
        <ele>63</ele>
        <time>2022-07-30T08:13:15Z</time>
      </trkpt>
      <trkpt lat="47.33859" lon="-1.48876">
        <ele>63</ele>
        <time>2022-07-30T08:13:17Z</time>
      </trkpt>
      <trkpt lat="47.33868" lon="-1.48862">
        <ele>63</ele>
        <time>2022-07-30T08:13:19Z</time>
      </trkpt>
      <trkpt lat="47.33878" lon="-1.48848">
        <ele>62</ele>
        <time>2022-07-30T08:13:21Z</time>
      </trkpt>
      <trkpt lat="47.33887" lon="-1.48833">
        <ele>62</ele>
        <time>2022-07-30T08:13:23Z</time>
      </trkpt>
      <trkpt lat="47.33897" lon="-1.48818">
        <ele>62</ele>
        <time>2022-07-30T08:13:25Z</time>
      </trkpt>
      <trkpt lat="47.33906" lon="-1.48802">
        <ele>61</ele>
        <time>2022-07-30T08:13:27Z</time>
      </trkpt>
      <trkpt lat="47.33916" lon="-1.48786">
        <ele>61</ele>
        <time>2022-07-30T08:13:29Z</time>
      </trkpt>
      <trkpt lat="47.33925" lon="-1.4877">
        <ele>61</ele>
        <time>2022-07-30T08:13:31Z</time>
      </trkpt>
      <trkpt lat="47.33935" lon="-1.48755">
        <ele>61</ele>
        <time>2022-07-30T08:13:33Z</time>
      </trkpt>
      <trkpt lat="47.33945" lon="-1.48739">
        <ele>60</ele>
        <time>2022-07-30T08:13:35Z</time>
      </trkpt>
      <trkpt lat="47.33955" lon="-1.48723">
        <ele>60</ele>
        <time>2022-07-30T08:13:37Z</time>
      </trkpt>
      <trkpt lat="47.33966" lon="-1.48707">
        <ele>60</ele>
        <time>2022-07-30T08:13:39Z</time>
      </trkpt>
      <trkpt lat="47.33975" lon="-1.4869">
        <ele>60</ele>
        <time>2022-07-30T08:13:41Z</time>
      </trkpt>
      <trkpt lat="47.33985" lon="-1.48674">
        <ele>60</ele>
        <time>2022-07-30T08:13:43Z</time>
      </trkpt>
      <trkpt lat="47.33995" lon="-1.48658">
        <ele>60</ele>
        <time>2022-07-30T08:13:45Z</time>
      </trkpt>
      <trkpt lat="47.34005" lon="-1.48642">
        <ele>59</ele>
        <time>2022-07-30T08:13:47Z</time>
      </trkpt>
      <trkpt lat="47.34015" lon="-1.48626">
        <ele>58</ele>
        <time>2022-07-30T08:13:49Z</time>
      </trkpt>
      <trkpt lat="47.34025" lon="-1.4861">
        <ele>58</ele>
        <time>2022-07-30T08:13:51Z</time>
      </trkpt>
      <trkpt lat="47.34034" lon="-1.48593">
        <ele>58</ele>
        <time>2022-07-30T08:13:53Z</time>
      </trkpt>
      <trkpt lat="47.34042" lon="-1.48576">
        <ele>59</ele>
        <time>2022-07-30T08:13:55Z</time>
      </trkpt>
      <trkpt lat="47.34051" lon="-1.48559">
        <ele>59</ele>
        <time>2022-07-30T08:13:57Z</time>
      </trkpt>
      <trkpt lat="47.34059" lon="-1.48543">
        <ele>59</ele>
        <time>2022-07-30T08:13:59Z</time>
      </trkpt>
      <trkpt lat="47.34067" lon="-1.48526">
        <ele>60</ele>
        <time>2022-07-30T08:14:01Z</time>
      </trkpt>
      <trkpt lat="47.34074" lon="-1.4851">
        <ele>60</ele>
        <time>2022-07-30T08:14:03Z</time>
      </trkpt>
      <trkpt lat="47.34082" lon="-1.48493">
        <ele>60</ele>
        <time>2022-07-30T08:14:05Z</time>
      </trkpt>
      <trkpt lat="47.3409" lon="-1.48476">
        <ele>59</ele>
        <time>2022-07-30T08:14:07Z</time>
      </trkpt>
      <trkpt lat="47.34097" lon="-1.48461">
        <ele>58</ele>
        <time>2022-07-30T08:14:09Z</time>
      </trkpt>
      <trkpt lat="47.34105" lon="-1.48445">
        <ele>58</ele>
        <time>2022-07-30T08:14:11Z</time>
      </trkpt>
      <trkpt lat="47.34112" lon="-1.48429">
        <ele>58</ele>
        <time>2022-07-30T08:14:13Z</time>
      </trkpt>
      <trkpt lat="47.3412" lon="-1.48412">
        <ele>58</ele>
        <time>2022-07-30T08:14:15Z</time>
      </trkpt>
      <trkpt lat="47.34128" lon="-1.48396">
        <ele>59</ele>
        <time>2022-07-30T08:14:17Z</time>
      </trkpt>
      <trkpt lat="47.34135" lon="-1.48381">
        <ele>58</ele>
        <time>2022-07-30T08:14:19Z</time>
      </trkpt>
      <trkpt lat="47.34143" lon="-1.48365">
        <ele>58</ele>
        <time>2022-07-30T08:14:21Z</time>
      </trkpt>
      <trkpt lat="47.34151" lon="-1.48349">
        <ele>57</ele>
        <time>2022-07-30T08:14:23Z</time>
      </trkpt>
      <trkpt lat="47.34159" lon="-1.48333">
        <ele>57</ele>
        <time>2022-07-30T08:14:25Z</time>
      </trkpt>
      <trkpt lat="47.34166" lon="-1.48318">
        <ele>58</ele>
        <time>2022-07-30T08:14:27Z</time>
      </trkpt>
      <trkpt lat="47.34174" lon="-1.48301">
        <ele>58</ele>
        <time>2022-07-30T08:14:29Z</time>
      </trkpt>
      <trkpt lat="47.34181" lon="-1.48286">
        <ele>58</ele>
        <time>2022-07-30T08:14:31Z</time>
      </trkpt>
      <trkpt lat="47.34189" lon="-1.48269">
        <ele>57</ele>
        <time>2022-07-30T08:14:33Z</time>
      </trkpt>
      <trkpt lat="47.34197" lon="-1.48255">
        <ele>57</ele>
        <time>2022-07-30T08:14:35Z</time>
      </trkpt>
      <trkpt lat="47.34206" lon="-1.4824">
        <ele>58</ele>
        <time>2022-07-30T08:14:37Z</time>
      </trkpt>
      <trkpt lat="47.34215" lon="-1.48225">
        <ele>57</ele>
        <time>2022-07-30T08:14:39Z</time>
      </trkpt>
      <trkpt lat="47.34223" lon="-1.4821">
        <ele>57</ele>
        <time>2022-07-30T08:14:41Z</time>
      </trkpt>
      <trkpt lat="47.34232" lon="-1.48197">
        <ele>58</ele>
        <time>2022-07-30T08:14:43Z</time>
      </trkpt>
      <trkpt lat="47.34241" lon="-1.48182">
        <ele>58</ele>
        <time>2022-07-30T08:14:45Z</time>
      </trkpt>
      <trkpt lat="47.3425" lon="-1.48168">
        <ele>57</ele>
        <time>2022-07-30T08:14:47Z</time>
      </trkpt>
      <trkpt lat="47.34259" lon="-1.48153">
        <ele>57</ele>
        <time>2022-07-30T08:14:49Z</time>
      </trkpt>
      <trkpt lat="47.34268" lon="-1.48138">
        <ele>57</ele>
        <time>2022-07-30T08:14:51Z</time>
      </trkpt>
      <trkpt lat="47.34277" lon="-1.48124">
        <ele>58</ele>
        <time>2022-07-30T08:14:53Z</time>
      </trkpt>
      <trkpt lat="47.34286" lon="-1.4811">
        <ele>58</ele>
        <time>2022-07-30T08:14:55Z</time>
      </trkpt>
      <trkpt lat="47.34294" lon="-1.48096">
        <ele>58</ele>
        <time>2022-07-30T08:14:57Z</time>
      </trkpt>
      <trkpt lat="47.34303" lon="-1.48082">
        <ele>57</ele>
        <time>2022-07-30T08:14:59Z</time>
      </trkpt>
      <trkpt lat="47.34311" lon="-1.48068">
        <ele>57</ele>
        <time>2022-07-30T08:15:01Z</time>
      </trkpt>
      <trkpt lat="47.3432" lon="-1.48053">
        <ele>58</ele>
        <time>2022-07-30T08:15:03Z</time>
      </trkpt>
      <trkpt lat="47.34329" lon="-1.48039">
        <ele>58</ele>
        <time>2022-07-30T08:15:05Z</time>
      </trkpt>
      <trkpt lat="47.34338" lon="-1.48026">
        <ele>58</ele>
        <time>2022-07-30T08:15:07Z</time>
      </trkpt>
      <trkpt lat="47.34347" lon="-1.48011">
        <ele>58</ele>
        <time>2022-07-30T08:15:09Z</time>
      </trkpt>
      <trkpt lat="47.34356" lon="-1.47996">
        <ele>58</ele>
        <time>2022-07-30T08:15:11Z</time>
      </trkpt>
      <trkpt lat="47.34365" lon="-1.47982">
        <ele>58</ele>
        <time>2022-07-30T08:15:13Z</time>
      </trkpt>
      <trkpt lat="47.34375" lon="-1.47967">
        <ele>59</ele>
        <time>2022-07-30T08:15:15Z</time>
      </trkpt>
      <trkpt lat="47.34384" lon="-1.47953">
        <ele>59</ele>
        <time>2022-07-30T08:15:17Z</time>
      </trkpt>
      <trkpt lat="47.34393" lon="-1.47939">
        <ele>58</ele>
        <time>2022-07-30T08:15:19Z</time>
      </trkpt>
      <trkpt lat="47.34403" lon="-1.47926">
        <ele>58</ele>
        <time>2022-07-30T08:15:21Z</time>
      </trkpt>
      <trkpt lat="47.34412" lon="-1.47911">
        <ele>58</ele>
        <time>2022-07-30T08:15:23Z</time>
      </trkpt>
      <trkpt lat="47.34422" lon="-1.47898">
        <ele>58</ele>
        <time>2022-07-30T08:15:25Z</time>
      </trkpt>
      <trkpt lat="47.34432" lon="-1.47885">
        <ele>58</ele>
        <time>2022-07-30T08:15:27Z</time>
      </trkpt>
      <trkpt lat="47.34443" lon="-1.47873">
        <ele>58</ele>
        <time>2022-07-30T08:15:29Z</time>
      </trkpt>
      <trkpt lat="47.34454" lon="-1.47862">
        <ele>58</ele>
        <time>2022-07-30T08:15:31Z</time>
      </trkpt>
      <trkpt lat="47.34464" lon="-1.47851">
        <ele>58</ele>
        <time>2022-07-30T08:15:33Z</time>
      </trkpt>
      <trkpt lat="47.34475" lon="-1.47838">
        <ele>58</ele>
        <time>2022-07-30T08:15:35Z</time>
      </trkpt>
      <trkpt lat="47.34485" lon="-1.47827">
        <ele>58</ele>
        <time>2022-07-30T08:15:37Z</time>
      </trkpt>
      <trkpt lat="47.34496" lon="-1.47814">
        <ele>58</ele>
        <time>2022-07-30T08:15:39Z</time>
      </trkpt>
      <trkpt lat="47.34507" lon="-1.47802">
        <ele>58</ele>
        <time>2022-07-30T08:15:41Z</time>
      </trkpt>
      <trkpt lat="47.34518" lon="-1.4779">
        <ele>58</ele>
        <time>2022-07-30T08:15:43Z</time>
      </trkpt>
      <trkpt lat="47.34529" lon="-1.47777">
        <ele>58</ele>
        <time>2022-07-30T08:15:45Z</time>
      </trkpt>
      <trkpt lat="47.34539" lon="-1.47765">
        <ele>58</ele>
        <time>2022-07-30T08:15:47Z</time>
      </trkpt>
      <trkpt lat="47.3455" lon="-1.47753">
        <ele>57</ele>
        <time>2022-07-30T08:15:49Z</time>
      </trkpt>
      <trkpt lat="47.34561" lon="-1.47741">
        <ele>57</ele>
        <time>2022-07-30T08:15:51Z</time>
      </trkpt>
      <trkpt lat="47.34571" lon="-1.47729">
        <ele>57</ele>
        <time>2022-07-30T08:15:53Z</time>
      </trkpt>
      <trkpt lat="47.34582" lon="-1.47717">
        <ele>57</ele>
        <time>2022-07-30T08:15:55Z</time>
      </trkpt>
      <trkpt lat="47.34593" lon="-1.47704">
        <ele>57</ele>
        <time>2022-07-30T08:15:57Z</time>
      </trkpt>
      <trkpt lat="47.34603" lon="-1.47693">
        <ele>58</ele>
        <time>2022-07-30T08:15:59Z</time>
      </trkpt>
      <trkpt lat="47.34614" lon="-1.47681">
        <ele>58</ele>
        <time>2022-07-30T08:16:01Z</time>
      </trkpt>
      <trkpt lat="47.34624" lon="-1.4767">
        <ele>58</ele>
        <time>2022-07-30T08:16:03Z</time>
      </trkpt>
      <trkpt lat="47.34634" lon="-1.47659">
        <ele>58</ele>
        <time>2022-07-30T08:16:05Z</time>
      </trkpt>
      <trkpt lat="47.34644" lon="-1.47648">
        <ele>58</ele>
        <time>2022-07-30T08:16:07Z</time>
      </trkpt>
      <trkpt lat="47.34653" lon="-1.47638">
        <ele>59</ele>
        <time>2022-07-30T08:16:09Z</time>
      </trkpt>
      <trkpt lat="47.34663" lon="-1.47627">
        <ele>59</ele>
        <time>2022-07-30T08:16:11Z</time>
      </trkpt>
      <trkpt lat="47.34672" lon="-1.47616">
        <ele>59</ele>
        <time>2022-07-30T08:16:13Z</time>
      </trkpt>
      <trkpt lat="47.34682" lon="-1.47606">
        <ele>59</ele>
        <time>2022-07-30T08:16:15Z</time>
      </trkpt>
      <trkpt lat="47.34691" lon="-1.47595">
        <ele>59</ele>
        <time>2022-07-30T08:16:17Z</time>
      </trkpt>
      <trkpt lat="47.347" lon="-1.47585">
        <ele>59</ele>
        <time>2022-07-30T08:16:19Z</time>
      </trkpt>
      <trkpt lat="47.34709" lon="-1.47575">
        <ele>58</ele>
        <time>2022-07-30T08:16:21Z</time>
      </trkpt>
      <trkpt lat="47.34719" lon="-1.47564">
        <ele>59</ele>
        <time>2022-07-30T08:16:23Z</time>
      </trkpt>
      <trkpt lat="47.34728" lon="-1.47553">
        <ele>59</ele>
        <time>2022-07-30T08:16:25Z</time>
      </trkpt>
      <trkpt lat="47.34738" lon="-1.47542">
        <ele>59</ele>
        <time>2022-07-30T08:16:27Z</time>
      </trkpt>
      <trkpt lat="47.34747" lon="-1.47531">
        <ele>59</ele>
        <time>2022-07-30T08:16:29Z</time>
      </trkpt>
      <trkpt lat="47.34756" lon="-1.47519">
        <ele>58</ele>
        <time>2022-07-30T08:16:31Z</time>
      </trkpt>
      <trkpt lat="47.34765" lon="-1.47507">
        <ele>58</ele>
        <time>2022-07-30T08:16:33Z</time>
      </trkpt>
      <trkpt lat="47.34773" lon="-1.47494">
        <ele>58</ele>
        <time>2022-07-30T08:16:35Z</time>
      </trkpt>
      <trkpt lat="47.3478" lon="-1.4748">
        <ele>58</ele>
        <time>2022-07-30T08:16:37Z</time>
      </trkpt>
      <trkpt lat="47.34788" lon="-1.47465">
        <ele>59</ele>
        <time>2022-07-30T08:16:39Z</time>
      </trkpt>
      <trkpt lat="47.34794" lon="-1.47448">
        <ele>58</ele>
        <time>2022-07-30T08:16:41Z</time>
      </trkpt>
      <trkpt lat="47.348" lon="-1.47432">
        <ele>58</ele>
        <time>2022-07-30T08:16:43Z</time>
      </trkpt>
      <trkpt lat="47.34806" lon="-1.47416">
        <ele>58</ele>
        <time>2022-07-30T08:16:45Z</time>
      </trkpt>
      <trkpt lat="47.34813" lon="-1.474">
        <ele>58</ele>
        <time>2022-07-30T08:16:47Z</time>
      </trkpt>
      <trkpt lat="47.3482" lon="-1.47384">
        <ele>58</ele>
        <time>2022-07-30T08:16:49Z</time>
      </trkpt>
      <trkpt lat="47.34827" lon="-1.47369">
        <ele>59</ele>
        <time>2022-07-30T08:16:51Z</time>
      </trkpt>
      <trkpt lat="47.34835" lon="-1.47356">
        <ele>59</ele>
        <time>2022-07-30T08:16:53Z</time>
      </trkpt>
      <trkpt lat="47.34845" lon="-1.47343">
        <ele>59</ele>
        <time>2022-07-30T08:16:55Z</time>
      </trkpt>
      <trkpt lat="47.34855" lon="-1.47332">
        <ele>59</ele>
        <time>2022-07-30T08:16:57Z</time>
      </trkpt>
      <trkpt lat="47.34865" lon="-1.47322">
        <ele>60</ele>
        <time>2022-07-30T08:16:59Z</time>
      </trkpt>
      <trkpt lat="47.34876" lon="-1.47313">
        <ele>60</ele>
        <time>2022-07-30T08:17:01Z</time>
      </trkpt>
      <trkpt lat="47.34887" lon="-1.47304">
        <ele>59</ele>
        <time>2022-07-30T08:17:03Z</time>
      </trkpt>
      <trkpt lat="47.34897" lon="-1.47296">
        <ele>59</ele>
        <time>2022-07-30T08:17:05Z</time>
      </trkpt>
      <trkpt lat="47.34908" lon="-1.47289">
        <ele>59</ele>
        <time>2022-07-30T08:17:07Z</time>
      </trkpt>
      <trkpt lat="47.34917" lon="-1.47282">
        <ele>60</ele>
        <time>2022-07-30T08:17:09Z</time>
      </trkpt>
      <trkpt lat="47.34927" lon="-1.47274">
        <ele>60</ele>
        <time>2022-07-30T08:17:11Z</time>
      </trkpt>
      <trkpt lat="47.34938" lon="-1.47267">
        <ele>60</ele>
        <time>2022-07-30T08:17:13Z</time>
      </trkpt>
      <trkpt lat="47.34949" lon="-1.47261">
        <ele>61</ele>
        <time>2022-07-30T08:17:15Z</time>
      </trkpt>
      <trkpt lat="47.3496" lon="-1.47256">
        <ele>61</ele>
        <time>2022-07-30T08:17:17Z</time>
      </trkpt>
      <trkpt lat="47.34972" lon="-1.47251">
        <ele>62</ele>
        <time>2022-07-30T08:17:19Z</time>
      </trkpt>
      <trkpt lat="47.34983" lon="-1.47245">
        <ele>62</ele>
        <time>2022-07-30T08:17:21Z</time>
      </trkpt>
      <trkpt lat="47.34993" lon="-1.47238">
        <ele>62</ele>
        <time>2022-07-30T08:17:23Z</time>
      </trkpt>
      <trkpt lat="47.35002" lon="-1.47227">
        <ele>62</ele>
        <time>2022-07-30T08:17:25Z</time>
      </trkpt>
      <trkpt lat="47.35011" lon="-1.47218">
        <ele>63</ele>
        <time>2022-07-30T08:17:27Z</time>
      </trkpt>
      <trkpt lat="47.35022" lon="-1.47213">
        <ele>63</ele>
        <time>2022-07-30T08:17:29Z</time>
      </trkpt>
      <trkpt lat="47.35032" lon="-1.47212">
        <ele>63</ele>
        <time>2022-07-30T08:17:31Z</time>
      </trkpt>
      <trkpt lat="47.35043" lon="-1.47216">
        <ele>64</ele>
        <time>2022-07-30T08:17:33Z</time>
      </trkpt>
      <trkpt lat="47.35054" lon="-1.47221">
        <ele>64</ele>
        <time>2022-07-30T08:17:35Z</time>
      </trkpt>
      <trkpt lat="47.35065" lon="-1.47226">
        <ele>64</ele>
        <time>2022-07-30T08:17:37Z</time>
      </trkpt>
      <trkpt lat="47.35077" lon="-1.47228">
        <ele>64</ele>
        <time>2022-07-30T08:17:39Z</time>
      </trkpt>
      <trkpt lat="47.35089" lon="-1.47231">
        <ele>64</ele>
        <time>2022-07-30T08:17:41Z</time>
      </trkpt>
      <trkpt lat="47.35101" lon="-1.47234">
        <ele>64</ele>
        <time>2022-07-30T08:17:43Z</time>
      </trkpt>
      <trkpt lat="47.35113" lon="-1.47238">
        <ele>64</ele>
        <time>2022-07-30T08:17:45Z</time>
      </trkpt>
      <trkpt lat="47.35125" lon="-1.4724">
        <ele>63</ele>
        <time>2022-07-30T08:17:47Z</time>
      </trkpt>
      <trkpt lat="47.35137" lon="-1.47242">
        <ele>63</ele>
        <time>2022-07-30T08:17:49Z</time>
      </trkpt>
      <trkpt lat="47.35149" lon="-1.47243">
        <ele>63</ele>
        <time>2022-07-30T08:17:51Z</time>
      </trkpt>
      <trkpt lat="47.35161" lon="-1.47242">
        <ele>63</ele>
        <time>2022-07-30T08:17:53Z</time>
      </trkpt>
      <trkpt lat="47.35173" lon="-1.47239">
        <ele>63</ele>
        <time>2022-07-30T08:17:55Z</time>
      </trkpt>
      <trkpt lat="47.35185" lon="-1.47235">
        <ele>63</ele>
        <time>2022-07-30T08:17:57Z</time>
      </trkpt>
      <trkpt lat="47.35196" lon="-1.47233">
        <ele>63</ele>
        <time>2022-07-30T08:17:59Z</time>
      </trkpt>
      <trkpt lat="47.35208" lon="-1.47234">
        <ele>63</ele>
        <time>2022-07-30T08:18:01Z</time>
      </trkpt>
      <trkpt lat="47.35219" lon="-1.47244">
        <ele>62</ele>
        <time>2022-07-30T08:18:03Z</time>
      </trkpt>
      <trkpt lat="47.35227" lon="-1.47258">
        <ele>62</ele>
        <time>2022-07-30T08:18:05Z</time>
      </trkpt>
      <trkpt lat="47.35234" lon="-1.47271">
        <ele>63</ele>
        <time>2022-07-30T08:18:07Z</time>
      </trkpt>
      <trkpt lat="47.35242" lon="-1.47285">
        <ele>62</ele>
        <time>2022-07-30T08:18:09Z</time>
      </trkpt>
      <trkpt lat="47.3525" lon="-1.47298">
        <ele>62</ele>
        <time>2022-07-30T08:18:11Z</time>
      </trkpt>
      <trkpt lat="47.35262" lon="-1.47297">
        <ele>62</ele>
        <time>2022-07-30T08:18:13Z</time>
      </trkpt>
      <trkpt lat="47.35271" lon="-1.47289">
        <ele>62</ele>
        <time>2022-07-30T08:18:15Z</time>
      </trkpt>
      <trkpt lat="47.35281" lon="-1.47281">
        <ele>62</ele>
        <time>2022-07-30T08:18:17Z</time>
      </trkpt>
      <trkpt lat="47.35293" lon="-1.47279">
        <ele>63</ele>
        <time>2022-07-30T08:18:19Z</time>
      </trkpt>
      <trkpt lat="47.35305" lon="-1.47279">
        <ele>63</ele>
        <time>2022-07-30T08:18:21Z</time>
      </trkpt>
      <trkpt lat="47.35316" lon="-1.47279">
        <ele>63</ele>
        <time>2022-07-30T08:18:23Z</time>
      </trkpt>
      <trkpt lat="47.35327" lon="-1.47278">
        <ele>63</ele>
        <time>2022-07-30T08:18:25Z</time>
      </trkpt>
      <trkpt lat="47.35337" lon="-1.47278">
        <ele>64</ele>
        <time>2022-07-30T08:18:27Z</time>
      </trkpt>
      <trkpt lat="47.35347" lon="-1.47278">
        <ele>64</ele>
        <time>2022-07-30T08:18:29Z</time>
      </trkpt>
      <trkpt lat="47.35361" lon="-1.47275">
        <ele>65</ele>
        <time>2022-07-30T08:18:32Z</time>
      </trkpt>
      <trkpt lat="47.3537" lon="-1.47272">
        <ele>65</ele>
        <time>2022-07-30T08:18:34Z</time>
      </trkpt>
      <trkpt lat="47.35379" lon="-1.47267">
        <ele>67</ele>
        <time>2022-07-30T08:18:36Z</time>
      </trkpt>
      <trkpt lat="47.35388" lon="-1.4726">
        <ele>68</ele>
        <time>2022-07-30T08:18:38Z</time>
      </trkpt>
      <trkpt lat="47.35397" lon="-1.47252">
        <ele>68</ele>
        <time>2022-07-30T08:18:40Z</time>
      </trkpt>
      <trkpt lat="47.35407" lon="-1.47243">
        <ele>68</ele>
        <time>2022-07-30T08:18:42Z</time>
      </trkpt>
      <trkpt lat="47.35416" lon="-1.47235">
        <ele>69</ele>
        <time>2022-07-30T08:18:44Z</time>
      </trkpt>
      <trkpt lat="47.35425" lon="-1.47226">
        <ele>69</ele>
        <time>2022-07-30T08:18:46Z</time>
      </trkpt>
      <trkpt lat="47.35434" lon="-1.47218">
        <ele>70</ele>
        <time>2022-07-30T08:18:48Z</time>
      </trkpt>
      <trkpt lat="47.35443" lon="-1.47211">
        <ele>70</ele>
        <time>2022-07-30T08:18:50Z</time>
      </trkpt>
      <trkpt lat="47.35452" lon="-1.47203">
        <ele>71</ele>
        <time>2022-07-30T08:18:52Z</time>
      </trkpt>
      <trkpt lat="47.35461" lon="-1.47195">
        <ele>71</ele>
        <time>2022-07-30T08:18:54Z</time>
      </trkpt>
      <trkpt lat="47.35469" lon="-1.47187">
        <ele>72</ele>
        <time>2022-07-30T08:18:56Z</time>
      </trkpt>
      <trkpt lat="47.35478" lon="-1.4718">
        <ele>72</ele>
        <time>2022-07-30T08:18:58Z</time>
      </trkpt>
      <trkpt lat="47.35487" lon="-1.47173">
        <ele>73</ele>
        <time>2022-07-30T08:19:00Z</time>
      </trkpt>
      <trkpt lat="47.35495" lon="-1.47166">
        <ele>73</ele>
        <time>2022-07-30T08:19:02Z</time>
      </trkpt>
      <trkpt lat="47.35504" lon="-1.47158">
        <ele>73</ele>
        <time>2022-07-30T08:19:04Z</time>
      </trkpt>
      <trkpt lat="47.35513" lon="-1.4715">
        <ele>73</ele>
        <time>2022-07-30T08:19:06Z</time>
      </trkpt>
      <trkpt lat="47.35522" lon="-1.47142">
        <ele>72</ele>
        <time>2022-07-30T08:19:08Z</time>
      </trkpt>
      <trkpt lat="47.35531" lon="-1.47133">
        <ele>72</ele>
        <time>2022-07-30T08:19:10Z</time>
      </trkpt>
      <trkpt lat="47.35541" lon="-1.47125">
        <ele>73</ele>
        <time>2022-07-30T08:19:12Z</time>
      </trkpt>
      <trkpt lat="47.35551" lon="-1.47116">
        <ele>73</ele>
        <time>2022-07-30T08:19:14Z</time>
      </trkpt>
      <trkpt lat="47.35561" lon="-1.47108">
        <ele>73</ele>
        <time>2022-07-30T08:19:16Z</time>
      </trkpt>
      <trkpt lat="47.35569" lon="-1.47101">
        <ele>73</ele>
        <time>2022-07-30T08:19:18Z</time>
      </trkpt>
      <trkpt lat="47.35578" lon="-1.47093">
        <ele>73</ele>
        <time>2022-07-30T08:19:20Z</time>
      </trkpt>
      <trkpt lat="47.35586" lon="-1.47086">
        <ele>73</ele>
        <time>2022-07-30T08:19:22Z</time>
      </trkpt>
      <trkpt lat="47.35595" lon="-1.47078">
        <ele>72</ele>
        <time>2022-07-30T08:19:24Z</time>
      </trkpt>
      <trkpt lat="47.35605" lon="-1.4707">
        <ele>72</ele>
        <time>2022-07-30T08:19:26Z</time>
      </trkpt>
      <trkpt lat="47.35615" lon="-1.47061">
        <ele>71</ele>
        <time>2022-07-30T08:19:28Z</time>
      </trkpt>
      <trkpt lat="47.35627" lon="-1.47052">
        <ele>71</ele>
        <time>2022-07-30T08:19:30Z</time>
      </trkpt>
      <trkpt lat="47.3564" lon="-1.4704">
        <ele>70</ele>
        <time>2022-07-30T08:19:32Z</time>
      </trkpt>
      <trkpt lat="47.35655" lon="-1.47027">
        <ele>68</ele>
        <time>2022-07-30T08:19:34Z</time>
      </trkpt>
      <trkpt lat="47.35663" lon="-1.4702">
        <ele>68</ele>
        <time>2022-07-30T08:19:35Z</time>
      </trkpt>
      <trkpt lat="47.35671" lon="-1.47013">
        <ele>67</ele>
        <time>2022-07-30T08:19:36Z</time>
      </trkpt>
      <trkpt lat="47.3568" lon="-1.47005">
        <ele>66</ele>
        <time>2022-07-30T08:19:37Z</time>
      </trkpt>
      <trkpt lat="47.35689" lon="-1.46997">
        <ele>65</ele>
        <time>2022-07-30T08:19:38Z</time>
      </trkpt>
      <trkpt lat="47.35699" lon="-1.46989">
        <ele>64</ele>
        <time>2022-07-30T08:19:39Z</time>
      </trkpt>
      <trkpt lat="47.35709" lon="-1.4698">
        <ele>63</ele>
        <time>2022-07-30T08:19:40Z</time>
      </trkpt>
      <trkpt lat="47.35718" lon="-1.46972">
        <ele>63</ele>
        <time>2022-07-30T08:19:41Z</time>
      </trkpt>
      <trkpt lat="47.35726" lon="-1.46964">
        <ele>62</ele>
        <time>2022-07-30T08:19:42Z</time>
      </trkpt>
      <trkpt lat="47.35738" lon="-1.46953">
        <ele>61</ele>
        <time>2022-07-30T08:19:44Z</time>
      </trkpt>
      <trkpt lat="47.35745" lon="-1.46939">
        <ele>60</ele>
        <time>2022-07-30T08:19:46Z</time>
      </trkpt>
      <trkpt lat="47.35745" lon="-1.4692">
        <ele>60</ele>
        <time>2022-07-30T08:19:48Z</time>
      </trkpt>
      <trkpt lat="47.35743" lon="-1.469">
        <ele>60</ele>
        <time>2022-07-30T08:19:50Z</time>
      </trkpt>
      <trkpt lat="47.35741" lon="-1.46879">
        <ele>59</ele>
        <time>2022-07-30T08:19:52Z</time>
      </trkpt>
      <trkpt lat="47.35739" lon="-1.4686">
        <ele>59</ele>
        <time>2022-07-30T08:19:54Z</time>
      </trkpt>
      <trkpt lat="47.35736" lon="-1.46842">
        <ele>59</ele>
        <time>2022-07-30T08:19:56Z</time>
      </trkpt>
      <trkpt lat="47.35734" lon="-1.46823">
        <ele>59</ele>
        <time>2022-07-30T08:19:58Z</time>
      </trkpt>
      <trkpt lat="47.35734" lon="-1.46804">
        <ele>57</ele>
        <time>2022-07-30T08:20:00Z</time>
      </trkpt>
      <trkpt lat="47.35736" lon="-1.46784">
        <ele>57</ele>
        <time>2022-07-30T08:20:02Z</time>
      </trkpt>
      <trkpt lat="47.35739" lon="-1.46766">
        <ele>58</ele>
        <time>2022-07-30T08:20:04Z</time>
      </trkpt>
      <trkpt lat="47.35741" lon="-1.46748">
        <ele>58</ele>
        <time>2022-07-30T08:20:06Z</time>
      </trkpt>
      <trkpt lat="47.35744" lon="-1.4673">
        <ele>58</ele>
        <time>2022-07-30T08:20:08Z</time>
      </trkpt>
      <trkpt lat="47.35747" lon="-1.46711">
        <ele>59</ele>
        <time>2022-07-30T08:20:10Z</time>
      </trkpt>
      <trkpt lat="47.3575" lon="-1.46692">
        <ele>59</ele>
        <time>2022-07-30T08:20:12Z</time>
      </trkpt>
      <trkpt lat="47.35753" lon="-1.46674">
        <ele>59</ele>
        <time>2022-07-30T08:20:14Z</time>
      </trkpt>
      <trkpt lat="47.35757" lon="-1.46656">
        <ele>59</ele>
        <time>2022-07-30T08:20:16Z</time>
      </trkpt>
      <trkpt lat="47.35765" lon="-1.46641">
        <ele>58</ele>
        <time>2022-07-30T08:20:18Z</time>
      </trkpt>
      <trkpt lat="47.35775" lon="-1.46628">
        <ele>58</ele>
        <time>2022-07-30T08:20:20Z</time>
      </trkpt>
      <trkpt lat="47.35787" lon="-1.46619">
        <ele>58</ele>
        <time>2022-07-30T08:20:22Z</time>
      </trkpt>
      <trkpt lat="47.35799" lon="-1.4661">
        <ele>58</ele>
        <time>2022-07-30T08:20:24Z</time>
      </trkpt>
      <trkpt lat="47.3581" lon="-1.46601">
        <ele>58</ele>
        <time>2022-07-30T08:20:26Z</time>
      </trkpt>
      <trkpt lat="47.35822" lon="-1.46592">
        <ele>58</ele>
        <time>2022-07-30T08:20:28Z</time>
      </trkpt>
      <trkpt lat="47.35833" lon="-1.46583">
        <ele>58</ele>
        <time>2022-07-30T08:20:30Z</time>
      </trkpt>
      <trkpt lat="47.35844" lon="-1.46574">
        <ele>58</ele>
        <time>2022-07-30T08:20:32Z</time>
      </trkpt>
      <trkpt lat="47.35855" lon="-1.46565">
        <ele>57</ele>
        <time>2022-07-30T08:20:34Z</time>
      </trkpt>
      <trkpt lat="47.35867" lon="-1.46556">
        <ele>58</ele>
        <time>2022-07-30T08:20:36Z</time>
      </trkpt>
      <trkpt lat="47.35878" lon="-1.46546">
        <ele>58</ele>
        <time>2022-07-30T08:20:38Z</time>
      </trkpt>
      <trkpt lat="47.35886" lon="-1.46531">
        <ele>58</ele>
        <time>2022-07-30T08:20:40Z</time>
      </trkpt>
      <trkpt lat="47.3589" lon="-1.46514">
        <ele>58</ele>
        <time>2022-07-30T08:20:42Z</time>
      </trkpt>
      <trkpt lat="47.35894" lon="-1.46496">
        <ele>58</ele>
        <time>2022-07-30T08:20:44Z</time>
      </trkpt>
      <trkpt lat="47.35898" lon="-1.46477">
        <ele>58</ele>
        <time>2022-07-30T08:20:46Z</time>
      </trkpt>
      <trkpt lat="47.35902" lon="-1.46459">
        <ele>58</ele>
        <time>2022-07-30T08:20:48Z</time>
      </trkpt>
      <trkpt lat="47.35905" lon="-1.46441">
        <ele>58</ele>
        <time>2022-07-30T08:20:50Z</time>
      </trkpt>
      <trkpt lat="47.35908" lon="-1.46422">
        <ele>59</ele>
        <time>2022-07-30T08:20:52Z</time>
      </trkpt>
      <trkpt lat="47.3591" lon="-1.46404">
        <ele>58</ele>
        <time>2022-07-30T08:20:54Z</time>
      </trkpt>
      <trkpt lat="47.35911" lon="-1.46388">
        <ele>58</ele>
        <time>2022-07-30T08:20:56Z</time>
      </trkpt>
      <trkpt lat="47.35906" lon="-1.46372">
        <ele>57</ele>
        <time>2022-07-30T08:20:58Z</time>
      </trkpt>
      <trkpt lat="47.35898" lon="-1.46359">
        <ele>58</ele>
        <time>2022-07-30T08:21:00Z</time>
      </trkpt>
      <trkpt lat="47.3589" lon="-1.46346">
        <ele>57</ele>
        <time>2022-07-30T08:21:02Z</time>
      </trkpt>
      <trkpt lat="47.35881" lon="-1.46333">
        <ele>57</ele>
        <time>2022-07-30T08:21:04Z</time>
      </trkpt>
      <trkpt lat="47.35872" lon="-1.4632">
        <ele>57</ele>
        <time>2022-07-30T08:21:06Z</time>
      </trkpt>
      <trkpt lat="47.35862" lon="-1.46309">
        <ele>57</ele>
        <time>2022-07-30T08:21:08Z</time>
      </trkpt>
      <trkpt lat="47.35853" lon="-1.46295">
        <ele>58</ele>
        <time>2022-07-30T08:21:10Z</time>
      </trkpt>
      <trkpt lat="47.35847" lon="-1.4628">
        <ele>58</ele>
        <time>2022-07-30T08:21:12Z</time>
      </trkpt>
      <trkpt lat="47.35841" lon="-1.46263">
        <ele>59</ele>
        <time>2022-07-30T08:21:14Z</time>
      </trkpt>
      <trkpt lat="47.35837" lon="-1.46245">
        <ele>58</ele>
        <time>2022-07-30T08:21:16Z</time>
      </trkpt>
      <trkpt lat="47.35837" lon="-1.46228">
        <ele>58</ele>
        <time>2022-07-30T08:21:18Z</time>
      </trkpt>
      <trkpt lat="47.35841" lon="-1.46211">
        <ele>58</ele>
        <time>2022-07-30T08:21:20Z</time>
      </trkpt>
      <trkpt lat="47.35846" lon="-1.46195">
        <ele>58</ele>
        <time>2022-07-30T08:21:22Z</time>
      </trkpt>
      <trkpt lat="47.35847" lon="-1.46179">
        <ele>58</ele>
        <time>2022-07-30T08:21:24Z</time>
      </trkpt>
      <trkpt lat="47.35845" lon="-1.46162">
        <ele>58</ele>
        <time>2022-07-30T08:21:26Z</time>
      </trkpt>
      <trkpt lat="47.35841" lon="-1.46145">
        <ele>59</ele>
        <time>2022-07-30T08:21:28Z</time>
      </trkpt>
      <trkpt lat="47.35837" lon="-1.46128">
        <ele>59</ele>
        <time>2022-07-30T08:21:30Z</time>
      </trkpt>
      <trkpt lat="47.35834" lon="-1.46111">
        <ele>59</ele>
        <time>2022-07-30T08:21:32Z</time>
      </trkpt>
      <trkpt lat="47.35831" lon="-1.46095">
        <ele>59</ele>
        <time>2022-07-30T08:21:34Z</time>
      </trkpt>
      <trkpt lat="47.35827" lon="-1.46079">
        <ele>59</ele>
        <time>2022-07-30T08:21:36Z</time>
      </trkpt>
      <trkpt lat="47.35822" lon="-1.46063">
        <ele>59</ele>
        <time>2022-07-30T08:21:38Z</time>
      </trkpt>
      <trkpt lat="47.35817" lon="-1.46048">
        <ele>59</ele>
        <time>2022-07-30T08:21:40Z</time>
      </trkpt>
      <trkpt lat="47.35811" lon="-1.46033">
        <ele>58</ele>
        <time>2022-07-30T08:21:42Z</time>
      </trkpt>
      <trkpt lat="47.35807" lon="-1.46018">
        <ele>59</ele>
        <time>2022-07-30T08:21:44Z</time>
      </trkpt>
      <trkpt lat="47.35804" lon="-1.46003">
        <ele>59</ele>
        <time>2022-07-30T08:21:46Z</time>
      </trkpt>
      <trkpt lat="47.35802" lon="-1.45988">
        <ele>60</ele>
        <time>2022-07-30T08:21:48Z</time>
      </trkpt>
      <trkpt lat="47.35802" lon="-1.45972">
        <ele>61</ele>
        <time>2022-07-30T08:21:50Z</time>
      </trkpt>
      <trkpt lat="47.35802" lon="-1.45955">
        <ele>61</ele>
        <time>2022-07-30T08:21:52Z</time>
      </trkpt>
      <trkpt lat="47.35802" lon="-1.45938">
        <ele>61</ele>
        <time>2022-07-30T08:21:54Z</time>
      </trkpt>
      <trkpt lat="47.35802" lon="-1.45922">
        <ele>62</ele>
        <time>2022-07-30T08:21:56Z</time>
      </trkpt>
      <trkpt lat="47.35802" lon="-1.45906">
        <ele>62</ele>
        <time>2022-07-30T08:21:58Z</time>
      </trkpt>
      <trkpt lat="47.35802" lon="-1.4589">
        <ele>63</ele>
        <time>2022-07-30T08:22:00Z</time>
      </trkpt>
      <trkpt lat="47.35801" lon="-1.45873">
        <ele>63</ele>
        <time>2022-07-30T08:22:02Z</time>
      </trkpt>
      <trkpt lat="47.358" lon="-1.45857">
        <ele>63</ele>
        <time>2022-07-30T08:22:04Z</time>
      </trkpt>
      <trkpt lat="47.358" lon="-1.4584">
        <ele>64</ele>
        <time>2022-07-30T08:22:06Z</time>
      </trkpt>
      <trkpt lat="47.35799" lon="-1.45823">
        <ele>64</ele>
        <time>2022-07-30T08:22:08Z</time>
      </trkpt>
      <trkpt lat="47.35798" lon="-1.45807">
        <ele>64</ele>
        <time>2022-07-30T08:22:10Z</time>
      </trkpt>
      <trkpt lat="47.35798" lon="-1.45791">
        <ele>64</ele>
        <time>2022-07-30T08:22:12Z</time>
      </trkpt>
      <trkpt lat="47.35798" lon="-1.45774">
        <ele>64</ele>
        <time>2022-07-30T08:22:14Z</time>
      </trkpt>
      <trkpt lat="47.35797" lon="-1.45758">
        <ele>64</ele>
        <time>2022-07-30T08:22:16Z</time>
      </trkpt>
      <trkpt lat="47.35796" lon="-1.45744">
        <ele>64</ele>
        <time>2022-07-30T08:22:18Z</time>
      </trkpt>
      <trkpt lat="47.35794" lon="-1.4573">
        <ele>64</ele>
        <time>2022-07-30T08:22:21Z</time>
      </trkpt>
      <trkpt lat="47.3579" lon="-1.45716">
        <ele>65</ele>
        <time>2022-07-30T08:22:26Z</time>
      </trkpt>
      <trkpt lat="47.35786" lon="-1.45703">
        <ele>65</ele>
        <time>2022-07-30T08:22:28Z</time>
      </trkpt>
      <trkpt lat="47.35783" lon="-1.45689">
        <ele>65</ele>
        <time>2022-07-30T08:22:30Z</time>
      </trkpt>
      <trkpt lat="47.35779" lon="-1.45674">
        <ele>66</ele>
        <time>2022-07-30T08:22:32Z</time>
      </trkpt>
      <trkpt lat="47.35776" lon="-1.45659">
        <ele>66</ele>
        <time>2022-07-30T08:22:34Z</time>
      </trkpt>
      <trkpt lat="47.35772" lon="-1.45643">
        <ele>66</ele>
        <time>2022-07-30T08:22:36Z</time>
      </trkpt>
      <trkpt lat="47.35769" lon="-1.45627">
        <ele>66</ele>
        <time>2022-07-30T08:22:38Z</time>
      </trkpt>
      <trkpt lat="47.35766" lon="-1.4561">
        <ele>67</ele>
        <time>2022-07-30T08:22:40Z</time>
      </trkpt>
      <trkpt lat="47.35765" lon="-1.45593">
        <ele>67</ele>
        <time>2022-07-30T08:22:42Z</time>
      </trkpt>
      <trkpt lat="47.35765" lon="-1.45576">
        <ele>67</ele>
        <time>2022-07-30T08:22:44Z</time>
      </trkpt>
      <trkpt lat="47.35766" lon="-1.45559">
        <ele>67</ele>
        <time>2022-07-30T08:22:46Z</time>
      </trkpt>
      <trkpt lat="47.35769" lon="-1.45543">
        <ele>67</ele>
        <time>2022-07-30T08:22:48Z</time>
      </trkpt>
      <trkpt lat="47.35773" lon="-1.45526">
        <ele>66</ele>
        <time>2022-07-30T08:22:50Z</time>
      </trkpt>
      <trkpt lat="47.35778" lon="-1.45511">
        <ele>66</ele>
        <time>2022-07-30T08:22:52Z</time>
      </trkpt>
      <trkpt lat="47.35783" lon="-1.45495">
        <ele>66</ele>
        <time>2022-07-30T08:22:54Z</time>
      </trkpt>
      <trkpt lat="47.35788" lon="-1.4548">
        <ele>66</ele>
        <time>2022-07-30T08:22:56Z</time>
      </trkpt>
      <trkpt lat="47.35794" lon="-1.45464">
        <ele>66</ele>
        <time>2022-07-30T08:22:58Z</time>
      </trkpt>
      <trkpt lat="47.35798" lon="-1.45447">
        <ele>66</ele>
        <time>2022-07-30T08:23:00Z</time>
      </trkpt>
      <trkpt lat="47.35801" lon="-1.4543">
        <ele>67</ele>
        <time>2022-07-30T08:23:02Z</time>
      </trkpt>
      <trkpt lat="47.35802" lon="-1.45412">
        <ele>66</ele>
        <time>2022-07-30T08:23:04Z</time>
      </trkpt>
      <trkpt lat="47.35802" lon="-1.45395">
        <ele>66</ele>
        <time>2022-07-30T08:23:06Z</time>
      </trkpt>
      <trkpt lat="47.35802" lon="-1.45378">
        <ele>66</ele>
        <time>2022-07-30T08:23:08Z</time>
      </trkpt>
      <trkpt lat="47.358" lon="-1.45361">
        <ele>66</ele>
        <time>2022-07-30T08:23:10Z</time>
      </trkpt>
      <trkpt lat="47.35796" lon="-1.45344">
        <ele>66</ele>
        <time>2022-07-30T08:23:12Z</time>
      </trkpt>
      <trkpt lat="47.35793" lon="-1.45327">
        <ele>66</ele>
        <time>2022-07-30T08:23:14Z</time>
      </trkpt>
      <trkpt lat="47.3579" lon="-1.45311">
        <ele>67</ele>
        <time>2022-07-30T08:23:16Z</time>
      </trkpt>
      <trkpt lat="47.35787" lon="-1.45295">
        <ele>68</ele>
        <time>2022-07-30T08:23:18Z</time>
      </trkpt>
      <trkpt lat="47.35784" lon="-1.45279">
        <ele>68</ele>
        <time>2022-07-30T08:23:20Z</time>
      </trkpt>
      <trkpt lat="47.35781" lon="-1.45264">
        <ele>68</ele>
        <time>2022-07-30T08:23:22Z</time>
      </trkpt>
      <trkpt lat="47.35778" lon="-1.45247">
        <ele>68</ele>
        <time>2022-07-30T08:23:24Z</time>
      </trkpt>
      <trkpt lat="47.35776" lon="-1.4523">
        <ele>69</ele>
        <time>2022-07-30T08:23:26Z</time>
      </trkpt>
      <trkpt lat="47.35773" lon="-1.45214">
        <ele>69</ele>
        <time>2022-07-30T08:23:28Z</time>
      </trkpt>
      <trkpt lat="47.3577" lon="-1.45198">
        <ele>69</ele>
        <time>2022-07-30T08:23:30Z</time>
      </trkpt>
      <trkpt lat="47.35768" lon="-1.45182">
        <ele>70</ele>
        <time>2022-07-30T08:23:32Z</time>
      </trkpt>
      <trkpt lat="47.35766" lon="-1.45166">
        <ele>70</ele>
        <time>2022-07-30T08:23:34Z</time>
      </trkpt>
      <trkpt lat="47.35766" lon="-1.45149">
        <ele>71</ele>
        <time>2022-07-30T08:23:36Z</time>
      </trkpt>
      <trkpt lat="47.35766" lon="-1.45133">
        <ele>71</ele>
        <time>2022-07-30T08:23:38Z</time>
      </trkpt>
      <trkpt lat="47.35767" lon="-1.45116">
        <ele>71</ele>
        <time>2022-07-30T08:23:40Z</time>
      </trkpt>
      <trkpt lat="47.35769" lon="-1.45099">
        <ele>72</ele>
        <time>2022-07-30T08:23:42Z</time>
      </trkpt>
      <trkpt lat="47.35771" lon="-1.45083">
        <ele>72</ele>
        <time>2022-07-30T08:23:44Z</time>
      </trkpt>
      <trkpt lat="47.35774" lon="-1.45066">
        <ele>72</ele>
        <time>2022-07-30T08:23:46Z</time>
      </trkpt>
      <trkpt lat="47.35776" lon="-1.4505">
        <ele>73</ele>
        <time>2022-07-30T08:23:48Z</time>
      </trkpt>
      <trkpt lat="47.35778" lon="-1.45032">
        <ele>72</ele>
        <time>2022-07-30T08:23:50Z</time>
      </trkpt>
      <trkpt lat="47.3578" lon="-1.45016">
        <ele>73</ele>
        <time>2022-07-30T08:23:52Z</time>
      </trkpt>
      <trkpt lat="47.35781" lon="-1.45">
        <ele>73</ele>
        <time>2022-07-30T08:23:54Z</time>
      </trkpt>
      <trkpt lat="47.35782" lon="-1.44983">
        <ele>73</ele>
        <time>2022-07-30T08:23:56Z</time>
      </trkpt>
      <trkpt lat="47.35782" lon="-1.44966">
        <ele>73</ele>
        <time>2022-07-30T08:23:58Z</time>
      </trkpt>
      <trkpt lat="47.35783" lon="-1.44949">
        <ele>74</ele>
        <time>2022-07-30T08:24:00Z</time>
      </trkpt>
      <trkpt lat="47.35784" lon="-1.44931">
        <ele>74</ele>
        <time>2022-07-30T08:24:02Z</time>
      </trkpt>
      <trkpt lat="47.35785" lon="-1.44914">
        <ele>74</ele>
        <time>2022-07-30T08:24:04Z</time>
      </trkpt>
      <trkpt lat="47.35785" lon="-1.44897">
        <ele>74</ele>
        <time>2022-07-30T08:24:06Z</time>
      </trkpt>
      <trkpt lat="47.35784" lon="-1.44879">
        <ele>74</ele>
        <time>2022-07-30T08:24:08Z</time>
      </trkpt>
      <trkpt lat="47.35784" lon="-1.44861">
        <ele>74</ele>
        <time>2022-07-30T08:24:10Z</time>
      </trkpt>
      <trkpt lat="47.35785" lon="-1.44844">
        <ele>75</ele>
        <time>2022-07-30T08:24:12Z</time>
      </trkpt>
      <trkpt lat="47.35785" lon="-1.44826">
        <ele>75</ele>
        <time>2022-07-30T08:24:14Z</time>
      </trkpt>
      <trkpt lat="47.35786" lon="-1.44809">
        <ele>75</ele>
        <time>2022-07-30T08:24:16Z</time>
      </trkpt>
      <trkpt lat="47.35786" lon="-1.44792">
        <ele>76</ele>
        <time>2022-07-30T08:24:18Z</time>
      </trkpt>
      <trkpt lat="47.35786" lon="-1.44775">
        <ele>77</ele>
        <time>2022-07-30T08:24:20Z</time>
      </trkpt>
      <trkpt lat="47.35786" lon="-1.44759">
        <ele>77</ele>
        <time>2022-07-30T08:24:22Z</time>
      </trkpt>
      <trkpt lat="47.35787" lon="-1.44743">
        <ele>77</ele>
        <time>2022-07-30T08:24:24Z</time>
      </trkpt>
      <trkpt lat="47.35787" lon="-1.44727">
        <ele>77</ele>
        <time>2022-07-30T08:24:26Z</time>
      </trkpt>
      <trkpt lat="47.35788" lon="-1.44711">
        <ele>78</ele>
        <time>2022-07-30T08:24:28Z</time>
      </trkpt>
      <trkpt lat="47.35788" lon="-1.44695">
        <ele>78</ele>
        <time>2022-07-30T08:24:30Z</time>
      </trkpt>
      <trkpt lat="47.35789" lon="-1.4468">
        <ele>79</ele>
        <time>2022-07-30T08:24:32Z</time>
      </trkpt>
      <trkpt lat="47.35789" lon="-1.44663">
        <ele>79</ele>
        <time>2022-07-30T08:24:34Z</time>
      </trkpt>
      <trkpt lat="47.3579" lon="-1.44648">
        <ele>80</ele>
        <time>2022-07-30T08:24:36Z</time>
      </trkpt>
      <trkpt lat="47.3579" lon="-1.44633">
        <ele>81</ele>
        <time>2022-07-30T08:24:38Z</time>
      </trkpt>
      <trkpt lat="47.35791" lon="-1.44618">
        <ele>81</ele>
        <time>2022-07-30T08:24:40Z</time>
      </trkpt>
      <trkpt lat="47.35792" lon="-1.44603">
        <ele>82</ele>
        <time>2022-07-30T08:24:42Z</time>
      </trkpt>
      <trkpt lat="47.35793" lon="-1.44588">
        <ele>82</ele>
        <time>2022-07-30T08:24:44Z</time>
      </trkpt>
      <trkpt lat="47.35795" lon="-1.44573">
        <ele>82</ele>
        <time>2022-07-30T08:24:46Z</time>
      </trkpt>
      <trkpt lat="47.35797" lon="-1.44558">
        <ele>83</ele>
        <time>2022-07-30T08:24:48Z</time>
      </trkpt>
      <trkpt lat="47.35798" lon="-1.44544">
        <ele>83</ele>
        <time>2022-07-30T08:24:50Z</time>
      </trkpt>
      <trkpt lat="47.358" lon="-1.44529">
        <ele>84</ele>
        <time>2022-07-30T08:24:52Z</time>
      </trkpt>
      <trkpt lat="47.35801" lon="-1.44514">
        <ele>84</ele>
        <time>2022-07-30T08:24:54Z</time>
      </trkpt>
      <trkpt lat="47.35803" lon="-1.44499">
        <ele>84</ele>
        <time>2022-07-30T08:24:56Z</time>
      </trkpt>
      <trkpt lat="47.35804" lon="-1.44485">
        <ele>84</ele>
        <time>2022-07-30T08:24:58Z</time>
      </trkpt>
      <trkpt lat="47.35805" lon="-1.44471">
        <ele>84</ele>
        <time>2022-07-30T08:25:00Z</time>
      </trkpt>
      <trkpt lat="47.35806" lon="-1.44456">
        <ele>85</ele>
        <time>2022-07-30T08:25:02Z</time>
      </trkpt>
      <trkpt lat="47.35807" lon="-1.44439">
        <ele>84</ele>
        <time>2022-07-30T08:25:04Z</time>
      </trkpt>
      <trkpt lat="47.35808" lon="-1.44423">
        <ele>84</ele>
        <time>2022-07-30T08:25:06Z</time>
      </trkpt>
      <trkpt lat="47.35809" lon="-1.44406">
        <ele>85</ele>
        <time>2022-07-30T08:25:08Z</time>
      </trkpt>
      <trkpt lat="47.35809" lon="-1.4439">
        <ele>85</ele>
        <time>2022-07-30T08:25:10Z</time>
      </trkpt>
      <trkpt lat="47.35809" lon="-1.44373">
        <ele>85</ele>
        <time>2022-07-30T08:25:12Z</time>
      </trkpt>
      <trkpt lat="47.35809" lon="-1.44356">
        <ele>85</ele>
        <time>2022-07-30T08:25:14Z</time>
      </trkpt>
      <trkpt lat="47.35809" lon="-1.44339">
        <ele>85</ele>
        <time>2022-07-30T08:25:16Z</time>
      </trkpt>
      <trkpt lat="47.35809" lon="-1.44321">
        <ele>85</ele>
        <time>2022-07-30T08:25:18Z</time>
      </trkpt>
      <trkpt lat="47.3581" lon="-1.44304">
        <ele>85</ele>
        <time>2022-07-30T08:25:20Z</time>
      </trkpt>
      <trkpt lat="47.35813" lon="-1.44286">
        <ele>85</ele>
        <time>2022-07-30T08:25:22Z</time>
      </trkpt>
      <trkpt lat="47.35817" lon="-1.4427">
        <ele>85</ele>
        <time>2022-07-30T08:25:24Z</time>
      </trkpt>
      <trkpt lat="47.35824" lon="-1.44255">
        <ele>84</ele>
        <time>2022-07-30T08:25:26Z</time>
      </trkpt>
      <trkpt lat="47.35833" lon="-1.44242">
        <ele>84</ele>
        <time>2022-07-30T08:25:28Z</time>
      </trkpt>
      <trkpt lat="47.35842" lon="-1.44228">
        <ele>84</ele>
        <time>2022-07-30T08:25:30Z</time>
      </trkpt>
      <trkpt lat="47.35851" lon="-1.44216">
        <ele>84</ele>
        <time>2022-07-30T08:25:32Z</time>
      </trkpt>
      <trkpt lat="47.3586" lon="-1.44203">
        <ele>85</ele>
        <time>2022-07-30T08:25:34Z</time>
      </trkpt>
      <trkpt lat="47.35869" lon="-1.44191">
        <ele>85</ele>
        <time>2022-07-30T08:25:36Z</time>
      </trkpt>
      <trkpt lat="47.35878" lon="-1.44178">
        <ele>85</ele>
        <time>2022-07-30T08:25:38Z</time>
      </trkpt>
      <trkpt lat="47.35887" lon="-1.44165">
        <ele>85</ele>
        <time>2022-07-30T08:25:40Z</time>
      </trkpt>
      <trkpt lat="47.35896" lon="-1.44153">
        <ele>86</ele>
        <time>2022-07-30T08:25:42Z</time>
      </trkpt>
      <trkpt lat="47.35905" lon="-1.44141">
        <ele>86</ele>
        <time>2022-07-30T08:25:44Z</time>
      </trkpt>
      <trkpt lat="47.35914" lon="-1.44129">
        <ele>86</ele>
        <time>2022-07-30T08:25:46Z</time>
      </trkpt>
      <trkpt lat="47.35923" lon="-1.44117">
        <ele>86</ele>
        <time>2022-07-30T08:25:48Z</time>
      </trkpt>
      <trkpt lat="47.35932" lon="-1.44105">
        <ele>87</ele>
        <time>2022-07-30T08:25:50Z</time>
      </trkpt>
      <trkpt lat="47.35939" lon="-1.44095">
        <ele>87</ele>
        <time>2022-07-30T08:25:52Z</time>
      </trkpt>
      <trkpt lat="47.35946" lon="-1.44084">
        <ele>87</ele>
        <time>2022-07-30T08:25:54Z</time>
      </trkpt>
      <trkpt lat="47.35954" lon="-1.44073">
        <ele>87</ele>
        <time>2022-07-30T08:25:56Z</time>
      </trkpt>
      <trkpt lat="47.35963" lon="-1.44062">
        <ele>87</ele>
        <time>2022-07-30T08:25:58Z</time>
      </trkpt>
      <trkpt lat="47.35972" lon="-1.4405">
        <ele>87</ele>
        <time>2022-07-30T08:26:00Z</time>
      </trkpt>
      <trkpt lat="47.35982" lon="-1.44038">
        <ele>86</ele>
        <time>2022-07-30T08:26:02Z</time>
      </trkpt>
      <trkpt lat="47.35992" lon="-1.44027">
        <ele>86</ele>
        <time>2022-07-30T08:26:04Z</time>
      </trkpt>
      <trkpt lat="47.36002" lon="-1.44016">
        <ele>86</ele>
        <time>2022-07-30T08:26:06Z</time>
      </trkpt>
      <trkpt lat="47.36011" lon="-1.44004">
        <ele>86</ele>
        <time>2022-07-30T08:26:08Z</time>
      </trkpt>
      <trkpt lat="47.36021" lon="-1.43991">
        <ele>86</ele>
        <time>2022-07-30T08:26:10Z</time>
      </trkpt>
      <trkpt lat="47.3603" lon="-1.43978">
        <ele>86</ele>
        <time>2022-07-30T08:26:12Z</time>
      </trkpt>
      <trkpt lat="47.36039" lon="-1.43962">
        <ele>85</ele>
        <time>2022-07-30T08:26:14Z</time>
      </trkpt>
      <trkpt lat="47.36046" lon="-1.43946">
        <ele>85</ele>
        <time>2022-07-30T08:26:16Z</time>
      </trkpt>
      <trkpt lat="47.36053" lon="-1.43928">
        <ele>85</ele>
        <time>2022-07-30T08:26:18Z</time>
      </trkpt>
      <trkpt lat="47.36059" lon="-1.43909">
        <ele>84</ele>
        <time>2022-07-30T08:26:20Z</time>
      </trkpt>
      <trkpt lat="47.36063" lon="-1.43888">
        <ele>83</ele>
        <time>2022-07-30T08:26:22Z</time>
      </trkpt>
      <trkpt lat="47.36067" lon="-1.43867">
        <ele>82</ele>
        <time>2022-07-30T08:26:24Z</time>
      </trkpt>
      <trkpt lat="47.36069" lon="-1.43844">
        <ele>82</ele>
        <time>2022-07-30T08:26:26Z</time>
      </trkpt>
      <trkpt lat="47.36071" lon="-1.43821">
        <ele>81</ele>
        <time>2022-07-30T08:26:28Z</time>
      </trkpt>
      <trkpt lat="47.36075" lon="-1.43797">
        <ele>80</ele>
        <time>2022-07-30T08:26:30Z</time>
      </trkpt>
      <trkpt lat="47.36079" lon="-1.43773">
        <ele>79</ele>
        <time>2022-07-30T08:26:32Z</time>
      </trkpt>
      <trkpt lat="47.36084" lon="-1.43749">
        <ele>78</ele>
        <time>2022-07-30T08:26:34Z</time>
      </trkpt>
      <trkpt lat="47.36092" lon="-1.43726">
        <ele>78</ele>
        <time>2022-07-30T08:26:36Z</time>
      </trkpt>
      <trkpt lat="47.36101" lon="-1.43704">
        <ele>78</ele>
        <time>2022-07-30T08:26:38Z</time>
      </trkpt>
      <trkpt lat="47.36112" lon="-1.43685">
        <ele>77</ele>
        <time>2022-07-30T08:26:40Z</time>
      </trkpt>
      <trkpt lat="47.36123" lon="-1.43667">
        <ele>77</ele>
        <time>2022-07-30T08:26:42Z</time>
      </trkpt>
      <trkpt lat="47.36133" lon="-1.4365">
        <ele>78</ele>
        <time>2022-07-30T08:26:44Z</time>
      </trkpt>
      <trkpt lat="47.36142" lon="-1.43631">
        <ele>78</ele>
        <time>2022-07-30T08:26:46Z</time>
      </trkpt>
      <trkpt lat="47.36151" lon="-1.43613">
        <ele>79</ele>
        <time>2022-07-30T08:26:48Z</time>
      </trkpt>
      <trkpt lat="47.36159" lon="-1.43596">
        <ele>79</ele>
        <time>2022-07-30T08:26:50Z</time>
      </trkpt>
      <trkpt lat="47.36167" lon="-1.43578">
        <ele>79</ele>
        <time>2022-07-30T08:26:52Z</time>
      </trkpt>
      <trkpt lat="47.36175" lon="-1.43561">
        <ele>78</ele>
        <time>2022-07-30T08:26:54Z</time>
      </trkpt>
      <trkpt lat="47.36183" lon="-1.43545">
        <ele>77</ele>
        <time>2022-07-30T08:26:56Z</time>
      </trkpt>
      <trkpt lat="47.36191" lon="-1.4353">
        <ele>77</ele>
        <time>2022-07-30T08:26:58Z</time>
      </trkpt>
      <trkpt lat="47.36199" lon="-1.43516">
        <ele>77</ele>
        <time>2022-07-30T08:27:00Z</time>
      </trkpt>
      <trkpt lat="47.36208" lon="-1.43504">
        <ele>78</ele>
        <time>2022-07-30T08:27:02Z</time>
      </trkpt>
      <trkpt lat="47.36216" lon="-1.43492">
        <ele>78</ele>
        <time>2022-07-30T08:27:04Z</time>
      </trkpt>
      <trkpt lat="47.36225" lon="-1.43482">
        <ele>79</ele>
        <time>2022-07-30T08:27:06Z</time>
      </trkpt>
      <trkpt lat="47.36233" lon="-1.43472">
        <ele>80</ele>
        <time>2022-07-30T08:27:08Z</time>
      </trkpt>
      <trkpt lat="47.36241" lon="-1.43463">
        <ele>80</ele>
        <time>2022-07-30T08:27:10Z</time>
      </trkpt>
      <trkpt lat="47.36249" lon="-1.43454">
        <ele>80</ele>
        <time>2022-07-30T08:27:12Z</time>
      </trkpt>
      <trkpt lat="47.36257" lon="-1.43446">
        <ele>81</ele>
        <time>2022-07-30T08:27:14Z</time>
      </trkpt>
      <trkpt lat="47.36264" lon="-1.43439">
        <ele>81</ele>
        <time>2022-07-30T08:27:16Z</time>
      </trkpt>
      <trkpt lat="47.36272" lon="-1.43431">
        <ele>82</ele>
        <time>2022-07-30T08:27:18Z</time>
      </trkpt>
      <trkpt lat="47.36283" lon="-1.4342">
        <ele>83</ele>
        <time>2022-07-30T08:27:21Z</time>
      </trkpt>
      <trkpt lat="47.36294" lon="-1.4341">
        <ele>83</ele>
        <time>2022-07-30T08:27:24Z</time>
      </trkpt>
      <trkpt lat="47.36305" lon="-1.43399">
        <ele>84</ele>
        <time>2022-07-30T08:27:27Z</time>
      </trkpt>
      <trkpt lat="47.36315" lon="-1.43389">
        <ele>85</ele>
        <time>2022-07-30T08:27:30Z</time>
      </trkpt>
      <trkpt lat="47.36325" lon="-1.43378">
        <ele>86</ele>
        <time>2022-07-30T08:27:33Z</time>
      </trkpt>
      <trkpt lat="47.36335" lon="-1.43367">
        <ele>87</ele>
        <time>2022-07-30T08:27:36Z</time>
      </trkpt>
      <trkpt lat="47.36345" lon="-1.43357">
        <ele>88</ele>
        <time>2022-07-30T08:27:39Z</time>
      </trkpt>
      <trkpt lat="47.36355" lon="-1.43347">
        <ele>89</ele>
        <time>2022-07-30T08:27:42Z</time>
      </trkpt>
      <trkpt lat="47.36365" lon="-1.43338">
        <ele>90</ele>
        <time>2022-07-30T08:27:45Z</time>
      </trkpt>
      <trkpt lat="47.36374" lon="-1.43328">
        <ele>91</ele>
        <time>2022-07-30T08:27:48Z</time>
      </trkpt>
      <trkpt lat="47.36386" lon="-1.43315">
        <ele>91</ele>
        <time>2022-07-30T08:27:52Z</time>
      </trkpt>
      <trkpt lat="47.36396" lon="-1.43306">
        <ele>92</ele>
        <time>2022-07-30T08:27:55Z</time>
      </trkpt>
      <trkpt lat="47.36406" lon="-1.43295">
        <ele>93</ele>
        <time>2022-07-30T08:27:58Z</time>
      </trkpt>
      <trkpt lat="47.36415" lon="-1.43285">
        <ele>94</ele>
        <time>2022-07-30T08:28:01Z</time>
      </trkpt>
      <trkpt lat="47.36423" lon="-1.43275">
        <ele>94</ele>
        <time>2022-07-30T08:28:04Z</time>
      </trkpt>
      <trkpt lat="47.36432" lon="-1.43263">
        <ele>95</ele>
        <time>2022-07-30T08:28:07Z</time>
      </trkpt>
      <trkpt lat="47.3644" lon="-1.43251">
        <ele>95</ele>
        <time>2022-07-30T08:28:10Z</time>
      </trkpt>
      <trkpt lat="47.36448" lon="-1.43238">
        <ele>96</ele>
        <time>2022-07-30T08:28:13Z</time>
      </trkpt>
      <trkpt lat="47.36455" lon="-1.43224">
        <ele>97</ele>
        <time>2022-07-30T08:28:16Z</time>
      </trkpt>
      <trkpt lat="47.36462" lon="-1.43209">
        <ele>97</ele>
        <time>2022-07-30T08:28:19Z</time>
      </trkpt>
      <trkpt lat="47.36469" lon="-1.43193">
        <ele>97</ele>
        <time>2022-07-30T08:28:22Z</time>
      </trkpt>
      <trkpt lat="47.36476" lon="-1.43178">
        <ele>98</ele>
        <time>2022-07-30T08:28:25Z</time>
      </trkpt>
      <trkpt lat="47.36483" lon="-1.43162">
        <ele>98</ele>
        <time>2022-07-30T08:28:28Z</time>
      </trkpt>
      <trkpt lat="47.3649" lon="-1.43146">
        <ele>98</ele>
        <time>2022-07-30T08:28:31Z</time>
      </trkpt>
      <trkpt lat="47.36496" lon="-1.43135">
        <ele>98</ele>
        <time>2022-07-30T08:28:33Z</time>
      </trkpt>
      <trkpt lat="47.365" lon="-1.43123">
        <ele>99</ele>
        <time>2022-07-30T08:28:35Z</time>
      </trkpt>
      <trkpt lat="47.36505" lon="-1.43111">
        <ele>99</ele>
        <time>2022-07-30T08:28:37Z</time>
      </trkpt>
      <trkpt lat="47.36509" lon="-1.43096">
        <ele>99</ele>
        <time>2022-07-30T08:28:39Z</time>
      </trkpt>
      <trkpt lat="47.36513" lon="-1.43079">
        <ele>98</ele>
        <time>2022-07-30T08:28:41Z</time>
      </trkpt>
      <trkpt lat="47.36515" lon="-1.43063">
        <ele>99</ele>
        <time>2022-07-30T08:28:43Z</time>
      </trkpt>
      <trkpt lat="47.36517" lon="-1.43047">
        <ele>100</ele>
        <time>2022-07-30T08:28:45Z</time>
      </trkpt>
      <trkpt lat="47.36519" lon="-1.4303">
        <ele>100</ele>
        <time>2022-07-30T08:28:47Z</time>
      </trkpt>
      <trkpt lat="47.36522" lon="-1.43013">
        <ele>100</ele>
        <time>2022-07-30T08:28:49Z</time>
      </trkpt>
      <trkpt lat="47.36526" lon="-1.42998">
        <ele>100</ele>
        <time>2022-07-30T08:28:51Z</time>
      </trkpt>
      <trkpt lat="47.36534" lon="-1.42987">
        <ele>101</ele>
        <time>2022-07-30T08:28:53Z</time>
      </trkpt>
      <trkpt lat="47.36544" lon="-1.42982">
        <ele>101</ele>
        <time>2022-07-30T08:28:55Z</time>
      </trkpt>
      <trkpt lat="47.36555" lon="-1.4298">
        <ele>101</ele>
        <time>2022-07-30T08:28:57Z</time>
      </trkpt>
      <trkpt lat="47.36567" lon="-1.42979">
        <ele>101</ele>
        <time>2022-07-30T08:28:59Z</time>
      </trkpt>
      <trkpt lat="47.36579" lon="-1.42978">
        <ele>101</ele>
        <time>2022-07-30T08:29:01Z</time>
      </trkpt>
      <trkpt lat="47.36591" lon="-1.42978">
        <ele>101</ele>
        <time>2022-07-30T08:29:03Z</time>
      </trkpt>
      <trkpt lat="47.36604" lon="-1.42977">
        <ele>101</ele>
        <time>2022-07-30T08:29:05Z</time>
      </trkpt>
      <trkpt lat="47.36617" lon="-1.42977">
        <ele>101</ele>
        <time>2022-07-30T08:29:07Z</time>
      </trkpt>
      <trkpt lat="47.36629" lon="-1.42976">
        <ele>101</ele>
        <time>2022-07-30T08:29:09Z</time>
      </trkpt>
      <trkpt lat="47.3664" lon="-1.42977">
        <ele>102</ele>
        <time>2022-07-30T08:29:11Z</time>
      </trkpt>
      <trkpt lat="47.36652" lon="-1.42976">
        <ele>102</ele>
        <time>2022-07-30T08:29:13Z</time>
      </trkpt>
      <trkpt lat="47.36664" lon="-1.42975">
        <ele>102</ele>
        <time>2022-07-30T08:29:15Z</time>
      </trkpt>
      <trkpt lat="47.36674" lon="-1.42976">
        <ele>102</ele>
        <time>2022-07-30T08:29:17Z</time>
      </trkpt>
      <trkpt lat="47.36684" lon="-1.42975">
        <ele>101</ele>
        <time>2022-07-30T08:29:19Z</time>
      </trkpt>
      <trkpt lat="47.36691" lon="-1.42965">
        <ele>101</ele>
        <time>2022-07-30T08:29:21Z</time>
      </trkpt>
      <trkpt lat="47.36696" lon="-1.4295">
        <ele>101</ele>
        <time>2022-07-30T08:29:23Z</time>
      </trkpt>
      <trkpt lat="47.367" lon="-1.42934">
        <ele>101</ele>
        <time>2022-07-30T08:29:25Z</time>
      </trkpt>
      <trkpt lat="47.36705" lon="-1.42919">
        <ele>101</ele>
        <time>2022-07-30T08:29:27Z</time>
      </trkpt>
      <trkpt lat="47.36709" lon="-1.42904">
        <ele>101</ele>
        <time>2022-07-30T08:29:29Z</time>
      </trkpt>
      <trkpt lat="47.36714" lon="-1.42888">
        <ele>101</ele>
        <time>2022-07-30T08:29:31Z</time>
      </trkpt>
      <trkpt lat="47.36719" lon="-1.42873">
        <ele>101</ele>
        <time>2022-07-30T08:29:33Z</time>
      </trkpt>
      <trkpt lat="47.36723" lon="-1.42857">
        <ele>101</ele>
        <time>2022-07-30T08:29:35Z</time>
      </trkpt>
      <trkpt lat="47.36727" lon="-1.4284">
        <ele>101</ele>
        <time>2022-07-30T08:29:37Z</time>
      </trkpt>
      <trkpt lat="47.3673" lon="-1.42824">
        <ele>101</ele>
        <time>2022-07-30T08:29:39Z</time>
      </trkpt>
      <trkpt lat="47.36733" lon="-1.42806">
        <ele>101</ele>
        <time>2022-07-30T08:29:41Z</time>
      </trkpt>
      <trkpt lat="47.36735" lon="-1.42789">
        <ele>101</ele>
        <time>2022-07-30T08:29:43Z</time>
      </trkpt>
      <trkpt lat="47.36737" lon="-1.42771">
        <ele>101</ele>
        <time>2022-07-30T08:29:45Z</time>
      </trkpt>
      <trkpt lat="47.36739" lon="-1.42754">
        <ele>100</ele>
        <time>2022-07-30T08:29:47Z</time>
      </trkpt>
      <trkpt lat="47.3674" lon="-1.42736">
        <ele>101</ele>
        <time>2022-07-30T08:29:49Z</time>
      </trkpt>
      <trkpt lat="47.36739" lon="-1.42718">
        <ele>101</ele>
        <time>2022-07-30T08:29:51Z</time>
      </trkpt>
      <trkpt lat="47.36739" lon="-1.42701">
        <ele>101</ele>
        <time>2022-07-30T08:29:53Z</time>
      </trkpt>
      <trkpt lat="47.36738" lon="-1.42684">
        <ele>101</ele>
        <time>2022-07-30T08:29:55Z</time>
      </trkpt>
      <trkpt lat="47.36736" lon="-1.42666">
        <ele>101</ele>
        <time>2022-07-30T08:29:57Z</time>
      </trkpt>
      <trkpt lat="47.36734" lon="-1.42649">
        <ele>101</ele>
        <time>2022-07-30T08:29:59Z</time>
      </trkpt>
      <trkpt lat="47.36732" lon="-1.42632">
        <ele>101</ele>
        <time>2022-07-30T08:30:01Z</time>
      </trkpt>
      <trkpt lat="47.3673" lon="-1.42615">
        <ele>101</ele>
        <time>2022-07-30T08:30:03Z</time>
      </trkpt>
      <trkpt lat="47.36728" lon="-1.42598">
        <ele>102</ele>
        <time>2022-07-30T08:30:05Z</time>
      </trkpt>
      <trkpt lat="47.36725" lon="-1.42581">
        <ele>102</ele>
        <time>2022-07-30T08:30:07Z</time>
      </trkpt>
      <trkpt lat="47.36722" lon="-1.42565">
        <ele>102</ele>
        <time>2022-07-30T08:30:09Z</time>
      </trkpt>
      <trkpt lat="47.3672" lon="-1.42548">
        <ele>103</ele>
        <time>2022-07-30T08:30:11Z</time>
      </trkpt>
      <trkpt lat="47.36716" lon="-1.42531">
        <ele>103</ele>
        <time>2022-07-30T08:30:13Z</time>
      </trkpt>
      <trkpt lat="47.36714" lon="-1.42514">
        <ele>103</ele>
        <time>2022-07-30T08:30:15Z</time>
      </trkpt>
      <trkpt lat="47.36711" lon="-1.42498">
        <ele>103</ele>
        <time>2022-07-30T08:30:17Z</time>
      </trkpt>
      <trkpt lat="47.36709" lon="-1.42481">
        <ele>103</ele>
        <time>2022-07-30T08:30:19Z</time>
      </trkpt>
      <trkpt lat="47.36706" lon="-1.42464">
        <ele>103</ele>
        <time>2022-07-30T08:30:21Z</time>
      </trkpt>
      <trkpt lat="47.36703" lon="-1.42448">
        <ele>104</ele>
        <time>2022-07-30T08:30:23Z</time>
      </trkpt>
      <trkpt lat="47.36701" lon="-1.42431">
        <ele>104</ele>
        <time>2022-07-30T08:30:25Z</time>
      </trkpt>
      <trkpt lat="47.36698" lon="-1.42413">
        <ele>104</ele>
        <time>2022-07-30T08:30:27Z</time>
      </trkpt>
      <trkpt lat="47.36695" lon="-1.42397">
        <ele>104</ele>
        <time>2022-07-30T08:30:29Z</time>
      </trkpt>
      <trkpt lat="47.36693" lon="-1.4238">
        <ele>104</ele>
        <time>2022-07-30T08:30:31Z</time>
      </trkpt>
      <trkpt lat="47.3669" lon="-1.42363">
        <ele>104</ele>
        <time>2022-07-30T08:30:33Z</time>
      </trkpt>
      <trkpt lat="47.36688" lon="-1.42346">
        <ele>104</ele>
        <time>2022-07-30T08:30:35Z</time>
      </trkpt>
      <trkpt lat="47.36685" lon="-1.42329">
        <ele>104</ele>
        <time>2022-07-30T08:30:37Z</time>
      </trkpt>
      <trkpt lat="47.36682" lon="-1.42312">
        <ele>104</ele>
        <time>2022-07-30T08:30:39Z</time>
      </trkpt>
      <trkpt lat="47.3668" lon="-1.42295">
        <ele>105</ele>
        <time>2022-07-30T08:30:41Z</time>
      </trkpt>
      <trkpt lat="47.36678" lon="-1.42278">
        <ele>105</ele>
        <time>2022-07-30T08:30:43Z</time>
      </trkpt>
      <trkpt lat="47.36677" lon="-1.42261">
        <ele>105</ele>
        <time>2022-07-30T08:30:45Z</time>
      </trkpt>
      <trkpt lat="47.36675" lon="-1.42243">
        <ele>105</ele>
        <time>2022-07-30T08:30:47Z</time>
      </trkpt>
      <trkpt lat="47.36673" lon="-1.42226">
        <ele>106</ele>
        <time>2022-07-30T08:30:49Z</time>
      </trkpt>
      <trkpt lat="47.36672" lon="-1.42209">
        <ele>106</ele>
        <time>2022-07-30T08:30:51Z</time>
      </trkpt>
      <trkpt lat="47.3667" lon="-1.42192">
        <ele>106</ele>
        <time>2022-07-30T08:30:53Z</time>
      </trkpt>
      <trkpt lat="47.36669" lon="-1.42175">
        <ele>106</ele>
        <time>2022-07-30T08:30:55Z</time>
      </trkpt>
      <trkpt lat="47.36668" lon="-1.42158">
        <ele>107</ele>
        <time>2022-07-30T08:30:57Z</time>
      </trkpt>
      <trkpt lat="47.36666" lon="-1.42141">
        <ele>107</ele>
        <time>2022-07-30T08:30:59Z</time>
      </trkpt>
      <trkpt lat="47.36664" lon="-1.42125">
        <ele>107</ele>
        <time>2022-07-30T08:31:01Z</time>
      </trkpt>
      <trkpt lat="47.36662" lon="-1.42107">
        <ele>107</ele>
        <time>2022-07-30T08:31:03Z</time>
      </trkpt>
      <trkpt lat="47.36661" lon="-1.4209">
        <ele>107</ele>
        <time>2022-07-30T08:31:05Z</time>
      </trkpt>
      <trkpt lat="47.3666" lon="-1.42072">
        <ele>108</ele>
        <time>2022-07-30T08:31:07Z</time>
      </trkpt>
      <trkpt lat="47.36658" lon="-1.42055">
        <ele>108</ele>
        <time>2022-07-30T08:31:09Z</time>
      </trkpt>
      <trkpt lat="47.36657" lon="-1.42039">
        <ele>108</ele>
        <time>2022-07-30T08:31:11Z</time>
      </trkpt>
      <trkpt lat="47.36655" lon="-1.42022">
        <ele>108</ele>
        <time>2022-07-30T08:31:13Z</time>
      </trkpt>
      <trkpt lat="47.36654" lon="-1.42005">
        <ele>108</ele>
        <time>2022-07-30T08:31:15Z</time>
      </trkpt>
      <trkpt lat="47.36653" lon="-1.41989">
        <ele>109</ele>
        <time>2022-07-30T08:31:17Z</time>
      </trkpt>
      <trkpt lat="47.36651" lon="-1.41972">
        <ele>109</ele>
        <time>2022-07-30T08:31:19Z</time>
      </trkpt>
      <trkpt lat="47.3665" lon="-1.41955">
        <ele>110</ele>
        <time>2022-07-30T08:31:21Z</time>
      </trkpt>
      <trkpt lat="47.36649" lon="-1.41939">
        <ele>110</ele>
        <time>2022-07-30T08:31:23Z</time>
      </trkpt>
      <trkpt lat="47.36647" lon="-1.41923">
        <ele>111</ele>
        <time>2022-07-30T08:31:25Z</time>
      </trkpt>
      <trkpt lat="47.36646" lon="-1.41907">
        <ele>111</ele>
        <time>2022-07-30T08:31:27Z</time>
      </trkpt>
      <trkpt lat="47.36644" lon="-1.41891">
        <ele>111</ele>
        <time>2022-07-30T08:31:29Z</time>
      </trkpt>
      <trkpt lat="47.36643" lon="-1.41874">
        <ele>112</ele>
        <time>2022-07-30T08:31:31Z</time>
      </trkpt>
      <trkpt lat="47.36641" lon="-1.41858">
        <ele>112</ele>
        <time>2022-07-30T08:31:33Z</time>
      </trkpt>
      <trkpt lat="47.3664" lon="-1.41843">
        <ele>112</ele>
        <time>2022-07-30T08:31:35Z</time>
      </trkpt>
      <trkpt lat="47.36638" lon="-1.41826">
        <ele>112</ele>
        <time>2022-07-30T08:31:37Z</time>
      </trkpt>
      <trkpt lat="47.36637" lon="-1.4181">
        <ele>113</ele>
        <time>2022-07-30T08:31:39Z</time>
      </trkpt>
      <trkpt lat="47.36635" lon="-1.41794">
        <ele>113</ele>
        <time>2022-07-30T08:31:41Z</time>
      </trkpt>
      <trkpt lat="47.36634" lon="-1.41778">
        <ele>114</ele>
        <time>2022-07-30T08:31:43Z</time>
      </trkpt>
      <trkpt lat="47.36633" lon="-1.41762">
        <ele>114</ele>
        <time>2022-07-30T08:31:45Z</time>
      </trkpt>
      <trkpt lat="47.36632" lon="-1.41746">
        <ele>114</ele>
        <time>2022-07-30T08:31:47Z</time>
      </trkpt>
      <trkpt lat="47.3663" lon="-1.41729">
        <ele>115</ele>
        <time>2022-07-30T08:31:49Z</time>
      </trkpt>
      <trkpt lat="47.36628" lon="-1.41713">
        <ele>115</ele>
        <time>2022-07-30T08:31:51Z</time>
      </trkpt>
      <trkpt lat="47.36627" lon="-1.41696">
        <ele>115</ele>
        <time>2022-07-30T08:31:53Z</time>
      </trkpt>
      <trkpt lat="47.36627" lon="-1.41679">
        <ele>115</ele>
        <time>2022-07-30T08:31:55Z</time>
      </trkpt>
      <trkpt lat="47.36626" lon="-1.41662">
        <ele>115</ele>
        <time>2022-07-30T08:31:57Z</time>
      </trkpt>
      <trkpt lat="47.36626" lon="-1.41645">
        <ele>115</ele>
        <time>2022-07-30T08:31:59Z</time>
      </trkpt>
      <trkpt lat="47.36626" lon="-1.41627">
        <ele>115</ele>
        <time>2022-07-30T08:32:01Z</time>
      </trkpt>
      <trkpt lat="47.36627" lon="-1.41609">
        <ele>115</ele>
        <time>2022-07-30T08:32:03Z</time>
      </trkpt>
      <trkpt lat="47.36628" lon="-1.41592">
        <ele>116</ele>
        <time>2022-07-30T08:32:05Z</time>
      </trkpt>
      <trkpt lat="47.3663" lon="-1.41574">
        <ele>116</ele>
        <time>2022-07-30T08:32:07Z</time>
      </trkpt>
      <trkpt lat="47.36631" lon="-1.41557">
        <ele>116</ele>
        <time>2022-07-30T08:32:09Z</time>
      </trkpt>
      <trkpt lat="47.36632" lon="-1.4154">
        <ele>116</ele>
        <time>2022-07-30T08:32:11Z</time>
      </trkpt>
      <trkpt lat="47.36636" lon="-1.41525">
        <ele>116</ele>
        <time>2022-07-30T08:32:13Z</time>
      </trkpt>
      <trkpt lat="47.3664" lon="-1.41508">
        <ele>116</ele>
        <time>2022-07-30T08:32:15Z</time>
      </trkpt>
      <trkpt lat="47.36644" lon="-1.4149">
        <ele>116</ele>
        <time>2022-07-30T08:32:17Z</time>
      </trkpt>
      <trkpt lat="47.36648" lon="-1.41473">
        <ele>116</ele>
        <time>2022-07-30T08:32:19Z</time>
      </trkpt>
      <trkpt lat="47.36653" lon="-1.41455">
        <ele>116</ele>
        <time>2022-07-30T08:32:21Z</time>
      </trkpt>
      <trkpt lat="47.36659" lon="-1.41437">
        <ele>116</ele>
        <time>2022-07-30T08:32:23Z</time>
      </trkpt>
      <trkpt lat="47.36665" lon="-1.4142">
        <ele>117</ele>
        <time>2022-07-30T08:32:25Z</time>
      </trkpt>
      <trkpt lat="47.36672" lon="-1.41402">
        <ele>116</ele>
        <time>2022-07-30T08:32:27Z</time>
      </trkpt>
      <trkpt lat="47.36678" lon="-1.41384">
        <ele>117</ele>
        <time>2022-07-30T08:32:29Z</time>
      </trkpt>
      <trkpt lat="47.36684" lon="-1.41366">
        <ele>117</ele>
        <time>2022-07-30T08:32:31Z</time>
      </trkpt>
      <trkpt lat="47.3669" lon="-1.41349">
        <ele>116</ele>
        <time>2022-07-30T08:32:33Z</time>
      </trkpt>
      <trkpt lat="47.36697" lon="-1.41331">
        <ele>116</ele>
        <time>2022-07-30T08:32:35Z</time>
      </trkpt>
      <trkpt lat="47.36703" lon="-1.41314">
        <ele>116</ele>
        <time>2022-07-30T08:32:37Z</time>
      </trkpt>
      <trkpt lat="47.36709" lon="-1.41297">
        <ele>116</ele>
        <time>2022-07-30T08:32:39Z</time>
      </trkpt>
      <trkpt lat="47.36716" lon="-1.41281">
        <ele>115</ele>
        <time>2022-07-30T08:32:41Z</time>
      </trkpt>
      <trkpt lat="47.36722" lon="-1.41264">
        <ele>114</ele>
        <time>2022-07-30T08:32:43Z</time>
      </trkpt>
      <trkpt lat="47.36729" lon="-1.41247">
        <ele>114</ele>
        <time>2022-07-30T08:32:45Z</time>
      </trkpt>
      <trkpt lat="47.36735" lon="-1.41229">
        <ele>114</ele>
        <time>2022-07-30T08:32:47Z</time>
      </trkpt>
      <trkpt lat="47.3674" lon="-1.41211">
        <ele>113</ele>
        <time>2022-07-30T08:32:49Z</time>
      </trkpt>
      <trkpt lat="47.36742" lon="-1.41191">
        <ele>113</ele>
        <time>2022-07-30T08:32:51Z</time>
      </trkpt>
      <trkpt lat="47.36742" lon="-1.4117">
        <ele>112</ele>
        <time>2022-07-30T08:32:53Z</time>
      </trkpt>
      <trkpt lat="47.3674" lon="-1.41149">
        <ele>112</ele>
        <time>2022-07-30T08:32:55Z</time>
      </trkpt>
      <trkpt lat="47.36736" lon="-1.41129">
        <ele>112</ele>
        <time>2022-07-30T08:32:57Z</time>
      </trkpt>
      <trkpt lat="47.36731" lon="-1.41109">
        <ele>112</ele>
        <time>2022-07-30T08:32:59Z</time>
      </trkpt>
      <trkpt lat="47.36726" lon="-1.41089">
        <ele>111</ele>
        <time>2022-07-30T08:33:01Z</time>
      </trkpt>
      <trkpt lat="47.36721" lon="-1.41069">
        <ele>111</ele>
        <time>2022-07-30T08:33:03Z</time>
      </trkpt>
      <trkpt lat="47.36716" lon="-1.41048">
        <ele>110</ele>
        <time>2022-07-30T08:33:05Z</time>
      </trkpt>
      <trkpt lat="47.36711" lon="-1.41029">
        <ele>110</ele>
        <time>2022-07-30T08:33:07Z</time>
      </trkpt>
      <trkpt lat="47.36705" lon="-1.41008">
        <ele>109</ele>
        <time>2022-07-30T08:33:09Z</time>
      </trkpt>
      <trkpt lat="47.367" lon="-1.40989">
        <ele>110</ele>
        <time>2022-07-30T08:33:11Z</time>
      </trkpt>
      <trkpt lat="47.36696" lon="-1.40969">
        <ele>110</ele>
        <time>2022-07-30T08:33:13Z</time>
      </trkpt>
      <trkpt lat="47.36693" lon="-1.4095">
        <ele>110</ele>
        <time>2022-07-30T08:33:15Z</time>
      </trkpt>
      <trkpt lat="47.36691" lon="-1.40932">
        <ele>110</ele>
        <time>2022-07-30T08:33:17Z</time>
      </trkpt>
      <trkpt lat="47.3669" lon="-1.40915">
        <ele>111</ele>
        <time>2022-07-30T08:33:19Z</time>
      </trkpt>
      <trkpt lat="47.3669" lon="-1.40898">
        <ele>111</ele>
        <time>2022-07-30T08:33:21Z</time>
      </trkpt>
      <trkpt lat="47.36691" lon="-1.40881">
        <ele>111</ele>
        <time>2022-07-30T08:33:23Z</time>
      </trkpt>
      <trkpt lat="47.36691" lon="-1.40864">
        <ele>111</ele>
        <time>2022-07-30T08:33:25Z</time>
      </trkpt>
      <trkpt lat="47.36692" lon="-1.40846">
        <ele>111</ele>
        <time>2022-07-30T08:33:27Z</time>
      </trkpt>
      <trkpt lat="47.36692" lon="-1.4083">
        <ele>111</ele>
        <time>2022-07-30T08:33:29Z</time>
      </trkpt>
      <trkpt lat="47.36692" lon="-1.40812">
        <ele>111</ele>
        <time>2022-07-30T08:33:31Z</time>
      </trkpt>
      <trkpt lat="47.36693" lon="-1.40795">
        <ele>112</ele>
        <time>2022-07-30T08:33:33Z</time>
      </trkpt>
      <trkpt lat="47.36694" lon="-1.40778">
        <ele>112</ele>
        <time>2022-07-30T08:33:35Z</time>
      </trkpt>
      <trkpt lat="47.36694" lon="-1.40761">
        <ele>112</ele>
        <time>2022-07-30T08:33:37Z</time>
      </trkpt>
      <trkpt lat="47.36695" lon="-1.40742">
        <ele>112</ele>
        <time>2022-07-30T08:33:39Z</time>
      </trkpt>
      <trkpt lat="47.36695" lon="-1.40723">
        <ele>113</ele>
        <time>2022-07-30T08:33:41Z</time>
      </trkpt>
      <trkpt lat="47.36696" lon="-1.40705">
        <ele>113</ele>
        <time>2022-07-30T08:33:43Z</time>
      </trkpt>
      <trkpt lat="47.36697" lon="-1.40686">
        <ele>112</ele>
        <time>2022-07-30T08:33:45Z</time>
      </trkpt>
      <trkpt lat="47.36697" lon="-1.40667">
        <ele>112</ele>
        <time>2022-07-30T08:33:47Z</time>
      </trkpt>
      <trkpt lat="47.36698" lon="-1.40648">
        <ele>111</ele>
        <time>2022-07-30T08:33:49Z</time>
      </trkpt>
      <trkpt lat="47.36699" lon="-1.40629">
        <ele>111</ele>
        <time>2022-07-30T08:33:51Z</time>
      </trkpt>
      <trkpt lat="47.367" lon="-1.4061">
        <ele>110</ele>
        <time>2022-07-30T08:33:53Z</time>
      </trkpt>
      <trkpt lat="47.367" lon="-1.4059">
        <ele>110</ele>
        <time>2022-07-30T08:33:55Z</time>
      </trkpt>
      <trkpt lat="47.36701" lon="-1.4057">
        <ele>109</ele>
        <time>2022-07-30T08:33:57Z</time>
      </trkpt>
      <trkpt lat="47.36701" lon="-1.40549">
        <ele>109</ele>
        <time>2022-07-30T08:33:59Z</time>
      </trkpt>
      <trkpt lat="47.36699" lon="-1.40532">
        <ele>108</ele>
        <time>2022-07-30T08:34:01Z</time>
      </trkpt>
      <trkpt lat="47.36699" lon="-1.40515">
        <ele>108</ele>
        <time>2022-07-30T08:34:04Z</time>
      </trkpt>
      <trkpt lat="47.36709" lon="-1.40512">
        <ele>108</ele>
        <time>2022-07-30T08:34:06Z</time>
      </trkpt>
      <trkpt lat="47.36722" lon="-1.40508">
        <ele>108</ele>
        <time>2022-07-30T08:34:08Z</time>
      </trkpt>
      <trkpt lat="47.36726" lon="-1.40491">
        <ele>107</ele>
        <time>2022-07-30T08:34:10Z</time>
      </trkpt>
      <trkpt lat="47.3673" lon="-1.4047">
        <ele>106</ele>
        <time>2022-07-30T08:34:12Z</time>
      </trkpt>
      <trkpt lat="47.36731" lon="-1.40449">
        <ele>106</ele>
        <time>2022-07-30T08:34:14Z</time>
      </trkpt>
      <trkpt lat="47.36732" lon="-1.40428">
        <ele>106</ele>
        <time>2022-07-30T08:34:16Z</time>
      </trkpt>
      <trkpt lat="47.36735" lon="-1.40407">
        <ele>105</ele>
        <time>2022-07-30T08:34:18Z</time>
      </trkpt>
      <trkpt lat="47.36739" lon="-1.40386">
        <ele>105</ele>
        <time>2022-07-30T08:34:20Z</time>
      </trkpt>
      <trkpt lat="47.36742" lon="-1.40366">
        <ele>105</ele>
        <time>2022-07-30T08:34:22Z</time>
      </trkpt>
      <trkpt lat="47.36745" lon="-1.40345">
        <ele>104</ele>
        <time>2022-07-30T08:34:24Z</time>
      </trkpt>
      <trkpt lat="47.36747" lon="-1.40324">
        <ele>104</ele>
        <time>2022-07-30T08:34:26Z</time>
      </trkpt>
      <trkpt lat="47.36751" lon="-1.40306">
        <ele>104</ele>
        <time>2022-07-30T08:34:28Z</time>
      </trkpt>
      <trkpt lat="47.36754" lon="-1.40286">
        <ele>103</ele>
        <time>2022-07-30T08:34:30Z</time>
      </trkpt>
      <trkpt lat="47.36757" lon="-1.40265">
        <ele>103</ele>
        <time>2022-07-30T08:34:32Z</time>
      </trkpt>
      <trkpt lat="47.3676" lon="-1.40244">
        <ele>103</ele>
        <time>2022-07-30T08:34:34Z</time>
      </trkpt>
      <trkpt lat="47.36763" lon="-1.40222">
        <ele>102</ele>
        <time>2022-07-30T08:34:36Z</time>
      </trkpt>
      <trkpt lat="47.36765" lon="-1.402">
        <ele>101</ele>
        <time>2022-07-30T08:34:38Z</time>
      </trkpt>
      <trkpt lat="47.36766" lon="-1.40178">
        <ele>102</ele>
        <time>2022-07-30T08:34:40Z</time>
      </trkpt>
      <trkpt lat="47.36768" lon="-1.40156">
        <ele>102</ele>
        <time>2022-07-30T08:34:42Z</time>
      </trkpt>
      <trkpt lat="47.36768" lon="-1.40135">
        <ele>102</ele>
        <time>2022-07-30T08:34:44Z</time>
      </trkpt>
      <trkpt lat="47.36767" lon="-1.40115">
        <ele>103</ele>
        <time>2022-07-30T08:34:46Z</time>
      </trkpt>
      <trkpt lat="47.36766" lon="-1.40095">
        <ele>103</ele>
        <time>2022-07-30T08:34:48Z</time>
      </trkpt>
      <trkpt lat="47.36765" lon="-1.40077">
        <ele>104</ele>
        <time>2022-07-30T08:34:50Z</time>
      </trkpt>
      <trkpt lat="47.36765" lon="-1.40061">
        <ele>104</ele>
        <time>2022-07-30T08:34:52Z</time>
      </trkpt>
      <trkpt lat="47.36765" lon="-1.40046">
        <ele>104</ele>
        <time>2022-07-30T08:34:54Z</time>
      </trkpt>
      <trkpt lat="47.36766" lon="-1.40031">
        <ele>105</ele>
        <time>2022-07-30T08:34:56Z</time>
      </trkpt>
      <trkpt lat="47.36766" lon="-1.40016">
        <ele>105</ele>
        <time>2022-07-30T08:34:58Z</time>
      </trkpt>
      <trkpt lat="47.36766" lon="-1.40001">
        <ele>105</ele>
        <time>2022-07-30T08:35:00Z</time>
      </trkpt>
      <trkpt lat="47.36765" lon="-1.39986">
        <ele>105</ele>
        <time>2022-07-30T08:35:02Z</time>
      </trkpt>
      <trkpt lat="47.36766" lon="-1.39971">
        <ele>106</ele>
        <time>2022-07-30T08:35:04Z</time>
      </trkpt>
      <trkpt lat="47.36765" lon="-1.39956">
        <ele>107</ele>
        <time>2022-07-30T08:35:06Z</time>
      </trkpt>
      <trkpt lat="47.36766" lon="-1.39941">
        <ele>108</ele>
        <time>2022-07-30T08:35:08Z</time>
      </trkpt>
      <trkpt lat="47.36765" lon="-1.39925">
        <ele>108</ele>
        <time>2022-07-30T08:35:10Z</time>
      </trkpt>
      <trkpt lat="47.36766" lon="-1.39909">
        <ele>108</ele>
        <time>2022-07-30T08:35:12Z</time>
      </trkpt>
      <trkpt lat="47.36766" lon="-1.39895">
        <ele>109</ele>
        <time>2022-07-30T08:35:14Z</time>
      </trkpt>
      <trkpt lat="47.36766" lon="-1.39879">
        <ele>109</ele>
        <time>2022-07-30T08:35:16Z</time>
      </trkpt>
      <trkpt lat="47.36765" lon="-1.39864">
        <ele>109</ele>
        <time>2022-07-30T08:35:18Z</time>
      </trkpt>
      <trkpt lat="47.36766" lon="-1.39849">
        <ele>110</ele>
        <time>2022-07-30T08:35:20Z</time>
      </trkpt>
      <trkpt lat="47.36766" lon="-1.39834">
        <ele>110</ele>
        <time>2022-07-30T08:35:22Z</time>
      </trkpt>
      <trkpt lat="47.36766" lon="-1.39819">
        <ele>110</ele>
        <time>2022-07-30T08:35:24Z</time>
      </trkpt>
      <trkpt lat="47.36766" lon="-1.39804">
        <ele>110</ele>
        <time>2022-07-30T08:35:26Z</time>
      </trkpt>
      <trkpt lat="47.36765" lon="-1.39789">
        <ele>111</ele>
        <time>2022-07-30T08:35:28Z</time>
      </trkpt>
      <trkpt lat="47.36765" lon="-1.39775">
        <ele>111</ele>
        <time>2022-07-30T08:35:30Z</time>
      </trkpt>
      <trkpt lat="47.36765" lon="-1.39759">
        <ele>112</ele>
        <time>2022-07-30T08:35:32Z</time>
      </trkpt>
      <trkpt lat="47.36765" lon="-1.39745">
        <ele>112</ele>
        <time>2022-07-30T08:35:34Z</time>
      </trkpt>
      <trkpt lat="47.36765" lon="-1.3973">
        <ele>112</ele>
        <time>2022-07-30T08:35:36Z</time>
      </trkpt>
      <trkpt lat="47.36765" lon="-1.39715">
        <ele>112</ele>
        <time>2022-07-30T08:35:38Z</time>
      </trkpt>
      <trkpt lat="47.36765" lon="-1.397">
        <ele>113</ele>
        <time>2022-07-30T08:35:40Z</time>
      </trkpt>
      <trkpt lat="47.36766" lon="-1.39685">
        <ele>113</ele>
        <time>2022-07-30T08:35:42Z</time>
      </trkpt>
      <trkpt lat="47.36766" lon="-1.3967">
        <ele>113</ele>
        <time>2022-07-30T08:35:44Z</time>
      </trkpt>
      <trkpt lat="47.36766" lon="-1.39655">
        <ele>114</ele>
        <time>2022-07-30T08:35:46Z</time>
      </trkpt>
      <trkpt lat="47.36767" lon="-1.39641">
        <ele>114</ele>
        <time>2022-07-30T08:35:48Z</time>
      </trkpt>
      <trkpt lat="47.36767" lon="-1.39626">
        <ele>114</ele>
        <time>2022-07-30T08:35:50Z</time>
      </trkpt>
      <trkpt lat="47.36767" lon="-1.3961">
        <ele>114</ele>
        <time>2022-07-30T08:35:52Z</time>
      </trkpt>
      <trkpt lat="47.36767" lon="-1.39594">
        <ele>114</ele>
        <time>2022-07-30T08:35:54Z</time>
      </trkpt>
      <trkpt lat="47.36767" lon="-1.39579">
        <ele>115</ele>
        <time>2022-07-30T08:35:56Z</time>
      </trkpt>
      <trkpt lat="47.36767" lon="-1.39563">
        <ele>114</ele>
        <time>2022-07-30T08:35:58Z</time>
      </trkpt>
      <trkpt lat="47.36766" lon="-1.39548">
        <ele>115</ele>
        <time>2022-07-30T08:36:00Z</time>
      </trkpt>
      <trkpt lat="47.36767" lon="-1.39532">
        <ele>115</ele>
        <time>2022-07-30T08:36:02Z</time>
      </trkpt>
      <trkpt lat="47.36767" lon="-1.39516">
        <ele>116</ele>
        <time>2022-07-30T08:36:04Z</time>
      </trkpt>
      <trkpt lat="47.36767" lon="-1.39501">
        <ele>116</ele>
        <time>2022-07-30T08:36:06Z</time>
      </trkpt>
      <trkpt lat="47.36767" lon="-1.39485">
        <ele>116</ele>
        <time>2022-07-30T08:36:08Z</time>
      </trkpt>
      <trkpt lat="47.36767" lon="-1.39469">
        <ele>116</ele>
        <time>2022-07-30T08:36:10Z</time>
      </trkpt>
      <trkpt lat="47.36767" lon="-1.39453">
        <ele>116</ele>
        <time>2022-07-30T08:36:12Z</time>
      </trkpt>
      <trkpt lat="47.36767" lon="-1.39436">
        <ele>116</ele>
        <time>2022-07-30T08:36:14Z</time>
      </trkpt>
      <trkpt lat="47.36767" lon="-1.3942">
        <ele>116</ele>
        <time>2022-07-30T08:36:16Z</time>
      </trkpt>
      <trkpt lat="47.36767" lon="-1.39403">
        <ele>116</ele>
        <time>2022-07-30T08:36:18Z</time>
      </trkpt>
      <trkpt lat="47.36767" lon="-1.39387">
        <ele>116</ele>
        <time>2022-07-30T08:36:20Z</time>
      </trkpt>
      <trkpt lat="47.36766" lon="-1.39371">
        <ele>116</ele>
        <time>2022-07-30T08:36:22Z</time>
      </trkpt>
      <trkpt lat="47.36766" lon="-1.39354">
        <ele>116</ele>
        <time>2022-07-30T08:36:24Z</time>
      </trkpt>
      <trkpt lat="47.36764" lon="-1.39338">
        <ele>116</ele>
        <time>2022-07-30T08:36:26Z</time>
      </trkpt>
      <trkpt lat="47.36762" lon="-1.39321">
        <ele>116</ele>
        <time>2022-07-30T08:36:28Z</time>
      </trkpt>
      <trkpt lat="47.3676" lon="-1.39305">
        <ele>116</ele>
        <time>2022-07-30T08:36:30Z</time>
      </trkpt>
      <trkpt lat="47.36756" lon="-1.39289">
        <ele>116</ele>
        <time>2022-07-30T08:36:32Z</time>
      </trkpt>
      <trkpt lat="47.36751" lon="-1.39274">
        <ele>116</ele>
        <time>2022-07-30T08:36:34Z</time>
      </trkpt>
      <trkpt lat="47.36746" lon="-1.39259">
        <ele>117</ele>
        <time>2022-07-30T08:36:36Z</time>
      </trkpt>
      <trkpt lat="47.3674" lon="-1.39245">
        <ele>117</ele>
        <time>2022-07-30T08:36:38Z</time>
      </trkpt>
      <trkpt lat="47.36734" lon="-1.39232">
        <ele>117</ele>
        <time>2022-07-30T08:36:40Z</time>
      </trkpt>
      <trkpt lat="47.36727" lon="-1.39218">
        <ele>117</ele>
        <time>2022-07-30T08:36:42Z</time>
      </trkpt>
      <trkpt lat="47.36721" lon="-1.39204">
        <ele>118</ele>
        <time>2022-07-30T08:36:44Z</time>
      </trkpt>
      <trkpt lat="47.36715" lon="-1.39191">
        <ele>118</ele>
        <time>2022-07-30T08:36:46Z</time>
      </trkpt>
      <trkpt lat="47.36708" lon="-1.39178">
        <ele>118</ele>
        <time>2022-07-30T08:36:48Z</time>
      </trkpt>
      <trkpt lat="47.36702" lon="-1.39164">
        <ele>118</ele>
        <time>2022-07-30T08:36:50Z</time>
      </trkpt>
      <trkpt lat="47.36695" lon="-1.39151">
        <ele>118</ele>
        <time>2022-07-30T08:36:52Z</time>
      </trkpt>
      <trkpt lat="47.36689" lon="-1.39138">
        <ele>118</ele>
        <time>2022-07-30T08:36:54Z</time>
      </trkpt>
      <trkpt lat="47.36682" lon="-1.39124">
        <ele>118</ele>
        <time>2022-07-30T08:36:56Z</time>
      </trkpt>
      <trkpt lat="47.36676" lon="-1.3911">
        <ele>118</ele>
        <time>2022-07-30T08:36:58Z</time>
      </trkpt>
      <trkpt lat="47.3667" lon="-1.39096">
        <ele>118</ele>
        <time>2022-07-30T08:37:00Z</time>
      </trkpt>
      <trkpt lat="47.36663" lon="-1.39083">
        <ele>119</ele>
        <time>2022-07-30T08:37:02Z</time>
      </trkpt>
      <trkpt lat="47.36657" lon="-1.3907">
        <ele>119</ele>
        <time>2022-07-30T08:37:04Z</time>
      </trkpt>
      <trkpt lat="47.3665" lon="-1.39056">
        <ele>119</ele>
        <time>2022-07-30T08:37:06Z</time>
      </trkpt>
      <trkpt lat="47.36643" lon="-1.39042">
        <ele>119</ele>
        <time>2022-07-30T08:37:08Z</time>
      </trkpt>
      <trkpt lat="47.36636" lon="-1.39028">
        <ele>119</ele>
        <time>2022-07-30T08:37:10Z</time>
      </trkpt>
      <trkpt lat="47.3663" lon="-1.39013">
        <ele>119</ele>
        <time>2022-07-30T08:37:12Z</time>
      </trkpt>
      <trkpt lat="47.36623" lon="-1.38998">
        <ele>118</ele>
        <time>2022-07-30T08:37:14Z</time>
      </trkpt>
      <trkpt lat="47.36616" lon="-1.38983">
        <ele>118</ele>
        <time>2022-07-30T08:37:16Z</time>
      </trkpt>
      <trkpt lat="47.36609" lon="-1.38968">
        <ele>119</ele>
        <time>2022-07-30T08:37:18Z</time>
      </trkpt>
      <trkpt lat="47.36602" lon="-1.38954">
        <ele>119</ele>
        <time>2022-07-30T08:37:20Z</time>
      </trkpt>
      <trkpt lat="47.36595" lon="-1.38939">
        <ele>119</ele>
        <time>2022-07-30T08:37:22Z</time>
      </trkpt>
      <trkpt lat="47.36589" lon="-1.38926">
        <ele>120</ele>
        <time>2022-07-30T08:37:24Z</time>
      </trkpt>
      <trkpt lat="47.36582" lon="-1.38912">
        <ele>120</ele>
        <time>2022-07-30T08:37:26Z</time>
      </trkpt>
      <trkpt lat="47.36575" lon="-1.38897">
        <ele>120</ele>
        <time>2022-07-30T08:37:28Z</time>
      </trkpt>
      <trkpt lat="47.36567" lon="-1.38881">
        <ele>121</ele>
        <time>2022-07-30T08:37:30Z</time>
      </trkpt>
      <trkpt lat="47.3656" lon="-1.38867">
        <ele>121</ele>
        <time>2022-07-30T08:37:32Z</time>
      </trkpt>
      <trkpt lat="47.36553" lon="-1.38852">
        <ele>121</ele>
        <time>2022-07-30T08:37:34Z</time>
      </trkpt>
      <trkpt lat="47.36547" lon="-1.38837">
        <ele>122</ele>
        <time>2022-07-30T08:37:36Z</time>
      </trkpt>
      <trkpt lat="47.36539" lon="-1.38821">
        <ele>122</ele>
        <time>2022-07-30T08:37:38Z</time>
      </trkpt>
      <trkpt lat="47.36532" lon="-1.38806">
        <ele>122</ele>
        <time>2022-07-30T08:37:40Z</time>
      </trkpt>
      <trkpt lat="47.36525" lon="-1.3879">
        <ele>122</ele>
        <time>2022-07-30T08:37:42Z</time>
      </trkpt>
      <trkpt lat="47.36518" lon="-1.38775">
        <ele>122</ele>
        <time>2022-07-30T08:37:44Z</time>
      </trkpt>
      <trkpt lat="47.3651" lon="-1.3876">
        <ele>122</ele>
        <time>2022-07-30T08:37:46Z</time>
      </trkpt>
      <trkpt lat="47.36504" lon="-1.38745">
        <ele>123</ele>
        <time>2022-07-30T08:37:48Z</time>
      </trkpt>
      <trkpt lat="47.36496" lon="-1.38729">
        <ele>123</ele>
        <time>2022-07-30T08:37:50Z</time>
      </trkpt>
      <trkpt lat="47.36489" lon="-1.38714">
        <ele>123</ele>
        <time>2022-07-30T08:37:52Z</time>
      </trkpt>
      <trkpt lat="47.36482" lon="-1.38699">
        <ele>123</ele>
        <time>2022-07-30T08:37:54Z</time>
      </trkpt>
      <trkpt lat="47.36475" lon="-1.38683">
        <ele>124</ele>
        <time>2022-07-30T08:37:56Z</time>
      </trkpt>
      <trkpt lat="47.36468" lon="-1.38668">
        <ele>124</ele>
        <time>2022-07-30T08:37:58Z</time>
      </trkpt>
      <trkpt lat="47.3646" lon="-1.38652">
        <ele>124</ele>
        <time>2022-07-30T08:38:00Z</time>
      </trkpt>
      <trkpt lat="47.36452" lon="-1.38637">
        <ele>124</ele>
        <time>2022-07-30T08:38:02Z</time>
      </trkpt>
      <trkpt lat="47.36444" lon="-1.38623">
        <ele>124</ele>
        <time>2022-07-30T08:38:04Z</time>
      </trkpt>
      <trkpt lat="47.36437" lon="-1.38607">
        <ele>124</ele>
        <time>2022-07-30T08:38:06Z</time>
      </trkpt>
      <trkpt lat="47.36429" lon="-1.38592">
        <ele>124</ele>
        <time>2022-07-30T08:38:08Z</time>
      </trkpt>
      <trkpt lat="47.36422" lon="-1.38577">
        <ele>123</ele>
        <time>2022-07-30T08:38:10Z</time>
      </trkpt>
      <trkpt lat="47.36413" lon="-1.38562">
        <ele>123</ele>
        <time>2022-07-30T08:38:12Z</time>
      </trkpt>
      <trkpt lat="47.36405" lon="-1.38548">
        <ele>123</ele>
        <time>2022-07-30T08:38:14Z</time>
      </trkpt>
      <trkpt lat="47.36396" lon="-1.38535">
        <ele>123</ele>
        <time>2022-07-30T08:38:16Z</time>
      </trkpt>
      <trkpt lat="47.36387" lon="-1.38521">
        <ele>123</ele>
        <time>2022-07-30T08:38:18Z</time>
      </trkpt>
      <trkpt lat="47.36379" lon="-1.38509">
        <ele>123</ele>
        <time>2022-07-30T08:38:20Z</time>
      </trkpt>
      <trkpt lat="47.3637" lon="-1.38495">
        <ele>123</ele>
        <time>2022-07-30T08:38:22Z</time>
      </trkpt>
      <trkpt lat="47.36361" lon="-1.38482">
        <ele>123</ele>
        <time>2022-07-30T08:38:24Z</time>
      </trkpt>
      <trkpt lat="47.36352" lon="-1.38469">
        <ele>123</ele>
        <time>2022-07-30T08:38:26Z</time>
      </trkpt>
      <trkpt lat="47.36343" lon="-1.38456">
        <ele>123</ele>
        <time>2022-07-30T08:38:28Z</time>
      </trkpt>
      <trkpt lat="47.36334" lon="-1.38442">
        <ele>123</ele>
        <time>2022-07-30T08:38:30Z</time>
      </trkpt>
      <trkpt lat="47.36325" lon="-1.38429">
        <ele>123</ele>
        <time>2022-07-30T08:38:32Z</time>
      </trkpt>
      <trkpt lat="47.36316" lon="-1.38415">
        <ele>122</ele>
        <time>2022-07-30T08:38:34Z</time>
      </trkpt>
      <trkpt lat="47.36307" lon="-1.38402">
        <ele>122</ele>
        <time>2022-07-30T08:38:36Z</time>
      </trkpt>
      <trkpt lat="47.36298" lon="-1.38389">
        <ele>122</ele>
        <time>2022-07-30T08:38:38Z</time>
      </trkpt>
      <trkpt lat="47.36289" lon="-1.38375">
        <ele>122</ele>
        <time>2022-07-30T08:38:40Z</time>
      </trkpt>
      <trkpt lat="47.3628" lon="-1.38361">
        <ele>122</ele>
        <time>2022-07-30T08:38:42Z</time>
      </trkpt>
      <trkpt lat="47.36271" lon="-1.38347">
        <ele>122</ele>
        <time>2022-07-30T08:38:44Z</time>
      </trkpt>
      <trkpt lat="47.36262" lon="-1.38333">
        <ele>122</ele>
        <time>2022-07-30T08:38:46Z</time>
      </trkpt>
      <trkpt lat="47.36252" lon="-1.38319">
        <ele>122</ele>
        <time>2022-07-30T08:38:48Z</time>
      </trkpt>
      <trkpt lat="47.36243" lon="-1.38305">
        <ele>122</ele>
        <time>2022-07-30T08:38:50Z</time>
      </trkpt>
      <trkpt lat="47.36234" lon="-1.38291">
        <ele>122</ele>
        <time>2022-07-30T08:38:52Z</time>
      </trkpt>
      <trkpt lat="47.36224" lon="-1.38277">
        <ele>122</ele>
        <time>2022-07-30T08:38:54Z</time>
      </trkpt>
      <trkpt lat="47.36215" lon="-1.38263">
        <ele>122</ele>
        <time>2022-07-30T08:38:56Z</time>
      </trkpt>
      <trkpt lat="47.36206" lon="-1.38249">
        <ele>122</ele>
        <time>2022-07-30T08:38:58Z</time>
      </trkpt>
      <trkpt lat="47.36197" lon="-1.38236">
        <ele>122</ele>
        <time>2022-07-30T08:39:00Z</time>
      </trkpt>
      <trkpt lat="47.36187" lon="-1.38222">
        <ele>122</ele>
        <time>2022-07-30T08:39:02Z</time>
      </trkpt>
      <trkpt lat="47.36178" lon="-1.38208">
        <ele>121</ele>
        <time>2022-07-30T08:39:04Z</time>
      </trkpt>
      <trkpt lat="47.36169" lon="-1.38195">
        <ele>121</ele>
        <time>2022-07-30T08:39:06Z</time>
      </trkpt>
      <trkpt lat="47.36161" lon="-1.38181">
        <ele>122</ele>
        <time>2022-07-30T08:39:08Z</time>
      </trkpt>
      <trkpt lat="47.36152" lon="-1.38168">
        <ele>122</ele>
        <time>2022-07-30T08:39:10Z</time>
      </trkpt>
      <trkpt lat="47.36143" lon="-1.38155">
        <ele>122</ele>
        <time>2022-07-30T08:39:12Z</time>
      </trkpt>
      <trkpt lat="47.36134" lon="-1.38142">
        <ele>122</ele>
        <time>2022-07-30T08:39:14Z</time>
      </trkpt>
      <trkpt lat="47.36126" lon="-1.38129">
        <ele>122</ele>
        <time>2022-07-30T08:39:16Z</time>
      </trkpt>
      <trkpt lat="47.36118" lon="-1.38116">
        <ele>122</ele>
        <time>2022-07-30T08:39:18Z</time>
      </trkpt>
      <trkpt lat="47.36109" lon="-1.38104">
        <ele>123</ele>
        <time>2022-07-30T08:39:20Z</time>
      </trkpt>
      <trkpt lat="47.36101" lon="-1.38091">
        <ele>123</ele>
        <time>2022-07-30T08:39:22Z</time>
      </trkpt>
      <trkpt lat="47.36092" lon="-1.38078">
        <ele>123</ele>
        <time>2022-07-30T08:39:24Z</time>
      </trkpt>
      <trkpt lat="47.36084" lon="-1.38065">
        <ele>123</ele>
        <time>2022-07-30T08:39:26Z</time>
      </trkpt>
      <trkpt lat="47.36075" lon="-1.38053">
        <ele>123</ele>
        <time>2022-07-30T08:39:28Z</time>
      </trkpt>
      <trkpt lat="47.36067" lon="-1.38041">
        <ele>124</ele>
        <time>2022-07-30T08:39:30Z</time>
      </trkpt>
      <trkpt lat="47.36058" lon="-1.38028">
        <ele>124</ele>
        <time>2022-07-30T08:39:32Z</time>
      </trkpt>
      <trkpt lat="47.3605" lon="-1.38016">
        <ele>124</ele>
        <time>2022-07-30T08:39:34Z</time>
      </trkpt>
      <trkpt lat="47.36042" lon="-1.38004">
        <ele>124</ele>
        <time>2022-07-30T08:39:36Z</time>
      </trkpt>
      <trkpt lat="47.36033" lon="-1.37991">
        <ele>125</ele>
        <time>2022-07-30T08:39:38Z</time>
      </trkpt>
      <trkpt lat="47.36025" lon="-1.37978">
        <ele>125</ele>
        <time>2022-07-30T08:39:40Z</time>
      </trkpt>
      <trkpt lat="47.36016" lon="-1.37965">
        <ele>125</ele>
        <time>2022-07-30T08:39:42Z</time>
      </trkpt>
      <trkpt lat="47.36008" lon="-1.37952">
        <ele>125</ele>
        <time>2022-07-30T08:39:44Z</time>
      </trkpt>
      <trkpt lat="47.35999" lon="-1.37939">
        <ele>125</ele>
        <time>2022-07-30T08:39:46Z</time>
      </trkpt>
      <trkpt lat="47.3599" lon="-1.37926">
        <ele>126</ele>
        <time>2022-07-30T08:39:48Z</time>
      </trkpt>
      <trkpt lat="47.35981" lon="-1.37913">
        <ele>126</ele>
        <time>2022-07-30T08:39:50Z</time>
      </trkpt>
      <trkpt lat="47.35973" lon="-1.37901">
        <ele>126</ele>
        <time>2022-07-30T08:39:52Z</time>
      </trkpt>
      <trkpt lat="47.35964" lon="-1.37887">
        <ele>127</ele>
        <time>2022-07-30T08:39:54Z</time>
      </trkpt>
      <trkpt lat="47.35956" lon="-1.37874">
        <ele>127</ele>
        <time>2022-07-30T08:39:56Z</time>
      </trkpt>
      <trkpt lat="47.35947" lon="-1.37861">
        <ele>127</ele>
        <time>2022-07-30T08:39:58Z</time>
      </trkpt>
      <trkpt lat="47.35939" lon="-1.37848">
        <ele>128</ele>
        <time>2022-07-30T08:40:00Z</time>
      </trkpt>
      <trkpt lat="47.3593" lon="-1.37836">
        <ele>128</ele>
        <time>2022-07-30T08:40:02Z</time>
      </trkpt>
      <trkpt lat="47.35922" lon="-1.37823">
        <ele>128</ele>
        <time>2022-07-30T08:40:04Z</time>
      </trkpt>
      <trkpt lat="47.35914" lon="-1.3781">
        <ele>129</ele>
        <time>2022-07-30T08:40:06Z</time>
      </trkpt>
      <trkpt lat="47.35905" lon="-1.37797">
        <ele>129</ele>
        <time>2022-07-30T08:40:08Z</time>
      </trkpt>
      <trkpt lat="47.35897" lon="-1.37784">
        <ele>129</ele>
        <time>2022-07-30T08:40:10Z</time>
      </trkpt>
      <trkpt lat="47.35888" lon="-1.37771">
        <ele>129</ele>
        <time>2022-07-30T08:40:12Z</time>
      </trkpt>
      <trkpt lat="47.3588" lon="-1.37758">
        <ele>129</ele>
        <time>2022-07-30T08:40:14Z</time>
      </trkpt>
      <trkpt lat="47.35871" lon="-1.37745">
        <ele>129</ele>
        <time>2022-07-30T08:40:16Z</time>
      </trkpt>
      <trkpt lat="47.35863" lon="-1.37732">
        <ele>129</ele>
        <time>2022-07-30T08:40:18Z</time>
      </trkpt>
      <trkpt lat="47.35854" lon="-1.3772">
        <ele>129</ele>
        <time>2022-07-30T08:40:20Z</time>
      </trkpt>
      <trkpt lat="47.35846" lon="-1.37707">
        <ele>130</ele>
        <time>2022-07-30T08:40:22Z</time>
      </trkpt>
      <trkpt lat="47.35838" lon="-1.37695">
        <ele>130</ele>
        <time>2022-07-30T08:40:24Z</time>
      </trkpt>
      <trkpt lat="47.3583" lon="-1.37683">
        <ele>130</ele>
        <time>2022-07-30T08:40:26Z</time>
      </trkpt>
      <trkpt lat="47.35821" lon="-1.37671">
        <ele>130</ele>
        <time>2022-07-30T08:40:28Z</time>
      </trkpt>
      <trkpt lat="47.35812" lon="-1.37658">
        <ele>130</ele>
        <time>2022-07-30T08:40:30Z</time>
      </trkpt>
      <trkpt lat="47.35804" lon="-1.37645">
        <ele>130</ele>
        <time>2022-07-30T08:40:32Z</time>
      </trkpt>
      <trkpt lat="47.35796" lon="-1.37632">
        <ele>130</ele>
        <time>2022-07-30T08:40:34Z</time>
      </trkpt>
      <trkpt lat="47.35787" lon="-1.3762">
        <ele>131</ele>
        <time>2022-07-30T08:40:36Z</time>
      </trkpt>
      <trkpt lat="47.3578" lon="-1.37609">
        <ele>131</ele>
        <time>2022-07-30T08:40:38Z</time>
      </trkpt>
      <trkpt lat="47.35771" lon="-1.37596">
        <ele>131</ele>
        <time>2022-07-30T08:40:40Z</time>
      </trkpt>
      <trkpt lat="47.35764" lon="-1.37584">
        <ele>131</ele>
        <time>2022-07-30T08:40:42Z</time>
      </trkpt>
      <trkpt lat="47.35756" lon="-1.37572">
        <ele>131</ele>
        <time>2022-07-30T08:40:44Z</time>
      </trkpt>
      <trkpt lat="47.35748" lon="-1.37561">
        <ele>132</ele>
        <time>2022-07-30T08:40:46Z</time>
      </trkpt>
      <trkpt lat="47.3574" lon="-1.37549">
        <ele>132</ele>
        <time>2022-07-30T08:40:48Z</time>
      </trkpt>
      <trkpt lat="47.35732" lon="-1.37537">
        <ele>132</ele>
        <time>2022-07-30T08:40:50Z</time>
      </trkpt>
      <trkpt lat="47.35724" lon="-1.37525">
        <ele>132</ele>
        <time>2022-07-30T08:40:52Z</time>
      </trkpt>
      <trkpt lat="47.35716" lon="-1.37512">
        <ele>132</ele>
        <time>2022-07-30T08:40:54Z</time>
      </trkpt>
      <trkpt lat="47.35708" lon="-1.375">
        <ele>132</ele>
        <time>2022-07-30T08:40:56Z</time>
      </trkpt>
      <trkpt lat="47.357" lon="-1.37487">
        <ele>132</ele>
        <time>2022-07-30T08:40:58Z</time>
      </trkpt>
      <trkpt lat="47.35691" lon="-1.37474">
        <ele>132</ele>
        <time>2022-07-30T08:41:00Z</time>
      </trkpt>
      <trkpt lat="47.35683" lon="-1.37462">
        <ele>132</ele>
        <time>2022-07-30T08:41:02Z</time>
      </trkpt>
      <trkpt lat="47.35675" lon="-1.37449">
        <ele>132</ele>
        <time>2022-07-30T08:41:04Z</time>
      </trkpt>
      <trkpt lat="47.35666" lon="-1.37436">
        <ele>132</ele>
        <time>2022-07-30T08:41:06Z</time>
      </trkpt>
      <trkpt lat="47.35657" lon="-1.37423">
        <ele>133</ele>
        <time>2022-07-30T08:41:08Z</time>
      </trkpt>
      <trkpt lat="47.35648" lon="-1.37411">
        <ele>133</ele>
        <time>2022-07-30T08:41:10Z</time>
      </trkpt>
      <trkpt lat="47.3564" lon="-1.37398">
        <ele>132</ele>
        <time>2022-07-30T08:41:12Z</time>
      </trkpt>
      <trkpt lat="47.35631" lon="-1.37385">
        <ele>132</ele>
        <time>2022-07-30T08:41:14Z</time>
      </trkpt>
      <trkpt lat="47.35623" lon="-1.37372">
        <ele>132</ele>
        <time>2022-07-30T08:41:16Z</time>
      </trkpt>
      <trkpt lat="47.35614" lon="-1.37359">
        <ele>132</ele>
        <time>2022-07-30T08:41:18Z</time>
      </trkpt>
      <trkpt lat="47.35605" lon="-1.37346">
        <ele>132</ele>
        <time>2022-07-30T08:41:20Z</time>
      </trkpt>
      <trkpt lat="47.35596" lon="-1.37332">
        <ele>132</ele>
        <time>2022-07-30T08:41:22Z</time>
      </trkpt>
      <trkpt lat="47.35587" lon="-1.37319">
        <ele>131</ele>
        <time>2022-07-30T08:41:24Z</time>
      </trkpt>
      <trkpt lat="47.35578" lon="-1.37305">
        <ele>131</ele>
        <time>2022-07-30T08:41:26Z</time>
      </trkpt>
      <trkpt lat="47.35569" lon="-1.3729">
        <ele>131</ele>
        <time>2022-07-30T08:41:28Z</time>
      </trkpt>
      <trkpt lat="47.35559" lon="-1.37276">
        <ele>131</ele>
        <time>2022-07-30T08:41:30Z</time>
      </trkpt>
      <trkpt lat="47.3555" lon="-1.37261">
        <ele>131</ele>
        <time>2022-07-30T08:41:32Z</time>
      </trkpt>
      <trkpt lat="47.35542" lon="-1.37246">
        <ele>130</ele>
        <time>2022-07-30T08:41:34Z</time>
      </trkpt>
      <trkpt lat="47.35533" lon="-1.37232">
        <ele>130</ele>
        <time>2022-07-30T08:41:36Z</time>
      </trkpt>
      <trkpt lat="47.35523" lon="-1.37217">
        <ele>130</ele>
        <time>2022-07-30T08:41:38Z</time>
      </trkpt>
      <trkpt lat="47.35515" lon="-1.37202">
        <ele>131</ele>
        <time>2022-07-30T08:41:40Z</time>
      </trkpt>
      <trkpt lat="47.35507" lon="-1.3719">
        <ele>133</ele>
        <time>2022-07-30T08:41:42Z</time>
      </trkpt>
      <trkpt lat="47.35498" lon="-1.37178">
        <ele>134</ele>
        <time>2022-07-30T08:41:44Z</time>
      </trkpt>
      <trkpt lat="47.3549" lon="-1.37164">
        <ele>134</ele>
        <time>2022-07-30T08:41:46Z</time>
      </trkpt>
      <trkpt lat="47.35483" lon="-1.37152">
        <ele>134</ele>
        <time>2022-07-30T08:41:48Z</time>
      </trkpt>
      <trkpt lat="47.35474" lon="-1.37139">
        <ele>134</ele>
        <time>2022-07-30T08:41:50Z</time>
      </trkpt>
      <trkpt lat="47.35465" lon="-1.37127">
        <ele>135</ele>
        <time>2022-07-30T08:41:52Z</time>
      </trkpt>
      <trkpt lat="47.35457" lon="-1.37114">
        <ele>134</ele>
        <time>2022-07-30T08:41:54Z</time>
      </trkpt>
      <trkpt lat="47.35449" lon="-1.37101">
        <ele>134</ele>
        <time>2022-07-30T08:41:56Z</time>
      </trkpt>
      <trkpt lat="47.3544" lon="-1.37089">
        <ele>135</ele>
        <time>2022-07-30T08:41:58Z</time>
      </trkpt>
      <trkpt lat="47.35431" lon="-1.37077">
        <ele>135</ele>
        <time>2022-07-30T08:42:00Z</time>
      </trkpt>
      <trkpt lat="47.35422" lon="-1.37065">
        <ele>136</ele>
        <time>2022-07-30T08:42:02Z</time>
      </trkpt>
      <trkpt lat="47.35413" lon="-1.3705">
        <ele>136</ele>
        <time>2022-07-30T08:42:04Z</time>
      </trkpt>
      <trkpt lat="47.35404" lon="-1.37037">
        <ele>136</ele>
        <time>2022-07-30T08:42:06Z</time>
      </trkpt>
      <trkpt lat="47.35395" lon="-1.37024">
        <ele>135</ele>
        <time>2022-07-30T08:42:08Z</time>
      </trkpt>
      <trkpt lat="47.35386" lon="-1.37011">
        <ele>134</ele>
        <time>2022-07-30T08:42:10Z</time>
      </trkpt>
      <trkpt lat="47.35377" lon="-1.36998">
        <ele>134</ele>
        <time>2022-07-30T08:42:12Z</time>
      </trkpt>
      <trkpt lat="47.35368" lon="-1.36986">
        <ele>133</ele>
        <time>2022-07-30T08:42:14Z</time>
      </trkpt>
      <trkpt lat="47.35359" lon="-1.36974">
        <ele>133</ele>
        <time>2022-07-30T08:42:16Z</time>
      </trkpt>
      <trkpt lat="47.35351" lon="-1.3696">
        <ele>133</ele>
        <time>2022-07-30T08:42:18Z</time>
      </trkpt>
      <trkpt lat="47.35343" lon="-1.36948">
        <ele>134</ele>
        <time>2022-07-30T08:42:20Z</time>
      </trkpt>
      <trkpt lat="47.35334" lon="-1.36935">
        <ele>134</ele>
        <time>2022-07-30T08:42:22Z</time>
      </trkpt>
      <trkpt lat="47.35326" lon="-1.36922">
        <ele>134</ele>
        <time>2022-07-30T08:42:24Z</time>
      </trkpt>
      <trkpt lat="47.35317" lon="-1.3691">
        <ele>134</ele>
        <time>2022-07-30T08:42:26Z</time>
      </trkpt>
      <trkpt lat="47.35309" lon="-1.36897">
        <ele>134</ele>
        <time>2022-07-30T08:42:28Z</time>
      </trkpt>
      <trkpt lat="47.353" lon="-1.36883">
        <ele>134</ele>
        <time>2022-07-30T08:42:30Z</time>
      </trkpt>
      <trkpt lat="47.35291" lon="-1.36871">
        <ele>134</ele>
        <time>2022-07-30T08:42:32Z</time>
      </trkpt>
      <trkpt lat="47.35282" lon="-1.36856">
        <ele>134</ele>
        <time>2022-07-30T08:42:34Z</time>
      </trkpt>
      <trkpt lat="47.35273" lon="-1.36843">
        <ele>134</ele>
        <time>2022-07-30T08:42:36Z</time>
      </trkpt>
      <trkpt lat="47.35264" lon="-1.3683">
        <ele>134</ele>
        <time>2022-07-30T08:42:38Z</time>
      </trkpt>
      <trkpt lat="47.35255" lon="-1.36816">
        <ele>134</ele>
        <time>2022-07-30T08:42:40Z</time>
      </trkpt>
      <trkpt lat="47.35246" lon="-1.36803">
        <ele>134</ele>
        <time>2022-07-30T08:42:42Z</time>
      </trkpt>
      <trkpt lat="47.35238" lon="-1.3679">
        <ele>134</ele>
        <time>2022-07-30T08:42:44Z</time>
      </trkpt>
      <trkpt lat="47.35229" lon="-1.36776">
        <ele>134</ele>
        <time>2022-07-30T08:42:46Z</time>
      </trkpt>
      <trkpt lat="47.3522" lon="-1.36762">
        <ele>134</ele>
        <time>2022-07-30T08:42:48Z</time>
      </trkpt>
      <trkpt lat="47.35211" lon="-1.36749">
        <ele>135</ele>
        <time>2022-07-30T08:42:50Z</time>
      </trkpt>
      <trkpt lat="47.35203" lon="-1.36736">
        <ele>135</ele>
        <time>2022-07-30T08:42:52Z</time>
      </trkpt>
      <trkpt lat="47.35194" lon="-1.36723">
        <ele>134</ele>
        <time>2022-07-30T08:42:54Z</time>
      </trkpt>
      <trkpt lat="47.35185" lon="-1.3671">
        <ele>135</ele>
        <time>2022-07-30T08:42:56Z</time>
      </trkpt>
      <trkpt lat="47.35177" lon="-1.36697">
        <ele>135</ele>
        <time>2022-07-30T08:42:58Z</time>
      </trkpt>
      <trkpt lat="47.35168" lon="-1.36684">
        <ele>135</ele>
        <time>2022-07-30T08:43:00Z</time>
      </trkpt>
      <trkpt lat="47.35159" lon="-1.3667">
        <ele>135</ele>
        <time>2022-07-30T08:43:02Z</time>
      </trkpt>
      <trkpt lat="47.35151" lon="-1.36657">
        <ele>134</ele>
        <time>2022-07-30T08:43:04Z</time>
      </trkpt>
      <trkpt lat="47.35141" lon="-1.36643">
        <ele>134</ele>
        <time>2022-07-30T08:43:06Z</time>
      </trkpt>
      <trkpt lat="47.35133" lon="-1.3663">
        <ele>134</ele>
        <time>2022-07-30T08:43:08Z</time>
      </trkpt>
      <trkpt lat="47.35125" lon="-1.36616">
        <ele>135</ele>
        <time>2022-07-30T08:43:10Z</time>
      </trkpt>
      <trkpt lat="47.35116" lon="-1.36603">
        <ele>135</ele>
        <time>2022-07-30T08:43:12Z</time>
      </trkpt>
      <trkpt lat="47.35107" lon="-1.3659">
        <ele>135</ele>
        <time>2022-07-30T08:43:14Z</time>
      </trkpt>
      <trkpt lat="47.35098" lon="-1.36577">
        <ele>136</ele>
        <time>2022-07-30T08:43:16Z</time>
      </trkpt>
      <trkpt lat="47.3509" lon="-1.36563">
        <ele>137</ele>
        <time>2022-07-30T08:43:18Z</time>
      </trkpt>
      <trkpt lat="47.35082" lon="-1.36549">
        <ele>137</ele>
        <time>2022-07-30T08:43:20Z</time>
      </trkpt>
      <trkpt lat="47.35072" lon="-1.36535">
        <ele>137</ele>
        <time>2022-07-30T08:43:22Z</time>
      </trkpt>
      <trkpt lat="47.35063" lon="-1.36521">
        <ele>137</ele>
        <time>2022-07-30T08:43:24Z</time>
      </trkpt>
      <trkpt lat="47.35055" lon="-1.36508">
        <ele>137</ele>
        <time>2022-07-30T08:43:26Z</time>
      </trkpt>
      <trkpt lat="47.35046" lon="-1.36495">
        <ele>137</ele>
        <time>2022-07-30T08:43:28Z</time>
      </trkpt>
      <trkpt lat="47.35036" lon="-1.36481">
        <ele>136</ele>
        <time>2022-07-30T08:43:30Z</time>
      </trkpt>
      <trkpt lat="47.35027" lon="-1.36467">
        <ele>136</ele>
        <time>2022-07-30T08:43:32Z</time>
      </trkpt>
      <trkpt lat="47.35017" lon="-1.36454">
        <ele>135</ele>
        <time>2022-07-30T08:43:34Z</time>
      </trkpt>
      <trkpt lat="47.35007" lon="-1.36441">
        <ele>135</ele>
        <time>2022-07-30T08:43:36Z</time>
      </trkpt>
      <trkpt lat="47.34996" lon="-1.36428">
        <ele>134</ele>
        <time>2022-07-30T08:43:38Z</time>
      </trkpt>
      <trkpt lat="47.34986" lon="-1.36415">
        <ele>134</ele>
        <time>2022-07-30T08:43:40Z</time>
      </trkpt>
      <trkpt lat="47.34975" lon="-1.36402">
        <ele>134</ele>
        <time>2022-07-30T08:43:42Z</time>
      </trkpt>
      <trkpt lat="47.3496" lon="-1.36382">
        <ele>134</ele>
        <time>2022-07-30T08:43:45Z</time>
      </trkpt>
      <trkpt lat="47.34949" lon="-1.36369">
        <ele>134</ele>
        <time>2022-07-30T08:43:47Z</time>
      </trkpt>
      <trkpt lat="47.34939" lon="-1.36355">
        <ele>135</ele>
        <time>2022-07-30T08:43:49Z</time>
      </trkpt>
      <trkpt lat="47.34929" lon="-1.36342">
        <ele>135</ele>
        <time>2022-07-30T08:43:51Z</time>
      </trkpt>
      <trkpt lat="47.34918" lon="-1.36328">
        <ele>135</ele>
        <time>2022-07-30T08:43:53Z</time>
      </trkpt>
      <trkpt lat="47.34908" lon="-1.36315">
        <ele>135</ele>
        <time>2022-07-30T08:43:55Z</time>
      </trkpt>
      <trkpt lat="47.34899" lon="-1.36299">
        <ele>134</ele>
        <time>2022-07-30T08:43:57Z</time>
      </trkpt>
      <trkpt lat="47.34885" lon="-1.36276">
        <ele>134</ele>
        <time>2022-07-30T08:44:00Z</time>
      </trkpt>
      <trkpt lat="47.34875" lon="-1.36262">
        <ele>135</ele>
        <time>2022-07-30T08:44:02Z</time>
      </trkpt>
      <trkpt lat="47.34866" lon="-1.36247">
        <ele>134</ele>
        <time>2022-07-30T08:44:04Z</time>
      </trkpt>
      <trkpt lat="47.34857" lon="-1.36233">
        <ele>135</ele>
        <time>2022-07-30T08:44:06Z</time>
      </trkpt>
      <trkpt lat="47.34843" lon="-1.36211">
        <ele>135</ele>
        <time>2022-07-30T08:44:09Z</time>
      </trkpt>
      <trkpt lat="47.34834" lon="-1.36196">
        <ele>135</ele>
        <time>2022-07-30T08:44:11Z</time>
      </trkpt>
      <trkpt lat="47.34824" lon="-1.36182">
        <ele>135</ele>
        <time>2022-07-30T08:44:13Z</time>
      </trkpt>
      <trkpt lat="47.34815" lon="-1.36168">
        <ele>135</ele>
        <time>2022-07-30T08:44:15Z</time>
      </trkpt>
      <trkpt lat="47.34806" lon="-1.36155">
        <ele>135</ele>
        <time>2022-07-30T08:44:17Z</time>
      </trkpt>
      <trkpt lat="47.34796" lon="-1.36142">
        <ele>135</ele>
        <time>2022-07-30T08:44:19Z</time>
      </trkpt>
      <trkpt lat="47.34786" lon="-1.36129">
        <ele>135</ele>
        <time>2022-07-30T08:44:21Z</time>
      </trkpt>
      <trkpt lat="47.34776" lon="-1.36116">
        <ele>135</ele>
        <time>2022-07-30T08:44:23Z</time>
      </trkpt>
      <trkpt lat="47.34766" lon="-1.36104">
        <ele>135</ele>
        <time>2022-07-30T08:44:25Z</time>
      </trkpt>
      <trkpt lat="47.34755" lon="-1.36092">
        <ele>135</ele>
        <time>2022-07-30T08:44:27Z</time>
      </trkpt>
      <trkpt lat="47.34745" lon="-1.3608">
        <ele>135</ele>
        <time>2022-07-30T08:44:29Z</time>
      </trkpt>
      <trkpt lat="47.34735" lon="-1.36067">
        <ele>135</ele>
        <time>2022-07-30T08:44:31Z</time>
      </trkpt>
      <trkpt lat="47.34724" lon="-1.36055">
        <ele>134</ele>
        <time>2022-07-30T08:44:33Z</time>
      </trkpt>
      <trkpt lat="47.34713" lon="-1.36042">
        <ele>134</ele>
        <time>2022-07-30T08:44:35Z</time>
      </trkpt>
      <trkpt lat="47.34702" lon="-1.36029">
        <ele>134</ele>
        <time>2022-07-30T08:44:37Z</time>
      </trkpt>
      <trkpt lat="47.3469" lon="-1.36016">
        <ele>133</ele>
        <time>2022-07-30T08:44:39Z</time>
      </trkpt>
      <trkpt lat="47.34678" lon="-1.36003">
        <ele>133</ele>
        <time>2022-07-30T08:44:41Z</time>
      </trkpt>
      <trkpt lat="47.34665" lon="-1.3599">
        <ele>132</ele>
        <time>2022-07-30T08:44:43Z</time>
      </trkpt>
      <trkpt lat="47.34654" lon="-1.35977">
        <ele>131</ele>
        <time>2022-07-30T08:44:45Z</time>
      </trkpt>
      <trkpt lat="47.34642" lon="-1.35964">
        <ele>131</ele>
        <time>2022-07-30T08:44:47Z</time>
      </trkpt>
      <trkpt lat="47.3463" lon="-1.35951">
        <ele>131</ele>
        <time>2022-07-30T08:44:49Z</time>
      </trkpt>
      <trkpt lat="47.34618" lon="-1.35938">
        <ele>131</ele>
        <time>2022-07-30T08:44:51Z</time>
      </trkpt>
      <trkpt lat="47.34606" lon="-1.35923">
        <ele>131</ele>
        <time>2022-07-30T08:44:53Z</time>
      </trkpt>
      <trkpt lat="47.34595" lon="-1.3591">
        <ele>131</ele>
        <time>2022-07-30T08:44:55Z</time>
      </trkpt>
      <trkpt lat="47.34583" lon="-1.35896">
        <ele>131</ele>
        <time>2022-07-30T08:44:57Z</time>
      </trkpt>
      <trkpt lat="47.34571" lon="-1.3588">
        <ele>131</ele>
        <time>2022-07-30T08:44:59Z</time>
      </trkpt>
      <trkpt lat="47.34561" lon="-1.35865">
        <ele>131</ele>
        <time>2022-07-30T08:45:01Z</time>
      </trkpt>
      <trkpt lat="47.34551" lon="-1.35849">
        <ele>132</ele>
        <time>2022-07-30T08:45:03Z</time>
      </trkpt>
      <trkpt lat="47.34542" lon="-1.35834">
        <ele>132</ele>
        <time>2022-07-30T08:45:05Z</time>
      </trkpt>
      <trkpt lat="47.34533" lon="-1.35818">
        <ele>132</ele>
        <time>2022-07-30T08:45:07Z</time>
      </trkpt>
      <trkpt lat="47.34524" lon="-1.35803">
        <ele>133</ele>
        <time>2022-07-30T08:45:09Z</time>
      </trkpt>
      <trkpt lat="47.34515" lon="-1.35787">
        <ele>133</ele>
        <time>2022-07-30T08:45:11Z</time>
      </trkpt>
      <trkpt lat="47.34507" lon="-1.35772">
        <ele>133</ele>
        <time>2022-07-30T08:45:13Z</time>
      </trkpt>
      <trkpt lat="47.34499" lon="-1.35758">
        <ele>134</ele>
        <time>2022-07-30T08:45:15Z</time>
      </trkpt>
      <trkpt lat="47.3449" lon="-1.35743">
        <ele>134</ele>
        <time>2022-07-30T08:45:17Z</time>
      </trkpt>
      <trkpt lat="47.34482" lon="-1.35729">
        <ele>134</ele>
        <time>2022-07-30T08:45:19Z</time>
      </trkpt>
      <trkpt lat="47.34474" lon="-1.35714">
        <ele>134</ele>
        <time>2022-07-30T08:45:21Z</time>
      </trkpt>
      <trkpt lat="47.34467" lon="-1.35699">
        <ele>135</ele>
        <time>2022-07-30T08:45:23Z</time>
      </trkpt>
      <trkpt lat="47.34459" lon="-1.35685">
        <ele>135</ele>
        <time>2022-07-30T08:45:25Z</time>
      </trkpt>
      <trkpt lat="47.34451" lon="-1.35672">
        <ele>136</ele>
        <time>2022-07-30T08:45:27Z</time>
      </trkpt>
      <trkpt lat="47.34442" lon="-1.35658">
        <ele>137</ele>
        <time>2022-07-30T08:45:29Z</time>
      </trkpt>
      <trkpt lat="47.34434" lon="-1.35644">
        <ele>138</ele>
        <time>2022-07-30T08:45:31Z</time>
      </trkpt>
      <trkpt lat="47.34426" lon="-1.35629">
        <ele>139</ele>
        <time>2022-07-30T08:45:33Z</time>
      </trkpt>
      <trkpt lat="47.34417" lon="-1.35616">
        <ele>139</ele>
        <time>2022-07-30T08:45:35Z</time>
      </trkpt>
      <trkpt lat="47.34408" lon="-1.35602">
        <ele>139</ele>
        <time>2022-07-30T08:45:37Z</time>
      </trkpt>
      <trkpt lat="47.34399" lon="-1.35588">
        <ele>138</ele>
        <time>2022-07-30T08:45:39Z</time>
      </trkpt>
      <trkpt lat="47.34391" lon="-1.35574">
        <ele>138</ele>
        <time>2022-07-30T08:45:41Z</time>
      </trkpt>
      <trkpt lat="47.34382" lon="-1.3556">
        <ele>138</ele>
        <time>2022-07-30T08:45:43Z</time>
      </trkpt>
      <trkpt lat="47.34374" lon="-1.35546">
        <ele>137</ele>
        <time>2022-07-30T08:45:45Z</time>
      </trkpt>
      <trkpt lat="47.34366" lon="-1.35531">
        <ele>136</ele>
        <time>2022-07-30T08:45:47Z</time>
      </trkpt>
      <trkpt lat="47.34357" lon="-1.35517">
        <ele>136</ele>
        <time>2022-07-30T08:45:49Z</time>
      </trkpt>
      <trkpt lat="47.34349" lon="-1.35502">
        <ele>136</ele>
        <time>2022-07-30T08:45:51Z</time>
      </trkpt>
      <trkpt lat="47.3434" lon="-1.35487">
        <ele>136</ele>
        <time>2022-07-30T08:45:53Z</time>
      </trkpt>
      <trkpt lat="47.34332" lon="-1.35473">
        <ele>135</ele>
        <time>2022-07-30T08:45:55Z</time>
      </trkpt>
      <trkpt lat="47.34324" lon="-1.35459">
        <ele>135</ele>
        <time>2022-07-30T08:45:57Z</time>
      </trkpt>
      <trkpt lat="47.34315" lon="-1.35445">
        <ele>136</ele>
        <time>2022-07-30T08:45:59Z</time>
      </trkpt>
      <trkpt lat="47.34307" lon="-1.3543">
        <ele>136</ele>
        <time>2022-07-30T08:46:01Z</time>
      </trkpt>
      <trkpt lat="47.34298" lon="-1.35415">
        <ele>136</ele>
        <time>2022-07-30T08:46:03Z</time>
      </trkpt>
      <trkpt lat="47.34289" lon="-1.354">
        <ele>135</ele>
        <time>2022-07-30T08:46:05Z</time>
      </trkpt>
      <trkpt lat="47.3428" lon="-1.35385">
        <ele>135</ele>
        <time>2022-07-30T08:46:07Z</time>
      </trkpt>
      <trkpt lat="47.34271" lon="-1.35369">
        <ele>135</ele>
        <time>2022-07-30T08:46:09Z</time>
      </trkpt>
      <trkpt lat="47.34262" lon="-1.35355">
        <ele>136</ele>
        <time>2022-07-30T08:46:11Z</time>
      </trkpt>
      <trkpt lat="47.34253" lon="-1.3534">
        <ele>136</ele>
        <time>2022-07-30T08:46:13Z</time>
      </trkpt>
      <trkpt lat="47.34245" lon="-1.35326">
        <ele>136</ele>
        <time>2022-07-30T08:46:15Z</time>
      </trkpt>
      <trkpt lat="47.34237" lon="-1.35312">
        <ele>136</ele>
        <time>2022-07-30T08:46:17Z</time>
      </trkpt>
      <trkpt lat="47.34228" lon="-1.35298">
        <ele>136</ele>
        <time>2022-07-30T08:46:19Z</time>
      </trkpt>
      <trkpt lat="47.3422" lon="-1.35283">
        <ele>135</ele>
        <time>2022-07-30T08:46:21Z</time>
      </trkpt>
      <trkpt lat="47.34211" lon="-1.35268">
        <ele>135</ele>
        <time>2022-07-30T08:46:23Z</time>
      </trkpt>
      <trkpt lat="47.34202" lon="-1.35253">
        <ele>136</ele>
        <time>2022-07-30T08:46:25Z</time>
      </trkpt>
      <trkpt lat="47.34194" lon="-1.35238">
        <ele>136</ele>
        <time>2022-07-30T08:46:27Z</time>
      </trkpt>
      <trkpt lat="47.34185" lon="-1.35223">
        <ele>135</ele>
        <time>2022-07-30T08:46:29Z</time>
      </trkpt>
      <trkpt lat="47.34176" lon="-1.35208">
        <ele>135</ele>
        <time>2022-07-30T08:46:31Z</time>
      </trkpt>
      <trkpt lat="47.34167" lon="-1.35193">
        <ele>135</ele>
        <time>2022-07-30T08:46:33Z</time>
      </trkpt>
      <trkpt lat="47.34157" lon="-1.35178">
        <ele>135</ele>
        <time>2022-07-30T08:46:35Z</time>
      </trkpt>
      <trkpt lat="47.34148" lon="-1.35163">
        <ele>135</ele>
        <time>2022-07-30T08:46:37Z</time>
      </trkpt>
      <trkpt lat="47.3414" lon="-1.35148">
        <ele>134</ele>
        <time>2022-07-30T08:46:39Z</time>
      </trkpt>
      <trkpt lat="47.3413" lon="-1.35133">
        <ele>134</ele>
        <time>2022-07-30T08:46:41Z</time>
      </trkpt>
      <trkpt lat="47.34122" lon="-1.35118">
        <ele>134</ele>
        <time>2022-07-30T08:46:43Z</time>
      </trkpt>
      <trkpt lat="47.34113" lon="-1.35103">
        <ele>134</ele>
        <time>2022-07-30T08:46:45Z</time>
      </trkpt>
      <trkpt lat="47.34104" lon="-1.35088">
        <ele>134</ele>
        <time>2022-07-30T08:46:47Z</time>
      </trkpt>
      <trkpt lat="47.34095" lon="-1.35074">
        <ele>134</ele>
        <time>2022-07-30T08:46:49Z</time>
      </trkpt>
      <trkpt lat="47.34087" lon="-1.35058">
        <ele>134</ele>
        <time>2022-07-30T08:46:51Z</time>
      </trkpt>
      <trkpt lat="47.34079" lon="-1.35043">
        <ele>134</ele>
        <time>2022-07-30T08:46:53Z</time>
      </trkpt>
      <trkpt lat="47.34071" lon="-1.35029">
        <ele>135</ele>
        <time>2022-07-30T08:46:55Z</time>
      </trkpt>
      <trkpt lat="47.34062" lon="-1.35014">
        <ele>135</ele>
        <time>2022-07-30T08:46:57Z</time>
      </trkpt>
      <trkpt lat="47.34054" lon="-1.34999">
        <ele>136</ele>
        <time>2022-07-30T08:46:59Z</time>
      </trkpt>
      <trkpt lat="47.34045" lon="-1.34986">
        <ele>136</ele>
        <time>2022-07-30T08:47:01Z</time>
      </trkpt>
      <trkpt lat="47.34036" lon="-1.34975">
        <ele>136</ele>
        <time>2022-07-30T08:47:03Z</time>
      </trkpt>
      <trkpt lat="47.34026" lon="-1.34966">
        <ele>135</ele>
        <time>2022-07-30T08:47:05Z</time>
      </trkpt>
      <trkpt lat="47.34016" lon="-1.3496">
        <ele>136</ele>
        <time>2022-07-30T08:47:07Z</time>
      </trkpt>
      <trkpt lat="47.34006" lon="-1.34954">
        <ele>136</ele>
        <time>2022-07-30T08:47:09Z</time>
      </trkpt>
      <trkpt lat="47.33995" lon="-1.34943">
        <ele>135</ele>
        <time>2022-07-30T08:47:11Z</time>
      </trkpt>
      <trkpt lat="47.33987" lon="-1.34925">
        <ele>134</ele>
        <time>2022-07-30T08:47:13Z</time>
      </trkpt>
      <trkpt lat="47.33976" lon="-1.34911">
        <ele>134</ele>
        <time>2022-07-30T08:47:15Z</time>
      </trkpt>
      <trkpt lat="47.33965" lon="-1.34898">
        <ele>134</ele>
        <time>2022-07-30T08:47:17Z</time>
      </trkpt>
      <trkpt lat="47.33953" lon="-1.34887">
        <ele>134</ele>
        <time>2022-07-30T08:47:19Z</time>
      </trkpt>
      <trkpt lat="47.33941" lon="-1.34876">
        <ele>133</ele>
        <time>2022-07-30T08:47:21Z</time>
      </trkpt>
      <trkpt lat="47.3393" lon="-1.34865">
        <ele>133</ele>
        <time>2022-07-30T08:47:23Z</time>
      </trkpt>
      <trkpt lat="47.33918" lon="-1.34853">
        <ele>133</ele>
        <time>2022-07-30T08:47:25Z</time>
      </trkpt>
      <trkpt lat="47.33907" lon="-1.34842">
        <ele>133</ele>
        <time>2022-07-30T08:47:27Z</time>
      </trkpt>
      <trkpt lat="47.33896" lon="-1.34829">
        <ele>133</ele>
        <time>2022-07-30T08:47:29Z</time>
      </trkpt>
      <trkpt lat="47.33885" lon="-1.34815">
        <ele>133</ele>
        <time>2022-07-30T08:47:31Z</time>
      </trkpt>
      <trkpt lat="47.33875" lon="-1.34801">
        <ele>133</ele>
        <time>2022-07-30T08:47:33Z</time>
      </trkpt>
      <trkpt lat="47.33865" lon="-1.34787">
        <ele>133</ele>
        <time>2022-07-30T08:47:35Z</time>
      </trkpt>
      <trkpt lat="47.33854" lon="-1.34772">
        <ele>133</ele>
        <time>2022-07-30T08:47:37Z</time>
      </trkpt>
      <trkpt lat="47.33844" lon="-1.34758">
        <ele>133</ele>
        <time>2022-07-30T08:47:39Z</time>
      </trkpt>
      <trkpt lat="47.33833" lon="-1.34743">
        <ele>133</ele>
        <time>2022-07-30T08:47:41Z</time>
      </trkpt>
      <trkpt lat="47.33823" lon="-1.34729">
        <ele>133</ele>
        <time>2022-07-30T08:47:43Z</time>
      </trkpt>
      <trkpt lat="47.33812" lon="-1.34714">
        <ele>133</ele>
        <time>2022-07-30T08:47:45Z</time>
      </trkpt>
      <trkpt lat="47.33802" lon="-1.347">
        <ele>132</ele>
        <time>2022-07-30T08:47:47Z</time>
      </trkpt>
      <trkpt lat="47.33792" lon="-1.34686">
        <ele>132</ele>
        <time>2022-07-30T08:47:49Z</time>
      </trkpt>
      <trkpt lat="47.33781" lon="-1.34672">
        <ele>132</ele>
        <time>2022-07-30T08:47:51Z</time>
      </trkpt>
      <trkpt lat="47.33772" lon="-1.34658">
        <ele>133</ele>
        <time>2022-07-30T08:47:53Z</time>
      </trkpt>
      <trkpt lat="47.33762" lon="-1.34644">
        <ele>133</ele>
        <time>2022-07-30T08:47:55Z</time>
      </trkpt>
      <trkpt lat="47.33752" lon="-1.34629">
        <ele>133</ele>
        <time>2022-07-30T08:47:57Z</time>
      </trkpt>
      <trkpt lat="47.33742" lon="-1.34615">
        <ele>133</ele>
        <time>2022-07-30T08:47:59Z</time>
      </trkpt>
      <trkpt lat="47.33733" lon="-1.34601">
        <ele>133</ele>
        <time>2022-07-30T08:48:01Z</time>
      </trkpt>
      <trkpt lat="47.33723" lon="-1.34588">
        <ele>133</ele>
        <time>2022-07-30T08:48:03Z</time>
      </trkpt>
      <trkpt lat="47.33713" lon="-1.34575">
        <ele>133</ele>
        <time>2022-07-30T08:48:05Z</time>
      </trkpt>
      <trkpt lat="47.33703" lon="-1.34561">
        <ele>133</ele>
        <time>2022-07-30T08:48:07Z</time>
      </trkpt>
      <trkpt lat="47.33693" lon="-1.34548">
        <ele>132</ele>
        <time>2022-07-30T08:48:09Z</time>
      </trkpt>
      <trkpt lat="47.33683" lon="-1.34534">
        <ele>133</ele>
        <time>2022-07-30T08:48:11Z</time>
      </trkpt>
      <trkpt lat="47.33673" lon="-1.34521">
        <ele>133</ele>
        <time>2022-07-30T08:48:13Z</time>
      </trkpt>
      <trkpt lat="47.33663" lon="-1.34508">
        <ele>133</ele>
        <time>2022-07-30T08:48:15Z</time>
      </trkpt>
      <trkpt lat="47.33652" lon="-1.34495">
        <ele>133</ele>
        <time>2022-07-30T08:48:17Z</time>
      </trkpt>
      <trkpt lat="47.33642" lon="-1.34482">
        <ele>132</ele>
        <time>2022-07-30T08:48:19Z</time>
      </trkpt>
      <trkpt lat="47.3363" lon="-1.34471">
        <ele>132</ele>
        <time>2022-07-30T08:48:21Z</time>
      </trkpt>
      <trkpt lat="47.33618" lon="-1.34461">
        <ele>132</ele>
        <time>2022-07-30T08:48:23Z</time>
      </trkpt>
      <trkpt lat="47.33605" lon="-1.34455">
        <ele>132</ele>
        <time>2022-07-30T08:48:25Z</time>
      </trkpt>
      <trkpt lat="47.33592" lon="-1.34448">
        <ele>132</ele>
        <time>2022-07-30T08:48:27Z</time>
      </trkpt>
      <trkpt lat="47.33579" lon="-1.34441">
        <ele>132</ele>
        <time>2022-07-30T08:48:29Z</time>
      </trkpt>
      <trkpt lat="47.33566" lon="-1.34434">
        <ele>132</ele>
        <time>2022-07-30T08:48:31Z</time>
      </trkpt>
      <trkpt lat="47.33553" lon="-1.34427">
        <ele>131</ele>
        <time>2022-07-30T08:48:33Z</time>
      </trkpt>
      <trkpt lat="47.3354" lon="-1.34421">
        <ele>131</ele>
        <time>2022-07-30T08:48:35Z</time>
      </trkpt>
      <trkpt lat="47.33526" lon="-1.34415">
        <ele>130</ele>
        <time>2022-07-30T08:48:37Z</time>
      </trkpt>
      <trkpt lat="47.33513" lon="-1.34409">
        <ele>130</ele>
        <time>2022-07-30T08:48:39Z</time>
      </trkpt>
      <trkpt lat="47.335" lon="-1.34402">
        <ele>130</ele>
        <time>2022-07-30T08:48:41Z</time>
      </trkpt>
      <trkpt lat="47.33486" lon="-1.34396">
        <ele>130</ele>
        <time>2022-07-30T08:48:43Z</time>
      </trkpt>
      <trkpt lat="47.33473" lon="-1.3439">
        <ele>130</ele>
        <time>2022-07-30T08:48:45Z</time>
      </trkpt>
      <trkpt lat="47.3346" lon="-1.34383">
        <ele>131</ele>
        <time>2022-07-30T08:48:47Z</time>
      </trkpt>
      <trkpt lat="47.33447" lon="-1.34376">
        <ele>131</ele>
        <time>2022-07-30T08:48:49Z</time>
      </trkpt>
      <trkpt lat="47.33434" lon="-1.34369">
        <ele>131</ele>
        <time>2022-07-30T08:48:51Z</time>
      </trkpt>
      <trkpt lat="47.3342" lon="-1.34363">
        <ele>130</ele>
        <time>2022-07-30T08:48:53Z</time>
      </trkpt>
      <trkpt lat="47.33406" lon="-1.34356">
        <ele>130</ele>
        <time>2022-07-30T08:48:55Z</time>
      </trkpt>
      <trkpt lat="47.33392" lon="-1.34349">
        <ele>130</ele>
        <time>2022-07-30T08:48:57Z</time>
      </trkpt>
      <trkpt lat="47.33378" lon="-1.34343">
        <ele>129</ele>
        <time>2022-07-30T08:48:59Z</time>
      </trkpt>
      <trkpt lat="47.33365" lon="-1.34335">
        <ele>129</ele>
        <time>2022-07-30T08:49:01Z</time>
      </trkpt>
      <trkpt lat="47.33352" lon="-1.34329">
        <ele>129</ele>
        <time>2022-07-30T08:49:03Z</time>
      </trkpt>
      <trkpt lat="47.33338" lon="-1.34323">
        <ele>128</ele>
        <time>2022-07-30T08:49:05Z</time>
      </trkpt>
      <trkpt lat="47.33325" lon="-1.34316">
        <ele>128</ele>
        <time>2022-07-30T08:49:07Z</time>
      </trkpt>
      <trkpt lat="47.33311" lon="-1.34311">
        <ele>128</ele>
        <time>2022-07-30T08:49:09Z</time>
      </trkpt>
      <trkpt lat="47.33297" lon="-1.34307">
        <ele>127</ele>
        <time>2022-07-30T08:49:11Z</time>
      </trkpt>
      <trkpt lat="47.33283" lon="-1.34304">
        <ele>127</ele>
        <time>2022-07-30T08:49:13Z</time>
      </trkpt>
      <trkpt lat="47.33269" lon="-1.34302">
        <ele>127</ele>
        <time>2022-07-30T08:49:15Z</time>
      </trkpt>
      <trkpt lat="47.33254" lon="-1.34301">
        <ele>126</ele>
        <time>2022-07-30T08:49:17Z</time>
      </trkpt>
      <trkpt lat="47.3324" lon="-1.34299">
        <ele>126</ele>
        <time>2022-07-30T08:49:19Z</time>
      </trkpt>
      <trkpt lat="47.33227" lon="-1.34297">
        <ele>126</ele>
        <time>2022-07-30T08:49:21Z</time>
      </trkpt>
      <trkpt lat="47.33212" lon="-1.34296">
        <ele>126</ele>
        <time>2022-07-30T08:49:23Z</time>
      </trkpt>
      <trkpt lat="47.33198" lon="-1.34294">
        <ele>126</ele>
        <time>2022-07-30T08:49:25Z</time>
      </trkpt>
      <trkpt lat="47.33183" lon="-1.34291">
        <ele>126</ele>
        <time>2022-07-30T08:49:27Z</time>
      </trkpt>
      <trkpt lat="47.33169" lon="-1.34287">
        <ele>125</ele>
        <time>2022-07-30T08:49:29Z</time>
      </trkpt>
      <trkpt lat="47.33155" lon="-1.34282">
        <ele>124</ele>
        <time>2022-07-30T08:49:31Z</time>
      </trkpt>
      <trkpt lat="47.33141" lon="-1.34273">
        <ele>124</ele>
        <time>2022-07-30T08:49:33Z</time>
      </trkpt>
      <trkpt lat="47.33127" lon="-1.34265">
        <ele>123</ele>
        <time>2022-07-30T08:49:35Z</time>
      </trkpt>
      <trkpt lat="47.33113" lon="-1.34255">
        <ele>123</ele>
        <time>2022-07-30T08:49:37Z</time>
      </trkpt>
      <trkpt lat="47.33098" lon="-1.34246">
        <ele>123</ele>
        <time>2022-07-30T08:49:39Z</time>
      </trkpt>
      <trkpt lat="47.33082" lon="-1.34236">
        <ele>122</ele>
        <time>2022-07-30T08:49:41Z</time>
      </trkpt>
      <trkpt lat="47.33067" lon="-1.34225">
        <ele>121</ele>
        <time>2022-07-30T08:49:43Z</time>
      </trkpt>
      <trkpt lat="47.33053" lon="-1.34215">
        <ele>120</ele>
        <time>2022-07-30T08:49:45Z</time>
      </trkpt>
      <trkpt lat="47.33037" lon="-1.34204">
        <ele>120</ele>
        <time>2022-07-30T08:49:47Z</time>
      </trkpt>
      <trkpt lat="47.33022" lon="-1.34192">
        <ele>119</ele>
        <time>2022-07-30T08:49:49Z</time>
      </trkpt>
      <trkpt lat="47.33006" lon="-1.34181">
        <ele>118</ele>
        <time>2022-07-30T08:49:51Z</time>
      </trkpt>
      <trkpt lat="47.32998" lon="-1.34176">
        <ele>118</ele>
        <time>2022-07-30T08:49:52Z</time>
      </trkpt>
      <trkpt lat="47.3299" lon="-1.34169">
        <ele>118</ele>
        <time>2022-07-30T08:49:53Z</time>
      </trkpt>
      <trkpt lat="47.32982" lon="-1.34162">
        <ele>117</ele>
        <time>2022-07-30T08:49:54Z</time>
      </trkpt>
      <trkpt lat="47.32974" lon="-1.34153">
        <ele>116</ele>
        <time>2022-07-30T08:49:55Z</time>
      </trkpt>
      <trkpt lat="47.32967" lon="-1.34144">
        <ele>116</ele>
        <time>2022-07-30T08:49:56Z</time>
      </trkpt>
      <trkpt lat="47.3296" lon="-1.34133">
        <ele>115</ele>
        <time>2022-07-30T08:49:57Z</time>
      </trkpt>
      <trkpt lat="47.32955" lon="-1.34121">
        <ele>115</ele>
        <time>2022-07-30T08:49:58Z</time>
      </trkpt>
      <trkpt lat="47.3295" lon="-1.34109">
        <ele>114</ele>
        <time>2022-07-30T08:49:59Z</time>
      </trkpt>
      <trkpt lat="47.32945" lon="-1.34097">
        <ele>114</ele>
        <time>2022-07-30T08:50:00Z</time>
      </trkpt>
      <trkpt lat="47.32942" lon="-1.34084">
        <ele>114</ele>
        <time>2022-07-30T08:50:01Z</time>
      </trkpt>
      <trkpt lat="47.3294" lon="-1.3407">
        <ele>113</ele>
        <time>2022-07-30T08:50:02Z</time>
      </trkpt>
      <trkpt lat="47.32941" lon="-1.34055">
        <ele>113</ele>
        <time>2022-07-30T08:50:03Z</time>
      </trkpt>
      <trkpt lat="47.32942" lon="-1.34041">
        <ele>112</ele>
        <time>2022-07-30T08:50:04Z</time>
      </trkpt>
      <trkpt lat="47.32945" lon="-1.34027">
        <ele>112</ele>
        <time>2022-07-30T08:50:05Z</time>
      </trkpt>
      <trkpt lat="47.32948" lon="-1.34013">
        <ele>112</ele>
        <time>2022-07-30T08:50:06Z</time>
      </trkpt>
      <trkpt lat="47.32952" lon="-1.34">
        <ele>111</ele>
        <time>2022-07-30T08:50:07Z</time>
      </trkpt>
      <trkpt lat="47.32956" lon="-1.33986">
        <ele>111</ele>
        <time>2022-07-30T08:50:08Z</time>
      </trkpt>
      <trkpt lat="47.32961" lon="-1.33973">
        <ele>110</ele>
        <time>2022-07-30T08:50:09Z</time>
      </trkpt>
      <trkpt lat="47.32966" lon="-1.33959">
        <ele>109</ele>
        <time>2022-07-30T08:50:10Z</time>
      </trkpt>
      <trkpt lat="47.32971" lon="-1.33946">
        <ele>108</ele>
        <time>2022-07-30T08:50:11Z</time>
      </trkpt>
      <trkpt lat="47.32976" lon="-1.33933">
        <ele>107</ele>
        <time>2022-07-30T08:50:12Z</time>
      </trkpt>
      <trkpt lat="47.32981" lon="-1.3392">
        <ele>107</ele>
        <time>2022-07-30T08:50:13Z</time>
      </trkpt>
      <trkpt lat="47.32986" lon="-1.33906">
        <ele>107</ele>
        <time>2022-07-30T08:50:14Z</time>
      </trkpt>
      <trkpt lat="47.3299" lon="-1.33893">
        <ele>106</ele>
        <time>2022-07-30T08:50:15Z</time>
      </trkpt>
      <trkpt lat="47.32995" lon="-1.33879">
        <ele>106</ele>
        <time>2022-07-30T08:50:16Z</time>
      </trkpt>
      <trkpt lat="47.33" lon="-1.33865">
        <ele>105</ele>
        <time>2022-07-30T08:50:17Z</time>
      </trkpt>
      <trkpt lat="47.33005" lon="-1.33851">
        <ele>104</ele>
        <time>2022-07-30T08:50:18Z</time>
      </trkpt>
      <trkpt lat="47.3301" lon="-1.33837">
        <ele>103</ele>
        <time>2022-07-30T08:50:19Z</time>
      </trkpt>
      <trkpt lat="47.33015" lon="-1.33823">
        <ele>102</ele>
        <time>2022-07-30T08:50:20Z</time>
      </trkpt>
      <trkpt lat="47.33021" lon="-1.33809">
        <ele>102</ele>
        <time>2022-07-30T08:50:21Z</time>
      </trkpt>
      <trkpt lat="47.33026" lon="-1.33795">
        <ele>101</ele>
        <time>2022-07-30T08:50:22Z</time>
      </trkpt>
      <trkpt lat="47.33032" lon="-1.33781">
        <ele>101</ele>
        <time>2022-07-30T08:50:23Z</time>
      </trkpt>
      <trkpt lat="47.33038" lon="-1.33767">
        <ele>101</ele>
        <time>2022-07-30T08:50:24Z</time>
      </trkpt>
      <trkpt lat="47.33045" lon="-1.33754">
        <ele>100</ele>
        <time>2022-07-30T08:50:25Z</time>
      </trkpt>
      <trkpt lat="47.33051" lon="-1.33741">
        <ele>100</ele>
        <time>2022-07-30T08:50:26Z</time>
      </trkpt>
      <trkpt lat="47.33059" lon="-1.33728">
        <ele>99</ele>
        <time>2022-07-30T08:50:27Z</time>
      </trkpt>
      <trkpt lat="47.33066" lon="-1.33714">
        <ele>98</ele>
        <time>2022-07-30T08:50:28Z</time>
      </trkpt>
      <trkpt lat="47.33073" lon="-1.33701">
        <ele>97</ele>
        <time>2022-07-30T08:50:29Z</time>
      </trkpt>
      <trkpt lat="47.33079" lon="-1.33687">
        <ele>97</ele>
        <time>2022-07-30T08:50:30Z</time>
      </trkpt>
      <trkpt lat="47.33084" lon="-1.33673">
        <ele>96</ele>
        <time>2022-07-30T08:50:31Z</time>
      </trkpt>
      <trkpt lat="47.33089" lon="-1.33658">
        <ele>96</ele>
        <time>2022-07-30T08:50:32Z</time>
      </trkpt>
      <trkpt lat="47.33093" lon="-1.33643">
        <ele>95</ele>
        <time>2022-07-30T08:50:33Z</time>
      </trkpt>
      <trkpt lat="47.33098" lon="-1.33628">
        <ele>95</ele>
        <time>2022-07-30T08:50:34Z</time>
      </trkpt>
      <trkpt lat="47.33102" lon="-1.33612">
        <ele>94</ele>
        <time>2022-07-30T08:50:35Z</time>
      </trkpt>
      <trkpt lat="47.33106" lon="-1.33597">
        <ele>94</ele>
        <time>2022-07-30T08:50:36Z</time>
      </trkpt>
      <trkpt lat="47.3311" lon="-1.33582">
        <ele>93</ele>
        <time>2022-07-30T08:50:37Z</time>
      </trkpt>
      <trkpt lat="47.33115" lon="-1.33566">
        <ele>93</ele>
        <time>2022-07-30T08:50:38Z</time>
      </trkpt>
      <trkpt lat="47.33119" lon="-1.3355">
        <ele>92</ele>
        <time>2022-07-30T08:50:39Z</time>
      </trkpt>
      <trkpt lat="47.3312" lon="-1.33533">
        <ele>92</ele>
        <time>2022-07-30T08:50:40Z</time>
      </trkpt>
      <trkpt lat="47.33121" lon="-1.33516">
        <ele>91</ele>
        <time>2022-07-30T08:50:41Z</time>
      </trkpt>
      <trkpt lat="47.33119" lon="-1.33499">
        <ele>91</ele>
        <time>2022-07-30T08:50:42Z</time>
      </trkpt>
      <trkpt lat="47.33116" lon="-1.33484">
        <ele>90</ele>
        <time>2022-07-30T08:50:43Z</time>
      </trkpt>
      <trkpt lat="47.3311" lon="-1.3347">
        <ele>90</ele>
        <time>2022-07-30T08:50:44Z</time>
      </trkpt>
      <trkpt lat="47.33103" lon="-1.33457">
        <ele>90</ele>
        <time>2022-07-30T08:50:45Z</time>
      </trkpt>
      <trkpt lat="47.33095" lon="-1.33447">
        <ele>90</ele>
        <time>2022-07-30T08:50:46Z</time>
      </trkpt>
      <trkpt lat="47.33087" lon="-1.33438">
        <ele>90</ele>
        <time>2022-07-30T08:50:47Z</time>
      </trkpt>
      <trkpt lat="47.33078" lon="-1.33428">
        <ele>90</ele>
        <time>2022-07-30T08:50:48Z</time>
      </trkpt>
      <trkpt lat="47.3307" lon="-1.33419">
        <ele>90</ele>
        <time>2022-07-30T08:50:49Z</time>
      </trkpt>
      <trkpt lat="47.33062" lon="-1.33409">
        <ele>90</ele>
        <time>2022-07-30T08:50:50Z</time>
      </trkpt>
      <trkpt lat="47.33054" lon="-1.33399">
        <ele>89</ele>
        <time>2022-07-30T08:50:51Z</time>
      </trkpt>
      <trkpt lat="47.33045" lon="-1.33388">
        <ele>89</ele>
        <time>2022-07-30T08:50:52Z</time>
      </trkpt>
      <trkpt lat="47.33037" lon="-1.33378">
        <ele>89</ele>
        <time>2022-07-30T08:50:53Z</time>
      </trkpt>
      <trkpt lat="47.33028" lon="-1.33368">
        <ele>90</ele>
        <time>2022-07-30T08:50:54Z</time>
      </trkpt>
      <trkpt lat="47.3302" lon="-1.33359">
        <ele>90</ele>
        <time>2022-07-30T08:50:55Z</time>
      </trkpt>
      <trkpt lat="47.33012" lon="-1.3335">
        <ele>89</ele>
        <time>2022-07-30T08:50:56Z</time>
      </trkpt>
      <trkpt lat="47.33003" lon="-1.3334">
        <ele>89</ele>
        <time>2022-07-30T08:50:57Z</time>
      </trkpt>
      <trkpt lat="47.32995" lon="-1.33329">
        <ele>89</ele>
        <time>2022-07-30T08:50:58Z</time>
      </trkpt>
      <trkpt lat="47.32987" lon="-1.33319">
        <ele>88</ele>
        <time>2022-07-30T08:50:59Z</time>
      </trkpt>
      <trkpt lat="47.32979" lon="-1.3331">
        <ele>89</ele>
        <time>2022-07-30T08:51:00Z</time>
      </trkpt>
      <trkpt lat="47.32971" lon="-1.333">
        <ele>89</ele>
        <time>2022-07-30T08:51:01Z</time>
      </trkpt>
      <trkpt lat="47.32962" lon="-1.3329">
        <ele>89</ele>
        <time>2022-07-30T08:51:02Z</time>
      </trkpt>
      <trkpt lat="47.32954" lon="-1.33279">
        <ele>89</ele>
        <time>2022-07-30T08:51:03Z</time>
      </trkpt>
      <trkpt lat="47.32945" lon="-1.3327">
        <ele>89</ele>
        <time>2022-07-30T08:51:04Z</time>
      </trkpt>
      <trkpt lat="47.32937" lon="-1.3326">
        <ele>88</ele>
        <time>2022-07-30T08:51:05Z</time>
      </trkpt>
      <trkpt lat="47.32928" lon="-1.3325">
        <ele>87</ele>
        <time>2022-07-30T08:51:06Z</time>
      </trkpt>
      <trkpt lat="47.32918" lon="-1.3324">
        <ele>86</ele>
        <time>2022-07-30T08:51:07Z</time>
      </trkpt>
      <trkpt lat="47.32909" lon="-1.33231">
        <ele>84</ele>
        <time>2022-07-30T08:51:08Z</time>
      </trkpt>
      <trkpt lat="47.32899" lon="-1.33222">
        <ele>83</ele>
        <time>2022-07-30T08:51:09Z</time>
      </trkpt>
      <trkpt lat="47.3289" lon="-1.33214">
        <ele>82</ele>
        <time>2022-07-30T08:51:10Z</time>
      </trkpt>
      <trkpt lat="47.32881" lon="-1.33205">
        <ele>82</ele>
        <time>2022-07-30T08:51:11Z</time>
      </trkpt>
      <trkpt lat="47.32871" lon="-1.33197">
        <ele>80</ele>
        <time>2022-07-30T08:51:12Z</time>
      </trkpt>
      <trkpt lat="47.3286" lon="-1.33188">
        <ele>80</ele>
        <time>2022-07-30T08:51:13Z</time>
      </trkpt>
      <trkpt lat="47.32851" lon="-1.3318">
        <ele>79</ele>
        <time>2022-07-30T08:51:14Z</time>
      </trkpt>
      <trkpt lat="47.32841" lon="-1.33172">
        <ele>78</ele>
        <time>2022-07-30T08:51:15Z</time>
      </trkpt>
      <trkpt lat="47.32831" lon="-1.33164">
        <ele>77</ele>
        <time>2022-07-30T08:51:16Z</time>
      </trkpt>
      <trkpt lat="47.32821" lon="-1.33156">
        <ele>76</ele>
        <time>2022-07-30T08:51:17Z</time>
      </trkpt>
      <trkpt lat="47.32811" lon="-1.33148">
        <ele>75</ele>
        <time>2022-07-30T08:51:18Z</time>
      </trkpt>
      <trkpt lat="47.32802" lon="-1.3314">
        <ele>75</ele>
        <time>2022-07-30T08:51:19Z</time>
      </trkpt>
      <trkpt lat="47.32792" lon="-1.33131">
        <ele>74</ele>
        <time>2022-07-30T08:51:20Z</time>
      </trkpt>
      <trkpt lat="47.32783" lon="-1.33122">
        <ele>74</ele>
        <time>2022-07-30T08:51:21Z</time>
      </trkpt>
      <trkpt lat="47.32774" lon="-1.33113">
        <ele>73</ele>
        <time>2022-07-30T08:51:22Z</time>
      </trkpt>
      <trkpt lat="47.32765" lon="-1.33104">
        <ele>73</ele>
        <time>2022-07-30T08:51:23Z</time>
      </trkpt>
      <trkpt lat="47.32756" lon="-1.33095">
        <ele>73</ele>
        <time>2022-07-30T08:51:24Z</time>
      </trkpt>
      <trkpt lat="47.32747" lon="-1.33086">
        <ele>72</ele>
        <time>2022-07-30T08:51:25Z</time>
      </trkpt>
      <trkpt lat="47.32738" lon="-1.33077">
        <ele>71</ele>
        <time>2022-07-30T08:51:26Z</time>
      </trkpt>
      <trkpt lat="47.3273" lon="-1.33069">
        <ele>70</ele>
        <time>2022-07-30T08:51:27Z</time>
      </trkpt>
      <trkpt lat="47.32721" lon="-1.3306">
        <ele>70</ele>
        <time>2022-07-30T08:51:28Z</time>
      </trkpt>
      <trkpt lat="47.32713" lon="-1.33051">
        <ele>70</ele>
        <time>2022-07-30T08:51:29Z</time>
      </trkpt>
      <trkpt lat="47.32704" lon="-1.33044">
        <ele>70</ele>
        <time>2022-07-30T08:51:30Z</time>
      </trkpt>
      <trkpt lat="47.32694" lon="-1.33036">
        <ele>70</ele>
        <time>2022-07-30T08:51:31Z</time>
      </trkpt>
      <trkpt lat="47.32685" lon="-1.33028">
        <ele>69</ele>
        <time>2022-07-30T08:51:32Z</time>
      </trkpt>
      <trkpt lat="47.32676" lon="-1.3302">
        <ele>68</ele>
        <time>2022-07-30T08:51:33Z</time>
      </trkpt>
      <trkpt lat="47.32667" lon="-1.33012">
        <ele>67</ele>
        <time>2022-07-30T08:51:34Z</time>
      </trkpt>
      <trkpt lat="47.32659" lon="-1.33004">
        <ele>66</ele>
        <time>2022-07-30T08:51:35Z</time>
      </trkpt>
      <trkpt lat="47.32652" lon="-1.32995">
        <ele>66</ele>
        <time>2022-07-30T08:51:36Z</time>
      </trkpt>
      <trkpt lat="47.3264" lon="-1.32979">
        <ele>64</ele>
        <time>2022-07-30T08:51:38Z</time>
      </trkpt>
      <trkpt lat="47.32631" lon="-1.32964">
        <ele>61</ele>
        <time>2022-07-30T08:51:40Z</time>
      </trkpt>
      <trkpt lat="47.32625" lon="-1.32951">
        <ele>61</ele>
        <time>2022-07-30T08:51:42Z</time>
      </trkpt>
      <trkpt lat="47.32615" lon="-1.32952">
        <ele>61</ele>
        <time>2022-07-30T08:51:44Z</time>
      </trkpt>
      <trkpt lat="47.32608" lon="-1.3296">
        <ele>60</ele>
        <time>2022-07-30T08:51:46Z</time>
      </trkpt>
      <trkpt lat="47.32601" lon="-1.32971">
        <ele>60</ele>
        <time>2022-07-30T08:51:48Z</time>
      </trkpt>
      <trkpt lat="47.32593" lon="-1.32982">
        <ele>60</ele>
        <time>2022-07-30T08:51:50Z</time>
      </trkpt>
      <trkpt lat="47.32586" lon="-1.32992">
        <ele>60</ele>
        <time>2022-07-30T08:51:52Z</time>
      </trkpt>
      <trkpt lat="47.32578" lon="-1.33002">
        <ele>60</ele>
        <time>2022-07-30T08:51:54Z</time>
      </trkpt>
      <trkpt lat="47.32571" lon="-1.33011">
        <ele>60</ele>
        <time>2022-07-30T08:51:56Z</time>
      </trkpt>
      <trkpt lat="47.32562" lon="-1.33019">
        <ele>60</ele>
        <time>2022-07-30T08:51:58Z</time>
      </trkpt>
      <trkpt lat="47.32554" lon="-1.33027">
        <ele>61</ele>
        <time>2022-07-30T08:52:00Z</time>
      </trkpt>
      <trkpt lat="47.32544" lon="-1.33034">
        <ele>60</ele>
        <time>2022-07-30T08:52:02Z</time>
      </trkpt>
      <trkpt lat="47.32534" lon="-1.33043">
        <ele>60</ele>
        <time>2022-07-30T08:52:04Z</time>
      </trkpt>
      <trkpt lat="47.32525" lon="-1.33054">
        <ele>60</ele>
        <time>2022-07-30T08:52:06Z</time>
      </trkpt>
      <trkpt lat="47.32515" lon="-1.33064">
        <ele>60</ele>
        <time>2022-07-30T08:52:08Z</time>
      </trkpt>
      <trkpt lat="47.32506" lon="-1.33074">
        <ele>59</ele>
        <time>2022-07-30T08:52:10Z</time>
      </trkpt>
      <trkpt lat="47.32497" lon="-1.33085">
        <ele>59</ele>
        <time>2022-07-30T08:52:12Z</time>
      </trkpt>
      <trkpt lat="47.32487" lon="-1.33096">
        <ele>59</ele>
        <time>2022-07-30T08:52:14Z</time>
      </trkpt>
      <trkpt lat="47.32477" lon="-1.33106">
        <ele>59</ele>
        <time>2022-07-30T08:52:16Z</time>
      </trkpt>
      <trkpt lat="47.32469" lon="-1.33115">
        <ele>58</ele>
        <time>2022-07-30T08:52:18Z</time>
      </trkpt>
      <trkpt lat="47.32461" lon="-1.33125">
        <ele>59</ele>
        <time>2022-07-30T08:52:20Z</time>
      </trkpt>
      <trkpt lat="47.32454" lon="-1.33134">
        <ele>58</ele>
        <time>2022-07-30T08:52:22Z</time>
      </trkpt>
      <trkpt lat="47.32445" lon="-1.33139">
        <ele>58</ele>
        <time>2022-07-30T08:52:25Z</time>
      </trkpt>
      <trkpt lat="47.32436" lon="-1.33141">
        <ele>58</ele>
        <time>2022-07-30T08:52:29Z</time>
      </trkpt>
      <trkpt lat="47.32426" lon="-1.33143">
        <ele>59</ele>
        <time>2022-07-30T08:52:36Z</time>
      </trkpt>
      <trkpt lat="47.32418" lon="-1.33151">
        <ele>59</ele>
        <time>2022-07-30T08:52:40Z</time>
      </trkpt>
      <trkpt lat="47.3241" lon="-1.33162">
        <ele>59</ele>
        <time>2022-07-30T08:52:43Z</time>
      </trkpt>
      <trkpt lat="47.32402" lon="-1.33173">
        <ele>59</ele>
        <time>2022-07-30T08:52:46Z</time>
      </trkpt>
      <trkpt lat="47.32394" lon="-1.33186">
        <ele>59</ele>
        <time>2022-07-30T08:52:49Z</time>
      </trkpt>
      <trkpt lat="47.32385" lon="-1.33201">
        <ele>58</ele>
        <time>2022-07-30T08:52:52Z</time>
      </trkpt>
      <trkpt lat="47.32376" lon="-1.33215">
        <ele>58</ele>
        <time>2022-07-30T08:52:55Z</time>
      </trkpt>
      <trkpt lat="47.3237" lon="-1.33226">
        <ele>58</ele>
        <time>2022-07-30T08:52:57Z</time>
      </trkpt>
      <trkpt lat="47.32364" lon="-1.33236">
        <ele>58</ele>
        <time>2022-07-30T08:52:59Z</time>
      </trkpt>
      <trkpt lat="47.32356" lon="-1.33251">
        <ele>58</ele>
        <time>2022-07-30T08:53:02Z</time>
      </trkpt>
      <trkpt lat="47.3235" lon="-1.33265">
        <ele>58</ele>
        <time>2022-07-30T08:53:04Z</time>
      </trkpt>
      <trkpt lat="47.32343" lon="-1.3328">
        <ele>58</ele>
        <time>2022-07-30T08:53:06Z</time>
      </trkpt>
      <trkpt lat="47.32336" lon="-1.33296">
        <ele>59</ele>
        <time>2022-07-30T08:53:08Z</time>
      </trkpt>
      <trkpt lat="47.32329" lon="-1.33312">
        <ele>59</ele>
        <time>2022-07-30T08:53:10Z</time>
      </trkpt>
      <trkpt lat="47.32322" lon="-1.33329">
        <ele>59</ele>
        <time>2022-07-30T08:53:12Z</time>
      </trkpt>
      <trkpt lat="47.32315" lon="-1.33346">
        <ele>60</ele>
        <time>2022-07-30T08:53:14Z</time>
      </trkpt>
      <trkpt lat="47.32307" lon="-1.33364">
        <ele>59</ele>
        <time>2022-07-30T08:53:16Z</time>
      </trkpt>
      <trkpt lat="47.323" lon="-1.33382">
        <ele>60</ele>
        <time>2022-07-30T08:53:18Z</time>
      </trkpt>
      <trkpt lat="47.32293" lon="-1.33401">
        <ele>59</ele>
        <time>2022-07-30T08:53:20Z</time>
      </trkpt>
      <trkpt lat="47.32285" lon="-1.33419">
        <ele>59</ele>
        <time>2022-07-30T08:53:22Z</time>
      </trkpt>
      <trkpt lat="47.32276" lon="-1.33437">
        <ele>58</ele>
        <time>2022-07-30T08:53:24Z</time>
      </trkpt>
      <trkpt lat="47.32268" lon="-1.33455">
        <ele>58</ele>
        <time>2022-07-30T08:53:26Z</time>
      </trkpt>
      <trkpt lat="47.3226" lon="-1.33475">
        <ele>57</ele>
        <time>2022-07-30T08:53:28Z</time>
      </trkpt>
      <trkpt lat="47.32251" lon="-1.33494">
        <ele>57</ele>
        <time>2022-07-30T08:53:30Z</time>
      </trkpt>
      <trkpt lat="47.32243" lon="-1.33512">
        <ele>56</ele>
        <time>2022-07-30T08:53:32Z</time>
      </trkpt>
      <trkpt lat="47.32234" lon="-1.33531">
        <ele>56</ele>
        <time>2022-07-30T08:53:34Z</time>
      </trkpt>
      <trkpt lat="47.32225" lon="-1.33549">
        <ele>55</ele>
        <time>2022-07-30T08:53:36Z</time>
      </trkpt>
      <trkpt lat="47.32217" lon="-1.33568">
        <ele>55</ele>
        <time>2022-07-30T08:53:38Z</time>
      </trkpt>
      <trkpt lat="47.32209" lon="-1.33587">
        <ele>55</ele>
        <time>2022-07-30T08:53:40Z</time>
      </trkpt>
      <trkpt lat="47.32202" lon="-1.33606">
        <ele>55</ele>
        <time>2022-07-30T08:53:42Z</time>
      </trkpt>
      <trkpt lat="47.32195" lon="-1.33622">
        <ele>55</ele>
        <time>2022-07-30T08:53:44Z</time>
      </trkpt>
      <trkpt lat="47.32188" lon="-1.33637">
        <ele>55</ele>
        <time>2022-07-30T08:53:46Z</time>
      </trkpt>
      <trkpt lat="47.32182" lon="-1.3365">
        <ele>56</ele>
        <time>2022-07-30T08:53:48Z</time>
      </trkpt>
      <trkpt lat="47.32176" lon="-1.33667">
        <ele>56</ele>
        <time>2022-07-30T08:53:50Z</time>
      </trkpt>
      <trkpt lat="47.32168" lon="-1.33684">
        <ele>56</ele>
        <time>2022-07-30T08:53:52Z</time>
      </trkpt>
      <trkpt lat="47.32163" lon="-1.33702">
        <ele>56</ele>
        <time>2022-07-30T08:53:54Z</time>
      </trkpt>
      <trkpt lat="47.32157" lon="-1.33719">
        <ele>56</ele>
        <time>2022-07-30T08:53:56Z</time>
      </trkpt>
      <trkpt lat="47.3215" lon="-1.33736">
        <ele>57</ele>
        <time>2022-07-30T08:53:58Z</time>
      </trkpt>
      <trkpt lat="47.32143" lon="-1.33753">
        <ele>57</ele>
        <time>2022-07-30T08:54:00Z</time>
      </trkpt>
      <trkpt lat="47.32136" lon="-1.3377">
        <ele>57</ele>
        <time>2022-07-30T08:54:02Z</time>
      </trkpt>
      <trkpt lat="47.32129" lon="-1.33786">
        <ele>57</ele>
        <time>2022-07-30T08:54:04Z</time>
      </trkpt>
      <trkpt lat="47.32122" lon="-1.33802">
        <ele>57</ele>
        <time>2022-07-30T08:54:06Z</time>
      </trkpt>
      <trkpt lat="47.32115" lon="-1.33817">
        <ele>57</ele>
        <time>2022-07-30T08:54:08Z</time>
      </trkpt>
      <trkpt lat="47.32107" lon="-1.33833">
        <ele>57</ele>
        <time>2022-07-30T08:54:10Z</time>
      </trkpt>
      <trkpt lat="47.321" lon="-1.33847">
        <ele>56</ele>
        <time>2022-07-30T08:54:12Z</time>
      </trkpt>
      <trkpt lat="47.32092" lon="-1.33862">
        <ele>56</ele>
        <time>2022-07-30T08:54:14Z</time>
      </trkpt>
      <trkpt lat="47.32085" lon="-1.33877">
        <ele>56</ele>
        <time>2022-07-30T08:54:16Z</time>
      </trkpt>
      <trkpt lat="47.32078" lon="-1.33891">
        <ele>56</ele>
        <time>2022-07-30T08:54:18Z</time>
      </trkpt>
      <trkpt lat="47.3207" lon="-1.33905">
        <ele>55</ele>
        <time>2022-07-30T08:54:20Z</time>
      </trkpt>
      <trkpt lat="47.32061" lon="-1.33919">
        <ele>55</ele>
        <time>2022-07-30T08:54:22Z</time>
      </trkpt>
      <trkpt lat="47.32054" lon="-1.33932">
        <ele>55</ele>
        <time>2022-07-30T08:54:24Z</time>
      </trkpt>
      <trkpt lat="47.32047" lon="-1.33944">
        <ele>55</ele>
        <time>2022-07-30T08:54:26Z</time>
      </trkpt>
      <trkpt lat="47.32041" lon="-1.33956">
        <ele>56</ele>
        <time>2022-07-30T08:54:28Z</time>
      </trkpt>
      <trkpt lat="47.32033" lon="-1.33971">
        <ele>57</ele>
        <time>2022-07-30T08:54:31Z</time>
      </trkpt>
      <trkpt lat="47.32026" lon="-1.33981">
        <ele>57</ele>
        <time>2022-07-30T08:54:33Z</time>
      </trkpt>
      <trkpt lat="47.32018" lon="-1.33992">
        <ele>57</ele>
        <time>2022-07-30T08:54:35Z</time>
      </trkpt>
      <trkpt lat="47.3201" lon="-1.34005">
        <ele>57</ele>
        <time>2022-07-30T08:54:37Z</time>
      </trkpt>
      <trkpt lat="47.32001" lon="-1.34019">
        <ele>58</ele>
        <time>2022-07-30T08:54:39Z</time>
      </trkpt>
      <trkpt lat="47.31993" lon="-1.34033">
        <ele>59</ele>
        <time>2022-07-30T08:54:41Z</time>
      </trkpt>
      <trkpt lat="47.31985" lon="-1.34046">
        <ele>59</ele>
        <time>2022-07-30T08:54:43Z</time>
      </trkpt>
      <trkpt lat="47.31976" lon="-1.34059">
        <ele>59</ele>
        <time>2022-07-30T08:54:45Z</time>
      </trkpt>
      <trkpt lat="47.31968" lon="-1.34072">
        <ele>59</ele>
        <time>2022-07-30T08:54:47Z</time>
      </trkpt>
      <trkpt lat="47.31959" lon="-1.34086">
        <ele>58</ele>
        <time>2022-07-30T08:54:49Z</time>
      </trkpt>
      <trkpt lat="47.3195" lon="-1.341">
        <ele>58</ele>
        <time>2022-07-30T08:54:51Z</time>
      </trkpt>
      <trkpt lat="47.31942" lon="-1.34113">
        <ele>59</ele>
        <time>2022-07-30T08:54:53Z</time>
      </trkpt>
      <trkpt lat="47.31934" lon="-1.34126">
        <ele>59</ele>
        <time>2022-07-30T08:54:55Z</time>
      </trkpt>
      <trkpt lat="47.31924" lon="-1.34139">
        <ele>58</ele>
        <time>2022-07-30T08:54:57Z</time>
      </trkpt>
      <trkpt lat="47.31915" lon="-1.34152">
        <ele>58</ele>
        <time>2022-07-30T08:54:59Z</time>
      </trkpt>
      <trkpt lat="47.31906" lon="-1.34165">
        <ele>59</ele>
        <time>2022-07-30T08:55:01Z</time>
      </trkpt>
      <trkpt lat="47.31897" lon="-1.34178">
        <ele>58</ele>
        <time>2022-07-30T08:55:03Z</time>
      </trkpt>
      <trkpt lat="47.31887" lon="-1.34193">
        <ele>58</ele>
        <time>2022-07-30T08:55:05Z</time>
      </trkpt>
      <trkpt lat="47.31877" lon="-1.34206">
        <ele>57</ele>
        <time>2022-07-30T08:55:07Z</time>
      </trkpt>
      <trkpt lat="47.31868" lon="-1.3422">
        <ele>57</ele>
        <time>2022-07-30T08:55:09Z</time>
      </trkpt>
      <trkpt lat="47.3186" lon="-1.34233">
        <ele>56</ele>
        <time>2022-07-30T08:55:11Z</time>
      </trkpt>
      <trkpt lat="47.31851" lon="-1.34247">
        <ele>56</ele>
        <time>2022-07-30T08:55:13Z</time>
      </trkpt>
      <trkpt lat="47.31842" lon="-1.34261">
        <ele>55</ele>
        <time>2022-07-30T08:55:15Z</time>
      </trkpt>
      <trkpt lat="47.31833" lon="-1.34276">
        <ele>54</ele>
        <time>2022-07-30T08:55:17Z</time>
      </trkpt>
      <trkpt lat="47.31824" lon="-1.3429">
        <ele>55</ele>
        <time>2022-07-30T08:55:19Z</time>
      </trkpt>
      <trkpt lat="47.31816" lon="-1.34303">
        <ele>55</ele>
        <time>2022-07-30T08:55:21Z</time>
      </trkpt>
      <trkpt lat="47.31808" lon="-1.34317">
        <ele>55</ele>
        <time>2022-07-30T08:55:23Z</time>
      </trkpt>
      <trkpt lat="47.31799" lon="-1.34331">
        <ele>55</ele>
        <time>2022-07-30T08:55:25Z</time>
      </trkpt>
      <trkpt lat="47.31789" lon="-1.34345">
        <ele>55</ele>
        <time>2022-07-30T08:55:27Z</time>
      </trkpt>
      <trkpt lat="47.31781" lon="-1.34359">
        <ele>55</ele>
        <time>2022-07-30T08:55:29Z</time>
      </trkpt>
      <trkpt lat="47.31772" lon="-1.34372">
        <ele>56</ele>
        <time>2022-07-30T08:55:31Z</time>
      </trkpt>
      <trkpt lat="47.31765" lon="-1.34384">
        <ele>56</ele>
        <time>2022-07-30T08:55:33Z</time>
      </trkpt>
      <trkpt lat="47.31758" lon="-1.34396">
        <ele>56</ele>
        <time>2022-07-30T08:55:35Z</time>
      </trkpt>
      <trkpt lat="47.31751" lon="-1.34408">
        <ele>55</ele>
        <time>2022-07-30T08:55:37Z</time>
      </trkpt>
      <trkpt lat="47.31743" lon="-1.34422">
        <ele>56</ele>
        <time>2022-07-30T08:55:39Z</time>
      </trkpt>
      <trkpt lat="47.31735" lon="-1.34435">
        <ele>55</ele>
        <time>2022-07-30T08:55:41Z</time>
      </trkpt>
      <trkpt lat="47.31727" lon="-1.34448">
        <ele>56</ele>
        <time>2022-07-30T08:55:43Z</time>
      </trkpt>
      <trkpt lat="47.31718" lon="-1.34462">
        <ele>56</ele>
        <time>2022-07-30T08:55:45Z</time>
      </trkpt>
      <trkpt lat="47.3171" lon="-1.34476">
        <ele>55</ele>
        <time>2022-07-30T08:55:47Z</time>
      </trkpt>
      <trkpt lat="47.31702" lon="-1.3449">
        <ele>55</ele>
        <time>2022-07-30T08:55:49Z</time>
      </trkpt>
      <trkpt lat="47.31693" lon="-1.34503">
        <ele>55</ele>
        <time>2022-07-30T08:55:51Z</time>
      </trkpt>
      <trkpt lat="47.31684" lon="-1.34517">
        <ele>55</ele>
        <time>2022-07-30T08:55:53Z</time>
      </trkpt>
      <trkpt lat="47.31675" lon="-1.3453">
        <ele>54</ele>
        <time>2022-07-30T08:55:55Z</time>
      </trkpt>
      <trkpt lat="47.31666" lon="-1.34543">
        <ele>55</ele>
        <time>2022-07-30T08:55:57Z</time>
      </trkpt>
      <trkpt lat="47.31658" lon="-1.34558">
        <ele>54</ele>
        <time>2022-07-30T08:55:59Z</time>
      </trkpt>
      <trkpt lat="47.3165" lon="-1.34571">
        <ele>54</ele>
        <time>2022-07-30T08:56:01Z</time>
      </trkpt>
      <trkpt lat="47.31642" lon="-1.34585">
        <ele>54</ele>
        <time>2022-07-30T08:56:03Z</time>
      </trkpt>
      <trkpt lat="47.31634" lon="-1.34597">
        <ele>55</ele>
        <time>2022-07-30T08:56:05Z</time>
      </trkpt>
      <trkpt lat="47.31626" lon="-1.34611">
        <ele>55</ele>
        <time>2022-07-30T08:56:07Z</time>
      </trkpt>
      <trkpt lat="47.31617" lon="-1.34624">
        <ele>55</ele>
        <time>2022-07-30T08:56:09Z</time>
      </trkpt>
      <trkpt lat="47.31609" lon="-1.34636">
        <ele>55</ele>
        <time>2022-07-30T08:56:11Z</time>
      </trkpt>
      <trkpt lat="47.31601" lon="-1.34649">
        <ele>54</ele>
        <time>2022-07-30T08:56:13Z</time>
      </trkpt>
      <trkpt lat="47.31593" lon="-1.34662">
        <ele>54</ele>
        <time>2022-07-30T08:56:15Z</time>
      </trkpt>
      <trkpt lat="47.31585" lon="-1.34675">
        <ele>54</ele>
        <time>2022-07-30T08:56:17Z</time>
      </trkpt>
      <trkpt lat="47.31577" lon="-1.34687">
        <ele>54</ele>
        <time>2022-07-30T08:56:19Z</time>
      </trkpt>
      <trkpt lat="47.31568" lon="-1.347">
        <ele>54</ele>
        <time>2022-07-30T08:56:21Z</time>
      </trkpt>
      <trkpt lat="47.3156" lon="-1.34713">
        <ele>54</ele>
        <time>2022-07-30T08:56:23Z</time>
      </trkpt>
      <trkpt lat="47.31551" lon="-1.34727">
        <ele>55</ele>
        <time>2022-07-30T08:56:25Z</time>
      </trkpt>
      <trkpt lat="47.31541" lon="-1.34741">
        <ele>55</ele>
        <time>2022-07-30T08:56:27Z</time>
      </trkpt>
      <trkpt lat="47.31533" lon="-1.34754">
        <ele>55</ele>
        <time>2022-07-30T08:56:29Z</time>
      </trkpt>
      <trkpt lat="47.31524" lon="-1.34768">
        <ele>55</ele>
        <time>2022-07-30T08:56:31Z</time>
      </trkpt>
      <trkpt lat="47.31516" lon="-1.34782">
        <ele>55</ele>
        <time>2022-07-30T08:56:33Z</time>
      </trkpt>
      <trkpt lat="47.31508" lon="-1.34795">
        <ele>56</ele>
        <time>2022-07-30T08:56:35Z</time>
      </trkpt>
      <trkpt lat="47.31499" lon="-1.34808">
        <ele>56</ele>
        <time>2022-07-30T08:56:37Z</time>
      </trkpt>
      <trkpt lat="47.31491" lon="-1.34822">
        <ele>56</ele>
        <time>2022-07-30T08:56:39Z</time>
      </trkpt>
      <trkpt lat="47.31483" lon="-1.34835">
        <ele>56</ele>
        <time>2022-07-30T08:56:41Z</time>
      </trkpt>
      <trkpt lat="47.31474" lon="-1.34849">
        <ele>56</ele>
        <time>2022-07-30T08:56:43Z</time>
      </trkpt>
      <trkpt lat="47.31465" lon="-1.34862">
        <ele>57</ele>
        <time>2022-07-30T08:56:45Z</time>
      </trkpt>
      <trkpt lat="47.31457" lon="-1.34875">
        <ele>56</ele>
        <time>2022-07-30T08:56:47Z</time>
      </trkpt>
      <trkpt lat="47.3145" lon="-1.34888">
        <ele>56</ele>
        <time>2022-07-30T08:56:49Z</time>
      </trkpt>
      <trkpt lat="47.31441" lon="-1.34902">
        <ele>56</ele>
        <time>2022-07-30T08:56:51Z</time>
      </trkpt>
      <trkpt lat="47.31433" lon="-1.34915">
        <ele>56</ele>
        <time>2022-07-30T08:56:53Z</time>
      </trkpt>
      <trkpt lat="47.31424" lon="-1.34928">
        <ele>56</ele>
        <time>2022-07-30T08:56:55Z</time>
      </trkpt>
      <trkpt lat="47.31416" lon="-1.34941">
        <ele>56</ele>
        <time>2022-07-30T08:56:57Z</time>
      </trkpt>
      <trkpt lat="47.31408" lon="-1.34955">
        <ele>56</ele>
        <time>2022-07-30T08:56:59Z</time>
      </trkpt>
      <trkpt lat="47.31399" lon="-1.34969">
        <ele>56</ele>
        <time>2022-07-30T08:57:01Z</time>
      </trkpt>
      <trkpt lat="47.31391" lon="-1.34982">
        <ele>55</ele>
        <time>2022-07-30T08:57:03Z</time>
      </trkpt>
      <trkpt lat="47.31383" lon="-1.34996">
        <ele>55</ele>
        <time>2022-07-30T08:57:05Z</time>
      </trkpt>
      <trkpt lat="47.31374" lon="-1.3501">
        <ele>55</ele>
        <time>2022-07-30T08:57:07Z</time>
      </trkpt>
      <trkpt lat="47.31366" lon="-1.35024">
        <ele>55</ele>
        <time>2022-07-30T08:57:09Z</time>
      </trkpt>
      <trkpt lat="47.31358" lon="-1.35037">
        <ele>55</ele>
        <time>2022-07-30T08:57:11Z</time>
      </trkpt>
      <trkpt lat="47.3135" lon="-1.35051">
        <ele>55</ele>
        <time>2022-07-30T08:57:13Z</time>
      </trkpt>
      <trkpt lat="47.31341" lon="-1.35063">
        <ele>56</ele>
        <time>2022-07-30T08:57:15Z</time>
      </trkpt>
      <trkpt lat="47.31333" lon="-1.35074">
        <ele>55</ele>
        <time>2022-07-30T08:57:17Z</time>
      </trkpt>
      <trkpt lat="47.31324" lon="-1.35083">
        <ele>55</ele>
        <time>2022-07-30T08:57:19Z</time>
      </trkpt>
      <trkpt lat="47.31313" lon="-1.35086">
        <ele>55</ele>
        <time>2022-07-30T08:57:21Z</time>
      </trkpt>
      <trkpt lat="47.31303" lon="-1.35097">
        <ele>54</ele>
        <time>2022-07-30T08:57:23Z</time>
      </trkpt>
      <trkpt lat="47.31296" lon="-1.35109">
        <ele>54</ele>
        <time>2022-07-30T08:57:25Z</time>
      </trkpt>
      <trkpt lat="47.31291" lon="-1.35121">
        <ele>55</ele>
        <time>2022-07-30T08:57:27Z</time>
      </trkpt>
      <trkpt lat="47.31285" lon="-1.35135">
        <ele>55</ele>
        <time>2022-07-30T08:57:29Z</time>
      </trkpt>
      <trkpt lat="47.31278" lon="-1.35149">
        <ele>55</ele>
        <time>2022-07-30T08:57:31Z</time>
      </trkpt>
      <trkpt lat="47.3127" lon="-1.35164">
        <ele>56</ele>
        <time>2022-07-30T08:57:33Z</time>
      </trkpt>
      <trkpt lat="47.31262" lon="-1.35178">
        <ele>56</ele>
        <time>2022-07-30T08:57:35Z</time>
      </trkpt>
      <trkpt lat="47.31254" lon="-1.35192">
        <ele>56</ele>
        <time>2022-07-30T08:57:37Z</time>
      </trkpt>
      <trkpt lat="47.31246" lon="-1.35205">
        <ele>57</ele>
        <time>2022-07-30T08:57:39Z</time>
      </trkpt>
      <trkpt lat="47.31238" lon="-1.35217">
        <ele>57</ele>
        <time>2022-07-30T08:57:41Z</time>
      </trkpt>
      <trkpt lat="47.31229" lon="-1.3523">
        <ele>56</ele>
        <time>2022-07-30T08:57:43Z</time>
      </trkpt>
      <trkpt lat="47.31221" lon="-1.35243">
        <ele>57</ele>
        <time>2022-07-30T08:57:45Z</time>
      </trkpt>
      <trkpt lat="47.31213" lon="-1.35256">
        <ele>57</ele>
        <time>2022-07-30T08:57:47Z</time>
      </trkpt>
      <trkpt lat="47.31206" lon="-1.35269">
        <ele>58</ele>
        <time>2022-07-30T08:57:49Z</time>
      </trkpt>
      <trkpt lat="47.31199" lon="-1.35282">
        <ele>58</ele>
        <time>2022-07-30T08:57:51Z</time>
      </trkpt>
      <trkpt lat="47.31191" lon="-1.35295">
        <ele>58</ele>
        <time>2022-07-30T08:57:53Z</time>
      </trkpt>
      <trkpt lat="47.31183" lon="-1.35308">
        <ele>58</ele>
        <time>2022-07-30T08:57:55Z</time>
      </trkpt>
      <trkpt lat="47.31175" lon="-1.35321">
        <ele>58</ele>
        <time>2022-07-30T08:57:57Z</time>
      </trkpt>
      <trkpt lat="47.31167" lon="-1.35335">
        <ele>58</ele>
        <time>2022-07-30T08:57:59Z</time>
      </trkpt>
      <trkpt lat="47.31158" lon="-1.35348">
        <ele>58</ele>
        <time>2022-07-30T08:58:01Z</time>
      </trkpt>
      <trkpt lat="47.31151" lon="-1.35361">
        <ele>58</ele>
        <time>2022-07-30T08:58:03Z</time>
      </trkpt>
      <trkpt lat="47.31142" lon="-1.35374">
        <ele>58</ele>
        <time>2022-07-30T08:58:05Z</time>
      </trkpt>
      <trkpt lat="47.31133" lon="-1.35386">
        <ele>58</ele>
        <time>2022-07-30T08:58:07Z</time>
      </trkpt>
      <trkpt lat="47.31124" lon="-1.35398">
        <ele>58</ele>
        <time>2022-07-30T08:58:09Z</time>
      </trkpt>
      <trkpt lat="47.31116" lon="-1.35411">
        <ele>58</ele>
        <time>2022-07-30T08:58:11Z</time>
      </trkpt>
      <trkpt lat="47.31107" lon="-1.35423">
        <ele>59</ele>
        <time>2022-07-30T08:58:13Z</time>
      </trkpt>
      <trkpt lat="47.31099" lon="-1.35436">
        <ele>58</ele>
        <time>2022-07-30T08:58:15Z</time>
      </trkpt>
      <trkpt lat="47.3109" lon="-1.35447">
        <ele>58</ele>
        <time>2022-07-30T08:58:17Z</time>
      </trkpt>
      <trkpt lat="47.31081" lon="-1.35459">
        <ele>58</ele>
        <time>2022-07-30T08:58:19Z</time>
      </trkpt>
      <trkpt lat="47.31072" lon="-1.35471">
        <ele>59</ele>
        <time>2022-07-30T08:58:21Z</time>
      </trkpt>
      <trkpt lat="47.31063" lon="-1.35482">
        <ele>59</ele>
        <time>2022-07-30T08:58:23Z</time>
      </trkpt>
      <trkpt lat="47.31054" lon="-1.35492">
        <ele>59</ele>
        <time>2022-07-30T08:58:25Z</time>
      </trkpt>
      <trkpt lat="47.31045" lon="-1.35504">
        <ele>59</ele>
        <time>2022-07-30T08:58:27Z</time>
      </trkpt>
      <trkpt lat="47.31035" lon="-1.35515">
        <ele>60</ele>
        <time>2022-07-30T08:58:29Z</time>
      </trkpt>
      <trkpt lat="47.31026" lon="-1.35526">
        <ele>60</ele>
        <time>2022-07-30T08:58:31Z</time>
      </trkpt>
      <trkpt lat="47.31017" lon="-1.35537">
        <ele>59</ele>
        <time>2022-07-30T08:58:33Z</time>
      </trkpt>
      <trkpt lat="47.31006" lon="-1.35548">
        <ele>59</ele>
        <time>2022-07-30T08:58:35Z</time>
      </trkpt>
      <trkpt lat="47.30996" lon="-1.35559">
        <ele>59</ele>
        <time>2022-07-30T08:58:37Z</time>
      </trkpt>
      <trkpt lat="47.30985" lon="-1.35571">
        <ele>58</ele>
        <time>2022-07-30T08:58:39Z</time>
      </trkpt>
      <trkpt lat="47.30976" lon="-1.35582">
        <ele>57</ele>
        <time>2022-07-30T08:58:41Z</time>
      </trkpt>
      <trkpt lat="47.30966" lon="-1.35593">
        <ele>58</ele>
        <time>2022-07-30T08:58:43Z</time>
      </trkpt>
      <trkpt lat="47.30957" lon="-1.35604">
        <ele>58</ele>
        <time>2022-07-30T08:58:45Z</time>
      </trkpt>
      <trkpt lat="47.30947" lon="-1.35615">
        <ele>58</ele>
        <time>2022-07-30T08:58:47Z</time>
      </trkpt>
      <trkpt lat="47.30938" lon="-1.35627">
        <ele>58</ele>
        <time>2022-07-30T08:58:49Z</time>
      </trkpt>
      <trkpt lat="47.30928" lon="-1.35637">
        <ele>58</ele>
        <time>2022-07-30T08:58:51Z</time>
      </trkpt>
      <trkpt lat="47.30918" lon="-1.35649">
        <ele>58</ele>
        <time>2022-07-30T08:58:53Z</time>
      </trkpt>
      <trkpt lat="47.30909" lon="-1.3566">
        <ele>59</ele>
        <time>2022-07-30T08:58:55Z</time>
      </trkpt>
      <trkpt lat="47.309" lon="-1.35671">
        <ele>58</ele>
        <time>2022-07-30T08:58:57Z</time>
      </trkpt>
      <trkpt lat="47.3089" lon="-1.35682">
        <ele>58</ele>
        <time>2022-07-30T08:58:59Z</time>
      </trkpt>
      <trkpt lat="47.3088" lon="-1.35694">
        <ele>58</ele>
        <time>2022-07-30T08:59:01Z</time>
      </trkpt>
      <trkpt lat="47.3087" lon="-1.35706">
        <ele>58</ele>
        <time>2022-07-30T08:59:03Z</time>
      </trkpt>
      <trkpt lat="47.30861" lon="-1.35718">
        <ele>58</ele>
        <time>2022-07-30T08:59:05Z</time>
      </trkpt>
      <trkpt lat="47.30851" lon="-1.35729">
        <ele>58</ele>
        <time>2022-07-30T08:59:07Z</time>
      </trkpt>
      <trkpt lat="47.30843" lon="-1.3574">
        <ele>58</ele>
        <time>2022-07-30T08:59:09Z</time>
      </trkpt>
      <trkpt lat="47.30832" lon="-1.35752">
        <ele>58</ele>
        <time>2022-07-30T08:59:11Z</time>
      </trkpt>
      <trkpt lat="47.30821" lon="-1.35763">
        <ele>58</ele>
        <time>2022-07-30T08:59:13Z</time>
      </trkpt>
      <trkpt lat="47.30811" lon="-1.35775">
        <ele>59</ele>
        <time>2022-07-30T08:59:15Z</time>
      </trkpt>
      <trkpt lat="47.30802" lon="-1.35787">
        <ele>59</ele>
        <time>2022-07-30T08:59:17Z</time>
      </trkpt>
      <trkpt lat="47.30792" lon="-1.35798">
        <ele>59</ele>
        <time>2022-07-30T08:59:19Z</time>
      </trkpt>
      <trkpt lat="47.30782" lon="-1.3581">
        <ele>58</ele>
        <time>2022-07-30T08:59:21Z</time>
      </trkpt>
      <trkpt lat="47.30771" lon="-1.35822">
        <ele>58</ele>
        <time>2022-07-30T08:59:23Z</time>
      </trkpt>
      <trkpt lat="47.30762" lon="-1.35834">
        <ele>58</ele>
        <time>2022-07-30T08:59:25Z</time>
      </trkpt>
      <trkpt lat="47.30752" lon="-1.35844">
        <ele>58</ele>
        <time>2022-07-30T08:59:27Z</time>
      </trkpt>
      <trkpt lat="47.30743" lon="-1.35856">
        <ele>58</ele>
        <time>2022-07-30T08:59:29Z</time>
      </trkpt>
      <trkpt lat="47.30734" lon="-1.35868">
        <ele>58</ele>
        <time>2022-07-30T08:59:31Z</time>
      </trkpt>
      <trkpt lat="47.30724" lon="-1.35878">
        <ele>57</ele>
        <time>2022-07-30T08:59:33Z</time>
      </trkpt>
      <trkpt lat="47.30715" lon="-1.35889">
        <ele>57</ele>
        <time>2022-07-30T08:59:35Z</time>
      </trkpt>
      <trkpt lat="47.30705" lon="-1.359">
        <ele>57</ele>
        <time>2022-07-30T08:59:37Z</time>
      </trkpt>
      <trkpt lat="47.30695" lon="-1.35911">
        <ele>57</ele>
        <time>2022-07-30T08:59:39Z</time>
      </trkpt>
      <trkpt lat="47.30685" lon="-1.35923">
        <ele>57</ele>
        <time>2022-07-30T08:59:41Z</time>
      </trkpt>
      <trkpt lat="47.30676" lon="-1.35934">
        <ele>57</ele>
        <time>2022-07-30T08:59:43Z</time>
      </trkpt>
      <trkpt lat="47.30666" lon="-1.35945">
        <ele>57</ele>
        <time>2022-07-30T08:59:45Z</time>
      </trkpt>
      <trkpt lat="47.30657" lon="-1.35957">
        <ele>57</ele>
        <time>2022-07-30T08:59:47Z</time>
      </trkpt>
      <trkpt lat="47.30646" lon="-1.35969">
        <ele>57</ele>
        <time>2022-07-30T08:59:49Z</time>
      </trkpt>
      <trkpt lat="47.30636" lon="-1.3598">
        <ele>57</ele>
        <time>2022-07-30T08:59:51Z</time>
      </trkpt>
      <trkpt lat="47.30627" lon="-1.35992">
        <ele>57</ele>
        <time>2022-07-30T08:59:53Z</time>
      </trkpt>
      <trkpt lat="47.30615" lon="-1.36003">
        <ele>56</ele>
        <time>2022-07-30T08:59:55Z</time>
      </trkpt>
      <trkpt lat="47.30605" lon="-1.36013">
        <ele>55</ele>
        <time>2022-07-30T08:59:57Z</time>
      </trkpt>
      <trkpt lat="47.30596" lon="-1.36022">
        <ele>55</ele>
        <time>2022-07-30T08:59:59Z</time>
      </trkpt>
      <trkpt lat="47.30589" lon="-1.3604">
        <ele>55</ele>
        <time>2022-07-30T09:00:03Z</time>
      </trkpt>
      <trkpt lat="47.30584" lon="-1.36053">
        <ele>55</ele>
        <time>2022-07-30T09:00:06Z</time>
      </trkpt>
      <trkpt lat="47.30575" lon="-1.36065">
        <ele>55</ele>
        <time>2022-07-30T09:00:08Z</time>
      </trkpt>
      <trkpt lat="47.30563" lon="-1.36079">
        <ele>55</ele>
        <time>2022-07-30T09:00:10Z</time>
      </trkpt>
      <trkpt lat="47.30552" lon="-1.36092">
        <ele>54</ele>
        <time>2022-07-30T09:00:12Z</time>
      </trkpt>
      <trkpt lat="47.30539" lon="-1.36112">
        <ele>55</ele>
        <time>2022-07-30T09:00:15Z</time>
      </trkpt>
      <trkpt lat="47.30532" lon="-1.36125">
        <ele>55</ele>
        <time>2022-07-30T09:00:17Z</time>
      </trkpt>
      <trkpt lat="47.30524" lon="-1.36137">
        <ele>55</ele>
        <time>2022-07-30T09:00:19Z</time>
      </trkpt>
      <trkpt lat="47.30517" lon="-1.36151">
        <ele>55</ele>
        <time>2022-07-30T09:00:21Z</time>
      </trkpt>
      <trkpt lat="47.30505" lon="-1.36172">
        <ele>55</ele>
        <time>2022-07-30T09:00:24Z</time>
      </trkpt>
      <trkpt lat="47.30496" lon="-1.36187">
        <ele>55</ele>
        <time>2022-07-30T09:00:26Z</time>
      </trkpt>
      <trkpt lat="47.30483" lon="-1.3621">
        <ele>54</ele>
        <time>2022-07-30T09:00:29Z</time>
      </trkpt>
      <trkpt lat="47.30476" lon="-1.36224">
        <ele>53</ele>
        <time>2022-07-30T09:00:31Z</time>
      </trkpt>
      <trkpt lat="47.30465" lon="-1.36247">
        <ele>53</ele>
        <time>2022-07-30T09:00:34Z</time>
      </trkpt>
      <trkpt lat="47.30459" lon="-1.36261">
        <ele>54</ele>
        <time>2022-07-30T09:00:36Z</time>
      </trkpt>
      <trkpt lat="47.30452" lon="-1.36276">
        <ele>55</ele>
        <time>2022-07-30T09:00:38Z</time>
      </trkpt>
      <trkpt lat="47.30445" lon="-1.36291">
        <ele>55</ele>
        <time>2022-07-30T09:00:40Z</time>
      </trkpt>
      <trkpt lat="47.30437" lon="-1.36305">
        <ele>54</ele>
        <time>2022-07-30T09:00:42Z</time>
      </trkpt>
      <trkpt lat="47.30431" lon="-1.3632">
        <ele>54</ele>
        <time>2022-07-30T09:00:44Z</time>
      </trkpt>
      <trkpt lat="47.30424" lon="-1.36335">
        <ele>54</ele>
        <time>2022-07-30T09:00:46Z</time>
      </trkpt>
      <trkpt lat="47.30417" lon="-1.36349">
        <ele>54</ele>
        <time>2022-07-30T09:00:48Z</time>
      </trkpt>
      <trkpt lat="47.30409" lon="-1.36364">
        <ele>54</ele>
        <time>2022-07-30T09:00:50Z</time>
      </trkpt>
      <trkpt lat="47.30402" lon="-1.36379">
        <ele>55</ele>
        <time>2022-07-30T09:00:52Z</time>
      </trkpt>
      <trkpt lat="47.30395" lon="-1.36394">
        <ele>55</ele>
        <time>2022-07-30T09:00:54Z</time>
      </trkpt>
      <trkpt lat="47.30387" lon="-1.3641">
        <ele>55</ele>
        <time>2022-07-30T09:00:56Z</time>
      </trkpt>
      <trkpt lat="47.30381" lon="-1.36425">
        <ele>54</ele>
        <time>2022-07-30T09:00:58Z</time>
      </trkpt>
      <trkpt lat="47.30373" lon="-1.3644">
        <ele>54</ele>
        <time>2022-07-30T09:01:00Z</time>
      </trkpt>
      <trkpt lat="47.30366" lon="-1.36455">
        <ele>55</ele>
        <time>2022-07-30T09:01:02Z</time>
      </trkpt>
      <trkpt lat="47.30358" lon="-1.3647">
        <ele>54</ele>
        <time>2022-07-30T09:01:04Z</time>
      </trkpt>
      <trkpt lat="47.3035" lon="-1.36486">
        <ele>54</ele>
        <time>2022-07-30T09:01:06Z</time>
      </trkpt>
      <trkpt lat="47.30343" lon="-1.36502">
        <ele>54</ele>
        <time>2022-07-30T09:01:08Z</time>
      </trkpt>
      <trkpt lat="47.30335" lon="-1.36517">
        <ele>54</ele>
        <time>2022-07-30T09:01:10Z</time>
      </trkpt>
      <trkpt lat="47.30328" lon="-1.36532">
        <ele>54</ele>
        <time>2022-07-30T09:01:12Z</time>
      </trkpt>
      <trkpt lat="47.30321" lon="-1.36547">
        <ele>54</ele>
        <time>2022-07-30T09:01:14Z</time>
      </trkpt>
      <trkpt lat="47.30314" lon="-1.36561">
        <ele>54</ele>
        <time>2022-07-30T09:01:16Z</time>
      </trkpt>
      <trkpt lat="47.30306" lon="-1.36576">
        <ele>53</ele>
        <time>2022-07-30T09:01:18Z</time>
      </trkpt>
      <trkpt lat="47.30299" lon="-1.36592">
        <ele>54</ele>
        <time>2022-07-30T09:01:20Z</time>
      </trkpt>
      <trkpt lat="47.30292" lon="-1.36606">
        <ele>54</ele>
        <time>2022-07-30T09:01:22Z</time>
      </trkpt>
      <trkpt lat="47.30286" lon="-1.3662">
        <ele>54</ele>
        <time>2022-07-30T09:01:24Z</time>
      </trkpt>
      <trkpt lat="47.30278" lon="-1.36635">
        <ele>54</ele>
        <time>2022-07-30T09:01:26Z</time>
      </trkpt>
      <trkpt lat="47.30271" lon="-1.3665">
        <ele>53</ele>
        <time>2022-07-30T09:01:28Z</time>
      </trkpt>
      <trkpt lat="47.30263" lon="-1.36666">
        <ele>54</ele>
        <time>2022-07-30T09:01:30Z</time>
      </trkpt>
      <trkpt lat="47.30255" lon="-1.36681">
        <ele>54</ele>
        <time>2022-07-30T09:01:32Z</time>
      </trkpt>
      <trkpt lat="47.30248" lon="-1.36695">
        <ele>54</ele>
        <time>2022-07-30T09:01:34Z</time>
      </trkpt>
      <trkpt lat="47.3024" lon="-1.3671">
        <ele>53</ele>
        <time>2022-07-30T09:01:36Z</time>
      </trkpt>
      <trkpt lat="47.30233" lon="-1.36725">
        <ele>54</ele>
        <time>2022-07-30T09:01:38Z</time>
      </trkpt>
      <trkpt lat="47.30226" lon="-1.3674">
        <ele>54</ele>
        <time>2022-07-30T09:01:40Z</time>
      </trkpt>
      <trkpt lat="47.30218" lon="-1.36755">
        <ele>55</ele>
        <time>2022-07-30T09:01:42Z</time>
      </trkpt>
      <trkpt lat="47.30212" lon="-1.36769">
        <ele>56</ele>
        <time>2022-07-30T09:01:44Z</time>
      </trkpt>
      <trkpt lat="47.30205" lon="-1.36783">
        <ele>56</ele>
        <time>2022-07-30T09:01:46Z</time>
      </trkpt>
      <trkpt lat="47.30198" lon="-1.36798">
        <ele>56</ele>
        <time>2022-07-30T09:01:48Z</time>
      </trkpt>
      <trkpt lat="47.30191" lon="-1.36811">
        <ele>57</ele>
        <time>2022-07-30T09:01:50Z</time>
      </trkpt>
      <trkpt lat="47.30184" lon="-1.36826">
        <ele>57</ele>
        <time>2022-07-30T09:01:52Z</time>
      </trkpt>
      <trkpt lat="47.30178" lon="-1.36841">
        <ele>57</ele>
        <time>2022-07-30T09:01:54Z</time>
      </trkpt>
      <trkpt lat="47.30171" lon="-1.36856">
        <ele>57</ele>
        <time>2022-07-30T09:01:56Z</time>
      </trkpt>
      <trkpt lat="47.30164" lon="-1.36871">
        <ele>57</ele>
        <time>2022-07-30T09:01:58Z</time>
      </trkpt>
      <trkpt lat="47.30156" lon="-1.36886">
        <ele>56</ele>
        <time>2022-07-30T09:02:00Z</time>
      </trkpt>
      <trkpt lat="47.30148" lon="-1.36901">
        <ele>56</ele>
        <time>2022-07-30T09:02:02Z</time>
      </trkpt>
      <trkpt lat="47.3014" lon="-1.36916">
        <ele>56</ele>
        <time>2022-07-30T09:02:04Z</time>
      </trkpt>
      <trkpt lat="47.30133" lon="-1.36931">
        <ele>56</ele>
        <time>2022-07-30T09:02:06Z</time>
      </trkpt>
      <trkpt lat="47.30125" lon="-1.36945">
        <ele>56</ele>
        <time>2022-07-30T09:02:08Z</time>
      </trkpt>
      <trkpt lat="47.3012" lon="-1.36961">
        <ele>57</ele>
        <time>2022-07-30T09:02:10Z</time>
      </trkpt>
      <trkpt lat="47.30114" lon="-1.36976">
        <ele>57</ele>
        <time>2022-07-30T09:02:12Z</time>
      </trkpt>
      <trkpt lat="47.30107" lon="-1.3699">
        <ele>57</ele>
        <time>2022-07-30T09:02:14Z</time>
      </trkpt>
      <trkpt lat="47.301" lon="-1.37003">
        <ele>58</ele>
        <time>2022-07-30T09:02:16Z</time>
      </trkpt>
      <trkpt lat="47.30093" lon="-1.37017">
        <ele>58</ele>
        <time>2022-07-30T09:02:18Z</time>
      </trkpt>
      <trkpt lat="47.30086" lon="-1.37032">
        <ele>58</ele>
        <time>2022-07-30T09:02:20Z</time>
      </trkpt>
      <trkpt lat="47.30079" lon="-1.37045">
        <ele>58</ele>
        <time>2022-07-30T09:02:22Z</time>
      </trkpt>
      <trkpt lat="47.30071" lon="-1.37059">
        <ele>58</ele>
        <time>2022-07-30T09:02:24Z</time>
      </trkpt>
      <trkpt lat="47.30064" lon="-1.37072">
        <ele>59</ele>
        <time>2022-07-30T09:02:26Z</time>
      </trkpt>
      <trkpt lat="47.30056" lon="-1.37086">
        <ele>58</ele>
        <time>2022-07-30T09:02:28Z</time>
      </trkpt>
      <trkpt lat="47.30047" lon="-1.37099">
        <ele>58</ele>
        <time>2022-07-30T09:02:30Z</time>
      </trkpt>
      <trkpt lat="47.3004" lon="-1.37112">
        <ele>59</ele>
        <time>2022-07-30T09:02:32Z</time>
      </trkpt>
      <trkpt lat="47.30032" lon="-1.37125">
        <ele>59</ele>
        <time>2022-07-30T09:02:34Z</time>
      </trkpt>
      <trkpt lat="47.30024" lon="-1.37138">
        <ele>59</ele>
        <time>2022-07-30T09:02:36Z</time>
      </trkpt>
      <trkpt lat="47.30015" lon="-1.37151">
        <ele>59</ele>
        <time>2022-07-30T09:02:38Z</time>
      </trkpt>
      <trkpt lat="47.30006" lon="-1.37164">
        <ele>59</ele>
        <time>2022-07-30T09:02:40Z</time>
      </trkpt>
      <trkpt lat="47.29998" lon="-1.37177">
        <ele>59</ele>
        <time>2022-07-30T09:02:42Z</time>
      </trkpt>
      <trkpt lat="47.29989" lon="-1.3719">
        <ele>58</ele>
        <time>2022-07-30T09:02:44Z</time>
      </trkpt>
      <trkpt lat="47.29981" lon="-1.37203">
        <ele>58</ele>
        <time>2022-07-30T09:02:46Z</time>
      </trkpt>
      <trkpt lat="47.29973" lon="-1.37216">
        <ele>59</ele>
        <time>2022-07-30T09:02:48Z</time>
      </trkpt>
      <trkpt lat="47.29964" lon="-1.37228">
        <ele>59</ele>
        <time>2022-07-30T09:02:50Z</time>
      </trkpt>
      <trkpt lat="47.29956" lon="-1.37242">
        <ele>59</ele>
        <time>2022-07-30T09:02:52Z</time>
      </trkpt>
      <trkpt lat="47.29947" lon="-1.37255">
        <ele>58</ele>
        <time>2022-07-30T09:02:54Z</time>
      </trkpt>
      <trkpt lat="47.29938" lon="-1.37268">
        <ele>58</ele>
        <time>2022-07-30T09:02:56Z</time>
      </trkpt>
      <trkpt lat="47.29929" lon="-1.37281">
        <ele>58</ele>
        <time>2022-07-30T09:02:58Z</time>
      </trkpt>
      <trkpt lat="47.29921" lon="-1.37294">
        <ele>58</ele>
        <time>2022-07-30T09:03:00Z</time>
      </trkpt>
      <trkpt lat="47.29913" lon="-1.37307">
        <ele>58</ele>
        <time>2022-07-30T09:03:02Z</time>
      </trkpt>
      <trkpt lat="47.29905" lon="-1.37321">
        <ele>58</ele>
        <time>2022-07-30T09:03:04Z</time>
      </trkpt>
      <trkpt lat="47.29897" lon="-1.37334">
        <ele>59</ele>
        <time>2022-07-30T09:03:06Z</time>
      </trkpt>
      <trkpt lat="47.29888" lon="-1.37346">
        <ele>58</ele>
        <time>2022-07-30T09:03:08Z</time>
      </trkpt>
      <trkpt lat="47.29879" lon="-1.37359">
        <ele>58</ele>
        <time>2022-07-30T09:03:10Z</time>
      </trkpt>
      <trkpt lat="47.29871" lon="-1.37373">
        <ele>58</ele>
        <time>2022-07-30T09:03:12Z</time>
      </trkpt>
      <trkpt lat="47.29863" lon="-1.37385">
        <ele>58</ele>
        <time>2022-07-30T09:03:14Z</time>
      </trkpt>
      <trkpt lat="47.29854" lon="-1.37398">
        <ele>58</ele>
        <time>2022-07-30T09:03:16Z</time>
      </trkpt>
      <trkpt lat="47.29846" lon="-1.37411">
        <ele>58</ele>
        <time>2022-07-30T09:03:18Z</time>
      </trkpt>
      <trkpt lat="47.29838" lon="-1.37423">
        <ele>58</ele>
        <time>2022-07-30T09:03:20Z</time>
      </trkpt>
      <trkpt lat="47.2983" lon="-1.37436">
        <ele>58</ele>
        <time>2022-07-30T09:03:22Z</time>
      </trkpt>
      <trkpt lat="47.29822" lon="-1.37448">
        <ele>59</ele>
        <time>2022-07-30T09:03:24Z</time>
      </trkpt>
      <trkpt lat="47.29814" lon="-1.37461">
        <ele>59</ele>
        <time>2022-07-30T09:03:26Z</time>
      </trkpt>
      <trkpt lat="47.29807" lon="-1.37473">
        <ele>59</ele>
        <time>2022-07-30T09:03:28Z</time>
      </trkpt>
      <trkpt lat="47.29799" lon="-1.37486">
        <ele>60</ele>
        <time>2022-07-30T09:03:30Z</time>
      </trkpt>
      <trkpt lat="47.29791" lon="-1.375">
        <ele>60</ele>
        <time>2022-07-30T09:03:32Z</time>
      </trkpt>
      <trkpt lat="47.29784" lon="-1.37514">
        <ele>59</ele>
        <time>2022-07-30T09:03:34Z</time>
      </trkpt>
      <trkpt lat="47.29776" lon="-1.37529">
        <ele>59</ele>
        <time>2022-07-30T09:03:36Z</time>
      </trkpt>
      <trkpt lat="47.29768" lon="-1.37543">
        <ele>59</ele>
        <time>2022-07-30T09:03:38Z</time>
      </trkpt>
      <trkpt lat="47.29761" lon="-1.37557">
        <ele>59</ele>
        <time>2022-07-30T09:03:40Z</time>
      </trkpt>
      <trkpt lat="47.29754" lon="-1.37572">
        <ele>59</ele>
        <time>2022-07-30T09:03:42Z</time>
      </trkpt>
      <trkpt lat="47.29746" lon="-1.37587">
        <ele>59</ele>
        <time>2022-07-30T09:03:44Z</time>
      </trkpt>
      <trkpt lat="47.29739" lon="-1.37601">
        <ele>59</ele>
        <time>2022-07-30T09:03:46Z</time>
      </trkpt>
      <trkpt lat="47.29731" lon="-1.37616">
        <ele>59</ele>
        <time>2022-07-30T09:03:48Z</time>
      </trkpt>
      <trkpt lat="47.29723" lon="-1.37631">
        <ele>59</ele>
        <time>2022-07-30T09:03:50Z</time>
      </trkpt>
      <trkpt lat="47.29716" lon="-1.37646">
        <ele>59</ele>
        <time>2022-07-30T09:03:52Z</time>
      </trkpt>
      <trkpt lat="47.29707" lon="-1.3766">
        <ele>58</ele>
        <time>2022-07-30T09:03:54Z</time>
      </trkpt>
      <trkpt lat="47.29699" lon="-1.37675">
        <ele>58</ele>
        <time>2022-07-30T09:03:56Z</time>
      </trkpt>
      <trkpt lat="47.29692" lon="-1.3769">
        <ele>58</ele>
        <time>2022-07-30T09:03:58Z</time>
      </trkpt>
      <trkpt lat="47.29685" lon="-1.37705">
        <ele>58</ele>
        <time>2022-07-30T09:04:00Z</time>
      </trkpt>
      <trkpt lat="47.29678" lon="-1.37719">
        <ele>58</ele>
        <time>2022-07-30T09:04:02Z</time>
      </trkpt>
      <trkpt lat="47.2967" lon="-1.37734">
        <ele>58</ele>
        <time>2022-07-30T09:04:04Z</time>
      </trkpt>
      <trkpt lat="47.29662" lon="-1.37748">
        <ele>58</ele>
        <time>2022-07-30T09:04:06Z</time>
      </trkpt>
      <trkpt lat="47.29654" lon="-1.37763">
        <ele>58</ele>
        <time>2022-07-30T09:04:08Z</time>
      </trkpt>
      <trkpt lat="47.29647" lon="-1.37777">
        <ele>58</ele>
        <time>2022-07-30T09:04:10Z</time>
      </trkpt>
      <trkpt lat="47.2964" lon="-1.37791">
        <ele>58</ele>
        <time>2022-07-30T09:04:12Z</time>
      </trkpt>
      <trkpt lat="47.29632" lon="-1.37803">
        <ele>58</ele>
        <time>2022-07-30T09:04:14Z</time>
      </trkpt>
      <trkpt lat="47.29625" lon="-1.37816">
        <ele>59</ele>
        <time>2022-07-30T09:04:16Z</time>
      </trkpt>
      <trkpt lat="47.29618" lon="-1.37829">
        <ele>58</ele>
        <time>2022-07-30T09:04:18Z</time>
      </trkpt>
      <trkpt lat="47.29611" lon="-1.37843">
        <ele>58</ele>
        <time>2022-07-30T09:04:20Z</time>
      </trkpt>
      <trkpt lat="47.29605" lon="-1.37857">
        <ele>57</ele>
        <time>2022-07-30T09:04:22Z</time>
      </trkpt>
      <trkpt lat="47.29599" lon="-1.37872">
        <ele>58</ele>
        <time>2022-07-30T09:04:24Z</time>
      </trkpt>
      <trkpt lat="47.29592" lon="-1.37887">
        <ele>58</ele>
        <time>2022-07-30T09:04:26Z</time>
      </trkpt>
      <trkpt lat="47.29586" lon="-1.37901">
        <ele>58</ele>
        <time>2022-07-30T09:04:28Z</time>
      </trkpt>
      <trkpt lat="47.2958" lon="-1.37915">
        <ele>58</ele>
        <time>2022-07-30T09:04:30Z</time>
      </trkpt>
      <trkpt lat="47.29575" lon="-1.37929">
        <ele>59</ele>
        <time>2022-07-30T09:04:32Z</time>
      </trkpt>
      <trkpt lat="47.29569" lon="-1.37943">
        <ele>59</ele>
        <time>2022-07-30T09:04:34Z</time>
      </trkpt>
      <trkpt lat="47.29563" lon="-1.37958">
        <ele>59</ele>
        <time>2022-07-30T09:04:36Z</time>
      </trkpt>
      <trkpt lat="47.29557" lon="-1.37973">
        <ele>58</ele>
        <time>2022-07-30T09:04:38Z</time>
      </trkpt>
      <trkpt lat="47.29552" lon="-1.37988">
        <ele>59</ele>
        <time>2022-07-30T09:04:40Z</time>
      </trkpt>
      <trkpt lat="47.29546" lon="-1.38004">
        <ele>59</ele>
        <time>2022-07-30T09:04:42Z</time>
      </trkpt>
      <trkpt lat="47.29539" lon="-1.3802">
        <ele>58</ele>
        <time>2022-07-30T09:04:44Z</time>
      </trkpt>
      <trkpt lat="47.29533" lon="-1.38035">
        <ele>58</ele>
        <time>2022-07-30T09:04:46Z</time>
      </trkpt>
      <trkpt lat="47.29527" lon="-1.38051">
        <ele>58</ele>
        <time>2022-07-30T09:04:48Z</time>
      </trkpt>
      <trkpt lat="47.29522" lon="-1.38067">
        <ele>58</ele>
        <time>2022-07-30T09:04:50Z</time>
      </trkpt>
      <trkpt lat="47.29517" lon="-1.38083">
        <ele>58</ele>
        <time>2022-07-30T09:04:52Z</time>
      </trkpt>
      <trkpt lat="47.29513" lon="-1.38099">
        <ele>58</ele>
        <time>2022-07-30T09:04:54Z</time>
      </trkpt>
      <trkpt lat="47.29509" lon="-1.38115">
        <ele>58</ele>
        <time>2022-07-30T09:04:56Z</time>
      </trkpt>
      <trkpt lat="47.29505" lon="-1.38131">
        <ele>58</ele>
        <time>2022-07-30T09:04:58Z</time>
      </trkpt>
      <trkpt lat="47.295" lon="-1.38147">
        <ele>58</ele>
        <time>2022-07-30T09:05:00Z</time>
      </trkpt>
      <trkpt lat="47.29496" lon="-1.38164">
        <ele>58</ele>
        <time>2022-07-30T09:05:02Z</time>
      </trkpt>
      <trkpt lat="47.29491" lon="-1.3818">
        <ele>57</ele>
        <time>2022-07-30T09:05:04Z</time>
      </trkpt>
      <trkpt lat="47.29487" lon="-1.38196">
        <ele>57</ele>
        <time>2022-07-30T09:05:06Z</time>
      </trkpt>
      <trkpt lat="47.29483" lon="-1.38212">
        <ele>58</ele>
        <time>2022-07-30T09:05:08Z</time>
      </trkpt>
      <trkpt lat="47.29479" lon="-1.38228">
        <ele>58</ele>
        <time>2022-07-30T09:05:10Z</time>
      </trkpt>
      <trkpt lat="47.29474" lon="-1.38244">
        <ele>57</ele>
        <time>2022-07-30T09:05:12Z</time>
      </trkpt>
      <trkpt lat="47.2947" lon="-1.3826">
        <ele>57</ele>
        <time>2022-07-30T09:05:14Z</time>
      </trkpt>
      <trkpt lat="47.29465" lon="-1.38276">
        <ele>57</ele>
        <time>2022-07-30T09:05:16Z</time>
      </trkpt>
      <trkpt lat="47.2946" lon="-1.38291">
        <ele>57</ele>
        <time>2022-07-30T09:05:18Z</time>
      </trkpt>
      <trkpt lat="47.29456" lon="-1.38307">
        <ele>58</ele>
        <time>2022-07-30T09:05:20Z</time>
      </trkpt>
      <trkpt lat="47.29452" lon="-1.3832">
        <ele>58</ele>
        <time>2022-07-30T09:05:22Z</time>
      </trkpt>
      <trkpt lat="47.29446" lon="-1.3833">
        <ele>59</ele>
        <time>2022-07-30T09:05:24Z</time>
      </trkpt>
      <trkpt lat="47.29441" lon="-1.38343">
        <ele>59</ele>
        <time>2022-07-30T09:05:26Z</time>
      </trkpt>
      <trkpt lat="47.29439" lon="-1.38359">
        <ele>58</ele>
        <time>2022-07-30T09:05:28Z</time>
      </trkpt>
      <trkpt lat="47.29435" lon="-1.38376">
        <ele>58</ele>
        <time>2022-07-30T09:05:30Z</time>
      </trkpt>
      <trkpt lat="47.29431" lon="-1.38393">
        <ele>58</ele>
        <time>2022-07-30T09:05:32Z</time>
      </trkpt>
      <trkpt lat="47.29427" lon="-1.38411">
        <ele>58</ele>
        <time>2022-07-30T09:05:34Z</time>
      </trkpt>
      <trkpt lat="47.29422" lon="-1.38428">
        <ele>58</ele>
        <time>2022-07-30T09:05:36Z</time>
      </trkpt>
      <trkpt lat="47.29417" lon="-1.38444">
        <ele>57</ele>
        <time>2022-07-30T09:05:38Z</time>
      </trkpt>
      <trkpt lat="47.29413" lon="-1.3846">
        <ele>57</ele>
        <time>2022-07-30T09:05:40Z</time>
      </trkpt>
      <trkpt lat="47.29407" lon="-1.38477">
        <ele>57</ele>
        <time>2022-07-30T09:05:42Z</time>
      </trkpt>
      <trkpt lat="47.29401" lon="-1.38493">
        <ele>57</ele>
        <time>2022-07-30T09:05:44Z</time>
      </trkpt>
      <trkpt lat="47.29394" lon="-1.38509">
        <ele>57</ele>
        <time>2022-07-30T09:05:46Z</time>
      </trkpt>
      <trkpt lat="47.29387" lon="-1.38524">
        <ele>57</ele>
        <time>2022-07-30T09:05:48Z</time>
      </trkpt>
      <trkpt lat="47.29381" lon="-1.38541">
        <ele>56</ele>
        <time>2022-07-30T09:05:50Z</time>
      </trkpt>
      <trkpt lat="47.29375" lon="-1.38558">
        <ele>56</ele>
        <time>2022-07-30T09:05:52Z</time>
      </trkpt>
      <trkpt lat="47.2937" lon="-1.38576">
        <ele>55</ele>
        <time>2022-07-30T09:05:54Z</time>
      </trkpt>
      <trkpt lat="47.29364" lon="-1.38595">
        <ele>55</ele>
        <time>2022-07-30T09:05:56Z</time>
      </trkpt>
      <trkpt lat="47.29358" lon="-1.38614">
        <ele>54</ele>
        <time>2022-07-30T09:05:58Z</time>
      </trkpt>
      <trkpt lat="47.29353" lon="-1.38633">
        <ele>54</ele>
        <time>2022-07-30T09:06:00Z</time>
      </trkpt>
      <trkpt lat="47.29348" lon="-1.38651">
        <ele>54</ele>
        <time>2022-07-30T09:06:02Z</time>
      </trkpt>
      <trkpt lat="47.29342" lon="-1.38669">
        <ele>54</ele>
        <time>2022-07-30T09:06:04Z</time>
      </trkpt>
      <trkpt lat="47.29337" lon="-1.38685">
        <ele>54</ele>
        <time>2022-07-30T09:06:06Z</time>
      </trkpt>
      <trkpt lat="47.29331" lon="-1.38701">
        <ele>54</ele>
        <time>2022-07-30T09:06:08Z</time>
      </trkpt>
      <trkpt lat="47.29326" lon="-1.38718">
        <ele>53</ele>
        <time>2022-07-30T09:06:10Z</time>
      </trkpt>
      <trkpt lat="47.29323" lon="-1.38735">
        <ele>53</ele>
        <time>2022-07-30T09:06:12Z</time>
      </trkpt>
      <trkpt lat="47.2932" lon="-1.38749">
        <ele>53</ele>
        <time>2022-07-30T09:06:14Z</time>
      </trkpt>
      <trkpt lat="47.29316" lon="-1.38762">
        <ele>54</ele>
        <time>2022-07-30T09:06:16Z</time>
      </trkpt>
      <trkpt lat="47.29313" lon="-1.38777">
        <ele>54</ele>
        <time>2022-07-30T09:06:18Z</time>
      </trkpt>
      <trkpt lat="47.29309" lon="-1.38794">
        <ele>55</ele>
        <time>2022-07-30T09:06:20Z</time>
      </trkpt>
      <trkpt lat="47.29305" lon="-1.3881">
        <ele>55</ele>
        <time>2022-07-30T09:06:22Z</time>
      </trkpt>
      <trkpt lat="47.293" lon="-1.38828">
        <ele>55</ele>
        <time>2022-07-30T09:06:24Z</time>
      </trkpt>
      <trkpt lat="47.29294" lon="-1.38845">
        <ele>55</ele>
        <time>2022-07-30T09:06:26Z</time>
      </trkpt>
      <trkpt lat="47.2929" lon="-1.38865">
        <ele>55</ele>
        <time>2022-07-30T09:06:28Z</time>
      </trkpt>
      <trkpt lat="47.29286" lon="-1.38885">
        <ele>55</ele>
        <time>2022-07-30T09:06:30Z</time>
      </trkpt>
      <trkpt lat="47.2928" lon="-1.38904">
        <ele>55</ele>
        <time>2022-07-30T09:06:32Z</time>
      </trkpt>
      <trkpt lat="47.29275" lon="-1.38924">
        <ele>55</ele>
        <time>2022-07-30T09:06:34Z</time>
      </trkpt>
      <trkpt lat="47.29269" lon="-1.38943">
        <ele>55</ele>
        <time>2022-07-30T09:06:36Z</time>
      </trkpt>
      <trkpt lat="47.29265" lon="-1.38961">
        <ele>55</ele>
        <time>2022-07-30T09:06:38Z</time>
      </trkpt>
      <trkpt lat="47.29259" lon="-1.3898">
        <ele>55</ele>
        <time>2022-07-30T09:06:40Z</time>
      </trkpt>
      <trkpt lat="47.29254" lon="-1.38999">
        <ele>55</ele>
        <time>2022-07-30T09:06:42Z</time>
      </trkpt>
      <trkpt lat="47.29249" lon="-1.39018">
        <ele>55</ele>
        <time>2022-07-30T09:06:44Z</time>
      </trkpt>
      <trkpt lat="47.29244" lon="-1.39036">
        <ele>55</ele>
        <time>2022-07-30T09:06:46Z</time>
      </trkpt>
      <trkpt lat="47.29239" lon="-1.39054">
        <ele>55</ele>
        <time>2022-07-30T09:06:48Z</time>
      </trkpt>
      <trkpt lat="47.29234" lon="-1.39072">
        <ele>55</ele>
        <time>2022-07-30T09:06:50Z</time>
      </trkpt>
      <trkpt lat="47.29228" lon="-1.39089">
        <ele>55</ele>
        <time>2022-07-30T09:06:52Z</time>
      </trkpt>
      <trkpt lat="47.2922" lon="-1.39105">
        <ele>55</ele>
        <time>2022-07-30T09:06:54Z</time>
      </trkpt>
      <trkpt lat="47.29212" lon="-1.39119">
        <ele>55</ele>
        <time>2022-07-30T09:06:56Z</time>
      </trkpt>
      <trkpt lat="47.29202" lon="-1.39132">
        <ele>55</ele>
        <time>2022-07-30T09:06:58Z</time>
      </trkpt>
      <trkpt lat="47.29193" lon="-1.39145">
        <ele>56</ele>
        <time>2022-07-30T09:07:00Z</time>
      </trkpt>
      <trkpt lat="47.29183" lon="-1.39156">
        <ele>56</ele>
        <time>2022-07-30T09:07:02Z</time>
      </trkpt>
      <trkpt lat="47.29173" lon="-1.39168">
        <ele>56</ele>
        <time>2022-07-30T09:07:04Z</time>
      </trkpt>
      <trkpt lat="47.29163" lon="-1.39181">
        <ele>56</ele>
        <time>2022-07-30T09:07:06Z</time>
      </trkpt>
      <trkpt lat="47.29154" lon="-1.39192">
        <ele>56</ele>
        <time>2022-07-30T09:07:08Z</time>
      </trkpt>
      <trkpt lat="47.29143" lon="-1.39205">
        <ele>56</ele>
        <time>2022-07-30T09:07:10Z</time>
      </trkpt>
      <trkpt lat="47.29134" lon="-1.39217">
        <ele>56</ele>
        <time>2022-07-30T09:07:12Z</time>
      </trkpt>
      <trkpt lat="47.29123" lon="-1.39229">
        <ele>56</ele>
        <time>2022-07-30T09:07:14Z</time>
      </trkpt>
      <trkpt lat="47.29114" lon="-1.39242">
        <ele>56</ele>
        <time>2022-07-30T09:07:16Z</time>
      </trkpt>
      <trkpt lat="47.29105" lon="-1.39255">
        <ele>56</ele>
        <time>2022-07-30T09:07:18Z</time>
      </trkpt>
      <trkpt lat="47.29097" lon="-1.39269">
        <ele>57</ele>
        <time>2022-07-30T09:07:20Z</time>
      </trkpt>
      <trkpt lat="47.29089" lon="-1.39283">
        <ele>56</ele>
        <time>2022-07-30T09:07:22Z</time>
      </trkpt>
      <trkpt lat="47.2908" lon="-1.39296">
        <ele>56</ele>
        <time>2022-07-30T09:07:24Z</time>
      </trkpt>
      <trkpt lat="47.2907" lon="-1.39307">
        <ele>56</ele>
        <time>2022-07-30T09:07:26Z</time>
      </trkpt>
      <trkpt lat="47.2906" lon="-1.39316">
        <ele>56</ele>
        <time>2022-07-30T09:07:28Z</time>
      </trkpt>
      <trkpt lat="47.2905" lon="-1.39326">
        <ele>56</ele>
        <time>2022-07-30T09:07:30Z</time>
      </trkpt>
      <trkpt lat="47.29041" lon="-1.39337">
        <ele>56</ele>
        <time>2022-07-30T09:07:32Z</time>
      </trkpt>
      <trkpt lat="47.29032" lon="-1.39349">
        <ele>56</ele>
        <time>2022-07-30T09:07:34Z</time>
      </trkpt>
      <trkpt lat="47.29023" lon="-1.39361">
        <ele>57</ele>
        <time>2022-07-30T09:07:36Z</time>
      </trkpt>
      <trkpt lat="47.29015" lon="-1.39374">
        <ele>57</ele>
        <time>2022-07-30T09:07:38Z</time>
      </trkpt>
      <trkpt lat="47.29007" lon="-1.39387">
        <ele>57</ele>
        <time>2022-07-30T09:07:40Z</time>
      </trkpt>
      <trkpt lat="47.28997" lon="-1.394">
        <ele>57</ele>
        <time>2022-07-30T09:07:42Z</time>
      </trkpt>
      <trkpt lat="47.28987" lon="-1.39412">
        <ele>56</ele>
        <time>2022-07-30T09:07:44Z</time>
      </trkpt>
      <trkpt lat="47.28978" lon="-1.39423">
        <ele>56</ele>
        <time>2022-07-30T09:07:46Z</time>
      </trkpt>
      <trkpt lat="47.2897" lon="-1.39435">
        <ele>57</ele>
        <time>2022-07-30T09:07:48Z</time>
      </trkpt>
      <trkpt lat="47.2896" lon="-1.39445">
        <ele>57</ele>
        <time>2022-07-30T09:07:50Z</time>
      </trkpt>
      <trkpt lat="47.28951" lon="-1.39456">
        <ele>57</ele>
        <time>2022-07-30T09:07:52Z</time>
      </trkpt>
      <trkpt lat="47.28942" lon="-1.39466">
        <ele>57</ele>
        <time>2022-07-30T09:07:54Z</time>
      </trkpt>
      <trkpt lat="47.28932" lon="-1.39478">
        <ele>56</ele>
        <time>2022-07-30T09:07:56Z</time>
      </trkpt>
      <trkpt lat="47.28923" lon="-1.39489">
        <ele>56</ele>
        <time>2022-07-30T09:07:58Z</time>
      </trkpt>
      <trkpt lat="47.28914" lon="-1.395">
        <ele>56</ele>
        <time>2022-07-30T09:08:00Z</time>
      </trkpt>
      <trkpt lat="47.28905" lon="-1.39512">
        <ele>56</ele>
        <time>2022-07-30T09:08:02Z</time>
      </trkpt>
      <trkpt lat="47.28896" lon="-1.39522">
        <ele>56</ele>
        <time>2022-07-30T09:08:04Z</time>
      </trkpt>
      <trkpt lat="47.28887" lon="-1.39533">
        <ele>56</ele>
        <time>2022-07-30T09:08:06Z</time>
      </trkpt>
      <trkpt lat="47.28877" lon="-1.39544">
        <ele>56</ele>
        <time>2022-07-30T09:08:08Z</time>
      </trkpt>
      <trkpt lat="47.28867" lon="-1.39556">
        <ele>56</ele>
        <time>2022-07-30T09:08:10Z</time>
      </trkpt>
      <trkpt lat="47.28858" lon="-1.39568">
        <ele>56</ele>
        <time>2022-07-30T09:08:12Z</time>
      </trkpt>
      <trkpt lat="47.28849" lon="-1.39579">
        <ele>56</ele>
        <time>2022-07-30T09:08:14Z</time>
      </trkpt>
      <trkpt lat="47.2884" lon="-1.3959">
        <ele>56</ele>
        <time>2022-07-30T09:08:16Z</time>
      </trkpt>
      <trkpt lat="47.2883" lon="-1.39601">
        <ele>56</ele>
        <time>2022-07-30T09:08:18Z</time>
      </trkpt>
      <trkpt lat="47.28821" lon="-1.39612">
        <ele>56</ele>
        <time>2022-07-30T09:08:20Z</time>
      </trkpt>
      <trkpt lat="47.28812" lon="-1.39623">
        <ele>56</ele>
        <time>2022-07-30T09:08:22Z</time>
      </trkpt>
      <trkpt lat="47.28802" lon="-1.39635">
        <ele>56</ele>
        <time>2022-07-30T09:08:24Z</time>
      </trkpt>
      <trkpt lat="47.28793" lon="-1.39646">
        <ele>56</ele>
        <time>2022-07-30T09:08:26Z</time>
      </trkpt>
      <trkpt lat="47.28782" lon="-1.39658">
        <ele>56</ele>
        <time>2022-07-30T09:08:28Z</time>
      </trkpt>
      <trkpt lat="47.28773" lon="-1.39669">
        <ele>56</ele>
        <time>2022-07-30T09:08:30Z</time>
      </trkpt>
      <trkpt lat="47.28764" lon="-1.3968">
        <ele>57</ele>
        <time>2022-07-30T09:08:32Z</time>
      </trkpt>
      <trkpt lat="47.28755" lon="-1.39691">
        <ele>57</ele>
        <time>2022-07-30T09:08:34Z</time>
      </trkpt>
      <trkpt lat="47.28745" lon="-1.39703">
        <ele>57</ele>
        <time>2022-07-30T09:08:36Z</time>
      </trkpt>
      <trkpt lat="47.28735" lon="-1.39714">
        <ele>56</ele>
        <time>2022-07-30T09:08:38Z</time>
      </trkpt>
      <trkpt lat="47.28725" lon="-1.39727">
        <ele>56</ele>
        <time>2022-07-30T09:08:40Z</time>
      </trkpt>
      <trkpt lat="47.28716" lon="-1.39739">
        <ele>56</ele>
        <time>2022-07-30T09:08:42Z</time>
      </trkpt>
      <trkpt lat="47.28707" lon="-1.39751">
        <ele>56</ele>
        <time>2022-07-30T09:08:44Z</time>
      </trkpt>
      <trkpt lat="47.28697" lon="-1.39762">
        <ele>56</ele>
        <time>2022-07-30T09:08:46Z</time>
      </trkpt>
      <trkpt lat="47.28687" lon="-1.39774">
        <ele>56</ele>
        <time>2022-07-30T09:08:48Z</time>
      </trkpt>
      <trkpt lat="47.28678" lon="-1.39786">
        <ele>56</ele>
        <time>2022-07-30T09:08:50Z</time>
      </trkpt>
      <trkpt lat="47.28669" lon="-1.39799">
        <ele>56</ele>
        <time>2022-07-30T09:08:52Z</time>
      </trkpt>
      <trkpt lat="47.2866" lon="-1.39812">
        <ele>56</ele>
        <time>2022-07-30T09:08:54Z</time>
      </trkpt>
      <trkpt lat="47.28651" lon="-1.39825">
        <ele>55</ele>
        <time>2022-07-30T09:08:56Z</time>
      </trkpt>
      <trkpt lat="47.28642" lon="-1.39839">
        <ele>55</ele>
        <time>2022-07-30T09:08:58Z</time>
      </trkpt>
      <trkpt lat="47.28633" lon="-1.39852">
        <ele>56</ele>
        <time>2022-07-30T09:09:00Z</time>
      </trkpt>
      <trkpt lat="47.28626" lon="-1.39865">
        <ele>56</ele>
        <time>2022-07-30T09:09:02Z</time>
      </trkpt>
      <trkpt lat="47.28618" lon="-1.39877">
        <ele>56</ele>
        <time>2022-07-30T09:09:04Z</time>
      </trkpt>
      <trkpt lat="47.2861" lon="-1.3989">
        <ele>56</ele>
        <time>2022-07-30T09:09:06Z</time>
      </trkpt>
      <trkpt lat="47.28602" lon="-1.39902">
        <ele>57</ele>
        <time>2022-07-30T09:09:08Z</time>
      </trkpt>
      <trkpt lat="47.28593" lon="-1.39915">
        <ele>57</ele>
        <time>2022-07-30T09:09:10Z</time>
      </trkpt>
      <trkpt lat="47.28585" lon="-1.39928">
        <ele>57</ele>
        <time>2022-07-30T09:09:12Z</time>
      </trkpt>
      <trkpt lat="47.28576" lon="-1.39942">
        <ele>57</ele>
        <time>2022-07-30T09:09:14Z</time>
      </trkpt>
      <trkpt lat="47.28567" lon="-1.39956">
        <ele>57</ele>
        <time>2022-07-30T09:09:16Z</time>
      </trkpt>
      <trkpt lat="47.28558" lon="-1.39969">
        <ele>57</ele>
        <time>2022-07-30T09:09:18Z</time>
      </trkpt>
      <trkpt lat="47.28549" lon="-1.39981">
        <ele>57</ele>
        <time>2022-07-30T09:09:20Z</time>
      </trkpt>
      <trkpt lat="47.2854" lon="-1.39994">
        <ele>57</ele>
        <time>2022-07-30T09:09:22Z</time>
      </trkpt>
      <trkpt lat="47.28532" lon="-1.40005">
        <ele>57</ele>
        <time>2022-07-30T09:09:24Z</time>
      </trkpt>
      <trkpt lat="47.28523" lon="-1.40019">
        <ele>58</ele>
        <time>2022-07-30T09:09:26Z</time>
      </trkpt>
      <trkpt lat="47.28514" lon="-1.40032">
        <ele>59</ele>
        <time>2022-07-30T09:09:28Z</time>
      </trkpt>
      <trkpt lat="47.28505" lon="-1.40045">
        <ele>59</ele>
        <time>2022-07-30T09:09:30Z</time>
      </trkpt>
      <trkpt lat="47.28497" lon="-1.40061">
        <ele>59</ele>
        <time>2022-07-30T09:09:32Z</time>
      </trkpt>
      <trkpt lat="47.28492" lon="-1.40075">
        <ele>60</ele>
        <time>2022-07-30T09:09:34Z</time>
      </trkpt>
      <trkpt lat="47.28485" lon="-1.4009">
        <ele>60</ele>
        <time>2022-07-30T09:09:36Z</time>
      </trkpt>
      <trkpt lat="47.28478" lon="-1.40106">
        <ele>62</ele>
        <time>2022-07-30T09:09:38Z</time>
      </trkpt>
      <trkpt lat="47.28471" lon="-1.40123">
        <ele>62</ele>
        <time>2022-07-30T09:09:40Z</time>
      </trkpt>
      <trkpt lat="47.28465" lon="-1.4014">
        <ele>61</ele>
        <time>2022-07-30T09:09:42Z</time>
      </trkpt>
      <trkpt lat="47.28458" lon="-1.40158">
        <ele>61</ele>
        <time>2022-07-30T09:09:44Z</time>
      </trkpt>
      <trkpt lat="47.28451" lon="-1.40175">
        <ele>60</ele>
        <time>2022-07-30T09:09:46Z</time>
      </trkpt>
      <trkpt lat="47.28444" lon="-1.40191">
        <ele>59</ele>
        <time>2022-07-30T09:09:48Z</time>
      </trkpt>
      <trkpt lat="47.28438" lon="-1.40207">
        <ele>59</ele>
        <time>2022-07-30T09:09:50Z</time>
      </trkpt>
      <trkpt lat="47.28432" lon="-1.40224">
        <ele>59</ele>
        <time>2022-07-30T09:09:52Z</time>
      </trkpt>
      <trkpt lat="47.28426" lon="-1.40239">
        <ele>61</ele>
        <time>2022-07-30T09:09:54Z</time>
      </trkpt>
      <trkpt lat="47.2842" lon="-1.40255">
        <ele>61</ele>
        <time>2022-07-30T09:09:56Z</time>
      </trkpt>
      <trkpt lat="47.28412" lon="-1.40271">
        <ele>60</ele>
        <time>2022-07-30T09:09:58Z</time>
      </trkpt>
      <trkpt lat="47.28404" lon="-1.40287">
        <ele>59</ele>
        <time>2022-07-30T09:10:00Z</time>
      </trkpt>
      <trkpt lat="47.28396" lon="-1.40302">
        <ele>58</ele>
        <time>2022-07-30T09:10:02Z</time>
      </trkpt>
      <trkpt lat="47.28387" lon="-1.40317">
        <ele>57</ele>
        <time>2022-07-30T09:10:04Z</time>
      </trkpt>
      <trkpt lat="47.28379" lon="-1.40331">
        <ele>57</ele>
        <time>2022-07-30T09:10:06Z</time>
      </trkpt>
      <trkpt lat="47.28371" lon="-1.40344">
        <ele>56</ele>
        <time>2022-07-30T09:10:08Z</time>
      </trkpt>
      <trkpt lat="47.28362" lon="-1.40357">
        <ele>56</ele>
        <time>2022-07-30T09:10:10Z</time>
      </trkpt>
      <trkpt lat="47.28353" lon="-1.40369">
        <ele>57</ele>
        <time>2022-07-30T09:10:12Z</time>
      </trkpt>
      <trkpt lat="47.28344" lon="-1.40382">
        <ele>56</ele>
        <time>2022-07-30T09:10:14Z</time>
      </trkpt>
      <trkpt lat="47.28334" lon="-1.40395">
        <ele>55</ele>
        <time>2022-07-30T09:10:16Z</time>
      </trkpt>
      <trkpt lat="47.28325" lon="-1.40407">
        <ele>55</ele>
        <time>2022-07-30T09:10:18Z</time>
      </trkpt>
      <trkpt lat="47.28315" lon="-1.40418">
        <ele>55</ele>
        <time>2022-07-30T09:10:20Z</time>
      </trkpt>
      <trkpt lat="47.28305" lon="-1.40429">
        <ele>55</ele>
        <time>2022-07-30T09:10:22Z</time>
      </trkpt>
      <trkpt lat="47.28294" lon="-1.40439">
        <ele>55</ele>
        <time>2022-07-30T09:10:24Z</time>
      </trkpt>
      <trkpt lat="47.28284" lon="-1.40449">
        <ele>55</ele>
        <time>2022-07-30T09:10:26Z</time>
      </trkpt>
      <trkpt lat="47.28273" lon="-1.40459">
        <ele>55</ele>
        <time>2022-07-30T09:10:28Z</time>
      </trkpt>
      <trkpt lat="47.28263" lon="-1.40469">
        <ele>55</ele>
        <time>2022-07-30T09:10:30Z</time>
      </trkpt>
      <trkpt lat="47.28253" lon="-1.40479">
        <ele>55</ele>
        <time>2022-07-30T09:10:32Z</time>
      </trkpt>
      <trkpt lat="47.28243" lon="-1.40489">
        <ele>55</ele>
        <time>2022-07-30T09:10:34Z</time>
      </trkpt>
      <trkpt lat="47.28233" lon="-1.40499">
        <ele>56</ele>
        <time>2022-07-30T09:10:36Z</time>
      </trkpt>
      <trkpt lat="47.28222" lon="-1.40509">
        <ele>56</ele>
        <time>2022-07-30T09:10:38Z</time>
      </trkpt>
      <trkpt lat="47.28211" lon="-1.40519">
        <ele>55</ele>
        <time>2022-07-30T09:10:40Z</time>
      </trkpt>
      <trkpt lat="47.28201" lon="-1.40529">
        <ele>55</ele>
        <time>2022-07-30T09:10:42Z</time>
      </trkpt>
      <trkpt lat="47.28191" lon="-1.40539">
        <ele>56</ele>
        <time>2022-07-30T09:10:44Z</time>
      </trkpt>
      <trkpt lat="47.28181" lon="-1.40549">
        <ele>56</ele>
        <time>2022-07-30T09:10:46Z</time>
      </trkpt>
      <trkpt lat="47.2817" lon="-1.40559">
        <ele>56</ele>
        <time>2022-07-30T09:10:48Z</time>
      </trkpt>
      <trkpt lat="47.2816" lon="-1.40568">
        <ele>56</ele>
        <time>2022-07-30T09:10:50Z</time>
      </trkpt>
      <trkpt lat="47.2815" lon="-1.40579">
        <ele>56</ele>
        <time>2022-07-30T09:10:52Z</time>
      </trkpt>
      <trkpt lat="47.28139" lon="-1.40589">
        <ele>56</ele>
        <time>2022-07-30T09:10:54Z</time>
      </trkpt>
      <trkpt lat="47.28129" lon="-1.40599">
        <ele>56</ele>
        <time>2022-07-30T09:10:56Z</time>
      </trkpt>
      <trkpt lat="47.28119" lon="-1.40609">
        <ele>56</ele>
        <time>2022-07-30T09:10:58Z</time>
      </trkpt>
      <trkpt lat="47.28109" lon="-1.40618">
        <ele>56</ele>
        <time>2022-07-30T09:11:00Z</time>
      </trkpt>
      <trkpt lat="47.28099" lon="-1.40628">
        <ele>56</ele>
        <time>2022-07-30T09:11:02Z</time>
      </trkpt>
      <trkpt lat="47.28088" lon="-1.40639">
        <ele>56</ele>
        <time>2022-07-30T09:11:04Z</time>
      </trkpt>
      <trkpt lat="47.28078" lon="-1.40648">
        <ele>56</ele>
        <time>2022-07-30T09:11:06Z</time>
      </trkpt>
      <trkpt lat="47.28068" lon="-1.40657">
        <ele>55</ele>
        <time>2022-07-30T09:11:08Z</time>
      </trkpt>
      <trkpt lat="47.28058" lon="-1.40667">
        <ele>56</ele>
        <time>2022-07-30T09:11:10Z</time>
      </trkpt>
      <trkpt lat="47.28047" lon="-1.40678">
        <ele>56</ele>
        <time>2022-07-30T09:11:12Z</time>
      </trkpt>
      <trkpt lat="47.28037" lon="-1.40688">
        <ele>55</ele>
        <time>2022-07-30T09:11:14Z</time>
      </trkpt>
      <trkpt lat="47.28026" lon="-1.40699">
        <ele>55</ele>
        <time>2022-07-30T09:11:16Z</time>
      </trkpt>
      <trkpt lat="47.28016" lon="-1.4071">
        <ele>55</ele>
        <time>2022-07-30T09:11:18Z</time>
      </trkpt>
      <trkpt lat="47.28006" lon="-1.4072">
        <ele>55</ele>
        <time>2022-07-30T09:11:20Z</time>
      </trkpt>
      <trkpt lat="47.27995" lon="-1.4073">
        <ele>55</ele>
        <time>2022-07-30T09:11:22Z</time>
      </trkpt>
      <trkpt lat="47.27984" lon="-1.4074">
        <ele>55</ele>
        <time>2022-07-30T09:11:24Z</time>
      </trkpt>
      <trkpt lat="47.27973" lon="-1.4075">
        <ele>55</ele>
        <time>2022-07-30T09:11:26Z</time>
      </trkpt>
      <trkpt lat="47.27963" lon="-1.40759">
        <ele>55</ele>
        <time>2022-07-30T09:11:28Z</time>
      </trkpt>
      <trkpt lat="47.27952" lon="-1.40768">
        <ele>55</ele>
        <time>2022-07-30T09:11:30Z</time>
      </trkpt>
      <trkpt lat="47.27942" lon="-1.40778">
        <ele>55</ele>
        <time>2022-07-30T09:11:32Z</time>
      </trkpt>
      <trkpt lat="47.27932" lon="-1.40788">
        <ele>55</ele>
        <time>2022-07-30T09:11:34Z</time>
      </trkpt>
      <trkpt lat="47.27921" lon="-1.40797">
        <ele>56</ele>
        <time>2022-07-30T09:11:36Z</time>
      </trkpt>
      <trkpt lat="47.2791" lon="-1.40807">
        <ele>55</ele>
        <time>2022-07-30T09:11:38Z</time>
      </trkpt>
      <trkpt lat="47.279" lon="-1.40817">
        <ele>55</ele>
        <time>2022-07-30T09:11:40Z</time>
      </trkpt>
      <trkpt lat="47.2789" lon="-1.40829">
        <ele>55</ele>
        <time>2022-07-30T09:11:42Z</time>
      </trkpt>
      <trkpt lat="47.27882" lon="-1.40842">
        <ele>55</ele>
        <time>2022-07-30T09:11:44Z</time>
      </trkpt>
      <trkpt lat="47.27875" lon="-1.40857">
        <ele>55</ele>
        <time>2022-07-30T09:11:46Z</time>
      </trkpt>
      <trkpt lat="47.27868" lon="-1.40873">
        <ele>55</ele>
        <time>2022-07-30T09:11:48Z</time>
      </trkpt>
      <trkpt lat="47.27862" lon="-1.40888">
        <ele>54</ele>
        <time>2022-07-30T09:11:50Z</time>
      </trkpt>
      <trkpt lat="47.27856" lon="-1.40903">
        <ele>55</ele>
        <time>2022-07-30T09:11:52Z</time>
      </trkpt>
      <trkpt lat="47.27849" lon="-1.40918">
        <ele>55</ele>
        <time>2022-07-30T09:11:54Z</time>
      </trkpt>
      <trkpt lat="47.27843" lon="-1.40932">
        <ele>55</ele>
        <time>2022-07-30T09:11:56Z</time>
      </trkpt>
      <trkpt lat="47.27836" lon="-1.40946">
        <ele>56</ele>
        <time>2022-07-30T09:11:58Z</time>
      </trkpt>
      <trkpt lat="47.27828" lon="-1.4096">
        <ele>56</ele>
        <time>2022-07-30T09:12:00Z</time>
      </trkpt>
      <trkpt lat="47.2782" lon="-1.40974">
        <ele>56</ele>
        <time>2022-07-30T09:12:02Z</time>
      </trkpt>
      <trkpt lat="47.27812" lon="-1.40987">
        <ele>56</ele>
        <time>2022-07-30T09:12:04Z</time>
      </trkpt>
      <trkpt lat="47.27804" lon="-1.41">
        <ele>56</ele>
        <time>2022-07-30T09:12:06Z</time>
      </trkpt>
      <trkpt lat="47.27796" lon="-1.41011">
        <ele>56</ele>
        <time>2022-07-30T09:12:08Z</time>
      </trkpt>
      <trkpt lat="47.27787" lon="-1.41023">
        <ele>55</ele>
        <time>2022-07-30T09:12:10Z</time>
      </trkpt>
      <trkpt lat="47.27779" lon="-1.41036">
        <ele>55</ele>
        <time>2022-07-30T09:12:12Z</time>
      </trkpt>
      <trkpt lat="47.27774" lon="-1.41053">
        <ele>56</ele>
        <time>2022-07-30T09:12:14Z</time>
      </trkpt>
      <trkpt lat="47.27768" lon="-1.41069">
        <ele>55</ele>
        <time>2022-07-30T09:12:16Z</time>
      </trkpt>
      <trkpt lat="47.27758" lon="-1.41081">
        <ele>55</ele>
        <time>2022-07-30T09:12:18Z</time>
      </trkpt>
      <trkpt lat="47.27748" lon="-1.41092">
        <ele>54</ele>
        <time>2022-07-30T09:12:20Z</time>
      </trkpt>
      <trkpt lat="47.27737" lon="-1.41102">
        <ele>54</ele>
        <time>2022-07-30T09:12:22Z</time>
      </trkpt>
      <trkpt lat="47.27727" lon="-1.41112">
        <ele>54</ele>
        <time>2022-07-30T09:12:24Z</time>
      </trkpt>
      <trkpt lat="47.27718" lon="-1.41123">
        <ele>54</ele>
        <time>2022-07-30T09:12:26Z</time>
      </trkpt>
      <trkpt lat="47.27708" lon="-1.41132">
        <ele>54</ele>
        <time>2022-07-30T09:12:28Z</time>
      </trkpt>
      <trkpt lat="47.27698" lon="-1.41142">
        <ele>54</ele>
        <time>2022-07-30T09:12:30Z</time>
      </trkpt>
      <trkpt lat="47.27688" lon="-1.41154">
        <ele>54</ele>
        <time>2022-07-30T09:12:32Z</time>
      </trkpt>
      <trkpt lat="47.27679" lon="-1.41166">
        <ele>54</ele>
        <time>2022-07-30T09:12:34Z</time>
      </trkpt>
      <trkpt lat="47.27669" lon="-1.41177">
        <ele>54</ele>
        <time>2022-07-30T09:12:36Z</time>
      </trkpt>
      <trkpt lat="47.27658" lon="-1.41188">
        <ele>54</ele>
        <time>2022-07-30T09:12:38Z</time>
      </trkpt>
      <trkpt lat="47.27648" lon="-1.41198">
        <ele>54</ele>
        <time>2022-07-30T09:12:40Z</time>
      </trkpt>
      <trkpt lat="47.27638" lon="-1.41207">
        <ele>54</ele>
        <time>2022-07-30T09:12:42Z</time>
      </trkpt>
      <trkpt lat="47.27628" lon="-1.41217">
        <ele>54</ele>
        <time>2022-07-30T09:12:44Z</time>
      </trkpt>
      <trkpt lat="47.27618" lon="-1.41227">
        <ele>54</ele>
        <time>2022-07-30T09:12:46Z</time>
      </trkpt>
      <trkpt lat="47.27608" lon="-1.41238">
        <ele>54</ele>
        <time>2022-07-30T09:12:48Z</time>
      </trkpt>
      <trkpt lat="47.27598" lon="-1.4125">
        <ele>54</ele>
        <time>2022-07-30T09:12:50Z</time>
      </trkpt>
      <trkpt lat="47.27588" lon="-1.4126">
        <ele>54</ele>
        <time>2022-07-30T09:12:52Z</time>
      </trkpt>
      <trkpt lat="47.27579" lon="-1.41272">
        <ele>55</ele>
        <time>2022-07-30T09:12:54Z</time>
      </trkpt>
      <trkpt lat="47.27569" lon="-1.41284">
        <ele>55</ele>
        <time>2022-07-30T09:12:56Z</time>
      </trkpt>
      <trkpt lat="47.27558" lon="-1.41296">
        <ele>55</ele>
        <time>2022-07-30T09:12:58Z</time>
      </trkpt>
      <trkpt lat="47.27549" lon="-1.41308">
        <ele>56</ele>
        <time>2022-07-30T09:13:00Z</time>
      </trkpt>
      <trkpt lat="47.27539" lon="-1.4132">
        <ele>56</ele>
        <time>2022-07-30T09:13:02Z</time>
      </trkpt>
      <trkpt lat="47.2753" lon="-1.41333">
        <ele>55</ele>
        <time>2022-07-30T09:13:04Z</time>
      </trkpt>
      <trkpt lat="47.27522" lon="-1.41345">
        <ele>56</ele>
        <time>2022-07-30T09:13:06Z</time>
      </trkpt>
      <trkpt lat="47.27513" lon="-1.41358">
        <ele>55</ele>
        <time>2022-07-30T09:13:08Z</time>
      </trkpt>
      <trkpt lat="47.27504" lon="-1.41371">
        <ele>55</ele>
        <time>2022-07-30T09:13:10Z</time>
      </trkpt>
      <trkpt lat="47.27496" lon="-1.41384">
        <ele>55</ele>
        <time>2022-07-30T09:13:12Z</time>
      </trkpt>
      <trkpt lat="47.27488" lon="-1.41398">
        <ele>55</ele>
        <time>2022-07-30T09:13:14Z</time>
      </trkpt>
      <trkpt lat="47.27479" lon="-1.41412">
        <ele>54</ele>
        <time>2022-07-30T09:13:16Z</time>
      </trkpt>
      <trkpt lat="47.27472" lon="-1.41426">
        <ele>54</ele>
        <time>2022-07-30T09:13:18Z</time>
      </trkpt>
      <trkpt lat="47.27464" lon="-1.41441">
        <ele>55</ele>
        <time>2022-07-30T09:13:20Z</time>
      </trkpt>
      <trkpt lat="47.27456" lon="-1.41455">
        <ele>55</ele>
        <time>2022-07-30T09:13:22Z</time>
      </trkpt>
      <trkpt lat="47.27448" lon="-1.41469">
        <ele>56</ele>
        <time>2022-07-30T09:13:24Z</time>
      </trkpt>
      <trkpt lat="47.27441" lon="-1.41483">
        <ele>55</ele>
        <time>2022-07-30T09:13:26Z</time>
      </trkpt>
      <trkpt lat="47.27433" lon="-1.41496">
        <ele>56</ele>
        <time>2022-07-30T09:13:28Z</time>
      </trkpt>
      <trkpt lat="47.27425" lon="-1.4151">
        <ele>56</ele>
        <time>2022-07-30T09:13:30Z</time>
      </trkpt>
      <trkpt lat="47.27417" lon="-1.41524">
        <ele>56</ele>
        <time>2022-07-30T09:13:32Z</time>
      </trkpt>
      <trkpt lat="47.27409" lon="-1.41537">
        <ele>56</ele>
        <time>2022-07-30T09:13:34Z</time>
      </trkpt>
      <trkpt lat="47.274" lon="-1.4155">
        <ele>56</ele>
        <time>2022-07-30T09:13:36Z</time>
      </trkpt>
      <trkpt lat="47.27391" lon="-1.41563">
        <ele>57</ele>
        <time>2022-07-30T09:13:38Z</time>
      </trkpt>
      <trkpt lat="47.27382" lon="-1.41576">
        <ele>57</ele>
        <time>2022-07-30T09:13:40Z</time>
      </trkpt>
      <trkpt lat="47.27373" lon="-1.4159">
        <ele>56</ele>
        <time>2022-07-30T09:13:42Z</time>
      </trkpt>
      <trkpt lat="47.27365" lon="-1.41603">
        <ele>56</ele>
        <time>2022-07-30T09:13:44Z</time>
      </trkpt>
      <trkpt lat="47.27357" lon="-1.41616">
        <ele>56</ele>
        <time>2022-07-30T09:13:46Z</time>
      </trkpt>
      <trkpt lat="47.27348" lon="-1.41629">
        <ele>56</ele>
        <time>2022-07-30T09:13:48Z</time>
      </trkpt>
      <trkpt lat="47.27339" lon="-1.41642">
        <ele>56</ele>
        <time>2022-07-30T09:13:50Z</time>
      </trkpt>
      <trkpt lat="47.27331" lon="-1.41655">
        <ele>57</ele>
        <time>2022-07-30T09:13:52Z</time>
      </trkpt>
      <trkpt lat="47.27324" lon="-1.41669">
        <ele>57</ele>
        <time>2022-07-30T09:13:54Z</time>
      </trkpt>
      <trkpt lat="47.27316" lon="-1.41683">
        <ele>58</ele>
        <time>2022-07-30T09:13:56Z</time>
      </trkpt>
      <trkpt lat="47.27309" lon="-1.41696">
        <ele>58</ele>
        <time>2022-07-30T09:13:58Z</time>
      </trkpt>
      <trkpt lat="47.27303" lon="-1.4171">
        <ele>58</ele>
        <time>2022-07-30T09:14:00Z</time>
      </trkpt>
      <trkpt lat="47.27294" lon="-1.41726">
        <ele>56</ele>
        <time>2022-07-30T09:14:02Z</time>
      </trkpt>
      <trkpt lat="47.27285" lon="-1.41742">
        <ele>56</ele>
        <time>2022-07-30T09:14:04Z</time>
      </trkpt>
      <trkpt lat="47.27277" lon="-1.41757">
        <ele>55</ele>
        <time>2022-07-30T09:14:06Z</time>
      </trkpt>
      <trkpt lat="47.2727" lon="-1.41772">
        <ele>56</ele>
        <time>2022-07-30T09:14:08Z</time>
      </trkpt>
      <trkpt lat="47.27263" lon="-1.41785">
        <ele>56</ele>
        <time>2022-07-30T09:14:10Z</time>
      </trkpt>
      <trkpt lat="47.27255" lon="-1.41799">
        <ele>57</ele>
        <time>2022-07-30T09:14:12Z</time>
      </trkpt>
      <trkpt lat="47.27248" lon="-1.41813">
        <ele>57</ele>
        <time>2022-07-30T09:14:14Z</time>
      </trkpt>
      <trkpt lat="47.27239" lon="-1.41827">
        <ele>58</ele>
        <time>2022-07-30T09:14:16Z</time>
      </trkpt>
      <trkpt lat="47.27231" lon="-1.41841">
        <ele>58</ele>
        <time>2022-07-30T09:14:18Z</time>
      </trkpt>
      <trkpt lat="47.27224" lon="-1.41855">
        <ele>59</ele>
        <time>2022-07-30T09:14:20Z</time>
      </trkpt>
      <trkpt lat="47.27216" lon="-1.4187">
        <ele>59</ele>
        <time>2022-07-30T09:14:22Z</time>
      </trkpt>
      <trkpt lat="47.27208" lon="-1.41883">
        <ele>58</ele>
        <time>2022-07-30T09:14:24Z</time>
      </trkpt>
      <trkpt lat="47.272" lon="-1.41898">
        <ele>58</ele>
        <time>2022-07-30T09:14:26Z</time>
      </trkpt>
      <trkpt lat="47.27192" lon="-1.41912">
        <ele>58</ele>
        <time>2022-07-30T09:14:28Z</time>
      </trkpt>
      <trkpt lat="47.27183" lon="-1.41926">
        <ele>57</ele>
        <time>2022-07-30T09:14:30Z</time>
      </trkpt>
      <trkpt lat="47.27175" lon="-1.41941">
        <ele>57</ele>
        <time>2022-07-30T09:14:32Z</time>
      </trkpt>
      <trkpt lat="47.27166" lon="-1.41955">
        <ele>57</ele>
        <time>2022-07-30T09:14:34Z</time>
      </trkpt>
      <trkpt lat="47.27158" lon="-1.41969">
        <ele>57</ele>
        <time>2022-07-30T09:14:36Z</time>
      </trkpt>
      <trkpt lat="47.27151" lon="-1.41984">
        <ele>57</ele>
        <time>2022-07-30T09:14:38Z</time>
      </trkpt>
      <trkpt lat="47.27143" lon="-1.41997">
        <ele>57</ele>
        <time>2022-07-30T09:14:40Z</time>
      </trkpt>
      <trkpt lat="47.27135" lon="-1.42012">
        <ele>56</ele>
        <time>2022-07-30T09:14:42Z</time>
      </trkpt>
      <trkpt lat="47.27127" lon="-1.42025">
        <ele>56</ele>
        <time>2022-07-30T09:14:44Z</time>
      </trkpt>
      <trkpt lat="47.27118" lon="-1.42038">
        <ele>56</ele>
        <time>2022-07-30T09:14:46Z</time>
      </trkpt>
      <trkpt lat="47.2711" lon="-1.42051">
        <ele>56</ele>
        <time>2022-07-30T09:14:48Z</time>
      </trkpt>
      <trkpt lat="47.27101" lon="-1.42065">
        <ele>55</ele>
        <time>2022-07-30T09:14:50Z</time>
      </trkpt>
      <trkpt lat="47.27092" lon="-1.42078">
        <ele>55</ele>
        <time>2022-07-30T09:14:52Z</time>
      </trkpt>
      <trkpt lat="47.27083" lon="-1.42091">
        <ele>55</ele>
        <time>2022-07-30T09:14:54Z</time>
      </trkpt>
      <trkpt lat="47.27075" lon="-1.42105">
        <ele>55</ele>
        <time>2022-07-30T09:14:56Z</time>
      </trkpt>
      <trkpt lat="47.27067" lon="-1.4212">
        <ele>55</ele>
        <time>2022-07-30T09:14:58Z</time>
      </trkpt>
      <trkpt lat="47.2706" lon="-1.42134">
        <ele>55</ele>
        <time>2022-07-30T09:15:00Z</time>
      </trkpt>
      <trkpt lat="47.27053" lon="-1.42148">
        <ele>55</ele>
        <time>2022-07-30T09:15:02Z</time>
      </trkpt>
      <trkpt lat="47.27045" lon="-1.42162">
        <ele>54</ele>
        <time>2022-07-30T09:15:04Z</time>
      </trkpt>
      <trkpt lat="47.27038" lon="-1.42177">
        <ele>54</ele>
        <time>2022-07-30T09:15:06Z</time>
      </trkpt>
      <trkpt lat="47.27031" lon="-1.42191">
        <ele>55</ele>
        <time>2022-07-30T09:15:08Z</time>
      </trkpt>
      <trkpt lat="47.27022" lon="-1.42205">
        <ele>56</ele>
        <time>2022-07-30T09:15:10Z</time>
      </trkpt>
      <trkpt lat="47.27014" lon="-1.42218">
        <ele>56</ele>
        <time>2022-07-30T09:15:12Z</time>
      </trkpt>
      <trkpt lat="47.27005" lon="-1.42232">
        <ele>56</ele>
        <time>2022-07-30T09:15:14Z</time>
      </trkpt>
      <trkpt lat="47.26997" lon="-1.42245">
        <ele>56</ele>
        <time>2022-07-30T09:15:16Z</time>
      </trkpt>
      <trkpt lat="47.2699" lon="-1.4226">
        <ele>56</ele>
        <time>2022-07-30T09:15:18Z</time>
      </trkpt>
      <trkpt lat="47.26982" lon="-1.42276">
        <ele>56</ele>
        <time>2022-07-30T09:15:20Z</time>
      </trkpt>
      <trkpt lat="47.26973" lon="-1.42292">
        <ele>57</ele>
        <time>2022-07-30T09:15:22Z</time>
      </trkpt>
      <trkpt lat="47.26965" lon="-1.42308">
        <ele>58</ele>
        <time>2022-07-30T09:15:24Z</time>
      </trkpt>
      <trkpt lat="47.26957" lon="-1.42324">
        <ele>58</ele>
        <time>2022-07-30T09:15:26Z</time>
      </trkpt>
      <trkpt lat="47.26949" lon="-1.42339">
        <ele>58</ele>
        <time>2022-07-30T09:15:28Z</time>
      </trkpt>
      <trkpt lat="47.2694" lon="-1.42356">
        <ele>58</ele>
        <time>2022-07-30T09:15:30Z</time>
      </trkpt>
      <trkpt lat="47.26933" lon="-1.42372">
        <ele>59</ele>
        <time>2022-07-30T09:15:32Z</time>
      </trkpt>
      <trkpt lat="47.26926" lon="-1.42388">
        <ele>60</ele>
        <time>2022-07-30T09:15:34Z</time>
      </trkpt>
      <trkpt lat="47.26917" lon="-1.42404">
        <ele>59</ele>
        <time>2022-07-30T09:15:36Z</time>
      </trkpt>
      <trkpt lat="47.2691" lon="-1.42419">
        <ele>59</ele>
        <time>2022-07-30T09:15:38Z</time>
      </trkpt>
      <trkpt lat="47.26902" lon="-1.42434">
        <ele>60</ele>
        <time>2022-07-30T09:15:40Z</time>
      </trkpt>
      <trkpt lat="47.26894" lon="-1.42448">
        <ele>59</ele>
        <time>2022-07-30T09:15:42Z</time>
      </trkpt>
      <trkpt lat="47.26886" lon="-1.42463">
        <ele>59</ele>
        <time>2022-07-30T09:15:44Z</time>
      </trkpt>
      <trkpt lat="47.26877" lon="-1.42478">
        <ele>59</ele>
        <time>2022-07-30T09:15:46Z</time>
      </trkpt>
      <trkpt lat="47.26868" lon="-1.42493">
        <ele>59</ele>
        <time>2022-07-30T09:15:48Z</time>
      </trkpt>
      <trkpt lat="47.2686" lon="-1.42508">
        <ele>58</ele>
        <time>2022-07-30T09:15:50Z</time>
      </trkpt>
      <trkpt lat="47.26852" lon="-1.42524">
        <ele>58</ele>
        <time>2022-07-30T09:15:52Z</time>
      </trkpt>
      <trkpt lat="47.26844" lon="-1.42539">
        <ele>59</ele>
        <time>2022-07-30T09:15:54Z</time>
      </trkpt>
      <trkpt lat="47.26836" lon="-1.42553">
        <ele>58</ele>
        <time>2022-07-30T09:15:56Z</time>
      </trkpt>
      <trkpt lat="47.26829" lon="-1.42569">
        <ele>58</ele>
        <time>2022-07-30T09:15:58Z</time>
      </trkpt>
      <trkpt lat="47.26822" lon="-1.42584">
        <ele>57</ele>
        <time>2022-07-30T09:16:00Z</time>
      </trkpt>
      <trkpt lat="47.26814" lon="-1.42601">
        <ele>57</ele>
        <time>2022-07-30T09:16:02Z</time>
      </trkpt>
      <trkpt lat="47.26807" lon="-1.42617">
        <ele>57</ele>
        <time>2022-07-30T09:16:04Z</time>
      </trkpt>
      <trkpt lat="47.26801" lon="-1.42634">
        <ele>57</ele>
        <time>2022-07-30T09:16:06Z</time>
      </trkpt>
      <trkpt lat="47.26792" lon="-1.42658">
        <ele>57</ele>
        <time>2022-07-30T09:16:09Z</time>
      </trkpt>
      <trkpt lat="47.26786" lon="-1.42674">
        <ele>58</ele>
        <time>2022-07-30T09:16:11Z</time>
      </trkpt>
      <trkpt lat="47.2678" lon="-1.42691">
        <ele>58</ele>
        <time>2022-07-30T09:16:13Z</time>
      </trkpt>
      <trkpt lat="47.26774" lon="-1.42707">
        <ele>58</ele>
        <time>2022-07-30T09:16:15Z</time>
      </trkpt>
      <trkpt lat="47.26766" lon="-1.42723">
        <ele>58</ele>
        <time>2022-07-30T09:16:17Z</time>
      </trkpt>
      <trkpt lat="47.26759" lon="-1.42737">
        <ele>58</ele>
        <time>2022-07-30T09:16:19Z</time>
      </trkpt>
      <trkpt lat="47.26751" lon="-1.42753">
        <ele>58</ele>
        <time>2022-07-30T09:16:21Z</time>
      </trkpt>
      <trkpt lat="47.26739" lon="-1.42778">
        <ele>57</ele>
        <time>2022-07-30T09:16:24Z</time>
      </trkpt>
      <trkpt lat="47.26734" lon="-1.42795">
        <ele>58</ele>
        <time>2022-07-30T09:16:26Z</time>
      </trkpt>
      <trkpt lat="47.2673" lon="-1.42811">
        <ele>58</ele>
        <time>2022-07-30T09:16:28Z</time>
      </trkpt>
      <trkpt lat="47.26724" lon="-1.42834">
        <ele>59</ele>
        <time>2022-07-30T09:16:31Z</time>
      </trkpt>
      <trkpt lat="47.26717" lon="-1.42852">
        <ele>59</ele>
        <time>2022-07-30T09:16:33Z</time>
      </trkpt>
      <trkpt lat="47.26709" lon="-1.42869">
        <ele>59</ele>
        <time>2022-07-30T09:16:35Z</time>
      </trkpt>
      <trkpt lat="47.26701" lon="-1.42884">
        <ele>58</ele>
        <time>2022-07-30T09:16:37Z</time>
      </trkpt>
      <trkpt lat="47.26693" lon="-1.42901">
        <ele>57</ele>
        <time>2022-07-30T09:16:39Z</time>
      </trkpt>
      <trkpt lat="47.26685" lon="-1.42919">
        <ele>56</ele>
        <time>2022-07-30T09:16:41Z</time>
      </trkpt>
      <trkpt lat="47.26677" lon="-1.42936">
        <ele>55</ele>
        <time>2022-07-30T09:16:43Z</time>
      </trkpt>
      <trkpt lat="47.26668" lon="-1.42952">
        <ele>54</ele>
        <time>2022-07-30T09:16:45Z</time>
      </trkpt>
      <trkpt lat="47.26659" lon="-1.42969">
        <ele>53</ele>
        <time>2022-07-30T09:16:47Z</time>
      </trkpt>
      <trkpt lat="47.26651" lon="-1.42985">
        <ele>53</ele>
        <time>2022-07-30T09:16:49Z</time>
      </trkpt>
      <trkpt lat="47.26643" lon="-1.43001">
        <ele>54</ele>
        <time>2022-07-30T09:16:51Z</time>
      </trkpt>
      <trkpt lat="47.26635" lon="-1.43017">
        <ele>54</ele>
        <time>2022-07-30T09:16:53Z</time>
      </trkpt>
      <trkpt lat="47.26628" lon="-1.43032">
        <ele>54</ele>
        <time>2022-07-30T09:16:55Z</time>
      </trkpt>
      <trkpt lat="47.2662" lon="-1.43049">
        <ele>54</ele>
        <time>2022-07-30T09:16:57Z</time>
      </trkpt>
      <trkpt lat="47.26612" lon="-1.43064">
        <ele>53</ele>
        <time>2022-07-30T09:16:59Z</time>
      </trkpt>
      <trkpt lat="47.26604" lon="-1.4308">
        <ele>53</ele>
        <time>2022-07-30T09:17:01Z</time>
      </trkpt>
      <trkpt lat="47.26595" lon="-1.43094">
        <ele>54</ele>
        <time>2022-07-30T09:17:03Z</time>
      </trkpt>
      <trkpt lat="47.26586" lon="-1.43109">
        <ele>54</ele>
        <time>2022-07-30T09:17:05Z</time>
      </trkpt>
      <trkpt lat="47.26578" lon="-1.43123">
        <ele>54</ele>
        <time>2022-07-30T09:17:07Z</time>
      </trkpt>
      <trkpt lat="47.26569" lon="-1.43136">
        <ele>55</ele>
        <time>2022-07-30T09:17:09Z</time>
      </trkpt>
      <trkpt lat="47.2656" lon="-1.4315">
        <ele>55</ele>
        <time>2022-07-30T09:17:11Z</time>
      </trkpt>
      <trkpt lat="47.26551" lon="-1.43164">
        <ele>55</ele>
        <time>2022-07-30T09:17:13Z</time>
      </trkpt>
      <trkpt lat="47.26542" lon="-1.43179">
        <ele>55</ele>
        <time>2022-07-30T09:17:15Z</time>
      </trkpt>
      <trkpt lat="47.26532" lon="-1.43193">
        <ele>55</ele>
        <time>2022-07-30T09:17:17Z</time>
      </trkpt>
      <trkpt lat="47.26522" lon="-1.43207">
        <ele>56</ele>
        <time>2022-07-30T09:17:19Z</time>
      </trkpt>
      <trkpt lat="47.26513" lon="-1.43219">
        <ele>57</ele>
        <time>2022-07-30T09:17:21Z</time>
      </trkpt>
      <trkpt lat="47.26502" lon="-1.43231">
        <ele>58</ele>
        <time>2022-07-30T09:17:23Z</time>
      </trkpt>
      <trkpt lat="47.26492" lon="-1.43243">
        <ele>59</ele>
        <time>2022-07-30T09:17:25Z</time>
      </trkpt>
      <trkpt lat="47.26482" lon="-1.43256">
        <ele>60</ele>
        <time>2022-07-30T09:17:27Z</time>
      </trkpt>
      <trkpt lat="47.26473" lon="-1.43268">
        <ele>61</ele>
        <time>2022-07-30T09:17:29Z</time>
      </trkpt>
      <trkpt lat="47.26465" lon="-1.43281">
        <ele>63</ele>
        <time>2022-07-30T09:17:31Z</time>
      </trkpt>
      <trkpt lat="47.26455" lon="-1.43296">
        <ele>62</ele>
        <time>2022-07-30T09:17:33Z</time>
      </trkpt>
      <trkpt lat="47.26447" lon="-1.43313">
        <ele>61</ele>
        <time>2022-07-30T09:17:35Z</time>
      </trkpt>
      <trkpt lat="47.26439" lon="-1.43327">
        <ele>61</ele>
        <time>2022-07-30T09:17:37Z</time>
      </trkpt>
      <trkpt lat="47.26429" lon="-1.43341">
        <ele>59</ele>
        <time>2022-07-30T09:17:39Z</time>
      </trkpt>
      <trkpt lat="47.26418" lon="-1.43354">
        <ele>58</ele>
        <time>2022-07-30T09:17:41Z</time>
      </trkpt>
      <trkpt lat="47.26408" lon="-1.43367">
        <ele>57</ele>
        <time>2022-07-30T09:17:43Z</time>
      </trkpt>
      <trkpt lat="47.26397" lon="-1.43379">
        <ele>56</ele>
        <time>2022-07-30T09:17:45Z</time>
      </trkpt>
      <trkpt lat="47.26387" lon="-1.43391">
        <ele>55</ele>
        <time>2022-07-30T09:17:47Z</time>
      </trkpt>
      <trkpt lat="47.26376" lon="-1.43402">
        <ele>54</ele>
        <time>2022-07-30T09:17:49Z</time>
      </trkpt>
      <trkpt lat="47.26365" lon="-1.43414">
        <ele>54</ele>
        <time>2022-07-30T09:17:51Z</time>
      </trkpt>
      <trkpt lat="47.26354" lon="-1.43425">
        <ele>54</ele>
        <time>2022-07-30T09:17:53Z</time>
      </trkpt>
      <trkpt lat="47.26344" lon="-1.43436">
        <ele>54</ele>
        <time>2022-07-30T09:17:55Z</time>
      </trkpt>
      <trkpt lat="47.26334" lon="-1.43447">
        <ele>54</ele>
        <time>2022-07-30T09:17:57Z</time>
      </trkpt>
      <trkpt lat="47.26324" lon="-1.43459">
        <ele>54</ele>
        <time>2022-07-30T09:17:59Z</time>
      </trkpt>
      <trkpt lat="47.26314" lon="-1.4347">
        <ele>54</ele>
        <time>2022-07-30T09:18:01Z</time>
      </trkpt>
      <trkpt lat="47.26304" lon="-1.43479">
        <ele>55</ele>
        <time>2022-07-30T09:18:03Z</time>
      </trkpt>
      <trkpt lat="47.26294" lon="-1.43486">
        <ele>55</ele>
        <time>2022-07-30T09:18:05Z</time>
      </trkpt>
      <trkpt lat="47.26284" lon="-1.43488">
        <ele>55</ele>
        <time>2022-07-30T09:18:07Z</time>
      </trkpt>
      <trkpt lat="47.26273" lon="-1.4349">
        <ele>55</ele>
        <time>2022-07-30T09:18:09Z</time>
      </trkpt>
      <trkpt lat="47.26262" lon="-1.43494">
        <ele>56</ele>
        <time>2022-07-30T09:18:11Z</time>
      </trkpt>
      <trkpt lat="47.26253" lon="-1.43504">
        <ele>56</ele>
        <time>2022-07-30T09:18:13Z</time>
      </trkpt>
      <trkpt lat="47.26243" lon="-1.43515">
        <ele>56</ele>
        <time>2022-07-30T09:18:15Z</time>
      </trkpt>
      <trkpt lat="47.26234" lon="-1.43526">
        <ele>56</ele>
        <time>2022-07-30T09:18:17Z</time>
      </trkpt>
      <trkpt lat="47.26226" lon="-1.43538">
        <ele>56</ele>
        <time>2022-07-30T09:18:19Z</time>
      </trkpt>
      <trkpt lat="47.26221" lon="-1.4355">
        <ele>57</ele>
        <time>2022-07-30T09:18:21Z</time>
      </trkpt>
      <trkpt lat="47.2622" lon="-1.43569">
        <ele>58</ele>
        <time>2022-07-30T09:18:23Z</time>
      </trkpt>
      <trkpt lat="47.26212" lon="-1.43584">
        <ele>59</ele>
        <time>2022-07-30T09:18:25Z</time>
      </trkpt>
      <trkpt lat="47.26203" lon="-1.43599">
        <ele>58</ele>
        <time>2022-07-30T09:18:27Z</time>
      </trkpt>
      <trkpt lat="47.26195" lon="-1.43611">
        <ele>58</ele>
        <time>2022-07-30T09:18:29Z</time>
      </trkpt>
      <trkpt lat="47.26188" lon="-1.43625">
        <ele>58</ele>
        <time>2022-07-30T09:18:31Z</time>
      </trkpt>
      <trkpt lat="47.26182" lon="-1.4364">
        <ele>58</ele>
        <time>2022-07-30T09:18:33Z</time>
      </trkpt>
      <trkpt lat="47.26172" lon="-1.43654">
        <ele>58</ele>
        <time>2022-07-30T09:18:35Z</time>
      </trkpt>
      <trkpt lat="47.26163" lon="-1.43668">
        <ele>58</ele>
        <time>2022-07-30T09:18:37Z</time>
      </trkpt>
      <trkpt lat="47.26154" lon="-1.43682">
        <ele>57</ele>
        <time>2022-07-30T09:18:39Z</time>
      </trkpt>
      <trkpt lat="47.26146" lon="-1.43695">
        <ele>57</ele>
        <time>2022-07-30T09:18:41Z</time>
      </trkpt>
      <trkpt lat="47.26137" lon="-1.43708">
        <ele>57</ele>
        <time>2022-07-30T09:18:43Z</time>
      </trkpt>
      <trkpt lat="47.26129" lon="-1.43722">
        <ele>58</ele>
        <time>2022-07-30T09:18:45Z</time>
      </trkpt>
      <trkpt lat="47.26121" lon="-1.43736">
        <ele>58</ele>
        <time>2022-07-30T09:18:47Z</time>
      </trkpt>
      <trkpt lat="47.26111" lon="-1.43748">
        <ele>58</ele>
        <time>2022-07-30T09:18:49Z</time>
      </trkpt>
      <trkpt lat="47.26101" lon="-1.43759">
        <ele>58</ele>
        <time>2022-07-30T09:18:51Z</time>
      </trkpt>
      <trkpt lat="47.26091" lon="-1.4377">
        <ele>58</ele>
        <time>2022-07-30T09:18:53Z</time>
      </trkpt>
      <trkpt lat="47.26081" lon="-1.43783">
        <ele>58</ele>
        <time>2022-07-30T09:18:55Z</time>
      </trkpt>
      <trkpt lat="47.2607" lon="-1.43795">
        <ele>58</ele>
        <time>2022-07-30T09:18:57Z</time>
      </trkpt>
      <trkpt lat="47.2606" lon="-1.4381">
        <ele>57</ele>
        <time>2022-07-30T09:18:59Z</time>
      </trkpt>
      <trkpt lat="47.26051" lon="-1.43826">
        <ele>57</ele>
        <time>2022-07-30T09:19:01Z</time>
      </trkpt>
      <trkpt lat="47.26045" lon="-1.43843">
        <ele>57</ele>
        <time>2022-07-30T09:19:03Z</time>
      </trkpt>
      <trkpt lat="47.26037" lon="-1.43859">
        <ele>56</ele>
        <time>2022-07-30T09:19:05Z</time>
      </trkpt>
      <trkpt lat="47.26027" lon="-1.43871">
        <ele>56</ele>
        <time>2022-07-30T09:19:07Z</time>
      </trkpt>
      <trkpt lat="47.26015" lon="-1.43881">
        <ele>56</ele>
        <time>2022-07-30T09:19:09Z</time>
      </trkpt>
      <trkpt lat="47.26004" lon="-1.43892">
        <ele>56</ele>
        <time>2022-07-30T09:19:11Z</time>
      </trkpt>
      <trkpt lat="47.25994" lon="-1.43904">
        <ele>56</ele>
        <time>2022-07-30T09:19:13Z</time>
      </trkpt>
      <trkpt lat="47.25983" lon="-1.43915">
        <ele>56</ele>
        <time>2022-07-30T09:19:15Z</time>
      </trkpt>
      <trkpt lat="47.25973" lon="-1.43927">
        <ele>57</ele>
        <time>2022-07-30T09:19:17Z</time>
      </trkpt>
      <trkpt lat="47.25963" lon="-1.43939">
        <ele>57</ele>
        <time>2022-07-30T09:19:19Z</time>
      </trkpt>
      <trkpt lat="47.25953" lon="-1.4395">
        <ele>57</ele>
        <time>2022-07-30T09:19:21Z</time>
      </trkpt>
      <trkpt lat="47.25943" lon="-1.43962">
        <ele>57</ele>
        <time>2022-07-30T09:19:23Z</time>
      </trkpt>
      <trkpt lat="47.25933" lon="-1.43973">
        <ele>58</ele>
        <time>2022-07-30T09:19:25Z</time>
      </trkpt>
      <trkpt lat="47.25923" lon="-1.43984">
        <ele>59</ele>
        <time>2022-07-30T09:19:27Z</time>
      </trkpt>
      <trkpt lat="47.25911" lon="-1.43996">
        <ele>58</ele>
        <time>2022-07-30T09:19:29Z</time>
      </trkpt>
      <trkpt lat="47.259" lon="-1.44009">
        <ele>57</ele>
        <time>2022-07-30T09:19:31Z</time>
      </trkpt>
      <trkpt lat="47.2589" lon="-1.44021">
        <ele>57</ele>
        <time>2022-07-30T09:19:33Z</time>
      </trkpt>
      <trkpt lat="47.2588" lon="-1.44034">
        <ele>57</ele>
        <time>2022-07-30T09:19:35Z</time>
      </trkpt>
      <trkpt lat="47.25873" lon="-1.4405">
        <ele>57</ele>
        <time>2022-07-30T09:19:37Z</time>
      </trkpt>
      <trkpt lat="47.25868" lon="-1.44068">
        <ele>58</ele>
        <time>2022-07-30T09:19:39Z</time>
      </trkpt>
      <trkpt lat="47.2586" lon="-1.44083">
        <ele>57</ele>
        <time>2022-07-30T09:19:41Z</time>
      </trkpt>
      <trkpt lat="47.25851" lon="-1.44099">
        <ele>56</ele>
        <time>2022-07-30T09:19:43Z</time>
      </trkpt>
      <trkpt lat="47.25843" lon="-1.44109">
        <ele>56</ele>
        <time>2022-07-30T09:19:45Z</time>
      </trkpt>
      <trkpt lat="47.25834" lon="-1.44122">
        <ele>56</ele>
        <time>2022-07-30T09:19:47Z</time>
      </trkpt>
      <trkpt lat="47.25823" lon="-1.44135">
        <ele>55</ele>
        <time>2022-07-30T09:19:49Z</time>
      </trkpt>
      <trkpt lat="47.25811" lon="-1.44147">
        <ele>55</ele>
        <time>2022-07-30T09:19:51Z</time>
      </trkpt>
      <trkpt lat="47.25799" lon="-1.44159">
        <ele>55</ele>
        <time>2022-07-30T09:19:53Z</time>
      </trkpt>
      <trkpt lat="47.25788" lon="-1.44172">
        <ele>55</ele>
        <time>2022-07-30T09:19:55Z</time>
      </trkpt>
      <trkpt lat="47.25777" lon="-1.44185">
        <ele>55</ele>
        <time>2022-07-30T09:19:57Z</time>
      </trkpt>
      <trkpt lat="47.25766" lon="-1.44198">
        <ele>56</ele>
        <time>2022-07-30T09:19:59Z</time>
      </trkpt>
      <trkpt lat="47.25755" lon="-1.4421">
        <ele>56</ele>
        <time>2022-07-30T09:20:01Z</time>
      </trkpt>
      <trkpt lat="47.25743" lon="-1.44224">
        <ele>56</ele>
        <time>2022-07-30T09:20:03Z</time>
      </trkpt>
      <trkpt lat="47.25734" lon="-1.4424">
        <ele>57</ele>
        <time>2022-07-30T09:20:05Z</time>
      </trkpt>
      <trkpt lat="47.25722" lon="-1.44254">
        <ele>57</ele>
        <time>2022-07-30T09:20:07Z</time>
      </trkpt>
      <trkpt lat="47.25711" lon="-1.44267">
        <ele>57</ele>
        <time>2022-07-30T09:20:09Z</time>
      </trkpt>
      <trkpt lat="47.25699" lon="-1.4428">
        <ele>57</ele>
        <time>2022-07-30T09:20:11Z</time>
      </trkpt>
      <trkpt lat="47.25688" lon="-1.44293">
        <ele>57</ele>
        <time>2022-07-30T09:20:13Z</time>
      </trkpt>
      <trkpt lat="47.25678" lon="-1.44307">
        <ele>58</ele>
        <time>2022-07-30T09:20:15Z</time>
      </trkpt>
      <trkpt lat="47.25667" lon="-1.4432">
        <ele>58</ele>
        <time>2022-07-30T09:20:17Z</time>
      </trkpt>
      <trkpt lat="47.25657" lon="-1.44333">
        <ele>58</ele>
        <time>2022-07-30T09:20:19Z</time>
      </trkpt>
      <trkpt lat="47.25645" lon="-1.44345">
        <ele>58</ele>
        <time>2022-07-30T09:20:21Z</time>
      </trkpt>
      <trkpt lat="47.25634" lon="-1.44358">
        <ele>58</ele>
        <time>2022-07-30T09:20:23Z</time>
      </trkpt>
      <trkpt lat="47.25622" lon="-1.4437">
        <ele>58</ele>
        <time>2022-07-30T09:20:25Z</time>
      </trkpt>
      <trkpt lat="47.25611" lon="-1.44383">
        <ele>58</ele>
        <time>2022-07-30T09:20:27Z</time>
      </trkpt>
      <trkpt lat="47.256" lon="-1.44395">
        <ele>58</ele>
        <time>2022-07-30T09:20:29Z</time>
      </trkpt>
      <trkpt lat="47.25589" lon="-1.44408">
        <ele>58</ele>
        <time>2022-07-30T09:20:31Z</time>
      </trkpt>
      <trkpt lat="47.25578" lon="-1.44421">
        <ele>57</ele>
        <time>2022-07-30T09:20:33Z</time>
      </trkpt>
      <trkpt lat="47.25567" lon="-1.44434">
        <ele>57</ele>
        <time>2022-07-30T09:20:35Z</time>
      </trkpt>
      <trkpt lat="47.25557" lon="-1.44448">
        <ele>57</ele>
        <time>2022-07-30T09:20:37Z</time>
      </trkpt>
      <trkpt lat="47.25547" lon="-1.44462">
        <ele>57</ele>
        <time>2022-07-30T09:20:39Z</time>
      </trkpt>
      <trkpt lat="47.25537" lon="-1.44477">
        <ele>57</ele>
        <time>2022-07-30T09:20:41Z</time>
      </trkpt>
      <trkpt lat="47.25528" lon="-1.44492">
        <ele>58</ele>
        <time>2022-07-30T09:20:43Z</time>
      </trkpt>
      <trkpt lat="47.25519" lon="-1.44508">
        <ele>58</ele>
        <time>2022-07-30T09:20:45Z</time>
      </trkpt>
      <trkpt lat="47.25508" lon="-1.44523">
        <ele>57</ele>
        <time>2022-07-30T09:20:47Z</time>
      </trkpt>
      <trkpt lat="47.25497" lon="-1.44537">
        <ele>56</ele>
        <time>2022-07-30T09:20:49Z</time>
      </trkpt>
      <trkpt lat="47.25487" lon="-1.44551">
        <ele>56</ele>
        <time>2022-07-30T09:20:51Z</time>
      </trkpt>
      <trkpt lat="47.25477" lon="-1.44566">
        <ele>55</ele>
        <time>2022-07-30T09:20:53Z</time>
      </trkpt>
      <trkpt lat="47.25468" lon="-1.44582">
        <ele>55</ele>
        <time>2022-07-30T09:20:55Z</time>
      </trkpt>
      <trkpt lat="47.25458" lon="-1.44596">
        <ele>55</ele>
        <time>2022-07-30T09:20:57Z</time>
      </trkpt>
      <trkpt lat="47.25449" lon="-1.4461">
        <ele>56</ele>
        <time>2022-07-30T09:20:59Z</time>
      </trkpt>
      <trkpt lat="47.25438" lon="-1.44623">
        <ele>55</ele>
        <time>2022-07-30T09:21:01Z</time>
      </trkpt>
      <trkpt lat="47.25428" lon="-1.44635">
        <ele>56</ele>
        <time>2022-07-30T09:21:03Z</time>
      </trkpt>
      <trkpt lat="47.25419" lon="-1.44649">
        <ele>56</ele>
        <time>2022-07-30T09:21:05Z</time>
      </trkpt>
      <trkpt lat="47.25408" lon="-1.44663">
        <ele>56</ele>
        <time>2022-07-30T09:21:07Z</time>
      </trkpt>
      <trkpt lat="47.25399" lon="-1.44676">
        <ele>56</ele>
        <time>2022-07-30T09:21:09Z</time>
      </trkpt>
      <trkpt lat="47.25389" lon="-1.44688">
        <ele>57</ele>
        <time>2022-07-30T09:21:11Z</time>
      </trkpt>
      <trkpt lat="47.25379" lon="-1.44701">
        <ele>57</ele>
        <time>2022-07-30T09:21:13Z</time>
      </trkpt>
      <trkpt lat="47.25369" lon="-1.44712">
        <ele>58</ele>
        <time>2022-07-30T09:21:15Z</time>
      </trkpt>
      <trkpt lat="47.25359" lon="-1.44724">
        <ele>58</ele>
        <time>2022-07-30T09:21:17Z</time>
      </trkpt>
      <trkpt lat="47.25348" lon="-1.44735">
        <ele>58</ele>
        <time>2022-07-30T09:21:19Z</time>
      </trkpt>
      <trkpt lat="47.25337" lon="-1.44746">
        <ele>59</ele>
        <time>2022-07-30T09:21:21Z</time>
      </trkpt>
      <trkpt lat="47.25327" lon="-1.44757">
        <ele>59</ele>
        <time>2022-07-30T09:21:23Z</time>
      </trkpt>
      <trkpt lat="47.25316" lon="-1.44769">
        <ele>58</ele>
        <time>2022-07-30T09:21:25Z</time>
      </trkpt>
      <trkpt lat="47.25306" lon="-1.44781">
        <ele>58</ele>
        <time>2022-07-30T09:21:27Z</time>
      </trkpt>
      <trkpt lat="47.25297" lon="-1.4479">
        <ele>59</ele>
        <time>2022-07-30T09:21:29Z</time>
      </trkpt>
      <trkpt lat="47.25287" lon="-1.448">
        <ele>60</ele>
        <time>2022-07-30T09:21:31Z</time>
      </trkpt>
      <trkpt lat="47.25276" lon="-1.44813">
        <ele>60</ele>
        <time>2022-07-30T09:21:33Z</time>
      </trkpt>
      <trkpt lat="47.25265" lon="-1.44827">
        <ele>60</ele>
        <time>2022-07-30T09:21:35Z</time>
      </trkpt>
      <trkpt lat="47.25252" lon="-1.44841">
        <ele>59</ele>
        <time>2022-07-30T09:21:37Z</time>
      </trkpt>
      <trkpt lat="47.2524" lon="-1.44853">
        <ele>60</ele>
        <time>2022-07-30T09:21:39Z</time>
      </trkpt>
      <trkpt lat="47.25228" lon="-1.44865">
        <ele>60</ele>
        <time>2022-07-30T09:21:41Z</time>
      </trkpt>
      <trkpt lat="47.25216" lon="-1.44875">
        <ele>61</ele>
        <time>2022-07-30T09:21:43Z</time>
      </trkpt>
      <trkpt lat="47.25203" lon="-1.44886">
        <ele>60</ele>
        <time>2022-07-30T09:21:45Z</time>
      </trkpt>
      <trkpt lat="47.25191" lon="-1.44896">
        <ele>60</ele>
        <time>2022-07-30T09:21:47Z</time>
      </trkpt>
      <trkpt lat="47.25178" lon="-1.44905">
        <ele>59</ele>
        <time>2022-07-30T09:21:49Z</time>
      </trkpt>
      <trkpt lat="47.25166" lon="-1.44916">
        <ele>59</ele>
        <time>2022-07-30T09:21:51Z</time>
      </trkpt>
      <trkpt lat="47.25154" lon="-1.44927">
        <ele>59</ele>
        <time>2022-07-30T09:21:53Z</time>
      </trkpt>
      <trkpt lat="47.25142" lon="-1.44939">
        <ele>59</ele>
        <time>2022-07-30T09:21:55Z</time>
      </trkpt>
      <trkpt lat="47.25131" lon="-1.4495">
        <ele>58</ele>
        <time>2022-07-30T09:21:57Z</time>
      </trkpt>
      <trkpt lat="47.25119" lon="-1.44962">
        <ele>58</ele>
        <time>2022-07-30T09:21:59Z</time>
      </trkpt>
      <trkpt lat="47.25107" lon="-1.44972">
        <ele>57</ele>
        <time>2022-07-30T09:22:01Z</time>
      </trkpt>
      <trkpt lat="47.25096" lon="-1.44982">
        <ele>57</ele>
        <time>2022-07-30T09:22:03Z</time>
      </trkpt>
      <trkpt lat="47.25084" lon="-1.44992">
        <ele>58</ele>
        <time>2022-07-30T09:22:05Z</time>
      </trkpt>
      <trkpt lat="47.25072" lon="-1.45002">
        <ele>58</ele>
        <time>2022-07-30T09:22:07Z</time>
      </trkpt>
      <trkpt lat="47.25061" lon="-1.4501">
        <ele>59</ele>
        <time>2022-07-30T09:22:09Z</time>
      </trkpt>
      <trkpt lat="47.25048" lon="-1.45019">
        <ele>59</ele>
        <time>2022-07-30T09:22:11Z</time>
      </trkpt>
      <trkpt lat="47.25037" lon="-1.45029">
        <ele>59</ele>
        <time>2022-07-30T09:22:13Z</time>
      </trkpt>
      <trkpt lat="47.25024" lon="-1.45039">
        <ele>60</ele>
        <time>2022-07-30T09:22:15Z</time>
      </trkpt>
      <trkpt lat="47.25013" lon="-1.4505">
        <ele>60</ele>
        <time>2022-07-30T09:22:17Z</time>
      </trkpt>
      <trkpt lat="47.25002" lon="-1.45062">
        <ele>60</ele>
        <time>2022-07-30T09:22:19Z</time>
      </trkpt>
      <trkpt lat="47.24991" lon="-1.45075">
        <ele>60</ele>
        <time>2022-07-30T09:22:21Z</time>
      </trkpt>
      <trkpt lat="47.2498" lon="-1.45087">
        <ele>60</ele>
        <time>2022-07-30T09:22:23Z</time>
      </trkpt>
      <trkpt lat="47.24969" lon="-1.45099">
        <ele>60</ele>
        <time>2022-07-30T09:22:25Z</time>
      </trkpt>
      <trkpt lat="47.24958" lon="-1.45111">
        <ele>59</ele>
        <time>2022-07-30T09:22:27Z</time>
      </trkpt>
      <trkpt lat="47.24947" lon="-1.45123">
        <ele>59</ele>
        <time>2022-07-30T09:22:29Z</time>
      </trkpt>
      <trkpt lat="47.24936" lon="-1.45135">
        <ele>59</ele>
        <time>2022-07-30T09:22:31Z</time>
      </trkpt>
      <trkpt lat="47.24924" lon="-1.45147">
        <ele>59</ele>
        <time>2022-07-30T09:22:33Z</time>
      </trkpt>
      <trkpt lat="47.24912" lon="-1.45159">
        <ele>59</ele>
        <time>2022-07-30T09:22:35Z</time>
      </trkpt>
      <trkpt lat="47.24901" lon="-1.45172">
        <ele>59</ele>
        <time>2022-07-30T09:22:37Z</time>
      </trkpt>
      <trkpt lat="47.24892" lon="-1.45185">
        <ele>60</ele>
        <time>2022-07-30T09:22:39Z</time>
      </trkpt>
      <trkpt lat="47.24884" lon="-1.45199">
        <ele>61</ele>
        <time>2022-07-30T09:22:41Z</time>
      </trkpt>
      <trkpt lat="47.24874" lon="-1.45211">
        <ele>61</ele>
        <time>2022-07-30T09:22:43Z</time>
      </trkpt>
      <trkpt lat="47.24864" lon="-1.45224">
        <ele>62</ele>
        <time>2022-07-30T09:22:45Z</time>
      </trkpt>
      <trkpt lat="47.24854" lon="-1.45238">
        <ele>61</ele>
        <time>2022-07-30T09:22:47Z</time>
      </trkpt>
      <trkpt lat="47.24845" lon="-1.45252">
        <ele>62</ele>
        <time>2022-07-30T09:22:49Z</time>
      </trkpt>
      <trkpt lat="47.24838" lon="-1.45266">
        <ele>62</ele>
        <time>2022-07-30T09:22:51Z</time>
      </trkpt>
      <trkpt lat="47.24832" lon="-1.45279">
        <ele>62</ele>
        <time>2022-07-30T09:22:53Z</time>
      </trkpt>
      <trkpt lat="47.24826" lon="-1.45294">
        <ele>62</ele>
        <time>2022-07-30T09:22:55Z</time>
      </trkpt>
      <trkpt lat="47.24818" lon="-1.4531">
        <ele>62</ele>
        <time>2022-07-30T09:22:57Z</time>
      </trkpt>
      <trkpt lat="47.24809" lon="-1.45327">
        <ele>63</ele>
        <time>2022-07-30T09:22:59Z</time>
      </trkpt>
      <trkpt lat="47.248" lon="-1.45343">
        <ele>62</ele>
        <time>2022-07-30T09:23:01Z</time>
      </trkpt>
      <trkpt lat="47.24791" lon="-1.4536">
        <ele>63</ele>
        <time>2022-07-30T09:23:03Z</time>
      </trkpt>
      <trkpt lat="47.24783" lon="-1.45378">
        <ele>62</ele>
        <time>2022-07-30T09:23:05Z</time>
      </trkpt>
      <trkpt lat="47.24777" lon="-1.45396">
        <ele>61</ele>
        <time>2022-07-30T09:23:07Z</time>
      </trkpt>
      <trkpt lat="47.2477" lon="-1.45413">
        <ele>60</ele>
        <time>2022-07-30T09:23:09Z</time>
      </trkpt>
      <trkpt lat="47.24763" lon="-1.45429">
        <ele>60</ele>
        <time>2022-07-30T09:23:11Z</time>
      </trkpt>
      <trkpt lat="47.24757" lon="-1.45446">
        <ele>59</ele>
        <time>2022-07-30T09:23:13Z</time>
      </trkpt>
      <trkpt lat="47.24751" lon="-1.45463">
        <ele>58</ele>
        <time>2022-07-30T09:23:15Z</time>
      </trkpt>
      <trkpt lat="47.24745" lon="-1.45479">
        <ele>58</ele>
        <time>2022-07-30T09:23:17Z</time>
      </trkpt>
      <trkpt lat="47.24738" lon="-1.45495">
        <ele>57</ele>
        <time>2022-07-30T09:23:19Z</time>
      </trkpt>
      <trkpt lat="47.24732" lon="-1.45512">
        <ele>57</ele>
        <time>2022-07-30T09:23:21Z</time>
      </trkpt>
      <trkpt lat="47.24726" lon="-1.45529">
        <ele>57</ele>
        <time>2022-07-30T09:23:23Z</time>
      </trkpt>
      <trkpt lat="47.2472" lon="-1.45545">
        <ele>56</ele>
        <time>2022-07-30T09:23:25Z</time>
      </trkpt>
      <trkpt lat="47.24714" lon="-1.45561">
        <ele>56</ele>
        <time>2022-07-30T09:23:27Z</time>
      </trkpt>
      <trkpt lat="47.24707" lon="-1.45578">
        <ele>56</ele>
        <time>2022-07-30T09:23:29Z</time>
      </trkpt>
      <trkpt lat="47.24703" lon="-1.45595">
        <ele>56</ele>
        <time>2022-07-30T09:23:31Z</time>
      </trkpt>
      <trkpt lat="47.24698" lon="-1.45613">
        <ele>56</ele>
        <time>2022-07-30T09:23:33Z</time>
      </trkpt>
      <trkpt lat="47.24692" lon="-1.4563">
        <ele>56</ele>
        <time>2022-07-30T09:23:35Z</time>
      </trkpt>
      <trkpt lat="47.24686" lon="-1.45648">
        <ele>56</ele>
        <time>2022-07-30T09:23:37Z</time>
      </trkpt>
      <trkpt lat="47.24681" lon="-1.45665">
        <ele>56</ele>
        <time>2022-07-30T09:23:39Z</time>
      </trkpt>
      <trkpt lat="47.24677" lon="-1.45683">
        <ele>56</ele>
        <time>2022-07-30T09:23:41Z</time>
      </trkpt>
      <trkpt lat="47.24673" lon="-1.457">
        <ele>56</ele>
        <time>2022-07-30T09:23:43Z</time>
      </trkpt>
      <trkpt lat="47.24669" lon="-1.45719">
        <ele>56</ele>
        <time>2022-07-30T09:23:45Z</time>
      </trkpt>
      <trkpt lat="47.24665" lon="-1.45738">
        <ele>57</ele>
        <time>2022-07-30T09:23:47Z</time>
      </trkpt>
      <trkpt lat="47.2466" lon="-1.45756">
        <ele>57</ele>
        <time>2022-07-30T09:23:49Z</time>
      </trkpt>
      <trkpt lat="47.24655" lon="-1.45774">
        <ele>57</ele>
        <time>2022-07-30T09:23:51Z</time>
      </trkpt>
      <trkpt lat="47.2465" lon="-1.45792">
        <ele>57</ele>
        <time>2022-07-30T09:23:53Z</time>
      </trkpt>
      <trkpt lat="47.24645" lon="-1.4581">
        <ele>59</ele>
        <time>2022-07-30T09:23:55Z</time>
      </trkpt>
      <trkpt lat="47.2464" lon="-1.45829">
        <ele>60</ele>
        <time>2022-07-30T09:23:57Z</time>
      </trkpt>
      <trkpt lat="47.24634" lon="-1.45849">
        <ele>60</ele>
        <time>2022-07-30T09:23:59Z</time>
      </trkpt>
      <trkpt lat="47.24629" lon="-1.45868">
        <ele>61</ele>
        <time>2022-07-30T09:24:01Z</time>
      </trkpt>
      <trkpt lat="47.24623" lon="-1.45888">
        <ele>62</ele>
        <time>2022-07-30T09:24:03Z</time>
      </trkpt>
      <trkpt lat="47.24617" lon="-1.45907">
        <ele>62</ele>
        <time>2022-07-30T09:24:05Z</time>
      </trkpt>
      <trkpt lat="47.2461" lon="-1.45926">
        <ele>61</ele>
        <time>2022-07-30T09:24:07Z</time>
      </trkpt>
      <trkpt lat="47.24603" lon="-1.45943">
        <ele>60</ele>
        <time>2022-07-30T09:24:09Z</time>
      </trkpt>
      <trkpt lat="47.24596" lon="-1.45959">
        <ele>62</ele>
        <time>2022-07-30T09:24:11Z</time>
      </trkpt>
      <trkpt lat="47.24587" lon="-1.45975">
        <ele>62</ele>
        <time>2022-07-30T09:24:13Z</time>
      </trkpt>
      <trkpt lat="47.24579" lon="-1.45993">
        <ele>62</ele>
        <time>2022-07-30T09:24:15Z</time>
      </trkpt>
      <trkpt lat="47.24571" lon="-1.46012">
        <ele>62</ele>
        <time>2022-07-30T09:24:17Z</time>
      </trkpt>
      <trkpt lat="47.24563" lon="-1.4603">
        <ele>62</ele>
        <time>2022-07-30T09:24:19Z</time>
      </trkpt>
      <trkpt lat="47.24554" lon="-1.46047">
        <ele>61</ele>
        <time>2022-07-30T09:24:21Z</time>
      </trkpt>
      <trkpt lat="47.24546" lon="-1.46064">
        <ele>61</ele>
        <time>2022-07-30T09:24:23Z</time>
      </trkpt>
      <trkpt lat="47.24537" lon="-1.46082">
        <ele>60</ele>
        <time>2022-07-30T09:24:25Z</time>
      </trkpt>
      <trkpt lat="47.24528" lon="-1.46099">
        <ele>60</ele>
        <time>2022-07-30T09:24:27Z</time>
      </trkpt>
      <trkpt lat="47.24518" lon="-1.46115">
        <ele>59</ele>
        <time>2022-07-30T09:24:29Z</time>
      </trkpt>
      <trkpt lat="47.24506" lon="-1.46129">
        <ele>59</ele>
        <time>2022-07-30T09:24:31Z</time>
      </trkpt>
      <trkpt lat="47.24494" lon="-1.46142">
        <ele>60</ele>
        <time>2022-07-30T09:24:33Z</time>
      </trkpt>
      <trkpt lat="47.24483" lon="-1.46157">
        <ele>59</ele>
        <time>2022-07-30T09:24:35Z</time>
      </trkpt>
      <trkpt lat="47.24471" lon="-1.4617">
        <ele>57</ele>
        <time>2022-07-30T09:24:37Z</time>
      </trkpt>
      <trkpt lat="47.2446" lon="-1.46183">
        <ele>57</ele>
        <time>2022-07-30T09:24:39Z</time>
      </trkpt>
      <trkpt lat="47.24449" lon="-1.46197">
        <ele>57</ele>
        <time>2022-07-30T09:24:41Z</time>
      </trkpt>
      <trkpt lat="47.24438" lon="-1.4621">
        <ele>58</ele>
        <time>2022-07-30T09:24:43Z</time>
      </trkpt>
      <trkpt lat="47.24427" lon="-1.46223">
        <ele>58</ele>
        <time>2022-07-30T09:24:45Z</time>
      </trkpt>
      <trkpt lat="47.24416" lon="-1.46237">
        <ele>58</ele>
        <time>2022-07-30T09:24:47Z</time>
      </trkpt>
      <trkpt lat="47.24406" lon="-1.46251">
        <ele>59</ele>
        <time>2022-07-30T09:24:49Z</time>
      </trkpt>
      <trkpt lat="47.24397" lon="-1.46265">
        <ele>59</ele>
        <time>2022-07-30T09:24:51Z</time>
      </trkpt>
      <trkpt lat="47.24387" lon="-1.46279">
        <ele>59</ele>
        <time>2022-07-30T09:24:53Z</time>
      </trkpt>
      <trkpt lat="47.24377" lon="-1.46294">
        <ele>58</ele>
        <time>2022-07-30T09:24:55Z</time>
      </trkpt>
      <trkpt lat="47.24367" lon="-1.46309">
        <ele>58</ele>
        <time>2022-07-30T09:24:57Z</time>
      </trkpt>
      <trkpt lat="47.24359" lon="-1.46324">
        <ele>58</ele>
        <time>2022-07-30T09:24:59Z</time>
      </trkpt>
      <trkpt lat="47.2435" lon="-1.46338">
        <ele>57</ele>
        <time>2022-07-30T09:25:01Z</time>
      </trkpt>
      <trkpt lat="47.2434" lon="-1.46353">
        <ele>57</ele>
        <time>2022-07-30T09:25:03Z</time>
      </trkpt>
      <trkpt lat="47.24331" lon="-1.46369">
        <ele>57</ele>
        <time>2022-07-30T09:25:05Z</time>
      </trkpt>
      <trkpt lat="47.2432" lon="-1.46384">
        <ele>57</ele>
        <time>2022-07-30T09:25:07Z</time>
      </trkpt>
      <trkpt lat="47.24312" lon="-1.464">
        <ele>57</ele>
        <time>2022-07-30T09:25:09Z</time>
      </trkpt>
      <trkpt lat="47.24303" lon="-1.46416">
        <ele>56</ele>
        <time>2022-07-30T09:25:11Z</time>
      </trkpt>
      <trkpt lat="47.24295" lon="-1.46431">
        <ele>57</ele>
        <time>2022-07-30T09:25:13Z</time>
      </trkpt>
      <trkpt lat="47.24285" lon="-1.46446">
        <ele>56</ele>
        <time>2022-07-30T09:25:15Z</time>
      </trkpt>
      <trkpt lat="47.24275" lon="-1.46459">
        <ele>56</ele>
        <time>2022-07-30T09:25:17Z</time>
      </trkpt>
      <trkpt lat="47.24265" lon="-1.46473">
        <ele>56</ele>
        <time>2022-07-30T09:25:19Z</time>
      </trkpt>
      <trkpt lat="47.24256" lon="-1.46484">
        <ele>56</ele>
        <time>2022-07-30T09:25:21Z</time>
      </trkpt>
      <trkpt lat="47.24246" lon="-1.46496">
        <ele>56</ele>
        <time>2022-07-30T09:25:23Z</time>
      </trkpt>
      <trkpt lat="47.24236" lon="-1.4651">
        <ele>56</ele>
        <time>2022-07-30T09:25:25Z</time>
      </trkpt>
      <trkpt lat="47.24226" lon="-1.46522">
        <ele>56</ele>
        <time>2022-07-30T09:25:27Z</time>
      </trkpt>
      <trkpt lat="47.24215" lon="-1.46535">
        <ele>56</ele>
        <time>2022-07-30T09:25:29Z</time>
      </trkpt>
      <trkpt lat="47.24205" lon="-1.46548">
        <ele>56</ele>
        <time>2022-07-30T09:25:31Z</time>
      </trkpt>
      <trkpt lat="47.24195" lon="-1.46561">
        <ele>56</ele>
        <time>2022-07-30T09:25:33Z</time>
      </trkpt>
      <trkpt lat="47.24185" lon="-1.46574">
        <ele>56</ele>
        <time>2022-07-30T09:25:35Z</time>
      </trkpt>
      <trkpt lat="47.24175" lon="-1.46587">
        <ele>56</ele>
        <time>2022-07-30T09:25:37Z</time>
      </trkpt>
      <trkpt lat="47.24164" lon="-1.46598">
        <ele>56</ele>
        <time>2022-07-30T09:25:39Z</time>
      </trkpt>
      <trkpt lat="47.24154" lon="-1.46609">
        <ele>56</ele>
        <time>2022-07-30T09:25:41Z</time>
      </trkpt>
      <trkpt lat="47.24146" lon="-1.46623">
        <ele>56</ele>
        <time>2022-07-30T09:25:43Z</time>
      </trkpt>
      <trkpt lat="47.24137" lon="-1.46636">
        <ele>55</ele>
        <time>2022-07-30T09:25:45Z</time>
      </trkpt>
      <trkpt lat="47.24127" lon="-1.46651">
        <ele>55</ele>
        <time>2022-07-30T09:25:47Z</time>
      </trkpt>
      <trkpt lat="47.24119" lon="-1.46665">
        <ele>55</ele>
        <time>2022-07-30T09:25:49Z</time>
      </trkpt>
      <trkpt lat="47.24109" lon="-1.46678">
        <ele>56</ele>
        <time>2022-07-30T09:25:51Z</time>
      </trkpt>
      <trkpt lat="47.24099" lon="-1.46692">
        <ele>56</ele>
        <time>2022-07-30T09:25:53Z</time>
      </trkpt>
      <trkpt lat="47.2409" lon="-1.46707">
        <ele>56</ele>
        <time>2022-07-30T09:25:55Z</time>
      </trkpt>
      <trkpt lat="47.24083" lon="-1.46721">
        <ele>56</ele>
        <time>2022-07-30T09:25:57Z</time>
      </trkpt>
      <trkpt lat="47.24077" lon="-1.46734">
        <ele>56</ele>
        <time>2022-07-30T09:25:59Z</time>
      </trkpt>
      <trkpt lat="47.24067" lon="-1.46745">
        <ele>56</ele>
        <time>2022-07-30T09:26:01Z</time>
      </trkpt>
      <trkpt lat="47.24054" lon="-1.46753">
        <ele>55</ele>
        <time>2022-07-30T09:26:03Z</time>
      </trkpt>
      <trkpt lat="47.24042" lon="-1.46764">
        <ele>55</ele>
        <time>2022-07-30T09:26:05Z</time>
      </trkpt>
      <trkpt lat="47.24031" lon="-1.46775">
        <ele>55</ele>
        <time>2022-07-30T09:26:07Z</time>
      </trkpt>
      <trkpt lat="47.24021" lon="-1.46786">
        <ele>55</ele>
        <time>2022-07-30T09:26:09Z</time>
      </trkpt>
      <trkpt lat="47.2401" lon="-1.46798">
        <ele>54</ele>
        <time>2022-07-30T09:26:11Z</time>
      </trkpt>
      <trkpt lat="47.23999" lon="-1.4681">
        <ele>54</ele>
        <time>2022-07-30T09:26:13Z</time>
      </trkpt>
      <trkpt lat="47.23989" lon="-1.4682">
        <ele>54</ele>
        <time>2022-07-30T09:26:15Z</time>
      </trkpt>
      <trkpt lat="47.23979" lon="-1.46831">
        <ele>54</ele>
        <time>2022-07-30T09:26:17Z</time>
      </trkpt>
      <trkpt lat="47.23969" lon="-1.46842">
        <ele>54</ele>
        <time>2022-07-30T09:26:19Z</time>
      </trkpt>
      <trkpt lat="47.23959" lon="-1.46852">
        <ele>54</ele>
        <time>2022-07-30T09:26:21Z</time>
      </trkpt>
      <trkpt lat="47.23949" lon="-1.46861">
        <ele>55</ele>
        <time>2022-07-30T09:26:23Z</time>
      </trkpt>
      <trkpt lat="47.23938" lon="-1.46869">
        <ele>55</ele>
        <time>2022-07-30T09:26:25Z</time>
      </trkpt>
      <trkpt lat="47.23928" lon="-1.46879">
        <ele>55</ele>
        <time>2022-07-30T09:26:27Z</time>
      </trkpt>
      <trkpt lat="47.23916" lon="-1.46892">
        <ele>54</ele>
        <time>2022-07-30T09:26:29Z</time>
      </trkpt>
      <trkpt lat="47.23905" lon="-1.46908">
        <ele>55</ele>
        <time>2022-07-30T09:26:31Z</time>
      </trkpt>
      <trkpt lat="47.23894" lon="-1.46922">
        <ele>55</ele>
        <time>2022-07-30T09:26:33Z</time>
      </trkpt>
      <trkpt lat="47.23884" lon="-1.46936">
        <ele>55</ele>
        <time>2022-07-30T09:26:35Z</time>
      </trkpt>
      <trkpt lat="47.23874" lon="-1.46951">
        <ele>55</ele>
        <time>2022-07-30T09:26:37Z</time>
      </trkpt>
      <trkpt lat="47.23863" lon="-1.46966">
        <ele>55</ele>
        <time>2022-07-30T09:26:39Z</time>
      </trkpt>
      <trkpt lat="47.23852" lon="-1.46981">
        <ele>55</ele>
        <time>2022-07-30T09:26:41Z</time>
      </trkpt>
      <trkpt lat="47.23841" lon="-1.46996">
        <ele>55</ele>
        <time>2022-07-30T09:26:43Z</time>
      </trkpt>
      <trkpt lat="47.2383" lon="-1.4701">
        <ele>55</ele>
        <time>2022-07-30T09:26:45Z</time>
      </trkpt>
      <trkpt lat="47.23819" lon="-1.47025">
        <ele>55</ele>
        <time>2022-07-30T09:26:47Z</time>
      </trkpt>
      <trkpt lat="47.23809" lon="-1.4704">
        <ele>55</ele>
        <time>2022-07-30T09:26:49Z</time>
      </trkpt>
      <trkpt lat="47.23799" lon="-1.47055">
        <ele>55</ele>
        <time>2022-07-30T09:26:51Z</time>
      </trkpt>
      <trkpt lat="47.23788" lon="-1.4707">
        <ele>55</ele>
        <time>2022-07-30T09:26:53Z</time>
      </trkpt>
      <trkpt lat="47.23778" lon="-1.47085">
        <ele>55</ele>
        <time>2022-07-30T09:26:55Z</time>
      </trkpt>
      <trkpt lat="47.23768" lon="-1.471">
        <ele>54</ele>
        <time>2022-07-30T09:26:57Z</time>
      </trkpt>
      <trkpt lat="47.23757" lon="-1.47114">
        <ele>54</ele>
        <time>2022-07-30T09:26:59Z</time>
      </trkpt>
      <trkpt lat="47.23747" lon="-1.47127">
        <ele>54</ele>
        <time>2022-07-30T09:27:01Z</time>
      </trkpt>
      <trkpt lat="47.23735" lon="-1.47139">
        <ele>55</ele>
        <time>2022-07-30T09:27:03Z</time>
      </trkpt>
      <trkpt lat="47.23724" lon="-1.47154">
        <ele>55</ele>
        <time>2022-07-30T09:27:05Z</time>
      </trkpt>
      <trkpt lat="47.23714" lon="-1.47167">
        <ele>55</ele>
        <time>2022-07-30T09:27:07Z</time>
      </trkpt>
      <trkpt lat="47.23704" lon="-1.47181">
        <ele>55</ele>
        <time>2022-07-30T09:27:09Z</time>
      </trkpt>
      <trkpt lat="47.23694" lon="-1.47196">
        <ele>55</ele>
        <time>2022-07-30T09:27:11Z</time>
      </trkpt>
      <trkpt lat="47.23685" lon="-1.47212">
        <ele>55</ele>
        <time>2022-07-30T09:27:13Z</time>
      </trkpt>
      <trkpt lat="47.23673" lon="-1.47227">
        <ele>54</ele>
        <time>2022-07-30T09:27:15Z</time>
      </trkpt>
      <trkpt lat="47.23662" lon="-1.47239">
        <ele>55</ele>
        <time>2022-07-30T09:27:17Z</time>
      </trkpt>
      <trkpt lat="47.23651" lon="-1.47252">
        <ele>55</ele>
        <time>2022-07-30T09:27:19Z</time>
      </trkpt>
      <trkpt lat="47.2364" lon="-1.47264">
        <ele>55</ele>
        <time>2022-07-30T09:27:21Z</time>
      </trkpt>
      <trkpt lat="47.23629" lon="-1.47277">
        <ele>55</ele>
        <time>2022-07-30T09:27:23Z</time>
      </trkpt>
      <trkpt lat="47.23618" lon="-1.47289">
        <ele>55</ele>
        <time>2022-07-30T09:27:25Z</time>
      </trkpt>
      <trkpt lat="47.23607" lon="-1.47301">
        <ele>55</ele>
        <time>2022-07-30T09:27:27Z</time>
      </trkpt>
      <trkpt lat="47.23596" lon="-1.47313">
        <ele>55</ele>
        <time>2022-07-30T09:27:29Z</time>
      </trkpt>
      <trkpt lat="47.23585" lon="-1.47323">
        <ele>55</ele>
        <time>2022-07-30T09:27:31Z</time>
      </trkpt>
      <trkpt lat="47.23573" lon="-1.47333">
        <ele>55</ele>
        <time>2022-07-30T09:27:33Z</time>
      </trkpt>
      <trkpt lat="47.23562" lon="-1.47343">
        <ele>55</ele>
        <time>2022-07-30T09:27:35Z</time>
      </trkpt>
      <trkpt lat="47.2355" lon="-1.47352">
        <ele>55</ele>
        <time>2022-07-30T09:27:37Z</time>
      </trkpt>
      <trkpt lat="47.23539" lon="-1.47362">
        <ele>55</ele>
        <time>2022-07-30T09:27:39Z</time>
      </trkpt>
      <trkpt lat="47.23527" lon="-1.47372">
        <ele>55</ele>
        <time>2022-07-30T09:27:41Z</time>
      </trkpt>
      <trkpt lat="47.23516" lon="-1.4738">
        <ele>55</ele>
        <time>2022-07-30T09:27:43Z</time>
      </trkpt>
      <trkpt lat="47.23504" lon="-1.4739">
        <ele>55</ele>
        <time>2022-07-30T09:27:45Z</time>
      </trkpt>
      <trkpt lat="47.23492" lon="-1.47399">
        <ele>55</ele>
        <time>2022-07-30T09:27:47Z</time>
      </trkpt>
      <trkpt lat="47.2348" lon="-1.47405">
        <ele>55</ele>
        <time>2022-07-30T09:27:49Z</time>
      </trkpt>
      <trkpt lat="47.23467" lon="-1.4741">
        <ele>55</ele>
        <time>2022-07-30T09:27:51Z</time>
      </trkpt>
      <trkpt lat="47.23454" lon="-1.47416">
        <ele>56</ele>
        <time>2022-07-30T09:27:53Z</time>
      </trkpt>
      <trkpt lat="47.23442" lon="-1.47422">
        <ele>56</ele>
        <time>2022-07-30T09:27:55Z</time>
      </trkpt>
      <trkpt lat="47.2343" lon="-1.47426">
        <ele>56</ele>
        <time>2022-07-30T09:27:57Z</time>
      </trkpt>
      <trkpt lat="47.23419" lon="-1.47433">
        <ele>55</ele>
        <time>2022-07-30T09:27:59Z</time>
      </trkpt>
      <trkpt lat="47.23408" lon="-1.47443">
        <ele>55</ele>
        <time>2022-07-30T09:28:01Z</time>
      </trkpt>
      <trkpt lat="47.23397" lon="-1.47452">
        <ele>55</ele>
        <time>2022-07-30T09:28:03Z</time>
      </trkpt>
      <trkpt lat="47.23384" lon="-1.47459">
        <ele>54</ele>
        <time>2022-07-30T09:28:05Z</time>
      </trkpt>
      <trkpt lat="47.23372" lon="-1.47465">
        <ele>54</ele>
        <time>2022-07-30T09:28:07Z</time>
      </trkpt>
      <trkpt lat="47.2336" lon="-1.4747">
        <ele>54</ele>
        <time>2022-07-30T09:28:09Z</time>
      </trkpt>
      <trkpt lat="47.23349" lon="-1.47474">
        <ele>53</ele>
        <time>2022-07-30T09:28:11Z</time>
      </trkpt>
      <trkpt lat="47.23338" lon="-1.47481">
        <ele>53</ele>
        <time>2022-07-30T09:28:13Z</time>
      </trkpt>
      <trkpt lat="47.23327" lon="-1.47488">
        <ele>53</ele>
        <time>2022-07-30T09:28:15Z</time>
      </trkpt>
      <trkpt lat="47.23315" lon="-1.47496">
        <ele>54</ele>
        <time>2022-07-30T09:28:17Z</time>
      </trkpt>
      <trkpt lat="47.23303" lon="-1.47504">
        <ele>54</ele>
        <time>2022-07-30T09:28:19Z</time>
      </trkpt>
      <trkpt lat="47.23292" lon="-1.4751">
        <ele>56</ele>
        <time>2022-07-30T09:28:21Z</time>
      </trkpt>
      <trkpt lat="47.23282" lon="-1.47517">
        <ele>56</ele>
        <time>2022-07-30T09:28:23Z</time>
      </trkpt>
      <trkpt lat="47.23271" lon="-1.47524">
        <ele>56</ele>
        <time>2022-07-30T09:28:25Z</time>
      </trkpt>
      <trkpt lat="47.23261" lon="-1.47537">
        <ele>55</ele>
        <time>2022-07-30T09:28:27Z</time>
      </trkpt>
      <trkpt lat="47.23253" lon="-1.47552">
        <ele>55</ele>
        <time>2022-07-30T09:28:29Z</time>
      </trkpt>
      <trkpt lat="47.23245" lon="-1.47567">
        <ele>55</ele>
        <time>2022-07-30T09:28:31Z</time>
      </trkpt>
      <trkpt lat="47.23238" lon="-1.47582">
        <ele>55</ele>
        <time>2022-07-30T09:28:33Z</time>
      </trkpt>
      <trkpt lat="47.2323" lon="-1.47595">
        <ele>56</ele>
        <time>2022-07-30T09:28:35Z</time>
      </trkpt>
      <trkpt lat="47.23223" lon="-1.4761">
        <ele>57</ele>
        <time>2022-07-30T09:28:37Z</time>
      </trkpt>
      <trkpt lat="47.23216" lon="-1.47625">
        <ele>57</ele>
        <time>2022-07-30T09:28:39Z</time>
      </trkpt>
      <trkpt lat="47.23211" lon="-1.4764">
        <ele>57</ele>
        <time>2022-07-30T09:28:41Z</time>
      </trkpt>
      <trkpt lat="47.23205" lon="-1.47657">
        <ele>57</ele>
        <time>2022-07-30T09:28:43Z</time>
      </trkpt>
      <trkpt lat="47.23198" lon="-1.47673">
        <ele>58</ele>
        <time>2022-07-30T09:28:45Z</time>
      </trkpt>
      <trkpt lat="47.23191" lon="-1.47689">
        <ele>57</ele>
        <time>2022-07-30T09:28:47Z</time>
      </trkpt>
      <trkpt lat="47.23185" lon="-1.47705">
        <ele>57</ele>
        <time>2022-07-30T09:28:49Z</time>
      </trkpt>
      <trkpt lat="47.23178" lon="-1.47722">
        <ele>57</ele>
        <time>2022-07-30T09:28:51Z</time>
      </trkpt>
      <trkpt lat="47.2317" lon="-1.47738">
        <ele>56</ele>
        <time>2022-07-30T09:28:53Z</time>
      </trkpt>
      <trkpt lat="47.23163" lon="-1.47755">
        <ele>56</ele>
        <time>2022-07-30T09:28:55Z</time>
      </trkpt>
      <trkpt lat="47.23155" lon="-1.47772">
        <ele>56</ele>
        <time>2022-07-30T09:28:57Z</time>
      </trkpt>
      <trkpt lat="47.2315" lon="-1.47787">
        <ele>56</ele>
        <time>2022-07-30T09:28:59Z</time>
      </trkpt>
      <trkpt lat="47.23144" lon="-1.47805">
        <ele>56</ele>
        <time>2022-07-30T09:29:01Z</time>
      </trkpt>
      <trkpt lat="47.23138" lon="-1.47821">
        <ele>55</ele>
        <time>2022-07-30T09:29:03Z</time>
      </trkpt>
      <trkpt lat="47.23132" lon="-1.47838">
        <ele>56</ele>
        <time>2022-07-30T09:29:05Z</time>
      </trkpt>
      <trkpt lat="47.23123" lon="-1.47854">
        <ele>55</ele>
        <time>2022-07-30T09:29:07Z</time>
      </trkpt>
      <trkpt lat="47.23114" lon="-1.47869">
        <ele>54</ele>
        <time>2022-07-30T09:29:09Z</time>
      </trkpt>
      <trkpt lat="47.23105" lon="-1.47882">
        <ele>54</ele>
        <time>2022-07-30T09:29:11Z</time>
      </trkpt>
      <trkpt lat="47.23096" lon="-1.47894">
        <ele>54</ele>
        <time>2022-07-30T09:29:13Z</time>
      </trkpt>
      <trkpt lat="47.23086" lon="-1.47907">
        <ele>54</ele>
        <time>2022-07-30T09:29:15Z</time>
      </trkpt>
      <trkpt lat="47.23077" lon="-1.47919">
        <ele>54</ele>
        <time>2022-07-30T09:29:17Z</time>
      </trkpt>
      <trkpt lat="47.23067" lon="-1.47931">
        <ele>54</ele>
        <time>2022-07-30T09:29:19Z</time>
      </trkpt>
      <trkpt lat="47.23058" lon="-1.47944">
        <ele>55</ele>
        <time>2022-07-30T09:29:21Z</time>
      </trkpt>
      <trkpt lat="47.23047" lon="-1.47956">
        <ele>55</ele>
        <time>2022-07-30T09:29:23Z</time>
      </trkpt>
      <trkpt lat="47.23038" lon="-1.4797">
        <ele>55</ele>
        <time>2022-07-30T09:29:25Z</time>
      </trkpt>
      <trkpt lat="47.23028" lon="-1.47982">
        <ele>56</ele>
        <time>2022-07-30T09:29:27Z</time>
      </trkpt>
      <trkpt lat="47.23019" lon="-1.47994">
        <ele>56</ele>
        <time>2022-07-30T09:29:29Z</time>
      </trkpt>
      <trkpt lat="47.23011" lon="-1.48008">
        <ele>56</ele>
        <time>2022-07-30T09:29:31Z</time>
      </trkpt>
      <trkpt lat="47.23002" lon="-1.48022">
        <ele>57</ele>
        <time>2022-07-30T09:29:33Z</time>
      </trkpt>
      <trkpt lat="47.22994" lon="-1.48037">
        <ele>56</ele>
        <time>2022-07-30T09:29:35Z</time>
      </trkpt>
      <trkpt lat="47.22985" lon="-1.48051">
        <ele>55</ele>
        <time>2022-07-30T09:29:37Z</time>
      </trkpt>
      <trkpt lat="47.22977" lon="-1.48065">
        <ele>55</ele>
        <time>2022-07-30T09:29:39Z</time>
      </trkpt>
      <trkpt lat="47.22968" lon="-1.48079">
        <ele>56</ele>
        <time>2022-07-30T09:29:41Z</time>
      </trkpt>
      <trkpt lat="47.22961" lon="-1.48092">
        <ele>56</ele>
        <time>2022-07-30T09:29:43Z</time>
      </trkpt>
      <trkpt lat="47.22953" lon="-1.48106">
        <ele>56</ele>
        <time>2022-07-30T09:29:45Z</time>
      </trkpt>
      <trkpt lat="47.22942" lon="-1.48109">
        <ele>56</ele>
        <time>2022-07-30T09:29:47Z</time>
      </trkpt>
      <trkpt lat="47.22929" lon="-1.4811">
        <ele>56</ele>
        <time>2022-07-30T09:29:49Z</time>
      </trkpt>
      <trkpt lat="47.22916" lon="-1.48115">
        <ele>55</ele>
        <time>2022-07-30T09:29:51Z</time>
      </trkpt>
      <trkpt lat="47.22905" lon="-1.48125">
        <ele>56</ele>
        <time>2022-07-30T09:29:53Z</time>
      </trkpt>
      <trkpt lat="47.22895" lon="-1.48137">
        <ele>56</ele>
        <time>2022-07-30T09:29:55Z</time>
      </trkpt>
      <trkpt lat="47.22886" lon="-1.48151">
        <ele>55</ele>
        <time>2022-07-30T09:29:57Z</time>
      </trkpt>
      <trkpt lat="47.22877" lon="-1.48165">
        <ele>56</ele>
        <time>2022-07-30T09:29:59Z</time>
      </trkpt>
      <trkpt lat="47.22869" lon="-1.48179">
        <ele>56</ele>
        <time>2022-07-30T09:30:01Z</time>
      </trkpt>
      <trkpt lat="47.22861" lon="-1.48192">
        <ele>57</ele>
        <time>2022-07-30T09:30:03Z</time>
      </trkpt>
      <trkpt lat="47.22851" lon="-1.48206">
        <ele>57</ele>
        <time>2022-07-30T09:30:05Z</time>
      </trkpt>
      <trkpt lat="47.22842" lon="-1.4822">
        <ele>56</ele>
        <time>2022-07-30T09:30:07Z</time>
      </trkpt>
      <trkpt lat="47.22833" lon="-1.48233">
        <ele>56</ele>
        <time>2022-07-30T09:30:09Z</time>
      </trkpt>
      <trkpt lat="47.22824" lon="-1.48246">
        <ele>56</ele>
        <time>2022-07-30T09:30:11Z</time>
      </trkpt>
      <trkpt lat="47.22814" lon="-1.48259">
        <ele>56</ele>
        <time>2022-07-30T09:30:13Z</time>
      </trkpt>
      <trkpt lat="47.22806" lon="-1.48274">
        <ele>56</ele>
        <time>2022-07-30T09:30:15Z</time>
      </trkpt>
      <trkpt lat="47.22797" lon="-1.48288">
        <ele>56</ele>
        <time>2022-07-30T09:30:17Z</time>
      </trkpt>
      <trkpt lat="47.22789" lon="-1.48302">
        <ele>56</ele>
        <time>2022-07-30T09:30:19Z</time>
      </trkpt>
      <trkpt lat="47.2278" lon="-1.48316">
        <ele>56</ele>
        <time>2022-07-30T09:30:21Z</time>
      </trkpt>
      <trkpt lat="47.2277" lon="-1.4833">
        <ele>56</ele>
        <time>2022-07-30T09:30:23Z</time>
      </trkpt>
      <trkpt lat="47.22761" lon="-1.48343">
        <ele>56</ele>
        <time>2022-07-30T09:30:25Z</time>
      </trkpt>
      <trkpt lat="47.22751" lon="-1.48356">
        <ele>56</ele>
        <time>2022-07-30T09:30:27Z</time>
      </trkpt>
      <trkpt lat="47.22741" lon="-1.4837">
        <ele>56</ele>
        <time>2022-07-30T09:30:29Z</time>
      </trkpt>
      <trkpt lat="47.22732" lon="-1.48383">
        <ele>55</ele>
        <time>2022-07-30T09:30:31Z</time>
      </trkpt>
      <trkpt lat="47.22723" lon="-1.48395">
        <ele>55</ele>
        <time>2022-07-30T09:30:33Z</time>
      </trkpt>
      <trkpt lat="47.22713" lon="-1.48407">
        <ele>55</ele>
        <time>2022-07-30T09:30:35Z</time>
      </trkpt>
      <trkpt lat="47.22706" lon="-1.48423">
        <ele>55</ele>
        <time>2022-07-30T09:30:37Z</time>
      </trkpt>
      <trkpt lat="47.227" lon="-1.4844">
        <ele>56</ele>
        <time>2022-07-30T09:30:39Z</time>
      </trkpt>
      <trkpt lat="47.22694" lon="-1.48458">
        <ele>56</ele>
        <time>2022-07-30T09:30:41Z</time>
      </trkpt>
      <trkpt lat="47.22687" lon="-1.48474">
        <ele>55</ele>
        <time>2022-07-30T09:30:43Z</time>
      </trkpt>
      <trkpt lat="47.2268" lon="-1.4849">
        <ele>55</ele>
        <time>2022-07-30T09:30:45Z</time>
      </trkpt>
      <trkpt lat="47.22673" lon="-1.48506">
        <ele>55</ele>
        <time>2022-07-30T09:30:47Z</time>
      </trkpt>
      <trkpt lat="47.22668" lon="-1.48523">
        <ele>56</ele>
        <time>2022-07-30T09:30:49Z</time>
      </trkpt>
      <trkpt lat="47.22663" lon="-1.48541">
        <ele>55</ele>
        <time>2022-07-30T09:30:51Z</time>
      </trkpt>
      <trkpt lat="47.22657" lon="-1.4856">
        <ele>55</ele>
        <time>2022-07-30T09:30:53Z</time>
      </trkpt>
      <trkpt lat="47.22651" lon="-1.48577">
        <ele>54</ele>
        <time>2022-07-30T09:30:55Z</time>
      </trkpt>
      <trkpt lat="47.22645" lon="-1.48593">
        <ele>55</ele>
        <time>2022-07-30T09:30:57Z</time>
      </trkpt>
      <trkpt lat="47.22639" lon="-1.48606">
        <ele>55</ele>
        <time>2022-07-30T09:30:59Z</time>
      </trkpt>
      <trkpt lat="47.22634" lon="-1.48622">
        <ele>56</ele>
        <time>2022-07-30T09:31:01Z</time>
      </trkpt>
      <trkpt lat="47.22626" lon="-1.48639">
        <ele>55</ele>
        <time>2022-07-30T09:31:03Z</time>
      </trkpt>
      <trkpt lat="47.22619" lon="-1.48658">
        <ele>55</ele>
        <time>2022-07-30T09:31:05Z</time>
      </trkpt>
      <trkpt lat="47.22613" lon="-1.48676">
        <ele>55</ele>
        <time>2022-07-30T09:31:07Z</time>
      </trkpt>
      <trkpt lat="47.22608" lon="-1.48695">
        <ele>54</ele>
        <time>2022-07-30T09:31:09Z</time>
      </trkpt>
      <trkpt lat="47.22603" lon="-1.48713">
        <ele>54</ele>
        <time>2022-07-30T09:31:11Z</time>
      </trkpt>
      <trkpt lat="47.22598" lon="-1.48732">
        <ele>54</ele>
        <time>2022-07-30T09:31:13Z</time>
      </trkpt>
      <trkpt lat="47.22594" lon="-1.48749">
        <ele>54</ele>
        <time>2022-07-30T09:31:15Z</time>
      </trkpt>
      <trkpt lat="47.2259" lon="-1.48765">
        <ele>54</ele>
        <time>2022-07-30T09:31:17Z</time>
      </trkpt>
      <trkpt lat="47.22585" lon="-1.48783">
        <ele>53</ele>
        <time>2022-07-30T09:31:19Z</time>
      </trkpt>
      <trkpt lat="47.22579" lon="-1.48801">
        <ele>53</ele>
        <time>2022-07-30T09:31:21Z</time>
      </trkpt>
      <trkpt lat="47.22572" lon="-1.48818">
        <ele>53</ele>
        <time>2022-07-30T09:31:23Z</time>
      </trkpt>
      <trkpt lat="47.22566" lon="-1.48833">
        <ele>54</ele>
        <time>2022-07-30T09:31:25Z</time>
      </trkpt>
      <trkpt lat="47.22561" lon="-1.48849">
        <ele>55</ele>
        <time>2022-07-30T09:31:27Z</time>
      </trkpt>
      <trkpt lat="47.22557" lon="-1.48865">
        <ele>56</ele>
        <time>2022-07-30T09:31:29Z</time>
      </trkpt>
      <trkpt lat="47.22553" lon="-1.4888">
        <ele>56</ele>
        <time>2022-07-30T09:31:31Z</time>
      </trkpt>
      <trkpt lat="47.22547" lon="-1.48897">
        <ele>57</ele>
        <time>2022-07-30T09:31:33Z</time>
      </trkpt>
      <trkpt lat="47.22544" lon="-1.48917">
        <ele>57</ele>
        <time>2022-07-30T09:31:35Z</time>
      </trkpt>
      <trkpt lat="47.22538" lon="-1.48938">
        <ele>57</ele>
        <time>2022-07-30T09:31:37Z</time>
      </trkpt>
      <trkpt lat="47.2253" lon="-1.48963">
        <ele>58</ele>
        <time>2022-07-30T09:31:40Z</time>
      </trkpt>
      <trkpt lat="47.22524" lon="-1.48981">
        <ele>58</ele>
        <time>2022-07-30T09:31:42Z</time>
      </trkpt>
      <trkpt lat="47.22519" lon="-1.48998">
        <ele>58</ele>
        <time>2022-07-30T09:31:44Z</time>
      </trkpt>
      <trkpt lat="47.22514" lon="-1.49016">
        <ele>58</ele>
        <time>2022-07-30T09:31:46Z</time>
      </trkpt>
      <trkpt lat="47.22508" lon="-1.49033">
        <ele>59</ele>
        <time>2022-07-30T09:31:48Z</time>
      </trkpt>
      <trkpt lat="47.22503" lon="-1.4905">
        <ele>59</ele>
        <time>2022-07-30T09:31:50Z</time>
      </trkpt>
      <trkpt lat="47.22498" lon="-1.49068">
        <ele>60</ele>
        <time>2022-07-30T09:31:52Z</time>
      </trkpt>
      <trkpt lat="47.22492" lon="-1.49085">
        <ele>59</ele>
        <time>2022-07-30T09:31:54Z</time>
      </trkpt>
      <trkpt lat="47.22487" lon="-1.49103">
        <ele>58</ele>
        <time>2022-07-30T09:31:56Z</time>
      </trkpt>
      <trkpt lat="47.22481" lon="-1.49122">
        <ele>58</ele>
        <time>2022-07-30T09:31:58Z</time>
      </trkpt>
      <trkpt lat="47.22477" lon="-1.49141">
        <ele>57</ele>
        <time>2022-07-30T09:32:00Z</time>
      </trkpt>
      <trkpt lat="47.2247" lon="-1.4916">
        <ele>56</ele>
        <time>2022-07-30T09:32:02Z</time>
      </trkpt>
      <trkpt lat="47.22462" lon="-1.49176">
        <ele>55</ele>
        <time>2022-07-30T09:32:04Z</time>
      </trkpt>
      <trkpt lat="47.22451" lon="-1.49202">
        <ele>55</ele>
        <time>2022-07-30T09:32:07Z</time>
      </trkpt>
      <trkpt lat="47.22443" lon="-1.49219">
        <ele>56</ele>
        <time>2022-07-30T09:32:09Z</time>
      </trkpt>
      <trkpt lat="47.22437" lon="-1.49237">
        <ele>56</ele>
        <time>2022-07-30T09:32:11Z</time>
      </trkpt>
      <trkpt lat="47.22427" lon="-1.49262">
        <ele>55</ele>
        <time>2022-07-30T09:32:14Z</time>
      </trkpt>
      <trkpt lat="47.22419" lon="-1.49277">
        <ele>55</ele>
        <time>2022-07-30T09:32:16Z</time>
      </trkpt>
      <trkpt lat="47.22412" lon="-1.49294">
        <ele>55</ele>
        <time>2022-07-30T09:32:18Z</time>
      </trkpt>
      <trkpt lat="47.22406" lon="-1.49311">
        <ele>55</ele>
        <time>2022-07-30T09:32:20Z</time>
      </trkpt>
      <trkpt lat="47.22401" lon="-1.49327">
        <ele>54</ele>
        <time>2022-07-30T09:32:22Z</time>
      </trkpt>
      <trkpt lat="47.22394" lon="-1.49344">
        <ele>55</ele>
        <time>2022-07-30T09:32:24Z</time>
      </trkpt>
      <trkpt lat="47.22388" lon="-1.4936">
        <ele>55</ele>
        <time>2022-07-30T09:32:26Z</time>
      </trkpt>
      <trkpt lat="47.22381" lon="-1.49376">
        <ele>54</ele>
        <time>2022-07-30T09:32:28Z</time>
      </trkpt>
      <trkpt lat="47.22373" lon="-1.49391">
        <ele>55</ele>
        <time>2022-07-30T09:32:30Z</time>
      </trkpt>
      <trkpt lat="47.22366" lon="-1.49407">
        <ele>55</ele>
        <time>2022-07-30T09:32:32Z</time>
      </trkpt>
      <trkpt lat="47.22359" lon="-1.49423">
        <ele>56</ele>
        <time>2022-07-30T09:32:34Z</time>
      </trkpt>
      <trkpt lat="47.22353" lon="-1.49438">
        <ele>55</ele>
        <time>2022-07-30T09:32:36Z</time>
      </trkpt>
      <trkpt lat="47.22348" lon="-1.49455">
        <ele>56</ele>
        <time>2022-07-30T09:32:38Z</time>
      </trkpt>
      <trkpt lat="47.22342" lon="-1.49472">
        <ele>57</ele>
        <time>2022-07-30T09:32:40Z</time>
      </trkpt>
      <trkpt lat="47.22337" lon="-1.49489">
        <ele>57</ele>
        <time>2022-07-30T09:32:42Z</time>
      </trkpt>
      <trkpt lat="47.22332" lon="-1.49508">
        <ele>57</ele>
        <time>2022-07-30T09:32:44Z</time>
      </trkpt>
      <trkpt lat="47.22326" lon="-1.49524">
        <ele>57</ele>
        <time>2022-07-30T09:32:46Z</time>
      </trkpt>
      <trkpt lat="47.22321" lon="-1.49542">
        <ele>56</ele>
        <time>2022-07-30T09:32:48Z</time>
      </trkpt>
      <trkpt lat="47.22316" lon="-1.49559">
        <ele>55</ele>
        <time>2022-07-30T09:32:50Z</time>
      </trkpt>
      <trkpt lat="47.22309" lon="-1.49576">
        <ele>55</ele>
        <time>2022-07-30T09:32:52Z</time>
      </trkpt>
      <trkpt lat="47.22303" lon="-1.49592">
        <ele>55</ele>
        <time>2022-07-30T09:32:54Z</time>
      </trkpt>
      <trkpt lat="47.22298" lon="-1.49608">
        <ele>55</ele>
        <time>2022-07-30T09:32:56Z</time>
      </trkpt>
      <trkpt lat="47.22294" lon="-1.49625">
        <ele>55</ele>
        <time>2022-07-30T09:32:58Z</time>
      </trkpt>
      <trkpt lat="47.22289" lon="-1.49644">
        <ele>55</ele>
        <time>2022-07-30T09:33:00Z</time>
      </trkpt>
      <trkpt lat="47.22285" lon="-1.49661">
        <ele>56</ele>
        <time>2022-07-30T09:33:02Z</time>
      </trkpt>
      <trkpt lat="47.22279" lon="-1.49678">
        <ele>56</ele>
        <time>2022-07-30T09:33:04Z</time>
      </trkpt>
      <trkpt lat="47.22273" lon="-1.49694">
        <ele>56</ele>
        <time>2022-07-30T09:33:06Z</time>
      </trkpt>
      <trkpt lat="47.22266" lon="-1.49712">
        <ele>55</ele>
        <time>2022-07-30T09:33:08Z</time>
      </trkpt>
      <trkpt lat="47.22261" lon="-1.49729">
        <ele>55</ele>
        <time>2022-07-30T09:33:10Z</time>
      </trkpt>
      <trkpt lat="47.22257" lon="-1.49747">
        <ele>55</ele>
        <time>2022-07-30T09:33:12Z</time>
      </trkpt>
      <trkpt lat="47.22254" lon="-1.49765">
        <ele>54</ele>
        <time>2022-07-30T09:33:14Z</time>
      </trkpt>
      <trkpt lat="47.22252" lon="-1.49783">
        <ele>55</ele>
        <time>2022-07-30T09:33:16Z</time>
      </trkpt>
      <trkpt lat="47.2225" lon="-1.49802">
        <ele>55</ele>
        <time>2022-07-30T09:33:18Z</time>
      </trkpt>
      <trkpt lat="47.22247" lon="-1.4982">
        <ele>56</ele>
        <time>2022-07-30T09:33:20Z</time>
      </trkpt>
      <trkpt lat="47.22244" lon="-1.49839">
        <ele>56</ele>
        <time>2022-07-30T09:33:22Z</time>
      </trkpt>
      <trkpt lat="47.2224" lon="-1.49857">
        <ele>57</ele>
        <time>2022-07-30T09:33:24Z</time>
      </trkpt>
      <trkpt lat="47.22235" lon="-1.49876">
        <ele>57</ele>
        <time>2022-07-30T09:33:26Z</time>
      </trkpt>
      <trkpt lat="47.22231" lon="-1.49896">
        <ele>57</ele>
        <time>2022-07-30T09:33:28Z</time>
      </trkpt>
      <trkpt lat="47.22226" lon="-1.49915">
        <ele>58</ele>
        <time>2022-07-30T09:33:30Z</time>
      </trkpt>
      <trkpt lat="47.22221" lon="-1.49934">
        <ele>59</ele>
        <time>2022-07-30T09:33:32Z</time>
      </trkpt>
      <trkpt lat="47.22215" lon="-1.49954">
        <ele>59</ele>
        <time>2022-07-30T09:33:34Z</time>
      </trkpt>
      <trkpt lat="47.22208" lon="-1.49973">
        <ele>58</ele>
        <time>2022-07-30T09:33:36Z</time>
      </trkpt>
      <trkpt lat="47.22202" lon="-1.49991">
        <ele>59</ele>
        <time>2022-07-30T09:33:38Z</time>
      </trkpt>
      <trkpt lat="47.22197" lon="-1.5001">
        <ele>59</ele>
        <time>2022-07-30T09:33:40Z</time>
      </trkpt>
      <trkpt lat="47.22192" lon="-1.50031">
        <ele>58</ele>
        <time>2022-07-30T09:33:42Z</time>
      </trkpt>
      <trkpt lat="47.22188" lon="-1.5005">
        <ele>57</ele>
        <time>2022-07-30T09:33:44Z</time>
      </trkpt>
      <trkpt lat="47.22185" lon="-1.50068">
        <ele>56</ele>
        <time>2022-07-30T09:33:46Z</time>
      </trkpt>
      <trkpt lat="47.22182" lon="-1.50086">
        <ele>57</ele>
        <time>2022-07-30T09:33:48Z</time>
      </trkpt>
      <trkpt lat="47.22177" lon="-1.50105">
        <ele>57</ele>
        <time>2022-07-30T09:33:50Z</time>
      </trkpt>
      <trkpt lat="47.22172" lon="-1.50122">
        <ele>57</ele>
        <time>2022-07-30T09:33:52Z</time>
      </trkpt>
      <trkpt lat="47.22166" lon="-1.5014">
        <ele>56</ele>
        <time>2022-07-30T09:33:54Z</time>
      </trkpt>
      <trkpt lat="47.2216" lon="-1.50158">
        <ele>55</ele>
        <time>2022-07-30T09:33:56Z</time>
      </trkpt>
      <trkpt lat="47.22155" lon="-1.50176">
        <ele>55</ele>
        <time>2022-07-30T09:33:58Z</time>
      </trkpt>
      <trkpt lat="47.22151" lon="-1.50195">
        <ele>55</ele>
        <time>2022-07-30T09:34:00Z</time>
      </trkpt>
      <trkpt lat="47.22148" lon="-1.50213">
        <ele>55</ele>
        <time>2022-07-30T09:34:02Z</time>
      </trkpt>
      <trkpt lat="47.22143" lon="-1.50231">
        <ele>55</ele>
        <time>2022-07-30T09:34:04Z</time>
      </trkpt>
      <trkpt lat="47.22138" lon="-1.50247">
        <ele>55</ele>
        <time>2022-07-30T09:34:06Z</time>
      </trkpt>
      <trkpt lat="47.22133" lon="-1.50265">
        <ele>55</ele>
        <time>2022-07-30T09:34:08Z</time>
      </trkpt>
      <trkpt lat="47.22126" lon="-1.50283">
        <ele>54</ele>
        <time>2022-07-30T09:34:10Z</time>
      </trkpt>
      <trkpt lat="47.22117" lon="-1.50298">
        <ele>54</ele>
        <time>2022-07-30T09:34:12Z</time>
      </trkpt>
      <trkpt lat="47.22109" lon="-1.50312">
        <ele>55</ele>
        <time>2022-07-30T09:34:14Z</time>
      </trkpt>
      <trkpt lat="47.221" lon="-1.50327">
        <ele>56</ele>
        <time>2022-07-30T09:34:16Z</time>
      </trkpt>
      <trkpt lat="47.22095" lon="-1.50344">
        <ele>56</ele>
        <time>2022-07-30T09:34:18Z</time>
      </trkpt>
      <trkpt lat="47.2209" lon="-1.50364">
        <ele>56</ele>
        <time>2022-07-30T09:34:20Z</time>
      </trkpt>
      <trkpt lat="47.22086" lon="-1.50383">
        <ele>55</ele>
        <time>2022-07-30T09:34:22Z</time>
      </trkpt>
      <trkpt lat="47.22081" lon="-1.504">
        <ele>54</ele>
        <time>2022-07-30T09:34:24Z</time>
      </trkpt>
      <trkpt lat="47.22076" lon="-1.50417">
        <ele>54</ele>
        <time>2022-07-30T09:34:26Z</time>
      </trkpt>
      <trkpt lat="47.22072" lon="-1.50435">
        <ele>54</ele>
        <time>2022-07-30T09:34:28Z</time>
      </trkpt>
      <trkpt lat="47.22069" lon="-1.50454">
        <ele>53</ele>
        <time>2022-07-30T09:34:30Z</time>
      </trkpt>
      <trkpt lat="47.22066" lon="-1.50473">
        <ele>53</ele>
        <time>2022-07-30T09:34:32Z</time>
      </trkpt>
      <trkpt lat="47.22065" lon="-1.50492">
        <ele>54</ele>
        <time>2022-07-30T09:34:34Z</time>
      </trkpt>
      <trkpt lat="47.22064" lon="-1.50511">
        <ele>54</ele>
        <time>2022-07-30T09:34:36Z</time>
      </trkpt>
      <trkpt lat="47.22062" lon="-1.50528">
        <ele>54</ele>
        <time>2022-07-30T09:34:38Z</time>
      </trkpt>
      <trkpt lat="47.2206" lon="-1.50545">
        <ele>54</ele>
        <time>2022-07-30T09:34:40Z</time>
      </trkpt>
      <trkpt lat="47.2206" lon="-1.50563">
        <ele>54</ele>
        <time>2022-07-30T09:34:42Z</time>
      </trkpt>
      <trkpt lat="47.2206" lon="-1.50581">
        <ele>55</ele>
        <time>2022-07-30T09:34:44Z</time>
      </trkpt>
      <trkpt lat="47.22059" lon="-1.50599">
        <ele>55</ele>
        <time>2022-07-30T09:34:46Z</time>
      </trkpt>
      <trkpt lat="47.22057" lon="-1.50615">
        <ele>57</ele>
        <time>2022-07-30T09:34:48Z</time>
      </trkpt>
      <trkpt lat="47.22055" lon="-1.50634">
        <ele>58</ele>
        <time>2022-07-30T09:34:50Z</time>
      </trkpt>
      <trkpt lat="47.22054" lon="-1.50653">
        <ele>59</ele>
        <time>2022-07-30T09:34:52Z</time>
      </trkpt>
      <trkpt lat="47.22052" lon="-1.50672">
        <ele>60</ele>
        <time>2022-07-30T09:34:54Z</time>
      </trkpt>
      <trkpt lat="47.22051" lon="-1.50689">
        <ele>59</ele>
        <time>2022-07-30T09:34:56Z</time>
      </trkpt>
      <trkpt lat="47.2205" lon="-1.50707">
        <ele>60</ele>
        <time>2022-07-30T09:34:58Z</time>
      </trkpt>
      <trkpt lat="47.22048" lon="-1.50725">
        <ele>60</ele>
        <time>2022-07-30T09:35:00Z</time>
      </trkpt>
      <trkpt lat="47.22046" lon="-1.50745">
        <ele>59</ele>
        <time>2022-07-30T09:35:02Z</time>
      </trkpt>
      <trkpt lat="47.22044" lon="-1.50763">
        <ele>59</ele>
        <time>2022-07-30T09:35:04Z</time>
      </trkpt>
      <trkpt lat="47.22041" lon="-1.50781">
        <ele>60</ele>
        <time>2022-07-30T09:35:06Z</time>
      </trkpt>
      <trkpt lat="47.22036" lon="-1.50798">
        <ele>59</ele>
        <time>2022-07-30T09:35:08Z</time>
      </trkpt>
      <trkpt lat="47.2203" lon="-1.50814">
        <ele>59</ele>
        <time>2022-07-30T09:35:10Z</time>
      </trkpt>
      <trkpt lat="47.22024" lon="-1.50829">
        <ele>59</ele>
        <time>2022-07-30T09:35:12Z</time>
      </trkpt>
      <trkpt lat="47.22019" lon="-1.50844">
        <ele>58</ele>
        <time>2022-07-30T09:35:14Z</time>
      </trkpt>
      <trkpt lat="47.22013" lon="-1.50862">
        <ele>58</ele>
        <time>2022-07-30T09:35:16Z</time>
      </trkpt>
      <trkpt lat="47.22004" lon="-1.50881">
        <ele>58</ele>
        <time>2022-07-30T09:35:18Z</time>
      </trkpt>
      <trkpt lat="47.21998" lon="-1.50898">
        <ele>56</ele>
        <time>2022-07-30T09:35:20Z</time>
      </trkpt>
      <trkpt lat="47.21993" lon="-1.50916">
        <ele>56</ele>
        <time>2022-07-30T09:35:22Z</time>
      </trkpt>
      <trkpt lat="47.21987" lon="-1.50935">
        <ele>55</ele>
        <time>2022-07-30T09:35:24Z</time>
      </trkpt>
      <trkpt lat="47.21983" lon="-1.50952">
        <ele>55</ele>
        <time>2022-07-30T09:35:26Z</time>
      </trkpt>
      <trkpt lat="47.21978" lon="-1.50969">
        <ele>54</ele>
        <time>2022-07-30T09:35:28Z</time>
      </trkpt>
      <trkpt lat="47.21972" lon="-1.50987">
        <ele>54</ele>
        <time>2022-07-30T09:35:30Z</time>
      </trkpt>
      <trkpt lat="47.21967" lon="-1.51004">
        <ele>54</ele>
        <time>2022-07-30T09:35:32Z</time>
      </trkpt>
      <trkpt lat="47.21961" lon="-1.51021">
        <ele>54</ele>
        <time>2022-07-30T09:35:34Z</time>
      </trkpt>
      <trkpt lat="47.21956" lon="-1.51037">
        <ele>53</ele>
        <time>2022-07-30T09:35:36Z</time>
      </trkpt>
      <trkpt lat="47.21954" lon="-1.51052">
        <ele>53</ele>
        <time>2022-07-30T09:35:38Z</time>
      </trkpt>
      <trkpt lat="47.21944" lon="-1.51065">
        <ele>53</ele>
        <time>2022-07-30T09:35:41Z</time>
      </trkpt>
      <trkpt lat="47.21936" lon="-1.51078">
        <ele>53</ele>
        <time>2022-07-30T09:35:43Z</time>
      </trkpt>
      <trkpt lat="47.21929" lon="-1.51097">
        <ele>53</ele>
        <time>2022-07-30T09:35:45Z</time>
      </trkpt>
      <trkpt lat="47.21923" lon="-1.51113">
        <ele>53</ele>
        <time>2022-07-30T09:35:47Z</time>
      </trkpt>
      <trkpt lat="47.21918" lon="-1.51129">
        <ele>54</ele>
        <time>2022-07-30T09:35:49Z</time>
      </trkpt>
      <trkpt lat="47.21913" lon="-1.51146">
        <ele>54</ele>
        <time>2022-07-30T09:35:51Z</time>
      </trkpt>
      <trkpt lat="47.21907" lon="-1.51162">
        <ele>54</ele>
        <time>2022-07-30T09:35:53Z</time>
      </trkpt>
      <trkpt lat="47.21902" lon="-1.51179">
        <ele>54</ele>
        <time>2022-07-30T09:35:55Z</time>
      </trkpt>
      <trkpt lat="47.21896" lon="-1.51195">
        <ele>54</ele>
        <time>2022-07-30T09:35:57Z</time>
      </trkpt>
      <trkpt lat="47.21891" lon="-1.51212">
        <ele>54</ele>
        <time>2022-07-30T09:35:59Z</time>
      </trkpt>
      <trkpt lat="47.21886" lon="-1.51228">
        <ele>54</ele>
        <time>2022-07-30T09:36:01Z</time>
      </trkpt>
      <trkpt lat="47.2188" lon="-1.51244">
        <ele>54</ele>
        <time>2022-07-30T09:36:03Z</time>
      </trkpt>
      <trkpt lat="47.21874" lon="-1.51261">
        <ele>54</ele>
        <time>2022-07-30T09:36:05Z</time>
      </trkpt>
      <trkpt lat="47.21869" lon="-1.51278">
        <ele>54</ele>
        <time>2022-07-30T09:36:07Z</time>
      </trkpt>
      <trkpt lat="47.21864" lon="-1.51294">
        <ele>54</ele>
        <time>2022-07-30T09:36:09Z</time>
      </trkpt>
      <trkpt lat="47.21858" lon="-1.5131">
        <ele>54</ele>
        <time>2022-07-30T09:36:11Z</time>
      </trkpt>
      <trkpt lat="47.21854" lon="-1.51326">
        <ele>54</ele>
        <time>2022-07-30T09:36:13Z</time>
      </trkpt>
      <trkpt lat="47.21849" lon="-1.51343">
        <ele>53</ele>
        <time>2022-07-30T09:36:15Z</time>
      </trkpt>
      <trkpt lat="47.21845" lon="-1.5136">
        <ele>53</ele>
        <time>2022-07-30T09:36:17Z</time>
      </trkpt>
      <trkpt lat="47.2184" lon="-1.51377">
        <ele>53</ele>
        <time>2022-07-30T09:36:19Z</time>
      </trkpt>
      <trkpt lat="47.21835" lon="-1.51394">
        <ele>53</ele>
        <time>2022-07-30T09:36:21Z</time>
      </trkpt>
      <trkpt lat="47.21832" lon="-1.51412">
        <ele>53</ele>
        <time>2022-07-30T09:36:23Z</time>
      </trkpt>
      <trkpt lat="47.21828" lon="-1.51429">
        <ele>53</ele>
        <time>2022-07-30T09:36:25Z</time>
      </trkpt>
      <trkpt lat="47.21824" lon="-1.51446">
        <ele>52</ele>
        <time>2022-07-30T09:36:27Z</time>
      </trkpt>
      <trkpt lat="47.21821" lon="-1.51462">
        <ele>53</ele>
        <time>2022-07-30T09:36:29Z</time>
      </trkpt>
      <trkpt lat="47.21817" lon="-1.51479">
        <ele>53</ele>
        <time>2022-07-30T09:36:31Z</time>
      </trkpt>
      <trkpt lat="47.21813" lon="-1.51496">
        <ele>52</ele>
        <time>2022-07-30T09:36:33Z</time>
      </trkpt>
      <trkpt lat="47.21807" lon="-1.5151">
        <ele>52</ele>
        <time>2022-07-30T09:36:35Z</time>
      </trkpt>
      <trkpt lat="47.21801" lon="-1.51523">
        <ele>52</ele>
        <time>2022-07-30T09:36:37Z</time>
      </trkpt>
      <trkpt lat="47.21795" lon="-1.51537">
        <ele>53</ele>
        <time>2022-07-30T09:36:39Z</time>
      </trkpt>
      <trkpt lat="47.2179" lon="-1.51551">
        <ele>53</ele>
        <time>2022-07-30T09:36:41Z</time>
      </trkpt>
      <trkpt lat="47.21784" lon="-1.51564">
        <ele>53</ele>
        <time>2022-07-30T09:36:43Z</time>
      </trkpt>
      <trkpt lat="47.21777" lon="-1.51578">
        <ele>53</ele>
        <time>2022-07-30T09:36:45Z</time>
      </trkpt>
      <trkpt lat="47.21769" lon="-1.51589">
        <ele>53</ele>
        <time>2022-07-30T09:36:47Z</time>
      </trkpt>
      <trkpt lat="47.2176" lon="-1.516">
        <ele>53</ele>
        <time>2022-07-30T09:36:49Z</time>
      </trkpt>
      <trkpt lat="47.21753" lon="-1.51613">
        <ele>54</ele>
        <time>2022-07-30T09:36:51Z</time>
      </trkpt>
      <trkpt lat="47.21746" lon="-1.51628">
        <ele>53</ele>
        <time>2022-07-30T09:36:53Z</time>
      </trkpt>
      <trkpt lat="47.21739" lon="-1.51644">
        <ele>53</ele>
        <time>2022-07-30T09:36:55Z</time>
      </trkpt>
      <trkpt lat="47.21732" lon="-1.51659">
        <ele>53</ele>
        <time>2022-07-30T09:36:57Z</time>
      </trkpt>
      <trkpt lat="47.21725" lon="-1.51675">
        <ele>53</ele>
        <time>2022-07-30T09:36:59Z</time>
      </trkpt>
      <trkpt lat="47.21718" lon="-1.5169">
        <ele>54</ele>
        <time>2022-07-30T09:37:01Z</time>
      </trkpt>
      <trkpt lat="47.21712" lon="-1.51705">
        <ele>54</ele>
        <time>2022-07-30T09:37:03Z</time>
      </trkpt>
      <trkpt lat="47.21706" lon="-1.5172">
        <ele>55</ele>
        <time>2022-07-30T09:37:05Z</time>
      </trkpt>
      <trkpt lat="47.21699" lon="-1.51736">
        <ele>55</ele>
        <time>2022-07-30T09:37:07Z</time>
      </trkpt>
      <trkpt lat="47.21692" lon="-1.51753">
        <ele>55</ele>
        <time>2022-07-30T09:37:09Z</time>
      </trkpt>
      <trkpt lat="47.21684" lon="-1.51769">
        <ele>54</ele>
        <time>2022-07-30T09:37:11Z</time>
      </trkpt>
      <trkpt lat="47.21677" lon="-1.51785">
        <ele>54</ele>
        <time>2022-07-30T09:37:13Z</time>
      </trkpt>
      <trkpt lat="47.2167" lon="-1.518">
        <ele>55</ele>
        <time>2022-07-30T09:37:15Z</time>
      </trkpt>
      <trkpt lat="47.21664" lon="-1.51815">
        <ele>55</ele>
        <time>2022-07-30T09:37:17Z</time>
      </trkpt>
      <trkpt lat="47.21657" lon="-1.51832">
        <ele>54</ele>
        <time>2022-07-30T09:37:19Z</time>
      </trkpt>
      <trkpt lat="47.21652" lon="-1.51849">
        <ele>54</ele>
        <time>2022-07-30T09:37:21Z</time>
      </trkpt>
      <trkpt lat="47.21648" lon="-1.51866">
        <ele>55</ele>
        <time>2022-07-30T09:37:23Z</time>
      </trkpt>
      <trkpt lat="47.21645" lon="-1.51884">
        <ele>56</ele>
        <time>2022-07-30T09:37:25Z</time>
      </trkpt>
      <trkpt lat="47.21638" lon="-1.51899">
        <ele>55</ele>
        <time>2022-07-30T09:37:27Z</time>
      </trkpt>
      <trkpt lat="47.21632" lon="-1.51914">
        <ele>56</ele>
        <time>2022-07-30T09:37:29Z</time>
      </trkpt>
      <trkpt lat="47.21626" lon="-1.51931">
        <ele>56</ele>
        <time>2022-07-30T09:37:31Z</time>
      </trkpt>
      <trkpt lat="47.21622" lon="-1.51948">
        <ele>55</ele>
        <time>2022-07-30T09:37:33Z</time>
      </trkpt>
      <trkpt lat="47.2162" lon="-1.51965">
        <ele>55</ele>
        <time>2022-07-30T09:37:35Z</time>
      </trkpt>
      <trkpt lat="47.21614" lon="-1.51979">
        <ele>57</ele>
        <time>2022-07-30T09:37:37Z</time>
      </trkpt>
      <trkpt lat="47.21608" lon="-1.51992">
        <ele>58</ele>
        <time>2022-07-30T09:37:39Z</time>
      </trkpt>
      <trkpt lat="47.21603" lon="-1.52009">
        <ele>58</ele>
        <time>2022-07-30T09:37:41Z</time>
      </trkpt>
      <trkpt lat="47.21596" lon="-1.52026">
        <ele>57</ele>
        <time>2022-07-30T09:37:43Z</time>
      </trkpt>
      <trkpt lat="47.2159" lon="-1.52044">
        <ele>55</ele>
        <time>2022-07-30T09:37:45Z</time>
      </trkpt>
      <trkpt lat="47.21585" lon="-1.52061">
        <ele>55</ele>
        <time>2022-07-30T09:37:47Z</time>
      </trkpt>
      <trkpt lat="47.21579" lon="-1.52078">
        <ele>54</ele>
        <time>2022-07-30T09:37:49Z</time>
      </trkpt>
      <trkpt lat="47.21573" lon="-1.52096">
        <ele>54</ele>
        <time>2022-07-30T09:37:51Z</time>
      </trkpt>
      <trkpt lat="47.21568" lon="-1.52113">
        <ele>54</ele>
        <time>2022-07-30T09:37:53Z</time>
      </trkpt>
      <trkpt lat="47.21562" lon="-1.5213">
        <ele>54</ele>
        <time>2022-07-30T09:37:55Z</time>
      </trkpt>
      <trkpt lat="47.21557" lon="-1.52147">
        <ele>54</ele>
        <time>2022-07-30T09:37:57Z</time>
      </trkpt>
      <trkpt lat="47.21551" lon="-1.52164">
        <ele>54</ele>
        <time>2022-07-30T09:37:59Z</time>
      </trkpt>
      <trkpt lat="47.21545" lon="-1.52181">
        <ele>54</ele>
        <time>2022-07-30T09:38:01Z</time>
      </trkpt>
      <trkpt lat="47.21539" lon="-1.52198">
        <ele>55</ele>
        <time>2022-07-30T09:38:03Z</time>
      </trkpt>
      <trkpt lat="47.21534" lon="-1.52216">
        <ele>55</ele>
        <time>2022-07-30T09:38:05Z</time>
      </trkpt>
      <trkpt lat="47.21528" lon="-1.52233">
        <ele>55</ele>
        <time>2022-07-30T09:38:07Z</time>
      </trkpt>
      <trkpt lat="47.21523" lon="-1.52249">
        <ele>56</ele>
        <time>2022-07-30T09:38:09Z</time>
      </trkpt>
      <trkpt lat="47.21518" lon="-1.52267">
        <ele>55</ele>
        <time>2022-07-30T09:38:11Z</time>
      </trkpt>
      <trkpt lat="47.21512" lon="-1.52285">
        <ele>55</ele>
        <time>2022-07-30T09:38:13Z</time>
      </trkpt>
      <trkpt lat="47.21508" lon="-1.52301">
        <ele>55</ele>
        <time>2022-07-30T09:38:15Z</time>
      </trkpt>
      <trkpt lat="47.21502" lon="-1.52317">
        <ele>55</ele>
        <time>2022-07-30T09:38:17Z</time>
      </trkpt>
      <trkpt lat="47.21498" lon="-1.52334">
        <ele>55</ele>
        <time>2022-07-30T09:38:19Z</time>
      </trkpt>
      <trkpt lat="47.21493" lon="-1.52351">
        <ele>56</ele>
        <time>2022-07-30T09:38:21Z</time>
      </trkpt>
      <trkpt lat="47.21487" lon="-1.52369">
        <ele>56</ele>
        <time>2022-07-30T09:38:23Z</time>
      </trkpt>
      <trkpt lat="47.21482" lon="-1.52386">
        <ele>55</ele>
        <time>2022-07-30T09:38:25Z</time>
      </trkpt>
      <trkpt lat="47.21476" lon="-1.52403">
        <ele>55</ele>
        <time>2022-07-30T09:38:27Z</time>
      </trkpt>
      <trkpt lat="47.21471" lon="-1.52419">
        <ele>55</ele>
        <time>2022-07-30T09:38:29Z</time>
      </trkpt>
      <trkpt lat="47.21465" lon="-1.52436">
        <ele>54</ele>
        <time>2022-07-30T09:38:31Z</time>
      </trkpt>
      <trkpt lat="47.2146" lon="-1.52453">
        <ele>55</ele>
        <time>2022-07-30T09:38:33Z</time>
      </trkpt>
      <trkpt lat="47.21455" lon="-1.52469">
        <ele>55</ele>
        <time>2022-07-30T09:38:35Z</time>
      </trkpt>
      <trkpt lat="47.2145" lon="-1.52486">
        <ele>56</ele>
        <time>2022-07-30T09:38:37Z</time>
      </trkpt>
      <trkpt lat="47.21444" lon="-1.52503">
        <ele>55</ele>
        <time>2022-07-30T09:38:39Z</time>
      </trkpt>
      <trkpt lat="47.21438" lon="-1.5252">
        <ele>55</ele>
        <time>2022-07-30T09:38:41Z</time>
      </trkpt>
      <trkpt lat="47.21433" lon="-1.52537">
        <ele>56</ele>
        <time>2022-07-30T09:38:43Z</time>
      </trkpt>
      <trkpt lat="47.21427" lon="-1.52554">
        <ele>56</ele>
        <time>2022-07-30T09:38:45Z</time>
      </trkpt>
      <trkpt lat="47.21422" lon="-1.5257">
        <ele>55</ele>
        <time>2022-07-30T09:38:47Z</time>
      </trkpt>
      <trkpt lat="47.21416" lon="-1.52587">
        <ele>55</ele>
        <time>2022-07-30T09:38:49Z</time>
      </trkpt>
      <trkpt lat="47.2141" lon="-1.52603">
        <ele>56</ele>
        <time>2022-07-30T09:38:51Z</time>
      </trkpt>
      <trkpt lat="47.21406" lon="-1.52619">
        <ele>56</ele>
        <time>2022-07-30T09:38:53Z</time>
      </trkpt>
      <trkpt lat="47.21401" lon="-1.52636">
        <ele>56</ele>
        <time>2022-07-30T09:38:55Z</time>
      </trkpt>
      <trkpt lat="47.21397" lon="-1.52652">
        <ele>56</ele>
        <time>2022-07-30T09:38:57Z</time>
      </trkpt>
      <trkpt lat="47.21392" lon="-1.52668">
        <ele>56</ele>
        <time>2022-07-30T09:38:59Z</time>
      </trkpt>
      <trkpt lat="47.21387" lon="-1.52686">
        <ele>57</ele>
        <time>2022-07-30T09:39:01Z</time>
      </trkpt>
      <trkpt lat="47.21382" lon="-1.52705">
        <ele>57</ele>
        <time>2022-07-30T09:39:03Z</time>
      </trkpt>
      <trkpt lat="47.21378" lon="-1.52722">
        <ele>57</ele>
        <time>2022-07-30T09:39:05Z</time>
      </trkpt>
      <trkpt lat="47.21374" lon="-1.52739">
        <ele>57</ele>
        <time>2022-07-30T09:39:07Z</time>
      </trkpt>
      <trkpt lat="47.21372" lon="-1.52758">
        <ele>56</ele>
        <time>2022-07-30T09:39:09Z</time>
      </trkpt>
      <trkpt lat="47.2137" lon="-1.52777">
        <ele>56</ele>
        <time>2022-07-30T09:39:11Z</time>
      </trkpt>
      <trkpt lat="47.21367" lon="-1.52795">
        <ele>56</ele>
        <time>2022-07-30T09:39:13Z</time>
      </trkpt>
      <trkpt lat="47.21364" lon="-1.52813">
        <ele>56</ele>
        <time>2022-07-30T09:39:15Z</time>
      </trkpt>
      <trkpt lat="47.21359" lon="-1.52832">
        <ele>56</ele>
        <time>2022-07-30T09:39:17Z</time>
      </trkpt>
      <trkpt lat="47.21355" lon="-1.52851">
        <ele>56</ele>
        <time>2022-07-30T09:39:19Z</time>
      </trkpt>
      <trkpt lat="47.2135" lon="-1.52869">
        <ele>56</ele>
        <time>2022-07-30T09:39:21Z</time>
      </trkpt>
      <trkpt lat="47.21346" lon="-1.52888">
        <ele>56</ele>
        <time>2022-07-30T09:39:23Z</time>
      </trkpt>
      <trkpt lat="47.21343" lon="-1.52907">
        <ele>56</ele>
        <time>2022-07-30T09:39:25Z</time>
      </trkpt>
      <trkpt lat="47.21341" lon="-1.52926">
        <ele>55</ele>
        <time>2022-07-30T09:39:27Z</time>
      </trkpt>
      <trkpt lat="47.21339" lon="-1.52943">
        <ele>55</ele>
        <time>2022-07-30T09:39:29Z</time>
      </trkpt>
      <trkpt lat="47.21337" lon="-1.52957">
        <ele>55</ele>
        <time>2022-07-30T09:39:31Z</time>
      </trkpt>
      <trkpt lat="47.21337" lon="-1.52977">
        <ele>57</ele>
        <time>2022-07-30T09:39:33Z</time>
      </trkpt>
      <trkpt lat="47.21335" lon="-1.52996">
        <ele>57</ele>
        <time>2022-07-30T09:39:35Z</time>
      </trkpt>
      <trkpt lat="47.21334" lon="-1.53013">
        <ele>55</ele>
        <time>2022-07-30T09:39:37Z</time>
      </trkpt>
      <trkpt lat="47.21332" lon="-1.5303">
        <ele>55</ele>
        <time>2022-07-30T09:39:39Z</time>
      </trkpt>
      <trkpt lat="47.2133" lon="-1.53047">
        <ele>56</ele>
        <time>2022-07-30T09:39:41Z</time>
      </trkpt>
      <trkpt lat="47.21329" lon="-1.53065">
        <ele>56</ele>
        <time>2022-07-30T09:39:43Z</time>
      </trkpt>
      <trkpt lat="47.21328" lon="-1.53081">
        <ele>56</ele>
        <time>2022-07-30T09:39:45Z</time>
      </trkpt>
      <trkpt lat="47.21328" lon="-1.53098">
        <ele>56</ele>
        <time>2022-07-30T09:39:47Z</time>
      </trkpt>
      <trkpt lat="47.21326" lon="-1.53115">
        <ele>56</ele>
        <time>2022-07-30T09:39:49Z</time>
      </trkpt>
      <trkpt lat="47.21322" lon="-1.53132">
        <ele>56</ele>
        <time>2022-07-30T09:39:51Z</time>
      </trkpt>
      <trkpt lat="47.21319" lon="-1.5315">
        <ele>56</ele>
        <time>2022-07-30T09:39:53Z</time>
      </trkpt>
      <trkpt lat="47.21317" lon="-1.53169">
        <ele>56</ele>
        <time>2022-07-30T09:39:55Z</time>
      </trkpt>
      <trkpt lat="47.21314" lon="-1.53187">
        <ele>56</ele>
        <time>2022-07-30T09:39:57Z</time>
      </trkpt>
      <trkpt lat="47.21312" lon="-1.53207">
        <ele>56</ele>
        <time>2022-07-30T09:39:59Z</time>
      </trkpt>
      <trkpt lat="47.21311" lon="-1.53225">
        <ele>56</ele>
        <time>2022-07-30T09:40:01Z</time>
      </trkpt>
      <trkpt lat="47.2131" lon="-1.53243">
        <ele>56</ele>
        <time>2022-07-30T09:40:03Z</time>
      </trkpt>
      <trkpt lat="47.21311" lon="-1.5326">
        <ele>56</ele>
        <time>2022-07-30T09:40:05Z</time>
      </trkpt>
      <trkpt lat="47.21311" lon="-1.53278">
        <ele>56</ele>
        <time>2022-07-30T09:40:07Z</time>
      </trkpt>
      <trkpt lat="47.21311" lon="-1.53295">
        <ele>56</ele>
        <time>2022-07-30T09:40:09Z</time>
      </trkpt>
      <trkpt lat="47.21309" lon="-1.53313">
        <ele>56</ele>
        <time>2022-07-30T09:40:11Z</time>
      </trkpt>
      <trkpt lat="47.21307" lon="-1.53331">
        <ele>56</ele>
        <time>2022-07-30T09:40:13Z</time>
      </trkpt>
      <trkpt lat="47.21304" lon="-1.53348">
        <ele>55</ele>
        <time>2022-07-30T09:40:15Z</time>
      </trkpt>
      <trkpt lat="47.21301" lon="-1.53367">
        <ele>55</ele>
        <time>2022-07-30T09:40:17Z</time>
      </trkpt>
      <trkpt lat="47.21297" lon="-1.53384">
        <ele>55</ele>
        <time>2022-07-30T09:40:19Z</time>
      </trkpt>
      <trkpt lat="47.21295" lon="-1.53402">
        <ele>55</ele>
        <time>2022-07-30T09:40:21Z</time>
      </trkpt>
      <trkpt lat="47.21294" lon="-1.5342">
        <ele>55</ele>
        <time>2022-07-30T09:40:23Z</time>
      </trkpt>
      <trkpt lat="47.21292" lon="-1.53437">
        <ele>55</ele>
        <time>2022-07-30T09:40:25Z</time>
      </trkpt>
      <trkpt lat="47.21292" lon="-1.53453">
        <ele>55</ele>
        <time>2022-07-30T09:40:27Z</time>
      </trkpt>
      <trkpt lat="47.21296" lon="-1.53469">
        <ele>55</ele>
        <time>2022-07-30T09:40:29Z</time>
      </trkpt>
      <trkpt lat="47.213" lon="-1.53484">
        <ele>55</ele>
        <time>2022-07-30T09:40:31Z</time>
      </trkpt>
      <trkpt lat="47.21301" lon="-1.53501">
        <ele>56</ele>
        <time>2022-07-30T09:40:33Z</time>
      </trkpt>
      <trkpt lat="47.21301" lon="-1.53517">
        <ele>56</ele>
        <time>2022-07-30T09:40:35Z</time>
      </trkpt>
      <trkpt lat="47.21302" lon="-1.53535">
        <ele>56</ele>
        <time>2022-07-30T09:40:37Z</time>
      </trkpt>
      <trkpt lat="47.21302" lon="-1.53552">
        <ele>56</ele>
        <time>2022-07-30T09:40:39Z</time>
      </trkpt>
      <trkpt lat="47.21302" lon="-1.53569">
        <ele>57</ele>
        <time>2022-07-30T09:40:41Z</time>
      </trkpt>
      <trkpt lat="47.21303" lon="-1.53586">
        <ele>58</ele>
        <time>2022-07-30T09:40:43Z</time>
      </trkpt>
      <trkpt lat="47.21303" lon="-1.53602">
        <ele>59</ele>
        <time>2022-07-30T09:40:45Z</time>
      </trkpt>
      <trkpt lat="47.21304" lon="-1.53617">
        <ele>59</ele>
        <time>2022-07-30T09:40:47Z</time>
      </trkpt>
      <trkpt lat="47.21297" lon="-1.53631">
        <ele>59</ele>
        <time>2022-07-30T09:40:50Z</time>
      </trkpt>
      <trkpt lat="47.21294" lon="-1.53648">
        <ele>58</ele>
        <time>2022-07-30T09:40:54Z</time>
      </trkpt>
      <trkpt lat="47.21293" lon="-1.53667">
        <ele>57</ele>
        <time>2022-07-30T09:40:57Z</time>
      </trkpt>
      <trkpt lat="47.21294" lon="-1.53684">
        <ele>59</ele>
        <time>2022-07-30T09:41:00Z</time>
      </trkpt>
      <trkpt lat="47.213" lon="-1.53699">
        <ele>59</ele>
        <time>2022-07-30T09:41:02Z</time>
      </trkpt>
      <trkpt lat="47.21304" lon="-1.53715">
        <ele>60</ele>
        <time>2022-07-30T09:41:04Z</time>
      </trkpt>
      <trkpt lat="47.21307" lon="-1.53732">
        <ele>60</ele>
        <time>2022-07-30T09:41:06Z</time>
      </trkpt>
      <trkpt lat="47.2131" lon="-1.53749">
        <ele>60</ele>
        <time>2022-07-30T09:41:08Z</time>
      </trkpt>
      <trkpt lat="47.21314" lon="-1.53767">
        <ele>61</ele>
        <time>2022-07-30T09:41:10Z</time>
      </trkpt>
      <trkpt lat="47.21317" lon="-1.53783">
        <ele>61</ele>
        <time>2022-07-30T09:41:12Z</time>
      </trkpt>
      <trkpt lat="47.2132" lon="-1.538">
        <ele>62</ele>
        <time>2022-07-30T09:41:14Z</time>
      </trkpt>
      <trkpt lat="47.21323" lon="-1.53816">
        <ele>62</ele>
        <time>2022-07-30T09:41:16Z</time>
      </trkpt>
      <trkpt lat="47.21325" lon="-1.53833">
        <ele>62</ele>
        <time>2022-07-30T09:41:18Z</time>
      </trkpt>
      <trkpt lat="47.21328" lon="-1.53848">
        <ele>63</ele>
        <time>2022-07-30T09:41:20Z</time>
      </trkpt>
      <trkpt lat="47.21331" lon="-1.53865">
        <ele>63</ele>
        <time>2022-07-30T09:41:22Z</time>
      </trkpt>
      <trkpt lat="47.21334" lon="-1.53882">
        <ele>63</ele>
        <time>2022-07-30T09:41:24Z</time>
      </trkpt>
      <trkpt lat="47.21336" lon="-1.53898">
        <ele>63</ele>
        <time>2022-07-30T09:41:26Z</time>
      </trkpt>
      <trkpt lat="47.21337" lon="-1.53914">
        <ele>62</ele>
        <time>2022-07-30T09:41:28Z</time>
      </trkpt>
      <trkpt lat="47.21339" lon="-1.53928">
        <ele>62</ele>
        <time>2022-07-30T09:41:30Z</time>
      </trkpt>
      <trkpt lat="47.21342" lon="-1.53943">
        <ele>61</ele>
        <time>2022-07-30T09:41:32Z</time>
      </trkpt>
      <trkpt lat="47.21344" lon="-1.53958">
        <ele>60</ele>
        <time>2022-07-30T09:41:34Z</time>
      </trkpt>
      <trkpt lat="47.21345" lon="-1.53971">
        <ele>59</ele>
        <time>2022-07-30T09:41:36Z</time>
      </trkpt>
      <trkpt lat="47.21344" lon="-1.53985">
        <ele>59</ele>
        <time>2022-07-30T09:41:40Z</time>
      </trkpt>
      <trkpt lat="47.21353" lon="-1.53995">
        <ele>60</ele>
        <time>2022-07-30T09:41:44Z</time>
      </trkpt>
      <trkpt lat="47.21362" lon="-1.54003">
        <ele>59</ele>
        <time>2022-07-30T09:41:46Z</time>
      </trkpt>
      <trkpt lat="47.21371" lon="-1.54014">
        <ele>59</ele>
        <time>2022-07-30T09:41:48Z</time>
      </trkpt>
      <trkpt lat="47.2138" lon="-1.54027">
        <ele>59</ele>
        <time>2022-07-30T09:41:50Z</time>
      </trkpt>
      <trkpt lat="47.21388" lon="-1.54038">
        <ele>58</ele>
        <time>2022-07-30T09:41:52Z</time>
      </trkpt>
      <trkpt lat="47.21396" lon="-1.54051">
        <ele>58</ele>
        <time>2022-07-30T09:41:54Z</time>
      </trkpt>
      <trkpt lat="47.21404" lon="-1.54063">
        <ele>58</ele>
        <time>2022-07-30T09:41:56Z</time>
      </trkpt>
      <trkpt lat="47.21412" lon="-1.54075">
        <ele>58</ele>
        <time>2022-07-30T09:41:58Z</time>
      </trkpt>
      <trkpt lat="47.21421" lon="-1.54088">
        <ele>58</ele>
        <time>2022-07-30T09:42:00Z</time>
      </trkpt>
      <trkpt lat="47.21429" lon="-1.54102">
        <ele>58</ele>
        <time>2022-07-30T09:42:02Z</time>
      </trkpt>
      <trkpt lat="47.21437" lon="-1.54114">
        <ele>58</ele>
        <time>2022-07-30T09:42:04Z</time>
      </trkpt>
      <trkpt lat="47.21443" lon="-1.54129">
        <ele>59</ele>
        <time>2022-07-30T09:42:07Z</time>
      </trkpt>
      <trkpt lat="47.21451" lon="-1.54138">
        <ele>58</ele>
        <time>2022-07-30T09:42:09Z</time>
      </trkpt>
      <trkpt lat="47.2146" lon="-1.5415">
        <ele>58</ele>
        <time>2022-07-30T09:42:11Z</time>
      </trkpt>
      <trkpt lat="47.21469" lon="-1.54162">
        <ele>58</ele>
        <time>2022-07-30T09:42:13Z</time>
      </trkpt>
      <trkpt lat="47.21477" lon="-1.54176">
        <ele>59</ele>
        <time>2022-07-30T09:42:15Z</time>
      </trkpt>
      <trkpt lat="47.21486" lon="-1.5419">
        <ele>58</ele>
        <time>2022-07-30T09:42:17Z</time>
      </trkpt>
      <trkpt lat="47.21495" lon="-1.54202">
        <ele>58</ele>
        <time>2022-07-30T09:42:19Z</time>
      </trkpt>
      <trkpt lat="47.21503" lon="-1.54216">
        <ele>58</ele>
        <time>2022-07-30T09:42:21Z</time>
      </trkpt>
      <trkpt lat="47.21512" lon="-1.5423">
        <ele>58</ele>
        <time>2022-07-30T09:42:23Z</time>
      </trkpt>
      <trkpt lat="47.2152" lon="-1.54243">
        <ele>58</ele>
        <time>2022-07-30T09:42:25Z</time>
      </trkpt>
      <trkpt lat="47.21528" lon="-1.54256">
        <ele>58</ele>
        <time>2022-07-30T09:42:27Z</time>
      </trkpt>
      <trkpt lat="47.21537" lon="-1.54269">
        <ele>58</ele>
        <time>2022-07-30T09:42:29Z</time>
      </trkpt>
      <trkpt lat="47.21545" lon="-1.5428">
        <ele>58</ele>
        <time>2022-07-30T09:42:31Z</time>
      </trkpt>
      <trkpt lat="47.21555" lon="-1.54285">
        <ele>58</ele>
        <time>2022-07-30T09:42:33Z</time>
      </trkpt>
      <trkpt lat="47.21565" lon="-1.54294">
        <ele>58</ele>
        <time>2022-07-30T09:42:35Z</time>
      </trkpt>
      <trkpt lat="47.21572" lon="-1.54308">
        <ele>57</ele>
        <time>2022-07-30T09:42:37Z</time>
      </trkpt>
      <trkpt lat="47.2158" lon="-1.5432">
        <ele>58</ele>
        <time>2022-07-30T09:42:39Z</time>
      </trkpt>
      <trkpt lat="47.21587" lon="-1.54331">
        <ele>58</ele>
        <time>2022-07-30T09:42:41Z</time>
      </trkpt>
      <trkpt lat="47.21595" lon="-1.54343">
        <ele>59</ele>
        <time>2022-07-30T09:42:43Z</time>
      </trkpt>
      <trkpt lat="47.21601" lon="-1.54354">
        <ele>59</ele>
        <time>2022-07-30T09:42:45Z</time>
      </trkpt>
      <trkpt lat="47.21605" lon="-1.54373">
        <ele>61</ele>
        <time>2022-07-30T09:42:48Z</time>
      </trkpt>
      <trkpt lat="47.21606" lon="-1.54389">
        <ele>61</ele>
        <time>2022-07-30T09:42:50Z</time>
      </trkpt>
      <trkpt lat="47.21607" lon="-1.54405">
        <ele>62</ele>
        <time>2022-07-30T09:42:52Z</time>
      </trkpt>
      <trkpt lat="47.21612" lon="-1.54419">
        <ele>62</ele>
        <time>2022-07-30T09:42:54Z</time>
      </trkpt>
      <trkpt lat="47.21616" lon="-1.54439">
        <ele>63</ele>
        <time>2022-07-30T09:42:56Z</time>
      </trkpt>
      <trkpt lat="47.21615" lon="-1.54462">
        <ele>63</ele>
        <time>2022-07-30T09:42:58Z</time>
      </trkpt>
      <trkpt lat="47.21612" lon="-1.54483">
        <ele>63</ele>
        <time>2022-07-30T09:43:00Z</time>
      </trkpt>
      <trkpt lat="47.21607" lon="-1.54503">
        <ele>62</ele>
        <time>2022-07-30T09:43:02Z</time>
      </trkpt>
      <trkpt lat="47.21601" lon="-1.54521">
        <ele>62</ele>
        <time>2022-07-30T09:43:04Z</time>
      </trkpt>
      <trkpt lat="47.21594" lon="-1.54539">
        <ele>61</ele>
        <time>2022-07-30T09:43:06Z</time>
      </trkpt>
      <trkpt lat="47.21587" lon="-1.54556">
        <ele>60</ele>
        <time>2022-07-30T09:43:08Z</time>
      </trkpt>
      <trkpt lat="47.21581" lon="-1.54573">
        <ele>60</ele>
        <time>2022-07-30T09:43:10Z</time>
      </trkpt>
      <trkpt lat="47.21575" lon="-1.5459">
        <ele>59</ele>
        <time>2022-07-30T09:43:12Z</time>
      </trkpt>
      <trkpt lat="47.21568" lon="-1.54609">
        <ele>58</ele>
        <time>2022-07-30T09:43:14Z</time>
      </trkpt>
      <trkpt lat="47.2156" lon="-1.54627">
        <ele>58</ele>
        <time>2022-07-30T09:43:16Z</time>
      </trkpt>
      <trkpt lat="47.21553" lon="-1.54644">
        <ele>59</ele>
        <time>2022-07-30T09:43:18Z</time>
      </trkpt>
      <trkpt lat="47.21547" lon="-1.54659">
        <ele>59</ele>
        <time>2022-07-30T09:43:20Z</time>
      </trkpt>
      <trkpt lat="47.21541" lon="-1.54674">
        <ele>59</ele>
        <time>2022-07-30T09:43:22Z</time>
      </trkpt>
      <trkpt lat="47.21537" lon="-1.54693">
        <ele>60</ele>
        <time>2022-07-30T09:43:24Z</time>
      </trkpt>
      <trkpt lat="47.21531" lon="-1.54712">
        <ele>61</ele>
        <time>2022-07-30T09:43:26Z</time>
      </trkpt>
      <trkpt lat="47.21523" lon="-1.5473">
        <ele>60</ele>
        <time>2022-07-30T09:43:28Z</time>
      </trkpt>
      <trkpt lat="47.21515" lon="-1.54748">
        <ele>60</ele>
        <time>2022-07-30T09:43:30Z</time>
      </trkpt>
      <trkpt lat="47.21508" lon="-1.54765">
        <ele>59</ele>
        <time>2022-07-30T09:43:32Z</time>
      </trkpt>
      <trkpt lat="47.21502" lon="-1.54783">
        <ele>59</ele>
        <time>2022-07-30T09:43:34Z</time>
      </trkpt>
      <trkpt lat="47.21496" lon="-1.548">
        <ele>59</ele>
        <time>2022-07-30T09:43:36Z</time>
      </trkpt>
      <trkpt lat="47.21488" lon="-1.54817">
        <ele>59</ele>
        <time>2022-07-30T09:43:38Z</time>
      </trkpt>
      <trkpt lat="47.2148" lon="-1.54833">
        <ele>58</ele>
        <time>2022-07-30T09:43:40Z</time>
      </trkpt>
      <trkpt lat="47.21472" lon="-1.54848">
        <ele>58</ele>
        <time>2022-07-30T09:43:42Z</time>
      </trkpt>
      <trkpt lat="47.21464" lon="-1.54864">
        <ele>58</ele>
        <time>2022-07-30T09:43:44Z</time>
      </trkpt>
      <trkpt lat="47.21456" lon="-1.5488">
        <ele>58</ele>
        <time>2022-07-30T09:43:46Z</time>
      </trkpt>
      <trkpt lat="47.21448" lon="-1.54896">
        <ele>57</ele>
        <time>2022-07-30T09:43:48Z</time>
      </trkpt>
      <trkpt lat="47.21441" lon="-1.54911">
        <ele>56</ele>
        <time>2022-07-30T09:43:50Z</time>
      </trkpt>
      <trkpt lat="47.21434" lon="-1.54926">
        <ele>56</ele>
        <time>2022-07-30T09:43:52Z</time>
      </trkpt>
      <trkpt lat="47.21427" lon="-1.54941">
        <ele>56</ele>
        <time>2022-07-30T09:43:54Z</time>
      </trkpt>
      <trkpt lat="47.2142" lon="-1.54958">
        <ele>56</ele>
        <time>2022-07-30T09:43:56Z</time>
      </trkpt>
      <trkpt lat="47.21412" lon="-1.54974">
        <ele>56</ele>
        <time>2022-07-30T09:43:58Z</time>
      </trkpt>
      <trkpt lat="47.21407" lon="-1.54991">
        <ele>55</ele>
        <time>2022-07-30T09:44:00Z</time>
      </trkpt>
      <trkpt lat="47.21401" lon="-1.55008">
        <ele>55</ele>
        <time>2022-07-30T09:44:02Z</time>
      </trkpt>
      <trkpt lat="47.21394" lon="-1.55024">
        <ele>55</ele>
        <time>2022-07-30T09:44:04Z</time>
      </trkpt>
      <trkpt lat="47.21386" lon="-1.5504">
        <ele>55</ele>
        <time>2022-07-30T09:44:06Z</time>
      </trkpt>
      <trkpt lat="47.21379" lon="-1.55057">
        <ele>54</ele>
        <time>2022-07-30T09:44:08Z</time>
      </trkpt>
      <trkpt lat="47.21372" lon="-1.55073">
        <ele>55</ele>
        <time>2022-07-30T09:44:10Z</time>
      </trkpt>
      <trkpt lat="47.21366" lon="-1.55089">
        <ele>55</ele>
        <time>2022-07-30T09:44:12Z</time>
      </trkpt>
      <trkpt lat="47.21359" lon="-1.55106">
        <ele>55</ele>
        <time>2022-07-30T09:44:14Z</time>
      </trkpt>
      <trkpt lat="47.21353" lon="-1.55121">
        <ele>56</ele>
        <time>2022-07-30T09:44:16Z</time>
      </trkpt>
      <trkpt lat="47.21346" lon="-1.55138">
        <ele>55</ele>
        <time>2022-07-30T09:44:18Z</time>
      </trkpt>
      <trkpt lat="47.2134" lon="-1.55154">
        <ele>56</ele>
        <time>2022-07-30T09:44:20Z</time>
      </trkpt>
      <trkpt lat="47.21333" lon="-1.5517">
        <ele>55</ele>
        <time>2022-07-30T09:44:22Z</time>
      </trkpt>
      <trkpt lat="47.21327" lon="-1.55185">
        <ele>55</ele>
        <time>2022-07-30T09:44:24Z</time>
      </trkpt>
      <trkpt lat="47.2132" lon="-1.55201">
        <ele>55</ele>
        <time>2022-07-30T09:44:26Z</time>
      </trkpt>
      <trkpt lat="47.21313" lon="-1.55217">
        <ele>55</ele>
        <time>2022-07-30T09:44:28Z</time>
      </trkpt>
      <trkpt lat="47.21307" lon="-1.55233">
        <ele>55</ele>
        <time>2022-07-30T09:44:30Z</time>
      </trkpt>
      <trkpt lat="47.21302" lon="-1.5525">
        <ele>55</ele>
        <time>2022-07-30T09:44:32Z</time>
      </trkpt>
      <trkpt lat="47.21295" lon="-1.55266">
        <ele>55</ele>
        <time>2022-07-30T09:44:34Z</time>
      </trkpt>
      <trkpt lat="47.2129" lon="-1.55282">
        <ele>55</ele>
        <time>2022-07-30T09:44:36Z</time>
      </trkpt>
      <trkpt lat="47.21284" lon="-1.55297">
        <ele>55</ele>
        <time>2022-07-30T09:44:38Z</time>
      </trkpt>
      <trkpt lat="47.21273" lon="-1.55298">
        <ele>55</ele>
        <time>2022-07-30T09:44:40Z</time>
      </trkpt>
      <trkpt lat="47.21262" lon="-1.55297">
        <ele>57</ele>
        <time>2022-07-30T09:44:42Z</time>
      </trkpt>
      <trkpt lat="47.21257" lon="-1.55314">
        <ele>59</ele>
        <time>2022-07-30T09:44:45Z</time>
      </trkpt>
      <trkpt lat="47.2126" lon="-1.55327">
        <ele>60</ele>
        <time>2022-07-30T09:44:47Z</time>
      </trkpt>
      <trkpt lat="47.21267" lon="-1.55343">
        <ele>60</ele>
        <time>2022-07-30T09:44:50Z</time>
      </trkpt>
      <trkpt lat="47.21275" lon="-1.5535">
        <ele>60</ele>
        <time>2022-07-30T09:45:02Z</time>
      </trkpt>
      <trkpt lat="47.21283" lon="-1.55367">
        <ele>59</ele>
        <time>2022-07-30T09:45:06Z</time>
      </trkpt>
      <trkpt lat="47.21279" lon="-1.55384">
        <ele>59</ele>
        <time>2022-07-30T09:45:08Z</time>
      </trkpt>
      <trkpt lat="47.21271" lon="-1.554">
        <ele>58</ele>
        <time>2022-07-30T09:45:10Z</time>
      </trkpt>
      <trkpt lat="47.21262" lon="-1.55417">
        <ele>58</ele>
        <time>2022-07-30T09:45:12Z</time>
      </trkpt>
      <trkpt lat="47.21252" lon="-1.55432">
        <ele>58</ele>
        <time>2022-07-30T09:45:14Z</time>
      </trkpt>
      <trkpt lat="47.21243" lon="-1.55447">
        <ele>58</ele>
        <time>2022-07-30T09:45:16Z</time>
      </trkpt>
      <trkpt lat="47.21233" lon="-1.55462">
        <ele>57</ele>
        <time>2022-07-30T09:45:18Z</time>
      </trkpt>
      <trkpt lat="47.21225" lon="-1.55479">
        <ele>57</ele>
        <time>2022-07-30T09:45:20Z</time>
      </trkpt>
      <trkpt lat="47.21218" lon="-1.55496">
        <ele>57</ele>
        <time>2022-07-30T09:45:22Z</time>
      </trkpt>
      <trkpt lat="47.21213" lon="-1.55514">
        <ele>57</ele>
        <time>2022-07-30T09:45:24Z</time>
      </trkpt>
      <trkpt lat="47.21207" lon="-1.55532">
        <ele>57</ele>
        <time>2022-07-30T09:45:26Z</time>
      </trkpt>
      <trkpt lat="47.21201" lon="-1.5555">
        <ele>58</ele>
        <time>2022-07-30T09:45:28Z</time>
      </trkpt>
      <trkpt lat="47.21196" lon="-1.55568">
        <ele>58</ele>
        <time>2022-07-30T09:45:30Z</time>
      </trkpt>
      <trkpt lat="47.2119" lon="-1.55585">
        <ele>58</ele>
        <time>2022-07-30T09:45:32Z</time>
      </trkpt>
      <trkpt lat="47.21184" lon="-1.55602">
        <ele>58</ele>
        <time>2022-07-30T09:45:34Z</time>
      </trkpt>
      <trkpt lat="47.21179" lon="-1.55618">
        <ele>58</ele>
        <time>2022-07-30T09:45:36Z</time>
      </trkpt>
      <trkpt lat="47.21174" lon="-1.55635">
        <ele>58</ele>
        <time>2022-07-30T09:45:38Z</time>
      </trkpt>
      <trkpt lat="47.21172" lon="-1.55651">
        <ele>58</ele>
        <time>2022-07-30T09:45:40Z</time>
      </trkpt>
      <trkpt lat="47.21168" lon="-1.55666">
        <ele>58</ele>
        <time>2022-07-30T09:45:42Z</time>
      </trkpt>
      <trkpt lat="47.21158" lon="-1.55675">
        <ele>58</ele>
        <time>2022-07-30T09:45:44Z</time>
      </trkpt>
      <trkpt lat="47.21147" lon="-1.55671">
        <ele>58</ele>
        <time>2022-07-30T09:45:46Z</time>
      </trkpt>
      <trkpt lat="47.21136" lon="-1.55669">
        <ele>58</ele>
        <time>2022-07-30T09:45:48Z</time>
      </trkpt>
      <trkpt lat="47.21132" lon="-1.55683">
        <ele>58</ele>
        <time>2022-07-30T09:45:50Z</time>
      </trkpt>
      <trkpt lat="47.21128" lon="-1.55702">
        <ele>57</ele>
        <time>2022-07-30T09:45:52Z</time>
      </trkpt>
      <trkpt lat="47.21124" lon="-1.55721">
        <ele>57</ele>
        <time>2022-07-30T09:45:54Z</time>
      </trkpt>
      <trkpt lat="47.2112" lon="-1.55739">
        <ele>56</ele>
        <time>2022-07-30T09:45:56Z</time>
      </trkpt>
      <trkpt lat="47.21114" lon="-1.55757">
        <ele>56</ele>
        <time>2022-07-30T09:45:58Z</time>
      </trkpt>
      <trkpt lat="47.21109" lon="-1.55774">
        <ele>56</ele>
        <time>2022-07-30T09:46:00Z</time>
      </trkpt>
      <trkpt lat="47.21102" lon="-1.5579">
        <ele>55</ele>
        <time>2022-07-30T09:46:02Z</time>
      </trkpt>
      <trkpt lat="47.21098" lon="-1.55808">
        <ele>55</ele>
        <time>2022-07-30T09:46:04Z</time>
      </trkpt>
      <trkpt lat="47.21094" lon="-1.55825">
        <ele>56</ele>
        <time>2022-07-30T09:46:06Z</time>
      </trkpt>
      <trkpt lat="47.21088" lon="-1.55841">
        <ele>55</ele>
        <time>2022-07-30T09:46:08Z</time>
      </trkpt>
      <trkpt lat="47.21082" lon="-1.55855">
        <ele>55</ele>
        <time>2022-07-30T09:46:10Z</time>
      </trkpt>
      <trkpt lat="47.21076" lon="-1.5587">
        <ele>55</ele>
        <time>2022-07-30T09:46:12Z</time>
      </trkpt>
      <trkpt lat="47.21071" lon="-1.55884">
        <ele>55</ele>
        <time>2022-07-30T09:46:14Z</time>
      </trkpt>
      <trkpt lat="47.21066" lon="-1.55897">
        <ele>56</ele>
        <time>2022-07-30T09:46:16Z</time>
      </trkpt>
      <trkpt lat="47.21061" lon="-1.5591">
        <ele>56</ele>
        <time>2022-07-30T09:46:18Z</time>
      </trkpt>
      <trkpt lat="47.21054" lon="-1.55925">
        <ele>57</ele>
        <time>2022-07-30T09:46:21Z</time>
      </trkpt>
      <trkpt lat="47.21048" lon="-1.55936">
        <ele>59</ele>
        <time>2022-07-30T09:46:26Z</time>
      </trkpt>
      <trkpt lat="47.21046" lon="-1.55951">
        <ele>65</ele>
        <time>2022-07-30T09:46:32Z</time>
      </trkpt>
      <trkpt lat="47.21043" lon="-1.55964">
        <ele>69</ele>
        <time>2022-07-30T09:46:35Z</time>
      </trkpt>
      <trkpt lat="47.21035" lon="-1.5598">
        <ele>70</ele>
        <time>2022-07-30T09:46:38Z</time>
      </trkpt>
      <trkpt lat="47.21029" lon="-1.55993">
        <ele>70</ele>
        <time>2022-07-30T09:46:40Z</time>
      </trkpt>
      <trkpt lat="47.21023" lon="-1.56007">
        <ele>69</ele>
        <time>2022-07-30T09:46:42Z</time>
      </trkpt>
      <trkpt lat="47.21018" lon="-1.56021">
        <ele>69</ele>
        <time>2022-07-30T09:46:44Z</time>
      </trkpt>
      <trkpt lat="47.21012" lon="-1.56034">
        <ele>69</ele>
        <time>2022-07-30T09:46:46Z</time>
      </trkpt>
      <trkpt lat="47.21006" lon="-1.56047">
        <ele>68</ele>
        <time>2022-07-30T09:46:48Z</time>
      </trkpt>
      <trkpt lat="47.21" lon="-1.56059">
        <ele>67</ele>
        <time>2022-07-30T09:46:50Z</time>
      </trkpt>
      <trkpt lat="47.20995" lon="-1.56071">
        <ele>67</ele>
        <time>2022-07-30T09:46:52Z</time>
      </trkpt>
      <trkpt lat="47.2099" lon="-1.56084">
        <ele>65</ele>
        <time>2022-07-30T09:46:54Z</time>
      </trkpt>
      <trkpt lat="47.20991" lon="-1.56101">
        <ele>64</ele>
        <time>2022-07-30T09:46:57Z</time>
      </trkpt>
      <trkpt lat="47.20988" lon="-1.56115">
        <ele>63</ele>
        <time>2022-07-30T09:47:02Z</time>
      </trkpt>
      <trkpt lat="47.20982" lon="-1.56126">
        <ele>62</ele>
        <time>2022-07-30T09:47:05Z</time>
      </trkpt>
      <trkpt lat="47.20982" lon="-1.56144">
        <ele>61</ele>
        <time>2022-07-30T09:47:08Z</time>
      </trkpt>
      <trkpt lat="47.20985" lon="-1.5616">
        <ele>60</ele>
        <time>2022-07-30T09:47:11Z</time>
      </trkpt>
      <trkpt lat="47.20976" lon="-1.56169">
        <ele>60</ele>
        <time>2022-07-30T09:47:15Z</time>
      </trkpt>
      <trkpt lat="47.20966" lon="-1.56167">
        <ele>60</ele>
        <time>2022-07-30T09:47:17Z</time>
      </trkpt>
      <trkpt lat="47.20954" lon="-1.56164">
        <ele>61</ele>
        <time>2022-07-30T09:47:19Z</time>
      </trkpt>
      <trkpt lat="47.20941" lon="-1.56162">
        <ele>60</ele>
        <time>2022-07-30T09:47:21Z</time>
      </trkpt>
      <trkpt lat="47.20929" lon="-1.5616">
        <ele>61</ele>
        <time>2022-07-30T09:47:23Z</time>
      </trkpt>
      <trkpt lat="47.20917" lon="-1.56158">
        <ele>60</ele>
        <time>2022-07-30T09:47:25Z</time>
      </trkpt>
      <trkpt lat="47.20904" lon="-1.56155">
        <ele>59</ele>
        <time>2022-07-30T09:47:27Z</time>
      </trkpt>
      <trkpt lat="47.20892" lon="-1.56152">
        <ele>59</ele>
        <time>2022-07-30T09:47:29Z</time>
      </trkpt>
      <trkpt lat="47.2088" lon="-1.56148">
        <ele>59</ele>
        <time>2022-07-30T09:47:31Z</time>
      </trkpt>
      <trkpt lat="47.20867" lon="-1.56144">
        <ele>58</ele>
        <time>2022-07-30T09:47:33Z</time>
      </trkpt>
      <trkpt lat="47.20855" lon="-1.56141">
        <ele>57</ele>
        <time>2022-07-30T09:47:35Z</time>
      </trkpt>
      <trkpt lat="47.20845" lon="-1.56139">
        <ele>57</ele>
        <time>2022-07-30T09:47:37Z</time>
      </trkpt>
      <trkpt lat="47.20835" lon="-1.56139">
        <ele>56</ele>
        <time>2022-07-30T09:47:40Z</time>
      </trkpt>
      <trkpt lat="47.20835" lon="-1.56167">
        <ele>57</ele>
        <time>2022-07-30T09:47:44Z</time>
      </trkpt>
      <trkpt lat="47.20835" lon="-1.56185">
        <ele>57</ele>
        <time>2022-07-30T09:47:46Z</time>
      </trkpt>
      <trkpt lat="47.20836" lon="-1.56203">
        <ele>57</ele>
        <time>2022-07-30T09:47:48Z</time>
      </trkpt>
      <trkpt lat="47.20835" lon="-1.56222">
        <ele>57</ele>
        <time>2022-07-30T09:47:50Z</time>
      </trkpt>
      <trkpt lat="47.20834" lon="-1.5624">
        <ele>57</ele>
        <time>2022-07-30T09:47:52Z</time>
      </trkpt>
      <trkpt lat="47.20835" lon="-1.56268">
        <ele>57</ele>
        <time>2022-07-30T09:47:55Z</time>
      </trkpt>
      <trkpt lat="47.20834" lon="-1.56286">
        <ele>57</ele>
        <time>2022-07-30T09:47:57Z</time>
      </trkpt>
      <trkpt lat="47.20833" lon="-1.56305">
        <ele>56</ele>
        <time>2022-07-30T09:47:59Z</time>
      </trkpt>
      <trkpt lat="47.20829" lon="-1.56323">
        <ele>56</ele>
        <time>2022-07-30T09:48:01Z</time>
      </trkpt>
      <trkpt lat="47.20823" lon="-1.56349">
        <ele>56</ele>
        <time>2022-07-30T09:48:04Z</time>
      </trkpt>
      <trkpt lat="47.20819" lon="-1.56366">
        <ele>55</ele>
        <time>2022-07-30T09:48:06Z</time>
      </trkpt>
      <trkpt lat="47.20815" lon="-1.56383">
        <ele>55</ele>
        <time>2022-07-30T09:48:08Z</time>
      </trkpt>
      <trkpt lat="47.2081" lon="-1.56401">
        <ele>55</ele>
        <time>2022-07-30T09:48:10Z</time>
      </trkpt>
      <trkpt lat="47.20805" lon="-1.56418">
        <ele>55</ele>
        <time>2022-07-30T09:48:12Z</time>
      </trkpt>
      <trkpt lat="47.208" lon="-1.56436">
        <ele>55</ele>
        <time>2022-07-30T09:48:14Z</time>
      </trkpt>
      <trkpt lat="47.20796" lon="-1.56452">
        <ele>55</ele>
        <time>2022-07-30T09:48:16Z</time>
      </trkpt>
      <trkpt lat="47.20792" lon="-1.56466">
        <ele>55</ele>
        <time>2022-07-30T09:48:18Z</time>
      </trkpt>
      <trkpt lat="47.20787" lon="-1.56484">
        <ele>57</ele>
        <time>2022-07-30T09:48:21Z</time>
      </trkpt>
      <trkpt lat="47.20783" lon="-1.56497">
        <ele>57</ele>
        <time>2022-07-30T09:48:23Z</time>
      </trkpt>
      <trkpt lat="47.20779" lon="-1.56508">
        <ele>57</ele>
        <time>2022-07-30T09:48:25Z</time>
      </trkpt>
      <trkpt lat="47.20767" lon="-1.56509">
        <ele>58</ele>
        <time>2022-07-30T09:48:28Z</time>
      </trkpt>
      <trkpt lat="47.20758" lon="-1.56501">
        <ele>58</ele>
        <time>2022-07-30T09:48:30Z</time>
      </trkpt>
      <trkpt lat="47.2075" lon="-1.56495">
        <ele>59</ele>
        <time>2022-07-30T09:48:32Z</time>
      </trkpt>
      <trkpt lat="47.20741" lon="-1.56491">
        <ele>60</ele>
        <time>2022-07-30T09:48:35Z</time>
      </trkpt>
      <trkpt lat="47.20731" lon="-1.56495">
        <ele>63</ele>
        <time>2022-07-30T09:48:38Z</time>
      </trkpt>
      <trkpt lat="47.20719" lon="-1.56494">
        <ele>62</ele>
        <time>2022-07-30T09:48:40Z</time>
      </trkpt>
      <trkpt lat="47.20706" lon="-1.56483">
        <ele>61</ele>
        <time>2022-07-30T09:48:42Z</time>
      </trkpt>
      <trkpt lat="47.20693" lon="-1.56472">
        <ele>60</ele>
        <time>2022-07-30T09:48:44Z</time>
      </trkpt>
      <trkpt lat="47.20679" lon="-1.5646">
        <ele>60</ele>
        <time>2022-07-30T09:48:46Z</time>
      </trkpt>
      <trkpt lat="47.20666" lon="-1.56447">
        <ele>60</ele>
        <time>2022-07-30T09:48:48Z</time>
      </trkpt>
      <trkpt lat="47.20652" lon="-1.56435">
        <ele>59</ele>
        <time>2022-07-30T09:48:50Z</time>
      </trkpt>
      <trkpt lat="47.2064" lon="-1.56424">
        <ele>60</ele>
        <time>2022-07-30T09:48:52Z</time>
      </trkpt>
      <trkpt lat="47.20628" lon="-1.56408">
        <ele>60</ele>
        <time>2022-07-30T09:48:54Z</time>
      </trkpt>
      <trkpt lat="47.20615" lon="-1.56395">
        <ele>63</ele>
        <time>2022-07-30T09:48:56Z</time>
      </trkpt>
      <trkpt lat="47.20601" lon="-1.56385">
        <ele>63</ele>
        <time>2022-07-30T09:48:58Z</time>
      </trkpt>
      <trkpt lat="47.20589" lon="-1.56376">
        <ele>63</ele>
        <time>2022-07-30T09:49:00Z</time>
      </trkpt>
      <trkpt lat="47.20577" lon="-1.56367">
        <ele>63</ele>
        <time>2022-07-30T09:49:02Z</time>
      </trkpt>
      <trkpt lat="47.20565" lon="-1.56356">
        <ele>63</ele>
        <time>2022-07-30T09:49:04Z</time>
      </trkpt>
      <trkpt lat="47.20552" lon="-1.56344">
        <ele>61</ele>
        <time>2022-07-30T09:49:06Z</time>
      </trkpt>
      <trkpt lat="47.2054" lon="-1.56334">
        <ele>61</ele>
        <time>2022-07-30T09:49:08Z</time>
      </trkpt>
      <trkpt lat="47.20527" lon="-1.56325">
        <ele>62</ele>
        <time>2022-07-30T09:49:10Z</time>
      </trkpt>
      <trkpt lat="47.20516" lon="-1.56313">
        <ele>62</ele>
        <time>2022-07-30T09:49:12Z</time>
      </trkpt>
      <trkpt lat="47.20504" lon="-1.56304">
        <ele>61</ele>
        <time>2022-07-30T09:49:14Z</time>
      </trkpt>
      <trkpt lat="47.20492" lon="-1.56295">
        <ele>62</ele>
        <time>2022-07-30T09:49:16Z</time>
      </trkpt>
      <trkpt lat="47.2048" lon="-1.56284">
        <ele>62</ele>
        <time>2022-07-30T09:49:18Z</time>
      </trkpt>
      <trkpt lat="47.20471" lon="-1.56275">
        <ele>62</ele>
        <time>2022-07-30T09:49:20Z</time>
      </trkpt>
      <trkpt lat="47.20462" lon="-1.5627">
        <ele>63</ele>
        <time>2022-07-30T09:49:22Z</time>
      </trkpt>
      <trkpt lat="47.20453" lon="-1.56265">
        <ele>64</ele>
        <time>2022-07-30T09:49:24Z</time>
      </trkpt>
      <trkpt lat="47.20444" lon="-1.56254">
        <ele>65</ele>
        <time>2022-07-30T09:49:26Z</time>
      </trkpt>
      <trkpt lat="47.20432" lon="-1.56238">
        <ele>64</ele>
        <time>2022-07-30T09:49:28Z</time>
      </trkpt>
      <trkpt lat="47.20419" lon="-1.56227">
        <ele>64</ele>
        <time>2022-07-30T09:49:30Z</time>
      </trkpt>
      <trkpt lat="47.20408" lon="-1.56217">
        <ele>62</ele>
        <time>2022-07-30T09:49:32Z</time>
      </trkpt>
      <trkpt lat="47.20396" lon="-1.56206">
        <ele>60</ele>
        <time>2022-07-30T09:49:34Z</time>
      </trkpt>
      <trkpt lat="47.20385" lon="-1.56194">
        <ele>59</ele>
        <time>2022-07-30T09:49:36Z</time>
      </trkpt>
      <trkpt lat="47.20382" lon="-1.56176">
        <ele>58</ele>
        <time>2022-07-30T09:49:38Z</time>
      </trkpt>
      <trkpt lat="47.20384" lon="-1.56156">
        <ele>58</ele>
        <time>2022-07-30T09:49:40Z</time>
      </trkpt>
      <trkpt lat="47.20386" lon="-1.56137">
        <ele>58</ele>
        <time>2022-07-30T09:49:42Z</time>
      </trkpt>
      <trkpt lat="47.20387" lon="-1.56118">
        <ele>58</ele>
        <time>2022-07-30T09:49:44Z</time>
      </trkpt>
      <trkpt lat="47.20389" lon="-1.56099">
        <ele>58</ele>
        <time>2022-07-30T09:49:46Z</time>
      </trkpt>
      <trkpt lat="47.20391" lon="-1.56079">
        <ele>58</ele>
        <time>2022-07-30T09:49:48Z</time>
      </trkpt>
      <trkpt lat="47.20394" lon="-1.5606">
        <ele>58</ele>
        <time>2022-07-30T09:49:50Z</time>
      </trkpt>
      <trkpt lat="47.20395" lon="-1.5604">
        <ele>58</ele>
        <time>2022-07-30T09:49:52Z</time>
      </trkpt>
      <trkpt lat="47.20396" lon="-1.56021">
        <ele>58</ele>
        <time>2022-07-30T09:49:54Z</time>
      </trkpt>
      <trkpt lat="47.20397" lon="-1.56003">
        <ele>59</ele>
        <time>2022-07-30T09:49:56Z</time>
      </trkpt>
      <trkpt lat="47.20399" lon="-1.55985">
        <ele>59</ele>
        <time>2022-07-30T09:49:58Z</time>
      </trkpt>
      <trkpt lat="47.20401" lon="-1.55966">
        <ele>59</ele>
        <time>2022-07-30T09:50:00Z</time>
      </trkpt>
      <trkpt lat="47.20404" lon="-1.55947">
        <ele>59</ele>
        <time>2022-07-30T09:50:02Z</time>
      </trkpt>
      <trkpt lat="47.20405" lon="-1.55927">
        <ele>59</ele>
        <time>2022-07-30T09:50:04Z</time>
      </trkpt>
      <trkpt lat="47.20407" lon="-1.55908">
        <ele>59</ele>
        <time>2022-07-30T09:50:06Z</time>
      </trkpt>
      <trkpt lat="47.20408" lon="-1.55889">
        <ele>58</ele>
        <time>2022-07-30T09:50:08Z</time>
      </trkpt>
      <trkpt lat="47.2041" lon="-1.55869">
        <ele>58</ele>
        <time>2022-07-30T09:50:10Z</time>
      </trkpt>
      <trkpt lat="47.20412" lon="-1.55851">
        <ele>58</ele>
        <time>2022-07-30T09:50:12Z</time>
      </trkpt>
      <trkpt lat="47.20414" lon="-1.55832">
        <ele>58</ele>
        <time>2022-07-30T09:50:14Z</time>
      </trkpt>
      <trkpt lat="47.20417" lon="-1.55813">
        <ele>58</ele>
        <time>2022-07-30T09:50:16Z</time>
      </trkpt>
      <trkpt lat="47.20419" lon="-1.55794">
        <ele>58</ele>
        <time>2022-07-30T09:50:18Z</time>
      </trkpt>
      <trkpt lat="47.20421" lon="-1.55775">
        <ele>58</ele>
        <time>2022-07-30T09:50:20Z</time>
      </trkpt>
      <trkpt lat="47.20423" lon="-1.55756">
        <ele>58</ele>
        <time>2022-07-30T09:50:22Z</time>
      </trkpt>
      <trkpt lat="47.20425" lon="-1.55737">
        <ele>58</ele>
        <time>2022-07-30T09:50:24Z</time>
      </trkpt>
      <trkpt lat="47.20427" lon="-1.55717">
        <ele>58</ele>
        <time>2022-07-30T09:50:26Z</time>
      </trkpt>
      <trkpt lat="47.20429" lon="-1.55698">
        <ele>58</ele>
        <time>2022-07-30T09:50:28Z</time>
      </trkpt>
      <trkpt lat="47.20431" lon="-1.55679">
        <ele>58</ele>
        <time>2022-07-30T09:50:30Z</time>
      </trkpt>
      <trkpt lat="47.20433" lon="-1.55659">
        <ele>59</ele>
        <time>2022-07-30T09:50:32Z</time>
      </trkpt>
      <trkpt lat="47.20435" lon="-1.5564">
        <ele>59</ele>
        <time>2022-07-30T09:50:34Z</time>
      </trkpt>
      <trkpt lat="47.20437" lon="-1.55621">
        <ele>59</ele>
        <time>2022-07-30T09:50:36Z</time>
      </trkpt>
      <trkpt lat="47.20441" lon="-1.55603">
        <ele>59</ele>
        <time>2022-07-30T09:50:38Z</time>
      </trkpt>
      <trkpt lat="47.20443" lon="-1.55583">
        <ele>59</ele>
        <time>2022-07-30T09:50:40Z</time>
      </trkpt>
      <trkpt lat="47.20444" lon="-1.55564">
        <ele>59</ele>
        <time>2022-07-30T09:50:42Z</time>
      </trkpt>
      <trkpt lat="47.20446" lon="-1.55544">
        <ele>59</ele>
        <time>2022-07-30T09:50:44Z</time>
      </trkpt>
      <trkpt lat="47.20448" lon="-1.55524">
        <ele>59</ele>
        <time>2022-07-30T09:50:46Z</time>
      </trkpt>
      <trkpt lat="47.20448" lon="-1.55505">
        <ele>60</ele>
        <time>2022-07-30T09:50:48Z</time>
      </trkpt>
      <trkpt lat="47.20449" lon="-1.55485">
        <ele>59</ele>
        <time>2022-07-30T09:50:50Z</time>
      </trkpt>
      <trkpt lat="47.2045" lon="-1.55464">
        <ele>59</ele>
        <time>2022-07-30T09:50:52Z</time>
      </trkpt>
      <trkpt lat="47.20449" lon="-1.55444">
        <ele>59</ele>
        <time>2022-07-30T09:50:54Z</time>
      </trkpt>
      <trkpt lat="47.20449" lon="-1.55426">
        <ele>59</ele>
        <time>2022-07-30T09:50:56Z</time>
      </trkpt>
      <trkpt lat="47.20449" lon="-1.55407">
        <ele>58</ele>
        <time>2022-07-30T09:50:58Z</time>
      </trkpt>
      <trkpt lat="47.2045" lon="-1.55389">
        <ele>58</ele>
        <time>2022-07-30T09:51:00Z</time>
      </trkpt>
      <trkpt lat="47.20451" lon="-1.55373">
        <ele>58</ele>
        <time>2022-07-30T09:51:02Z</time>
      </trkpt>
      <trkpt lat="47.20454" lon="-1.55358">
        <ele>58</ele>
        <time>2022-07-30T09:51:04Z</time>
      </trkpt>
      <trkpt lat="47.20459" lon="-1.55343">
        <ele>59</ele>
        <time>2022-07-30T09:51:07Z</time>
      </trkpt>
      <trkpt lat="47.20457" lon="-1.55323">
        <ele>58</ele>
        <time>2022-07-30T09:51:10Z</time>
      </trkpt>
      <trkpt lat="47.20451" lon="-1.55308">
        <ele>58</ele>
        <time>2022-07-30T09:51:12Z</time>
      </trkpt>
      <trkpt lat="47.20444" lon="-1.55294">
        <ele>59</ele>
        <time>2022-07-30T09:51:14Z</time>
      </trkpt>
      <trkpt lat="47.20437" lon="-1.5528">
        <ele>59</ele>
        <time>2022-07-30T09:51:16Z</time>
      </trkpt>
      <trkpt lat="47.20429" lon="-1.55263">
        <ele>60</ele>
        <time>2022-07-30T09:51:18Z</time>
      </trkpt>
      <trkpt lat="47.20423" lon="-1.55247">
        <ele>61</ele>
        <time>2022-07-30T09:51:20Z</time>
      </trkpt>
      <trkpt lat="47.20416" lon="-1.55234">
        <ele>61</ele>
        <time>2022-07-30T09:51:22Z</time>
      </trkpt>
      <trkpt lat="47.20409" lon="-1.55221">
        <ele>63</ele>
        <time>2022-07-30T09:51:24Z</time>
      </trkpt>
      <trkpt lat="47.20402" lon="-1.55205">
        <ele>63</ele>
        <time>2022-07-30T09:51:26Z</time>
      </trkpt>
      <trkpt lat="47.20396" lon="-1.55191">
        <ele>62</ele>
        <time>2022-07-30T09:51:28Z</time>
      </trkpt>
      <trkpt lat="47.20388" lon="-1.55185">
        <ele>61</ele>
        <time>2022-07-30T09:51:33Z</time>
      </trkpt>
      <trkpt lat="47.20376" lon="-1.55186">
        <ele>60</ele>
        <time>2022-07-30T09:51:38Z</time>
      </trkpt>
      <trkpt lat="47.20368" lon="-1.55197">
        <ele>59</ele>
        <time>2022-07-30T09:51:40Z</time>
      </trkpt>
      <trkpt lat="47.20358" lon="-1.5521">
        <ele>59</ele>
        <time>2022-07-30T09:51:42Z</time>
      </trkpt>
      <trkpt lat="47.20346" lon="-1.55222">
        <ele>58</ele>
        <time>2022-07-30T09:51:44Z</time>
      </trkpt>
      <trkpt lat="47.20337" lon="-1.55236">
        <ele>59</ele>
        <time>2022-07-30T09:51:46Z</time>
      </trkpt>
      <trkpt lat="47.20328" lon="-1.55251">
        <ele>59</ele>
        <time>2022-07-30T09:51:48Z</time>
      </trkpt>
      <trkpt lat="47.20318" lon="-1.55262">
        <ele>60</ele>
        <time>2022-07-30T09:51:50Z</time>
      </trkpt>
      <trkpt lat="47.20308" lon="-1.55273">
        <ele>60</ele>
        <time>2022-07-30T09:51:52Z</time>
      </trkpt>
      <trkpt lat="47.20298" lon="-1.55284">
        <ele>60</ele>
        <time>2022-07-30T09:51:54Z</time>
      </trkpt>
      <trkpt lat="47.20288" lon="-1.55297">
        <ele>61</ele>
        <time>2022-07-30T09:51:56Z</time>
      </trkpt>
      <trkpt lat="47.20278" lon="-1.55309">
        <ele>60</ele>
        <time>2022-07-30T09:51:58Z</time>
      </trkpt>
      <trkpt lat="47.20269" lon="-1.55322">
        <ele>60</ele>
        <time>2022-07-30T09:52:00Z</time>
      </trkpt>
      <trkpt lat="47.20259" lon="-1.55335">
        <ele>60</ele>
        <time>2022-07-30T09:52:02Z</time>
      </trkpt>
      <trkpt lat="47.20251" lon="-1.55348">
        <ele>59</ele>
        <time>2022-07-30T09:52:04Z</time>
      </trkpt>
      <trkpt lat="47.20243" lon="-1.5536">
        <ele>59</ele>
        <time>2022-07-30T09:52:06Z</time>
      </trkpt>
      <trkpt lat="47.20234" lon="-1.55372">
        <ele>58</ele>
        <time>2022-07-30T09:52:08Z</time>
      </trkpt>
      <trkpt lat="47.20226" lon="-1.55384">
        <ele>58</ele>
        <time>2022-07-30T09:52:10Z</time>
      </trkpt>
      <trkpt lat="47.20216" lon="-1.55396">
        <ele>58</ele>
        <time>2022-07-30T09:52:12Z</time>
      </trkpt>
      <trkpt lat="47.20207" lon="-1.55409">
        <ele>58</ele>
        <time>2022-07-30T09:52:14Z</time>
      </trkpt>
      <trkpt lat="47.20199" lon="-1.55423">
        <ele>58</ele>
        <time>2022-07-30T09:52:16Z</time>
      </trkpt>
      <trkpt lat="47.2019" lon="-1.55437">
        <ele>58</ele>
        <time>2022-07-30T09:52:18Z</time>
      </trkpt>
      <trkpt lat="47.20183" lon="-1.55453">
        <ele>58</ele>
        <time>2022-07-30T09:52:20Z</time>
      </trkpt>
      <trkpt lat="47.2018" lon="-1.55471">
        <ele>58</ele>
        <time>2022-07-30T09:52:22Z</time>
      </trkpt>
      <trkpt lat="47.20177" lon="-1.5549">
        <ele>58</ele>
        <time>2022-07-30T09:52:24Z</time>
      </trkpt>
      <trkpt lat="47.20177" lon="-1.55508">
        <ele>58</ele>
        <time>2022-07-30T09:52:26Z</time>
      </trkpt>
      <trkpt lat="47.20184" lon="-1.55524">
        <ele>58</ele>
        <time>2022-07-30T09:52:28Z</time>
      </trkpt>
      <trkpt lat="47.20193" lon="-1.55534">
        <ele>58</ele>
        <time>2022-07-30T09:52:30Z</time>
      </trkpt>
      <trkpt lat="47.20205" lon="-1.5554">
        <ele>59</ele>
        <time>2022-07-30T09:52:32Z</time>
      </trkpt>
      <trkpt lat="47.20217" lon="-1.55545">
        <ele>59</ele>
        <time>2022-07-30T09:52:34Z</time>
      </trkpt>
      <trkpt lat="47.20228" lon="-1.55551">
        <ele>59</ele>
        <time>2022-07-30T09:52:36Z</time>
      </trkpt>
      <trkpt lat="47.2024" lon="-1.55555">
        <ele>59</ele>
        <time>2022-07-30T09:52:38Z</time>
      </trkpt>
      <trkpt lat="47.20251" lon="-1.55561">
        <ele>59</ele>
        <time>2022-07-30T09:52:40Z</time>
      </trkpt>
      <trkpt lat="47.20263" lon="-1.55564">
        <ele>59</ele>
        <time>2022-07-30T09:52:42Z</time>
      </trkpt>
      <trkpt lat="47.20275" lon="-1.55567">
        <ele>59</ele>
        <time>2022-07-30T09:52:44Z</time>
      </trkpt>
      <trkpt lat="47.20287" lon="-1.55571">
        <ele>59</ele>
        <time>2022-07-30T09:52:46Z</time>
      </trkpt>
      <trkpt lat="47.20295" lon="-1.55581">
        <ele>58</ele>
        <time>2022-07-30T09:52:48Z</time>
      </trkpt>
      <trkpt lat="47.20299" lon="-1.55596">
        <ele>58</ele>
        <time>2022-07-30T09:52:50Z</time>
      </trkpt>
      <trkpt lat="47.20297" lon="-1.55612">
        <ele>57</ele>
        <time>2022-07-30T09:52:52Z</time>
      </trkpt>
      <trkpt lat="47.20295" lon="-1.5563">
        <ele>57</ele>
        <time>2022-07-30T09:52:54Z</time>
      </trkpt>
      <trkpt lat="47.20293" lon="-1.55648">
        <ele>57</ele>
        <time>2022-07-30T09:52:56Z</time>
      </trkpt>
      <trkpt lat="47.20291" lon="-1.55666">
        <ele>56</ele>
        <time>2022-07-30T09:52:58Z</time>
      </trkpt>
      <trkpt lat="47.20289" lon="-1.55684">
        <ele>57</ele>
        <time>2022-07-30T09:53:00Z</time>
      </trkpt>
      <trkpt lat="47.20287" lon="-1.55702">
        <ele>56</ele>
        <time>2022-07-30T09:53:02Z</time>
      </trkpt>
      <trkpt lat="47.20286" lon="-1.5572">
        <ele>55</ele>
        <time>2022-07-30T09:53:04Z</time>
      </trkpt>
      <trkpt lat="47.20284" lon="-1.55739">
        <ele>56</ele>
        <time>2022-07-30T09:53:06Z</time>
      </trkpt>
      <trkpt lat="47.20281" lon="-1.55757">
        <ele>56</ele>
        <time>2022-07-30T09:53:08Z</time>
      </trkpt>
      <trkpt lat="47.20279" lon="-1.55776">
        <ele>55</ele>
        <time>2022-07-30T09:53:10Z</time>
      </trkpt>
      <trkpt lat="47.20277" lon="-1.55794">
        <ele>56</ele>
        <time>2022-07-30T09:53:12Z</time>
      </trkpt>
      <trkpt lat="47.20276" lon="-1.55812">
        <ele>56</ele>
        <time>2022-07-30T09:53:14Z</time>
      </trkpt>
      <trkpt lat="47.20274" lon="-1.5583">
        <ele>56</ele>
        <time>2022-07-30T09:53:16Z</time>
      </trkpt>
      <trkpt lat="47.20272" lon="-1.55848">
        <ele>56</ele>
        <time>2022-07-30T09:53:18Z</time>
      </trkpt>
      <trkpt lat="47.2027" lon="-1.55866">
        <ele>56</ele>
        <time>2022-07-30T09:53:20Z</time>
      </trkpt>
      <trkpt lat="47.20268" lon="-1.55883">
        <ele>56</ele>
        <time>2022-07-30T09:53:22Z</time>
      </trkpt>
      <trkpt lat="47.20267" lon="-1.55902">
        <ele>56</ele>
        <time>2022-07-30T09:53:24Z</time>
      </trkpt>
      <trkpt lat="47.20264" lon="-1.5592">
        <ele>56</ele>
        <time>2022-07-30T09:53:26Z</time>
      </trkpt>
      <trkpt lat="47.20263" lon="-1.55937">
        <ele>56</ele>
        <time>2022-07-30T09:53:28Z</time>
      </trkpt>
      <trkpt lat="47.20261" lon="-1.55954">
        <ele>56</ele>
        <time>2022-07-30T09:53:30Z</time>
      </trkpt>
      <trkpt lat="47.20259" lon="-1.55971">
        <ele>56</ele>
        <time>2022-07-30T09:53:32Z</time>
      </trkpt>
      <trkpt lat="47.20257" lon="-1.55988">
        <ele>56</ele>
        <time>2022-07-30T09:53:34Z</time>
      </trkpt>
      <trkpt lat="47.20255" lon="-1.56005">
        <ele>57</ele>
        <time>2022-07-30T09:53:36Z</time>
      </trkpt>
      <trkpt lat="47.20253" lon="-1.56022">
        <ele>57</ele>
        <time>2022-07-30T09:53:38Z</time>
      </trkpt>
      <trkpt lat="47.20251" lon="-1.56041">
        <ele>57</ele>
        <time>2022-07-30T09:53:40Z</time>
      </trkpt>
      <trkpt lat="47.2025" lon="-1.56058">
        <ele>57</ele>
        <time>2022-07-30T09:53:42Z</time>
      </trkpt>
      <trkpt lat="47.20248" lon="-1.56075">
        <ele>57</ele>
        <time>2022-07-30T09:53:44Z</time>
      </trkpt>
      <trkpt lat="47.20246" lon="-1.56092">
        <ele>56</ele>
        <time>2022-07-30T09:53:46Z</time>
      </trkpt>
      <trkpt lat="47.20245" lon="-1.56109">
        <ele>56</ele>
        <time>2022-07-30T09:53:48Z</time>
      </trkpt>
      <trkpt lat="47.20242" lon="-1.56126">
        <ele>56</ele>
        <time>2022-07-30T09:53:50Z</time>
      </trkpt>
      <trkpt lat="47.20237" lon="-1.5614">
        <ele>56</ele>
        <time>2022-07-30T09:53:52Z</time>
      </trkpt>
      <trkpt lat="47.20229" lon="-1.56153">
        <ele>56</ele>
        <time>2022-07-30T09:53:54Z</time>
      </trkpt>
      <trkpt lat="47.20219" lon="-1.56162">
        <ele>56</ele>
        <time>2022-07-30T09:53:56Z</time>
      </trkpt>
      <trkpt lat="47.20209" lon="-1.5617">
        <ele>56</ele>
        <time>2022-07-30T09:53:58Z</time>
      </trkpt>
      <trkpt lat="47.20198" lon="-1.56176">
        <ele>56</ele>
        <time>2022-07-30T09:54:00Z</time>
      </trkpt>
      <trkpt lat="47.20188" lon="-1.56183">
        <ele>56</ele>
        <time>2022-07-30T09:54:02Z</time>
      </trkpt>
      <trkpt lat="47.2018" lon="-1.56193">
        <ele>56</ele>
        <time>2022-07-30T09:54:04Z</time>
      </trkpt>
      <trkpt lat="47.20169" lon="-1.56196">
        <ele>56</ele>
        <time>2022-07-30T09:54:06Z</time>
      </trkpt>
      <trkpt lat="47.20159" lon="-1.56189">
        <ele>56</ele>
        <time>2022-07-30T09:54:08Z</time>
      </trkpt>
      <trkpt lat="47.20149" lon="-1.56182">
        <ele>56</ele>
        <time>2022-07-30T09:54:10Z</time>
      </trkpt>
      <trkpt lat="47.20138" lon="-1.56181">
        <ele>56</ele>
        <time>2022-07-30T09:54:12Z</time>
      </trkpt>
      <trkpt lat="47.20126" lon="-1.56181">
        <ele>56</ele>
        <time>2022-07-30T09:54:14Z</time>
      </trkpt>
      <trkpt lat="47.20114" lon="-1.56181">
        <ele>57</ele>
        <time>2022-07-30T09:54:16Z</time>
      </trkpt>
      <trkpt lat="47.20102" lon="-1.56181">
        <ele>57</ele>
        <time>2022-07-30T09:54:18Z</time>
      </trkpt>
      <trkpt lat="47.2009" lon="-1.56182">
        <ele>57</ele>
        <time>2022-07-30T09:54:20Z</time>
      </trkpt>
      <trkpt lat="47.20078" lon="-1.56181">
        <ele>57</ele>
        <time>2022-07-30T09:54:22Z</time>
      </trkpt>
      <trkpt lat="47.20065" lon="-1.56181">
        <ele>57</ele>
        <time>2022-07-30T09:54:24Z</time>
      </trkpt>
      <trkpt lat="47.20052" lon="-1.56181">
        <ele>57</ele>
        <time>2022-07-30T09:54:26Z</time>
      </trkpt>
      <trkpt lat="47.2004" lon="-1.56182">
        <ele>58</ele>
        <time>2022-07-30T09:54:28Z</time>
      </trkpt>
      <trkpt lat="47.20028" lon="-1.56182">
        <ele>57</ele>
        <time>2022-07-30T09:54:30Z</time>
      </trkpt>
      <trkpt lat="47.20017" lon="-1.56185">
        <ele>57</ele>
        <time>2022-07-30T09:54:32Z</time>
      </trkpt>
      <trkpt lat="47.20006" lon="-1.56188">
        <ele>57</ele>
        <time>2022-07-30T09:54:34Z</time>
      </trkpt>
      <trkpt lat="47.19997" lon="-1.56193">
        <ele>56</ele>
        <time>2022-07-30T09:54:36Z</time>
      </trkpt>
      <trkpt lat="47.19987" lon="-1.56194">
        <ele>57</ele>
        <time>2022-07-30T09:54:38Z</time>
      </trkpt>
      <trkpt lat="47.19978" lon="-1.56186">
        <ele>56</ele>
        <time>2022-07-30T09:54:40Z</time>
      </trkpt>
      <trkpt lat="47.19973" lon="-1.56172">
        <ele>57</ele>
        <time>2022-07-30T09:54:42Z</time>
      </trkpt>
      <trkpt lat="47.19962" lon="-1.56165">
        <ele>57</ele>
        <time>2022-07-30T09:54:44Z</time>
      </trkpt>
      <trkpt lat="47.19951" lon="-1.56168">
        <ele>58</ele>
        <time>2022-07-30T09:54:46Z</time>
      </trkpt>
      <trkpt lat="47.1994" lon="-1.5617">
        <ele>58</ele>
        <time>2022-07-30T09:54:48Z</time>
      </trkpt>
      <trkpt lat="47.19928" lon="-1.56173">
        <ele>58</ele>
        <time>2022-07-30T09:54:50Z</time>
      </trkpt>
      <trkpt lat="47.19917" lon="-1.56175">
        <ele>59</ele>
        <time>2022-07-30T09:54:52Z</time>
      </trkpt>
      <trkpt lat="47.19905" lon="-1.56177">
        <ele>59</ele>
        <time>2022-07-30T09:54:54Z</time>
      </trkpt>
      <trkpt lat="47.19894" lon="-1.56179">
        <ele>60</ele>
        <time>2022-07-30T09:54:56Z</time>
      </trkpt>
      <trkpt lat="47.19882" lon="-1.5618">
        <ele>60</ele>
        <time>2022-07-30T09:54:58Z</time>
      </trkpt>
      <trkpt lat="47.1987" lon="-1.56183">
        <ele>61</ele>
        <time>2022-07-30T09:55:00Z</time>
      </trkpt>
      <trkpt lat="47.19859" lon="-1.56185">
        <ele>61</ele>
        <time>2022-07-30T09:55:02Z</time>
      </trkpt>
      <trkpt lat="47.19848" lon="-1.56187">
        <ele>62</ele>
        <time>2022-07-30T09:55:04Z</time>
      </trkpt>
      <trkpt lat="47.19837" lon="-1.56189">
        <ele>62</ele>
        <time>2022-07-30T09:55:06Z</time>
      </trkpt>
      <trkpt lat="47.19825" lon="-1.56191">
        <ele>62</ele>
        <time>2022-07-30T09:55:08Z</time>
      </trkpt>
      <trkpt lat="47.19814" lon="-1.56194">
        <ele>62</ele>
        <time>2022-07-30T09:55:10Z</time>
      </trkpt>
      <trkpt lat="47.19802" lon="-1.56196">
        <ele>62</ele>
        <time>2022-07-30T09:55:12Z</time>
      </trkpt>
      <trkpt lat="47.1979" lon="-1.56198">
        <ele>62</ele>
        <time>2022-07-30T09:55:14Z</time>
      </trkpt>
      <trkpt lat="47.19778" lon="-1.56199">
        <ele>62</ele>
        <time>2022-07-30T09:55:16Z</time>
      </trkpt>
      <trkpt lat="47.19765" lon="-1.56202">
        <ele>62</ele>
        <time>2022-07-30T09:55:18Z</time>
      </trkpt>
      <trkpt lat="47.19753" lon="-1.56204">
        <ele>62</ele>
        <time>2022-07-30T09:55:20Z</time>
      </trkpt>
      <trkpt lat="47.1974" lon="-1.56207">
        <ele>61</ele>
        <time>2022-07-30T09:55:22Z</time>
      </trkpt>
      <trkpt lat="47.19726" lon="-1.56209">
        <ele>60</ele>
        <time>2022-07-30T09:55:24Z</time>
      </trkpt>
      <trkpt lat="47.19712" lon="-1.56212">
        <ele>60</ele>
        <time>2022-07-30T09:55:26Z</time>
      </trkpt>
      <trkpt lat="47.19696" lon="-1.56215">
        <ele>58</ele>
        <time>2022-07-30T09:55:28Z</time>
      </trkpt>
      <trkpt lat="47.1968" lon="-1.56219">
        <ele>57</ele>
        <time>2022-07-30T09:55:30Z</time>
      </trkpt>
      <trkpt lat="47.19664" lon="-1.56224">
        <ele>57</ele>
        <time>2022-07-30T09:55:32Z</time>
      </trkpt>
      <trkpt lat="47.19648" lon="-1.56229">
        <ele>56</ele>
        <time>2022-07-30T09:55:34Z</time>
      </trkpt>
      <trkpt lat="47.19637" lon="-1.56248">
        <ele>55</ele>
        <time>2022-07-30T09:55:36Z</time>
      </trkpt>
      <trkpt lat="47.19634" lon="-1.56272">
        <ele>56</ele>
        <time>2022-07-30T09:55:38Z</time>
      </trkpt>
      <trkpt lat="47.19633" lon="-1.56294">
        <ele>56</ele>
        <time>2022-07-30T09:55:40Z</time>
      </trkpt>
      <trkpt lat="47.19632" lon="-1.56316">
        <ele>56</ele>
        <time>2022-07-30T09:55:42Z</time>
      </trkpt>
      <trkpt lat="47.19631" lon="-1.56337">
        <ele>56</ele>
        <time>2022-07-30T09:55:44Z</time>
      </trkpt>
      <trkpt lat="47.1963" lon="-1.56358">
        <ele>56</ele>
        <time>2022-07-30T09:55:46Z</time>
      </trkpt>
      <trkpt lat="47.1963" lon="-1.56378">
        <ele>56</ele>
        <time>2022-07-30T09:55:48Z</time>
      </trkpt>
      <trkpt lat="47.19631" lon="-1.56399">
        <ele>56</ele>
        <time>2022-07-30T09:55:50Z</time>
      </trkpt>
      <trkpt lat="47.19631" lon="-1.56419">
        <ele>56</ele>
        <time>2022-07-30T09:55:52Z</time>
      </trkpt>
      <trkpt lat="47.19632" lon="-1.5644">
        <ele>55</ele>
        <time>2022-07-30T09:55:54Z</time>
      </trkpt>
      <trkpt lat="47.19632" lon="-1.5646">
        <ele>55</ele>
        <time>2022-07-30T09:55:56Z</time>
      </trkpt>
      <trkpt lat="47.19633" lon="-1.5648">
        <ele>55</ele>
        <time>2022-07-30T09:55:58Z</time>
      </trkpt>
      <trkpt lat="47.19633" lon="-1.56501">
        <ele>55</ele>
        <time>2022-07-30T09:56:00Z</time>
      </trkpt>
      <trkpt lat="47.19633" lon="-1.56521">
        <ele>54</ele>
        <time>2022-07-30T09:56:02Z</time>
      </trkpt>
      <trkpt lat="47.19633" lon="-1.56541">
        <ele>55</ele>
        <time>2022-07-30T09:56:04Z</time>
      </trkpt>
      <trkpt lat="47.19633" lon="-1.5656">
        <ele>55</ele>
        <time>2022-07-30T09:56:06Z</time>
      </trkpt>
      <trkpt lat="47.19632" lon="-1.56579">
        <ele>56</ele>
        <time>2022-07-30T09:56:08Z</time>
      </trkpt>
      <trkpt lat="47.19631" lon="-1.56599">
        <ele>56</ele>
        <time>2022-07-30T09:56:10Z</time>
      </trkpt>
      <trkpt lat="47.1963" lon="-1.56618">
        <ele>57</ele>
        <time>2022-07-30T09:56:12Z</time>
      </trkpt>
      <trkpt lat="47.19629" lon="-1.56637">
        <ele>57</ele>
        <time>2022-07-30T09:56:14Z</time>
      </trkpt>
      <trkpt lat="47.19628" lon="-1.56657">
        <ele>58</ele>
        <time>2022-07-30T09:56:16Z</time>
      </trkpt>
      <trkpt lat="47.19627" lon="-1.56677">
        <ele>58</ele>
        <time>2022-07-30T09:56:18Z</time>
      </trkpt>
      <trkpt lat="47.19627" lon="-1.56697">
        <ele>58</ele>
        <time>2022-07-30T09:56:20Z</time>
      </trkpt>
      <trkpt lat="47.19626" lon="-1.56715">
        <ele>58</ele>
        <time>2022-07-30T09:56:22Z</time>
      </trkpt>
      <trkpt lat="47.19626" lon="-1.56734">
        <ele>58</ele>
        <time>2022-07-30T09:56:24Z</time>
      </trkpt>
      <trkpt lat="47.19624" lon="-1.56754">
        <ele>58</ele>
        <time>2022-07-30T09:56:26Z</time>
      </trkpt>
      <trkpt lat="47.19623" lon="-1.56774">
        <ele>57</ele>
        <time>2022-07-30T09:56:28Z</time>
      </trkpt>
      <trkpt lat="47.19621" lon="-1.56793">
        <ele>56</ele>
        <time>2022-07-30T09:56:30Z</time>
      </trkpt>
      <trkpt lat="47.1962" lon="-1.56813">
        <ele>56</ele>
        <time>2022-07-30T09:56:32Z</time>
      </trkpt>
      <trkpt lat="47.19618" lon="-1.56832">
        <ele>56</ele>
        <time>2022-07-30T09:56:34Z</time>
      </trkpt>
      <trkpt lat="47.19617" lon="-1.5685">
        <ele>56</ele>
        <time>2022-07-30T09:56:36Z</time>
      </trkpt>
      <trkpt lat="47.19617" lon="-1.56868">
        <ele>56</ele>
        <time>2022-07-30T09:56:38Z</time>
      </trkpt>
      <trkpt lat="47.19615" lon="-1.56886">
        <ele>57</ele>
        <time>2022-07-30T09:56:40Z</time>
      </trkpt>
      <trkpt lat="47.19614" lon="-1.56904">
        <ele>56</ele>
        <time>2022-07-30T09:56:42Z</time>
      </trkpt>
      <trkpt lat="47.19613" lon="-1.56923">
        <ele>56</ele>
        <time>2022-07-30T09:56:44Z</time>
      </trkpt>
      <trkpt lat="47.19612" lon="-1.56942">
        <ele>55</ele>
        <time>2022-07-30T09:56:46Z</time>
      </trkpt>
      <trkpt lat="47.1961" lon="-1.56961">
        <ele>55</ele>
        <time>2022-07-30T09:56:48Z</time>
      </trkpt>
      <trkpt lat="47.19609" lon="-1.5698">
        <ele>54</ele>
        <time>2022-07-30T09:56:50Z</time>
      </trkpt>
      <trkpt lat="47.19607" lon="-1.56999">
        <ele>54</ele>
        <time>2022-07-30T09:56:52Z</time>
      </trkpt>
      <trkpt lat="47.19606" lon="-1.57018">
        <ele>54</ele>
        <time>2022-07-30T09:56:54Z</time>
      </trkpt>
      <trkpt lat="47.19605" lon="-1.57038">
        <ele>55</ele>
        <time>2022-07-30T09:56:56Z</time>
      </trkpt>
      <trkpt lat="47.19604" lon="-1.57056">
        <ele>55</ele>
        <time>2022-07-30T09:56:58Z</time>
      </trkpt>
      <trkpt lat="47.19603" lon="-1.57075">
        <ele>55</ele>
        <time>2022-07-30T09:57:00Z</time>
      </trkpt>
      <trkpt lat="47.19602" lon="-1.57092">
        <ele>55</ele>
        <time>2022-07-30T09:57:02Z</time>
      </trkpt>
      <trkpt lat="47.196" lon="-1.57107">
        <ele>56</ele>
        <time>2022-07-30T09:57:04Z</time>
      </trkpt>
      <trkpt lat="47.196" lon="-1.57123">
        <ele>56</ele>
        <time>2022-07-30T09:57:06Z</time>
      </trkpt>
      <trkpt lat="47.19598" lon="-1.57141">
        <ele>56</ele>
        <time>2022-07-30T09:57:08Z</time>
      </trkpt>
      <trkpt lat="47.19597" lon="-1.57158">
        <ele>56</ele>
        <time>2022-07-30T09:57:10Z</time>
      </trkpt>
      <trkpt lat="47.19596" lon="-1.57177">
        <ele>56</ele>
        <time>2022-07-30T09:57:12Z</time>
      </trkpt>
      <trkpt lat="47.19595" lon="-1.57197">
        <ele>56</ele>
        <time>2022-07-30T09:57:14Z</time>
      </trkpt>
      <trkpt lat="47.19595" lon="-1.57216">
        <ele>56</ele>
        <time>2022-07-30T09:57:16Z</time>
      </trkpt>
      <trkpt lat="47.19593" lon="-1.57235">
        <ele>56</ele>
        <time>2022-07-30T09:57:18Z</time>
      </trkpt>
      <trkpt lat="47.19591" lon="-1.57254">
        <ele>55</ele>
        <time>2022-07-30T09:57:20Z</time>
      </trkpt>
      <trkpt lat="47.19589" lon="-1.57273">
        <ele>56</ele>
        <time>2022-07-30T09:57:22Z</time>
      </trkpt>
      <trkpt lat="47.19588" lon="-1.57292">
        <ele>56</ele>
        <time>2022-07-30T09:57:24Z</time>
      </trkpt>
      <trkpt lat="47.19587" lon="-1.5731">
        <ele>55</ele>
        <time>2022-07-30T09:57:26Z</time>
      </trkpt>
      <trkpt lat="47.19584" lon="-1.57328">
        <ele>55</ele>
        <time>2022-07-30T09:57:28Z</time>
      </trkpt>
      <trkpt lat="47.19581" lon="-1.57346">
        <ele>56</ele>
        <time>2022-07-30T09:57:30Z</time>
      </trkpt>
      <trkpt lat="47.19577" lon="-1.57364">
        <ele>56</ele>
        <time>2022-07-30T09:57:32Z</time>
      </trkpt>
      <trkpt lat="47.19574" lon="-1.57381">
        <ele>56</ele>
        <time>2022-07-30T09:57:34Z</time>
      </trkpt>
      <trkpt lat="47.1957" lon="-1.57398">
        <ele>56</ele>
        <time>2022-07-30T09:57:36Z</time>
      </trkpt>
      <trkpt lat="47.19566" lon="-1.57416">
        <ele>57</ele>
        <time>2022-07-30T09:57:38Z</time>
      </trkpt>
      <trkpt lat="47.19562" lon="-1.57433">
        <ele>58</ele>
        <time>2022-07-30T09:57:40Z</time>
      </trkpt>
      <trkpt lat="47.19559" lon="-1.57452">
        <ele>58</ele>
        <time>2022-07-30T09:57:42Z</time>
      </trkpt>
      <trkpt lat="47.19556" lon="-1.57471">
        <ele>58</ele>
        <time>2022-07-30T09:57:44Z</time>
      </trkpt>
      <trkpt lat="47.19552" lon="-1.57491">
        <ele>58</ele>
        <time>2022-07-30T09:57:46Z</time>
      </trkpt>
      <trkpt lat="47.19549" lon="-1.5751">
        <ele>58</ele>
        <time>2022-07-30T09:57:48Z</time>
      </trkpt>
      <trkpt lat="47.19546" lon="-1.57528">
        <ele>58</ele>
        <time>2022-07-30T09:57:50Z</time>
      </trkpt>
      <trkpt lat="47.19541" lon="-1.57546">
        <ele>57</ele>
        <time>2022-07-30T09:57:52Z</time>
      </trkpt>
      <trkpt lat="47.19538" lon="-1.57564">
        <ele>57</ele>
        <time>2022-07-30T09:57:54Z</time>
      </trkpt>
      <trkpt lat="47.19535" lon="-1.57583">
        <ele>57</ele>
        <time>2022-07-30T09:57:56Z</time>
      </trkpt>
      <trkpt lat="47.19532" lon="-1.57601">
        <ele>57</ele>
        <time>2022-07-30T09:57:58Z</time>
      </trkpt>
      <trkpt lat="47.19528" lon="-1.57619">
        <ele>57</ele>
        <time>2022-07-30T09:58:00Z</time>
      </trkpt>
      <trkpt lat="47.19523" lon="-1.57636">
        <ele>57</ele>
        <time>2022-07-30T09:58:02Z</time>
      </trkpt>
      <trkpt lat="47.19519" lon="-1.57653">
        <ele>56</ele>
        <time>2022-07-30T09:58:04Z</time>
      </trkpt>
      <trkpt lat="47.19516" lon="-1.57671">
        <ele>55</ele>
        <time>2022-07-30T09:58:06Z</time>
      </trkpt>
      <trkpt lat="47.19512" lon="-1.5769">
        <ele>55</ele>
        <time>2022-07-30T09:58:08Z</time>
      </trkpt>
      <trkpt lat="47.19508" lon="-1.57709">
        <ele>55</ele>
        <time>2022-07-30T09:58:10Z</time>
      </trkpt>
      <trkpt lat="47.19505" lon="-1.57726">
        <ele>55</ele>
        <time>2022-07-30T09:58:12Z</time>
      </trkpt>
      <trkpt lat="47.19501" lon="-1.57744">
        <ele>55</ele>
        <time>2022-07-30T09:58:14Z</time>
      </trkpt>
      <trkpt lat="47.19498" lon="-1.57762">
        <ele>55</ele>
        <time>2022-07-30T09:58:16Z</time>
      </trkpt>
      <trkpt lat="47.19494" lon="-1.57781">
        <ele>55</ele>
        <time>2022-07-30T09:58:18Z</time>
      </trkpt>
      <trkpt lat="47.1949" lon="-1.578">
        <ele>55</ele>
        <time>2022-07-30T09:58:20Z</time>
      </trkpt>
      <trkpt lat="47.19487" lon="-1.57818">
        <ele>55</ele>
        <time>2022-07-30T09:58:22Z</time>
      </trkpt>
      <trkpt lat="47.19484" lon="-1.57834">
        <ele>55</ele>
        <time>2022-07-30T09:58:24Z</time>
      </trkpt>
      <trkpt lat="47.19481" lon="-1.57852">
        <ele>55</ele>
        <time>2022-07-30T09:58:26Z</time>
      </trkpt>
      <trkpt lat="47.19479" lon="-1.57871">
        <ele>55</ele>
        <time>2022-07-30T09:58:28Z</time>
      </trkpt>
      <trkpt lat="47.19476" lon="-1.57889">
        <ele>54</ele>
        <time>2022-07-30T09:58:30Z</time>
      </trkpt>
      <trkpt lat="47.19473" lon="-1.57909">
        <ele>54</ele>
        <time>2022-07-30T09:58:32Z</time>
      </trkpt>
      <trkpt lat="47.1947" lon="-1.57929">
        <ele>54</ele>
        <time>2022-07-30T09:58:34Z</time>
      </trkpt>
      <trkpt lat="47.19468" lon="-1.57948">
        <ele>55</ele>
        <time>2022-07-30T09:58:36Z</time>
      </trkpt>
      <trkpt lat="47.19466" lon="-1.57965">
        <ele>55</ele>
        <time>2022-07-30T09:58:38Z</time>
      </trkpt>
      <trkpt lat="47.19466" lon="-1.57982">
        <ele>55</ele>
        <time>2022-07-30T09:58:40Z</time>
      </trkpt>
      <trkpt lat="47.19465" lon="-1.58">
        <ele>55</ele>
        <time>2022-07-30T09:58:42Z</time>
      </trkpt>
      <trkpt lat="47.19463" lon="-1.58019">
        <ele>55</ele>
        <time>2022-07-30T09:58:44Z</time>
      </trkpt>
      <trkpt lat="47.19461" lon="-1.58036">
        <ele>55</ele>
        <time>2022-07-30T09:58:46Z</time>
      </trkpt>
      <trkpt lat="47.19459" lon="-1.58052">
        <ele>55</ele>
        <time>2022-07-30T09:58:48Z</time>
      </trkpt>
      <trkpt lat="47.19457" lon="-1.58068">
        <ele>55</ele>
        <time>2022-07-30T09:58:50Z</time>
      </trkpt>
      <trkpt lat="47.19456" lon="-1.58083">
        <ele>55</ele>
        <time>2022-07-30T09:58:52Z</time>
      </trkpt>
      <trkpt lat="47.19451" lon="-1.58096">
        <ele>55</ele>
        <time>2022-07-30T09:58:54Z</time>
      </trkpt>
      <trkpt lat="47.19441" lon="-1.58108">
        <ele>55</ele>
        <time>2022-07-30T09:58:56Z</time>
      </trkpt>
      <trkpt lat="47.1943" lon="-1.5812">
        <ele>55</ele>
        <time>2022-07-30T09:58:58Z</time>
      </trkpt>
      <trkpt lat="47.1942" lon="-1.58133">
        <ele>55</ele>
        <time>2022-07-30T09:59:00Z</time>
      </trkpt>
      <trkpt lat="47.19411" lon="-1.58146">
        <ele>55</ele>
        <time>2022-07-30T09:59:02Z</time>
      </trkpt>
      <trkpt lat="47.19403" lon="-1.5816">
        <ele>55</ele>
        <time>2022-07-30T09:59:04Z</time>
      </trkpt>
      <trkpt lat="47.19396" lon="-1.58174">
        <ele>55</ele>
        <time>2022-07-30T09:59:06Z</time>
      </trkpt>
      <trkpt lat="47.19389" lon="-1.58189">
        <ele>55</ele>
        <time>2022-07-30T09:59:08Z</time>
      </trkpt>
      <trkpt lat="47.19382" lon="-1.58204">
        <ele>55</ele>
        <time>2022-07-30T09:59:10Z</time>
      </trkpt>
      <trkpt lat="47.19376" lon="-1.5822">
        <ele>56</ele>
        <time>2022-07-30T09:59:12Z</time>
      </trkpt>
      <trkpt lat="47.1937" lon="-1.58237">
        <ele>55</ele>
        <time>2022-07-30T09:59:14Z</time>
      </trkpt>
      <trkpt lat="47.19365" lon="-1.58253">
        <ele>55</ele>
        <time>2022-07-30T09:59:16Z</time>
      </trkpt>
      <trkpt lat="47.19359" lon="-1.58267">
        <ele>55</ele>
        <time>2022-07-30T09:59:18Z</time>
      </trkpt>
      <trkpt lat="47.19353" lon="-1.58278">
        <ele>55</ele>
        <time>2022-07-30T09:59:20Z</time>
      </trkpt>
      <trkpt lat="47.19344" lon="-1.58288">
        <ele>55</ele>
        <time>2022-07-30T09:59:22Z</time>
      </trkpt>
      <trkpt lat="47.19334" lon="-1.58297">
        <ele>56</ele>
        <time>2022-07-30T09:59:24Z</time>
      </trkpt>
      <trkpt lat="47.19324" lon="-1.58306">
        <ele>55</ele>
        <time>2022-07-30T09:59:26Z</time>
      </trkpt>
      <trkpt lat="47.19314" lon="-1.58316">
        <ele>55</ele>
        <time>2022-07-30T09:59:28Z</time>
      </trkpt>
      <trkpt lat="47.19303" lon="-1.58325">
        <ele>55</ele>
        <time>2022-07-30T09:59:30Z</time>
      </trkpt>
      <trkpt lat="47.19292" lon="-1.58334">
        <ele>56</ele>
        <time>2022-07-30T09:59:32Z</time>
      </trkpt>
      <trkpt lat="47.19281" lon="-1.58344">
        <ele>56</ele>
        <time>2022-07-30T09:59:34Z</time>
      </trkpt>
      <trkpt lat="47.1927" lon="-1.58356">
        <ele>55</ele>
        <time>2022-07-30T09:59:36Z</time>
      </trkpt>
      <trkpt lat="47.19258" lon="-1.58367">
        <ele>55</ele>
        <time>2022-07-30T09:59:38Z</time>
      </trkpt>
      <trkpt lat="47.19247" lon="-1.58379">
        <ele>55</ele>
        <time>2022-07-30T09:59:40Z</time>
      </trkpt>
      <trkpt lat="47.19236" lon="-1.58389">
        <ele>55</ele>
        <time>2022-07-30T09:59:42Z</time>
      </trkpt>
      <trkpt lat="47.19224" lon="-1.58399">
        <ele>55</ele>
        <time>2022-07-30T09:59:44Z</time>
      </trkpt>
      <trkpt lat="47.19214" lon="-1.58408">
        <ele>55</ele>
        <time>2022-07-30T09:59:46Z</time>
      </trkpt>
      <trkpt lat="47.19202" lon="-1.58418">
        <ele>55</ele>
        <time>2022-07-30T09:59:48Z</time>
      </trkpt>
      <trkpt lat="47.19192" lon="-1.58428">
        <ele>55</ele>
        <time>2022-07-30T09:59:50Z</time>
      </trkpt>
      <trkpt lat="47.19182" lon="-1.58437">
        <ele>55</ele>
        <time>2022-07-30T09:59:52Z</time>
      </trkpt>
      <trkpt lat="47.19172" lon="-1.58446">
        <ele>55</ele>
        <time>2022-07-30T09:59:54Z</time>
      </trkpt>
      <trkpt lat="47.19164" lon="-1.58454">
        <ele>55</ele>
        <time>2022-07-30T09:59:56Z</time>
      </trkpt>
      <trkpt lat="47.19156" lon="-1.58462">
        <ele>56</ele>
        <time>2022-07-30T09:59:58Z</time>
      </trkpt>
      <trkpt lat="47.19149" lon="-1.5847">
        <ele>56</ele>
        <time>2022-07-30T10:00:00Z</time>
      </trkpt>
      <trkpt lat="47.1914" lon="-1.58479">
        <ele>56</ele>
        <time>2022-07-30T10:00:02Z</time>
      </trkpt>
      <trkpt lat="47.1913" lon="-1.58489">
        <ele>55</ele>
        <time>2022-07-30T10:00:04Z</time>
      </trkpt>
      <trkpt lat="47.19119" lon="-1.58499">
        <ele>56</ele>
        <time>2022-07-30T10:00:06Z</time>
      </trkpt>
      <trkpt lat="47.19108" lon="-1.5851">
        <ele>55</ele>
        <time>2022-07-30T10:00:08Z</time>
      </trkpt>
      <trkpt lat="47.19098" lon="-1.58519">
        <ele>56</ele>
        <time>2022-07-30T10:00:10Z</time>
      </trkpt>
      <trkpt lat="47.19087" lon="-1.58529">
        <ele>55</ele>
        <time>2022-07-30T10:00:12Z</time>
      </trkpt>
      <trkpt lat="47.19076" lon="-1.5854">
        <ele>55</ele>
        <time>2022-07-30T10:00:14Z</time>
      </trkpt>
      <trkpt lat="47.19065" lon="-1.5855">
        <ele>56</ele>
        <time>2022-07-30T10:00:16Z</time>
      </trkpt>
      <trkpt lat="47.19054" lon="-1.58562">
        <ele>56</ele>
        <time>2022-07-30T10:00:18Z</time>
      </trkpt>
      <trkpt lat="47.19044" lon="-1.58574">
        <ele>56</ele>
        <time>2022-07-30T10:00:20Z</time>
      </trkpt>
      <trkpt lat="47.19033" lon="-1.58586">
        <ele>56</ele>
        <time>2022-07-30T10:00:22Z</time>
      </trkpt>
      <trkpt lat="47.19022" lon="-1.58598">
        <ele>56</ele>
        <time>2022-07-30T10:00:24Z</time>
      </trkpt>
      <trkpt lat="47.19012" lon="-1.58609">
        <ele>56</ele>
        <time>2022-07-30T10:00:26Z</time>
      </trkpt>
      <trkpt lat="47.19001" lon="-1.5862">
        <ele>56</ele>
        <time>2022-07-30T10:00:28Z</time>
      </trkpt>
      <trkpt lat="47.18989" lon="-1.58631">
        <ele>55</ele>
        <time>2022-07-30T10:00:30Z</time>
      </trkpt>
      <trkpt lat="47.18979" lon="-1.58643">
        <ele>56</ele>
        <time>2022-07-30T10:00:32Z</time>
      </trkpt>
      <trkpt lat="47.18967" lon="-1.58654">
        <ele>55</ele>
        <time>2022-07-30T10:00:34Z</time>
      </trkpt>
      <trkpt lat="47.18956" lon="-1.58665">
        <ele>55</ele>
        <time>2022-07-30T10:00:36Z</time>
      </trkpt>
      <trkpt lat="47.18945" lon="-1.58676">
        <ele>55</ele>
        <time>2022-07-30T10:00:38Z</time>
      </trkpt>
      <trkpt lat="47.18933" lon="-1.58686">
        <ele>54</ele>
        <time>2022-07-30T10:00:40Z</time>
      </trkpt>
      <trkpt lat="47.18921" lon="-1.58697">
        <ele>54</ele>
        <time>2022-07-30T10:00:42Z</time>
      </trkpt>
      <trkpt lat="47.1891" lon="-1.58707">
        <ele>54</ele>
        <time>2022-07-30T10:00:44Z</time>
      </trkpt>
      <trkpt lat="47.18899" lon="-1.58714">
        <ele>54</ele>
        <time>2022-07-30T10:00:46Z</time>
      </trkpt>
      <trkpt lat="47.18888" lon="-1.58721">
        <ele>54</ele>
        <time>2022-07-30T10:00:48Z</time>
      </trkpt>
      <trkpt lat="47.18878" lon="-1.58726">
        <ele>54</ele>
        <time>2022-07-30T10:00:50Z</time>
      </trkpt>
      <trkpt lat="47.18868" lon="-1.58733">
        <ele>55</ele>
        <time>2022-07-30T10:00:52Z</time>
      </trkpt>
      <trkpt lat="47.18857" lon="-1.58737">
        <ele>55</ele>
        <time>2022-07-30T10:00:54Z</time>
      </trkpt>
      <trkpt lat="47.18847" lon="-1.58741">
        <ele>55</ele>
        <time>2022-07-30T10:00:56Z</time>
      </trkpt>
      <trkpt lat="47.18838" lon="-1.58747">
        <ele>55</ele>
        <time>2022-07-30T10:00:58Z</time>
      </trkpt>
      <trkpt lat="47.18833" lon="-1.58761">
        <ele>55</ele>
        <time>2022-07-30T10:01:00Z</time>
      </trkpt>
      <trkpt lat="47.1883" lon="-1.58776">
        <ele>54</ele>
        <time>2022-07-30T10:01:02Z</time>
      </trkpt>
      <trkpt lat="47.18825" lon="-1.5879">
        <ele>54</ele>
        <time>2022-07-30T10:01:04Z</time>
      </trkpt>
      <trkpt lat="47.18817" lon="-1.58802">
        <ele>54</ele>
        <time>2022-07-30T10:01:06Z</time>
      </trkpt>
      <trkpt lat="47.18806" lon="-1.58809">
        <ele>55</ele>
        <time>2022-07-30T10:01:08Z</time>
      </trkpt>
      <trkpt lat="47.18796" lon="-1.58815">
        <ele>55</ele>
        <time>2022-07-30T10:01:10Z</time>
      </trkpt>
      <trkpt lat="47.1879" lon="-1.58828">
        <ele>56</ele>
        <time>2022-07-30T10:01:12Z</time>
      </trkpt>
      <trkpt lat="47.18786" lon="-1.58844">
        <ele>56</ele>
        <time>2022-07-30T10:01:14Z</time>
      </trkpt>
      <trkpt lat="47.18781" lon="-1.5886">
        <ele>57</ele>
        <time>2022-07-30T10:01:16Z</time>
      </trkpt>
      <trkpt lat="47.18777" lon="-1.58879">
        <ele>57</ele>
        <time>2022-07-30T10:01:18Z</time>
      </trkpt>
      <trkpt lat="47.18775" lon="-1.58899">
        <ele>57</ele>
        <time>2022-07-30T10:01:20Z</time>
      </trkpt>
      <trkpt lat="47.18773" lon="-1.5892">
        <ele>56</ele>
        <time>2022-07-30T10:01:22Z</time>
      </trkpt>
      <trkpt lat="47.18771" lon="-1.5894">
        <ele>55</ele>
        <time>2022-07-30T10:01:24Z</time>
      </trkpt>
      <trkpt lat="47.18769" lon="-1.58959">
        <ele>55</ele>
        <time>2022-07-30T10:01:26Z</time>
      </trkpt>
      <trkpt lat="47.18767" lon="-1.58978">
        <ele>55</ele>
        <time>2022-07-30T10:01:28Z</time>
      </trkpt>
      <trkpt lat="47.18765" lon="-1.58998">
        <ele>55</ele>
        <time>2022-07-30T10:01:30Z</time>
      </trkpt>
      <trkpt lat="47.18762" lon="-1.59018">
        <ele>55</ele>
        <time>2022-07-30T10:01:32Z</time>
      </trkpt>
      <trkpt lat="47.1876" lon="-1.59037">
        <ele>55</ele>
        <time>2022-07-30T10:01:34Z</time>
      </trkpt>
      <trkpt lat="47.18758" lon="-1.59056">
        <ele>55</ele>
        <time>2022-07-30T10:01:36Z</time>
      </trkpt>
      <trkpt lat="47.18757" lon="-1.59075">
        <ele>54</ele>
        <time>2022-07-30T10:01:38Z</time>
      </trkpt>
      <trkpt lat="47.18754" lon="-1.59094">
        <ele>54</ele>
        <time>2022-07-30T10:01:40Z</time>
      </trkpt>
      <trkpt lat="47.18752" lon="-1.59114">
        <ele>54</ele>
        <time>2022-07-30T10:01:42Z</time>
      </trkpt>
      <trkpt lat="47.1875" lon="-1.59133">
        <ele>54</ele>
        <time>2022-07-30T10:01:44Z</time>
      </trkpt>
      <trkpt lat="47.18748" lon="-1.59152">
        <ele>54</ele>
        <time>2022-07-30T10:01:46Z</time>
      </trkpt>
      <trkpt lat="47.18746" lon="-1.59171">
        <ele>54</ele>
        <time>2022-07-30T10:01:48Z</time>
      </trkpt>
      <trkpt lat="47.18743" lon="-1.59191">
        <ele>54</ele>
        <time>2022-07-30T10:01:50Z</time>
      </trkpt>
      <trkpt lat="47.18741" lon="-1.5921">
        <ele>54</ele>
        <time>2022-07-30T10:01:52Z</time>
      </trkpt>
      <trkpt lat="47.18739" lon="-1.5923">
        <ele>54</ele>
        <time>2022-07-30T10:01:54Z</time>
      </trkpt>
      <trkpt lat="47.18737" lon="-1.59249">
        <ele>54</ele>
        <time>2022-07-30T10:01:56Z</time>
      </trkpt>
      <trkpt lat="47.18735" lon="-1.59268">
        <ele>54</ele>
        <time>2022-07-30T10:01:58Z</time>
      </trkpt>
      <trkpt lat="47.18734" lon="-1.59287">
        <ele>54</ele>
        <time>2022-07-30T10:02:00Z</time>
      </trkpt>
      <trkpt lat="47.18732" lon="-1.59306">
        <ele>54</ele>
        <time>2022-07-30T10:02:02Z</time>
      </trkpt>
      <trkpt lat="47.18729" lon="-1.59325">
        <ele>54</ele>
        <time>2022-07-30T10:02:04Z</time>
      </trkpt>
      <trkpt lat="47.18727" lon="-1.59343">
        <ele>53</ele>
        <time>2022-07-30T10:02:06Z</time>
      </trkpt>
      <trkpt lat="47.18725" lon="-1.59362">
        <ele>53</ele>
        <time>2022-07-30T10:02:08Z</time>
      </trkpt>
      <trkpt lat="47.18723" lon="-1.59381">
        <ele>53</ele>
        <time>2022-07-30T10:02:10Z</time>
      </trkpt>
      <trkpt lat="47.18721" lon="-1.594">
        <ele>53</ele>
        <time>2022-07-30T10:02:12Z</time>
      </trkpt>
      <trkpt lat="47.18719" lon="-1.59418">
        <ele>54</ele>
        <time>2022-07-30T10:02:14Z</time>
      </trkpt>
      <trkpt lat="47.18717" lon="-1.59436">
        <ele>54</ele>
        <time>2022-07-30T10:02:16Z</time>
      </trkpt>
      <trkpt lat="47.18715" lon="-1.59455">
        <ele>54</ele>
        <time>2022-07-30T10:02:18Z</time>
      </trkpt>
      <trkpt lat="47.18713" lon="-1.59474">
        <ele>54</ele>
        <time>2022-07-30T10:02:20Z</time>
      </trkpt>
      <trkpt lat="47.18711" lon="-1.59492">
        <ele>54</ele>
        <time>2022-07-30T10:02:22Z</time>
      </trkpt>
      <trkpt lat="47.18709" lon="-1.59511">
        <ele>54</ele>
        <time>2022-07-30T10:02:24Z</time>
      </trkpt>
      <trkpt lat="47.18707" lon="-1.59529">
        <ele>54</ele>
        <time>2022-07-30T10:02:26Z</time>
      </trkpt>
      <trkpt lat="47.18705" lon="-1.59547">
        <ele>54</ele>
        <time>2022-07-30T10:02:28Z</time>
      </trkpt>
      <trkpt lat="47.18703" lon="-1.59565">
        <ele>54</ele>
        <time>2022-07-30T10:02:30Z</time>
      </trkpt>
      <trkpt lat="47.18701" lon="-1.59583">
        <ele>54</ele>
        <time>2022-07-30T10:02:32Z</time>
      </trkpt>
      <trkpt lat="47.18699" lon="-1.596">
        <ele>54</ele>
        <time>2022-07-30T10:02:34Z</time>
      </trkpt>
      <trkpt lat="47.18697" lon="-1.59618">
        <ele>54</ele>
        <time>2022-07-30T10:02:36Z</time>
      </trkpt>
      <trkpt lat="47.18694" lon="-1.59637">
        <ele>54</ele>
        <time>2022-07-30T10:02:38Z</time>
      </trkpt>
      <trkpt lat="47.18691" lon="-1.59656">
        <ele>55</ele>
        <time>2022-07-30T10:02:40Z</time>
      </trkpt>
      <trkpt lat="47.18688" lon="-1.59674">
        <ele>55</ele>
        <time>2022-07-30T10:02:42Z</time>
      </trkpt>
      <trkpt lat="47.18686" lon="-1.59692">
        <ele>55</ele>
        <time>2022-07-30T10:02:44Z</time>
      </trkpt>
      <trkpt lat="47.18684" lon="-1.59709">
        <ele>55</ele>
        <time>2022-07-30T10:02:46Z</time>
      </trkpt>
      <trkpt lat="47.18684" lon="-1.59726">
        <ele>55</ele>
        <time>2022-07-30T10:02:48Z</time>
      </trkpt>
      <trkpt lat="47.18683" lon="-1.59741">
        <ele>55</ele>
        <time>2022-07-30T10:02:50Z</time>
      </trkpt>
      <trkpt lat="47.18684" lon="-1.59757">
        <ele>55</ele>
        <time>2022-07-30T10:02:52Z</time>
      </trkpt>
      <trkpt lat="47.18684" lon="-1.59775">
        <ele>56</ele>
        <time>2022-07-30T10:02:54Z</time>
      </trkpt>
      <trkpt lat="47.18685" lon="-1.59794">
        <ele>56</ele>
        <time>2022-07-30T10:02:56Z</time>
      </trkpt>
      <trkpt lat="47.18683" lon="-1.59816">
        <ele>56</ele>
        <time>2022-07-30T10:02:58Z</time>
      </trkpt>
      <trkpt lat="47.18675" lon="-1.59834">
        <ele>55</ele>
        <time>2022-07-30T10:03:00Z</time>
      </trkpt>
      <trkpt lat="47.18663" lon="-1.59844">
        <ele>55</ele>
        <time>2022-07-30T10:03:02Z</time>
      </trkpt>
      <trkpt lat="47.18649" lon="-1.59845">
        <ele>55</ele>
        <time>2022-07-30T10:03:04Z</time>
      </trkpt>
      <trkpt lat="47.18636" lon="-1.59839">
        <ele>55</ele>
        <time>2022-07-30T10:03:06Z</time>
      </trkpt>
      <trkpt lat="47.18625" lon="-1.59832">
        <ele>54</ele>
        <time>2022-07-30T10:03:08Z</time>
      </trkpt>
      <trkpt lat="47.18616" lon="-1.59839">
        <ele>55</ele>
        <time>2022-07-30T10:03:10Z</time>
      </trkpt>
      <trkpt lat="47.1862" lon="-1.59853">
        <ele>55</ele>
        <time>2022-07-30T10:03:12Z</time>
      </trkpt>
      <trkpt lat="47.18623" lon="-1.59869">
        <ele>55</ele>
        <time>2022-07-30T10:03:14Z</time>
      </trkpt>
      <trkpt lat="47.1862" lon="-1.59886">
        <ele>54</ele>
        <time>2022-07-30T10:03:16Z</time>
      </trkpt>
      <trkpt lat="47.18615" lon="-1.59903">
        <ele>54</ele>
        <time>2022-07-30T10:03:18Z</time>
      </trkpt>
      <trkpt lat="47.18611" lon="-1.5992">
        <ele>54</ele>
        <time>2022-07-30T10:03:20Z</time>
      </trkpt>
      <trkpt lat="47.18606" lon="-1.59936">
        <ele>54</ele>
        <time>2022-07-30T10:03:22Z</time>
      </trkpt>
      <trkpt lat="47.18602" lon="-1.59951">
        <ele>54</ele>
        <time>2022-07-30T10:03:24Z</time>
      </trkpt>
      <trkpt lat="47.18597" lon="-1.59967">
        <ele>55</ele>
        <time>2022-07-30T10:03:26Z</time>
      </trkpt>
      <trkpt lat="47.18592" lon="-1.59983">
        <ele>55</ele>
        <time>2022-07-30T10:03:28Z</time>
      </trkpt>
      <trkpt lat="47.18587" lon="-1.6">
        <ele>55</ele>
        <time>2022-07-30T10:03:30Z</time>
      </trkpt>
      <trkpt lat="47.18582" lon="-1.60016">
        <ele>55</ele>
        <time>2022-07-30T10:03:32Z</time>
      </trkpt>
      <trkpt lat="47.18577" lon="-1.60031">
        <ele>55</ele>
        <time>2022-07-30T10:03:34Z</time>
      </trkpt>
      <trkpt lat="47.18571" lon="-1.60047">
        <ele>55</ele>
        <time>2022-07-30T10:03:36Z</time>
      </trkpt>
      <trkpt lat="47.18565" lon="-1.60062">
        <ele>55</ele>
        <time>2022-07-30T10:03:38Z</time>
      </trkpt>
      <trkpt lat="47.18559" lon="-1.60076">
        <ele>55</ele>
        <time>2022-07-30T10:03:40Z</time>
      </trkpt>
      <trkpt lat="47.18554" lon="-1.60091">
        <ele>55</ele>
        <time>2022-07-30T10:03:42Z</time>
      </trkpt>
      <trkpt lat="47.18547" lon="-1.60106">
        <ele>55</ele>
        <time>2022-07-30T10:03:44Z</time>
      </trkpt>
      <trkpt lat="47.1854" lon="-1.6012">
        <ele>55</ele>
        <time>2022-07-30T10:03:46Z</time>
      </trkpt>
      <trkpt lat="47.18534" lon="-1.60135">
        <ele>55</ele>
        <time>2022-07-30T10:03:48Z</time>
      </trkpt>
      <trkpt lat="47.18528" lon="-1.60149">
        <ele>55</ele>
        <time>2022-07-30T10:03:50Z</time>
      </trkpt>
      <trkpt lat="47.18521" lon="-1.60164">
        <ele>55</ele>
        <time>2022-07-30T10:03:52Z</time>
      </trkpt>
      <trkpt lat="47.18514" lon="-1.60178">
        <ele>55</ele>
        <time>2022-07-30T10:03:54Z</time>
      </trkpt>
      <trkpt lat="47.18507" lon="-1.60193">
        <ele>55</ele>
        <time>2022-07-30T10:03:56Z</time>
      </trkpt>
      <trkpt lat="47.18501" lon="-1.60207">
        <ele>55</ele>
        <time>2022-07-30T10:03:58Z</time>
      </trkpt>
      <trkpt lat="47.18493" lon="-1.60221">
        <ele>55</ele>
        <time>2022-07-30T10:04:00Z</time>
      </trkpt>
      <trkpt lat="47.18486" lon="-1.60235">
        <ele>55</ele>
        <time>2022-07-30T10:04:02Z</time>
      </trkpt>
      <trkpt lat="47.18478" lon="-1.60249">
        <ele>55</ele>
        <time>2022-07-30T10:04:04Z</time>
      </trkpt>
      <trkpt lat="47.1847" lon="-1.60264">
        <ele>55</ele>
        <time>2022-07-30T10:04:06Z</time>
      </trkpt>
      <trkpt lat="47.18462" lon="-1.60278">
        <ele>55</ele>
        <time>2022-07-30T10:04:08Z</time>
      </trkpt>
      <trkpt lat="47.18454" lon="-1.60292">
        <ele>55</ele>
        <time>2022-07-30T10:04:10Z</time>
      </trkpt>
      <trkpt lat="47.18446" lon="-1.60305">
        <ele>55</ele>
        <time>2022-07-30T10:04:12Z</time>
      </trkpt>
      <trkpt lat="47.18438" lon="-1.60319">
        <ele>55</ele>
        <time>2022-07-30T10:04:14Z</time>
      </trkpt>
      <trkpt lat="47.18425" lon="-1.60339">
        <ele>55</ele>
        <time>2022-07-30T10:04:17Z</time>
      </trkpt>
      <trkpt lat="47.18417" lon="-1.60352">
        <ele>55</ele>
        <time>2022-07-30T10:04:19Z</time>
      </trkpt>
      <trkpt lat="47.18408" lon="-1.60365">
        <ele>55</ele>
        <time>2022-07-30T10:04:21Z</time>
      </trkpt>
      <trkpt lat="47.18398" lon="-1.60377">
        <ele>55</ele>
        <time>2022-07-30T10:04:23Z</time>
      </trkpt>
      <trkpt lat="47.18389" lon="-1.60389">
        <ele>55</ele>
        <time>2022-07-30T10:04:25Z</time>
      </trkpt>
      <trkpt lat="47.18379" lon="-1.60401">
        <ele>55</ele>
        <time>2022-07-30T10:04:27Z</time>
      </trkpt>
      <trkpt lat="47.1837" lon="-1.60413">
        <ele>55</ele>
        <time>2022-07-30T10:04:29Z</time>
      </trkpt>
      <trkpt lat="47.1836" lon="-1.60426">
        <ele>55</ele>
        <time>2022-07-30T10:04:31Z</time>
      </trkpt>
      <trkpt lat="47.18351" lon="-1.60438">
        <ele>55</ele>
        <time>2022-07-30T10:04:33Z</time>
      </trkpt>
      <trkpt lat="47.18342" lon="-1.6045">
        <ele>55</ele>
        <time>2022-07-30T10:04:35Z</time>
      </trkpt>
      <trkpt lat="47.18332" lon="-1.60462">
        <ele>55</ele>
        <time>2022-07-30T10:04:37Z</time>
      </trkpt>
      <trkpt lat="47.18322" lon="-1.60473">
        <ele>55</ele>
        <time>2022-07-30T10:04:39Z</time>
      </trkpt>
      <trkpt lat="47.18312" lon="-1.60484">
        <ele>55</ele>
        <time>2022-07-30T10:04:41Z</time>
      </trkpt>
      <trkpt lat="47.18303" lon="-1.60495">
        <ele>55</ele>
        <time>2022-07-30T10:04:43Z</time>
      </trkpt>
      <trkpt lat="47.18292" lon="-1.60506">
        <ele>55</ele>
        <time>2022-07-30T10:04:45Z</time>
      </trkpt>
      <trkpt lat="47.18282" lon="-1.60516">
        <ele>55</ele>
        <time>2022-07-30T10:04:47Z</time>
      </trkpt>
      <trkpt lat="47.18272" lon="-1.60526">
        <ele>55</ele>
        <time>2022-07-30T10:04:49Z</time>
      </trkpt>
      <trkpt lat="47.18262" lon="-1.60536">
        <ele>55</ele>
        <time>2022-07-30T10:04:51Z</time>
      </trkpt>
      <trkpt lat="47.18251" lon="-1.60545">
        <ele>55</ele>
        <time>2022-07-30T10:04:53Z</time>
      </trkpt>
      <trkpt lat="47.1824" lon="-1.60553">
        <ele>55</ele>
        <time>2022-07-30T10:04:55Z</time>
      </trkpt>
      <trkpt lat="47.18228" lon="-1.60561">
        <ele>56</ele>
        <time>2022-07-30T10:04:57Z</time>
      </trkpt>
      <trkpt lat="47.18217" lon="-1.60568">
        <ele>56</ele>
        <time>2022-07-30T10:04:59Z</time>
      </trkpt>
      <trkpt lat="47.18207" lon="-1.60573">
        <ele>56</ele>
        <time>2022-07-30T10:05:01Z</time>
      </trkpt>
      <trkpt lat="47.18197" lon="-1.60576">
        <ele>57</ele>
        <time>2022-07-30T10:05:03Z</time>
      </trkpt>
      <trkpt lat="47.1819" lon="-1.60589">
        <ele>57</ele>
        <time>2022-07-30T10:05:06Z</time>
      </trkpt>
      <trkpt lat="47.18185" lon="-1.606">
        <ele>57</ele>
        <time>2022-07-30T10:05:08Z</time>
      </trkpt>
      <trkpt lat="47.18174" lon="-1.60603">
        <ele>56</ele>
        <time>2022-07-30T10:05:10Z</time>
      </trkpt>
      <trkpt lat="47.18162" lon="-1.60605">
        <ele>55</ele>
        <time>2022-07-30T10:05:12Z</time>
      </trkpt>
      <trkpt lat="47.1815" lon="-1.60604">
        <ele>55</ele>
        <time>2022-07-30T10:05:14Z</time>
      </trkpt>
      <trkpt lat="47.18138" lon="-1.60603">
        <ele>55</ele>
        <time>2022-07-30T10:05:16Z</time>
      </trkpt>
      <trkpt lat="47.18126" lon="-1.606">
        <ele>55</ele>
        <time>2022-07-30T10:05:18Z</time>
      </trkpt>
      <trkpt lat="47.18114" lon="-1.60597">
        <ele>55</ele>
        <time>2022-07-30T10:05:20Z</time>
      </trkpt>
      <trkpt lat="47.18101" lon="-1.60592">
        <ele>54</ele>
        <time>2022-07-30T10:05:22Z</time>
      </trkpt>
      <trkpt lat="47.18089" lon="-1.60587">
        <ele>54</ele>
        <time>2022-07-30T10:05:24Z</time>
      </trkpt>
      <trkpt lat="47.18078" lon="-1.60581">
        <ele>54</ele>
        <time>2022-07-30T10:05:26Z</time>
      </trkpt>
      <trkpt lat="47.18067" lon="-1.60574">
        <ele>53</ele>
        <time>2022-07-30T10:05:28Z</time>
      </trkpt>
      <trkpt lat="47.18056" lon="-1.60567">
        <ele>53</ele>
        <time>2022-07-30T10:05:30Z</time>
      </trkpt>
      <trkpt lat="47.18044" lon="-1.6056">
        <ele>53</ele>
        <time>2022-07-30T10:05:32Z</time>
      </trkpt>
      <trkpt lat="47.18033" lon="-1.60555">
        <ele>54</ele>
        <time>2022-07-30T10:05:34Z</time>
      </trkpt>
      <trkpt lat="47.18021" lon="-1.60553">
        <ele>54</ele>
        <time>2022-07-30T10:05:36Z</time>
      </trkpt>
      <trkpt lat="47.18008" lon="-1.60555">
        <ele>54</ele>
        <time>2022-07-30T10:05:38Z</time>
      </trkpt>
      <trkpt lat="47.17996" lon="-1.60558">
        <ele>54</ele>
        <time>2022-07-30T10:05:40Z</time>
      </trkpt>
      <trkpt lat="47.17984" lon="-1.60563">
        <ele>54</ele>
        <time>2022-07-30T10:05:42Z</time>
      </trkpt>
      <trkpt lat="47.17973" lon="-1.60568">
        <ele>54</ele>
        <time>2022-07-30T10:05:44Z</time>
      </trkpt>
      <trkpt lat="47.17962" lon="-1.60572">
        <ele>54</ele>
        <time>2022-07-30T10:05:46Z</time>
      </trkpt>
      <trkpt lat="47.17951" lon="-1.60578">
        <ele>54</ele>
        <time>2022-07-30T10:05:48Z</time>
      </trkpt>
      <trkpt lat="47.1794" lon="-1.60585">
        <ele>55</ele>
        <time>2022-07-30T10:05:50Z</time>
      </trkpt>
      <trkpt lat="47.17931" lon="-1.60588">
        <ele>56</ele>
        <time>2022-07-30T10:05:52Z</time>
      </trkpt>
      <trkpt lat="47.17921" lon="-1.60588">
        <ele>57</ele>
        <time>2022-07-30T10:05:59Z</time>
      </trkpt>
      <trkpt lat="47.17909" lon="-1.60593">
        <ele>56</ele>
        <time>2022-07-30T10:06:11Z</time>
      </trkpt>
      <trkpt lat="47.17903" lon="-1.60606">
        <ele>56</ele>
        <time>2022-07-30T10:06:13Z</time>
      </trkpt>
      <trkpt lat="47.17899" lon="-1.60621">
        <ele>56</ele>
        <time>2022-07-30T10:06:15Z</time>
      </trkpt>
      <trkpt lat="47.17893" lon="-1.60638">
        <ele>56</ele>
        <time>2022-07-30T10:06:17Z</time>
      </trkpt>
      <trkpt lat="47.17887" lon="-1.60654">
        <ele>55</ele>
        <time>2022-07-30T10:06:19Z</time>
      </trkpt>
      <trkpt lat="47.17882" lon="-1.60671">
        <ele>54</ele>
        <time>2022-07-30T10:06:21Z</time>
      </trkpt>
      <trkpt lat="47.17877" lon="-1.60688">
        <ele>54</ele>
        <time>2022-07-30T10:06:23Z</time>
      </trkpt>
      <trkpt lat="47.17872" lon="-1.60704">
        <ele>53</ele>
        <time>2022-07-30T10:06:25Z</time>
      </trkpt>
      <trkpt lat="47.17869" lon="-1.60721">
        <ele>53</ele>
        <time>2022-07-30T10:06:27Z</time>
      </trkpt>
      <trkpt lat="47.17864" lon="-1.60738">
        <ele>53</ele>
        <time>2022-07-30T10:06:29Z</time>
      </trkpt>
      <trkpt lat="47.17861" lon="-1.60754">
        <ele>53</ele>
        <time>2022-07-30T10:06:31Z</time>
      </trkpt>
      <trkpt lat="47.17857" lon="-1.6077">
        <ele>53</ele>
        <time>2022-07-30T10:06:33Z</time>
      </trkpt>
      <trkpt lat="47.17853" lon="-1.60787">
        <ele>53</ele>
        <time>2022-07-30T10:06:35Z</time>
      </trkpt>
      <trkpt lat="47.1785" lon="-1.60803">
        <ele>53</ele>
        <time>2022-07-30T10:06:37Z</time>
      </trkpt>
      <trkpt lat="47.17846" lon="-1.60819">
        <ele>54</ele>
        <time>2022-07-30T10:06:39Z</time>
      </trkpt>
      <trkpt lat="47.17841" lon="-1.60837">
        <ele>53</ele>
        <time>2022-07-30T10:06:41Z</time>
      </trkpt>
      <trkpt lat="47.17835" lon="-1.60852">
        <ele>53</ele>
        <time>2022-07-30T10:06:43Z</time>
      </trkpt>
      <trkpt lat="47.17828" lon="-1.60866">
        <ele>53</ele>
        <time>2022-07-30T10:06:45Z</time>
      </trkpt>
      <trkpt lat="47.17819" lon="-1.60879">
        <ele>53</ele>
        <time>2022-07-30T10:06:47Z</time>
      </trkpt>
      <trkpt lat="47.1781" lon="-1.6089">
        <ele>53</ele>
        <time>2022-07-30T10:06:49Z</time>
      </trkpt>
      <trkpt lat="47.178" lon="-1.60899">
        <ele>53</ele>
        <time>2022-07-30T10:06:51Z</time>
      </trkpt>
      <trkpt lat="47.17789" lon="-1.60907">
        <ele>53</ele>
        <time>2022-07-30T10:06:53Z</time>
      </trkpt>
      <trkpt lat="47.17778" lon="-1.60914">
        <ele>54</ele>
        <time>2022-07-30T10:06:55Z</time>
      </trkpt>
      <trkpt lat="47.17768" lon="-1.60923">
        <ele>54</ele>
        <time>2022-07-30T10:06:57Z</time>
      </trkpt>
      <trkpt lat="47.17758" lon="-1.60932">
        <ele>55</ele>
        <time>2022-07-30T10:06:59Z</time>
      </trkpt>
      <trkpt lat="47.17748" lon="-1.60939">
        <ele>54</ele>
        <time>2022-07-30T10:07:01Z</time>
      </trkpt>
      <trkpt lat="47.17738" lon="-1.60947">
        <ele>54</ele>
        <time>2022-07-30T10:07:03Z</time>
      </trkpt>
      <trkpt lat="47.17727" lon="-1.60955">
        <ele>54</ele>
        <time>2022-07-30T10:07:05Z</time>
      </trkpt>
      <trkpt lat="47.17716" lon="-1.60961">
        <ele>55</ele>
        <time>2022-07-30T10:07:07Z</time>
      </trkpt>
      <trkpt lat="47.17705" lon="-1.60968">
        <ele>55</ele>
        <time>2022-07-30T10:07:09Z</time>
      </trkpt>
      <trkpt lat="47.17693" lon="-1.60972">
        <ele>55</ele>
        <time>2022-07-30T10:07:11Z</time>
      </trkpt>
      <trkpt lat="47.17681" lon="-1.60972">
        <ele>54</ele>
        <time>2022-07-30T10:07:13Z</time>
      </trkpt>
      <trkpt lat="47.17667" lon="-1.6097">
        <ele>53</ele>
        <time>2022-07-30T10:07:15Z</time>
      </trkpt>
      <trkpt lat="47.17654" lon="-1.60976">
        <ele>53</ele>
        <time>2022-07-30T10:07:17Z</time>
      </trkpt>
      <trkpt lat="47.17643" lon="-1.60986">
        <ele>53</ele>
        <time>2022-07-30T10:07:19Z</time>
      </trkpt>
      <trkpt lat="47.17633" lon="-1.60995">
        <ele>53</ele>
        <time>2022-07-30T10:07:21Z</time>
      </trkpt>
      <trkpt lat="47.17621" lon="-1.61005">
        <ele>53</ele>
        <time>2022-07-30T10:07:23Z</time>
      </trkpt>
      <trkpt lat="47.17611" lon="-1.61015">
        <ele>53</ele>
        <time>2022-07-30T10:07:25Z</time>
      </trkpt>
      <trkpt lat="47.176" lon="-1.61025">
        <ele>53</ele>
        <time>2022-07-30T10:07:27Z</time>
      </trkpt>
      <trkpt lat="47.1759" lon="-1.61035">
        <ele>53</ele>
        <time>2022-07-30T10:07:29Z</time>
      </trkpt>
      <trkpt lat="47.1758" lon="-1.61044">
        <ele>53</ele>
        <time>2022-07-30T10:07:31Z</time>
      </trkpt>
      <trkpt lat="47.1757" lon="-1.61053">
        <ele>54</ele>
        <time>2022-07-30T10:07:33Z</time>
      </trkpt>
      <trkpt lat="47.17558" lon="-1.61062">
        <ele>53</ele>
        <time>2022-07-30T10:07:35Z</time>
      </trkpt>
      <trkpt lat="47.17548" lon="-1.6107">
        <ele>53</ele>
        <time>2022-07-30T10:07:37Z</time>
      </trkpt>
      <trkpt lat="47.17537" lon="-1.61079">
        <ele>53</ele>
        <time>2022-07-30T10:07:39Z</time>
      </trkpt>
      <trkpt lat="47.17527" lon="-1.61088">
        <ele>54</ele>
        <time>2022-07-30T10:07:41Z</time>
      </trkpt>
      <trkpt lat="47.17516" lon="-1.61097">
        <ele>54</ele>
        <time>2022-07-30T10:07:43Z</time>
      </trkpt>
      <trkpt lat="47.17505" lon="-1.61103">
        <ele>54</ele>
        <time>2022-07-30T10:07:45Z</time>
      </trkpt>
      <trkpt lat="47.17494" lon="-1.61105">
        <ele>54</ele>
        <time>2022-07-30T10:07:47Z</time>
      </trkpt>
      <trkpt lat="47.17483" lon="-1.61105">
        <ele>54</ele>
        <time>2022-07-30T10:07:49Z</time>
      </trkpt>
      <trkpt lat="47.17472" lon="-1.61099">
        <ele>54</ele>
        <time>2022-07-30T10:07:51Z</time>
      </trkpt>
      <trkpt lat="47.17463" lon="-1.6109">
        <ele>54</ele>
        <time>2022-07-30T10:07:53Z</time>
      </trkpt>
      <trkpt lat="47.17454" lon="-1.61081">
        <ele>54</ele>
        <time>2022-07-30T10:07:55Z</time>
      </trkpt>
      <trkpt lat="47.17446" lon="-1.6107">
        <ele>55</ele>
        <time>2022-07-30T10:07:57Z</time>
      </trkpt>
      <trkpt lat="47.1744" lon="-1.61055">
        <ele>55</ele>
        <time>2022-07-30T10:07:59Z</time>
      </trkpt>
      <trkpt lat="47.17435" lon="-1.61041">
        <ele>55</ele>
        <time>2022-07-30T10:08:01Z</time>
      </trkpt>
      <trkpt lat="47.1743" lon="-1.61028">
        <ele>56</ele>
        <time>2022-07-30T10:08:03Z</time>
      </trkpt>
      <trkpt lat="47.17423" lon="-1.61019">
        <ele>56</ele>
        <time>2022-07-30T10:08:06Z</time>
      </trkpt>
      <trkpt lat="47.17421" lon="-1.61036">
        <ele>57</ele>
        <time>2022-07-30T10:08:09Z</time>
      </trkpt>
      <trkpt lat="47.17424" lon="-1.61049">
        <ele>57</ele>
        <time>2022-07-30T10:08:11Z</time>
      </trkpt>
      <trkpt lat="47.1743" lon="-1.61062">
        <ele>58</ele>
        <time>2022-07-30T10:08:13Z</time>
      </trkpt>
      <trkpt lat="47.17435" lon="-1.61076">
        <ele>58</ele>
        <time>2022-07-30T10:08:15Z</time>
      </trkpt>
      <trkpt lat="47.17441" lon="-1.6109">
        <ele>58</ele>
        <time>2022-07-30T10:08:17Z</time>
      </trkpt>
      <trkpt lat="47.17446" lon="-1.61105">
        <ele>59</ele>
        <time>2022-07-30T10:08:19Z</time>
      </trkpt>
      <trkpt lat="47.17452" lon="-1.61119">
        <ele>60</ele>
        <time>2022-07-30T10:08:21Z</time>
      </trkpt>
      <trkpt lat="47.17457" lon="-1.61133">
        <ele>60</ele>
        <time>2022-07-30T10:08:23Z</time>
      </trkpt>
      <trkpt lat="47.17462" lon="-1.61146">
        <ele>61</ele>
        <time>2022-07-30T10:08:25Z</time>
      </trkpt>
      <trkpt lat="47.17468" lon="-1.61161">
        <ele>61</ele>
        <time>2022-07-30T10:08:27Z</time>
      </trkpt>
      <trkpt lat="47.17474" lon="-1.61174">
        <ele>62</ele>
        <time>2022-07-30T10:08:29Z</time>
      </trkpt>
      <trkpt lat="47.1748" lon="-1.61188">
        <ele>61</ele>
        <time>2022-07-30T10:08:31Z</time>
      </trkpt>
      <trkpt lat="47.17486" lon="-1.61201">
        <ele>62</ele>
        <time>2022-07-30T10:08:33Z</time>
      </trkpt>
      <trkpt lat="47.17491" lon="-1.61214">
        <ele>62</ele>
        <time>2022-07-30T10:08:35Z</time>
      </trkpt>
      <trkpt lat="47.17496" lon="-1.61226">
        <ele>61</ele>
        <time>2022-07-30T10:08:37Z</time>
      </trkpt>
      <trkpt lat="47.17502" lon="-1.61238">
        <ele>62</ele>
        <time>2022-07-30T10:08:39Z</time>
      </trkpt>
      <trkpt lat="47.17508" lon="-1.61249">
        <ele>62</ele>
        <time>2022-07-30T10:08:41Z</time>
      </trkpt>
      <trkpt lat="47.17514" lon="-1.61261">
        <ele>62</ele>
        <time>2022-07-30T10:08:43Z</time>
      </trkpt>
      <trkpt lat="47.17521" lon="-1.61272">
        <ele>62</ele>
        <time>2022-07-30T10:08:45Z</time>
      </trkpt>
      <trkpt lat="47.17529" lon="-1.61282">
        <ele>62</ele>
        <time>2022-07-30T10:08:47Z</time>
      </trkpt>
      <trkpt lat="47.17538" lon="-1.61288">
        <ele>62</ele>
        <time>2022-07-30T10:08:49Z</time>
      </trkpt>
      <trkpt lat="47.17547" lon="-1.61295">
        <ele>62</ele>
        <time>2022-07-30T10:08:51Z</time>
      </trkpt>
      <trkpt lat="47.17557" lon="-1.61303">
        <ele>62</ele>
        <time>2022-07-30T10:08:53Z</time>
      </trkpt>
      <trkpt lat="47.17561" lon="-1.61318">
        <ele>62</ele>
        <time>2022-07-30T10:08:55Z</time>
      </trkpt>
      <trkpt lat="47.1756" lon="-1.61333">
        <ele>61</ele>
        <time>2022-07-30T10:08:57Z</time>
      </trkpt>
      <trkpt lat="47.17552" lon="-1.61347">
        <ele>62</ele>
        <time>2022-07-30T10:08:59Z</time>
      </trkpt>
      <trkpt lat="47.17543" lon="-1.61357">
        <ele>61</ele>
        <time>2022-07-30T10:09:01Z</time>
      </trkpt>
      <trkpt lat="47.17534" lon="-1.61369">
        <ele>61</ele>
        <time>2022-07-30T10:09:03Z</time>
      </trkpt>
      <trkpt lat="47.17529" lon="-1.61382">
        <ele>61</ele>
        <time>2022-07-30T10:09:05Z</time>
      </trkpt>
      <trkpt lat="47.17525" lon="-1.61397">
        <ele>62</ele>
        <time>2022-07-30T10:09:07Z</time>
      </trkpt>
      <trkpt lat="47.17521" lon="-1.61411">
        <ele>62</ele>
        <time>2022-07-30T10:09:09Z</time>
      </trkpt>
      <trkpt lat="47.17518" lon="-1.61425">
        <ele>63</ele>
        <time>2022-07-30T10:09:11Z</time>
      </trkpt>
      <trkpt lat="47.17515" lon="-1.61438">
        <ele>64</ele>
        <time>2022-07-30T10:09:13Z</time>
      </trkpt>
      <trkpt lat="47.17511" lon="-1.61451">
        <ele>64</ele>
        <time>2022-07-30T10:09:15Z</time>
      </trkpt>
      <trkpt lat="47.17504" lon="-1.61462">
        <ele>65</ele>
        <time>2022-07-30T10:09:17Z</time>
      </trkpt>
      <trkpt lat="47.17493" lon="-1.61467">
        <ele>65</ele>
        <time>2022-07-30T10:09:19Z</time>
      </trkpt>
      <trkpt lat="47.17482" lon="-1.61471">
        <ele>65</ele>
        <time>2022-07-30T10:09:21Z</time>
      </trkpt>
      <trkpt lat="47.17472" lon="-1.61475">
        <ele>66</ele>
        <time>2022-07-30T10:09:23Z</time>
      </trkpt>
      <trkpt lat="47.17461" lon="-1.61479">
        <ele>66</ele>
        <time>2022-07-30T10:09:25Z</time>
      </trkpt>
      <trkpt lat="47.17452" lon="-1.61484">
        <ele>66</ele>
        <time>2022-07-30T10:09:27Z</time>
      </trkpt>
      <trkpt lat="47.17442" lon="-1.61489">
        <ele>67</ele>
        <time>2022-07-30T10:09:29Z</time>
      </trkpt>
      <trkpt lat="47.17432" lon="-1.61495">
        <ele>68</ele>
        <time>2022-07-30T10:09:31Z</time>
      </trkpt>
      <trkpt lat="47.17423" lon="-1.61501">
        <ele>68</ele>
        <time>2022-07-30T10:09:33Z</time>
      </trkpt>
      <trkpt lat="47.17415" lon="-1.61507">
        <ele>68</ele>
        <time>2022-07-30T10:09:35Z</time>
      </trkpt>
      <trkpt lat="47.17406" lon="-1.61514">
        <ele>68</ele>
        <time>2022-07-30T10:09:37Z</time>
      </trkpt>
      <trkpt lat="47.17397" lon="-1.6152">
        <ele>68</ele>
        <time>2022-07-30T10:09:39Z</time>
      </trkpt>
      <trkpt lat="47.17389" lon="-1.61526">
        <ele>69</ele>
        <time>2022-07-30T10:09:41Z</time>
      </trkpt>
      <trkpt lat="47.17381" lon="-1.61534">
        <ele>69</ele>
        <time>2022-07-30T10:09:43Z</time>
      </trkpt>
      <trkpt lat="47.17374" lon="-1.61541">
        <ele>70</ele>
        <time>2022-07-30T10:09:45Z</time>
      </trkpt>
      <trkpt lat="47.17363" lon="-1.61553">
        <ele>70</ele>
        <time>2022-07-30T10:09:48Z</time>
      </trkpt>
      <trkpt lat="47.17355" lon="-1.61562">
        <ele>71</ele>
        <time>2022-07-30T10:09:50Z</time>
      </trkpt>
      <trkpt lat="47.17348" lon="-1.6157">
        <ele>71</ele>
        <time>2022-07-30T10:09:52Z</time>
      </trkpt>
      <trkpt lat="47.17337" lon="-1.61582">
        <ele>72</ele>
        <time>2022-07-30T10:09:55Z</time>
      </trkpt>
      <trkpt lat="47.1733" lon="-1.61592">
        <ele>71</ele>
        <time>2022-07-30T10:09:57Z</time>
      </trkpt>
      <trkpt lat="47.17323" lon="-1.616">
        <ele>72</ele>
        <time>2022-07-30T10:09:59Z</time>
      </trkpt>
      <trkpt lat="47.17315" lon="-1.6161">
        <ele>72</ele>
        <time>2022-07-30T10:10:01Z</time>
      </trkpt>
      <trkpt lat="47.17308" lon="-1.6162">
        <ele>73</ele>
        <time>2022-07-30T10:10:03Z</time>
      </trkpt>
      <trkpt lat="47.17302" lon="-1.61631">
        <ele>73</ele>
        <time>2022-07-30T10:10:05Z</time>
      </trkpt>
      <trkpt lat="47.17295" lon="-1.61642">
        <ele>73</ele>
        <time>2022-07-30T10:10:07Z</time>
      </trkpt>
      <trkpt lat="47.17289" lon="-1.61654">
        <ele>73</ele>
        <time>2022-07-30T10:10:09Z</time>
      </trkpt>
      <trkpt lat="47.17283" lon="-1.61665">
        <ele>73</ele>
        <time>2022-07-30T10:10:11Z</time>
      </trkpt>
      <trkpt lat="47.17276" lon="-1.61675">
        <ele>74</ele>
        <time>2022-07-30T10:10:13Z</time>
      </trkpt>
      <trkpt lat="47.1727" lon="-1.61687">
        <ele>74</ele>
        <time>2022-07-30T10:10:15Z</time>
      </trkpt>
      <trkpt lat="47.17264" lon="-1.61699">
        <ele>74</ele>
        <time>2022-07-30T10:10:17Z</time>
      </trkpt>
      <trkpt lat="47.17258" lon="-1.6171">
        <ele>74</ele>
        <time>2022-07-30T10:10:19Z</time>
      </trkpt>
      <trkpt lat="47.17252" lon="-1.61723">
        <ele>73</ele>
        <time>2022-07-30T10:10:21Z</time>
      </trkpt>
      <trkpt lat="47.17247" lon="-1.61736">
        <ele>73</ele>
        <time>2022-07-30T10:10:23Z</time>
      </trkpt>
      <trkpt lat="47.17244" lon="-1.61751">
        <ele>72</ele>
        <time>2022-07-30T10:10:25Z</time>
      </trkpt>
      <trkpt lat="47.17243" lon="-1.61768">
        <ele>72</ele>
        <time>2022-07-30T10:10:27Z</time>
      </trkpt>
      <trkpt lat="47.17236" lon="-1.61781">
        <ele>71</ele>
        <time>2022-07-30T10:10:29Z</time>
      </trkpt>
      <trkpt lat="47.17226" lon="-1.61791">
        <ele>71</ele>
        <time>2022-07-30T10:10:31Z</time>
      </trkpt>
      <trkpt lat="47.17217" lon="-1.61799">
        <ele>70</ele>
        <time>2022-07-30T10:10:33Z</time>
      </trkpt>
      <trkpt lat="47.17207" lon="-1.61808">
        <ele>70</ele>
        <time>2022-07-30T10:10:35Z</time>
      </trkpt>
      <trkpt lat="47.17197" lon="-1.61816">
        <ele>70</ele>
        <time>2022-07-30T10:10:37Z</time>
      </trkpt>
      <trkpt lat="47.17187" lon="-1.61826">
        <ele>70</ele>
        <time>2022-07-30T10:10:39Z</time>
      </trkpt>
      <trkpt lat="47.17178" lon="-1.61835">
        <ele>70</ele>
        <time>2022-07-30T10:10:41Z</time>
      </trkpt>
      <trkpt lat="47.17168" lon="-1.61844">
        <ele>70</ele>
        <time>2022-07-30T10:10:43Z</time>
      </trkpt>
      <trkpt lat="47.17158" lon="-1.61854">
        <ele>69</ele>
        <time>2022-07-30T10:10:45Z</time>
      </trkpt>
      <trkpt lat="47.17148" lon="-1.61862">
        <ele>69</ele>
        <time>2022-07-30T10:10:47Z</time>
      </trkpt>
      <trkpt lat="47.17138" lon="-1.61872">
        <ele>69</ele>
        <time>2022-07-30T10:10:49Z</time>
      </trkpt>
      <trkpt lat="47.17128" lon="-1.61881">
        <ele>69</ele>
        <time>2022-07-30T10:10:51Z</time>
      </trkpt>
      <trkpt lat="47.17119" lon="-1.6189">
        <ele>69</ele>
        <time>2022-07-30T10:10:53Z</time>
      </trkpt>
      <trkpt lat="47.17109" lon="-1.619">
        <ele>68</ele>
        <time>2022-07-30T10:10:55Z</time>
      </trkpt>
      <trkpt lat="47.171" lon="-1.61909">
        <ele>68</ele>
        <time>2022-07-30T10:10:57Z</time>
      </trkpt>
      <trkpt lat="47.17091" lon="-1.61917">
        <ele>68</ele>
        <time>2022-07-30T10:10:59Z</time>
      </trkpt>
      <trkpt lat="47.17082" lon="-1.61927">
        <ele>69</ele>
        <time>2022-07-30T10:11:01Z</time>
      </trkpt>
      <trkpt lat="47.17074" lon="-1.61935">
        <ele>69</ele>
        <time>2022-07-30T10:11:03Z</time>
      </trkpt>
      <trkpt lat="47.17065" lon="-1.61946">
        <ele>69</ele>
        <time>2022-07-30T10:11:05Z</time>
      </trkpt>
      <trkpt lat="47.17055" lon="-1.61957">
        <ele>69</ele>
        <time>2022-07-30T10:11:07Z</time>
      </trkpt>
      <trkpt lat="47.17045" lon="-1.61969">
        <ele>69</ele>
        <time>2022-07-30T10:11:09Z</time>
      </trkpt>
      <trkpt lat="47.17037" lon="-1.61981">
        <ele>69</ele>
        <time>2022-07-30T10:11:11Z</time>
      </trkpt>
      <trkpt lat="47.17029" lon="-1.61995">
        <ele>69</ele>
        <time>2022-07-30T10:11:13Z</time>
      </trkpt>
      <trkpt lat="47.17021" lon="-1.62007">
        <ele>69</ele>
        <time>2022-07-30T10:11:15Z</time>
      </trkpt>
      <trkpt lat="47.17012" lon="-1.62019">
        <ele>69</ele>
        <time>2022-07-30T10:11:17Z</time>
      </trkpt>
      <trkpt lat="47.17003" lon="-1.62032">
        <ele>70</ele>
        <time>2022-07-30T10:11:19Z</time>
      </trkpt>
      <trkpt lat="47.16995" lon="-1.62046">
        <ele>69</ele>
        <time>2022-07-30T10:11:21Z</time>
      </trkpt>
      <trkpt lat="47.16988" lon="-1.62061">
        <ele>69</ele>
        <time>2022-07-30T10:11:23Z</time>
      </trkpt>
      <trkpt lat="47.1698" lon="-1.62075">
        <ele>70</ele>
        <time>2022-07-30T10:11:25Z</time>
      </trkpt>
      <trkpt lat="47.16972" lon="-1.62088">
        <ele>70</ele>
        <time>2022-07-30T10:11:27Z</time>
      </trkpt>
      <trkpt lat="47.16965" lon="-1.62102">
        <ele>69</ele>
        <time>2022-07-30T10:11:29Z</time>
      </trkpt>
      <trkpt lat="47.16958" lon="-1.62116">
        <ele>70</ele>
        <time>2022-07-30T10:11:31Z</time>
      </trkpt>
      <trkpt lat="47.1695" lon="-1.62129">
        <ele>70</ele>
        <time>2022-07-30T10:11:33Z</time>
      </trkpt>
      <trkpt lat="47.16941" lon="-1.62143">
        <ele>69</ele>
        <time>2022-07-30T10:11:35Z</time>
      </trkpt>
      <trkpt lat="47.16936" lon="-1.62158">
        <ele>70</ele>
        <time>2022-07-30T10:11:37Z</time>
      </trkpt>
      <trkpt lat="47.1693" lon="-1.62173">
        <ele>69</ele>
        <time>2022-07-30T10:11:39Z</time>
      </trkpt>
      <trkpt lat="47.16922" lon="-1.62188">
        <ele>70</ele>
        <time>2022-07-30T10:11:41Z</time>
      </trkpt>
      <trkpt lat="47.16914" lon="-1.62203">
        <ele>70</ele>
        <time>2022-07-30T10:11:43Z</time>
      </trkpt>
      <trkpt lat="47.16906" lon="-1.62215">
        <ele>70</ele>
        <time>2022-07-30T10:11:45Z</time>
      </trkpt>
      <trkpt lat="47.16896" lon="-1.62228">
        <ele>70</ele>
        <time>2022-07-30T10:11:47Z</time>
      </trkpt>
      <trkpt lat="47.16887" lon="-1.62239">
        <ele>70</ele>
        <time>2022-07-30T10:11:49Z</time>
      </trkpt>
      <trkpt lat="47.16877" lon="-1.62252">
        <ele>70</ele>
        <time>2022-07-30T10:11:51Z</time>
      </trkpt>
      <trkpt lat="47.16867" lon="-1.62263">
        <ele>70</ele>
        <time>2022-07-30T10:11:53Z</time>
      </trkpt>
      <trkpt lat="47.16857" lon="-1.62275">
        <ele>70</ele>
        <time>2022-07-30T10:11:55Z</time>
      </trkpt>
      <trkpt lat="47.16848" lon="-1.62286">
        <ele>70</ele>
        <time>2022-07-30T10:11:57Z</time>
      </trkpt>
      <trkpt lat="47.16838" lon="-1.62297">
        <ele>71</ele>
        <time>2022-07-30T10:11:59Z</time>
      </trkpt>
      <trkpt lat="47.16829" lon="-1.62308">
        <ele>71</ele>
        <time>2022-07-30T10:12:01Z</time>
      </trkpt>
      <trkpt lat="47.16819" lon="-1.62317">
        <ele>71</ele>
        <time>2022-07-30T10:12:03Z</time>
      </trkpt>
      <trkpt lat="47.16808" lon="-1.62324">
        <ele>71</ele>
        <time>2022-07-30T10:12:05Z</time>
      </trkpt>
      <trkpt lat="47.16797" lon="-1.62332">
        <ele>71</ele>
        <time>2022-07-30T10:12:07Z</time>
      </trkpt>
      <trkpt lat="47.16785" lon="-1.62338">
        <ele>70</ele>
        <time>2022-07-30T10:12:09Z</time>
      </trkpt>
      <trkpt lat="47.16773" lon="-1.62344">
        <ele>70</ele>
        <time>2022-07-30T10:12:11Z</time>
      </trkpt>
      <trkpt lat="47.16762" lon="-1.62351">
        <ele>69</ele>
        <time>2022-07-30T10:12:13Z</time>
      </trkpt>
      <trkpt lat="47.16752" lon="-1.6236">
        <ele>69</ele>
        <time>2022-07-30T10:12:15Z</time>
      </trkpt>
      <trkpt lat="47.16742" lon="-1.62371">
        <ele>69</ele>
        <time>2022-07-30T10:12:17Z</time>
      </trkpt>
      <trkpt lat="47.16734" lon="-1.62385">
        <ele>68</ele>
        <time>2022-07-30T10:12:19Z</time>
      </trkpt>
      <trkpt lat="47.1673" lon="-1.62401">
        <ele>68</ele>
        <time>2022-07-30T10:12:21Z</time>
      </trkpt>
      <trkpt lat="47.16728" lon="-1.62415">
        <ele>67</ele>
        <time>2022-07-30T10:12:23Z</time>
      </trkpt>
      <trkpt lat="47.16727" lon="-1.62429">
        <ele>69</ele>
        <time>2022-07-30T10:12:28Z</time>
      </trkpt>
      <trkpt lat="47.16722" lon="-1.62448">
        <ele>69</ele>
        <time>2022-07-30T10:12:31Z</time>
      </trkpt>
      <trkpt lat="47.16718" lon="-1.62465">
        <ele>69</ele>
        <time>2022-07-30T10:12:33Z</time>
      </trkpt>
      <trkpt lat="47.16714" lon="-1.62479">
        <ele>69</ele>
        <time>2022-07-30T10:12:35Z</time>
      </trkpt>
      <trkpt lat="47.16716" lon="-1.62492">
        <ele>69</ele>
        <time>2022-07-30T10:12:37Z</time>
      </trkpt>
      <trkpt lat="47.16724" lon="-1.62499">
        <ele>68</ele>
        <time>2022-07-30T10:12:39Z</time>
      </trkpt>
      <trkpt lat="47.16735" lon="-1.62502">
        <ele>69</ele>
        <time>2022-07-30T10:12:41Z</time>
      </trkpt>
      <trkpt lat="47.16747" lon="-1.62507">
        <ele>70</ele>
        <time>2022-07-30T10:12:43Z</time>
      </trkpt>
      <trkpt lat="47.16759" lon="-1.62513">
        <ele>70</ele>
        <time>2022-07-30T10:12:45Z</time>
      </trkpt>
      <trkpt lat="47.1677" lon="-1.6252">
        <ele>70</ele>
        <time>2022-07-30T10:12:47Z</time>
      </trkpt>
      <trkpt lat="47.16781" lon="-1.62528">
        <ele>71</ele>
        <time>2022-07-30T10:12:49Z</time>
      </trkpt>
      <trkpt lat="47.16791" lon="-1.62535">
        <ele>72</ele>
        <time>2022-07-30T10:12:51Z</time>
      </trkpt>
      <trkpt lat="47.16802" lon="-1.62542">
        <ele>71</ele>
        <time>2022-07-30T10:12:53Z</time>
      </trkpt>
      <trkpt lat="47.16812" lon="-1.6255">
        <ele>71</ele>
        <time>2022-07-30T10:12:55Z</time>
      </trkpt>
      <trkpt lat="47.16821" lon="-1.62559">
        <ele>71</ele>
        <time>2022-07-30T10:12:57Z</time>
      </trkpt>
      <trkpt lat="47.1683" lon="-1.62571">
        <ele>71</ele>
        <time>2022-07-30T10:12:59Z</time>
      </trkpt>
      <trkpt lat="47.16833" lon="-1.62585">
        <ele>71</ele>
        <time>2022-07-30T10:13:01Z</time>
      </trkpt>
      <trkpt lat="47.16825" lon="-1.62596">
        <ele>71</ele>
        <time>2022-07-30T10:13:03Z</time>
      </trkpt>
      <trkpt lat="47.16817" lon="-1.62609">
        <ele>71</ele>
        <time>2022-07-30T10:13:05Z</time>
      </trkpt>
      <trkpt lat="47.16809" lon="-1.62621">
        <ele>71</ele>
        <time>2022-07-30T10:13:07Z</time>
      </trkpt>
      <trkpt lat="47.16801" lon="-1.62632">
        <ele>71</ele>
        <time>2022-07-30T10:13:09Z</time>
      </trkpt>
      <trkpt lat="47.16794" lon="-1.62644">
        <ele>71</ele>
        <time>2022-07-30T10:13:11Z</time>
      </trkpt>
      <trkpt lat="47.16786" lon="-1.62657">
        <ele>71</ele>
        <time>2022-07-30T10:13:14Z</time>
      </trkpt>
      <trkpt lat="47.16776" lon="-1.62655">
        <ele>71</ele>
        <time>2022-07-30T10:13:20Z</time>
      </trkpt>
    </trkseg>
  </trk>
</gpx>